<?xml version="1.0" encoding="UTF-8" standalone="no" ?>
<gpx xmlns="http://www.topografix.com/GPX/1/1" xmlns:xsi="http://www.w3.org/2001/XMLSchema-instance" xsi:schemaLocation="http://www.topografix.com/GPX/1/1 http://www.topografix.com/GPX/1/1/gpx.xsd" version="1.1" creator="VisuGPX - https://www.visugpx.com">
  <metadata>
    <name>Tour d'Europe: étape 044</name>
    <desc><![CDATA[Étape 044]]></desc>
  </metadata>
  <trk>
    <name><![CDATA[Tour d'Europe: étape 044]]></name>
    <trkseg>
      <trkpt lat="64.47514" lon="11.57863">
        <ele>52.171044</ele>
        <time>2020-08-11T07:21:34.885Z</time>
      </trkpt>
      <trkpt lat="64.47504" lon="11.57862">
        <ele>52.171044</ele>
        <time>2020-08-11T07:23:33.983Z</time>
      </trkpt>
      <trkpt lat="64.47495" lon="11.57857">
        <ele>52.171044</ele>
        <time>2020-08-11T07:23:41.965Z</time>
      </trkpt>
      <trkpt lat="64.47479" lon="11.57863">
        <ele>52.171044</ele>
        <time>2020-08-11T07:23:48.964Z</time>
      </trkpt>
      <trkpt lat="64.4746" lon="11.5787">
        <ele>52.171044</ele>
        <time>2020-08-11T07:24:53.980Z</time>
      </trkpt>
      <trkpt lat="64.4745" lon="11.57865">
        <ele>52.171044</ele>
        <time>2020-08-11T07:24:57.952Z</time>
      </trkpt>
      <trkpt lat="64.4744" lon="11.57855">
        <ele>52.171044</ele>
        <time>2020-08-11T07:25:01.981Z</time>
      </trkpt>
      <trkpt lat="64.4743" lon="11.57843">
        <ele>52.171044</ele>
        <time>2020-08-11T07:25:05.955Z</time>
      </trkpt>
      <trkpt lat="64.47421" lon="11.57829">
        <ele>51.961343</ele>
        <time>2020-08-11T07:25:09.941Z</time>
      </trkpt>
      <trkpt lat="64.47413" lon="11.57818">
        <ele>51.721632</ele>
        <time>2020-08-11T07:25:12.966Z</time>
      </trkpt>
      <trkpt lat="64.47405" lon="11.57803">
        <ele>51.451703</ele>
        <time>2020-08-11T07:25:15.961Z</time>
      </trkpt>
      <trkpt lat="64.47397" lon="11.5779">
        <ele>51.186088</ele>
        <time>2020-08-11T07:25:18.951Z</time>
      </trkpt>
      <trkpt lat="64.47388" lon="11.57777">
        <ele>50.916718</ele>
        <time>2020-08-11T07:25:21.951Z</time>
      </trkpt>
      <trkpt lat="64.47379" lon="11.57762">
        <ele>50.628696</ele>
        <time>2020-08-11T07:25:24.958Z</time>
      </trkpt>
      <trkpt lat="64.47371" lon="11.57743">
        <ele>50.340444</ele>
        <time>2020-08-11T07:25:27.948Z</time>
      </trkpt>
      <trkpt lat="64.47364" lon="11.57719">
        <ele>50.007043</ele>
        <time>2020-08-11T07:25:30.948Z</time>
      </trkpt>
      <trkpt lat="64.47357" lon="11.57695">
        <ele>49.67067</ele>
        <time>2020-08-11T07:25:33.962Z</time>
      </trkpt>
      <trkpt lat="64.4735" lon="11.57672">
        <ele>49.351988</ele>
        <time>2020-08-11T07:25:36.988Z</time>
      </trkpt>
      <trkpt lat="64.47343" lon="11.57648">
        <ele>49.02554</ele>
        <time>2020-08-11T07:25:39.964Z</time>
      </trkpt>
      <trkpt lat="64.47336" lon="11.57624">
        <ele>48.711132</ele>
        <time>2020-08-11T07:25:42.943Z</time>
      </trkpt>
      <trkpt lat="64.4733" lon="11.57602">
        <ele>48.415261</ele>
        <time>2020-08-11T07:25:45.966Z</time>
      </trkpt>
      <trkpt lat="64.47324" lon="11.57581">
        <ele>48.114867</ele>
        <time>2020-08-11T07:25:48.952Z</time>
      </trkpt>
      <trkpt lat="64.47317" lon="11.57559">
        <ele>47.814472</ele>
        <time>2020-08-11T07:25:51.943Z</time>
      </trkpt>
      <trkpt lat="64.47312" lon="11.57534">
        <ele>47.50458</ele>
        <time>2020-08-11T07:25:54.957Z</time>
      </trkpt>
      <trkpt lat="64.47306" lon="11.5751">
        <ele>47.198475</ele>
        <time>2020-08-11T07:25:57.960Z</time>
      </trkpt>
      <trkpt lat="64.47301" lon="11.57484">
        <ele>46.895914</ele>
        <time>2020-08-11T07:26:00.941Z</time>
      </trkpt>
      <trkpt lat="64.47298" lon="11.57457">
        <ele>46.592676</ele>
        <time>2020-08-11T07:26:03.949Z</time>
      </trkpt>
      <trkpt lat="64.47296" lon="11.57429">
        <ele>46.289559</ele>
        <time>2020-08-11T07:26:06.938Z</time>
      </trkpt>
      <trkpt lat="64.47296" lon="11.57402">
        <ele>46.005006</ele>
        <time>2020-08-11T07:26:09.951Z</time>
      </trkpt>
      <trkpt lat="64.47299" lon="11.5738">
        <ele>45.751263</ele>
        <time>2020-08-11T07:26:12.962Z</time>
      </trkpt>
      <trkpt lat="64.47309" lon="11.57368">
        <ele>45.473125</ele>
        <time>2020-08-11T07:26:15.937Z</time>
      </trkpt>
      <trkpt lat="64.47321" lon="11.57365">
        <ele>45.163437</ele>
        <time>2020-08-11T07:26:18.944Z</time>
      </trkpt>
      <trkpt lat="64.47332" lon="11.5736">
        <ele>44.890755</ele>
        <time>2020-08-11T07:26:21.989Z</time>
      </trkpt>
      <trkpt lat="64.47341" lon="11.57344">
        <ele>44.6117</ele>
        <time>2020-08-11T07:26:24.950Z</time>
      </trkpt>
      <trkpt lat="64.47348" lon="11.57322">
        <ele>44.324029</ele>
        <time>2020-08-11T07:26:27.959Z</time>
      </trkpt>
      <trkpt lat="64.47351" lon="11.57295">
        <ele>44.022497</ele>
        <time>2020-08-11T07:26:30.965Z</time>
      </trkpt>
      <trkpt lat="64.47351" lon="11.57265">
        <ele>43.701552</ele>
        <time>2020-08-11T07:26:33.974Z</time>
      </trkpt>
      <trkpt lat="64.47347" lon="11.57236">
        <ele>43.376752</ele>
        <time>2020-08-11T07:26:36.964Z</time>
      </trkpt>
      <trkpt lat="64.47345" lon="11.57215">
        <ele>43.144646</ele>
        <time>2020-08-11T07:26:38.956Z</time>
      </trkpt>
      <trkpt lat="64.47342" lon="11.57194">
        <ele>43.033878</ele>
        <time>2020-08-11T07:26:40.980Z</time>
      </trkpt>
      <trkpt lat="64.4734" lon="11.57173">
        <ele>43.26137</ele>
        <time>2020-08-11T07:26:42.945Z</time>
      </trkpt>
      <trkpt lat="64.47337" lon="11.57145">
        <ele>43.563725</ele>
        <time>2020-08-11T07:26:45.945Z</time>
      </trkpt>
      <trkpt lat="64.47334" lon="11.57115">
        <ele>43.874728</ele>
        <time>2020-08-11T07:26:48.949Z</time>
      </trkpt>
      <trkpt lat="64.4733" lon="11.57086">
        <ele>44.193135</ele>
        <time>2020-08-11T07:26:51.951Z</time>
      </trkpt>
      <trkpt lat="64.47327" lon="11.57056">
        <ele>44.514809</ele>
        <time>2020-08-11T07:26:54.966Z</time>
      </trkpt>
      <trkpt lat="64.47324" lon="11.57027">
        <ele>44.819325</ele>
        <time>2020-08-11T07:26:57.950Z</time>
      </trkpt>
      <trkpt lat="64.47322" lon="11.56998">
        <ele>45.131281</ele>
        <time>2020-08-11T07:27:00.959Z</time>
      </trkpt>
      <trkpt lat="64.4732" lon="11.56971">
        <ele>45.418369</ele>
        <time>2020-08-11T07:27:03.953Z</time>
      </trkpt>
      <trkpt lat="64.4732" lon="11.56944">
        <ele>45.690963</ele>
        <time>2020-08-11T07:27:06.999Z</time>
      </trkpt>
      <trkpt lat="64.47321" lon="11.56918">
        <ele>45.964824</ele>
        <time>2020-08-11T07:27:09.946Z</time>
      </trkpt>
      <trkpt lat="64.47326" lon="11.56895">
        <ele>46.241437</ele>
        <time>2020-08-11T07:27:12.986Z</time>
      </trkpt>
      <trkpt lat="64.47335" lon="11.56878">
        <ele>46.524437</ele>
        <time>2020-08-11T07:27:15.961Z</time>
      </trkpt>
      <trkpt lat="64.47344" lon="11.56867">
        <ele>46.769136</ele>
        <time>2020-08-11T07:27:18.960Z</time>
      </trkpt>
      <trkpt lat="64.47353" lon="11.56854">
        <ele>47.024718</ele>
        <time>2020-08-11T07:27:22.973Z</time>
      </trkpt>
      <trkpt lat="64.47363" lon="11.56839">
        <ele>47.297119</ele>
        <time>2020-08-11T07:27:26.950Z</time>
      </trkpt>
      <trkpt lat="64.47371" lon="11.56828">
        <ele>47.305776</ele>
        <time>2020-08-11T07:27:29.946Z</time>
      </trkpt>
      <trkpt lat="64.47379" lon="11.56817">
        <ele>47.301616</ele>
        <time>2020-08-11T07:27:32.945Z</time>
      </trkpt>
      <trkpt lat="64.47387" lon="11.56807">
        <ele>47.297536</ele>
        <time>2020-08-11T07:27:35.941Z</time>
      </trkpt>
      <trkpt lat="64.47396" lon="11.56795">
        <ele>47.292862</ele>
        <time>2020-08-11T07:27:39.975Z</time>
      </trkpt>
      <trkpt lat="64.47404" lon="11.5678">
        <ele>47.288424</ele>
        <time>2020-08-11T07:27:43.983Z</time>
      </trkpt>
      <trkpt lat="64.47412" lon="11.56765">
        <ele>47.283822</ele>
        <time>2020-08-11T07:27:50.986Z</time>
      </trkpt>
      <trkpt lat="64.47413" lon="11.56744">
        <ele>47.279731</ele>
        <time>2020-08-11T07:27:55.021Z</time>
      </trkpt>
      <trkpt lat="64.4741" lon="11.56722">
        <ele>47.275332</ele>
        <time>2020-08-11T07:27:57.951Z</time>
      </trkpt>
      <trkpt lat="64.47406" lon="11.56699">
        <ele>47.270632</ele>
        <time>2020-08-11T07:28:00.946Z</time>
      </trkpt>
      <trkpt lat="64.47402" lon="11.56676">
        <ele>47.265879</ele>
        <time>2020-08-11T07:28:03.950Z</time>
      </trkpt>
      <trkpt lat="64.47398" lon="11.56653">
        <ele>47.261182</ele>
        <time>2020-08-11T07:28:06.937Z</time>
      </trkpt>
      <trkpt lat="64.47393" lon="11.56631">
        <ele>47.256569</ele>
        <time>2020-08-11T07:28:09.957Z</time>
      </trkpt>
      <trkpt lat="64.47389" lon="11.5661">
        <ele>47.252081</ele>
        <time>2020-08-11T07:28:12.946Z</time>
      </trkpt>
      <trkpt lat="64.47385" lon="11.56587">
        <ele>47.24726</ele>
        <time>2020-08-11T07:28:15.942Z</time>
      </trkpt>
      <trkpt lat="64.4738" lon="11.56564">
        <ele>47.242348</ele>
        <time>2020-08-11T07:28:18.937Z</time>
      </trkpt>
      <trkpt lat="64.47375" lon="11.56541">
        <ele>47.237529</ele>
        <time>2020-08-11T07:28:21.959Z</time>
      </trkpt>
      <trkpt lat="64.4737" lon="11.56519">
        <ele>47.232728</ele>
        <time>2020-08-11T07:28:24.962Z</time>
      </trkpt>
      <trkpt lat="64.47364" lon="11.56495">
        <ele>47.229534</ele>
        <time>2020-08-11T07:28:27.939Z</time>
      </trkpt>
      <trkpt lat="64.4736" lon="11.56475">
        <ele>47.228484</ele>
        <time>2020-08-11T07:28:30.936Z</time>
      </trkpt>
      <trkpt lat="64.47356" lon="11.56452">
        <ele>47.227328</ele>
        <time>2020-08-11T07:28:33.959Z</time>
      </trkpt>
      <trkpt lat="64.47351" lon="11.56428">
        <ele>47.226081</ele>
        <time>2020-08-11T07:28:36.964Z</time>
      </trkpt>
      <trkpt lat="64.47345" lon="11.56404">
        <ele>47.224781</ele>
        <time>2020-08-11T07:28:39.968Z</time>
      </trkpt>
      <trkpt lat="64.47339" lon="11.56379">
        <ele>47.223458</ele>
        <time>2020-08-11T07:28:42.941Z</time>
      </trkpt>
      <trkpt lat="64.47333" lon="11.56355">
        <ele>47.22217</ele>
        <time>2020-08-11T07:28:45.938Z</time>
      </trkpt>
      <trkpt lat="64.47325" lon="11.56331">
        <ele>47.220795</ele>
        <time>2020-08-11T07:28:48.953Z</time>
      </trkpt>
      <trkpt lat="64.47318" lon="11.56306">
        <ele>47.219406</ele>
        <time>2020-08-11T07:28:51.931Z</time>
      </trkpt>
      <trkpt lat="64.47313" lon="11.56288">
        <ele>47.218417</ele>
        <time>2020-08-11T07:28:53.961Z</time>
      </trkpt>
      <trkpt lat="64.47308" lon="11.56271">
        <ele>47.217429</ele>
        <time>2020-08-11T07:28:55.965Z</time>
      </trkpt>
      <trkpt lat="64.47303" lon="11.56253">
        <ele>47.216445</ele>
        <time>2020-08-11T07:28:57.968Z</time>
      </trkpt>
      <trkpt lat="64.47298" lon="11.56235">
        <ele>47.215404</ele>
        <time>2020-08-11T07:28:59.946Z</time>
      </trkpt>
      <trkpt lat="64.47293" lon="11.56215">
        <ele>47.21433</ele>
        <time>2020-08-11T07:29:01.976Z</time>
      </trkpt>
      <trkpt lat="64.47288" lon="11.56195">
        <ele>47.213261</ele>
        <time>2020-08-11T07:29:03.960Z</time>
      </trkpt>
      <trkpt lat="64.47282" lon="11.56175">
        <ele>47.212171</ele>
        <time>2020-08-11T07:29:05.949Z</time>
      </trkpt>
      <trkpt lat="64.47277" lon="11.56155">
        <ele>47.21109</ele>
        <time>2020-08-11T07:29:07.967Z</time>
      </trkpt>
      <trkpt lat="64.47272" lon="11.56136">
        <ele>47.221966</ele>
        <time>2020-08-11T07:29:09.950Z</time>
      </trkpt>
      <trkpt lat="64.47268" lon="11.56116">
        <ele>47.238992</ele>
        <time>2020-08-11T07:29:11.952Z</time>
      </trkpt>
      <trkpt lat="64.47263" lon="11.56095">
        <ele>47.256532</ele>
        <time>2020-08-11T07:29:13.935Z</time>
      </trkpt>
      <trkpt lat="64.47258" lon="11.56074">
        <ele>47.274483</ele>
        <time>2020-08-11T07:29:15.943Z</time>
      </trkpt>
      <trkpt lat="64.47254" lon="11.56051">
        <ele>47.292671</ele>
        <time>2020-08-11T07:29:17.987Z</time>
      </trkpt>
      <trkpt lat="64.4725" lon="11.5603">
        <ele>47.309766</ele>
        <time>2020-08-11T07:29:19.940Z</time>
      </trkpt>
      <trkpt lat="64.47246" lon="11.5601">
        <ele>47.326671</ele>
        <time>2020-08-11T07:29:21.948Z</time>
      </trkpt>
      <trkpt lat="64.47241" lon="11.55989">
        <ele>47.344144</ele>
        <time>2020-08-11T07:29:23.981Z</time>
      </trkpt>
      <trkpt lat="64.47237" lon="11.55969">
        <ele>47.361109</ele>
        <time>2020-08-11T07:29:25.962Z</time>
      </trkpt>
      <trkpt lat="64.47233" lon="11.55948">
        <ele>47.378024</ele>
        <time>2020-08-11T07:29:27.949Z</time>
      </trkpt>
      <trkpt lat="64.47227" lon="11.55928">
        <ele>47.395756</ele>
        <time>2020-08-11T07:29:29.936Z</time>
      </trkpt>
      <trkpt lat="64.47222" lon="11.55908">
        <ele>47.413367</ele>
        <time>2020-08-11T07:29:31.946Z</time>
      </trkpt>
      <trkpt lat="64.47216" lon="11.5588">
        <ele>47.436155</ele>
        <time>2020-08-11T07:29:34.950Z</time>
      </trkpt>
      <trkpt lat="64.47211" lon="11.55852">
        <ele>47.459292</ele>
        <time>2020-08-11T07:29:37.937Z</time>
      </trkpt>
      <trkpt lat="64.47208" lon="11.55832">
        <ele>47.475216</ele>
        <time>2020-08-11T07:29:40.024Z</time>
      </trkpt>
      <trkpt lat="64.47203" lon="11.55805">
        <ele>47.497661</ele>
        <time>2020-08-11T07:29:42.940Z</time>
      </trkpt>
      <trkpt lat="64.47198" lon="11.55778">
        <ele>47.519419</ele>
        <time>2020-08-11T07:29:45.949Z</time>
      </trkpt>
      <trkpt lat="64.47192" lon="11.55751">
        <ele>47.885216</ele>
        <time>2020-08-11T07:29:48.966Z</time>
      </trkpt>
      <trkpt lat="64.47187" lon="11.55724">
        <ele>48.302513</ele>
        <time>2020-08-11T07:29:51.966Z</time>
      </trkpt>
      <trkpt lat="64.47182" lon="11.55699">
        <ele>48.701313</ele>
        <time>2020-08-11T07:29:54.963Z</time>
      </trkpt>
      <trkpt lat="64.47179" lon="11.55676">
        <ele>49.039801</ele>
        <time>2020-08-11T07:29:58.965Z</time>
      </trkpt>
      <trkpt lat="64.47173" lon="11.55654">
        <ele>49.403137</ele>
        <time>2020-08-11T07:30:05.972Z</time>
      </trkpt>
      <trkpt lat="64.47168" lon="11.55631">
        <ele>49.767318</ele>
        <time>2020-08-11T07:30:09.958Z</time>
      </trkpt>
      <trkpt lat="64.47161" lon="11.55609">
        <ele>50.158326</ele>
        <time>2020-08-11T07:30:13.963Z</time>
      </trkpt>
      <trkpt lat="64.47154" lon="11.55594">
        <ele>50.454091</ele>
        <time>2020-08-11T07:30:16.971Z</time>
      </trkpt>
      <trkpt lat="64.47149" lon="11.55577">
        <ele>50.75759</ele>
        <time>2020-08-11T07:30:19.983Z</time>
      </trkpt>
      <trkpt lat="64.47145" lon="11.55559">
        <ele>51.053359</ele>
        <time>2020-08-11T07:30:22.955Z</time>
      </trkpt>
      <trkpt lat="64.47139" lon="11.55541">
        <ele>51.375715</ele>
        <time>2020-08-11T07:30:25.970Z</time>
      </trkpt>
      <trkpt lat="64.47133" lon="11.55523">
        <ele>51.687335</ele>
        <time>2020-08-11T07:30:28.981Z</time>
      </trkpt>
      <trkpt lat="64.47127" lon="11.555">
        <ele>52.067412</ele>
        <time>2020-08-11T07:30:32.940Z</time>
      </trkpt>
      <trkpt lat="64.47121" lon="11.55476">
        <ele>52.456046</ele>
        <time>2020-08-11T07:30:36.980Z</time>
      </trkpt>
      <trkpt lat="64.47117" lon="11.55454">
        <ele>52.798184</ele>
        <time>2020-08-11T07:30:39.964Z</time>
      </trkpt>
      <trkpt lat="64.47112" lon="11.55431">
        <ele>53.171875</ele>
        <time>2020-08-11T07:30:43.930Z</time>
      </trkpt>
      <trkpt lat="64.47108" lon="11.55408">
        <ele>53.516216</ele>
        <time>2020-08-11T07:30:47.957Z</time>
      </trkpt>
      <trkpt lat="64.47104" lon="11.55386">
        <ele>53.854318</ele>
        <time>2020-08-11T07:30:51.960Z</time>
      </trkpt>
      <trkpt lat="64.47101" lon="11.55366">
        <ele>54.164694</ele>
        <time>2020-08-11T07:30:55.955Z</time>
      </trkpt>
      <trkpt lat="64.47095" lon="11.55344">
        <ele>54.513421</ele>
        <time>2020-08-11T07:31:00.969Z</time>
      </trkpt>
      <trkpt lat="64.47091" lon="11.55322">
        <ele>54.871134</ele>
        <time>2020-08-11T07:31:05.941Z</time>
      </trkpt>
      <trkpt lat="64.47087" lon="11.55302">
        <ele>55.172433</ele>
        <time>2020-08-11T07:31:09.952Z</time>
      </trkpt>
      <trkpt lat="64.47082" lon="11.55279">
        <ele>55.541855</ele>
        <time>2020-08-11T07:31:14.960Z</time>
      </trkpt>
      <trkpt lat="64.47078" lon="11.55256">
        <ele>55.897303</ele>
        <time>2020-08-11T07:31:19.961Z</time>
      </trkpt>
      <trkpt lat="64.47077" lon="11.55235">
        <ele>56.207492</ele>
        <time>2020-08-11T07:31:24.958Z</time>
      </trkpt>
      <trkpt lat="64.47074" lon="11.55214">
        <ele>56.506763</ele>
        <time>2020-08-11T07:31:29.949Z</time>
      </trkpt>
      <trkpt lat="64.47073" lon="11.5519">
        <ele>56.853453</ele>
        <time>2020-08-11T07:31:35.944Z</time>
      </trkpt>
      <trkpt lat="64.47073" lon="11.55168">
        <ele>57.164335</ele>
        <time>2020-08-11T07:31:40.959Z</time>
      </trkpt>
      <trkpt lat="64.47073" lon="11.55145">
        <ele>57.503737</ele>
        <time>2020-08-11T07:31:45.946Z</time>
      </trkpt>
      <trkpt lat="64.47074" lon="11.55121">
        <ele>57.848706</ele>
        <time>2020-08-11T07:31:50.961Z</time>
      </trkpt>
      <trkpt lat="64.47076" lon="11.55099">
        <ele>58.162441</ele>
        <time>2020-08-11T07:31:54.943Z</time>
      </trkpt>
      <trkpt lat="64.47077" lon="11.55078">
        <ele>58.461547</ele>
        <time>2020-08-11T07:31:58.967Z</time>
      </trkpt>
      <trkpt lat="64.4708" lon="11.55054">
        <ele>58.823869</ele>
        <time>2020-08-11T07:32:03.944Z</time>
      </trkpt>
      <trkpt lat="64.47083" lon="11.5503">
        <ele>59.183442</ele>
        <time>2020-08-11T07:32:07.986Z</time>
      </trkpt>
      <trkpt lat="64.47086" lon="11.55004">
        <ele>59.455119</ele>
        <time>2020-08-11T07:32:11.986Z</time>
      </trkpt>
      <trkpt lat="64.47088" lon="11.54978">
        <ele>59.612755</ele>
        <time>2020-08-11T07:32:15.964Z</time>
      </trkpt>
      <trkpt lat="64.47091" lon="11.54956">
        <ele>59.748959</ele>
        <time>2020-08-11T07:32:18.948Z</time>
      </trkpt>
      <trkpt lat="64.47094" lon="11.5493">
        <ele>59.903773</ele>
        <time>2020-08-11T07:32:21.943Z</time>
      </trkpt>
      <trkpt lat="64.47096" lon="11.54902">
        <ele>60.07063</ele>
        <time>2020-08-11T07:32:24.957Z</time>
      </trkpt>
      <trkpt lat="64.47098" lon="11.54882">
        <ele>60.196583</ele>
        <time>2020-08-11T07:32:26.945Z</time>
      </trkpt>
      <trkpt lat="64.471" lon="11.5486">
        <ele>60.326839</ele>
        <time>2020-08-11T07:32:28.961Z</time>
      </trkpt>
      <trkpt lat="64.47101" lon="11.54839">
        <ele>60.450818</ele>
        <time>2020-08-11T07:32:30.952Z</time>
      </trkpt>
      <trkpt lat="64.47102" lon="11.54811">
        <ele>60.618028</ele>
        <time>2020-08-11T07:32:33.984Z</time>
      </trkpt>
      <trkpt lat="64.47101" lon="11.54786">
        <ele>60.76282</ele>
        <time>2020-08-11T07:32:36.970Z</time>
      </trkpt>
      <trkpt lat="64.471" lon="11.54762">
        <ele>60.909528</ele>
        <time>2020-08-11T07:32:39.972Z</time>
      </trkpt>
      <trkpt lat="64.47098" lon="11.54734">
        <ele>61.075296</ele>
        <time>2020-08-11T07:32:43.937Z</time>
      </trkpt>
      <trkpt lat="64.47098" lon="11.54706">
        <ele>61.239812</ele>
        <time>2020-08-11T07:32:47.932Z</time>
      </trkpt>
      <trkpt lat="64.47097" lon="11.54683">
        <ele>61.37693</ele>
        <time>2020-08-11T07:32:51.960Z</time>
      </trkpt>
      <trkpt lat="64.47089" lon="11.54662">
        <ele>61.540903</ele>
        <time>2020-08-11T07:32:55.978Z</time>
      </trkpt>
      <trkpt lat="64.47084" lon="11.54639">
        <ele>61.69157</ele>
        <time>2020-08-11T07:32:58.938Z</time>
      </trkpt>
      <trkpt lat="64.4708" lon="11.54616">
        <ele>61.839958</ele>
        <time>2020-08-11T07:33:01.952Z</time>
      </trkpt>
      <trkpt lat="64.47073" lon="11.54594">
        <ele>61.976916</ele>
        <time>2020-08-11T07:33:05.945Z</time>
      </trkpt>
      <trkpt lat="64.4707" lon="11.54574">
        <ele>62.088004</ele>
        <time>2020-08-11T07:33:08.942Z</time>
      </trkpt>
      <trkpt lat="64.47067" lon="11.54551">
        <ele>62.213024</ele>
        <time>2020-08-11T07:33:11.980Z</time>
      </trkpt>
      <trkpt lat="64.47062" lon="11.54529">
        <ele>62.337897</ele>
        <time>2020-08-11T07:33:14.947Z</time>
      </trkpt>
      <trkpt lat="64.47058" lon="11.54509">
        <ele>62.454861</ele>
        <time>2020-08-11T07:33:17.948Z</time>
      </trkpt>
      <trkpt lat="64.47054" lon="11.54486">
        <ele>62.579183</ele>
        <time>2020-08-11T07:33:20.992Z</time>
      </trkpt>
      <trkpt lat="64.47052" lon="11.5446">
        <ele>62.715335</ele>
        <time>2020-08-11T07:33:23.961Z</time>
      </trkpt>
      <trkpt lat="64.47049" lon="11.54432">
        <ele>62.865606</ele>
        <time>2020-08-11T07:33:26.948Z</time>
      </trkpt>
      <trkpt lat="64.47046" lon="11.54404">
        <ele>63.013453</ele>
        <time>2020-08-11T07:33:29.949Z</time>
      </trkpt>
      <trkpt lat="64.47044" lon="11.54373">
        <ele>63.175833</ele>
        <time>2020-08-11T07:33:32.985Z</time>
      </trkpt>
      <trkpt lat="64.47042" lon="11.5435">
        <ele>63.295474</ele>
        <time>2020-08-11T07:33:34.946Z</time>
      </trkpt>
      <trkpt lat="64.4704" lon="11.54327">
        <ele>63.416952</ele>
        <time>2020-08-11T07:33:36.976Z</time>
      </trkpt>
      <trkpt lat="64.4704" lon="11.54299">
        <ele>63.56078</ele>
        <time>2020-08-11T07:33:38.940Z</time>
      </trkpt>
      <trkpt lat="64.4704" lon="11.54272">
        <ele>63.6998</ele>
        <time>2020-08-11T07:33:40.942Z</time>
      </trkpt>
      <trkpt lat="64.47039" lon="11.54245">
        <ele>63.837011</ele>
        <time>2020-08-11T07:33:42.958Z</time>
      </trkpt>
      <trkpt lat="64.47037" lon="11.54219">
        <ele>63.975232</ele>
        <time>2020-08-11T07:33:44.972Z</time>
      </trkpt>
      <trkpt lat="64.47034" lon="11.54193">
        <ele>63.399538</ele>
        <time>2020-08-11T07:33:46.989Z</time>
      </trkpt>
      <trkpt lat="64.47032" lon="11.5417">
        <ele>62.780283</ele>
        <time>2020-08-11T07:33:48.949Z</time>
      </trkpt>
      <trkpt lat="64.47032" lon="11.54141">
        <ele>62.051626</ele>
        <time>2020-08-11T07:33:50.940Z</time>
      </trkpt>
      <trkpt lat="64.47036" lon="11.54112">
        <ele>61.284056</ele>
        <time>2020-08-11T07:33:52.964Z</time>
      </trkpt>
      <trkpt lat="64.47044" lon="11.54078">
        <ele>60.296609</ele>
        <time>2020-08-11T07:33:54.983Z</time>
      </trkpt>
      <trkpt lat="64.47051" lon="11.54045">
        <ele>59.381235</ele>
        <time>2020-08-11T07:33:57.002Z</time>
      </trkpt>
      <trkpt lat="64.47055" lon="11.54019">
        <ele>58.69701</ele>
        <time>2020-08-11T07:33:58.990Z</time>
      </trkpt>
      <trkpt lat="64.47059" lon="11.53998">
        <ele>58.095914</ele>
        <time>2020-08-11T07:34:00.998Z</time>
      </trkpt>
      <trkpt lat="64.47065" lon="11.53976">
        <ele>57.446335</ele>
        <time>2020-08-11T07:34:02.971Z</time>
      </trkpt>
      <trkpt lat="64.47071" lon="11.53949">
        <ele>56.678818</ele>
        <time>2020-08-11T07:34:04.962Z</time>
      </trkpt>
      <trkpt lat="64.47078" lon="11.53921">
        <ele>55.856856</ele>
        <time>2020-08-11T07:34:06.939Z</time>
      </trkpt>
      <trkpt lat="64.47085" lon="11.53893">
        <ele>55.027355</ele>
        <time>2020-08-11T07:34:08.959Z</time>
      </trkpt>
      <trkpt lat="64.47092" lon="11.53865">
        <ele>54.214641</ele>
        <time>2020-08-11T07:34:10.958Z</time>
      </trkpt>
      <trkpt lat="64.47099" lon="11.53836">
        <ele>53.344385</ele>
        <time>2020-08-11T07:34:12.943Z</time>
      </trkpt>
      <trkpt lat="64.47107" lon="11.53806">
        <ele>52.335065</ele>
        <time>2020-08-11T07:34:14.970Z</time>
      </trkpt>
      <trkpt lat="64.47114" lon="11.53777">
        <ele>51.304959</ele>
        <time>2020-08-11T07:34:16.949Z</time>
      </trkpt>
      <trkpt lat="64.47122" lon="11.5375">
        <ele>50.353737</ele>
        <time>2020-08-11T07:34:18.967Z</time>
      </trkpt>
      <trkpt lat="64.47126" lon="11.53725">
        <ele>49.545652</ele>
        <time>2020-08-11T07:34:20.941Z</time>
      </trkpt>
      <trkpt lat="64.4713" lon="11.53701">
        <ele>48.758465</ele>
        <time>2020-08-11T07:34:22.962Z</time>
      </trkpt>
      <trkpt lat="64.47134" lon="11.53676">
        <ele>47.981599</ele>
        <time>2020-08-11T07:34:24.968Z</time>
      </trkpt>
      <trkpt lat="64.47136" lon="11.53651">
        <ele>47.225278</ele>
        <time>2020-08-11T07:34:26.945Z</time>
      </trkpt>
      <trkpt lat="64.47138" lon="11.53626">
        <ele>46.46144</ele>
        <time>2020-08-11T07:34:28.950Z</time>
      </trkpt>
      <trkpt lat="64.47141" lon="11.53601">
        <ele>45.693094</ele>
        <time>2020-08-11T07:34:30.984Z</time>
      </trkpt>
      <trkpt lat="64.47144" lon="11.53576">
        <ele>44.89632</ele>
        <time>2020-08-11T07:34:32.932Z</time>
      </trkpt>
      <trkpt lat="64.47146" lon="11.53549">
        <ele>44.081619</ele>
        <time>2020-08-11T07:34:34.966Z</time>
      </trkpt>
      <trkpt lat="64.47148" lon="11.53522">
        <ele>43.275875</ele>
        <time>2020-08-11T07:34:36.987Z</time>
      </trkpt>
      <trkpt lat="64.4715" lon="11.53495">
        <ele>42.444266</ele>
        <time>2020-08-11T07:34:38.942Z</time>
      </trkpt>
      <trkpt lat="64.47151" lon="11.53468">
        <ele>41.626652</ele>
        <time>2020-08-11T07:34:40.948Z</time>
      </trkpt>
      <trkpt lat="64.47152" lon="11.53442">
        <ele>40.967421</ele>
        <time>2020-08-11T07:34:42.956Z</time>
      </trkpt>
      <trkpt lat="64.47154" lon="11.53416">
        <ele>41.107715</ele>
        <time>2020-08-11T07:34:44.970Z</time>
      </trkpt>
      <trkpt lat="64.47156" lon="11.5339">
        <ele>41.247084</ele>
        <time>2020-08-11T07:34:46.959Z</time>
      </trkpt>
      <trkpt lat="64.47158" lon="11.53364">
        <ele>41.384576</ele>
        <time>2020-08-11T07:34:48.958Z</time>
      </trkpt>
      <trkpt lat="64.4716" lon="11.53339">
        <ele>41.51941</ele>
        <time>2020-08-11T07:34:50.959Z</time>
      </trkpt>
      <trkpt lat="64.47162" lon="11.53314">
        <ele>41.657733</ele>
        <time>2020-08-11T07:34:52.992Z</time>
      </trkpt>
      <trkpt lat="64.47164" lon="11.53288">
        <ele>41.795747</ele>
        <time>2020-08-11T07:34:54.943Z</time>
      </trkpt>
      <trkpt lat="64.47165" lon="11.53264">
        <ele>41.925815</ele>
        <time>2020-08-11T07:34:56.940Z</time>
      </trkpt>
      <trkpt lat="64.47167" lon="11.5324">
        <ele>42.054814</ele>
        <time>2020-08-11T07:34:58.943Z</time>
      </trkpt>
      <trkpt lat="64.47168" lon="11.53217">
        <ele>42.174682</ele>
        <time>2020-08-11T07:35:00.952Z</time>
      </trkpt>
      <trkpt lat="64.47168" lon="11.53196">
        <ele>42.288629</ele>
        <time>2020-08-11T07:35:02.983Z</time>
      </trkpt>
      <trkpt lat="64.4717" lon="11.53173">
        <ele>42.409804</ele>
        <time>2020-08-11T07:35:04.940Z</time>
      </trkpt>
      <trkpt lat="64.47169" lon="11.5315">
        <ele>42.533989</ele>
        <time>2020-08-11T07:35:06.938Z</time>
      </trkpt>
      <trkpt lat="64.4717" lon="11.53125">
        <ele>42.662416</ele>
        <time>2020-08-11T07:35:08.941Z</time>
      </trkpt>
      <trkpt lat="64.4717" lon="11.53101">
        <ele>42.794869</ele>
        <time>2020-08-11T07:35:10.948Z</time>
      </trkpt>
      <trkpt lat="64.47171" lon="11.53076">
        <ele>42.926264</ele>
        <time>2020-08-11T07:35:12.951Z</time>
      </trkpt>
      <trkpt lat="64.47172" lon="11.53052">
        <ele>43.051551</ele>
        <time>2020-08-11T07:35:14.941Z</time>
      </trkpt>
      <trkpt lat="64.47172" lon="11.5303">
        <ele>43.196694</ele>
        <time>2020-08-11T07:35:16.955Z</time>
      </trkpt>
      <trkpt lat="64.47172" lon="11.53007">
        <ele>43.68504</ele>
        <time>2020-08-11T07:35:18.969Z</time>
      </trkpt>
      <trkpt lat="64.47173" lon="11.52984">
        <ele>44.158024</ele>
        <time>2020-08-11T07:35:20.961Z</time>
      </trkpt>
      <trkpt lat="64.47173" lon="11.52962">
        <ele>44.637293</ele>
        <time>2020-08-11T07:35:22.978Z</time>
      </trkpt>
      <trkpt lat="64.47173" lon="11.5294">
        <ele>45.097478</ele>
        <time>2020-08-11T07:35:24.948Z</time>
      </trkpt>
      <trkpt lat="64.47173" lon="11.52919">
        <ele>45.551302</ele>
        <time>2020-08-11T07:35:26.940Z</time>
      </trkpt>
      <trkpt lat="64.47174" lon="11.52897">
        <ele>46.015697</ele>
        <time>2020-08-11T07:35:28.941Z</time>
      </trkpt>
      <trkpt lat="64.47174" lon="11.52875">
        <ele>46.485267</ele>
        <time>2020-08-11T07:35:30.966Z</time>
      </trkpt>
      <trkpt lat="64.47174" lon="11.52853">
        <ele>46.947651</ele>
        <time>2020-08-11T07:35:32.967Z</time>
      </trkpt>
      <trkpt lat="64.47174" lon="11.52831">
        <ele>47.418437</ele>
        <time>2020-08-11T07:35:34.961Z</time>
      </trkpt>
      <trkpt lat="64.47175" lon="11.52809">
        <ele>47.882941</ele>
        <time>2020-08-11T07:35:36.946Z</time>
      </trkpt>
      <trkpt lat="64.47174" lon="11.52778">
        <ele>48.532742</ele>
        <time>2020-08-11T07:35:39.947Z</time>
      </trkpt>
      <trkpt lat="64.47175" lon="11.52749">
        <ele>49.163773</ele>
        <time>2020-08-11T07:35:42.985Z</time>
      </trkpt>
      <trkpt lat="64.47177" lon="11.52725">
        <ele>49.678932</ele>
        <time>2020-08-11T07:35:45.988Z</time>
      </trkpt>
      <trkpt lat="64.47183" lon="11.52705">
        <ele>50.213099</ele>
        <time>2020-08-11T07:35:49.932Z</time>
      </trkpt>
      <trkpt lat="64.47185" lon="11.52684">
        <ele>50.671295</ele>
        <time>2020-08-11T07:35:55.966Z</time>
      </trkpt>
      <trkpt lat="64.47184" lon="11.52657">
        <ele>51.230752</ele>
        <time>2020-08-11T07:36:00.983Z</time>
      </trkpt>
      <trkpt lat="64.47179" lon="11.52639">
        <ele>51.71819</ele>
        <time>2020-08-11T07:36:06.942Z</time>
      </trkpt>
      <trkpt lat="64.47171" lon="11.52626">
        <ele>52.206232</ele>
        <time>2020-08-11T07:36:09.958Z</time>
      </trkpt>
      <trkpt lat="64.47164" lon="11.52612">
        <ele>52.785315</ele>
        <time>2020-08-11T07:36:12.950Z</time>
      </trkpt>
      <trkpt lat="64.47159" lon="11.5259">
        <ele>53.428687</ele>
        <time>2020-08-11T07:36:16.990Z</time>
      </trkpt>
      <trkpt lat="64.47156" lon="11.52568">
        <ele>54.027027</ele>
        <time>2020-08-11T07:36:20.950Z</time>
      </trkpt>
      <trkpt lat="64.47152" lon="11.52548">
        <ele>54.600908</ele>
        <time>2020-08-11T07:36:24.951Z</time>
      </trkpt>
      <trkpt lat="64.47148" lon="11.52525">
        <ele>55.241594</ele>
        <time>2020-08-11T07:36:29.988Z</time>
      </trkpt>
      <trkpt lat="64.47145" lon="11.52505">
        <ele>55.801725</ele>
        <time>2020-08-11T07:36:35.462Z</time>
      </trkpt>
      <trkpt lat="64.47139" lon="11.52484">
        <ele>56.453894</ele>
        <time>2020-08-11T07:36:39.943Z</time>
      </trkpt>
      <trkpt lat="64.47132" lon="11.52467">
        <ele>57.021606</ele>
        <time>2020-08-11T07:36:44.971Z</time>
      </trkpt>
      <trkpt lat="64.47127" lon="11.5245">
        <ele>57.589926</ele>
        <time>2020-08-11T07:36:49.929Z</time>
      </trkpt>
      <trkpt lat="64.4712" lon="11.5243">
        <ele>58.226629</ele>
        <time>2020-08-11T07:36:54.943Z</time>
      </trkpt>
      <trkpt lat="64.47114" lon="11.52414">
        <ele>58.800547</ele>
        <time>2020-08-11T07:36:59.957Z</time>
      </trkpt>
      <trkpt lat="64.47107" lon="11.52399">
        <ele>59.345609</ele>
        <time>2020-08-11T07:37:05.013Z</time>
      </trkpt>
      <trkpt lat="64.471" lon="11.52383">
        <ele>59.966517</ele>
        <time>2020-08-11T07:37:10.944Z</time>
      </trkpt>
      <trkpt lat="64.47092" lon="11.52367">
        <ele>60.577852</ele>
        <time>2020-08-11T07:37:16.979Z</time>
      </trkpt>
      <trkpt lat="64.47085" lon="11.52351">
        <ele>61.200807</ele>
        <time>2020-08-11T07:37:22.967Z</time>
      </trkpt>
      <trkpt lat="64.47077" lon="11.52336">
        <ele>61.818006</ele>
        <time>2020-08-11T07:37:28.938Z</time>
      </trkpt>
      <trkpt lat="64.47069" lon="11.52325">
        <ele>62.379105</ele>
        <time>2020-08-11T07:37:33.958Z</time>
      </trkpt>
      <trkpt lat="64.47061" lon="11.52311">
        <ele>62.910956</ele>
        <time>2020-08-11T07:37:39.957Z</time>
      </trkpt>
      <trkpt lat="64.47053" lon="11.52295">
        <ele>63.230246</ele>
        <time>2020-08-11T07:37:45.988Z</time>
      </trkpt>
      <trkpt lat="64.47046" lon="11.52282">
        <ele>63.519571</ele>
        <time>2020-08-11T07:37:51.967Z</time>
      </trkpt>
      <trkpt lat="64.47039" lon="11.52263">
        <ele>63.848864</ele>
        <time>2020-08-11T07:37:58.945Z</time>
      </trkpt>
      <trkpt lat="64.47034" lon="11.52244">
        <ele>64.166043</ele>
        <time>2020-08-11T07:38:04.945Z</time>
      </trkpt>
      <trkpt lat="64.4703" lon="11.52225">
        <ele>64.453471</ele>
        <time>2020-08-11T07:38:10.952Z</time>
      </trkpt>
      <trkpt lat="64.47023" lon="11.52204">
        <ele>64.792988</ele>
        <time>2020-08-11T07:38:16.950Z</time>
      </trkpt>
      <trkpt lat="64.4702" lon="11.52184">
        <ele>65.083899</ele>
        <time>2020-08-11T07:38:21.956Z</time>
      </trkpt>
      <trkpt lat="64.47018" lon="11.52163">
        <ele>65.381355</ele>
        <time>2020-08-11T07:38:26.947Z</time>
      </trkpt>
      <trkpt lat="64.47015" lon="11.52141">
        <ele>65.692086</ele>
        <time>2020-08-11T07:38:31.931Z</time>
      </trkpt>
      <trkpt lat="64.47013" lon="11.52117">
        <ele>66.033293</ele>
        <time>2020-08-11T07:38:36.959Z</time>
      </trkpt>
      <trkpt lat="64.4701" lon="11.52096">
        <ele>66.318204</ele>
        <time>2020-08-11T07:38:39.960Z</time>
      </trkpt>
      <trkpt lat="64.47007" lon="11.52075">
        <ele>66.622313</ele>
        <time>2020-08-11T07:38:42.969Z</time>
      </trkpt>
      <trkpt lat="64.47002" lon="11.52052">
        <ele>66.980367</ele>
        <time>2020-08-11T07:38:46.945Z</time>
      </trkpt>
      <trkpt lat="64.46998" lon="11.52032">
        <ele>67.277303</ele>
        <time>2020-08-11T07:38:49.974Z</time>
      </trkpt>
      <trkpt lat="64.46995" lon="11.52008">
        <ele>67.611125</ele>
        <time>2020-08-11T07:38:52.962Z</time>
      </trkpt>
      <trkpt lat="64.46998" lon="11.51983">
        <ele>67.968886</ele>
        <time>2020-08-11T07:38:56.936Z</time>
      </trkpt>
      <trkpt lat="64.46995" lon="11.5196">
        <ele>68.290934</ele>
        <time>2020-08-11T07:39:02.986Z</time>
      </trkpt>
      <trkpt lat="64.46986" lon="11.51949">
        <ele>68.403003</ele>
        <time>2020-08-11T07:39:08.017Z</time>
      </trkpt>
      <trkpt lat="64.46981" lon="11.51927">
        <ele>68.148529</ele>
        <time>2020-08-11T07:39:10.951Z</time>
      </trkpt>
      <trkpt lat="64.46978" lon="11.51902">
        <ele>67.871204</ele>
        <time>2020-08-11T07:39:13.944Z</time>
      </trkpt>
      <trkpt lat="64.46973" lon="11.51876">
        <ele>67.574046</ele>
        <time>2020-08-11T07:39:16.979Z</time>
      </trkpt>
      <trkpt lat="64.46969" lon="11.5185">
        <ele>67.276919</ele>
        <time>2020-08-11T07:39:19.951Z</time>
      </trkpt>
      <trkpt lat="64.46965" lon="11.51821">
        <ele>66.951476</ele>
        <time>2020-08-11T07:39:22.946Z</time>
      </trkpt>
      <trkpt lat="64.46961" lon="11.518">
        <ele>66.719086</ele>
        <time>2020-08-11T07:39:24.972Z</time>
      </trkpt>
      <trkpt lat="64.46957" lon="11.5178">
        <ele>66.483058</ele>
        <time>2020-08-11T07:39:26.944Z</time>
      </trkpt>
      <trkpt lat="64.46954" lon="11.51758">
        <ele>66.232353</ele>
        <time>2020-08-11T07:39:28.959Z</time>
      </trkpt>
      <trkpt lat="64.46951" lon="11.51733">
        <ele>65.962898</ele>
        <time>2020-08-11T07:39:30.940Z</time>
      </trkpt>
      <trkpt lat="64.46948" lon="11.51706">
        <ele>65.668456</ele>
        <time>2020-08-11T07:39:32.997Z</time>
      </trkpt>
      <trkpt lat="64.46944" lon="11.51678">
        <ele>65.358142</ele>
        <time>2020-08-11T07:39:34.956Z</time>
      </trkpt>
      <trkpt lat="64.4694" lon="11.5165">
        <ele>65.040939</ele>
        <time>2020-08-11T07:39:36.962Z</time>
      </trkpt>
      <trkpt lat="64.46936" lon="11.51621">
        <ele>64.715836</ele>
        <time>2020-08-11T07:39:38.958Z</time>
      </trkpt>
      <trkpt lat="64.46931" lon="11.5159">
        <ele>64.374318</ele>
        <time>2020-08-11T07:39:41.004Z</time>
      </trkpt>
      <trkpt lat="64.46926" lon="11.51564">
        <ele>64.065295</ele>
        <time>2020-08-11T07:39:42.948Z</time>
      </trkpt>
      <trkpt lat="64.46923" lon="11.51542">
        <ele>63.548884</ele>
        <time>2020-08-11T07:39:44.983Z</time>
      </trkpt>
      <trkpt lat="64.46922" lon="11.51514">
        <ele>62.938791</ele>
        <time>2020-08-11T07:39:47.947Z</time>
      </trkpt>
      <trkpt lat="64.46923" lon="11.51489">
        <ele>62.409961</ele>
        <time>2020-08-11T07:39:50.954Z</time>
      </trkpt>
      <trkpt lat="64.46918" lon="11.51468">
        <ele>61.892064</ele>
        <time>2020-08-11T07:39:54.960Z</time>
      </trkpt>
      <trkpt lat="64.46913" lon="11.51444">
        <ele>61.321713</ele>
        <time>2020-08-11T07:39:58.942Z</time>
      </trkpt>
      <trkpt lat="64.46912" lon="11.51423">
        <ele>60.859939</ele>
        <time>2020-08-11T07:40:00.955Z</time>
      </trkpt>
      <trkpt lat="64.4691" lon="11.51397">
        <ele>60.302419</ele>
        <time>2020-08-11T07:40:02.960Z</time>
      </trkpt>
      <trkpt lat="64.46907" lon="11.51369">
        <ele>59.671726</ele>
        <time>2020-08-11T07:40:04.975Z</time>
      </trkpt>
      <trkpt lat="64.46905" lon="11.51337">
        <ele>58.967007</ele>
        <time>2020-08-11T07:40:06.957Z</time>
      </trkpt>
      <trkpt lat="64.46901" lon="11.51301">
        <ele>58.18237</ele>
        <time>2020-08-11T07:40:08.966Z</time>
      </trkpt>
      <trkpt lat="64.46897" lon="11.51264">
        <ele>57.349287</ele>
        <time>2020-08-11T07:40:10.959Z</time>
      </trkpt>
      <trkpt lat="64.4689" lon="11.51226">
        <ele>56.457642</ele>
        <time>2020-08-11T07:40:12.963Z</time>
      </trkpt>
      <trkpt lat="64.46886" lon="11.51208">
        <ele>56.001177</ele>
        <time>2020-08-11T07:40:13.949Z</time>
      </trkpt>
      <trkpt lat="64.46881" lon="11.51188">
        <ele>55.527211</ele>
        <time>2020-08-11T07:40:14.950Z</time>
      </trkpt>
      <trkpt lat="64.46876" lon="11.5117">
        <ele>55.057258</ele>
        <time>2020-08-11T07:40:15.942Z</time>
      </trkpt>
      <trkpt lat="64.46873" lon="11.5115">
        <ele>54.584962</ele>
        <time>2020-08-11T07:40:16.944Z</time>
      </trkpt>
      <trkpt lat="64.4687" lon="11.5113">
        <ele>54.115266</ele>
        <time>2020-08-11T07:40:17.945Z</time>
      </trkpt>
      <trkpt lat="64.46868" lon="11.5111">
        <ele>53.648482</ele>
        <time>2020-08-11T07:40:18.989Z</time>
      </trkpt>
      <trkpt lat="64.46866" lon="11.51071">
        <ele>52.770916</ele>
        <time>2020-08-11T07:40:20.957Z</time>
      </trkpt>
      <trkpt lat="64.46866" lon="11.51033">
        <ele>51.916648</ele>
        <time>2020-08-11T07:40:22.990Z</time>
      </trkpt>
      <trkpt lat="64.46867" lon="11.50998">
        <ele>51.139112</ele>
        <time>2020-08-11T07:40:24.975Z</time>
      </trkpt>
      <trkpt lat="64.4687" lon="11.50968">
        <ele>50.449487</ele>
        <time>2020-08-11T07:40:26.945Z</time>
      </trkpt>
      <trkpt lat="64.46874" lon="11.50943">
        <ele>49.856937</ele>
        <time>2020-08-11T07:40:28.951Z</time>
      </trkpt>
      <trkpt lat="64.46879" lon="11.50921">
        <ele>49.280519</ele>
        <time>2020-08-11T07:40:30.941Z</time>
      </trkpt>
      <trkpt lat="64.46887" lon="11.50903">
        <ele>48.718213</ele>
        <time>2020-08-11T07:40:32.957Z</time>
      </trkpt>
      <trkpt lat="64.46891" lon="11.50883">
        <ele>48.241839</ele>
        <time>2020-08-11T07:40:34.963Z</time>
      </trkpt>
      <trkpt lat="64.46889" lon="11.50862">
        <ele>47.763052</ele>
        <time>2020-08-11T07:40:36.959Z</time>
      </trkpt>
      <trkpt lat="64.46886" lon="11.50839">
        <ele>47.226916</ele>
        <time>2020-08-11T07:40:38.971Z</time>
      </trkpt>
      <trkpt lat="64.46887" lon="11.50816">
        <ele>46.705018</ele>
        <time>2020-08-11T07:40:40.942Z</time>
      </trkpt>
      <trkpt lat="64.46887" lon="11.50794">
        <ele>46.210201</ele>
        <time>2020-08-11T07:40:42.971Z</time>
      </trkpt>
      <trkpt lat="64.46887" lon="11.50766">
        <ele>45.789885</ele>
        <time>2020-08-11T07:40:45.963Z</time>
      </trkpt>
      <trkpt lat="64.46889" lon="11.50738">
        <ele>45.920322</ele>
        <time>2020-08-11T07:40:48.944Z</time>
      </trkpt>
      <trkpt lat="64.46892" lon="11.50711">
        <ele>46.049323</ele>
        <time>2020-08-11T07:40:51.944Z</time>
      </trkpt>
      <trkpt lat="64.46891" lon="11.50686">
        <ele>46.164429</ele>
        <time>2020-08-11T07:40:54.972Z</time>
      </trkpt>
      <trkpt lat="64.46891" lon="11.5066">
        <ele>46.285363</ele>
        <time>2020-08-11T07:40:57.969Z</time>
      </trkpt>
      <trkpt lat="64.46892" lon="11.50632">
        <ele>46.415518</ele>
        <time>2020-08-11T07:41:00.951Z</time>
      </trkpt>
      <trkpt lat="64.46892" lon="11.50603">
        <ele>46.545142</ele>
        <time>2020-08-11T07:41:03.959Z</time>
      </trkpt>
      <trkpt lat="64.4689" lon="11.50577">
        <ele>46.668731</ele>
        <time>2020-08-11T07:41:06.955Z</time>
      </trkpt>
      <trkpt lat="64.46888" lon="11.5055">
        <ele>46.796925</ele>
        <time>2020-08-11T07:41:09.937Z</time>
      </trkpt>
      <trkpt lat="64.46886" lon="11.50521">
        <ele>46.932756</ele>
        <time>2020-08-11T07:41:12.970Z</time>
      </trkpt>
      <trkpt lat="64.46884" lon="11.50491">
        <ele>47.071036</ele>
        <time>2020-08-11T07:41:15.949Z</time>
      </trkpt>
      <trkpt lat="64.46882" lon="11.50463">
        <ele>47.204064</ele>
        <time>2020-08-11T07:41:18.999Z</time>
      </trkpt>
      <trkpt lat="64.4688" lon="11.50435">
        <ele>47.331919</ele>
        <time>2020-08-11T07:41:21.965Z</time>
      </trkpt>
      <trkpt lat="64.46878" lon="11.5041">
        <ele>47.450318</ele>
        <time>2020-08-11T07:41:24.961Z</time>
      </trkpt>
      <trkpt lat="64.46877" lon="11.50383">
        <ele>47.577476</ele>
        <time>2020-08-11T07:41:28.003Z</time>
      </trkpt>
      <trkpt lat="64.46875" lon="11.50355">
        <ele>47.70341</ele>
        <time>2020-08-11T07:41:30.938Z</time>
      </trkpt>
      <trkpt lat="64.46872" lon="11.50329">
        <ele>47.824451</ele>
        <time>2020-08-11T07:41:33.959Z</time>
      </trkpt>
      <trkpt lat="64.4687" lon="11.50301">
        <ele>47.948501</ele>
        <time>2020-08-11T07:41:36.961Z</time>
      </trkpt>
      <trkpt lat="64.4687" lon="11.50275">
        <ele>48.063758</ele>
        <time>2020-08-11T07:41:39.941Z</time>
      </trkpt>
      <trkpt lat="64.46866" lon="11.50246">
        <ele>48.195141</ele>
        <time>2020-08-11T07:41:42.956Z</time>
      </trkpt>
      <trkpt lat="64.46863" lon="11.50222">
        <ele>48.30443</ele>
        <time>2020-08-11T07:41:45.999Z</time>
      </trkpt>
      <trkpt lat="64.46863" lon="11.50198">
        <ele>48.410191</ele>
        <time>2020-08-11T07:41:48.944Z</time>
      </trkpt>
      <trkpt lat="64.46862" lon="11.50176">
        <ele>48.508028</ele>
        <time>2020-08-11T07:41:51.962Z</time>
      </trkpt>
      <trkpt lat="64.46864" lon="11.50155">
        <ele>48.602977</ele>
        <time>2020-08-11T07:41:54.970Z</time>
      </trkpt>
      <trkpt lat="64.46869" lon="11.50136">
        <ele>48.700454</ele>
        <time>2020-08-11T07:41:57.957Z</time>
      </trkpt>
      <trkpt lat="64.46869" lon="11.50111">
        <ele>48.812454</ele>
        <time>2020-08-11T07:42:03.985Z</time>
      </trkpt>
      <trkpt lat="64.46861" lon="11.50094">
        <ele>48.924522</ele>
        <time>2020-08-11T07:42:08.986Z</time>
      </trkpt>
      <trkpt lat="64.46855" lon="11.50069">
        <ele>49.048646</ele>
        <time>2020-08-11T07:42:12.969Z</time>
      </trkpt>
      <trkpt lat="64.46848" lon="11.50047">
        <ele>49.167805</ele>
        <time>2020-08-11T07:42:15.980Z</time>
      </trkpt>
      <trkpt lat="64.46844" lon="11.50025">
        <ele>49.271411</ele>
        <time>2020-08-11T07:42:18.960Z</time>
      </trkpt>
      <trkpt lat="64.4684" lon="11.50005">
        <ele>49.37136</ele>
        <time>2020-08-11T07:42:21.951Z</time>
      </trkpt>
      <trkpt lat="64.46836" lon="11.49984">
        <ele>49.470478</ele>
        <time>2020-08-11T07:42:24.958Z</time>
      </trkpt>
      <trkpt lat="64.46832" lon="11.49964">
        <ele>49.529727</ele>
        <time>2020-08-11T07:42:28.968Z</time>
      </trkpt>
      <trkpt lat="64.46828" lon="11.49943">
        <ele>49.554338</ele>
        <time>2020-08-11T07:42:32.968Z</time>
      </trkpt>
      <trkpt lat="64.46825" lon="11.49922">
        <ele>49.577187</ele>
        <time>2020-08-11T07:42:35.953Z</time>
      </trkpt>
      <trkpt lat="64.46822" lon="11.49899">
        <ele>49.602317</ele>
        <time>2020-08-11T07:42:38.988Z</time>
      </trkpt>
      <trkpt lat="64.46817" lon="11.49875">
        <ele>49.628827</ele>
        <time>2020-08-11T07:42:41.977Z</time>
      </trkpt>
      <trkpt lat="64.46814" lon="11.49851">
        <ele>49.655236</ele>
        <time>2020-08-11T07:42:44.949Z</time>
      </trkpt>
      <trkpt lat="64.46811" lon="11.49824">
        <ele>49.684407</ele>
        <time>2020-08-11T07:42:47.963Z</time>
      </trkpt>
      <trkpt lat="64.46806" lon="11.49798">
        <ele>49.713412</ele>
        <time>2020-08-11T07:42:50.937Z</time>
      </trkpt>
      <trkpt lat="64.46801" lon="11.49772">
        <ele>49.742888</ele>
        <time>2020-08-11T07:42:53.940Z</time>
      </trkpt>
      <trkpt lat="64.46797" lon="11.49747">
        <ele>49.770263</ele>
        <time>2020-08-11T07:42:56.949Z</time>
      </trkpt>
      <trkpt lat="64.46793" lon="11.49723">
        <ele>49.797345</ele>
        <time>2020-08-11T07:42:59.950Z</time>
      </trkpt>
      <trkpt lat="64.46788" lon="11.497">
        <ele>49.823758</ele>
        <time>2020-08-11T07:43:02.945Z</time>
      </trkpt>
      <trkpt lat="64.46785" lon="11.49678">
        <ele>49.847633</ele>
        <time>2020-08-11T07:43:05.941Z</time>
      </trkpt>
      <trkpt lat="64.4678" lon="11.49654">
        <ele>49.874523</ele>
        <time>2020-08-11T07:43:09.965Z</time>
      </trkpt>
      <trkpt lat="64.46775" lon="11.49636">
        <ele>49.896725</ele>
        <time>2020-08-11T07:43:13.934Z</time>
      </trkpt>
      <trkpt lat="64.46771" lon="11.49614">
        <ele>49.921744</ele>
        <time>2020-08-11T07:43:17.953Z</time>
      </trkpt>
      <trkpt lat="64.46767" lon="11.49589">
        <ele>49.948896</ele>
        <time>2020-08-11T07:43:21.952Z</time>
      </trkpt>
      <trkpt lat="64.46769" lon="11.49567">
        <ele>50.471021</ele>
        <time>2020-08-11T07:43:25.962Z</time>
      </trkpt>
      <trkpt lat="64.46772" lon="11.49542">
        <ele>51.072875</ele>
        <time>2020-08-11T07:43:29.948Z</time>
      </trkpt>
      <trkpt lat="64.46776" lon="11.49518">
        <ele>51.686468</ele>
        <time>2020-08-11T07:43:33.944Z</time>
      </trkpt>
      <trkpt lat="64.4678" lon="11.49497">
        <ele>52.229553</ele>
        <time>2020-08-11T07:43:37.993Z</time>
      </trkpt>
      <trkpt lat="64.46784" lon="11.49471">
        <ele>52.895665</ele>
        <time>2020-08-11T07:43:41.948Z</time>
      </trkpt>
      <trkpt lat="64.46788" lon="11.49446">
        <ele>53.524429</ele>
        <time>2020-08-11T07:43:44.961Z</time>
      </trkpt>
      <trkpt lat="64.46793" lon="11.49418">
        <ele>54.249234</ele>
        <time>2020-08-11T07:43:47.982Z</time>
      </trkpt>
      <trkpt lat="64.46796" lon="11.49397">
        <ele>54.764894</ele>
        <time>2020-08-11T07:43:49.979Z</time>
      </trkpt>
      <trkpt lat="64.46799" lon="11.49369">
        <ele>55.467618</ele>
        <time>2020-08-11T07:43:52.974Z</time>
      </trkpt>
      <trkpt lat="64.46804" lon="11.49347">
        <ele>56.05893</ele>
        <time>2020-08-11T07:43:56.985Z</time>
      </trkpt>
      <trkpt lat="64.46808" lon="11.49328">
        <ele>56.571212</ele>
        <time>2020-08-11T07:44:00.961Z</time>
      </trkpt>
      <trkpt lat="64.46813" lon="11.49307">
        <ele>57.119642</ele>
        <time>2020-08-11T07:44:03.960Z</time>
      </trkpt>
      <trkpt lat="64.46818" lon="11.49281">
        <ele>57.811754</ele>
        <time>2020-08-11T07:44:06.943Z</time>
      </trkpt>
      <trkpt lat="64.46822" lon="11.49253">
        <ele>58.512882</ele>
        <time>2020-08-11T07:44:09.947Z</time>
      </trkpt>
      <trkpt lat="64.46823" lon="11.49229">
        <ele>59.072134</ele>
        <time>2020-08-11T07:44:12.944Z</time>
      </trkpt>
      <trkpt lat="64.46827" lon="11.49205">
        <ele>59.691684</ele>
        <time>2020-08-11T07:44:16.965Z</time>
      </trkpt>
      <trkpt lat="64.46832" lon="11.49183">
        <ele>59.584986</ele>
        <time>2020-08-11T07:44:21.003Z</time>
      </trkpt>
      <trkpt lat="64.46839" lon="11.49169">
        <ele>59.19628</ele>
        <time>2020-08-11T07:44:23.952Z</time>
      </trkpt>
      <trkpt lat="64.46848" lon="11.49152">
        <ele>58.707625</ele>
        <time>2020-08-11T07:44:28.004Z</time>
      </trkpt>
      <trkpt lat="64.46851" lon="11.49128">
        <ele>58.241829</ele>
        <time>2020-08-11T07:44:31.947Z</time>
      </trkpt>
      <trkpt lat="64.46853" lon="11.49103">
        <ele>57.771684</ele>
        <time>2020-08-11T07:44:36.965Z</time>
      </trkpt>
      <trkpt lat="64.46856" lon="11.49083">
        <ele>57.379122</ele>
        <time>2020-08-11T07:44:39.987Z</time>
      </trkpt>
      <trkpt lat="64.46857" lon="11.49061">
        <ele>56.970199</ele>
        <time>2020-08-11T07:44:42.961Z</time>
      </trkpt>
      <trkpt lat="64.46859" lon="11.49034">
        <ele>56.451035</ele>
        <time>2020-08-11T07:44:45.948Z</time>
      </trkpt>
      <trkpt lat="64.46862" lon="11.49012">
        <ele>56.028836</ele>
        <time>2020-08-11T07:44:47.951Z</time>
      </trkpt>
      <trkpt lat="64.46866" lon="11.48991">
        <ele>55.604397</ele>
        <time>2020-08-11T07:44:49.968Z</time>
      </trkpt>
      <trkpt lat="64.4687" lon="11.4897">
        <ele>55.167815</ele>
        <time>2020-08-11T07:44:51.980Z</time>
      </trkpt>
      <trkpt lat="64.46874" lon="11.4895">
        <ele>54.755055</ele>
        <time>2020-08-11T07:44:53.947Z</time>
      </trkpt>
      <trkpt lat="64.46878" lon="11.4893">
        <ele>54.342105</ele>
        <time>2020-08-11T07:44:55.973Z</time>
      </trkpt>
      <trkpt lat="64.46883" lon="11.48908">
        <ele>53.89345</ele>
        <time>2020-08-11T07:44:57.967Z</time>
      </trkpt>
      <trkpt lat="64.46887" lon="11.48884">
        <ele>53.409214</ele>
        <time>2020-08-11T07:44:59.980Z</time>
      </trkpt>
      <trkpt lat="64.46892" lon="11.4886">
        <ele>52.928193</ele>
        <time>2020-08-11T07:45:01.939Z</time>
      </trkpt>
      <trkpt lat="64.46896" lon="11.4884">
        <ele>52.507029</ele>
        <time>2020-08-11T07:45:03.940Z</time>
      </trkpt>
      <trkpt lat="64.469" lon="11.4882">
        <ele>52.163605</ele>
        <time>2020-08-11T07:45:05.957Z</time>
      </trkpt>
      <trkpt lat="64.46905" lon="11.48793">
        <ele>52.305148</ele>
        <time>2020-08-11T07:45:08.979Z</time>
      </trkpt>
      <trkpt lat="64.46908" lon="11.48773">
        <ele>52.404543</ele>
        <time>2020-08-11T07:45:10.939Z</time>
      </trkpt>
      <trkpt lat="64.46912" lon="11.48753">
        <ele>52.508196</ele>
        <time>2020-08-11T07:45:12.945Z</time>
      </trkpt>
      <trkpt lat="64.46916" lon="11.48734">
        <ele>52.6109</ele>
        <time>2020-08-11T07:45:14.975Z</time>
      </trkpt>
      <trkpt lat="64.46922" lon="11.48708">
        <ele>52.752644</ele>
        <time>2020-08-11T07:45:17.950Z</time>
      </trkpt>
      <trkpt lat="64.46931" lon="11.48685">
        <ele>52.897122</ele>
        <time>2020-08-11T07:45:20.941Z</time>
      </trkpt>
      <trkpt lat="64.46944" lon="11.48677">
        <ele>53.042043</ele>
        <time>2020-08-11T07:45:23.945Z</time>
      </trkpt>
      <trkpt lat="64.46956" lon="11.4867">
        <ele>53.178286</ele>
        <time>2020-08-11T07:45:26.989Z</time>
      </trkpt>
      <trkpt lat="64.46965" lon="11.48651">
        <ele>53.314629</ele>
        <time>2020-08-11T07:45:30.004Z</time>
      </trkpt>
      <trkpt lat="64.46966" lon="11.48625">
        <ele>53.43864</ele>
        <time>2020-08-11T07:45:32.962Z</time>
      </trkpt>
      <trkpt lat="64.46961" lon="11.48602">
        <ele>53.566288</ele>
        <time>2020-08-11T07:45:35.961Z</time>
      </trkpt>
      <trkpt lat="64.46956" lon="11.48574">
        <ele>53.707391</ele>
        <time>2020-08-11T07:45:38.953Z</time>
      </trkpt>
      <trkpt lat="64.46955" lon="11.48553">
        <ele>53.807112</ele>
        <time>2020-08-11T07:45:40.949Z</time>
      </trkpt>
      <trkpt lat="64.46955" lon="11.48531">
        <ele>53.914766</ele>
        <time>2020-08-11T07:45:42.993Z</time>
      </trkpt>
      <trkpt lat="64.46956" lon="11.48507">
        <ele>54.027123</ele>
        <time>2020-08-11T07:45:44.960Z</time>
      </trkpt>
      <trkpt lat="64.46958" lon="11.48484">
        <ele>54.103001</ele>
        <time>2020-08-11T07:45:46.954Z</time>
      </trkpt>
      <trkpt lat="64.4696" lon="11.48462">
        <ele>53.560145</ele>
        <time>2020-08-11T07:45:48.961Z</time>
      </trkpt>
      <trkpt lat="64.46962" lon="11.4844">
        <ele>52.995924</ele>
        <time>2020-08-11T07:45:50.949Z</time>
      </trkpt>
      <trkpt lat="64.46963" lon="11.48417">
        <ele>52.441736</ele>
        <time>2020-08-11T07:45:52.936Z</time>
      </trkpt>
      <trkpt lat="64.46965" lon="11.48395">
        <ele>51.900443</ele>
        <time>2020-08-11T07:45:54.951Z</time>
      </trkpt>
      <trkpt lat="64.46966" lon="11.48374">
        <ele>51.388758</ele>
        <time>2020-08-11T07:45:56.975Z</time>
      </trkpt>
      <trkpt lat="64.46967" lon="11.48354">
        <ele>50.882146</ele>
        <time>2020-08-11T07:45:58.959Z</time>
      </trkpt>
      <trkpt lat="64.46968" lon="11.48323">
        <ele>50.122712</ele>
        <time>2020-08-11T07:46:01.952Z</time>
      </trkpt>
      <trkpt lat="64.46969" lon="11.48301">
        <ele>49.589037</ele>
        <time>2020-08-11T07:46:03.960Z</time>
      </trkpt>
      <trkpt lat="64.4697" lon="11.48279">
        <ele>49.056078</ele>
        <time>2020-08-11T07:46:05.967Z</time>
      </trkpt>
      <trkpt lat="64.46969" lon="11.48257">
        <ele>48.521406</ele>
        <time>2020-08-11T07:46:07.932Z</time>
      </trkpt>
      <trkpt lat="64.46966" lon="11.48229">
        <ele>47.81212</ele>
        <time>2020-08-11T07:46:10.970Z</time>
      </trkpt>
      <trkpt lat="64.46964" lon="11.48198">
        <ele>47.045683</ele>
        <time>2020-08-11T07:46:13.951Z</time>
      </trkpt>
      <trkpt lat="64.46962" lon="11.48175">
        <ele>46.491588</ele>
        <time>2020-08-11T07:46:16.010Z</time>
      </trkpt>
      <trkpt lat="64.46961" lon="11.48153">
        <ele>45.953978</ele>
        <time>2020-08-11T07:46:17.948Z</time>
      </trkpt>
      <trkpt lat="64.46961" lon="11.4813">
        <ele>45.404492</ele>
        <time>2020-08-11T07:46:19.960Z</time>
      </trkpt>
      <trkpt lat="64.46961" lon="11.48109">
        <ele>44.881877</ele>
        <time>2020-08-11T07:46:21.956Z</time>
      </trkpt>
      <trkpt lat="64.46962" lon="11.48086">
        <ele>44.326087</ele>
        <time>2020-08-11T07:46:23.949Z</time>
      </trkpt>
      <trkpt lat="64.46963" lon="11.48065">
        <ele>44.152311</ele>
        <time>2020-08-11T07:46:25.938Z</time>
      </trkpt>
      <trkpt lat="64.46963" lon="11.48036">
        <ele>44.782364</ele>
        <time>2020-08-11T07:46:28.961Z</time>
      </trkpt>
      <trkpt lat="64.46962" lon="11.48007">
        <ele>45.399213</ele>
        <time>2020-08-11T07:46:31.960Z</time>
      </trkpt>
      <trkpt lat="64.46963" lon="11.47982">
        <ele>45.943649</ele>
        <time>2020-08-11T07:46:34.945Z</time>
      </trkpt>
      <trkpt lat="64.46963" lon="11.47957">
        <ele>46.470451</ele>
        <time>2020-08-11T07:46:37.991Z</time>
      </trkpt>
      <trkpt lat="64.46963" lon="11.4793">
        <ele>47.053785</ele>
        <time>2020-08-11T07:46:40.968Z</time>
      </trkpt>
      <trkpt lat="64.46965" lon="11.47904">
        <ele>47.628501</ele>
        <time>2020-08-11T07:46:43.944Z</time>
      </trkpt>
      <trkpt lat="64.46968" lon="11.47878">
        <ele>48.198079</ele>
        <time>2020-08-11T07:46:46.952Z</time>
      </trkpt>
      <trkpt lat="64.46966" lon="11.47855">
        <ele>48.69824</ele>
        <time>2020-08-11T07:46:49.961Z</time>
      </trkpt>
      <trkpt lat="64.46965" lon="11.47834">
        <ele>49.160404</ele>
        <time>2020-08-11T07:46:52.967Z</time>
      </trkpt>
      <trkpt lat="64.46965" lon="11.47811">
        <ele>49.660115</ele>
        <time>2020-08-11T07:46:56.944Z</time>
      </trkpt>
      <trkpt lat="64.46967" lon="11.47788">
        <ele>50.159213</ele>
        <time>2020-08-11T07:47:00.989Z</time>
      </trkpt>
      <trkpt lat="64.46968" lon="11.47766">
        <ele>50.631905</ele>
        <time>2020-08-11T07:47:04.929Z</time>
      </trkpt>
      <trkpt lat="64.4697" lon="11.47743">
        <ele>51.124547</ele>
        <time>2020-08-11T07:47:08.988Z</time>
      </trkpt>
      <trkpt lat="64.46972" lon="11.47719">
        <ele>51.662301</ele>
        <time>2020-08-11T07:47:12.963Z</time>
      </trkpt>
      <trkpt lat="64.46973" lon="11.47698">
        <ele>52.125373</ele>
        <time>2020-08-11T07:47:16.960Z</time>
      </trkpt>
      <trkpt lat="64.46973" lon="11.47673">
        <ele>52.658615</ele>
        <time>2020-08-11T07:47:20.959Z</time>
      </trkpt>
      <trkpt lat="64.46978" lon="11.47652">
        <ele>53.255224</ele>
        <time>2020-08-11T07:47:25.955Z</time>
      </trkpt>
      <trkpt lat="64.46983" lon="11.47631">
        <ele>53.890604</ele>
        <time>2020-08-11T07:47:29.946Z</time>
      </trkpt>
      <trkpt lat="64.46987" lon="11.4761">
        <ele>54.544557</ele>
        <time>2020-08-11T07:47:33.940Z</time>
      </trkpt>
      <trkpt lat="64.46991" lon="11.47588">
        <ele>55.201234</ele>
        <time>2020-08-11T07:47:38.957Z</time>
      </trkpt>
      <trkpt lat="64.46995" lon="11.47568">
        <ele>55.805125</ele>
        <time>2020-08-11T07:47:43.966Z</time>
      </trkpt>
      <trkpt lat="64.47002" lon="11.47551">
        <ele>56.447523</ele>
        <time>2020-08-11T07:47:48.967Z</time>
      </trkpt>
      <trkpt lat="64.47008" lon="11.47532">
        <ele>57.114799</ele>
        <time>2020-08-11T07:47:55.951Z</time>
      </trkpt>
      <trkpt lat="64.47014" lon="11.47511">
        <ele>57.782033</ele>
        <time>2020-08-11T07:48:01.964Z</time>
      </trkpt>
      <trkpt lat="64.4702" lon="11.47492">
        <ele>58.450412</ele>
        <time>2020-08-11T07:48:07.933Z</time>
      </trkpt>
      <trkpt lat="64.47027" lon="11.47474">
        <ele>59.093843</ele>
        <time>2020-08-11T07:48:12.948Z</time>
      </trkpt>
      <trkpt lat="64.47035" lon="11.47456">
        <ele>59.803957</ele>
        <time>2020-08-11T07:48:17.949Z</time>
      </trkpt>
      <trkpt lat="64.47041" lon="11.4744">
        <ele>60.416795</ele>
        <time>2020-08-11T07:48:22.940Z</time>
      </trkpt>
      <trkpt lat="64.47049" lon="11.47428">
        <ele>60.987205</ele>
        <time>2020-08-11T07:48:27.961Z</time>
      </trkpt>
      <trkpt lat="64.47055" lon="11.47408">
        <ele>61.648655</ele>
        <time>2020-08-11T07:48:34.965Z</time>
      </trkpt>
      <trkpt lat="64.47056" lon="11.47386">
        <ele>62.252823</ele>
        <time>2020-08-11T07:48:40.951Z</time>
      </trkpt>
      <trkpt lat="64.47059" lon="11.47364">
        <ele>62.898394</ele>
        <time>2020-08-11T07:48:46.949Z</time>
      </trkpt>
      <trkpt lat="64.47064" lon="11.47342">
        <ele>63.573077</ele>
        <time>2020-08-11T07:48:53.006Z</time>
      </trkpt>
      <trkpt lat="64.4707" lon="11.47324">
        <ele>64.214805</ele>
        <time>2020-08-11T07:48:58.959Z</time>
      </trkpt>
      <trkpt lat="64.47076" lon="11.47306">
        <ele>64.602225</ele>
        <time>2020-08-11T07:49:02.963Z</time>
      </trkpt>
      <trkpt lat="64.47081" lon="11.47282">
        <ele>64.919004</ele>
        <time>2020-08-11T07:49:06.991Z</time>
      </trkpt>
      <trkpt lat="64.47084" lon="11.47262">
        <ele>65.17287</ele>
        <time>2020-08-11T07:49:09.971Z</time>
      </trkpt>
      <trkpt lat="64.47086" lon="11.4724">
        <ele>65.448648</ele>
        <time>2020-08-11T07:49:12.947Z</time>
      </trkpt>
      <trkpt lat="64.47086" lon="11.47215">
        <ele>65.737943</ele>
        <time>2020-08-11T07:49:15.957Z</time>
      </trkpt>
      <trkpt lat="64.47088" lon="11.47193">
        <ele>66.013202</ele>
        <time>2020-08-11T07:49:18.976Z</time>
      </trkpt>
      <trkpt lat="64.47089" lon="11.4717">
        <ele>66.291744</ele>
        <time>2020-08-11T07:49:22.981Z</time>
      </trkpt>
      <trkpt lat="64.4709" lon="11.47146">
        <ele>66.581115</ele>
        <time>2020-08-11T07:49:26.969Z</time>
      </trkpt>
      <trkpt lat="64.47093" lon="11.47125">
        <ele>66.838873</ele>
        <time>2020-08-11T07:49:30.955Z</time>
      </trkpt>
      <trkpt lat="64.47098" lon="11.47104">
        <ele>67.135954</ele>
        <time>2020-08-11T07:49:34.946Z</time>
      </trkpt>
      <trkpt lat="64.47102" lon="11.47084">
        <ele>67.38785</ele>
        <time>2020-08-11T07:49:39.944Z</time>
      </trkpt>
      <trkpt lat="64.47107" lon="11.47066">
        <ele>67.644021</ele>
        <time>2020-08-11T07:49:43.936Z</time>
      </trkpt>
      <trkpt lat="64.47114" lon="11.47045">
        <ele>67.960292</ele>
        <time>2020-08-11T07:49:48.969Z</time>
      </trkpt>
      <trkpt lat="64.4712" lon="11.47031">
        <ele>68.215014</ele>
        <time>2020-08-11T07:49:52.954Z</time>
      </trkpt>
      <trkpt lat="64.47128" lon="11.47016">
        <ele>68.482666</ele>
        <time>2020-08-11T07:49:57.937Z</time>
      </trkpt>
      <trkpt lat="64.47135" lon="11.47">
        <ele>68.758889</ele>
        <time>2020-08-11T07:50:04.949Z</time>
      </trkpt>
      <trkpt lat="64.47142" lon="11.46986">
        <ele>69.027813</ele>
        <time>2020-08-11T07:50:11.967Z</time>
      </trkpt>
      <trkpt lat="64.47149" lon="11.46971">
        <ele>69.283733</ele>
        <time>2020-08-11T07:50:19.990Z</time>
      </trkpt>
      <trkpt lat="64.47156" lon="11.46959">
        <ele>69.556867</ele>
        <time>2020-08-11T07:50:24.941Z</time>
      </trkpt>
      <trkpt lat="64.47163" lon="11.46946">
        <ele>69.870721</ele>
        <time>2020-08-11T07:50:29.971Z</time>
      </trkpt>
      <trkpt lat="64.47171" lon="11.46933">
        <ele>70.189377</ele>
        <time>2020-08-11T07:50:35.969Z</time>
      </trkpt>
      <trkpt lat="64.47178" lon="11.46914">
        <ele>70.575479</ele>
        <time>2020-08-11T07:50:41.964Z</time>
      </trkpt>
      <trkpt lat="64.47185" lon="11.46898">
        <ele>70.905931</ele>
        <time>2020-08-11T07:50:46.948Z</time>
      </trkpt>
      <trkpt lat="64.47192" lon="11.46881">
        <ele>71.252418</ele>
        <time>2020-08-11T07:50:50.955Z</time>
      </trkpt>
      <trkpt lat="64.472" lon="11.46867">
        <ele>71.589722</ele>
        <time>2020-08-11T07:50:54.950Z</time>
      </trkpt>
      <trkpt lat="64.47207" lon="11.46847">
        <ele>71.999442</ele>
        <time>2020-08-11T07:50:58.944Z</time>
      </trkpt>
      <trkpt lat="64.47215" lon="11.46833">
        <ele>72.319564</ele>
        <time>2020-08-11T07:51:01.969Z</time>
      </trkpt>
      <trkpt lat="64.47224" lon="11.46818">
        <ele>72.699924</ele>
        <time>2020-08-11T07:51:04.977Z</time>
      </trkpt>
      <trkpt lat="64.47235" lon="11.46802">
        <ele>73.158712</ele>
        <time>2020-08-11T07:51:07.951Z</time>
      </trkpt>
      <trkpt lat="64.47245" lon="11.46788">
        <ele>73.553215</ele>
        <time>2020-08-11T07:51:10.951Z</time>
      </trkpt>
      <trkpt lat="64.47251" lon="11.46773">
        <ele>73.868556</ele>
        <time>2020-08-11T07:51:13.982Z</time>
      </trkpt>
      <trkpt lat="64.47256" lon="11.46756">
        <ele>74.178525</ele>
        <time>2020-08-11T07:51:16.962Z</time>
      </trkpt>
      <trkpt lat="64.47265" lon="11.46741">
        <ele>74.547659</ele>
        <time>2020-08-11T07:51:21.952Z</time>
      </trkpt>
      <trkpt lat="64.47272" lon="11.46726">
        <ele>74.894322</ele>
        <time>2020-08-11T07:51:26.960Z</time>
      </trkpt>
      <trkpt lat="64.4728" lon="11.46709">
        <ele>75.250635</ele>
        <time>2020-08-11T07:51:32.976Z</time>
      </trkpt>
      <trkpt lat="64.47288" lon="11.46691">
        <ele>75.628572</ele>
        <time>2020-08-11T07:51:38.953Z</time>
      </trkpt>
      <trkpt lat="64.47296" lon="11.46677">
        <ele>75.523156</ele>
        <time>2020-08-11T07:51:44.958Z</time>
      </trkpt>
      <trkpt lat="64.47304" lon="11.46663">
        <ele>75.424423</ele>
        <time>2020-08-11T07:51:49.946Z</time>
      </trkpt>
      <trkpt lat="64.47313" lon="11.46661">
        <ele>75.333291</ele>
        <time>2020-08-11T07:51:54.970Z</time>
      </trkpt>
      <trkpt lat="64.47322" lon="11.4666">
        <ele>75.240852</ele>
        <time>2020-08-11T07:51:59.960Z</time>
      </trkpt>
      <trkpt lat="64.47332" lon="11.46652">
        <ele>75.131575</ele>
        <time>2020-08-11T07:52:04.964Z</time>
      </trkpt>
      <trkpt lat="64.47343" lon="11.46647">
        <ele>75.023146</ele>
        <time>2020-08-11T07:52:08.948Z</time>
      </trkpt>
      <trkpt lat="64.47353" lon="11.46644">
        <ele>74.924017</ele>
        <time>2020-08-11T07:52:11.999Z</time>
      </trkpt>
      <trkpt lat="64.47364" lon="11.4664">
        <ele>74.811174</ele>
        <time>2020-08-11T07:52:14.970Z</time>
      </trkpt>
      <trkpt lat="64.47374" lon="11.46637">
        <ele>74.69958</ele>
        <time>2020-08-11T07:52:17.951Z</time>
      </trkpt>
      <trkpt lat="64.47385" lon="11.46633">
        <ele>74.592007</ele>
        <time>2020-08-11T07:52:20.947Z</time>
      </trkpt>
      <trkpt lat="64.47394" lon="11.46631">
        <ele>74.498975</ele>
        <time>2020-08-11T07:52:23.956Z</time>
      </trkpt>
      <trkpt lat="64.47404" lon="11.46629">
        <ele>74.396121</ele>
        <time>2020-08-11T07:52:26.956Z</time>
      </trkpt>
      <trkpt lat="64.47415" lon="11.46625">
        <ele>74.281392</ele>
        <time>2020-08-11T07:52:29.968Z</time>
      </trkpt>
      <trkpt lat="64.47427" lon="11.46622">
        <ele>74.162809</ele>
        <time>2020-08-11T07:52:32.949Z</time>
      </trkpt>
      <trkpt lat="64.47441" lon="11.4662">
        <ele>74.02459</ele>
        <time>2020-08-11T07:52:35.993Z</time>
      </trkpt>
      <trkpt lat="64.47451" lon="11.46621">
        <ele>73.916946</ele>
        <time>2020-08-11T07:52:37.949Z</time>
      </trkpt>
      <trkpt lat="64.47463" lon="11.46623">
        <ele>73.844945</ele>
        <time>2020-08-11T07:52:39.950Z</time>
      </trkpt>
      <trkpt lat="64.47477" lon="11.46627">
        <ele>74.275439</ele>
        <time>2020-08-11T07:52:41.986Z</time>
      </trkpt>
      <trkpt lat="64.4749" lon="11.46631">
        <ele>74.730518</ele>
        <time>2020-08-11T07:52:43.968Z</time>
      </trkpt>
      <trkpt lat="64.47504" lon="11.46636">
        <ele>75.167179</ele>
        <time>2020-08-11T07:52:45.940Z</time>
      </trkpt>
      <trkpt lat="64.47515" lon="11.46641">
        <ele>75.554262</ele>
        <time>2020-08-11T07:52:47.983Z</time>
      </trkpt>
      <trkpt lat="64.47526" lon="11.46649">
        <ele>75.906575</ele>
        <time>2020-08-11T07:52:49.947Z</time>
      </trkpt>
      <trkpt lat="64.47534" lon="11.46657">
        <ele>76.206691</ele>
        <time>2020-08-11T07:52:51.952Z</time>
      </trkpt>
      <trkpt lat="64.47545" lon="11.46668">
        <ele>76.591545</ele>
        <time>2020-08-11T07:52:54.973Z</time>
      </trkpt>
      <trkpt lat="64.47555" lon="11.46681">
        <ele>76.950579</ele>
        <time>2020-08-11T07:52:58.938Z</time>
      </trkpt>
      <trkpt lat="64.47562" lon="11.46696">
        <ele>77.262146</ele>
        <time>2020-08-11T07:53:03.953Z</time>
      </trkpt>
      <trkpt lat="64.47571" lon="11.46707">
        <ele>77.596454</ele>
        <time>2020-08-11T07:53:12.970Z</time>
      </trkpt>
      <trkpt lat="64.47582" lon="11.46714">
        <ele>77.945258</ele>
        <time>2020-08-11T07:53:17.966Z</time>
      </trkpt>
      <trkpt lat="64.4759" lon="11.46722">
        <ele>78.253738</ele>
        <time>2020-08-11T07:53:23.950Z</time>
      </trkpt>
      <trkpt lat="64.476" lon="11.46729">
        <ele>78.568292</ele>
        <time>2020-08-11T07:53:31.945Z</time>
      </trkpt>
      <trkpt lat="64.47608" lon="11.46737">
        <ele>78.877267</ele>
        <time>2020-08-11T07:53:38.945Z</time>
      </trkpt>
      <trkpt lat="64.47618" lon="11.46742">
        <ele>79.180177</ele>
        <time>2020-08-11T07:53:44.977Z</time>
      </trkpt>
      <trkpt lat="64.47626" lon="11.46756">
        <ele>79.5208</ele>
        <time>2020-08-11T07:53:52.972Z</time>
      </trkpt>
      <trkpt lat="64.47637" lon="11.4676">
        <ele>80.237328</ele>
        <time>2020-08-11T07:53:58.958Z</time>
      </trkpt>
      <trkpt lat="64.47647" lon="11.46766">
        <ele>81.08868</ele>
        <time>2020-08-11T07:54:03.988Z</time>
      </trkpt>
      <trkpt lat="64.47655" lon="11.46775">
        <ele>81.849851</ele>
        <time>2020-08-11T07:54:09.945Z</time>
      </trkpt>
      <trkpt lat="64.47664" lon="11.46781">
        <ele>82.615614</ele>
        <time>2020-08-11T07:54:15.990Z</time>
      </trkpt>
      <trkpt lat="64.47673" lon="11.46787">
        <ele>83.409991</ele>
        <time>2020-08-11T07:54:21.945Z</time>
      </trkpt>
      <trkpt lat="64.47682" lon="11.46797">
        <ele>84.198588</ele>
        <time>2020-08-11T07:54:27.971Z</time>
      </trkpt>
      <trkpt lat="64.47689" lon="11.46808">
        <ele>84.944503</ele>
        <time>2020-08-11T07:54:33.959Z</time>
      </trkpt>
      <trkpt lat="64.47697" lon="11.4682">
        <ele>85.693057</ele>
        <time>2020-08-11T07:54:40.980Z</time>
      </trkpt>
      <trkpt lat="64.47703" lon="11.46838">
        <ele>86.516874</ele>
        <time>2020-08-11T07:54:48.981Z</time>
      </trkpt>
      <trkpt lat="64.47704" lon="11.4686">
        <ele>87.320869</ele>
        <time>2020-08-11T07:54:56.995Z</time>
      </trkpt>
      <trkpt lat="64.47714" lon="11.46868">
        <ele>88.160087</ele>
        <time>2020-08-11T07:55:03.968Z</time>
      </trkpt>
      <trkpt lat="64.47723" lon="11.46876">
        <ele>88.973494</ele>
        <time>2020-08-11T07:55:09.964Z</time>
      </trkpt>
      <trkpt lat="64.47731" lon="11.46891">
        <ele>89.826108</ele>
        <time>2020-08-11T07:55:16.985Z</time>
      </trkpt>
      <trkpt lat="64.47739" lon="11.46901">
        <ele>90.5819</ele>
        <time>2020-08-11T07:55:22.953Z</time>
      </trkpt>
      <trkpt lat="64.47748" lon="11.4691">
        <ele>91.38223</ele>
        <time>2020-08-11T07:55:27.982Z</time>
      </trkpt>
      <trkpt lat="64.47756" lon="11.4692">
        <ele>92.139017</ele>
        <time>2020-08-11T07:55:32.965Z</time>
      </trkpt>
      <trkpt lat="64.47765" lon="11.46932">
        <ele>92.971086</ele>
        <time>2020-08-11T07:55:40.966Z</time>
      </trkpt>
      <trkpt lat="64.47772" lon="11.46946">
        <ele>93.771417</ele>
        <time>2020-08-11T07:55:47.964Z</time>
      </trkpt>
      <trkpt lat="64.47779" lon="11.46958">
        <ele>94.53006</ele>
        <time>2020-08-11T07:55:53.947Z</time>
      </trkpt>
      <trkpt lat="64.47787" lon="11.46971">
        <ele>94.828643</ele>
        <time>2020-08-11T07:55:59.966Z</time>
      </trkpt>
      <trkpt lat="64.47797" lon="11.46976">
        <ele>95.16087</ele>
        <time>2020-08-11T07:56:05.944Z</time>
      </trkpt>
      <trkpt lat="64.47807" lon="11.46977">
        <ele>95.466187</ele>
        <time>2020-08-11T07:56:11.944Z</time>
      </trkpt>
      <trkpt lat="64.47816" lon="11.46986">
        <ele>95.776349</ele>
        <time>2020-08-11T07:56:19.950Z</time>
      </trkpt>
      <trkpt lat="64.47826" lon="11.46995">
        <ele>96.106242</ele>
        <time>2020-08-11T07:56:26.948Z</time>
      </trkpt>
      <trkpt lat="64.47836" lon="11.47004">
        <ele>96.432272</ele>
        <time>2020-08-11T07:56:32.978Z</time>
      </trkpt>
      <trkpt lat="64.47846" lon="11.47011">
        <ele>96.743678</ele>
        <time>2020-08-11T07:56:38.954Z</time>
      </trkpt>
      <trkpt lat="64.47855" lon="11.47019">
        <ele>97.046965</ele>
        <time>2020-08-11T07:56:45.964Z</time>
      </trkpt>
      <trkpt lat="64.47864" lon="11.47027">
        <ele>97.347836</ele>
        <time>2020-08-11T07:56:51.943Z</time>
      </trkpt>
      <trkpt lat="64.47873" lon="11.47035">
        <ele>97.649707</ele>
        <time>2020-08-11T07:56:57.969Z</time>
      </trkpt>
      <trkpt lat="64.47881" lon="11.47043">
        <ele>97.936151</ele>
        <time>2020-08-11T07:57:04.957Z</time>
      </trkpt>
      <trkpt lat="64.4789" lon="11.47052">
        <ele>98.235942</ele>
        <time>2020-08-11T07:57:10.958Z</time>
      </trkpt>
      <trkpt lat="64.47899" lon="11.47063">
        <ele>98.556602</ele>
        <time>2020-08-11T07:57:15.962Z</time>
      </trkpt>
      <trkpt lat="64.47907" lon="11.47074">
        <ele>98.84373</ele>
        <time>2020-08-11T07:57:20.952Z</time>
      </trkpt>
      <trkpt lat="64.47915" lon="11.47087">
        <ele>99.134604</ele>
        <time>2020-08-11T07:57:25.988Z</time>
      </trkpt>
      <trkpt lat="64.47924" lon="11.47101">
        <ele>99.466599</ele>
        <time>2020-08-11T07:57:30.948Z</time>
      </trkpt>
      <trkpt lat="64.47932" lon="11.47115">
        <ele>99.788261</ele>
        <time>2020-08-11T07:57:34.962Z</time>
      </trkpt>
      <trkpt lat="64.4794" lon="11.47127">
        <ele>100.079462</ele>
        <time>2020-08-11T07:57:37.959Z</time>
      </trkpt>
      <trkpt lat="64.47949" lon="11.47141">
        <ele>99.887726</ele>
        <time>2020-08-11T07:57:40.985Z</time>
      </trkpt>
      <trkpt lat="64.47957" lon="11.47155">
        <ele>99.6298</ele>
        <time>2020-08-11T07:57:42.963Z</time>
      </trkpt>
      <trkpt lat="64.47965" lon="11.47173">
        <ele>99.320409</ele>
        <time>2020-08-11T07:57:44.963Z</time>
      </trkpt>
      <trkpt lat="64.47973" lon="11.47196">
        <ele>98.951822</ele>
        <time>2020-08-11T07:57:46.964Z</time>
      </trkpt>
      <trkpt lat="64.47984" lon="11.4722">
        <ele>98.539855</ele>
        <time>2020-08-11T07:57:48.987Z</time>
      </trkpt>
      <trkpt lat="64.47993" lon="11.47252">
        <ele>98.070937</ele>
        <time>2020-08-11T07:57:50.974Z</time>
      </trkpt>
      <trkpt lat="64.47998" lon="11.47271">
        <ele>97.810906</ele>
        <time>2020-08-11T07:57:51.952Z</time>
      </trkpt>
      <trkpt lat="64.48002" lon="11.47291">
        <ele>97.534731</ele>
        <time>2020-08-11T07:57:52.962Z</time>
      </trkpt>
      <trkpt lat="64.48007" lon="11.47312">
        <ele>97.260195</ele>
        <time>2020-08-11T07:57:53.959Z</time>
      </trkpt>
      <trkpt lat="64.4801" lon="11.47333">
        <ele>96.983577</ele>
        <time>2020-08-11T07:57:54.969Z</time>
      </trkpt>
      <trkpt lat="64.48014" lon="11.47355">
        <ele>96.70102</ele>
        <time>2020-08-11T07:57:55.948Z</time>
      </trkpt>
      <trkpt lat="64.48017" lon="11.47377">
        <ele>96.423281</ele>
        <time>2020-08-11T07:57:56.942Z</time>
      </trkpt>
      <trkpt lat="64.48021" lon="11.47398">
        <ele>96.142354</ele>
        <time>2020-08-11T07:57:57.974Z</time>
      </trkpt>
      <trkpt lat="64.48026" lon="11.47419">
        <ele>95.859015</ele>
        <time>2020-08-11T07:57:58.973Z</time>
      </trkpt>
      <trkpt lat="64.48031" lon="11.47439">
        <ele>95.578888</ele>
        <time>2020-08-11T07:57:59.996Z</time>
      </trkpt>
      <trkpt lat="64.48037" lon="11.47457">
        <ele>95.304297</ele>
        <time>2020-08-11T07:58:00.955Z</time>
      </trkpt>
      <trkpt lat="64.48044" lon="11.47473">
        <ele>94.916547</ele>
        <time>2020-08-11T07:58:01.955Z</time>
      </trkpt>
      <trkpt lat="64.48051" lon="11.47488">
        <ele>94.30455</ele>
        <time>2020-08-11T07:58:02.992Z</time>
      </trkpt>
      <trkpt lat="64.48058" lon="11.47504">
        <ele>93.664579</ele>
        <time>2020-08-11T07:58:03.963Z</time>
      </trkpt>
      <trkpt lat="64.48065" lon="11.47518">
        <ele>93.059784</ele>
        <time>2020-08-11T07:58:04.969Z</time>
      </trkpt>
      <trkpt lat="64.48073" lon="11.47531">
        <ele>92.463882</ele>
        <time>2020-08-11T07:58:05.946Z</time>
      </trkpt>
      <trkpt lat="64.48081" lon="11.47543">
        <ele>91.831296</ele>
        <time>2020-08-11T07:58:06.964Z</time>
      </trkpt>
      <trkpt lat="64.4809" lon="11.47554">
        <ele>91.172322</ele>
        <time>2020-08-11T07:58:07.954Z</time>
      </trkpt>
      <trkpt lat="64.481" lon="11.47565">
        <ele>90.491814</ele>
        <time>2020-08-11T07:58:08.964Z</time>
      </trkpt>
      <trkpt lat="64.4811" lon="11.47575">
        <ele>89.806547</ele>
        <time>2020-08-11T07:58:09.978Z</time>
      </trkpt>
      <trkpt lat="64.4812" lon="11.47584">
        <ele>89.119985</ele>
        <time>2020-08-11T07:58:10.965Z</time>
      </trkpt>
      <trkpt lat="64.4813" lon="11.47592">
        <ele>88.425315</ele>
        <time>2020-08-11T07:58:11.944Z</time>
      </trkpt>
      <trkpt lat="64.4814" lon="11.47601">
        <ele>87.750675</ele>
        <time>2020-08-11T07:58:12.965Z</time>
      </trkpt>
      <trkpt lat="64.48149" lon="11.47612">
        <ele>87.083771</ele>
        <time>2020-08-11T07:58:13.950Z</time>
      </trkpt>
      <trkpt lat="64.48158" lon="11.47625">
        <ele>86.41211</ele>
        <time>2020-08-11T07:58:14.972Z</time>
      </trkpt>
      <trkpt lat="64.48166" lon="11.4764">
        <ele>85.732016</ele>
        <time>2020-08-11T07:58:15.944Z</time>
      </trkpt>
      <trkpt lat="64.48174" lon="11.47657">
        <ele>85.039593</ele>
        <time>2020-08-11T07:58:16.968Z</time>
      </trkpt>
      <trkpt lat="64.48183" lon="11.47675">
        <ele>84.32179</ele>
        <time>2020-08-11T07:58:17.960Z</time>
      </trkpt>
      <trkpt lat="64.48191" lon="11.47694">
        <ele>83.58828</ele>
        <time>2020-08-11T07:58:18.997Z</time>
      </trkpt>
      <trkpt lat="64.48198" lon="11.47713">
        <ele>82.923806</ele>
        <time>2020-08-11T07:58:19.966Z</time>
      </trkpt>
      <trkpt lat="64.48207" lon="11.47731">
        <ele>82.257626</ele>
        <time>2020-08-11T07:58:20.952Z</time>
      </trkpt>
      <trkpt lat="64.48215" lon="11.47748">
        <ele>81.595706</ele>
        <time>2020-08-11T07:58:21.989Z</time>
      </trkpt>
      <trkpt lat="64.48223" lon="11.47764">
        <ele>80.956514</ele>
        <time>2020-08-11T07:58:22.954Z</time>
      </trkpt>
      <trkpt lat="64.48231" lon="11.4778">
        <ele>80.343077</ele>
        <time>2020-08-11T07:58:23.972Z</time>
      </trkpt>
      <trkpt lat="64.48239" lon="11.47796">
        <ele>79.745241</ele>
        <time>2020-08-11T07:58:24.961Z</time>
      </trkpt>
      <trkpt lat="64.48246" lon="11.47811">
        <ele>79.1762</ele>
        <time>2020-08-11T07:58:25.941Z</time>
      </trkpt>
      <trkpt lat="64.48253" lon="11.47824">
        <ele>78.612218</ele>
        <time>2020-08-11T07:58:26.964Z</time>
      </trkpt>
      <trkpt lat="64.48261" lon="11.47837">
        <ele>78.062267</ele>
        <time>2020-08-11T07:58:27.967Z</time>
      </trkpt>
      <trkpt lat="64.48268" lon="11.4785">
        <ele>77.510652</ele>
        <time>2020-08-11T07:58:28.951Z</time>
      </trkpt>
      <trkpt lat="64.48276" lon="11.47862">
        <ele>76.964607</ele>
        <time>2020-08-11T07:58:29.966Z</time>
      </trkpt>
      <trkpt lat="64.48284" lon="11.47874">
        <ele>76.420766</ele>
        <time>2020-08-11T07:58:30.957Z</time>
      </trkpt>
      <trkpt lat="64.48292" lon="11.47885">
        <ele>75.852148</ele>
        <time>2020-08-11T07:58:31.948Z</time>
      </trkpt>
      <trkpt lat="64.48301" lon="11.47896">
        <ele>75.266274</ele>
        <time>2020-08-11T07:58:32.965Z</time>
      </trkpt>
      <trkpt lat="64.4831" lon="11.47905">
        <ele>74.662438</ele>
        <time>2020-08-11T07:58:33.959Z</time>
      </trkpt>
      <trkpt lat="64.4832" lon="11.47913">
        <ele>74.045437</ele>
        <time>2020-08-11T07:58:34.956Z</time>
      </trkpt>
      <trkpt lat="64.4833" lon="11.47919">
        <ele>73.405185</ele>
        <time>2020-08-11T07:58:35.995Z</time>
      </trkpt>
      <trkpt lat="64.48341" lon="11.47924">
        <ele>72.759459</ele>
        <time>2020-08-11T07:58:36.979Z</time>
      </trkpt>
      <trkpt lat="64.48352" lon="11.47928">
        <ele>72.097093</ele>
        <time>2020-08-11T07:58:37.989Z</time>
      </trkpt>
      <trkpt lat="64.48364" lon="11.47931">
        <ele>71.413476</ele>
        <time>2020-08-11T07:58:38.978Z</time>
      </trkpt>
      <trkpt lat="64.48375" lon="11.47933">
        <ele>70.749264</ele>
        <time>2020-08-11T07:58:39.955Z</time>
      </trkpt>
      <trkpt lat="64.48385" lon="11.47936">
        <ele>70.114148</ele>
        <time>2020-08-11T07:58:40.961Z</time>
      </trkpt>
      <trkpt lat="64.48395" lon="11.47939">
        <ele>69.513926</ele>
        <time>2020-08-11T07:58:41.960Z</time>
      </trkpt>
      <trkpt lat="64.48405" lon="11.47942">
        <ele>68.925523</ele>
        <time>2020-08-11T07:58:42.944Z</time>
      </trkpt>
      <trkpt lat="64.48414" lon="11.47945">
        <ele>68.365942</ele>
        <time>2020-08-11T07:58:43.956Z</time>
      </trkpt>
      <trkpt lat="64.48431" lon="11.4795">
        <ele>67.338443</ele>
        <time>2020-08-11T07:58:45.950Z</time>
      </trkpt>
      <trkpt lat="64.48446" lon="11.47955">
        <ele>66.465359</ele>
        <time>2020-08-11T07:58:47.944Z</time>
      </trkpt>
      <trkpt lat="64.48457" lon="11.47963">
        <ele>65.768185</ele>
        <time>2020-08-11T07:58:49.976Z</time>
      </trkpt>
      <trkpt lat="64.48467" lon="11.47978">
        <ele>65.050746</ele>
        <time>2020-08-11T07:58:51.946Z</time>
      </trkpt>
      <trkpt lat="64.48475" lon="11.47999">
        <ele>64.337205</ele>
        <time>2020-08-11T07:58:53.976Z</time>
      </trkpt>
      <trkpt lat="64.48486" lon="11.48009">
        <ele>63.621583</ele>
        <time>2020-08-11T07:58:55.973Z</time>
      </trkpt>
      <trkpt lat="64.485" lon="11.48002">
        <ele>62.754231</ele>
        <time>2020-08-11T07:58:58.000Z</time>
      </trkpt>
      <trkpt lat="64.48513" lon="11.47986">
        <ele>62.082903</ele>
        <time>2020-08-11T07:59:00.005Z</time>
      </trkpt>
      <trkpt lat="64.48524" lon="11.47973">
        <ele>61.668361</ele>
        <time>2020-08-11T07:59:01.962Z</time>
      </trkpt>
      <trkpt lat="64.48537" lon="11.47959">
        <ele>61.235166</ele>
        <time>2020-08-11T07:59:03.948Z</time>
      </trkpt>
      <trkpt lat="64.48549" lon="11.47946">
        <ele>60.806573</ele>
        <time>2020-08-11T07:59:05.968Z</time>
      </trkpt>
      <trkpt lat="64.48562" lon="11.47932">
        <ele>60.363574</ele>
        <time>2020-08-11T07:59:07.968Z</time>
      </trkpt>
      <trkpt lat="64.48574" lon="11.47918">
        <ele>59.923896</ele>
        <time>2020-08-11T07:59:09.986Z</time>
      </trkpt>
      <trkpt lat="64.48587" lon="11.47903">
        <ele>59.463502</ele>
        <time>2020-08-11T07:59:11.968Z</time>
      </trkpt>
      <trkpt lat="64.48601" lon="11.47887">
        <ele>58.976083</ele>
        <time>2020-08-11T07:59:13.951Z</time>
      </trkpt>
      <trkpt lat="64.48616" lon="11.47872">
        <ele>58.435902</ele>
        <time>2020-08-11T07:59:15.964Z</time>
      </trkpt>
      <trkpt lat="64.48625" lon="11.47864">
        <ele>58.146652</ele>
        <time>2020-08-11T07:59:16.972Z</time>
      </trkpt>
      <trkpt lat="64.48633" lon="11.47858">
        <ele>57.861152</ele>
        <time>2020-08-11T07:59:17.950Z</time>
      </trkpt>
      <trkpt lat="64.48642" lon="11.47851">
        <ele>57.563183</ele>
        <time>2020-08-11T07:59:19.034Z</time>
      </trkpt>
      <trkpt lat="64.48652" lon="11.47844">
        <ele>57.24789</ele>
        <time>2020-08-11T07:59:19.948Z</time>
      </trkpt>
      <trkpt lat="64.48662" lon="11.47838">
        <ele>56.913407</ele>
        <time>2020-08-11T07:59:20.943Z</time>
      </trkpt>
      <trkpt lat="64.48673" lon="11.47832">
        <ele>56.563526</ele>
        <time>2020-08-11T07:59:21.948Z</time>
      </trkpt>
      <trkpt lat="64.48684" lon="11.47827">
        <ele>56.451569</ele>
        <time>2020-08-11T07:59:22.968Z</time>
      </trkpt>
      <trkpt lat="64.48695" lon="11.47823">
        <ele>56.340641</ele>
        <time>2020-08-11T07:59:23.951Z</time>
      </trkpt>
      <trkpt lat="64.48707" lon="11.4782">
        <ele>56.226142</ele>
        <time>2020-08-11T07:59:24.938Z</time>
      </trkpt>
      <trkpt lat="64.48719" lon="11.47815">
        <ele>56.109994</ele>
        <time>2020-08-11T07:59:25.968Z</time>
      </trkpt>
      <trkpt lat="64.48731" lon="11.47809">
        <ele>55.990134</ele>
        <time>2020-08-11T07:59:26.946Z</time>
      </trkpt>
      <trkpt lat="64.48744" lon="11.47802">
        <ele>55.866217</ele>
        <time>2020-08-11T07:59:27.972Z</time>
      </trkpt>
      <trkpt lat="64.48756" lon="11.47794">
        <ele>55.742172</ele>
        <time>2020-08-11T07:59:28.974Z</time>
      </trkpt>
      <trkpt lat="64.48768" lon="11.47785">
        <ele>55.621489</ele>
        <time>2020-08-11T07:59:29.967Z</time>
      </trkpt>
      <trkpt lat="64.4878" lon="11.47775">
        <ele>55.50506</ele>
        <time>2020-08-11T07:59:30.948Z</time>
      </trkpt>
      <trkpt lat="64.4879" lon="11.47766">
        <ele>55.39803</ele>
        <time>2020-08-11T07:59:31.943Z</time>
      </trkpt>
      <trkpt lat="64.488" lon="11.47757">
        <ele>55.298276</ele>
        <time>2020-08-11T07:59:32.943Z</time>
      </trkpt>
      <trkpt lat="64.48809" lon="11.47749">
        <ele>55.206529</ele>
        <time>2020-08-11T07:59:33.958Z</time>
      </trkpt>
      <trkpt lat="64.48825" lon="11.47735">
        <ele>55.043695</ele>
        <time>2020-08-11T07:59:35.972Z</time>
      </trkpt>
      <trkpt lat="64.48838" lon="11.47723">
        <ele>54.910984</ele>
        <time>2020-08-11T07:59:37.941Z</time>
      </trkpt>
      <trkpt lat="64.48848" lon="11.47714">
        <ele>55.123753</ele>
        <time>2020-08-11T07:59:39.944Z</time>
      </trkpt>
      <trkpt lat="64.4886" lon="11.47703">
        <ele>56.194117</ele>
        <time>2020-08-11T07:59:42.957Z</time>
      </trkpt>
      <trkpt lat="64.48869" lon="11.47693">
        <ele>57.086709</ele>
        <time>2020-08-11T07:59:45.948Z</time>
      </trkpt>
      <trkpt lat="64.48881" lon="11.47683">
        <ele>58.141234</ele>
        <time>2020-08-11T07:59:48.944Z</time>
      </trkpt>
      <trkpt lat="64.48891" lon="11.47671">
        <ele>59.069484</ele>
        <time>2020-08-11T07:59:51.968Z</time>
      </trkpt>
      <trkpt lat="64.48901" lon="11.4766">
        <ele>60.06743</ele>
        <time>2020-08-11T07:59:54.976Z</time>
      </trkpt>
      <trkpt lat="64.48912" lon="11.47649">
        <ele>61.088358</ele>
        <time>2020-08-11T07:59:57.947Z</time>
      </trkpt>
      <trkpt lat="64.48921" lon="11.47636">
        <ele>62.009457</ele>
        <time>2020-08-11T08:00:00.940Z</time>
      </trkpt>
      <trkpt lat="64.48929" lon="11.47624">
        <ele>62.840456</ele>
        <time>2020-08-11T08:00:03.951Z</time>
      </trkpt>
      <trkpt lat="64.48937" lon="11.47612">
        <ele>63.626574</ele>
        <time>2020-08-11T08:00:06.965Z</time>
      </trkpt>
      <trkpt lat="64.48944" lon="11.47597">
        <ele>64.405252</ele>
        <time>2020-08-11T08:00:10.944Z</time>
      </trkpt>
      <trkpt lat="64.48949" lon="11.47576">
        <ele>65.27417</ele>
        <time>2020-08-11T08:00:16.963Z</time>
      </trkpt>
      <trkpt lat="64.48955" lon="11.47559">
        <ele>66.104509</ele>
        <time>2020-08-11T08:00:22.946Z</time>
      </trkpt>
      <trkpt lat="64.48961" lon="11.47543">
        <ele>66.903108</ele>
        <time>2020-08-11T08:00:28.972Z</time>
      </trkpt>
      <trkpt lat="64.48968" lon="11.47528">
        <ele>67.711876</ele>
        <time>2020-08-11T08:00:33.963Z</time>
      </trkpt>
      <trkpt lat="64.48974" lon="11.47513">
        <ele>68.491132</ele>
        <time>2020-08-11T08:00:38.968Z</time>
      </trkpt>
      <trkpt lat="64.4898" lon="11.47494">
        <ele>69.345057</ele>
        <time>2020-08-11T08:00:44.951Z</time>
      </trkpt>
      <trkpt lat="64.48986" lon="11.47477">
        <ele>70.154588</ele>
        <time>2020-08-11T08:00:50.981Z</time>
      </trkpt>
      <trkpt lat="64.48991" lon="11.47457">
        <ele>70.510268</ele>
        <time>2020-08-11T08:00:57.968Z</time>
      </trkpt>
      <trkpt lat="64.48995" lon="11.47437">
        <ele>70.796273</ele>
        <time>2020-08-11T08:01:03.960Z</time>
      </trkpt>
      <trkpt lat="64.49001" lon="11.47417">
        <ele>71.109583</ele>
        <time>2020-08-11T08:01:09.938Z</time>
      </trkpt>
      <trkpt lat="64.49006" lon="11.47398">
        <ele>71.409618</ele>
        <time>2020-08-11T08:01:15.971Z</time>
      </trkpt>
      <trkpt lat="64.49012" lon="11.47379">
        <ele>71.706325</ele>
        <time>2020-08-11T08:01:22.939Z</time>
      </trkpt>
      <trkpt lat="64.49017" lon="11.47358">
        <ele>72.036241</ele>
        <time>2020-08-11T08:01:28.948Z</time>
      </trkpt>
      <trkpt lat="64.49022" lon="11.4734">
        <ele>72.311875</ele>
        <time>2020-08-11T08:01:34.968Z</time>
      </trkpt>
      <trkpt lat="64.49026" lon="11.47319">
        <ele>72.618664</ele>
        <time>2020-08-11T08:01:41.963Z</time>
      </trkpt>
      <trkpt lat="64.49029" lon="11.47298">
        <ele>72.912497</ele>
        <time>2020-08-11T08:01:47.952Z</time>
      </trkpt>
      <trkpt lat="64.49034" lon="11.47277">
        <ele>73.226068</ele>
        <time>2020-08-11T08:01:54.950Z</time>
      </trkpt>
      <trkpt lat="64.4904" lon="11.47258">
        <ele>73.537656</ele>
        <time>2020-08-11T08:02:00.978Z</time>
      </trkpt>
      <trkpt lat="64.49043" lon="11.47236">
        <ele>73.842152</ele>
        <time>2020-08-11T08:02:07.943Z</time>
      </trkpt>
      <trkpt lat="64.49047" lon="11.47216">
        <ele>74.132677</ele>
        <time>2020-08-11T08:02:13.940Z</time>
      </trkpt>
      <trkpt lat="64.49051" lon="11.47193">
        <ele>74.455036</ele>
        <time>2020-08-11T08:02:22.949Z</time>
      </trkpt>
      <trkpt lat="64.49056" lon="11.47172">
        <ele>74.775603</ele>
        <time>2020-08-11T08:02:28.948Z</time>
      </trkpt>
      <trkpt lat="64.49058" lon="11.4715">
        <ele>75.073075</ele>
        <time>2020-08-11T08:02:35.957Z</time>
      </trkpt>
      <trkpt lat="64.4906" lon="11.4713">
        <ele>75.352756</ele>
        <time>2020-08-11T08:02:42.995Z</time>
      </trkpt>
      <trkpt lat="64.49064" lon="11.47107">
        <ele>75.669514</ele>
        <time>2020-08-11T08:02:48.961Z</time>
      </trkpt>
      <trkpt lat="64.49068" lon="11.47085">
        <ele>76.291821</ele>
        <time>2020-08-11T08:02:54.989Z</time>
      </trkpt>
      <trkpt lat="64.49073" lon="11.47067">
        <ele>76.888743</ele>
        <time>2020-08-11T08:03:01.942Z</time>
      </trkpt>
      <trkpt lat="64.49078" lon="11.47048">
        <ele>77.536342</ele>
        <time>2020-08-11T08:03:08.967Z</time>
      </trkpt>
      <trkpt lat="64.49083" lon="11.47026">
        <ele>78.232644</ele>
        <time>2020-08-11T08:03:14.955Z</time>
      </trkpt>
      <trkpt lat="64.49088" lon="11.47009">
        <ele>78.836963</ele>
        <time>2020-08-11T08:03:21.988Z</time>
      </trkpt>
      <trkpt lat="64.49096" lon="11.46993">
        <ele>79.518743</ele>
        <time>2020-08-11T08:03:26.943Z</time>
      </trkpt>
      <trkpt lat="64.49105" lon="11.46982">
        <ele>80.211857</ele>
        <time>2020-08-11T08:03:30.967Z</time>
      </trkpt>
      <trkpt lat="64.49113" lon="11.46968">
        <ele>80.894605</ele>
        <time>2020-08-11T08:03:35.956Z</time>
      </trkpt>
      <trkpt lat="64.49121" lon="11.46951">
        <ele>81.600196</ele>
        <time>2020-08-11T08:03:40.961Z</time>
      </trkpt>
      <trkpt lat="64.49129" lon="11.46938">
        <ele>82.220344</ele>
        <time>2020-08-11T08:03:44.952Z</time>
      </trkpt>
      <trkpt lat="64.4914" lon="11.46934">
        <ele>83.00792</ele>
        <time>2020-08-11T08:03:48.970Z</time>
      </trkpt>
      <trkpt lat="64.4915" lon="11.46932">
        <ele>83.634528</ele>
        <time>2020-08-11T08:03:51.945Z</time>
      </trkpt>
      <trkpt lat="64.49159" lon="11.46933">
        <ele>84.272372</ele>
        <time>2020-08-11T08:03:54.950Z</time>
      </trkpt>
      <trkpt lat="64.49172" lon="11.46934">
        <ele>85.109955</ele>
        <time>2020-08-11T08:03:57.989Z</time>
      </trkpt>
      <trkpt lat="64.49182" lon="11.46934">
        <ele>85.780787</ele>
        <time>2020-08-11T08:03:59.949Z</time>
      </trkpt>
      <trkpt lat="64.49193" lon="11.46935">
        <ele>86.491418</ele>
        <time>2020-08-11T08:04:01.979Z</time>
      </trkpt>
      <trkpt lat="64.49205" lon="11.46935">
        <ele>87.295154</ele>
        <time>2020-08-11T08:04:03.977Z</time>
      </trkpt>
      <trkpt lat="64.49219" lon="11.46937">
        <ele>87.250449</ele>
        <time>2020-08-11T08:04:05.954Z</time>
      </trkpt>
      <trkpt lat="64.49235" lon="11.46939">
        <ele>86.482171</ele>
        <time>2020-08-11T08:04:07.975Z</time>
      </trkpt>
      <trkpt lat="64.49253" lon="11.46939">
        <ele>85.597983</ele>
        <time>2020-08-11T08:04:09.969Z</time>
      </trkpt>
      <trkpt lat="64.49263" lon="11.4694">
        <ele>85.116887</ele>
        <time>2020-08-11T08:04:10.951Z</time>
      </trkpt>
      <trkpt lat="64.49273" lon="11.46941">
        <ele>84.630936</ele>
        <time>2020-08-11T08:04:11.954Z</time>
      </trkpt>
      <trkpt lat="64.49283" lon="11.46942">
        <ele>84.14013</ele>
        <time>2020-08-11T08:04:12.948Z</time>
      </trkpt>
      <trkpt lat="64.49293" lon="11.46942">
        <ele>83.639613</ele>
        <time>2020-08-11T08:04:13.950Z</time>
      </trkpt>
      <trkpt lat="64.49304" lon="11.46943">
        <ele>83.134176</ele>
        <time>2020-08-11T08:04:14.962Z</time>
      </trkpt>
      <trkpt lat="64.49315" lon="11.46944">
        <ele>82.604466</ele>
        <time>2020-08-11T08:04:15.974Z</time>
      </trkpt>
      <trkpt lat="64.49326" lon="11.46945">
        <ele>82.064814</ele>
        <time>2020-08-11T08:04:16.951Z</time>
      </trkpt>
      <trkpt lat="64.49338" lon="11.46946">
        <ele>81.491343</ele>
        <time>2020-08-11T08:04:17.947Z</time>
      </trkpt>
      <trkpt lat="64.49349" lon="11.46947">
        <ele>80.913138</ele>
        <time>2020-08-11T08:04:18.980Z</time>
      </trkpt>
      <trkpt lat="64.49361" lon="11.46948">
        <ele>80.353281</ele>
        <time>2020-08-11T08:04:19.991Z</time>
      </trkpt>
      <trkpt lat="64.49373" lon="11.4695">
        <ele>79.778743</ele>
        <time>2020-08-11T08:04:20.969Z</time>
      </trkpt>
      <trkpt lat="64.49385" lon="11.46952">
        <ele>79.199631</ele>
        <time>2020-08-11T08:04:21.971Z</time>
      </trkpt>
      <trkpt lat="64.49397" lon="11.46954">
        <ele>78.548101</ele>
        <time>2020-08-11T08:04:22.965Z</time>
      </trkpt>
      <trkpt lat="64.49409" lon="11.46955">
        <ele>77.839273</ele>
        <time>2020-08-11T08:04:23.948Z</time>
      </trkpt>
      <trkpt lat="64.49421" lon="11.46957">
        <ele>77.11307</ele>
        <time>2020-08-11T08:04:25.016Z</time>
      </trkpt>
      <trkpt lat="64.49434" lon="11.46958">
        <ele>76.398587</ele>
        <time>2020-08-11T08:04:25.986Z</time>
      </trkpt>
      <trkpt lat="64.49445" lon="11.4696">
        <ele>75.718857</ele>
        <time>2020-08-11T08:04:26.952Z</time>
      </trkpt>
      <trkpt lat="64.49457" lon="11.46962">
        <ele>75.038674</ele>
        <time>2020-08-11T08:04:27.950Z</time>
      </trkpt>
      <trkpt lat="64.49468" lon="11.46963">
        <ele>74.416535</ele>
        <time>2020-08-11T08:04:28.963Z</time>
      </trkpt>
      <trkpt lat="64.49478" lon="11.46965">
        <ele>73.812088</ele>
        <time>2020-08-11T08:04:29.962Z</time>
      </trkpt>
      <trkpt lat="64.49488" lon="11.46966">
        <ele>73.231232</ele>
        <time>2020-08-11T08:04:30.950Z</time>
      </trkpt>
      <trkpt lat="64.49498" lon="11.46967">
        <ele>72.656603</ele>
        <time>2020-08-11T08:04:31.989Z</time>
      </trkpt>
      <trkpt lat="64.49508" lon="11.46968">
        <ele>72.104841</ele>
        <time>2020-08-11T08:04:32.968Z</time>
      </trkpt>
      <trkpt lat="64.49525" lon="11.4697">
        <ele>71.08881</ele>
        <time>2020-08-11T08:04:34.971Z</time>
      </trkpt>
      <trkpt lat="64.49542" lon="11.46972">
        <ele>70.083625</ele>
        <time>2020-08-11T08:04:36.948Z</time>
      </trkpt>
      <trkpt lat="64.49558" lon="11.46974">
        <ele>69.17637</ele>
        <time>2020-08-11T08:04:38.948Z</time>
      </trkpt>
      <trkpt lat="64.49572" lon="11.46977">
        <ele>68.508229</ele>
        <time>2020-08-11T08:04:40.968Z</time>
      </trkpt>
      <trkpt lat="64.49585" lon="11.46978">
        <ele>68.54306</ele>
        <time>2020-08-11T08:04:42.996Z</time>
      </trkpt>
      <trkpt lat="64.49596" lon="11.46979">
        <ele>68.572674</ele>
        <time>2020-08-11T08:04:44.960Z</time>
      </trkpt>
      <trkpt lat="64.49606" lon="11.4698">
        <ele>68.60071</ele>
        <time>2020-08-11T08:04:46.947Z</time>
      </trkpt>
      <trkpt lat="64.49616" lon="11.46982">
        <ele>68.626853</ele>
        <time>2020-08-11T08:04:48.947Z</time>
      </trkpt>
      <trkpt lat="64.49625" lon="11.46984">
        <ele>68.653223</ele>
        <time>2020-08-11T08:04:50.948Z</time>
      </trkpt>
      <trkpt lat="64.49637" lon="11.46986">
        <ele>68.686516</ele>
        <time>2020-08-11T08:04:53.984Z</time>
      </trkpt>
      <trkpt lat="64.49648" lon="11.46987">
        <ele>68.717238</ele>
        <time>2020-08-11T08:04:56.956Z</time>
      </trkpt>
      <trkpt lat="64.49659" lon="11.46988">
        <ele>68.744921</ele>
        <time>2020-08-11T08:04:59.960Z</time>
      </trkpt>
      <trkpt lat="64.49668" lon="11.46989">
        <ele>68.772112</ele>
        <time>2020-08-11T08:05:02.976Z</time>
      </trkpt>
      <trkpt lat="64.49679" lon="11.46989">
        <ele>68.801163</ele>
        <time>2020-08-11T08:05:05.954Z</time>
      </trkpt>
      <trkpt lat="64.49692" lon="11.46991">
        <ele>68.836014</ele>
        <time>2020-08-11T08:05:08.991Z</time>
      </trkpt>
      <trkpt lat="64.49704" lon="11.46993">
        <ele>68.868751</ele>
        <time>2020-08-11T08:05:11.956Z</time>
      </trkpt>
      <trkpt lat="64.49715" lon="11.46996">
        <ele>68.899054</ele>
        <time>2020-08-11T08:05:14.964Z</time>
      </trkpt>
      <trkpt lat="64.49726" lon="11.46998">
        <ele>68.93071</ele>
        <time>2020-08-11T08:05:17.972Z</time>
      </trkpt>
      <trkpt lat="64.49737" lon="11.47">
        <ele>68.961197</ele>
        <time>2020-08-11T08:05:20.971Z</time>
      </trkpt>
      <trkpt lat="64.49748" lon="11.47">
        <ele>68.989974</ele>
        <time>2020-08-11T08:05:23.955Z</time>
      </trkpt>
      <trkpt lat="64.49757" lon="11.47">
        <ele>69.667885</ele>
        <time>2020-08-11T08:05:26.974Z</time>
      </trkpt>
      <trkpt lat="64.49766" lon="11.47001">
        <ele>70.415875</ele>
        <time>2020-08-11T08:05:29.975Z</time>
      </trkpt>
      <trkpt lat="64.49777" lon="11.47002">
        <ele>71.312785</ele>
        <time>2020-08-11T08:05:33.939Z</time>
      </trkpt>
      <trkpt lat="64.49787" lon="11.47003">
        <ele>72.078563</ele>
        <time>2020-08-11T08:05:37.966Z</time>
      </trkpt>
      <trkpt lat="64.49796" lon="11.47005">
        <ele>72.828159</ele>
        <time>2020-08-11T08:05:41.948Z</time>
      </trkpt>
      <trkpt lat="64.49805" lon="11.47007">
        <ele>73.571981</ele>
        <time>2020-08-11T08:05:45.952Z</time>
      </trkpt>
      <trkpt lat="64.49814" lon="11.47008">
        <ele>74.328687</ele>
        <time>2020-08-11T08:05:49.964Z</time>
      </trkpt>
      <trkpt lat="64.49825" lon="11.47008">
        <ele>75.200515</ele>
        <time>2020-08-11T08:05:55.949Z</time>
      </trkpt>
      <trkpt lat="64.49835" lon="11.47007">
        <ele>76.064767</ele>
        <time>2020-08-11T08:06:01.947Z</time>
      </trkpt>
      <trkpt lat="64.49845" lon="11.4701">
        <ele>76.925298</ele>
        <time>2020-08-11T08:06:06.947Z</time>
      </trkpt>
      <trkpt lat="64.49855" lon="11.47012">
        <ele>77.678468</ele>
        <time>2020-08-11T08:06:10.946Z</time>
      </trkpt>
      <trkpt lat="64.49864" lon="11.47014">
        <ele>78.453704</ele>
        <time>2020-08-11T08:06:14.960Z</time>
      </trkpt>
      <trkpt lat="64.49874" lon="11.47017">
        <ele>79.24852</ele>
        <time>2020-08-11T08:06:18.949Z</time>
      </trkpt>
      <trkpt lat="64.49884" lon="11.47022">
        <ele>80.130215</ele>
        <time>2020-08-11T08:06:23.974Z</time>
      </trkpt>
      <trkpt lat="64.49893" lon="11.47029">
        <ele>80.920375</ele>
        <time>2020-08-11T08:06:27.958Z</time>
      </trkpt>
      <trkpt lat="64.49904" lon="11.47036">
        <ele>81.840095</ele>
        <time>2020-08-11T08:06:31.956Z</time>
      </trkpt>
      <trkpt lat="64.49914" lon="11.47044">
        <ele>82.699344</ele>
        <time>2020-08-11T08:06:35.963Z</time>
      </trkpt>
      <trkpt lat="64.49923" lon="11.47049">
        <ele>83.44953</ele>
        <time>2020-08-11T08:06:38.954Z</time>
      </trkpt>
      <trkpt lat="64.49932" lon="11.47054">
        <ele>83.653324</ele>
        <time>2020-08-11T08:06:41.972Z</time>
      </trkpt>
      <trkpt lat="64.49941" lon="11.47061">
        <ele>83.424416</ele>
        <time>2020-08-11T08:06:44.956Z</time>
      </trkpt>
      <trkpt lat="64.49953" lon="11.47068">
        <ele>83.161209</ele>
        <time>2020-08-11T08:06:47.958Z</time>
      </trkpt>
      <trkpt lat="64.49965" lon="11.47074">
        <ele>82.867412</ele>
        <time>2020-08-11T08:06:50.949Z</time>
      </trkpt>
      <trkpt lat="64.49978" lon="11.47077">
        <ele>82.56756</ele>
        <time>2020-08-11T08:06:53.963Z</time>
      </trkpt>
      <trkpt lat="64.49987" lon="11.47079">
        <ele>82.359817</ele>
        <time>2020-08-11T08:06:55.957Z</time>
      </trkpt>
      <trkpt lat="64.49997" lon="11.4708">
        <ele>82.145255</ele>
        <time>2020-08-11T08:06:57.963Z</time>
      </trkpt>
      <trkpt lat="64.50006" lon="11.47081">
        <ele>81.933329</ele>
        <time>2020-08-11T08:06:59.940Z</time>
      </trkpt>
      <trkpt lat="64.50015" lon="11.47081">
        <ele>81.721448</ele>
        <time>2020-08-11T08:07:01.972Z</time>
      </trkpt>
      <trkpt lat="64.50028" lon="11.47079">
        <ele>81.427069</ele>
        <time>2020-08-11T08:07:04.969Z</time>
      </trkpt>
      <trkpt lat="64.50041" lon="11.47077">
        <ele>81.148605</ele>
        <time>2020-08-11T08:07:07.966Z</time>
      </trkpt>
      <trkpt lat="64.50052" lon="11.47075">
        <ele>80.889943</ele>
        <time>2020-08-11T08:07:10.968Z</time>
      </trkpt>
      <trkpt lat="64.50062" lon="11.47072">
        <ele>80.657611</ele>
        <time>2020-08-11T08:07:13.951Z</time>
      </trkpt>
      <trkpt lat="64.50074" lon="11.47069">
        <ele>80.391952</ele>
        <time>2020-08-11T08:07:17.986Z</time>
      </trkpt>
      <trkpt lat="64.50085" lon="11.47067">
        <ele>80.12719</ele>
        <time>2020-08-11T08:07:21.949Z</time>
      </trkpt>
      <trkpt lat="64.50096" lon="11.47066">
        <ele>79.874022</ele>
        <time>2020-08-11T08:07:25.968Z</time>
      </trkpt>
      <trkpt lat="64.50106" lon="11.47066">
        <ele>79.773933</ele>
        <time>2020-08-11T08:07:29.945Z</time>
      </trkpt>
      <trkpt lat="64.50115" lon="11.47065">
        <ele>80.338015</ele>
        <time>2020-08-11T08:07:33.976Z</time>
      </trkpt>
      <trkpt lat="64.50125" lon="11.47065">
        <ele>80.970708</ele>
        <time>2020-08-11T08:07:38.962Z</time>
      </trkpt>
      <trkpt lat="64.50134" lon="11.47066">
        <ele>81.541146</ele>
        <time>2020-08-11T08:07:43.950Z</time>
      </trkpt>
      <trkpt lat="64.50145" lon="11.47069">
        <ele>82.215344</ele>
        <time>2020-08-11T08:07:49.959Z</time>
      </trkpt>
      <trkpt lat="64.50155" lon="11.47073">
        <ele>82.830664</ele>
        <time>2020-08-11T08:07:54.961Z</time>
      </trkpt>
      <trkpt lat="64.50165" lon="11.47076">
        <ele>83.469562</ele>
        <time>2020-08-11T08:07:59.970Z</time>
      </trkpt>
      <trkpt lat="64.50174" lon="11.47081">
        <ele>84.070043</ele>
        <time>2020-08-11T08:08:04.941Z</time>
      </trkpt>
      <trkpt lat="64.50183" lon="11.47087">
        <ele>84.664085</ele>
        <time>2020-08-11T08:08:10.995Z</time>
      </trkpt>
      <trkpt lat="64.50192" lon="11.47093">
        <ele>85.237822</ele>
        <time>2020-08-11T08:08:16.984Z</time>
      </trkpt>
      <trkpt lat="64.50202" lon="11.47101">
        <ele>85.881698</ele>
        <time>2020-08-11T08:08:22.962Z</time>
      </trkpt>
      <trkpt lat="64.5021" lon="11.47111">
        <ele>86.485339</ele>
        <time>2020-08-11T08:08:28.945Z</time>
      </trkpt>
      <trkpt lat="64.50219" lon="11.47121">
        <ele>87.087519</ele>
        <time>2020-08-11T08:08:34.984Z</time>
      </trkpt>
      <trkpt lat="64.50229" lon="11.4713">
        <ele>87.729175</ele>
        <time>2020-08-11T08:08:40.957Z</time>
      </trkpt>
      <trkpt lat="64.50238" lon="11.47141">
        <ele>88.375215</ele>
        <time>2020-08-11T08:08:46.964Z</time>
      </trkpt>
      <trkpt lat="64.50246" lon="11.47152">
        <ele>88.944014</ele>
        <time>2020-08-11T08:08:51.939Z</time>
      </trkpt>
      <trkpt lat="64.50254" lon="11.47162">
        <ele>89.545797</ele>
        <time>2020-08-11T08:08:56.963Z</time>
      </trkpt>
      <trkpt lat="64.50264" lon="11.47174">
        <ele>90.221161</ele>
        <time>2020-08-11T08:09:02.954Z</time>
      </trkpt>
      <trkpt lat="64.50273" lon="11.47184">
        <ele>90.861273</ele>
        <time>2020-08-11T08:09:08.960Z</time>
      </trkpt>
      <trkpt lat="64.50281" lon="11.47198">
        <ele>91.283297</ele>
        <time>2020-08-11T08:09:13.960Z</time>
      </trkpt>
      <trkpt lat="64.5029" lon="11.47211">
        <ele>91.671429</ele>
        <time>2020-08-11T08:09:18.984Z</time>
      </trkpt>
      <trkpt lat="64.50298" lon="11.47227">
        <ele>92.055471</ele>
        <time>2020-08-11T08:09:23.952Z</time>
      </trkpt>
      <trkpt lat="64.50305" lon="11.47245">
        <ele>92.464548</ele>
        <time>2020-08-11T08:09:28.943Z</time>
      </trkpt>
      <trkpt lat="64.50312" lon="11.47262">
        <ele>92.832966</ele>
        <time>2020-08-11T08:09:32.962Z</time>
      </trkpt>
      <trkpt lat="64.50319" lon="11.47276">
        <ele>93.196162</ele>
        <time>2020-08-11T08:09:36.958Z</time>
      </trkpt>
      <trkpt lat="64.50326" lon="11.47293">
        <ele>93.562288</ele>
        <time>2020-08-11T08:09:40.948Z</time>
      </trkpt>
      <trkpt lat="64.50333" lon="11.47313">
        <ele>93.977222</ele>
        <time>2020-08-11T08:09:44.960Z</time>
      </trkpt>
      <trkpt lat="64.50339" lon="11.47329">
        <ele>94.317821</ele>
        <time>2020-08-11T08:09:47.965Z</time>
      </trkpt>
      <trkpt lat="64.50344" lon="11.47347">
        <ele>94.665831</ele>
        <time>2020-08-11T08:09:50.945Z</time>
      </trkpt>
      <trkpt lat="64.50349" lon="11.47365">
        <ele>95.003672</ele>
        <time>2020-08-11T08:09:53.991Z</time>
      </trkpt>
      <trkpt lat="64.50354" lon="11.47383">
        <ele>95.371618</ele>
        <time>2020-08-11T08:09:56.993Z</time>
      </trkpt>
      <trkpt lat="64.50361" lon="11.474">
        <ele>95.735128</ele>
        <time>2020-08-11T08:09:59.942Z</time>
      </trkpt>
      <trkpt lat="64.50367" lon="11.47418">
        <ele>96.099532</ele>
        <time>2020-08-11T08:10:02.958Z</time>
      </trkpt>
      <trkpt lat="64.50372" lon="11.47435">
        <ele>96.447806</ele>
        <time>2020-08-11T08:10:05.959Z</time>
      </trkpt>
      <trkpt lat="64.50377" lon="11.47453">
        <ele>96.798515</ele>
        <time>2020-08-11T08:10:08.956Z</time>
      </trkpt>
      <trkpt lat="64.50382" lon="11.47476">
        <ele>97.203467</ele>
        <time>2020-08-11T08:10:12.982Z</time>
      </trkpt>
      <trkpt lat="64.50387" lon="11.47498">
        <ele>97.598041</ele>
        <time>2020-08-11T08:10:16.949Z</time>
      </trkpt>
      <trkpt lat="64.5039" lon="11.47518">
        <ele>98.257143</ele>
        <time>2020-08-11T08:10:19.951Z</time>
      </trkpt>
      <trkpt lat="64.50395" lon="11.47536">
        <ele>99.059937</ele>
        <time>2020-08-11T08:10:22.951Z</time>
      </trkpt>
      <trkpt lat="64.504" lon="11.47555">
        <ele>99.875499</ele>
        <time>2020-08-11T08:10:25.958Z</time>
      </trkpt>
      <trkpt lat="64.50405" lon="11.47576">
        <ele>100.768373</ele>
        <time>2020-08-11T08:10:28.960Z</time>
      </trkpt>
      <trkpt lat="64.5041" lon="11.47596">
        <ele>101.619549</ele>
        <time>2020-08-11T08:10:31.982Z</time>
      </trkpt>
      <trkpt lat="64.50415" lon="11.47614">
        <ele>102.44855</ele>
        <time>2020-08-11T08:10:34.964Z</time>
      </trkpt>
      <trkpt lat="64.5042" lon="11.47633">
        <ele>103.294751</ele>
        <time>2020-08-11T08:10:37.979Z</time>
      </trkpt>
      <trkpt lat="64.50425" lon="11.47652">
        <ele>104.087717</ele>
        <time>2020-08-11T08:10:40.947Z</time>
      </trkpt>
      <trkpt lat="64.50429" lon="11.47671">
        <ele>104.894634</ele>
        <time>2020-08-11T08:10:44.003Z</time>
      </trkpt>
      <trkpt lat="64.50434" lon="11.47693">
        <ele>105.799366</ele>
        <time>2020-08-11T08:10:46.967Z</time>
      </trkpt>
      <trkpt lat="64.50438" lon="11.47714">
        <ele>106.671179</ele>
        <time>2020-08-11T08:10:49.940Z</time>
      </trkpt>
      <trkpt lat="64.50442" lon="11.47735">
        <ele>107.51094</ele>
        <time>2020-08-11T08:10:52.953Z</time>
      </trkpt>
      <trkpt lat="64.50446" lon="11.47758">
        <ele>108.412658</ele>
        <time>2020-08-11T08:10:55.963Z</time>
      </trkpt>
      <trkpt lat="64.5045" lon="11.47781">
        <ele>109.344595</ele>
        <time>2020-08-11T08:10:58.944Z</time>
      </trkpt>
      <trkpt lat="64.50454" lon="11.47802">
        <ele>110.225311</ele>
        <time>2020-08-11T08:11:01.956Z</time>
      </trkpt>
      <trkpt lat="64.50458" lon="11.47824">
        <ele>111.068827</ele>
        <time>2020-08-11T08:11:04.959Z</time>
      </trkpt>
      <trkpt lat="64.5046" lon="11.47844">
        <ele>111.863721</ele>
        <time>2020-08-11T08:11:07.957Z</time>
      </trkpt>
      <trkpt lat="64.50465" lon="11.47863">
        <ele>112.673596</ele>
        <time>2020-08-11T08:11:11.022Z</time>
      </trkpt>
      <trkpt lat="64.50469" lon="11.47884">
        <ele>113.05582</ele>
        <time>2020-08-11T08:11:13.992Z</time>
      </trkpt>
      <trkpt lat="64.50473" lon="11.47908">
        <ele>112.518463</ele>
        <time>2020-08-11T08:11:16.985Z</time>
      </trkpt>
      <trkpt lat="64.50476" lon="11.4793">
        <ele>112.040891</ele>
        <time>2020-08-11T08:11:19.985Z</time>
      </trkpt>
      <trkpt lat="64.50479" lon="11.47951">
        <ele>111.575858</ele>
        <time>2020-08-11T08:11:22.947Z</time>
      </trkpt>
      <trkpt lat="64.50484" lon="11.47974">
        <ele>111.033287</ele>
        <time>2020-08-11T08:11:26.961Z</time>
      </trkpt>
      <trkpt lat="64.50488" lon="11.47995">
        <ele>110.54806</ele>
        <time>2020-08-11T08:11:30.019Z</time>
      </trkpt>
      <trkpt lat="64.50492" lon="11.48015">
        <ele>110.080253</ele>
        <time>2020-08-11T08:11:32.994Z</time>
      </trkpt>
      <trkpt lat="64.50497" lon="11.48036">
        <ele>109.592281</ele>
        <time>2020-08-11T08:11:35.960Z</time>
      </trkpt>
      <trkpt lat="64.50501" lon="11.48056">
        <ele>109.107129</ele>
        <time>2020-08-11T08:11:38.964Z</time>
      </trkpt>
      <trkpt lat="64.50506" lon="11.48077">
        <ele>108.61646</ele>
        <time>2020-08-11T08:11:41.955Z</time>
      </trkpt>
      <trkpt lat="64.50509" lon="11.48098">
        <ele>108.144247</ele>
        <time>2020-08-11T08:11:44.982Z</time>
      </trkpt>
      <trkpt lat="64.50513" lon="11.48119">
        <ele>107.65939</ele>
        <time>2020-08-11T08:11:47.997Z</time>
      </trkpt>
      <trkpt lat="64.50518" lon="11.48141">
        <ele>107.152961</ele>
        <time>2020-08-11T08:11:50.965Z</time>
      </trkpt>
      <trkpt lat="64.50524" lon="11.48163">
        <ele>106.603903</ele>
        <time>2020-08-11T08:11:53.958Z</time>
      </trkpt>
      <trkpt lat="64.50531" lon="11.48185">
        <ele>106.029994</ele>
        <time>2020-08-11T08:11:56.967Z</time>
      </trkpt>
      <trkpt lat="64.50537" lon="11.48212">
        <ele>105.387556</ele>
        <time>2020-08-11T08:11:59.963Z</time>
      </trkpt>
      <trkpt lat="64.50542" lon="11.48233">
        <ele>104.894311</ele>
        <time>2020-08-11T08:12:01.948Z</time>
      </trkpt>
      <trkpt lat="64.50547" lon="11.48254">
        <ele>104.361701</ele>
        <time>2020-08-11T08:12:03.991Z</time>
      </trkpt>
      <trkpt lat="64.50553" lon="11.48275">
        <ele>103.695455</ele>
        <time>2020-08-11T08:12:06.045Z</time>
      </trkpt>
      <trkpt lat="64.50559" lon="11.48299">
        <ele>102.971054</ele>
        <time>2020-08-11T08:12:07.959Z</time>
      </trkpt>
      <trkpt lat="64.50565" lon="11.48324">
        <ele>102.207034</ele>
        <time>2020-08-11T08:12:09.954Z</time>
      </trkpt>
      <trkpt lat="64.50572" lon="11.48348">
        <ele>101.426365</ele>
        <time>2020-08-11T08:12:11.985Z</time>
      </trkpt>
      <trkpt lat="64.50579" lon="11.48372">
        <ele>100.68787</ele>
        <time>2020-08-11T08:12:13.947Z</time>
      </trkpt>
      <trkpt lat="64.50585" lon="11.48393">
        <ele>100.012739</ele>
        <time>2020-08-11T08:12:15.961Z</time>
      </trkpt>
      <trkpt lat="64.50592" lon="11.48414">
        <ele>99.318995</ele>
        <time>2020-08-11T08:12:17.965Z</time>
      </trkpt>
      <trkpt lat="64.506" lon="11.48434">
        <ele>98.576257</ele>
        <time>2020-08-11T08:12:19.957Z</time>
      </trkpt>
      <trkpt lat="64.50609" lon="11.48453">
        <ele>97.822662</ele>
        <time>2020-08-11T08:12:21.983Z</time>
      </trkpt>
      <trkpt lat="64.50619" lon="11.48471">
        <ele>97.038608</ele>
        <time>2020-08-11T08:12:23.965Z</time>
      </trkpt>
      <trkpt lat="64.5063" lon="11.48489">
        <ele>96.233434</ele>
        <time>2020-08-11T08:12:25.953Z</time>
      </trkpt>
      <trkpt lat="64.5064" lon="11.48507">
        <ele>95.419747</ele>
        <time>2020-08-11T08:12:27.942Z</time>
      </trkpt>
      <trkpt lat="64.50652" lon="11.48525">
        <ele>94.590507</ele>
        <time>2020-08-11T08:12:30.010Z</time>
      </trkpt>
      <trkpt lat="64.50663" lon="11.48543">
        <ele>93.723934</ele>
        <time>2020-08-11T08:12:31.970Z</time>
      </trkpt>
      <trkpt lat="64.50675" lon="11.4856">
        <ele>92.990493</ele>
        <time>2020-08-11T08:12:33.952Z</time>
      </trkpt>
      <trkpt lat="64.50687" lon="11.48577">
        <ele>92.351869</ele>
        <time>2020-08-11T08:12:35.970Z</time>
      </trkpt>
      <trkpt lat="64.50698" lon="11.48595">
        <ele>91.710521</ele>
        <time>2020-08-11T08:12:37.961Z</time>
      </trkpt>
      <trkpt lat="64.5071" lon="11.48613">
        <ele>91.040718</ele>
        <time>2020-08-11T08:12:39.968Z</time>
      </trkpt>
      <trkpt lat="64.50723" lon="11.48632">
        <ele>90.351031</ele>
        <time>2020-08-11T08:12:41.971Z</time>
      </trkpt>
      <trkpt lat="64.50736" lon="11.48654">
        <ele>89.59249</ele>
        <time>2020-08-11T08:12:43.984Z</time>
      </trkpt>
      <trkpt lat="64.5075" lon="11.48677">
        <ele>88.793335</ele>
        <time>2020-08-11T08:12:45.954Z</time>
      </trkpt>
      <trkpt lat="64.50757" lon="11.48689">
        <ele>88.375784</ele>
        <time>2020-08-11T08:12:46.947Z</time>
      </trkpt>
      <trkpt lat="64.50765" lon="11.48701">
        <ele>87.940599</ele>
        <time>2020-08-11T08:12:47.965Z</time>
      </trkpt>
      <trkpt lat="64.50772" lon="11.48713">
        <ele>87.505415</ele>
        <time>2020-08-11T08:12:48.967Z</time>
      </trkpt>
      <trkpt lat="64.5078" lon="11.48725">
        <ele>87.062948</ele>
        <time>2020-08-11T08:12:49.963Z</time>
      </trkpt>
      <trkpt lat="64.50788" lon="11.48737">
        <ele>86.616532</ele>
        <time>2020-08-11T08:12:50.953Z</time>
      </trkpt>
      <trkpt lat="64.50797" lon="11.48748">
        <ele>86.172239</ele>
        <time>2020-08-11T08:12:51.952Z</time>
      </trkpt>
      <trkpt lat="64.50805" lon="11.4876">
        <ele>85.721002</ele>
        <time>2020-08-11T08:12:52.976Z</time>
      </trkpt>
      <trkpt lat="64.50813" lon="11.48771">
        <ele>85.264723</ele>
        <time>2020-08-11T08:12:53.951Z</time>
      </trkpt>
      <trkpt lat="64.50822" lon="11.48781">
        <ele>84.864143</ele>
        <time>2020-08-11T08:12:54.959Z</time>
      </trkpt>
      <trkpt lat="64.50831" lon="11.4879">
        <ele>84.54344</ele>
        <time>2020-08-11T08:12:55.996Z</time>
      </trkpt>
      <trkpt lat="64.50841" lon="11.48796">
        <ele>84.216843</ele>
        <time>2020-08-11T08:12:56.960Z</time>
      </trkpt>
      <trkpt lat="64.50851" lon="11.48799">
        <ele>83.890876</ele>
        <time>2020-08-11T08:12:57.951Z</time>
      </trkpt>
      <trkpt lat="64.50862" lon="11.48801">
        <ele>83.549098</ele>
        <time>2020-08-11T08:12:58.972Z</time>
      </trkpt>
      <trkpt lat="64.50873" lon="11.48799">
        <ele>83.194303</ele>
        <time>2020-08-11T08:12:59.984Z</time>
      </trkpt>
      <trkpt lat="64.50883" lon="11.48797">
        <ele>82.852166</ele>
        <time>2020-08-11T08:13:00.973Z</time>
      </trkpt>
      <trkpt lat="64.50894" lon="11.48795">
        <ele>82.51907</ele>
        <time>2020-08-11T08:13:01.994Z</time>
      </trkpt>
      <trkpt lat="64.50904" lon="11.48792">
        <ele>82.194661</ele>
        <time>2020-08-11T08:13:02.971Z</time>
      </trkpt>
      <trkpt lat="64.50913" lon="11.48789">
        <ele>81.882843</ele>
        <time>2020-08-11T08:13:03.948Z</time>
      </trkpt>
      <trkpt lat="64.50923" lon="11.48786">
        <ele>81.583587</ele>
        <time>2020-08-11T08:13:04.950Z</time>
      </trkpt>
      <trkpt lat="64.5094" lon="11.48781">
        <ele>81.016491</ele>
        <time>2020-08-11T08:13:06.958Z</time>
      </trkpt>
      <trkpt lat="64.50957" lon="11.48776">
        <ele>80.477823</ele>
        <time>2020-08-11T08:13:08.949Z</time>
      </trkpt>
      <trkpt lat="64.50972" lon="11.48771">
        <ele>79.983243</ele>
        <time>2020-08-11T08:13:10.991Z</time>
      </trkpt>
      <trkpt lat="64.50987" lon="11.48765">
        <ele>79.476941</ele>
        <time>2020-08-11T08:13:12.988Z</time>
      </trkpt>
      <trkpt lat="64.51003" lon="11.48758">
        <ele>78.89397</ele>
        <time>2020-08-11T08:13:14.956Z</time>
      </trkpt>
      <trkpt lat="64.51018" lon="11.48751">
        <ele>78.237483</ele>
        <time>2020-08-11T08:13:16.957Z</time>
      </trkpt>
      <trkpt lat="64.51034" lon="11.48743">
        <ele>77.547216</ele>
        <time>2020-08-11T08:13:18.946Z</time>
      </trkpt>
      <trkpt lat="64.51051" lon="11.48736">
        <ele>76.844124</ele>
        <time>2020-08-11T08:13:20.957Z</time>
      </trkpt>
      <trkpt lat="64.51068" lon="11.48727">
        <ele>76.127766</ele>
        <time>2020-08-11T08:13:22.963Z</time>
      </trkpt>
      <trkpt lat="64.51084" lon="11.48716">
        <ele>75.413833</ele>
        <time>2020-08-11T08:13:24.953Z</time>
      </trkpt>
      <trkpt lat="64.511" lon="11.487">
        <ele>74.704001</ele>
        <time>2020-08-11T08:13:27.005Z</time>
      </trkpt>
      <trkpt lat="64.51115" lon="11.4868">
        <ele>73.949635</ele>
        <time>2020-08-11T08:13:28.952Z</time>
      </trkpt>
      <trkpt lat="64.51123" lon="11.48669">
        <ele>73.566303</ele>
        <time>2020-08-11T08:13:29.955Z</time>
      </trkpt>
      <trkpt lat="64.51131" lon="11.48657">
        <ele>73.156916</ele>
        <time>2020-08-11T08:13:30.992Z</time>
      </trkpt>
      <trkpt lat="64.5114" lon="11.48645">
        <ele>72.752037</ele>
        <time>2020-08-11T08:13:31.961Z</time>
      </trkpt>
      <trkpt lat="64.51148" lon="11.48633">
        <ele>72.338298</ele>
        <time>2020-08-11T08:13:32.951Z</time>
      </trkpt>
      <trkpt lat="64.51157" lon="11.48622">
        <ele>71.918102</ele>
        <time>2020-08-11T08:13:33.960Z</time>
      </trkpt>
      <trkpt lat="64.51166" lon="11.48611">
        <ele>71.413011</ele>
        <time>2020-08-11T08:13:34.983Z</time>
      </trkpt>
      <trkpt lat="64.51175" lon="11.486">
        <ele>70.769775</ele>
        <time>2020-08-11T08:13:35.982Z</time>
      </trkpt>
      <trkpt lat="64.51185" lon="11.4859">
        <ele>70.102353</ele>
        <time>2020-08-11T08:13:36.963Z</time>
      </trkpt>
      <trkpt lat="64.51195" lon="11.48579">
        <ele>69.419276</ele>
        <time>2020-08-11T08:13:37.964Z</time>
      </trkpt>
      <trkpt lat="64.51206" lon="11.48568">
        <ele>68.700724</ele>
        <time>2020-08-11T08:13:38.962Z</time>
      </trkpt>
      <trkpt lat="64.51217" lon="11.48556">
        <ele>67.967743</ele>
        <time>2020-08-11T08:13:39.966Z</time>
      </trkpt>
      <trkpt lat="64.51228" lon="11.48544">
        <ele>67.226962</ele>
        <time>2020-08-11T08:13:41.001Z</time>
      </trkpt>
      <trkpt lat="64.51238" lon="11.48531">
        <ele>66.492492</ele>
        <time>2020-08-11T08:13:41.965Z</time>
      </trkpt>
      <trkpt lat="64.51249" lon="11.48518">
        <ele>65.761537</ele>
        <time>2020-08-11T08:13:42.940Z</time>
      </trkpt>
      <trkpt lat="64.5126" lon="11.48505">
        <ele>65.027665</ele>
        <time>2020-08-11T08:13:43.963Z</time>
      </trkpt>
      <trkpt lat="64.51271" lon="11.48493">
        <ele>64.274707</ele>
        <time>2020-08-11T08:13:44.962Z</time>
      </trkpt>
      <trkpt lat="64.51282" lon="11.48484">
        <ele>63.526515</ele>
        <time>2020-08-11T08:13:45.981Z</time>
      </trkpt>
      <trkpt lat="64.51294" lon="11.48476">
        <ele>62.755149</ele>
        <time>2020-08-11T08:13:46.961Z</time>
      </trkpt>
      <trkpt lat="64.51307" lon="11.4847">
        <ele>61.974151</ele>
        <time>2020-08-11T08:13:47.979Z</time>
      </trkpt>
      <trkpt lat="64.51319" lon="11.48466">
        <ele>61.206882</ele>
        <time>2020-08-11T08:13:48.963Z</time>
      </trkpt>
      <trkpt lat="64.51332" lon="11.48465">
        <ele>60.543809</ele>
        <time>2020-08-11T08:13:49.957Z</time>
      </trkpt>
      <trkpt lat="64.51344" lon="11.48467">
        <ele>60.131404</ele>
        <time>2020-08-11T08:13:50.967Z</time>
      </trkpt>
      <trkpt lat="64.51357" lon="11.48471">
        <ele>59.715122</ele>
        <time>2020-08-11T08:13:51.956Z</time>
      </trkpt>
      <trkpt lat="64.51369" lon="11.48479">
        <ele>59.303103</ele>
        <time>2020-08-11T08:13:52.970Z</time>
      </trkpt>
      <trkpt lat="64.5138" lon="11.48488">
        <ele>58.90167</ele>
        <time>2020-08-11T08:13:53.984Z</time>
      </trkpt>
      <trkpt lat="64.51391" lon="11.48499">
        <ele>58.51222</ele>
        <time>2020-08-11T08:13:54.945Z</time>
      </trkpt>
      <trkpt lat="64.51401" lon="11.48512">
        <ele>58.131263</ele>
        <time>2020-08-11T08:13:55.971Z</time>
      </trkpt>
      <trkpt lat="64.5141" lon="11.48527">
        <ele>57.763159</ele>
        <time>2020-08-11T08:13:56.971Z</time>
      </trkpt>
      <trkpt lat="64.51418" lon="11.48543">
        <ele>57.413822</ele>
        <time>2020-08-11T08:13:57.954Z</time>
      </trkpt>
      <trkpt lat="64.51425" lon="11.48559">
        <ele>57.070513</ele>
        <time>2020-08-11T08:13:58.958Z</time>
      </trkpt>
      <trkpt lat="64.51432" lon="11.48576">
        <ele>56.744261</ele>
        <time>2020-08-11T08:13:59.967Z</time>
      </trkpt>
      <trkpt lat="64.51439" lon="11.48592">
        <ele>56.427962</ele>
        <time>2020-08-11T08:14:00.974Z</time>
      </trkpt>
      <trkpt lat="64.51445" lon="11.48608">
        <ele>56.120495</ele>
        <time>2020-08-11T08:14:01.972Z</time>
      </trkpt>
      <trkpt lat="64.51456" lon="11.48638">
        <ele>55.548787</ele>
        <time>2020-08-11T08:14:03.979Z</time>
      </trkpt>
      <trkpt lat="64.51466" lon="11.48666">
        <ele>55.02266</ele>
        <time>2020-08-11T08:14:05.984Z</time>
      </trkpt>
      <trkpt lat="64.51475" lon="11.4869">
        <ele>54.709604</ele>
        <time>2020-08-11T08:14:07.966Z</time>
      </trkpt>
      <trkpt lat="64.51481" lon="11.48709">
        <ele>54.778038</ele>
        <time>2020-08-11T08:14:09.957Z</time>
      </trkpt>
      <trkpt lat="64.51488" lon="11.48725">
        <ele>54.842891</ele>
        <time>2020-08-11T08:14:11.952Z</time>
      </trkpt>
      <trkpt lat="64.51498" lon="11.48741">
        <ele>54.923914</ele>
        <time>2020-08-11T08:14:14.991Z</time>
      </trkpt>
      <trkpt lat="64.51506" lon="11.48757">
        <ele>54.993859</ele>
        <time>2020-08-11T08:14:17.991Z</time>
      </trkpt>
      <trkpt lat="64.51511" lon="11.48775">
        <ele>55.055872</ele>
        <time>2020-08-11T08:14:20.949Z</time>
      </trkpt>
      <trkpt lat="64.51517" lon="11.48793">
        <ele>55.116708</ele>
        <time>2020-08-11T08:14:23.960Z</time>
      </trkpt>
      <trkpt lat="64.51522" lon="11.48811">
        <ele>55.179837</ele>
        <time>2020-08-11T08:14:26.969Z</time>
      </trkpt>
      <trkpt lat="64.5153" lon="11.48828">
        <ele>55.251835</ele>
        <time>2020-08-11T08:14:29.944Z</time>
      </trkpt>
      <trkpt lat="64.51539" lon="11.48846">
        <ele>55.32824</ele>
        <time>2020-08-11T08:14:32.959Z</time>
      </trkpt>
      <trkpt lat="64.51549" lon="11.48865">
        <ele>55.413532</ele>
        <time>2020-08-11T08:14:35.964Z</time>
      </trkpt>
      <trkpt lat="64.51557" lon="11.48879">
        <ele>55.478374</ele>
        <time>2020-08-11T08:14:37.960Z</time>
      </trkpt>
      <trkpt lat="64.51565" lon="11.48894">
        <ele>55.54617</ele>
        <time>2020-08-11T08:14:39.949Z</time>
      </trkpt>
      <trkpt lat="64.51573" lon="11.48912">
        <ele>55.623475</ele>
        <time>2020-08-11T08:14:41.957Z</time>
      </trkpt>
      <trkpt lat="64.51582" lon="11.48935">
        <ele>55.709751</ele>
        <time>2020-08-11T08:14:43.960Z</time>
      </trkpt>
      <trkpt lat="64.51591" lon="11.48964">
        <ele>55.80909</ele>
        <time>2020-08-11T08:14:45.978Z</time>
      </trkpt>
      <trkpt lat="64.51599" lon="11.48996">
        <ele>55.531471</ele>
        <time>2020-08-11T08:14:47.963Z</time>
      </trkpt>
      <trkpt lat="64.51605" lon="11.49034">
        <ele>54.553336</ele>
        <time>2020-08-11T08:14:49.987Z</time>
      </trkpt>
      <trkpt lat="64.51608" lon="11.49054">
        <ele>54.043858</ele>
        <time>2020-08-11T08:14:50.998Z</time>
      </trkpt>
      <trkpt lat="64.51611" lon="11.49074">
        <ele>53.522066</ele>
        <time>2020-08-11T08:14:51.955Z</time>
      </trkpt>
      <trkpt lat="64.51613" lon="11.49095">
        <ele>52.993017</ele>
        <time>2020-08-11T08:14:52.957Z</time>
      </trkpt>
      <trkpt lat="64.51615" lon="11.49117">
        <ele>52.461921</ele>
        <time>2020-08-11T08:14:53.968Z</time>
      </trkpt>
      <trkpt lat="64.51617" lon="11.49138">
        <ele>51.936708</ele>
        <time>2020-08-11T08:14:55.015Z</time>
      </trkpt>
      <trkpt lat="64.51619" lon="11.49159">
        <ele>51.419886</ele>
        <time>2020-08-11T08:14:55.962Z</time>
      </trkpt>
      <trkpt lat="64.51622" lon="11.49198">
        <ele>50.440563</ele>
        <time>2020-08-11T08:14:57.960Z</time>
      </trkpt>
      <trkpt lat="64.51625" lon="11.49233">
        <ele>49.570773</ele>
        <time>2020-08-11T08:14:59.957Z</time>
      </trkpt>
      <trkpt lat="64.51626" lon="11.49265">
        <ele>48.802251</ele>
        <time>2020-08-11T08:15:01.958Z</time>
      </trkpt>
      <trkpt lat="64.51624" lon="11.4929">
        <ele>48.177302</ele>
        <time>2020-08-11T08:15:03.958Z</time>
      </trkpt>
      <trkpt lat="64.51623" lon="11.49313">
        <ele>47.605491</ele>
        <time>2020-08-11T08:15:05.963Z</time>
      </trkpt>
      <trkpt lat="64.51625" lon="11.49336">
        <ele>47.032781</ele>
        <time>2020-08-11T08:15:07.955Z</time>
      </trkpt>
      <trkpt lat="64.51628" lon="11.49362">
        <ele>46.378172</ele>
        <time>2020-08-11T08:15:09.966Z</time>
      </trkpt>
      <trkpt lat="64.51631" lon="11.49389">
        <ele>45.720065</ele>
        <time>2020-08-11T08:15:11.955Z</time>
      </trkpt>
      <trkpt lat="64.51636" lon="11.49414">
        <ele>46.090223</ele>
        <time>2020-08-11T08:15:13.941Z</time>
      </trkpt>
      <trkpt lat="64.5164" lon="11.4944">
        <ele>46.455216</ele>
        <time>2020-08-11T08:15:15.969Z</time>
      </trkpt>
      <trkpt lat="64.51644" lon="11.49462">
        <ele>46.784704</ele>
        <time>2020-08-11T08:15:17.985Z</time>
      </trkpt>
      <trkpt lat="64.51649" lon="11.49483">
        <ele>47.095128</ele>
        <time>2020-08-11T08:15:19.965Z</time>
      </trkpt>
      <trkpt lat="64.51655" lon="11.49509">
        <ele>47.487199</ele>
        <time>2020-08-11T08:15:22.981Z</time>
      </trkpt>
      <trkpt lat="64.51658" lon="11.49532">
        <ele>47.818397</ele>
        <time>2020-08-11T08:15:25.983Z</time>
      </trkpt>
      <trkpt lat="64.51661" lon="11.49556">
        <ele>48.143639</ele>
        <time>2020-08-11T08:15:28.956Z</time>
      </trkpt>
      <trkpt lat="64.51664" lon="11.49576">
        <ele>48.426756</ele>
        <time>2020-08-11T08:15:31.944Z</time>
      </trkpt>
      <trkpt lat="64.51667" lon="11.49602">
        <ele>48.776773</ele>
        <time>2020-08-11T08:15:35.957Z</time>
      </trkpt>
      <trkpt lat="64.51667" lon="11.49624">
        <ele>49.070517</ele>
        <time>2020-08-11T08:15:39.958Z</time>
      </trkpt>
      <trkpt lat="64.51668" lon="11.4965">
        <ele>49.422167</ele>
        <time>2020-08-11T08:15:44.950Z</time>
      </trkpt>
      <trkpt lat="64.51667" lon="11.49673">
        <ele>49.731429</ele>
        <time>2020-08-11T08:15:48.994Z</time>
      </trkpt>
      <trkpt lat="64.51667" lon="11.49694">
        <ele>50.018515</ele>
        <time>2020-08-11T08:15:53.972Z</time>
      </trkpt>
      <trkpt lat="64.51666" lon="11.49719">
        <ele>50.351686</ele>
        <time>2020-08-11T08:15:59.951Z</time>
      </trkpt>
      <trkpt lat="64.51665" lon="11.49743">
        <ele>50.675558</ele>
        <time>2020-08-11T08:16:05.947Z</time>
      </trkpt>
      <trkpt lat="64.51662" lon="11.49767">
        <ele>51.006427</ele>
        <time>2020-08-11T08:16:11.975Z</time>
      </trkpt>
      <trkpt lat="64.51659" lon="11.4979">
        <ele>51.314749</ele>
        <time>2020-08-11T08:16:17.958Z</time>
      </trkpt>
      <trkpt lat="64.51658" lon="11.49814">
        <ele>51.541844</ele>
        <time>2020-08-11T08:16:22.960Z</time>
      </trkpt>
      <trkpt lat="64.51656" lon="11.4984">
        <ele>51.783227</ele>
        <time>2020-08-11T08:16:27.951Z</time>
      </trkpt>
      <trkpt lat="64.51655" lon="11.49865">
        <ele>52.017809</ele>
        <time>2020-08-11T08:16:32.960Z</time>
      </trkpt>
      <trkpt lat="64.51653" lon="11.49889">
        <ele>52.247997</ele>
        <time>2020-08-11T08:16:37.993Z</time>
      </trkpt>
      <trkpt lat="64.5165" lon="11.49911">
        <ele>52.467141</ele>
        <time>2020-08-11T08:16:42.984Z</time>
      </trkpt>
      <trkpt lat="64.51647" lon="11.49935">
        <ele>52.700674</ele>
        <time>2020-08-11T08:16:47.952Z</time>
      </trkpt>
      <trkpt lat="64.51644" lon="11.49959">
        <ele>52.933596</ele>
        <time>2020-08-11T08:16:52.955Z</time>
      </trkpt>
      <trkpt lat="64.51641" lon="11.4998">
        <ele>53.137455</ele>
        <time>2020-08-11T08:16:56.955Z</time>
      </trkpt>
      <trkpt lat="64.51637" lon="11.50003">
        <ele>53.366955</ele>
        <time>2020-08-11T08:17:00.958Z</time>
      </trkpt>
      <trkpt lat="64.51633" lon="11.50027">
        <ele>53.610865</ele>
        <time>2020-08-11T08:17:04.947Z</time>
      </trkpt>
      <trkpt lat="64.51629" lon="11.50047">
        <ele>53.816548</ele>
        <time>2020-08-11T08:17:07.951Z</time>
      </trkpt>
      <trkpt lat="64.51624" lon="11.50069">
        <ele>54.0463</ele>
        <time>2020-08-11T08:17:10.967Z</time>
      </trkpt>
      <trkpt lat="64.51618" lon="11.50095">
        <ele>54.321902</ele>
        <time>2020-08-11T08:17:13.952Z</time>
      </trkpt>
      <trkpt lat="64.51612" lon="11.50115">
        <ele>54.542116</ele>
        <time>2020-08-11T08:17:15.985Z</time>
      </trkpt>
      <trkpt lat="64.51606" lon="11.50139">
        <ele>54.808607</ele>
        <time>2020-08-11T08:17:17.952Z</time>
      </trkpt>
      <trkpt lat="64.51599" lon="11.50166">
        <ele>55.107722</ele>
        <time>2020-08-11T08:17:19.970Z</time>
      </trkpt>
      <trkpt lat="64.51592" lon="11.50195">
        <ele>54.798415</ele>
        <time>2020-08-11T08:17:21.962Z</time>
      </trkpt>
      <trkpt lat="64.51584" lon="11.50223">
        <ele>54.235172</ele>
        <time>2020-08-11T08:17:23.964Z</time>
      </trkpt>
      <trkpt lat="64.51576" lon="11.50251">
        <ele>53.672547</ele>
        <time>2020-08-11T08:17:25.947Z</time>
      </trkpt>
      <trkpt lat="64.5157" lon="11.50273">
        <ele>53.229138</ele>
        <time>2020-08-11T08:17:27.946Z</time>
      </trkpt>
      <trkpt lat="64.51565" lon="11.50292">
        <ele>52.859743</ele>
        <time>2020-08-11T08:17:29.973Z</time>
      </trkpt>
      <trkpt lat="64.5156" lon="11.5031">
        <ele>52.50023</ele>
        <time>2020-08-11T08:17:31.967Z</time>
      </trkpt>
      <trkpt lat="64.51554" lon="11.50328">
        <ele>52.122905</ele>
        <time>2020-08-11T08:17:33.949Z</time>
      </trkpt>
      <trkpt lat="64.51549" lon="11.50348">
        <ele>51.720361</ele>
        <time>2020-08-11T08:17:35.988Z</time>
      </trkpt>
      <trkpt lat="64.51542" lon="11.50369">
        <ele>51.295196</ele>
        <time>2020-08-11T08:17:37.948Z</time>
      </trkpt>
      <trkpt lat="64.51535" lon="11.5039">
        <ele>50.845933</ele>
        <time>2020-08-11T08:17:39.964Z</time>
      </trkpt>
      <trkpt lat="64.51528" lon="11.50411">
        <ele>50.391832</ele>
        <time>2020-08-11T08:17:41.968Z</time>
      </trkpt>
      <trkpt lat="64.5152" lon="11.50429">
        <ele>49.94695</ele>
        <time>2020-08-11T08:17:43.947Z</time>
      </trkpt>
      <trkpt lat="64.51511" lon="11.50445">
        <ele>49.523395</ele>
        <time>2020-08-11T08:17:45.980Z</time>
      </trkpt>
      <trkpt lat="64.51503" lon="11.50459">
        <ele>49.121251</ele>
        <time>2020-08-11T08:17:47.978Z</time>
      </trkpt>
      <trkpt lat="64.51495" lon="11.50472">
        <ele>48.737357</ele>
        <time>2020-08-11T08:17:49.962Z</time>
      </trkpt>
      <trkpt lat="64.51486" lon="11.50486">
        <ele>48.340967</ele>
        <time>2020-08-11T08:17:51.960Z</time>
      </trkpt>
      <trkpt lat="64.51478" lon="11.50498">
        <ele>48.337825</ele>
        <time>2020-08-11T08:17:53.983Z</time>
      </trkpt>
      <trkpt lat="64.5147" lon="11.5051">
        <ele>48.59502</ele>
        <time>2020-08-11T08:17:55.946Z</time>
      </trkpt>
      <trkpt lat="64.51459" lon="11.50527">
        <ele>48.953421</ele>
        <time>2020-08-11T08:17:58.956Z</time>
      </trkpt>
      <trkpt lat="64.51449" lon="11.50546">
        <ele>49.303927</ele>
        <time>2020-08-11T08:18:01.977Z</time>
      </trkpt>
      <trkpt lat="64.51439" lon="11.50565">
        <ele>49.664658</ele>
        <time>2020-08-11T08:18:04.957Z</time>
      </trkpt>
      <trkpt lat="64.51429" lon="11.50584">
        <ele>50.019249</ele>
        <time>2020-08-11T08:18:07.955Z</time>
      </trkpt>
      <trkpt lat="64.5142" lon="11.50604">
        <ele>50.349476</ele>
        <time>2020-08-11T08:18:10.948Z</time>
      </trkpt>
      <trkpt lat="64.51413" lon="11.50624">
        <ele>50.66794</ele>
        <time>2020-08-11T08:18:13.955Z</time>
      </trkpt>
      <trkpt lat="64.51406" lon="11.50646">
        <ele>50.99273</ele>
        <time>2020-08-11T08:18:16.964Z</time>
      </trkpt>
      <trkpt lat="64.51399" lon="11.50669">
        <ele>51.315055</ele>
        <time>2020-08-11T08:18:19.954Z</time>
      </trkpt>
      <trkpt lat="64.51392" lon="11.50689">
        <ele>51.625927</ele>
        <time>2020-08-11T08:18:22.955Z</time>
      </trkpt>
      <trkpt lat="64.51386" lon="11.5071">
        <ele>51.926433</ele>
        <time>2020-08-11T08:18:25.970Z</time>
      </trkpt>
      <trkpt lat="64.51379" lon="11.50732">
        <ele>52.248657</ele>
        <time>2020-08-11T08:18:28.947Z</time>
      </trkpt>
      <trkpt lat="64.51372" lon="11.50754">
        <ele>52.569278</ele>
        <time>2020-08-11T08:18:31.952Z</time>
      </trkpt>
      <trkpt lat="64.51366" lon="11.50775">
        <ele>52.870799</ele>
        <time>2020-08-11T08:18:34.970Z</time>
      </trkpt>
      <trkpt lat="64.5136" lon="11.50794">
        <ele>53.083156</ele>
        <time>2020-08-11T08:18:37.960Z</time>
      </trkpt>
      <trkpt lat="64.51355" lon="11.50812">
        <ele>52.823011</ele>
        <time>2020-08-11T08:18:40.977Z</time>
      </trkpt>
      <trkpt lat="64.51349" lon="11.50832">
        <ele>52.537204</ele>
        <time>2020-08-11T08:18:43.981Z</time>
      </trkpt>
      <trkpt lat="64.51343" lon="11.50853">
        <ele>52.232157</ele>
        <time>2020-08-11T08:18:46.941Z</time>
      </trkpt>
      <trkpt lat="64.51337" lon="11.50877">
        <ele>51.899039</ele>
        <time>2020-08-11T08:18:49.958Z</time>
      </trkpt>
      <trkpt lat="64.5133" lon="11.509">
        <ele>51.568417</ele>
        <time>2020-08-11T08:18:52.996Z</time>
      </trkpt>
      <trkpt lat="64.51324" lon="11.50925">
        <ele>51.216689</ele>
        <time>2020-08-11T08:18:55.961Z</time>
      </trkpt>
      <trkpt lat="64.51317" lon="11.50948">
        <ele>50.885591</ele>
        <time>2020-08-11T08:18:58.980Z</time>
      </trkpt>
      <trkpt lat="64.51312" lon="11.50974">
        <ele>50.533301</ele>
        <time>2020-08-11T08:19:01.972Z</time>
      </trkpt>
      <trkpt lat="64.51308" lon="11.50995">
        <ele>50.266864</ele>
        <time>2020-08-11T08:19:03.979Z</time>
      </trkpt>
      <trkpt lat="64.51305" lon="11.51016">
        <ele>49.998414</ele>
        <time>2020-08-11T08:19:05.962Z</time>
      </trkpt>
      <trkpt lat="64.51302" lon="11.51038">
        <ele>49.724905</ele>
        <time>2020-08-11T08:19:07.958Z</time>
      </trkpt>
      <trkpt lat="64.51301" lon="11.5106">
        <ele>49.454169</ele>
        <time>2020-08-11T08:19:09.974Z</time>
      </trkpt>
      <trkpt lat="64.513" lon="11.51084">
        <ele>49.167993</ele>
        <time>2020-08-11T08:19:12.003Z</time>
      </trkpt>
      <trkpt lat="64.51299" lon="11.51107">
        <ele>48.894541</ele>
        <time>2020-08-11T08:19:13.960Z</time>
      </trkpt>
      <trkpt lat="64.51299" lon="11.51128">
        <ele>48.638212</ele>
        <time>2020-08-11T08:19:15.956Z</time>
      </trkpt>
      <trkpt lat="64.513" lon="11.51157">
        <ele>48.289248</ele>
        <time>2020-08-11T08:19:18.982Z</time>
      </trkpt>
      <trkpt lat="64.51302" lon="11.51185">
        <ele>48.003291</ele>
        <time>2020-08-11T08:19:21.971Z</time>
      </trkpt>
      <trkpt lat="64.51305" lon="11.51209">
        <ele>47.796383</ele>
        <time>2020-08-11T08:19:24.951Z</time>
      </trkpt>
      <trkpt lat="64.51308" lon="11.51237">
        <ele>47.56272</ele>
        <time>2020-08-11T08:19:27.966Z</time>
      </trkpt>
      <trkpt lat="64.51311" lon="11.51257">
        <ele>47.390939</ele>
        <time>2020-08-11T08:19:29.989Z</time>
      </trkpt>
      <trkpt lat="64.51315" lon="11.51287">
        <ele>47.135068</ele>
        <time>2020-08-11T08:19:32.948Z</time>
      </trkpt>
      <trkpt lat="64.51318" lon="11.51307">
        <ele>46.960782</ele>
        <time>2020-08-11T08:19:34.969Z</time>
      </trkpt>
      <trkpt lat="64.51323" lon="11.51335">
        <ele>46.706668</ele>
        <time>2020-08-11T08:19:37.976Z</time>
      </trkpt>
      <trkpt lat="64.51327" lon="11.51355">
        <ele>46.529959</ele>
        <time>2020-08-11T08:19:39.990Z</time>
      </trkpt>
      <trkpt lat="64.5133" lon="11.51376">
        <ele>46.351672</ele>
        <time>2020-08-11T08:19:41.988Z</time>
      </trkpt>
      <trkpt lat="64.51334" lon="11.51397">
        <ele>46.1643</ele>
        <time>2020-08-11T08:19:43.952Z</time>
      </trkpt>
      <trkpt lat="64.51337" lon="11.51418">
        <ele>45.980108</ele>
        <time>2020-08-11T08:19:45.970Z</time>
      </trkpt>
      <trkpt lat="64.51341" lon="11.51437">
        <ele>45.804115</ele>
        <time>2020-08-11T08:19:47.978Z</time>
      </trkpt>
      <trkpt lat="64.51345" lon="11.51457">
        <ele>45.62132</ele>
        <time>2020-08-11T08:19:49.962Z</time>
      </trkpt>
      <trkpt lat="64.5135" lon="11.51477">
        <ele>45.436504</ele>
        <time>2020-08-11T08:19:51.971Z</time>
      </trkpt>
      <trkpt lat="64.51355" lon="11.51495">
        <ele>45.26356</ele>
        <time>2020-08-11T08:19:53.973Z</time>
      </trkpt>
      <trkpt lat="64.51364" lon="11.51519">
        <ele>45.009726</ele>
        <time>2020-08-11T08:19:56.949Z</time>
      </trkpt>
      <trkpt lat="64.51373" lon="11.51539">
        <ele>44.763706</ele>
        <time>2020-08-11T08:19:59.962Z</time>
      </trkpt>
      <trkpt lat="64.51382" lon="11.51557">
        <ele>44.726822</ele>
        <time>2020-08-11T08:20:02.969Z</time>
      </trkpt>
      <trkpt lat="64.51392" lon="11.51574">
        <ele>44.792273</ele>
        <time>2020-08-11T08:20:05.962Z</time>
      </trkpt>
      <trkpt lat="64.51401" lon="11.51594">
        <ele>44.858872</ele>
        <time>2020-08-11T08:20:08.954Z</time>
      </trkpt>
      <trkpt lat="64.51408" lon="11.5162">
        <ele>44.928722</ele>
        <time>2020-08-11T08:20:11.950Z</time>
      </trkpt>
      <trkpt lat="64.51415" lon="11.51647">
        <ele>44.999113</ele>
        <time>2020-08-11T08:20:14.952Z</time>
      </trkpt>
      <trkpt lat="64.5142" lon="11.51674">
        <ele>45.06806</ele>
        <time>2020-08-11T08:20:17.961Z</time>
      </trkpt>
      <trkpt lat="64.51425" lon="11.51701">
        <ele>45.135513</ele>
        <time>2020-08-11T08:20:20.984Z</time>
      </trkpt>
      <trkpt lat="64.51429" lon="11.51728">
        <ele>45.201047</ele>
        <time>2020-08-11T08:20:23.965Z</time>
      </trkpt>
      <trkpt lat="64.51434" lon="11.51753">
        <ele>45.264689</ele>
        <time>2020-08-11T08:20:26.947Z</time>
      </trkpt>
      <trkpt lat="64.51439" lon="11.51777">
        <ele>45.32497</ele>
        <time>2020-08-11T08:20:29.957Z</time>
      </trkpt>
      <trkpt lat="64.51444" lon="11.51802">
        <ele>45.388422</ele>
        <time>2020-08-11T08:20:32.946Z</time>
      </trkpt>
      <trkpt lat="64.51451" lon="11.51827">
        <ele>45.455659</ele>
        <time>2020-08-11T08:20:35.951Z</time>
      </trkpt>
      <trkpt lat="64.51457" lon="11.5185">
        <ele>45.5186</ele>
        <time>2020-08-11T08:20:38.951Z</time>
      </trkpt>
      <trkpt lat="64.51463" lon="11.5187">
        <ele>45.573035</ele>
        <time>2020-08-11T08:20:41.986Z</time>
      </trkpt>
      <trkpt lat="64.51469" lon="11.51892">
        <ele>45.63326</ele>
        <time>2020-08-11T08:20:44.957Z</time>
      </trkpt>
      <trkpt lat="64.51475" lon="11.51909">
        <ele>45.628859</ele>
        <time>2020-08-11T08:20:47.006Z</time>
      </trkpt>
      <trkpt lat="64.51481" lon="11.51925">
        <ele>45.608516</ele>
        <time>2020-08-11T08:20:48.961Z</time>
      </trkpt>
      <trkpt lat="64.51489" lon="11.5194">
        <ele>45.588116</ele>
        <time>2020-08-11T08:20:50.948Z</time>
      </trkpt>
      <trkpt lat="64.51499" lon="11.51959">
        <ele>45.561452</ele>
        <time>2020-08-11T08:20:53.979Z</time>
      </trkpt>
      <trkpt lat="64.51507" lon="11.5197">
        <ele>45.541456</ele>
        <time>2020-08-11T08:20:55.953Z</time>
      </trkpt>
      <trkpt lat="64.51518" lon="11.51977">
        <ele>45.517785</ele>
        <time>2020-08-11T08:20:57.985Z</time>
      </trkpt>
      <trkpt lat="64.5153" lon="11.51981">
        <ele>45.493773</ele>
        <time>2020-08-11T08:21:00.010Z</time>
      </trkpt>
      <trkpt lat="64.5154" lon="11.51981">
        <ele>45.471627</ele>
        <time>2020-08-11T08:21:01.953Z</time>
      </trkpt>
      <trkpt lat="64.5155" lon="11.51983">
        <ele>45.452336</ele>
        <time>2020-08-11T08:21:03.984Z</time>
      </trkpt>
      <trkpt lat="64.51559" lon="11.51985">
        <ele>45.432366</ele>
        <time>2020-08-11T08:21:05.948Z</time>
      </trkpt>
      <trkpt lat="64.51572" lon="11.51989">
        <ele>45.405459</ele>
        <time>2020-08-11T08:21:08.996Z</time>
      </trkpt>
      <trkpt lat="64.51585" lon="11.51995">
        <ele>45.378347</ele>
        <time>2020-08-11T08:21:11.971Z</time>
      </trkpt>
      <trkpt lat="64.51594" lon="11.52003">
        <ele>45.357948</ele>
        <time>2020-08-11T08:21:13.985Z</time>
      </trkpt>
      <trkpt lat="64.51603" lon="11.52013">
        <ele>45.337457</ele>
        <time>2020-08-11T08:21:15.978Z</time>
      </trkpt>
      <trkpt lat="64.51612" lon="11.52022">
        <ele>45.318087</ele>
        <time>2020-08-11T08:21:17.994Z</time>
      </trkpt>
      <trkpt lat="64.51622" lon="11.52038">
        <ele>45.2923</ele>
        <time>2020-08-11T08:21:20.949Z</time>
      </trkpt>
      <trkpt lat="64.51632" lon="11.52057">
        <ele>45.313649</ele>
        <time>2020-08-11T08:21:23.975Z</time>
      </trkpt>
      <trkpt lat="64.51638" lon="11.52071">
        <ele>45.476018</ele>
        <time>2020-08-11T08:21:25.948Z</time>
      </trkpt>
      <trkpt lat="64.51647" lon="11.52094">
        <ele>45.710346</ele>
        <time>2020-08-11T08:21:28.985Z</time>
      </trkpt>
      <trkpt lat="64.51657" lon="11.52117">
        <ele>45.950903</ele>
        <time>2020-08-11T08:21:31.970Z</time>
      </trkpt>
      <trkpt lat="64.51663" lon="11.52133">
        <ele>46.11717</ele>
        <time>2020-08-11T08:21:33.975Z</time>
      </trkpt>
      <trkpt lat="64.51668" lon="11.5215">
        <ele>46.280793</ele>
        <time>2020-08-11T08:21:35.955Z</time>
      </trkpt>
      <trkpt lat="64.51676" lon="11.52172">
        <ele>46.497472</ele>
        <time>2020-08-11T08:21:38.967Z</time>
      </trkpt>
      <trkpt lat="64.51684" lon="11.5219">
        <ele>46.691993</ele>
        <time>2020-08-11T08:21:41.958Z</time>
      </trkpt>
      <trkpt lat="64.51691" lon="11.52208">
        <ele>46.873336</ele>
        <time>2020-08-11T08:21:44.944Z</time>
      </trkpt>
      <trkpt lat="64.51697" lon="11.52224">
        <ele>47.046721</ele>
        <time>2020-08-11T08:21:47.954Z</time>
      </trkpt>
      <trkpt lat="64.51705" lon="11.52241">
        <ele>47.231356</ele>
        <time>2020-08-11T08:21:51.965Z</time>
      </trkpt>
      <trkpt lat="64.51711" lon="11.52256">
        <ele>47.392098</ele>
        <time>2020-08-11T08:21:56.012Z</time>
      </trkpt>
      <trkpt lat="64.51718" lon="11.52275">
        <ele>47.585013</ele>
        <time>2020-08-11T08:22:00.982Z</time>
      </trkpt>
      <trkpt lat="64.51724" lon="11.52294">
        <ele>47.760382</ele>
        <time>2020-08-11T08:22:06.004Z</time>
      </trkpt>
      <trkpt lat="64.51729" lon="11.52314">
        <ele>47.942903</ele>
        <time>2020-08-11T08:22:10.955Z</time>
      </trkpt>
      <trkpt lat="64.51734" lon="11.52334">
        <ele>48.109145</ele>
        <time>2020-08-11T08:22:14.947Z</time>
      </trkpt>
      <trkpt lat="64.51738" lon="11.52355">
        <ele>48.28465</ele>
        <time>2020-08-11T08:22:18.971Z</time>
      </trkpt>
      <trkpt lat="64.5174" lon="11.52376">
        <ele>48.455377</ele>
        <time>2020-08-11T08:22:22.949Z</time>
      </trkpt>
      <trkpt lat="64.51742" lon="11.52397">
        <ele>48.63322</ele>
        <time>2020-08-11T08:22:26.963Z</time>
      </trkpt>
      <trkpt lat="64.51744" lon="11.52418">
        <ele>48.816893</ele>
        <time>2020-08-11T08:22:30.985Z</time>
      </trkpt>
      <trkpt lat="64.51746" lon="11.52442">
        <ele>49.018902</ele>
        <time>2020-08-11T08:22:34.962Z</time>
      </trkpt>
      <trkpt lat="64.51747" lon="11.5247">
        <ele>49.259545</ele>
        <time>2020-08-11T08:22:38.949Z</time>
      </trkpt>
      <trkpt lat="64.51748" lon="11.52501">
        <ele>49.519459</ele>
        <time>2020-08-11T08:22:41.958Z</time>
      </trkpt>
      <trkpt lat="64.51747" lon="11.52525">
        <ele>49.724412</ele>
        <time>2020-08-11T08:22:43.976Z</time>
      </trkpt>
      <trkpt lat="64.51747" lon="11.52551">
        <ele>49.94641</ele>
        <time>2020-08-11T08:22:45.976Z</time>
      </trkpt>
      <trkpt lat="64.51746" lon="11.52578">
        <ele>50.174633</ele>
        <time>2020-08-11T08:22:47.973Z</time>
      </trkpt>
      <trkpt lat="64.51745" lon="11.52606">
        <ele>50.407204</ele>
        <time>2020-08-11T08:22:49.965Z</time>
      </trkpt>
      <trkpt lat="64.51744" lon="11.52632">
        <ele>50.628698</ele>
        <time>2020-08-11T08:22:51.988Z</time>
      </trkpt>
      <trkpt lat="64.51744" lon="11.52657">
        <ele>50.839122</ele>
        <time>2020-08-11T08:22:53.957Z</time>
      </trkpt>
      <trkpt lat="64.51743" lon="11.52681">
        <ele>51.039593</ele>
        <time>2020-08-11T08:22:56.009Z</time>
      </trkpt>
      <trkpt lat="64.51742" lon="11.52702">
        <ele>51.22363</ele>
        <time>2020-08-11T08:22:57.958Z</time>
      </trkpt>
      <trkpt lat="64.51741" lon="11.52724">
        <ele>51.404113</ele>
        <time>2020-08-11T08:22:59.965Z</time>
      </trkpt>
      <trkpt lat="64.51739" lon="11.52746">
        <ele>51.591434</ele>
        <time>2020-08-11T08:23:01.955Z</time>
      </trkpt>
      <trkpt lat="64.51737" lon="11.52768">
        <ele>51.783964</ele>
        <time>2020-08-11T08:23:03.977Z</time>
      </trkpt>
      <trkpt lat="64.51735" lon="11.52791">
        <ele>51.985948</ele>
        <time>2020-08-11T08:23:05.965Z</time>
      </trkpt>
      <trkpt lat="64.51733" lon="11.52815">
        <ele>52.098376</ele>
        <time>2020-08-11T08:23:07.981Z</time>
      </trkpt>
      <trkpt lat="64.51731" lon="11.52839">
        <ele>52.209414</ele>
        <time>2020-08-11T08:23:09.969Z</time>
      </trkpt>
      <trkpt lat="64.51728" lon="11.52862">
        <ele>52.317825</ele>
        <time>2020-08-11T08:23:11.960Z</time>
      </trkpt>
      <trkpt lat="64.51724" lon="11.52883">
        <ele>52.421498</ele>
        <time>2020-08-11T08:23:13.988Z</time>
      </trkpt>
      <trkpt lat="64.5172" lon="11.52911">
        <ele>52.554695</ele>
        <time>2020-08-11T08:23:16.983Z</time>
      </trkpt>
      <trkpt lat="64.51717" lon="11.52935">
        <ele>52.671862</ele>
        <time>2020-08-11T08:23:19.971Z</time>
      </trkpt>
      <trkpt lat="64.51714" lon="11.52958">
        <ele>52.781888</ele>
        <time>2020-08-11T08:23:22.969Z</time>
      </trkpt>
      <trkpt lat="64.5171" lon="11.52979">
        <ele>52.885483</ele>
        <time>2020-08-11T08:23:25.986Z</time>
      </trkpt>
      <trkpt lat="64.51707" lon="11.53">
        <ele>52.984997</ele>
        <time>2020-08-11T08:23:28.954Z</time>
      </trkpt>
      <trkpt lat="64.51704" lon="11.53023">
        <ele>53.092749</ele>
        <time>2020-08-11T08:23:31.960Z</time>
      </trkpt>
      <trkpt lat="64.51701" lon="11.53046">
        <ele>53.201592</ele>
        <time>2020-08-11T08:23:34.963Z</time>
      </trkpt>
      <trkpt lat="64.51699" lon="11.53068">
        <ele>53.308404</ele>
        <time>2020-08-11T08:23:37.961Z</time>
      </trkpt>
      <trkpt lat="64.51697" lon="11.53092">
        <ele>53.416879</ele>
        <time>2020-08-11T08:23:40.962Z</time>
      </trkpt>
      <trkpt lat="64.51694" lon="11.53119">
        <ele>53.541799</ele>
        <time>2020-08-11T08:23:43.957Z</time>
      </trkpt>
      <trkpt lat="64.51692" lon="11.5315">
        <ele>53.68511</ele>
        <time>2020-08-11T08:23:46.958Z</time>
      </trkpt>
      <trkpt lat="64.51693" lon="11.53173">
        <ele>53.792048</ele>
        <time>2020-08-11T08:23:48.962Z</time>
      </trkpt>
      <trkpt lat="64.51694" lon="11.53197">
        <ele>53.884418</ele>
        <time>2020-08-11T08:23:50.951Z</time>
      </trkpt>
      <trkpt lat="64.51695" lon="11.5322">
        <ele>53.735339</ele>
        <time>2020-08-11T08:23:52.957Z</time>
      </trkpt>
      <trkpt lat="64.51696" lon="11.53244">
        <ele>53.582475</ele>
        <time>2020-08-11T08:23:54.984Z</time>
      </trkpt>
      <trkpt lat="64.51699" lon="11.53267">
        <ele>53.431845</ele>
        <time>2020-08-11T08:23:56.961Z</time>
      </trkpt>
      <trkpt lat="64.51702" lon="11.53289">
        <ele>53.283338</ele>
        <time>2020-08-11T08:23:58.993Z</time>
      </trkpt>
      <trkpt lat="64.51705" lon="11.53309">
        <ele>53.145295</ele>
        <time>2020-08-11T08:24:00.953Z</time>
      </trkpt>
      <trkpt lat="64.51708" lon="11.5333">
        <ele>53.006652</ele>
        <time>2020-08-11T08:24:02.985Z</time>
      </trkpt>
      <trkpt lat="64.51711" lon="11.53351">
        <ele>52.867601</ele>
        <time>2020-08-11T08:24:04.979Z</time>
      </trkpt>
      <trkpt lat="64.51715" lon="11.53371">
        <ele>52.727866</ele>
        <time>2020-08-11T08:24:06.962Z</time>
      </trkpt>
      <trkpt lat="64.51718" lon="11.53391">
        <ele>52.591786</ele>
        <time>2020-08-11T08:24:08.951Z</time>
      </trkpt>
      <trkpt lat="64.51723" lon="11.53419">
        <ele>52.403294</ele>
        <time>2020-08-11T08:24:11.965Z</time>
      </trkpt>
      <trkpt lat="64.51728" lon="11.53445">
        <ele>52.222969</ele>
        <time>2020-08-11T08:24:14.956Z</time>
      </trkpt>
      <trkpt lat="64.51733" lon="11.53472">
        <ele>52.033882</ele>
        <time>2020-08-11T08:24:17.989Z</time>
      </trkpt>
      <trkpt lat="64.51738" lon="11.53499">
        <ele>51.845972</ele>
        <time>2020-08-11T08:24:21.001Z</time>
      </trkpt>
      <trkpt lat="64.51743" lon="11.53526">
        <ele>51.655732</ele>
        <time>2020-08-11T08:24:23.989Z</time>
      </trkpt>
      <trkpt lat="64.51747" lon="11.53546">
        <ele>51.521472</ele>
        <time>2020-08-11T08:24:25.955Z</time>
      </trkpt>
      <trkpt lat="64.51751" lon="11.53566">
        <ele>51.382578</ele>
        <time>2020-08-11T08:24:27.959Z</time>
      </trkpt>
      <trkpt lat="64.51755" lon="11.53585">
        <ele>51.244192</ele>
        <time>2020-08-11T08:24:29.976Z</time>
      </trkpt>
      <trkpt lat="64.51758" lon="11.53606">
        <ele>50.972219</ele>
        <time>2020-08-11T08:24:31.970Z</time>
      </trkpt>
      <trkpt lat="64.51762" lon="11.53627">
        <ele>50.685218</ele>
        <time>2020-08-11T08:24:33.998Z</time>
      </trkpt>
      <trkpt lat="64.51764" lon="11.53648">
        <ele>50.393521</ele>
        <time>2020-08-11T08:24:36.001Z</time>
      </trkpt>
      <trkpt lat="64.51767" lon="11.53671">
        <ele>50.095938</ele>
        <time>2020-08-11T08:24:37.962Z</time>
      </trkpt>
      <trkpt lat="64.51769" lon="11.53694">
        <ele>49.791406</ele>
        <time>2020-08-11T08:24:39.968Z</time>
      </trkpt>
      <trkpt lat="64.51773" lon="11.53715">
        <ele>49.495412</ele>
        <time>2020-08-11T08:24:41.958Z</time>
      </trkpt>
      <trkpt lat="64.51778" lon="11.53737">
        <ele>49.174875</ele>
        <time>2020-08-11T08:24:43.953Z</time>
      </trkpt>
      <trkpt lat="64.51784" lon="11.53757">
        <ele>48.865029</ele>
        <time>2020-08-11T08:24:45.958Z</time>
      </trkpt>
      <trkpt lat="64.51791" lon="11.53776">
        <ele>48.55627</ele>
        <time>2020-08-11T08:24:47.961Z</time>
      </trkpt>
      <trkpt lat="64.51797" lon="11.53793">
        <ele>48.262322</ele>
        <time>2020-08-11T08:24:49.961Z</time>
      </trkpt>
      <trkpt lat="64.51807" lon="11.53813">
        <ele>47.879013</ele>
        <time>2020-08-11T08:24:52.991Z</time>
      </trkpt>
      <trkpt lat="64.51817" lon="11.53829">
        <ele>47.501552</ele>
        <time>2020-08-11T08:24:56.048Z</time>
      </trkpt>
      <trkpt lat="64.51828" lon="11.53842">
        <ele>47.144232</ele>
        <time>2020-08-11T08:24:58.962Z</time>
      </trkpt>
      <trkpt lat="64.5184" lon="11.53853">
        <ele>46.749126</ele>
        <time>2020-08-11T08:25:02.046Z</time>
      </trkpt>
      <trkpt lat="64.5185" lon="11.53858">
        <ele>46.467215</ele>
        <time>2020-08-11T08:25:03.949Z</time>
      </trkpt>
      <trkpt lat="64.51859" lon="11.53861">
        <ele>46.17572</ele>
        <time>2020-08-11T08:25:05.953Z</time>
      </trkpt>
      <trkpt lat="64.51869" lon="11.53862">
        <ele>45.870766</ele>
        <time>2020-08-11T08:25:07.961Z</time>
      </trkpt>
      <trkpt lat="64.5188" lon="11.53862">
        <ele>45.993058</ele>
        <time>2020-08-11T08:25:09.956Z</time>
      </trkpt>
      <trkpt lat="64.51889" lon="11.53858">
        <ele>46.113995</ele>
        <time>2020-08-11T08:25:11.981Z</time>
      </trkpt>
      <trkpt lat="64.51899" lon="11.5385">
        <ele>46.231597</ele>
        <time>2020-08-11T08:25:13.977Z</time>
      </trkpt>
      <trkpt lat="64.51907" lon="11.53838">
        <ele>46.348313</ele>
        <time>2020-08-11T08:25:15.972Z</time>
      </trkpt>
      <trkpt lat="64.51915" lon="11.53826">
        <ele>46.468983</ele>
        <time>2020-08-11T08:25:17.963Z</time>
      </trkpt>
      <trkpt lat="64.51923" lon="11.53814">
        <ele>46.579119</ele>
        <time>2020-08-11T08:25:19.970Z</time>
      </trkpt>
      <trkpt lat="64.5193" lon="11.53802">
        <ele>46.692526</ele>
        <time>2020-08-11T08:25:21.956Z</time>
      </trkpt>
      <trkpt lat="64.51939" lon="11.5379">
        <ele>46.809774</ele>
        <time>2020-08-11T08:25:23.990Z</time>
      </trkpt>
      <trkpt lat="64.51947" lon="11.53779">
        <ele>46.925241</ele>
        <time>2020-08-11T08:25:25.988Z</time>
      </trkpt>
      <trkpt lat="64.51955" lon="11.53769">
        <ele>47.0396</ele>
        <time>2020-08-11T08:25:27.972Z</time>
      </trkpt>
      <trkpt lat="64.51964" lon="11.53757">
        <ele>47.162334</ele>
        <time>2020-08-11T08:25:29.952Z</time>
      </trkpt>
      <trkpt lat="64.51973" lon="11.53744">
        <ele>47.289313</ele>
        <time>2020-08-11T08:25:31.943Z</time>
      </trkpt>
      <trkpt lat="64.51983" lon="11.53732">
        <ele>47.420209</ele>
        <time>2020-08-11T08:25:33.969Z</time>
      </trkpt>
      <trkpt lat="64.51991" lon="11.5372">
        <ele>47.545298</ele>
        <time>2020-08-11T08:25:35.976Z</time>
      </trkpt>
      <trkpt lat="64.52" lon="11.53707">
        <ele>47.665598</ele>
        <time>2020-08-11T08:25:37.950Z</time>
      </trkpt>
      <trkpt lat="64.52008" lon="11.53694">
        <ele>47.787647</ele>
        <time>2020-08-11T08:25:39.959Z</time>
      </trkpt>
      <trkpt lat="64.52016" lon="11.53683">
        <ele>47.902283</ele>
        <time>2020-08-11T08:25:41.953Z</time>
      </trkpt>
      <trkpt lat="64.52024" lon="11.53673">
        <ele>48.012455</ele>
        <time>2020-08-11T08:25:43.970Z</time>
      </trkpt>
      <trkpt lat="64.52032" lon="11.53662">
        <ele>48.170722</ele>
        <time>2020-08-11T08:25:45.980Z</time>
      </trkpt>
      <trkpt lat="64.52043" lon="11.53648">
        <ele>48.409229</ele>
        <time>2020-08-11T08:25:48.952Z</time>
      </trkpt>
      <trkpt lat="64.52052" lon="11.53644">
        <ele>48.589151</ele>
        <time>2020-08-11T08:25:50.972Z</time>
      </trkpt>
      <trkpt lat="64.52065" lon="11.53637">
        <ele>48.844302</ele>
        <time>2020-08-11T08:25:53.957Z</time>
      </trkpt>
      <trkpt lat="64.52075" lon="11.53632">
        <ele>49.048591</ele>
        <time>2020-08-11T08:25:56.979Z</time>
      </trkpt>
      <trkpt lat="64.52086" lon="11.53625">
        <ele>49.264949</ele>
        <time>2020-08-11T08:26:00.982Z</time>
      </trkpt>
      <trkpt lat="64.52096" lon="11.53617">
        <ele>49.476647</ele>
        <time>2020-08-11T08:26:04.958Z</time>
      </trkpt>
      <trkpt lat="64.52107" lon="11.53609">
        <ele>49.703024</ele>
        <time>2020-08-11T08:26:08.987Z</time>
      </trkpt>
      <trkpt lat="64.52117" lon="11.53607">
        <ele>49.911078</ele>
        <time>2020-08-11T08:26:12.974Z</time>
      </trkpt>
      <trkpt lat="64.5213" lon="11.53611">
        <ele>50.153504</ele>
        <time>2020-08-11T08:26:16.991Z</time>
      </trkpt>
      <trkpt lat="64.52141" lon="11.53619">
        <ele>50.381995</ele>
        <time>2020-08-11T08:26:19.965Z</time>
      </trkpt>
      <trkpt lat="64.52152" lon="11.53634">
        <ele>50.635712</ele>
        <time>2020-08-11T08:26:22.980Z</time>
      </trkpt>
      <trkpt lat="64.52161" lon="11.53646">
        <ele>50.83325</ele>
        <time>2020-08-11T08:26:24.987Z</time>
      </trkpt>
      <trkpt lat="64.52169" lon="11.53661">
        <ele>51.035829</ele>
        <time>2020-08-11T08:26:26.964Z</time>
      </trkpt>
      <trkpt lat="64.52177" lon="11.53678">
        <ele>51.243853</ele>
        <time>2020-08-11T08:26:28.992Z</time>
      </trkpt>
      <trkpt lat="64.52184" lon="11.53693">
        <ele>51.435259</ele>
        <time>2020-08-11T08:26:30.959Z</time>
      </trkpt>
      <trkpt lat="64.52191" lon="11.53709">
        <ele>51.550868</ele>
        <time>2020-08-11T08:26:32.977Z</time>
      </trkpt>
      <trkpt lat="64.52197" lon="11.53725">
        <ele>51.500907</ele>
        <time>2020-08-11T08:26:34.956Z</time>
      </trkpt>
      <trkpt lat="64.52203" lon="11.53743">
        <ele>51.447991</ele>
        <time>2020-08-11T08:26:36.962Z</time>
      </trkpt>
      <trkpt lat="64.5221" lon="11.53762">
        <ele>51.390721</ele>
        <time>2020-08-11T08:26:38.962Z</time>
      </trkpt>
      <trkpt lat="64.52217" lon="11.53782">
        <ele>51.33067</ele>
        <time>2020-08-11T08:26:41.001Z</time>
      </trkpt>
      <trkpt lat="64.52225" lon="11.53802">
        <ele>51.269739</ele>
        <time>2020-08-11T08:26:42.969Z</time>
      </trkpt>
      <trkpt lat="64.52233" lon="11.53821">
        <ele>51.209466</ele>
        <time>2020-08-11T08:26:44.941Z</time>
      </trkpt>
      <trkpt lat="64.5224" lon="11.5384">
        <ele>51.149026</ele>
        <time>2020-08-11T08:26:46.994Z</time>
      </trkpt>
      <trkpt lat="64.52248" lon="11.53859">
        <ele>51.090823</ele>
        <time>2020-08-11T08:26:48.954Z</time>
      </trkpt>
      <trkpt lat="64.52255" lon="11.53874">
        <ele>51.038205</ele>
        <time>2020-08-11T08:26:50.955Z</time>
      </trkpt>
      <trkpt lat="64.52262" lon="11.53887">
        <ele>50.98926</ele>
        <time>2020-08-11T08:26:52.963Z</time>
      </trkpt>
      <trkpt lat="64.5227" lon="11.53899">
        <ele>50.940791</ele>
        <time>2020-08-11T08:26:55.018Z</time>
      </trkpt>
      <trkpt lat="64.52278" lon="11.5391">
        <ele>50.889907</ele>
        <time>2020-08-11T08:26:56.955Z</time>
      </trkpt>
      <trkpt lat="64.52287" lon="11.53916">
        <ele>50.841058</ele>
        <time>2020-08-11T08:26:58.960Z</time>
      </trkpt>
      <trkpt lat="64.52296" lon="11.53922">
        <ele>50.789146</ele>
        <time>2020-08-11T08:27:00.981Z</time>
      </trkpt>
      <trkpt lat="64.52305" lon="11.53927">
        <ele>50.741099</ele>
        <time>2020-08-11T08:27:02.979Z</time>
      </trkpt>
      <trkpt lat="64.52317" lon="11.53929">
        <ele>50.675662</ele>
        <time>2020-08-11T08:27:05.957Z</time>
      </trkpt>
      <trkpt lat="64.5233" lon="11.53929">
        <ele>50.607872</ele>
        <time>2020-08-11T08:27:08.983Z</time>
      </trkpt>
      <trkpt lat="64.52343" lon="11.53928">
        <ele>50.71512</ele>
        <time>2020-08-11T08:27:11.963Z</time>
      </trkpt>
      <trkpt lat="64.52353" lon="11.53927">
        <ele>50.794438</ele>
        <time>2020-08-11T08:27:13.956Z</time>
      </trkpt>
      <trkpt lat="64.52363" lon="11.53923">
        <ele>50.881765</ele>
        <time>2020-08-11T08:27:15.980Z</time>
      </trkpt>
      <trkpt lat="64.52374" lon="11.53916">
        <ele>50.970983</ele>
        <time>2020-08-11T08:27:17.956Z</time>
      </trkpt>
      <trkpt lat="64.52383" lon="11.53907">
        <ele>51.053527</ele>
        <time>2020-08-11T08:27:19.950Z</time>
      </trkpt>
      <trkpt lat="64.52392" lon="11.53896">
        <ele>51.139989</ele>
        <time>2020-08-11T08:27:21.985Z</time>
      </trkpt>
      <trkpt lat="64.52401" lon="11.53885">
        <ele>51.224383</ele>
        <time>2020-08-11T08:27:23.965Z</time>
      </trkpt>
      <trkpt lat="64.52409" lon="11.53874">
        <ele>51.302736</ele>
        <time>2020-08-11T08:27:25.984Z</time>
      </trkpt>
      <trkpt lat="64.52417" lon="11.53864">
        <ele>51.377688</ele>
        <time>2020-08-11T08:27:27.960Z</time>
      </trkpt>
      <trkpt lat="64.52426" lon="11.53855">
        <ele>51.459744</ele>
        <time>2020-08-11T08:27:29.959Z</time>
      </trkpt>
      <trkpt lat="64.52435" lon="11.53846">
        <ele>51.54138</ele>
        <time>2020-08-11T08:27:31.960Z</time>
      </trkpt>
      <trkpt lat="64.52444" lon="11.53837">
        <ele>51.621418</ele>
        <time>2020-08-11T08:27:33.952Z</time>
      </trkpt>
      <trkpt lat="64.52453" lon="11.53831">
        <ele>51.700955</ele>
        <time>2020-08-11T08:27:35.947Z</time>
      </trkpt>
      <trkpt lat="64.52465" lon="11.53825">
        <ele>51.807028</ele>
        <time>2020-08-11T08:27:38.940Z</time>
      </trkpt>
      <trkpt lat="64.52476" lon="11.53823">
        <ele>51.89577</ele>
        <time>2020-08-11T08:27:41.955Z</time>
      </trkpt>
      <trkpt lat="64.52485" lon="11.53822">
        <ele>51.973266</ele>
        <time>2020-08-11T08:27:44.967Z</time>
      </trkpt>
      <trkpt lat="64.52497" lon="11.53822">
        <ele>52.06994</ele>
        <time>2020-08-11T08:27:48.994Z</time>
      </trkpt>
      <trkpt lat="64.52507" lon="11.53821">
        <ele>52.039108</ele>
        <time>2020-08-11T08:27:52.958Z</time>
      </trkpt>
      <trkpt lat="64.52519" lon="11.53821">
        <ele>51.917736</ele>
        <time>2020-08-11T08:27:56.949Z</time>
      </trkpt>
      <trkpt lat="64.5253" lon="11.53822">
        <ele>51.789852</ele>
        <time>2020-08-11T08:28:00.959Z</time>
      </trkpt>
      <trkpt lat="64.5254" lon="11.53822">
        <ele>51.687813</ele>
        <time>2020-08-11T08:28:03.962Z</time>
      </trkpt>
      <trkpt lat="64.52551" lon="11.53825">
        <ele>51.570025</ele>
        <time>2020-08-11T08:28:07.990Z</time>
      </trkpt>
      <trkpt lat="64.52562" lon="11.53829">
        <ele>51.447865</ele>
        <time>2020-08-11T08:28:11.983Z</time>
      </trkpt>
      <trkpt lat="64.52572" lon="11.53834">
        <ele>51.342198</ele>
        <time>2020-08-11T08:28:14.973Z</time>
      </trkpt>
      <trkpt lat="64.52583" lon="11.53841">
        <ele>51.216233</ele>
        <time>2020-08-11T08:28:17.950Z</time>
      </trkpt>
      <trkpt lat="64.52595" lon="11.53849">
        <ele>51.079438</ele>
        <time>2020-08-11T08:28:20.954Z</time>
      </trkpt>
      <trkpt lat="64.52604" lon="11.53856">
        <ele>50.978815</ele>
        <time>2020-08-11T08:28:22.948Z</time>
      </trkpt>
      <trkpt lat="64.52615" lon="11.53863">
        <ele>50.857356</ele>
        <time>2020-08-11T08:28:24.965Z</time>
      </trkpt>
      <trkpt lat="64.52628" lon="11.5387">
        <ele>50.71706</ele>
        <time>2020-08-11T08:28:26.988Z</time>
      </trkpt>
      <trkpt lat="64.52641" lon="11.53874">
        <ele>50.568754</ele>
        <time>2020-08-11T08:28:28.994Z</time>
      </trkpt>
      <trkpt lat="64.52656" lon="11.53874">
        <ele>50.417306</ele>
        <time>2020-08-11T08:28:30.942Z</time>
      </trkpt>
      <trkpt lat="64.52668" lon="11.53875">
        <ele>50.28089</ele>
        <time>2020-08-11T08:28:32.971Z</time>
      </trkpt>
      <trkpt lat="64.52679" lon="11.53874">
        <ele>50.171984</ele>
        <time>2020-08-11T08:28:34.944Z</time>
      </trkpt>
      <trkpt lat="64.5269" lon="11.53874">
        <ele>50.159846</ele>
        <time>2020-08-11T08:28:36.957Z</time>
      </trkpt>
      <trkpt lat="64.527" lon="11.53876">
        <ele>50.148244</ele>
        <time>2020-08-11T08:28:38.946Z</time>
      </trkpt>
      <trkpt lat="64.52709" lon="11.53879">
        <ele>50.137332</ele>
        <time>2020-08-11T08:28:40.970Z</time>
      </trkpt>
      <trkpt lat="64.52719" lon="11.53885">
        <ele>50.126016</ele>
        <time>2020-08-11T08:28:42.954Z</time>
      </trkpt>
      <trkpt lat="64.52728" lon="11.53891">
        <ele>50.11541</ele>
        <time>2020-08-11T08:28:44.964Z</time>
      </trkpt>
      <trkpt lat="64.52737" lon="11.53898">
        <ele>50.104484</ele>
        <time>2020-08-11T08:28:46.954Z</time>
      </trkpt>
      <trkpt lat="64.52746" lon="11.53904">
        <ele>50.093974</ele>
        <time>2020-08-11T08:28:48.983Z</time>
      </trkpt>
      <trkpt lat="64.52755" lon="11.5391">
        <ele>50.082997</ele>
        <time>2020-08-11T08:28:50.967Z</time>
      </trkpt>
      <trkpt lat="64.52764" lon="11.53916">
        <ele>50.07169</ele>
        <time>2020-08-11T08:28:52.960Z</time>
      </trkpt>
      <trkpt lat="64.52773" lon="11.53922">
        <ele>50.061097</ele>
        <time>2020-08-11T08:28:55.006Z</time>
      </trkpt>
      <trkpt lat="64.52785" lon="11.53933">
        <ele>50.046315</ele>
        <time>2020-08-11T08:28:57.975Z</time>
      </trkpt>
      <trkpt lat="64.52794" lon="11.53941">
        <ele>50.035705</ele>
        <time>2020-08-11T08:29:00.011Z</time>
      </trkpt>
      <trkpt lat="64.52802" lon="11.5395">
        <ele>50.024974</ele>
        <time>2020-08-11T08:29:01.955Z</time>
      </trkpt>
      <trkpt lat="64.52811" lon="11.53959">
        <ele>50.01422</ele>
        <time>2020-08-11T08:29:03.968Z</time>
      </trkpt>
      <trkpt lat="64.5282" lon="11.53967">
        <ele>50.003153</ele>
        <time>2020-08-11T08:29:06.001Z</time>
      </trkpt>
      <trkpt lat="64.5283" lon="11.53973">
        <ele>49.991475</ele>
        <time>2020-08-11T08:29:07.944Z</time>
      </trkpt>
      <trkpt lat="64.5284" lon="11.5398">
        <ele>49.979233</ele>
        <time>2020-08-11T08:29:09.966Z</time>
      </trkpt>
      <trkpt lat="64.5285" lon="11.53986">
        <ele>49.968016</ele>
        <time>2020-08-11T08:29:12.003Z</time>
      </trkpt>
      <trkpt lat="64.52863" lon="11.53993">
        <ele>49.942511</ele>
        <time>2020-08-11T08:29:14.958Z</time>
      </trkpt>
      <trkpt lat="64.52875" lon="11.53999">
        <ele>49.918164</ele>
        <time>2020-08-11T08:29:17.963Z</time>
      </trkpt>
      <trkpt lat="64.52887" lon="11.54005">
        <ele>49.895907</ele>
        <time>2020-08-11T08:29:20.964Z</time>
      </trkpt>
      <trkpt lat="64.52899" lon="11.5401">
        <ele>49.872435</ele>
        <time>2020-08-11T08:29:23.950Z</time>
      </trkpt>
      <trkpt lat="64.5291" lon="11.54014">
        <ele>49.851547</ele>
        <time>2020-08-11T08:29:26.970Z</time>
      </trkpt>
      <trkpt lat="64.52919" lon="11.54019">
        <ele>49.833699</ele>
        <time>2020-08-11T08:29:29.959Z</time>
      </trkpt>
      <trkpt lat="64.52929" lon="11.54024">
        <ele>49.814344</ele>
        <time>2020-08-11T08:29:32.968Z</time>
      </trkpt>
      <trkpt lat="64.5294" lon="11.54028">
        <ele>49.792785</ele>
        <time>2020-08-11T08:29:35.961Z</time>
      </trkpt>
      <trkpt lat="64.52951" lon="11.54031">
        <ele>49.770647</ele>
        <time>2020-08-11T08:29:38.951Z</time>
      </trkpt>
      <trkpt lat="64.52963" lon="11.54035">
        <ele>49.749054</ele>
        <time>2020-08-11T08:29:41.956Z</time>
      </trkpt>
      <trkpt lat="64.52973" lon="11.5404">
        <ele>49.728628</ele>
        <time>2020-08-11T08:29:45.076Z</time>
      </trkpt>
      <trkpt lat="64.52984" lon="11.54043">
        <ele>49.708345</ele>
        <time>2020-08-11T08:29:47.964Z</time>
      </trkpt>
      <trkpt lat="64.52994" lon="11.54039">
        <ele>49.688224</ele>
        <time>2020-08-11T08:29:50.978Z</time>
      </trkpt>
      <trkpt lat="64.53004" lon="11.54032">
        <ele>49.667804</ele>
        <time>2020-08-11T08:29:54.958Z</time>
      </trkpt>
      <trkpt lat="64.53015" lon="11.54033">
        <ele>49.647343</ele>
        <time>2020-08-11T08:29:59.954Z</time>
      </trkpt>
      <trkpt lat="64.53007" lon="11.54018">
        <ele>49.626773</ele>
        <time>2020-08-11T08:30:09.961Z</time>
      </trkpt>
      <trkpt lat="64.52997" lon="11.54022">
        <ele>49.802451</ele>
        <time>2020-08-11T08:30:12.953Z</time>
      </trkpt>
      <trkpt lat="64.52999" lon="11.54046">
        <ele>50.016741</ele>
        <time>2020-08-11T08:30:16.945Z</time>
      </trkpt>
      <trkpt lat="64.5301" lon="11.54052">
        <ele>50.247206</ele>
        <time>2020-08-11T08:30:19.945Z</time>
      </trkpt>
      <trkpt lat="64.53019" lon="11.54052">
        <ele>50.435534</ele>
        <time>2020-08-11T08:30:22.945Z</time>
      </trkpt>
      <trkpt lat="64.53029" lon="11.54061">
        <ele>50.665844</ele>
        <time>2020-08-11T08:30:26.936Z</time>
      </trkpt>
      <trkpt lat="64.5304" lon="11.54067">
        <ele>50.902162</ele>
        <time>2020-08-11T08:30:30.963Z</time>
      </trkpt>
      <trkpt lat="64.5305" lon="11.54072">
        <ele>51.120765</ele>
        <time>2020-08-11T08:30:34.954Z</time>
      </trkpt>
      <trkpt lat="64.53061" lon="11.54078">
        <ele>51.34154</ele>
        <time>2020-08-11T08:30:39.945Z</time>
      </trkpt>
      <trkpt lat="64.5305" lon="11.54069">
        <ele>51.568509</ele>
        <time>2020-08-11T08:32:38.968Z</time>
      </trkpt>
      <trkpt lat="64.5304" lon="11.54067">
        <ele>51.797387</ele>
        <time>2020-08-11T08:32:41.945Z</time>
      </trkpt>
      <trkpt lat="64.53029" lon="11.54064">
        <ele>52.016615</ele>
        <time>2020-08-11T08:32:44.940Z</time>
      </trkpt>
      <trkpt lat="64.53018" lon="11.5406">
        <ele>52.256147</ele>
        <time>2020-08-11T08:32:48.966Z</time>
      </trkpt>
      <trkpt lat="64.53007" lon="11.54054">
        <ele>52.483948</ele>
        <time>2020-08-11T08:32:52.970Z</time>
      </trkpt>
      <trkpt lat="64.52999" lon="11.54038">
        <ele>52.716544</ele>
        <time>2020-08-11T08:32:57.022Z</time>
      </trkpt>
      <trkpt lat="64.53009" lon="11.54033">
        <ele>52.947084</ele>
        <time>2020-08-11T08:33:02.970Z</time>
      </trkpt>
      <trkpt lat="64.53021" lon="11.54038">
        <ele>53.187883</ele>
        <time>2020-08-11T08:33:06.976Z</time>
      </trkpt>
      <trkpt lat="64.5303" lon="11.54039">
        <ele>53.413935</ele>
        <time>2020-08-11T08:33:10.958Z</time>
      </trkpt>
      <trkpt lat="64.5304" lon="11.5404">
        <ele>54.670819</ele>
        <time>2020-08-11T08:33:15.999Z</time>
      </trkpt>
      <trkpt lat="64.5305" lon="11.54041">
        <ele>55.915578</ele>
        <time>2020-08-11T08:33:21.983Z</time>
      </trkpt>
      <trkpt lat="64.5306" lon="11.54043">
        <ele>57.062163</ele>
        <time>2020-08-11T08:33:26.969Z</time>
      </trkpt>
      <trkpt lat="64.53069" lon="11.54045">
        <ele>58.235791</ele>
        <time>2020-08-11T08:33:31.963Z</time>
      </trkpt>
      <trkpt lat="64.5308" lon="11.54045">
        <ele>59.553189</ele>
        <time>2020-08-11T08:33:37.971Z</time>
      </trkpt>
      <trkpt lat="64.5309" lon="11.54047">
        <ele>60.798257</ele>
        <time>2020-08-11T08:33:44.963Z</time>
      </trkpt>
      <trkpt lat="64.53099" lon="11.54051">
        <ele>62.027546</ele>
        <time>2020-08-11T08:33:51.963Z</time>
      </trkpt>
      <trkpt lat="64.53108" lon="11.54051">
        <ele>63.15851</ele>
        <time>2020-08-11T08:33:57.976Z</time>
      </trkpt>
      <trkpt lat="64.53117" lon="11.54049">
        <ele>64.281176</ele>
        <time>2020-08-11T08:34:03.978Z</time>
      </trkpt>
      <trkpt lat="64.53127" lon="11.54044">
        <ele>65.485836</ele>
        <time>2020-08-11T08:34:09.981Z</time>
      </trkpt>
      <trkpt lat="64.53136" lon="11.54043">
        <ele>66.666949</ele>
        <time>2020-08-11T08:34:15.967Z</time>
      </trkpt>
      <trkpt lat="64.53146" lon="11.54039">
        <ele>67.938517</ele>
        <time>2020-08-11T08:34:22.966Z</time>
      </trkpt>
      <trkpt lat="64.53156" lon="11.54036">
        <ele>69.120812</ele>
        <time>2020-08-11T08:34:30.946Z</time>
      </trkpt>
      <trkpt lat="64.53166" lon="11.54033">
        <ele>70.349281</ele>
        <time>2020-08-11T08:34:38.961Z</time>
      </trkpt>
      <trkpt lat="64.53175" lon="11.54033">
        <ele>71.542494</ele>
        <time>2020-08-11T08:34:45.005Z</time>
      </trkpt>
      <trkpt lat="64.53185" lon="11.5403">
        <ele>72.709382</ele>
        <time>2020-08-11T08:34:50.976Z</time>
      </trkpt>
      <trkpt lat="64.53195" lon="11.54028">
        <ele>74.005487</ele>
        <time>2020-08-11T08:34:57.976Z</time>
      </trkpt>
      <trkpt lat="64.53204" lon="11.54027">
        <ele>75.124343</ele>
        <time>2020-08-11T08:35:03.965Z</time>
      </trkpt>
      <trkpt lat="64.53214" lon="11.54025">
        <ele>76.208781</ele>
        <time>2020-08-11T08:35:10.972Z</time>
      </trkpt>
      <trkpt lat="64.53224" lon="11.54024">
        <ele>77.175732</ele>
        <time>2020-08-11T08:35:17.985Z</time>
      </trkpt>
      <trkpt lat="64.53233" lon="11.54023">
        <ele>78.031694</ele>
        <time>2020-08-11T08:35:23.960Z</time>
      </trkpt>
      <trkpt lat="64.53242" lon="11.54019">
        <ele>78.911371</ele>
        <time>2020-08-11T08:35:30.952Z</time>
      </trkpt>
      <trkpt lat="64.53253" lon="11.54016">
        <ele>79.883902</ele>
        <time>2020-08-11T08:35:37.947Z</time>
      </trkpt>
      <trkpt lat="64.53263" lon="11.54014">
        <ele>80.826355</ele>
        <time>2020-08-11T08:35:44.942Z</time>
      </trkpt>
      <trkpt lat="64.53273" lon="11.54012">
        <ele>81.768082</ele>
        <time>2020-08-11T08:35:51.968Z</time>
      </trkpt>
      <trkpt lat="64.53283" lon="11.5401">
        <ele>82.689313</ele>
        <time>2020-08-11T08:35:58.975Z</time>
      </trkpt>
      <trkpt lat="64.53292" lon="11.54005">
        <ele>83.616019</ele>
        <time>2020-08-11T08:36:05.999Z</time>
      </trkpt>
      <trkpt lat="64.53302" lon="11.54004">
        <ele>84.498734</ele>
        <time>2020-08-11T08:36:12.959Z</time>
      </trkpt>
      <trkpt lat="64.53311" lon="11.54003">
        <ele>85.401497</ele>
        <time>2020-08-11T08:36:18.955Z</time>
      </trkpt>
      <trkpt lat="64.53321" lon="11.54002">
        <ele>86.330694</ele>
        <time>2020-08-11T08:36:26.952Z</time>
      </trkpt>
      <trkpt lat="64.5333" lon="11.53999">
        <ele>87.212777</ele>
        <time>2020-08-11T08:36:32.967Z</time>
      </trkpt>
      <trkpt lat="64.5334" lon="11.53997">
        <ele>88.105916</ele>
        <time>2020-08-11T08:36:38.955Z</time>
      </trkpt>
      <trkpt lat="64.5335" lon="11.53996">
        <ele>89.037037</ele>
        <time>2020-08-11T08:36:44.948Z</time>
      </trkpt>
      <trkpt lat="64.53359" lon="11.53996">
        <ele>89.909631</ele>
        <time>2020-08-11T08:36:50.961Z</time>
      </trkpt>
      <trkpt lat="64.53369" lon="11.53998">
        <ele>90.850701</ele>
        <time>2020-08-11T08:36:57.948Z</time>
      </trkpt>
      <trkpt lat="64.53379" lon="11.53999">
        <ele>91.799583</ele>
        <time>2020-08-11T08:37:04.962Z</time>
      </trkpt>
      <trkpt lat="64.53389" lon="11.53999">
        <ele>92.651421</ele>
        <time>2020-08-11T08:37:11.954Z</time>
      </trkpt>
      <trkpt lat="64.53398" lon="11.53999">
        <ele>92.91573</ele>
        <time>2020-08-11T08:37:17.948Z</time>
      </trkpt>
      <trkpt lat="64.53409" lon="11.54001">
        <ele>93.224833</ele>
        <time>2020-08-11T08:37:24.999Z</time>
      </trkpt>
      <trkpt lat="64.53418" lon="11.54005">
        <ele>93.514363</ele>
        <time>2020-08-11T08:37:30.950Z</time>
      </trkpt>
      <trkpt lat="64.53428" lon="11.54009">
        <ele>93.795951</ele>
        <time>2020-08-11T08:37:36.948Z</time>
      </trkpt>
      <trkpt lat="64.53437" lon="11.54014">
        <ele>94.074661</ele>
        <time>2020-08-11T08:37:42.949Z</time>
      </trkpt>
      <trkpt lat="64.53446" lon="11.54019">
        <ele>94.348973</ele>
        <time>2020-08-11T08:37:48.954Z</time>
      </trkpt>
      <trkpt lat="64.53456" lon="11.54025">
        <ele>94.646259</ele>
        <time>2020-08-11T08:37:54.969Z</time>
      </trkpt>
      <trkpt lat="64.53465" lon="11.54031">
        <ele>94.920979</ele>
        <time>2020-08-11T08:38:00.960Z</time>
      </trkpt>
      <trkpt lat="64.53475" lon="11.54039">
        <ele>95.228403</ele>
        <time>2020-08-11T08:38:07.957Z</time>
      </trkpt>
      <trkpt lat="64.53484" lon="11.54047">
        <ele>95.531934</ele>
        <time>2020-08-11T08:38:14.960Z</time>
      </trkpt>
      <trkpt lat="64.53494" lon="11.54057">
        <ele>95.833894</ele>
        <time>2020-08-11T08:38:20.978Z</time>
      </trkpt>
      <trkpt lat="64.53502" lon="11.54065">
        <ele>96.109573</ele>
        <time>2020-08-11T08:38:25.957Z</time>
      </trkpt>
      <trkpt lat="64.53511" lon="11.54072">
        <ele>96.386302</ele>
        <time>2020-08-11T08:38:30.959Z</time>
      </trkpt>
      <trkpt lat="64.5352" lon="11.54081">
        <ele>96.660054</ele>
        <time>2020-08-11T08:38:35.962Z</time>
      </trkpt>
      <trkpt lat="64.53528" lon="11.5409">
        <ele>96.924217</ele>
        <time>2020-08-11T08:38:39.956Z</time>
      </trkpt>
      <trkpt lat="64.53538" lon="11.54102">
        <ele>97.259337</ele>
        <time>2020-08-11T08:38:44.957Z</time>
      </trkpt>
      <trkpt lat="64.53547" lon="11.54112">
        <ele>97.539077</ele>
        <time>2020-08-11T08:38:48.964Z</time>
      </trkpt>
      <trkpt lat="64.53555" lon="11.54121">
        <ele>97.816573</ele>
        <time>2020-08-11T08:38:52.966Z</time>
      </trkpt>
      <trkpt lat="64.53565" lon="11.5413">
        <ele>97.710589</ele>
        <time>2020-08-11T08:38:56.972Z</time>
      </trkpt>
      <trkpt lat="64.53576" lon="11.54141">
        <ele>97.451096</ele>
        <time>2020-08-11T08:39:00.960Z</time>
      </trkpt>
      <trkpt lat="64.53586" lon="11.54151">
        <ele>97.182882</ele>
        <time>2020-08-11T08:39:04.956Z</time>
      </trkpt>
      <trkpt lat="64.53595" lon="11.54157">
        <ele>96.965366</ele>
        <time>2020-08-11T08:39:07.946Z</time>
      </trkpt>
      <trkpt lat="64.53604" lon="11.54163">
        <ele>96.746462</ele>
        <time>2020-08-11T08:39:10.975Z</time>
      </trkpt>
      <trkpt lat="64.53614" lon="11.54169">
        <ele>96.496406</ele>
        <time>2020-08-11T08:39:14.001Z</time>
      </trkpt>
      <trkpt lat="64.53627" lon="11.54175">
        <ele>96.192995</ele>
        <time>2020-08-11T08:39:16.951Z</time>
      </trkpt>
      <trkpt lat="64.53636" lon="11.54179">
        <ele>95.97588</ele>
        <time>2020-08-11T08:39:18.979Z</time>
      </trkpt>
      <trkpt lat="64.53647" lon="11.54183">
        <ele>95.730183</ele>
        <time>2020-08-11T08:39:20.950Z</time>
      </trkpt>
      <trkpt lat="64.53658" lon="11.54187">
        <ele>95.461055</ele>
        <time>2020-08-11T08:39:22.958Z</time>
      </trkpt>
      <trkpt lat="64.53671" lon="11.54189">
        <ele>95.167955</ele>
        <time>2020-08-11T08:39:24.990Z</time>
      </trkpt>
      <trkpt lat="64.53684" lon="11.5419">
        <ele>94.849843</ele>
        <time>2020-08-11T08:39:26.985Z</time>
      </trkpt>
      <trkpt lat="64.53699" lon="11.54189">
        <ele>94.513058</ele>
        <time>2020-08-11T08:39:28.980Z</time>
      </trkpt>
      <trkpt lat="64.53714" lon="11.54185">
        <ele>94.141454</ele>
        <time>2020-08-11T08:39:30.967Z</time>
      </trkpt>
      <trkpt lat="64.53732" lon="11.54178">
        <ele>93.726106</ele>
        <time>2020-08-11T08:39:32.960Z</time>
      </trkpt>
      <trkpt lat="64.53741" lon="11.54173">
        <ele>93.062841</ele>
        <time>2020-08-11T08:39:33.961Z</time>
      </trkpt>
      <trkpt lat="64.53751" lon="11.54168">
        <ele>92.302879</ele>
        <time>2020-08-11T08:39:34.961Z</time>
      </trkpt>
      <trkpt lat="64.53761" lon="11.54161">
        <ele>91.527989</ele>
        <time>2020-08-11T08:39:35.969Z</time>
      </trkpt>
      <trkpt lat="64.53771" lon="11.54154">
        <ele>90.724732</ele>
        <time>2020-08-11T08:39:36.976Z</time>
      </trkpt>
      <trkpt lat="64.53781" lon="11.54145">
        <ele>89.901954</ele>
        <time>2020-08-11T08:39:37.991Z</time>
      </trkpt>
      <trkpt lat="64.53791" lon="11.54136">
        <ele>89.062988</ele>
        <time>2020-08-11T08:39:38.949Z</time>
      </trkpt>
      <trkpt lat="64.53802" lon="11.54127">
        <ele>88.20391</ele>
        <time>2020-08-11T08:39:39.964Z</time>
      </trkpt>
      <trkpt lat="64.53812" lon="11.54116">
        <ele>87.332237</ele>
        <time>2020-08-11T08:39:40.981Z</time>
      </trkpt>
      <trkpt lat="64.53823" lon="11.54105">
        <ele>86.433092</ele>
        <time>2020-08-11T08:39:41.947Z</time>
      </trkpt>
      <trkpt lat="64.53834" lon="11.54094">
        <ele>85.521343</ele>
        <time>2020-08-11T08:39:42.966Z</time>
      </trkpt>
      <trkpt lat="64.53845" lon="11.54083">
        <ele>84.607699</ele>
        <time>2020-08-11T08:39:43.958Z</time>
      </trkpt>
      <trkpt lat="64.53856" lon="11.54073">
        <ele>83.702568</ele>
        <time>2020-08-11T08:39:44.961Z</time>
      </trkpt>
      <trkpt lat="64.53868" lon="11.54064">
        <ele>82.801541</ele>
        <time>2020-08-11T08:39:45.973Z</time>
      </trkpt>
      <trkpt lat="64.53879" lon="11.54056">
        <ele>81.927107</ele>
        <time>2020-08-11T08:39:46.979Z</time>
      </trkpt>
      <trkpt lat="64.5389" lon="11.5405">
        <ele>81.044283</ele>
        <time>2020-08-11T08:39:47.959Z</time>
      </trkpt>
      <trkpt lat="64.53901" lon="11.54045">
        <ele>80.15808</ele>
        <time>2020-08-11T08:39:48.968Z</time>
      </trkpt>
      <trkpt lat="64.53913" lon="11.54043">
        <ele>79.319392</ele>
        <time>2020-08-11T08:39:49.955Z</time>
      </trkpt>
      <trkpt lat="64.53925" lon="11.54041">
        <ele>78.476627</ele>
        <time>2020-08-11T08:39:50.968Z</time>
      </trkpt>
      <trkpt lat="64.53936" lon="11.54041">
        <ele>77.649828</ele>
        <time>2020-08-11T08:39:52.038Z</time>
      </trkpt>
      <trkpt lat="64.53947" lon="11.54042">
        <ele>76.844168</ele>
        <time>2020-08-11T08:39:52.975Z</time>
      </trkpt>
      <trkpt lat="64.53958" lon="11.54043">
        <ele>76.045005</ele>
        <time>2020-08-11T08:39:53.962Z</time>
      </trkpt>
      <trkpt lat="64.53969" lon="11.54045">
        <ele>75.281551</ele>
        <time>2020-08-11T08:39:54.949Z</time>
      </trkpt>
      <trkpt lat="64.53979" lon="11.54046">
        <ele>74.546155</ele>
        <time>2020-08-11T08:39:55.970Z</time>
      </trkpt>
      <trkpt lat="64.53989" lon="11.54048">
        <ele>73.826289</ele>
        <time>2020-08-11T08:39:56.980Z</time>
      </trkpt>
      <trkpt lat="64.53999" lon="11.54048">
        <ele>73.128836</ele>
        <time>2020-08-11T08:39:57.973Z</time>
      </trkpt>
      <trkpt lat="64.54008" lon="11.54048">
        <ele>72.445864</ele>
        <time>2020-08-11T08:39:58.958Z</time>
      </trkpt>
      <trkpt lat="64.54018" lon="11.54047">
        <ele>71.755149</ele>
        <time>2020-08-11T08:39:59.957Z</time>
      </trkpt>
      <trkpt lat="64.54027" lon="11.54045">
        <ele>71.077334</ele>
        <time>2020-08-11T08:40:00.981Z</time>
      </trkpt>
      <trkpt lat="64.54037" lon="11.54043">
        <ele>70.403561</ele>
        <time>2020-08-11T08:40:01.959Z</time>
      </trkpt>
      <trkpt lat="64.54046" lon="11.54039">
        <ele>69.733868</ele>
        <time>2020-08-11T08:40:03.009Z</time>
      </trkpt>
      <trkpt lat="64.54055" lon="11.54035">
        <ele>69.067503</ele>
        <time>2020-08-11T08:40:03.956Z</time>
      </trkpt>
      <trkpt lat="64.54064" lon="11.5403">
        <ele>68.393846</ele>
        <time>2020-08-11T08:40:04.967Z</time>
      </trkpt>
      <trkpt lat="64.54073" lon="11.54024">
        <ele>67.723276</ele>
        <time>2020-08-11T08:40:05.975Z</time>
      </trkpt>
      <trkpt lat="64.54082" lon="11.54018">
        <ele>67.074355</ele>
        <time>2020-08-11T08:40:06.959Z</time>
      </trkpt>
      <trkpt lat="64.54091" lon="11.54012">
        <ele>66.641988</ele>
        <time>2020-08-11T08:40:07.967Z</time>
      </trkpt>
      <trkpt lat="64.541" lon="11.54005">
        <ele>66.203408</ele>
        <time>2020-08-11T08:40:08.956Z</time>
      </trkpt>
      <trkpt lat="64.54109" lon="11.53998">
        <ele>65.754761</ele>
        <time>2020-08-11T08:40:09.948Z</time>
      </trkpt>
      <trkpt lat="64.54118" lon="11.53991">
        <ele>65.29543</ele>
        <time>2020-08-11T08:40:10.938Z</time>
      </trkpt>
      <trkpt lat="64.54128" lon="11.53984">
        <ele>64.8254</ele>
        <time>2020-08-11T08:40:11.958Z</time>
      </trkpt>
      <trkpt lat="64.54138" lon="11.53976">
        <ele>64.351574</ele>
        <time>2020-08-11T08:40:12.956Z</time>
      </trkpt>
      <trkpt lat="64.54147" lon="11.53969">
        <ele>63.873325</ele>
        <time>2020-08-11T08:40:13.979Z</time>
      </trkpt>
      <trkpt lat="64.54158" lon="11.53962">
        <ele>63.368446</ele>
        <time>2020-08-11T08:40:14.970Z</time>
      </trkpt>
      <trkpt lat="64.54169" lon="11.53954">
        <ele>62.840443</ele>
        <time>2020-08-11T08:40:15.963Z</time>
      </trkpt>
      <trkpt lat="64.54179" lon="11.53945">
        <ele>62.308599</ele>
        <time>2020-08-11T08:40:16.957Z</time>
      </trkpt>
      <trkpt lat="64.5419" lon="11.53936">
        <ele>61.769892</ele>
        <time>2020-08-11T08:40:17.966Z</time>
      </trkpt>
      <trkpt lat="64.54202" lon="11.53928">
        <ele>61.223583</ele>
        <time>2020-08-11T08:40:18.972Z</time>
      </trkpt>
      <trkpt lat="64.54213" lon="11.5392">
        <ele>60.663972</ele>
        <time>2020-08-11T08:40:19.962Z</time>
      </trkpt>
      <trkpt lat="64.54225" lon="11.53911">
        <ele>60.08241</ele>
        <time>2020-08-11T08:40:20.963Z</time>
      </trkpt>
      <trkpt lat="64.54237" lon="11.53901">
        <ele>59.486279</ele>
        <time>2020-08-11T08:40:21.976Z</time>
      </trkpt>
      <trkpt lat="64.5425" lon="11.53891">
        <ele>58.866235</ele>
        <time>2020-08-11T08:40:23.009Z</time>
      </trkpt>
      <trkpt lat="64.54263" lon="11.5388">
        <ele>57.981658</ele>
        <time>2020-08-11T08:40:23.953Z</time>
      </trkpt>
      <trkpt lat="64.54276" lon="11.5387">
        <ele>56.993676</ele>
        <time>2020-08-11T08:40:24.979Z</time>
      </trkpt>
      <trkpt lat="64.54289" lon="11.5386">
        <ele>56.00465</ele>
        <time>2020-08-11T08:40:25.969Z</time>
      </trkpt>
      <trkpt lat="64.54302" lon="11.53852">
        <ele>55.025224</ele>
        <time>2020-08-11T08:40:26.971Z</time>
      </trkpt>
      <trkpt lat="64.54316" lon="11.53844">
        <ele>54.013669</ele>
        <time>2020-08-11T08:40:27.962Z</time>
      </trkpt>
      <trkpt lat="64.54331" lon="11.53838">
        <ele>52.974362</ele>
        <time>2020-08-11T08:40:28.963Z</time>
      </trkpt>
      <trkpt lat="64.54345" lon="11.53833">
        <ele>51.944749</ele>
        <time>2020-08-11T08:40:29.970Z</time>
      </trkpt>
      <trkpt lat="64.54359" lon="11.53831">
        <ele>50.921064</ele>
        <time>2020-08-11T08:40:30.985Z</time>
      </trkpt>
      <trkpt lat="64.54374" lon="11.5383">
        <ele>49.885999</ele>
        <time>2020-08-11T08:40:31.971Z</time>
      </trkpt>
      <trkpt lat="64.54388" lon="11.53832">
        <ele>48.877667</ele>
        <time>2020-08-11T08:40:32.946Z</time>
      </trkpt>
      <trkpt lat="64.54402" lon="11.53837">
        <ele>47.87696</ele>
        <time>2020-08-11T08:40:33.969Z</time>
      </trkpt>
      <trkpt lat="64.54416" lon="11.53843">
        <ele>46.902611</ele>
        <time>2020-08-11T08:40:34.972Z</time>
      </trkpt>
      <trkpt lat="64.54429" lon="11.5385">
        <ele>45.972867</ele>
        <time>2020-08-11T08:40:35.997Z</time>
      </trkpt>
      <trkpt lat="64.54441" lon="11.53857">
        <ele>45.543325</ele>
        <time>2020-08-11T08:40:36.999Z</time>
      </trkpt>
      <trkpt lat="64.54452" lon="11.53866">
        <ele>45.130092</ele>
        <time>2020-08-11T08:40:37.952Z</time>
      </trkpt>
      <trkpt lat="64.54463" lon="11.53875">
        <ele>44.737703</ele>
        <time>2020-08-11T08:40:38.962Z</time>
      </trkpt>
      <trkpt lat="64.54473" lon="11.53884">
        <ele>44.369982</ele>
        <time>2020-08-11T08:40:39.999Z</time>
      </trkpt>
      <trkpt lat="64.54483" lon="11.53892">
        <ele>44.007535</ele>
        <time>2020-08-11T08:40:40.951Z</time>
      </trkpt>
      <trkpt lat="64.54492" lon="11.539">
        <ele>43.660552</ele>
        <time>2020-08-11T08:40:41.948Z</time>
      </trkpt>
      <trkpt lat="64.54501" lon="11.53908">
        <ele>43.324789</ele>
        <time>2020-08-11T08:40:42.968Z</time>
      </trkpt>
      <trkpt lat="64.5451" lon="11.53914">
        <ele>43.012882</ele>
        <time>2020-08-11T08:40:43.951Z</time>
      </trkpt>
      <trkpt lat="64.54527" lon="11.53925">
        <ele>42.417054</ele>
        <time>2020-08-11T08:40:45.970Z</time>
      </trkpt>
      <trkpt lat="64.54542" lon="11.53931">
        <ele>41.863625</ele>
        <time>2020-08-11T08:40:47.955Z</time>
      </trkpt>
      <trkpt lat="64.54557" lon="11.53936">
        <ele>41.343429</ele>
        <time>2020-08-11T08:40:49.961Z</time>
      </trkpt>
      <trkpt lat="64.54572" lon="11.53937">
        <ele>40.853614</ele>
        <time>2020-08-11T08:40:51.948Z</time>
      </trkpt>
      <trkpt lat="64.54584" lon="11.53938">
        <ele>40.409279</ele>
        <time>2020-08-11T08:40:53.951Z</time>
      </trkpt>
      <trkpt lat="64.54596" lon="11.53935">
        <ele>39.994311</ele>
        <time>2020-08-11T08:40:55.956Z</time>
      </trkpt>
      <trkpt lat="64.54608" lon="11.5393">
        <ele>39.836642</ele>
        <time>2020-08-11T08:40:57.953Z</time>
      </trkpt>
      <trkpt lat="64.5462" lon="11.53923">
        <ele>39.960219</ele>
        <time>2020-08-11T08:40:59.971Z</time>
      </trkpt>
      <trkpt lat="64.54633" lon="11.53916">
        <ele>40.087985</ele>
        <time>2020-08-11T08:41:02.007Z</time>
      </trkpt>
      <trkpt lat="64.54645" lon="11.53908">
        <ele>40.219525</ele>
        <time>2020-08-11T08:41:03.958Z</time>
      </trkpt>
      <trkpt lat="64.54658" lon="11.53898">
        <ele>40.350758</ele>
        <time>2020-08-11T08:41:05.962Z</time>
      </trkpt>
      <trkpt lat="64.5467" lon="11.53886">
        <ele>40.481568</ele>
        <time>2020-08-11T08:41:07.963Z</time>
      </trkpt>
      <trkpt lat="64.54682" lon="11.53871">
        <ele>40.616437</ele>
        <time>2020-08-11T08:41:09.964Z</time>
      </trkpt>
      <trkpt lat="64.54693" lon="11.53856">
        <ele>40.748763</ele>
        <time>2020-08-11T08:41:11.970Z</time>
      </trkpt>
      <trkpt lat="64.54704" lon="11.5384">
        <ele>40.87574</ele>
        <time>2020-08-11T08:41:13.959Z</time>
      </trkpt>
      <trkpt lat="64.54715" lon="11.53825">
        <ele>41.003172</ele>
        <time>2020-08-11T08:41:15.980Z</time>
      </trkpt>
      <trkpt lat="64.54724" lon="11.53808">
        <ele>41.121307</ele>
        <time>2020-08-11T08:41:17.962Z</time>
      </trkpt>
      <trkpt lat="64.54733" lon="11.53789">
        <ele>41.243897</ele>
        <time>2020-08-11T08:41:19.951Z</time>
      </trkpt>
      <trkpt lat="64.54742" lon="11.5377">
        <ele>41.360022</ele>
        <time>2020-08-11T08:41:21.978Z</time>
      </trkpt>
      <trkpt lat="64.5475" lon="11.53751">
        <ele>41.473821</ele>
        <time>2020-08-11T08:41:23.969Z</time>
      </trkpt>
      <trkpt lat="64.54757" lon="11.53732">
        <ele>41.599273</ele>
        <time>2020-08-11T08:41:25.999Z</time>
      </trkpt>
      <trkpt lat="64.54766" lon="11.53712">
        <ele>41.829449</ele>
        <time>2020-08-11T08:41:27.961Z</time>
      </trkpt>
      <trkpt lat="64.54773" lon="11.53693">
        <ele>42.042606</ele>
        <time>2020-08-11T08:41:29.960Z</time>
      </trkpt>
      <trkpt lat="64.54779" lon="11.53673">
        <ele>42.255329</ele>
        <time>2020-08-11T08:41:31.955Z</time>
      </trkpt>
      <trkpt lat="64.54786" lon="11.53652">
        <ele>42.470712</ele>
        <time>2020-08-11T08:41:33.953Z</time>
      </trkpt>
      <trkpt lat="64.54793" lon="11.53632">
        <ele>42.688352</ele>
        <time>2020-08-11T08:41:35.991Z</time>
      </trkpt>
      <trkpt lat="64.548" lon="11.53614">
        <ele>42.895188</ele>
        <time>2020-08-11T08:41:37.954Z</time>
      </trkpt>
      <trkpt lat="64.54807" lon="11.53594">
        <ele>43.106188</ele>
        <time>2020-08-11T08:41:39.992Z</time>
      </trkpt>
      <trkpt lat="64.54812" lon="11.53574">
        <ele>43.313061</ele>
        <time>2020-08-11T08:41:41.976Z</time>
      </trkpt>
      <trkpt lat="64.54818" lon="11.53553">
        <ele>43.511495</ele>
        <time>2020-08-11T08:41:43.972Z</time>
      </trkpt>
      <trkpt lat="64.54823" lon="11.53533">
        <ele>43.714708</ele>
        <time>2020-08-11T08:41:45.952Z</time>
      </trkpt>
      <trkpt lat="64.54829" lon="11.53512">
        <ele>43.921243</ele>
        <time>2020-08-11T08:41:47.957Z</time>
      </trkpt>
      <trkpt lat="64.54834" lon="11.53491">
        <ele>44.125444</ele>
        <time>2020-08-11T08:41:49.979Z</time>
      </trkpt>
      <trkpt lat="64.54839" lon="11.53471">
        <ele>44.321361</ele>
        <time>2020-08-11T08:41:51.990Z</time>
      </trkpt>
      <trkpt lat="64.54844" lon="11.5345">
        <ele>44.520023</ele>
        <time>2020-08-11T08:41:53.962Z</time>
      </trkpt>
      <trkpt lat="64.54848" lon="11.5343">
        <ele>44.710099</ele>
        <time>2020-08-11T08:41:55.953Z</time>
      </trkpt>
      <trkpt lat="64.54853" lon="11.53411">
        <ele>44.900656</ele>
        <time>2020-08-11T08:41:57.977Z</time>
      </trkpt>
      <trkpt lat="64.54858" lon="11.53389">
        <ele>45.099699</ele>
        <time>2020-08-11T08:41:59.976Z</time>
      </trkpt>
      <trkpt lat="64.54862" lon="11.53368">
        <ele>45.291495</ele>
        <time>2020-08-11T08:42:01.978Z</time>
      </trkpt>
      <trkpt lat="64.54867" lon="11.53348">
        <ele>45.479437</ele>
        <time>2020-08-11T08:42:03.970Z</time>
      </trkpt>
      <trkpt lat="64.54872" lon="11.53327">
        <ele>45.666033</ele>
        <time>2020-08-11T08:42:06.003Z</time>
      </trkpt>
      <trkpt lat="64.54876" lon="11.53307">
        <ele>45.845043</ele>
        <time>2020-08-11T08:42:08.028Z</time>
      </trkpt>
      <trkpt lat="64.5488" lon="11.53289">
        <ele>46.017632</ele>
        <time>2020-08-11T08:42:09.964Z</time>
      </trkpt>
      <trkpt lat="64.54885" lon="11.5327">
        <ele>46.19056</ele>
        <time>2020-08-11T08:42:11.956Z</time>
      </trkpt>
      <trkpt lat="64.54889" lon="11.53252">
        <ele>46.364079</ele>
        <time>2020-08-11T08:42:13.950Z</time>
      </trkpt>
      <trkpt lat="64.54894" lon="11.53233">
        <ele>46.545908</ele>
        <time>2020-08-11T08:42:15.968Z</time>
      </trkpt>
      <trkpt lat="64.54899" lon="11.53213">
        <ele>46.728189</ele>
        <time>2020-08-11T08:42:17.958Z</time>
      </trkpt>
      <trkpt lat="64.54905" lon="11.53195">
        <ele>46.909327</ele>
        <time>2020-08-11T08:42:19.990Z</time>
      </trkpt>
      <trkpt lat="64.5491" lon="11.53176">
        <ele>47.090735</ele>
        <time>2020-08-11T08:42:21.988Z</time>
      </trkpt>
      <trkpt lat="64.54915" lon="11.53156">
        <ele>47.277015</ele>
        <time>2020-08-11T08:42:23.997Z</time>
      </trkpt>
      <trkpt lat="64.54919" lon="11.53137">
        <ele>47.459295</ele>
        <time>2020-08-11T08:42:25.967Z</time>
      </trkpt>
      <trkpt lat="64.54925" lon="11.53117">
        <ele>47.643763</ele>
        <time>2020-08-11T08:42:27.942Z</time>
      </trkpt>
      <trkpt lat="64.5493" lon="11.53098">
        <ele>47.832653</ele>
        <time>2020-08-11T08:42:29.941Z</time>
      </trkpt>
      <trkpt lat="64.54936" lon="11.53079">
        <ele>48.02373</ele>
        <time>2020-08-11T08:42:31.956Z</time>
      </trkpt>
      <trkpt lat="64.54943" lon="11.5306">
        <ele>48.226795</ele>
        <time>2020-08-11T08:42:33.955Z</time>
      </trkpt>
      <trkpt lat="64.54949" lon="11.5304">
        <ele>48.423088</ele>
        <time>2020-08-11T08:42:35.951Z</time>
      </trkpt>
      <trkpt lat="64.54955" lon="11.53021">
        <ele>48.650444</ele>
        <time>2020-08-11T08:42:37.949Z</time>
      </trkpt>
      <trkpt lat="64.54961" lon="11.53005">
        <ele>48.876647</ele>
        <time>2020-08-11T08:42:39.955Z</time>
      </trkpt>
      <trkpt lat="64.54967" lon="11.52988">
        <ele>49.111552</ele>
        <time>2020-08-11T08:42:41.980Z</time>
      </trkpt>
      <trkpt lat="64.54975" lon="11.52965">
        <ele>49.426068</ele>
        <time>2020-08-11T08:42:44.959Z</time>
      </trkpt>
      <trkpt lat="64.54983" lon="11.52944">
        <ele>49.72452</ele>
        <time>2020-08-11T08:42:47.960Z</time>
      </trkpt>
      <trkpt lat="64.54992" lon="11.52923">
        <ele>50.035848</ele>
        <time>2020-08-11T08:42:51.000Z</time>
      </trkpt>
      <trkpt lat="64.55001" lon="11.52904">
        <ele>50.335776</ele>
        <time>2020-08-11T08:42:53.963Z</time>
      </trkpt>
      <trkpt lat="64.55011" lon="11.52886">
        <ele>50.649824</ele>
        <time>2020-08-11T08:42:56.964Z</time>
      </trkpt>
      <trkpt lat="64.5502" lon="11.52869">
        <ele>50.928184</ele>
        <time>2020-08-11T08:42:59.969Z</time>
      </trkpt>
      <trkpt lat="64.5503" lon="11.52853">
        <ele>51.230138</ele>
        <time>2020-08-11T08:43:02.979Z</time>
      </trkpt>
      <trkpt lat="64.5504" lon="11.52836">
        <ele>51.53962</ele>
        <time>2020-08-11T08:43:05.986Z</time>
      </trkpt>
      <trkpt lat="64.5505" lon="11.52822">
        <ele>51.824174</ele>
        <time>2020-08-11T08:43:08.964Z</time>
      </trkpt>
      <trkpt lat="64.5506" lon="11.52808">
        <ele>52.121788</ele>
        <time>2020-08-11T08:43:11.962Z</time>
      </trkpt>
      <trkpt lat="64.55071" lon="11.52794">
        <ele>52.433915</ele>
        <time>2020-08-11T08:43:14.961Z</time>
      </trkpt>
      <trkpt lat="64.55082" lon="11.52779">
        <ele>52.730993</ele>
        <time>2020-08-11T08:43:17.959Z</time>
      </trkpt>
      <trkpt lat="64.55092" lon="11.52766">
        <ele>52.889342</ele>
        <time>2020-08-11T08:43:20.969Z</time>
      </trkpt>
      <trkpt lat="64.55102" lon="11.52754">
        <ele>52.734523</ele>
        <time>2020-08-11T08:43:23.979Z</time>
      </trkpt>
      <trkpt lat="64.55113" lon="11.5274">
        <ele>52.563064</ele>
        <time>2020-08-11T08:43:26.966Z</time>
      </trkpt>
      <trkpt lat="64.55124" lon="11.52728">
        <ele>52.402377</ele>
        <time>2020-08-11T08:43:29.951Z</time>
      </trkpt>
      <trkpt lat="64.55134" lon="11.52715">
        <ele>52.245543</ele>
        <time>2020-08-11T08:43:32.966Z</time>
      </trkpt>
      <trkpt lat="64.55145" lon="11.52701">
        <ele>52.077685</ele>
        <time>2020-08-11T08:43:35.960Z</time>
      </trkpt>
      <trkpt lat="64.55157" lon="11.52689">
        <ele>51.901547</ele>
        <time>2020-08-11T08:43:38.962Z</time>
      </trkpt>
      <trkpt lat="64.55169" lon="11.52681">
        <ele>51.730218</ele>
        <time>2020-08-11T08:43:41.968Z</time>
      </trkpt>
      <trkpt lat="64.55182" lon="11.52675">
        <ele>51.557979</ele>
        <time>2020-08-11T08:43:44.996Z</time>
      </trkpt>
      <trkpt lat="64.55191" lon="11.52674">
        <ele>51.426915</ele>
        <time>2020-08-11T08:43:46.949Z</time>
      </trkpt>
      <trkpt lat="64.55205" lon="11.52671">
        <ele>51.243855</ele>
        <time>2020-08-11T08:43:49.968Z</time>
      </trkpt>
      <trkpt lat="64.55218" lon="11.52667">
        <ele>51.064755</ele>
        <time>2020-08-11T08:43:52.948Z</time>
      </trkpt>
      <trkpt lat="64.55228" lon="11.52666">
        <ele>50.93788</ele>
        <time>2020-08-11T08:43:54.945Z</time>
      </trkpt>
      <trkpt lat="64.55237" lon="11.52666">
        <ele>50.807056</ele>
        <time>2020-08-11T08:43:56.965Z</time>
      </trkpt>
      <trkpt lat="64.55247" lon="11.52665">
        <ele>50.678782</ele>
        <time>2020-08-11T08:43:58.976Z</time>
      </trkpt>
      <trkpt lat="64.55256" lon="11.52663">
        <ele>50.555711</ele>
        <time>2020-08-11T08:44:00.948Z</time>
      </trkpt>
      <trkpt lat="64.55265" lon="11.52662">
        <ele>50.502123</ele>
        <time>2020-08-11T08:44:02.979Z</time>
      </trkpt>
      <trkpt lat="64.55275" lon="11.52662">
        <ele>50.494115</ele>
        <time>2020-08-11T08:44:04.972Z</time>
      </trkpt>
      <trkpt lat="64.55284" lon="11.52662">
        <ele>50.485929</ele>
        <time>2020-08-11T08:44:06.971Z</time>
      </trkpt>
      <trkpt lat="64.55294" lon="11.52661">
        <ele>50.477567</ele>
        <time>2020-08-11T08:44:08.951Z</time>
      </trkpt>
      <trkpt lat="64.55303" lon="11.52659">
        <ele>50.469459</ele>
        <time>2020-08-11T08:44:10.956Z</time>
      </trkpt>
      <trkpt lat="64.55316" lon="11.52657">
        <ele>50.458288</ele>
        <time>2020-08-11T08:44:13.983Z</time>
      </trkpt>
      <trkpt lat="64.55328" lon="11.52655">
        <ele>50.447714</ele>
        <time>2020-08-11T08:44:16.969Z</time>
      </trkpt>
      <trkpt lat="64.55339" lon="11.52653">
        <ele>50.437587</ele>
        <time>2020-08-11T08:44:19.966Z</time>
      </trkpt>
      <trkpt lat="64.5535" lon="11.52651">
        <ele>50.427899</ele>
        <time>2020-08-11T08:44:22.961Z</time>
      </trkpt>
      <trkpt lat="64.55361" lon="11.52649">
        <ele>50.418484</ele>
        <time>2020-08-11T08:44:25.954Z</time>
      </trkpt>
      <trkpt lat="64.55371" lon="11.52648">
        <ele>50.409944</ele>
        <time>2020-08-11T08:44:28.981Z</time>
      </trkpt>
      <trkpt lat="64.5538" lon="11.52647">
        <ele>50.402006</ele>
        <time>2020-08-11T08:44:31.961Z</time>
      </trkpt>
      <trkpt lat="64.55389" lon="11.52645">
        <ele>50.39414</ele>
        <time>2020-08-11T08:44:34.989Z</time>
      </trkpt>
      <trkpt lat="64.554" lon="11.52642">
        <ele>50.384249</ele>
        <time>2020-08-11T08:44:38.981Z</time>
      </trkpt>
      <trkpt lat="64.5541" lon="11.52642">
        <ele>50.375632</ele>
        <time>2020-08-11T08:44:42.969Z</time>
      </trkpt>
      <trkpt lat="64.55421" lon="11.52642">
        <ele>50.366492</ele>
        <time>2020-08-11T08:44:46.962Z</time>
      </trkpt>
      <trkpt lat="64.55432" lon="11.5264">
        <ele>50.357065</ele>
        <time>2020-08-11T08:44:50.955Z</time>
      </trkpt>
      <trkpt lat="64.55442" lon="11.52639">
        <ele>50.48504</ele>
        <time>2020-08-11T08:44:54.951Z</time>
      </trkpt>
      <trkpt lat="64.55453" lon="11.52635">
        <ele>50.917732</ele>
        <time>2020-08-11T08:44:58.983Z</time>
      </trkpt>
      <trkpt lat="64.55464" lon="11.5263">
        <ele>51.369846</ele>
        <time>2020-08-11T08:45:02.978Z</time>
      </trkpt>
      <trkpt lat="64.55475" lon="11.52625">
        <ele>51.83418</ele>
        <time>2020-08-11T08:45:06.985Z</time>
      </trkpt>
      <trkpt lat="64.55485" lon="11.52619">
        <ele>52.264989</ele>
        <time>2020-08-11T08:45:10.952Z</time>
      </trkpt>
      <trkpt lat="64.55496" lon="11.5261">
        <ele>52.697378</ele>
        <time>2020-08-11T08:45:14.965Z</time>
      </trkpt>
      <trkpt lat="64.55505" lon="11.52599">
        <ele>53.138876</ele>
        <time>2020-08-11T08:45:18.972Z</time>
      </trkpt>
      <trkpt lat="64.55514" lon="11.52588">
        <ele>53.540223</ele>
        <time>2020-08-11T08:45:22.990Z</time>
      </trkpt>
      <trkpt lat="64.55522" lon="11.52571">
        <ele>53.967554</ele>
        <time>2020-08-11T08:45:27.000Z</time>
      </trkpt>
      <trkpt lat="64.55529" lon="11.52558">
        <ele>54.340787</ele>
        <time>2020-08-11T08:45:29.965Z</time>
      </trkpt>
      <trkpt lat="64.55536" lon="11.52539">
        <ele>54.767042</ele>
        <time>2020-08-11T08:45:33.945Z</time>
      </trkpt>
      <trkpt lat="64.55543" lon="11.52519">
        <ele>55.206547</ele>
        <time>2020-08-11T08:45:37.960Z</time>
      </trkpt>
      <trkpt lat="64.55549" lon="11.52496">
        <ele>55.685494</ele>
        <time>2020-08-11T08:45:41.943Z</time>
      </trkpt>
      <trkpt lat="64.55553" lon="11.52476">
        <ele>56.061694</ele>
        <time>2020-08-11T08:45:44.993Z</time>
      </trkpt>
      <trkpt lat="64.55557" lon="11.52455">
        <ele>56.463801</ele>
        <time>2020-08-11T08:45:47.983Z</time>
      </trkpt>
      <trkpt lat="64.55563" lon="11.52431">
        <ele>56.936854</ele>
        <time>2020-08-11T08:45:50.949Z</time>
      </trkpt>
      <trkpt lat="64.55568" lon="11.52406">
        <ele>57.430172</ele>
        <time>2020-08-11T08:45:53.966Z</time>
      </trkpt>
      <trkpt lat="64.55575" lon="11.52379">
        <ele>57.311761</ele>
        <time>2020-08-11T08:45:56.969Z</time>
      </trkpt>
      <trkpt lat="64.5558" lon="11.52361">
        <ele>56.992533</ele>
        <time>2020-08-11T08:45:58.971Z</time>
      </trkpt>
      <trkpt lat="64.55586" lon="11.52343">
        <ele>56.652253</ele>
        <time>2020-08-11T08:46:00.968Z</time>
      </trkpt>
      <trkpt lat="64.55593" lon="11.52327">
        <ele>56.314704</ele>
        <time>2020-08-11T08:46:02.971Z</time>
      </trkpt>
      <trkpt lat="64.55601" lon="11.52311">
        <ele>55.960156</ele>
        <time>2020-08-11T08:46:04.960Z</time>
      </trkpt>
      <trkpt lat="64.5561" lon="11.52296">
        <ele>55.599015</ele>
        <time>2020-08-11T08:46:06.949Z</time>
      </trkpt>
      <trkpt lat="64.55619" lon="11.52282">
        <ele>55.218404</ele>
        <time>2020-08-11T08:46:08.990Z</time>
      </trkpt>
      <trkpt lat="64.55629" lon="11.5227">
        <ele>54.848095</ele>
        <time>2020-08-11T08:46:10.976Z</time>
      </trkpt>
      <trkpt lat="64.55638" lon="11.52257">
        <ele>54.488797</ele>
        <time>2020-08-11T08:46:12.959Z</time>
      </trkpt>
      <trkpt lat="64.55647" lon="11.52244">
        <ele>54.12504</ele>
        <time>2020-08-11T08:46:14.970Z</time>
      </trkpt>
      <trkpt lat="64.55655" lon="11.5223">
        <ele>53.774722</ele>
        <time>2020-08-11T08:46:16.956Z</time>
      </trkpt>
      <trkpt lat="64.55664" lon="11.52207">
        <ele>53.316808</ele>
        <time>2020-08-11T08:46:19.967Z</time>
      </trkpt>
      <trkpt lat="64.55671" lon="11.5219">
        <ele>52.969143</ele>
        <time>2020-08-11T08:46:21.987Z</time>
      </trkpt>
      <trkpt lat="64.55677" lon="11.5217">
        <ele>52.597718</ele>
        <time>2020-08-11T08:46:23.961Z</time>
      </trkpt>
      <trkpt lat="64.55683" lon="11.52149">
        <ele>52.233428</ele>
        <time>2020-08-11T08:46:25.976Z</time>
      </trkpt>
      <trkpt lat="64.55689" lon="11.5213">
        <ele>51.880573</ele>
        <time>2020-08-11T08:46:27.974Z</time>
      </trkpt>
      <trkpt lat="64.55695" lon="11.5211">
        <ele>51.528516</ele>
        <time>2020-08-11T08:46:29.992Z</time>
      </trkpt>
      <trkpt lat="64.55701" lon="11.52092">
        <ele>51.567616</ele>
        <time>2020-08-11T08:46:31.968Z</time>
      </trkpt>
      <trkpt lat="64.55707" lon="11.52074">
        <ele>51.699466</ele>
        <time>2020-08-11T08:46:33.958Z</time>
      </trkpt>
      <trkpt lat="64.55714" lon="11.52056">
        <ele>51.834203</ele>
        <time>2020-08-11T08:46:35.999Z</time>
      </trkpt>
      <trkpt lat="64.5572" lon="11.52039">
        <ele>51.967169</ele>
        <time>2020-08-11T08:46:37.967Z</time>
      </trkpt>
      <trkpt lat="64.55727" lon="11.52023">
        <ele>52.096256</ele>
        <time>2020-08-11T08:46:39.952Z</time>
      </trkpt>
      <trkpt lat="64.55733" lon="11.52007">
        <ele>52.226272</ele>
        <time>2020-08-11T08:46:41.958Z</time>
      </trkpt>
      <trkpt lat="64.55741" lon="11.51992">
        <ele>52.359669</ele>
        <time>2020-08-11T08:46:43.960Z</time>
      </trkpt>
      <trkpt lat="64.55749" lon="11.51978">
        <ele>52.493907</ele>
        <time>2020-08-11T08:46:45.960Z</time>
      </trkpt>
      <trkpt lat="64.55756" lon="11.51965">
        <ele>52.625389</ele>
        <time>2020-08-11T08:46:47.962Z</time>
      </trkpt>
      <trkpt lat="64.55764" lon="11.51952">
        <ele>52.756198</ele>
        <time>2020-08-11T08:46:49.956Z</time>
      </trkpt>
      <trkpt lat="64.55776" lon="11.51937">
        <ele>52.931956</ele>
        <time>2020-08-11T08:46:52.960Z</time>
      </trkpt>
      <trkpt lat="64.55787" lon="11.51926">
        <ele>53.104044</ele>
        <time>2020-08-11T08:46:55.962Z</time>
      </trkpt>
      <trkpt lat="64.55799" lon="11.51917">
        <ele>53.26779</ele>
        <time>2020-08-11T08:46:59.000Z</time>
      </trkpt>
      <trkpt lat="64.5581" lon="11.5191">
        <ele>53.42091</ele>
        <time>2020-08-11T08:47:01.989Z</time>
      </trkpt>
      <trkpt lat="64.5582" lon="11.51904">
        <ele>53.561515</ele>
        <time>2020-08-11T08:47:04.967Z</time>
      </trkpt>
      <trkpt lat="64.5583" lon="11.519">
        <ele>53.697924</ele>
        <time>2020-08-11T08:47:07.977Z</time>
      </trkpt>
      <trkpt lat="64.5584" lon="11.51895">
        <ele>53.83392</ele>
        <time>2020-08-11T08:47:10.963Z</time>
      </trkpt>
      <trkpt lat="64.55851" lon="11.5189">
        <ele>54.491871</ele>
        <time>2020-08-11T08:47:14.934Z</time>
      </trkpt>
      <trkpt lat="64.55861" lon="11.51884">
        <ele>55.476692</ele>
        <time>2020-08-11T08:47:18.989Z</time>
      </trkpt>
      <trkpt lat="64.55871" lon="11.51877">
        <ele>56.447037</ele>
        <time>2020-08-11T08:47:22.962Z</time>
      </trkpt>
      <trkpt lat="64.55881" lon="11.51869">
        <ele>57.384315</ele>
        <time>2020-08-11T08:47:26.958Z</time>
      </trkpt>
      <trkpt lat="64.5589" lon="11.51859">
        <ele>58.314937</ele>
        <time>2020-08-11T08:47:30.965Z</time>
      </trkpt>
      <trkpt lat="64.55899" lon="11.51849">
        <ele>59.197181</ele>
        <time>2020-08-11T08:47:34.946Z</time>
      </trkpt>
      <trkpt lat="64.55908" lon="11.51839">
        <ele>60.102703</ele>
        <time>2020-08-11T08:47:38.955Z</time>
      </trkpt>
      <trkpt lat="64.55916" lon="11.51828">
        <ele>60.970396</ele>
        <time>2020-08-11T08:47:42.953Z</time>
      </trkpt>
      <trkpt lat="64.55923" lon="11.51812">
        <ele>61.831509</ele>
        <time>2020-08-11T08:47:46.961Z</time>
      </trkpt>
      <trkpt lat="64.55929" lon="11.51796">
        <ele>62.721353</ele>
        <time>2020-08-11T08:47:50.983Z</time>
      </trkpt>
      <trkpt lat="64.55936" lon="11.5178">
        <ele>63.614827</ele>
        <time>2020-08-11T08:47:54.956Z</time>
      </trkpt>
      <trkpt lat="64.55942" lon="11.51761">
        <ele>64.547611</ele>
        <time>2020-08-11T08:47:58.945Z</time>
      </trkpt>
      <trkpt lat="64.55949" lon="11.51741">
        <ele>65.534674</ele>
        <time>2020-08-11T08:48:03.000Z</time>
      </trkpt>
      <trkpt lat="64.55954" lon="11.51719">
        <ele>66.523908</ele>
        <time>2020-08-11T08:48:06.991Z</time>
      </trkpt>
      <trkpt lat="64.5596" lon="11.51697">
        <ele>67.53194</ele>
        <time>2020-08-11T08:48:10.969Z</time>
      </trkpt>
      <trkpt lat="64.55965" lon="11.51673">
        <ele>68.606112</ele>
        <time>2020-08-11T08:48:14.958Z</time>
      </trkpt>
      <trkpt lat="64.5597" lon="11.51649">
        <ele>69.629348</ele>
        <time>2020-08-11T08:48:17.960Z</time>
      </trkpt>
      <trkpt lat="64.55974" lon="11.51622">
        <ele>70.078435</ele>
        <time>2020-08-11T08:48:20.980Z</time>
      </trkpt>
      <trkpt lat="64.55977" lon="11.516">
        <ele>69.478854</ele>
        <time>2020-08-11T08:48:22.958Z</time>
      </trkpt>
      <trkpt lat="64.5598" lon="11.51576">
        <ele>68.817199</ele>
        <time>2020-08-11T08:48:24.960Z</time>
      </trkpt>
      <trkpt lat="64.55983" lon="11.51551">
        <ele>68.146779</ele>
        <time>2020-08-11T08:48:26.967Z</time>
      </trkpt>
      <trkpt lat="64.55986" lon="11.51526">
        <ele>67.46969</ele>
        <time>2020-08-11T08:48:28.970Z</time>
      </trkpt>
      <trkpt lat="64.55988" lon="11.515">
        <ele>66.77336</ele>
        <time>2020-08-11T08:48:30.957Z</time>
      </trkpt>
      <trkpt lat="64.55991" lon="11.51473">
        <ele>66.054465</ele>
        <time>2020-08-11T08:48:32.960Z</time>
      </trkpt>
      <trkpt lat="64.55996" lon="11.51446">
        <ele>65.286575</ele>
        <time>2020-08-11T08:48:34.986Z</time>
      </trkpt>
      <trkpt lat="64.56001" lon="11.51419">
        <ele>64.509725</ele>
        <time>2020-08-11T08:48:36.983Z</time>
      </trkpt>
      <trkpt lat="64.56008" lon="11.51392">
        <ele>63.688018</ele>
        <time>2020-08-11T08:48:38.958Z</time>
      </trkpt>
      <trkpt lat="64.56016" lon="11.51366">
        <ele>62.835781</ele>
        <time>2020-08-11T08:48:41.023Z</time>
      </trkpt>
      <trkpt lat="64.56026" lon="11.5134">
        <ele>61.955282</ele>
        <time>2020-08-11T08:48:42.955Z</time>
      </trkpt>
      <trkpt lat="64.56035" lon="11.51314">
        <ele>61.068902</ele>
        <time>2020-08-11T08:48:44.967Z</time>
      </trkpt>
      <trkpt lat="64.56045" lon="11.51288">
        <ele>60.178361</ele>
        <time>2020-08-11T08:48:46.952Z</time>
      </trkpt>
      <trkpt lat="64.56055" lon="11.51261">
        <ele>59.391061</ele>
        <time>2020-08-11T08:48:48.971Z</time>
      </trkpt>
      <trkpt lat="64.56064" lon="11.51236">
        <ele>59.198996</ele>
        <time>2020-08-11T08:48:50.950Z</time>
      </trkpt>
      <trkpt lat="64.56073" lon="11.51212">
        <ele>59.020714</ele>
        <time>2020-08-11T08:48:52.979Z</time>
      </trkpt>
      <trkpt lat="64.5608" lon="11.51188">
        <ele>58.858086</ele>
        <time>2020-08-11T08:48:54.980Z</time>
      </trkpt>
      <trkpt lat="64.56086" lon="11.51166">
        <ele>58.708359</ele>
        <time>2020-08-11T08:48:56.980Z</time>
      </trkpt>
      <trkpt lat="64.56092" lon="11.51145">
        <ele>58.569949</ele>
        <time>2020-08-11T08:48:58.981Z</time>
      </trkpt>
      <trkpt lat="64.56097" lon="11.51123">
        <ele>58.429706</ele>
        <time>2020-08-11T08:49:00.962Z</time>
      </trkpt>
      <trkpt lat="64.56101" lon="11.51101">
        <ele>58.292151</ele>
        <time>2020-08-11T08:49:02.964Z</time>
      </trkpt>
      <trkpt lat="64.56104" lon="11.51079">
        <ele>58.16168</ele>
        <time>2020-08-11T08:49:04.973Z</time>
      </trkpt>
      <trkpt lat="64.56106" lon="11.51056">
        <ele>58.031071</ele>
        <time>2020-08-11T08:49:06.971Z</time>
      </trkpt>
      <trkpt lat="64.56108" lon="11.51033">
        <ele>57.896875</ele>
        <time>2020-08-11T08:49:08.965Z</time>
      </trkpt>
      <trkpt lat="64.56108" lon="11.51009">
        <ele>57.764032</ele>
        <time>2020-08-11T08:49:10.982Z</time>
      </trkpt>
      <trkpt lat="64.56108" lon="11.50986">
        <ele>57.633386</ele>
        <time>2020-08-11T08:49:12.952Z</time>
      </trkpt>
      <trkpt lat="64.56106" lon="11.50964">
        <ele>57.50608</ele>
        <time>2020-08-11T08:49:14.961Z</time>
      </trkpt>
      <trkpt lat="64.56103" lon="11.50944">
        <ele>57.384622</ele>
        <time>2020-08-11T08:49:16.957Z</time>
      </trkpt>
      <trkpt lat="64.561" lon="11.50923">
        <ele>57.25997</ele>
        <time>2020-08-11T08:49:18.944Z</time>
      </trkpt>
      <trkpt lat="64.56096" lon="11.50904">
        <ele>57.136921</ele>
        <time>2020-08-11T08:49:20.990Z</time>
      </trkpt>
      <trkpt lat="64.56092" lon="11.50883">
        <ele>56.983185</ele>
        <time>2020-08-11T08:49:22.959Z</time>
      </trkpt>
      <trkpt lat="64.56088" lon="11.50862">
        <ele>56.786558</ele>
        <time>2020-08-11T08:49:24.982Z</time>
      </trkpt>
      <trkpt lat="64.56085" lon="11.5084">
        <ele>56.582514</ele>
        <time>2020-08-11T08:49:26.989Z</time>
      </trkpt>
      <trkpt lat="64.56083" lon="11.50817">
        <ele>56.37882</ele>
        <time>2020-08-11T08:49:28.962Z</time>
      </trkpt>
      <trkpt lat="64.56081" lon="11.50794">
        <ele>56.172988</ele>
        <time>2020-08-11T08:49:30.976Z</time>
      </trkpt>
      <trkpt lat="64.56079" lon="11.5077">
        <ele>55.968892</ele>
        <time>2020-08-11T08:49:32.960Z</time>
      </trkpt>
      <trkpt lat="64.56079" lon="11.50748">
        <ele>55.770351</ele>
        <time>2020-08-11T08:49:34.961Z</time>
      </trkpt>
      <trkpt lat="64.56079" lon="11.50726">
        <ele>55.586303</ele>
        <time>2020-08-11T08:49:36.955Z</time>
      </trkpt>
      <trkpt lat="64.56081" lon="11.50706">
        <ele>55.403596</ele>
        <time>2020-08-11T08:49:38.947Z</time>
      </trkpt>
      <trkpt lat="64.56083" lon="11.50676">
        <ele>55.144354</ele>
        <time>2020-08-11T08:49:41.961Z</time>
      </trkpt>
      <trkpt lat="64.56087" lon="11.5065">
        <ele>54.905113</ele>
        <time>2020-08-11T08:49:44.988Z</time>
      </trkpt>
      <trkpt lat="64.56092" lon="11.50628">
        <ele>54.693247</ele>
        <time>2020-08-11T08:49:47.972Z</time>
      </trkpt>
      <trkpt lat="64.56099" lon="11.50608">
        <ele>54.468876</ele>
        <time>2020-08-11T08:49:51.970Z</time>
      </trkpt>
      <trkpt lat="64.56105" lon="11.50593">
        <ele>54.279078</ele>
        <time>2020-08-11T08:49:55.963Z</time>
      </trkpt>
      <trkpt lat="64.56113" lon="11.50581">
        <ele>54.090532</ele>
        <time>2020-08-11T08:49:59.960Z</time>
      </trkpt>
      <trkpt lat="64.56121" lon="11.50568">
        <ele>53.90778</ele>
        <time>2020-08-11T08:50:03.969Z</time>
      </trkpt>
      <trkpt lat="64.56129" lon="11.50553">
        <ele>53.686282</ele>
        <time>2020-08-11T08:50:08.970Z</time>
      </trkpt>
      <trkpt lat="64.56138" lon="11.50542">
        <ele>53.497966</ele>
        <time>2020-08-11T08:50:12.954Z</time>
      </trkpt>
      <trkpt lat="64.56145" lon="11.50531">
        <ele>53.887035</ele>
        <time>2020-08-11T08:50:16.957Z</time>
      </trkpt>
      <trkpt lat="64.56153" lon="11.50519">
        <ele>54.589673</ele>
        <time>2020-08-11T08:50:20.964Z</time>
      </trkpt>
      <trkpt lat="64.5616" lon="11.50508">
        <ele>55.280806</ele>
        <time>2020-08-11T08:50:24.966Z</time>
      </trkpt>
      <trkpt lat="64.56169" lon="11.50493">
        <ele>56.110534</ele>
        <time>2020-08-11T08:50:29.965Z</time>
      </trkpt>
      <trkpt lat="64.56179" lon="11.5048">
        <ele>56.926661</ele>
        <time>2020-08-11T08:50:34.987Z</time>
      </trkpt>
      <trkpt lat="64.56187" lon="11.5047">
        <ele>57.624816</ele>
        <time>2020-08-11T08:50:38.959Z</time>
      </trkpt>
      <trkpt lat="64.56196" lon="11.50457">
        <ele>58.442992</ele>
        <time>2020-08-11T08:50:43.970Z</time>
      </trkpt>
      <trkpt lat="64.56205" lon="11.50443">
        <ele>59.279931</ele>
        <time>2020-08-11T08:50:48.980Z</time>
      </trkpt>
      <trkpt lat="64.56215" lon="11.50429">
        <ele>60.139598</ele>
        <time>2020-08-11T08:50:53.963Z</time>
      </trkpt>
      <trkpt lat="64.56224" lon="11.50415">
        <ele>60.981944</ele>
        <time>2020-08-11T08:50:58.944Z</time>
      </trkpt>
      <trkpt lat="64.56231" lon="11.504">
        <ele>61.710526</ele>
        <time>2020-08-11T08:51:02.966Z</time>
      </trkpt>
      <trkpt lat="64.56238" lon="11.50383">
        <ele>62.500768</ele>
        <time>2020-08-11T08:51:07.950Z</time>
      </trkpt>
      <trkpt lat="64.56245" lon="11.50363">
        <ele>63.325202</ele>
        <time>2020-08-11T08:51:12.952Z</time>
      </trkpt>
      <trkpt lat="64.5625" lon="11.50341">
        <ele>64.14689</ele>
        <time>2020-08-11T08:51:17.949Z</time>
      </trkpt>
      <trkpt lat="64.56254" lon="11.5032">
        <ele>64.87424</ele>
        <time>2020-08-11T08:51:21.994Z</time>
      </trkpt>
      <trkpt lat="64.56256" lon="11.50297">
        <ele>65.678193</ele>
        <time>2020-08-11T08:51:25.969Z</time>
      </trkpt>
      <trkpt lat="64.56259" lon="11.50273">
        <ele>66.472883</ele>
        <time>2020-08-11T08:51:29.988Z</time>
      </trkpt>
      <trkpt lat="64.5626" lon="11.5025">
        <ele>67.090885</ele>
        <time>2020-08-11T08:51:33.971Z</time>
      </trkpt>
      <trkpt lat="64.56262" lon="11.50226">
        <ele>66.713221</ele>
        <time>2020-08-11T08:51:37.970Z</time>
      </trkpt>
      <trkpt lat="64.56262" lon="11.50201">
        <ele>66.345866</ele>
        <time>2020-08-11T08:51:41.964Z</time>
      </trkpt>
      <trkpt lat="64.5626" lon="11.5018">
        <ele>66.016978</ele>
        <time>2020-08-11T08:51:45.985Z</time>
      </trkpt>
      <trkpt lat="64.56254" lon="11.5016">
        <ele>65.657307</ele>
        <time>2020-08-11T08:51:49.979Z</time>
      </trkpt>
      <trkpt lat="64.56253" lon="11.50135">
        <ele>65.271024</ele>
        <time>2020-08-11T08:51:53.970Z</time>
      </trkpt>
      <trkpt lat="64.56251" lon="11.5011">
        <ele>64.887232</ele>
        <time>2020-08-11T08:51:57.962Z</time>
      </trkpt>
      <trkpt lat="64.56246" lon="11.50088">
        <ele>64.516309</ele>
        <time>2020-08-11T08:52:01.971Z</time>
      </trkpt>
      <trkpt lat="64.56244" lon="11.50066">
        <ele>64.170453</ele>
        <time>2020-08-11T08:52:05.977Z</time>
      </trkpt>
      <trkpt lat="64.56241" lon="11.50043">
        <ele>63.815031</ele>
        <time>2020-08-11T08:52:09.962Z</time>
      </trkpt>
      <trkpt lat="64.56237" lon="11.50018">
        <ele>63.399356</ele>
        <time>2020-08-11T08:52:13.963Z</time>
      </trkpt>
      <trkpt lat="64.56232" lon="11.49996">
        <ele>63.02899</ele>
        <time>2020-08-11T08:52:17.002Z</time>
      </trkpt>
      <trkpt lat="64.56225" lon="11.49973">
        <ele>62.619073</ele>
        <time>2020-08-11T08:52:21.001Z</time>
      </trkpt>
      <trkpt lat="64.5622" lon="11.49953">
        <ele>62.258663</ele>
        <time>2020-08-11T08:52:24.970Z</time>
      </trkpt>
      <trkpt lat="64.56216" lon="11.49934">
        <ele>61.935951</ele>
        <time>2020-08-11T08:52:27.959Z</time>
      </trkpt>
      <trkpt lat="64.5621" lon="11.4991">
        <ele>61.514744</ele>
        <time>2020-08-11T08:52:30.967Z</time>
      </trkpt>
      <trkpt lat="64.56203" lon="11.49883">
        <ele>61.056048</ele>
        <time>2020-08-11T08:52:33.967Z</time>
      </trkpt>
      <trkpt lat="64.56197" lon="11.49858">
        <ele>60.512302</ele>
        <time>2020-08-11T08:52:36.959Z</time>
      </trkpt>
      <trkpt lat="64.56191" lon="11.49841">
        <ele>60.059109</ele>
        <time>2020-08-11T08:52:38.966Z</time>
      </trkpt>
      <trkpt lat="64.56185" lon="11.49822">
        <ele>59.53734</ele>
        <time>2020-08-11T08:52:40.951Z</time>
      </trkpt>
      <trkpt lat="64.56177" lon="11.49805">
        <ele>59.017839</ele>
        <time>2020-08-11T08:52:42.962Z</time>
      </trkpt>
      <trkpt lat="64.5617" lon="11.49791">
        <ele>58.554524</ele>
        <time>2020-08-11T08:52:45.006Z</time>
      </trkpt>
      <trkpt lat="64.56163" lon="11.49778">
        <ele>58.079752</ele>
        <time>2020-08-11T08:52:46.958Z</time>
      </trkpt>
      <trkpt lat="64.56153" lon="11.49759">
        <ele>57.423263</ele>
        <time>2020-08-11T08:52:49.963Z</time>
      </trkpt>
      <trkpt lat="64.56142" lon="11.49745">
        <ele>56.82155</ele>
        <time>2020-08-11T08:52:51.963Z</time>
      </trkpt>
      <trkpt lat="64.5613" lon="11.4973">
        <ele>56.111823</ele>
        <time>2020-08-11T08:52:53.947Z</time>
      </trkpt>
      <trkpt lat="64.56115" lon="11.49715">
        <ele>55.298959</ele>
        <time>2020-08-11T08:52:56.000Z</time>
      </trkpt>
      <trkpt lat="64.56099" lon="11.49702">
        <ele>54.445934</ele>
        <time>2020-08-11T08:52:57.947Z</time>
      </trkpt>
      <trkpt lat="64.56083" lon="11.49689">
        <ele>53.590584</ele>
        <time>2020-08-11T08:52:59.944Z</time>
      </trkpt>
      <trkpt lat="64.56067" lon="11.49679">
        <ele>52.758301</ele>
        <time>2020-08-11T08:53:01.999Z</time>
      </trkpt>
      <trkpt lat="64.56052" lon="11.4967">
        <ele>51.992866</ele>
        <time>2020-08-11T08:53:03.959Z</time>
      </trkpt>
      <trkpt lat="64.5604" lon="11.49662">
        <ele>51.832802</ele>
        <time>2020-08-11T08:53:05.960Z</time>
      </trkpt>
      <trkpt lat="64.56028" lon="11.49655">
        <ele>51.956942</ele>
        <time>2020-08-11T08:53:07.962Z</time>
      </trkpt>
      <trkpt lat="64.56019" lon="11.49648">
        <ele>52.063164</ele>
        <time>2020-08-11T08:53:09.990Z</time>
      </trkpt>
      <trkpt lat="64.56007" lon="11.49638">
        <ele>52.197646</ele>
        <time>2020-08-11T08:53:12.960Z</time>
      </trkpt>
      <trkpt lat="64.55998" lon="11.4963">
        <ele>52.30794</ele>
        <time>2020-08-11T08:53:15.961Z</time>
      </trkpt>
      <trkpt lat="64.55989" lon="11.49624">
        <ele>52.407982</ele>
        <time>2020-08-11T08:53:18.962Z</time>
      </trkpt>
      <trkpt lat="64.5598" lon="11.49614">
        <ele>52.516127</ele>
        <time>2020-08-11T08:53:22.948Z</time>
      </trkpt>
      <trkpt lat="64.5597" lon="11.49602">
        <ele>52.636093</ele>
        <time>2020-08-11T08:53:26.967Z</time>
      </trkpt>
      <trkpt lat="64.5596" lon="11.49589">
        <ele>52.763863</ele>
        <time>2020-08-11T08:53:30.958Z</time>
      </trkpt>
      <trkpt lat="64.55952" lon="11.49577">
        <ele>52.863728</ele>
        <time>2020-08-11T08:53:33.950Z</time>
      </trkpt>
      <trkpt lat="64.55945" lon="11.49564">
        <ele>52.963892</ele>
        <time>2020-08-11T08:53:36.971Z</time>
      </trkpt>
      <trkpt lat="64.55937" lon="11.49549">
        <ele>53.074931</ele>
        <time>2020-08-11T08:53:39.971Z</time>
      </trkpt>
      <trkpt lat="64.55929" lon="11.4953">
        <ele>53.19459</ele>
        <time>2020-08-11T08:53:42.986Z</time>
      </trkpt>
      <trkpt lat="64.55921" lon="11.4951">
        <ele>53.324559</ele>
        <time>2020-08-11T08:53:45.970Z</time>
      </trkpt>
      <trkpt lat="64.55915" lon="11.49493">
        <ele>53.422478</ele>
        <time>2020-08-11T08:53:47.975Z</time>
      </trkpt>
      <trkpt lat="64.55908" lon="11.49475">
        <ele>53.533743</ele>
        <time>2020-08-11T08:53:50.003Z</time>
      </trkpt>
      <trkpt lat="64.55901" lon="11.49454">
        <ele>53.662605</ele>
        <time>2020-08-11T08:53:51.964Z</time>
      </trkpt>
      <trkpt lat="64.55893" lon="11.4943">
        <ele>53.848124</ele>
        <time>2020-08-11T08:53:53.989Z</time>
      </trkpt>
      <trkpt lat="64.55884" lon="11.49406">
        <ele>54.047809</ele>
        <time>2020-08-11T08:53:55.979Z</time>
      </trkpt>
      <trkpt lat="64.55875" lon="11.49382">
        <ele>54.253336</ele>
        <time>2020-08-11T08:53:57.964Z</time>
      </trkpt>
      <trkpt lat="64.55865" lon="11.4936">
        <ele>54.456922</ele>
        <time>2020-08-11T08:53:59.996Z</time>
      </trkpt>
      <trkpt lat="64.55855" lon="11.4934">
        <ele>54.65792</ele>
        <time>2020-08-11T08:54:02.000Z</time>
      </trkpt>
      <trkpt lat="64.55846" lon="11.49322">
        <ele>54.842147</ele>
        <time>2020-08-11T08:54:03.961Z</time>
      </trkpt>
      <trkpt lat="64.55836" lon="11.49307">
        <ele>55.014808</ele>
        <time>2020-08-11T08:54:05.969Z</time>
      </trkpt>
      <trkpt lat="64.55826" lon="11.49296">
        <ele>55.179922</ele>
        <time>2020-08-11T08:54:07.959Z</time>
      </trkpt>
      <trkpt lat="64.55816" lon="11.49289">
        <ele>55.334234</ele>
        <time>2020-08-11T08:54:09.956Z</time>
      </trkpt>
      <trkpt lat="64.55806" lon="11.49283">
        <ele>55.486678</ele>
        <time>2020-08-11T08:54:11.984Z</time>
      </trkpt>
      <trkpt lat="64.55795" lon="11.49278">
        <ele>55.659856</ele>
        <time>2020-08-11T08:54:14.974Z</time>
      </trkpt>
      <trkpt lat="64.55783" lon="11.49275">
        <ele>55.83169</ele>
        <time>2020-08-11T08:54:17.988Z</time>
      </trkpt>
      <trkpt lat="64.55771" lon="11.49274">
        <ele>56.021977</ele>
        <time>2020-08-11T08:54:20.990Z</time>
      </trkpt>
      <trkpt lat="64.55758" lon="11.49273">
        <ele>56.206424</ele>
        <time>2020-08-11T08:54:23.976Z</time>
      </trkpt>
      <trkpt lat="64.55747" lon="11.49271">
        <ele>56.38214</ele>
        <time>2020-08-11T08:54:26.950Z</time>
      </trkpt>
      <trkpt lat="64.55735" lon="11.49267">
        <ele>56.470778</ele>
        <time>2020-08-11T08:54:29.984Z</time>
      </trkpt>
      <trkpt lat="64.55724" lon="11.49263">
        <ele>56.557404</ele>
        <time>2020-08-11T08:54:32.951Z</time>
      </trkpt>
      <trkpt lat="64.55713" lon="11.49259">
        <ele>56.647181</ele>
        <time>2020-08-11T08:54:35.955Z</time>
      </trkpt>
      <trkpt lat="64.55702" lon="11.49253">
        <ele>56.72923</ele>
        <time>2020-08-11T08:54:38.959Z</time>
      </trkpt>
      <trkpt lat="64.55693" lon="11.49246">
        <ele>56.806283</ele>
        <time>2020-08-11T08:54:42.019Z</time>
      </trkpt>
      <trkpt lat="64.55683" lon="11.49237">
        <ele>56.886694</ele>
        <time>2020-08-11T08:54:44.972Z</time>
      </trkpt>
      <trkpt lat="64.55674" lon="11.49226">
        <ele>56.966309</ele>
        <time>2020-08-11T08:54:47.969Z</time>
      </trkpt>
      <trkpt lat="64.55665" lon="11.49212">
        <ele>57.047133</ele>
        <time>2020-08-11T08:54:51.019Z</time>
      </trkpt>
      <trkpt lat="64.55657" lon="11.49197">
        <ele>57.130213</ele>
        <time>2020-08-11T08:54:53.951Z</time>
      </trkpt>
      <trkpt lat="64.55649" lon="11.49183">
        <ele>57.203424</ele>
        <time>2020-08-11T08:54:56.969Z</time>
      </trkpt>
      <trkpt lat="64.55641" lon="11.49163">
        <ele>57.294686</ele>
        <time>2020-08-11T08:55:00.943Z</time>
      </trkpt>
      <trkpt lat="64.55634" lon="11.49149">
        <ele>57.368549</ele>
        <time>2020-08-11T08:55:03.973Z</time>
      </trkpt>
      <trkpt lat="64.55627" lon="11.49135">
        <ele>57.439674</ele>
        <time>2020-08-11T08:55:06.961Z</time>
      </trkpt>
      <trkpt lat="64.55618" lon="11.49117">
        <ele>57.529956</ele>
        <time>2020-08-11T08:55:10.961Z</time>
      </trkpt>
      <trkpt lat="64.55609" lon="11.49098">
        <ele>57.621175</ele>
        <time>2020-08-11T08:55:14.984Z</time>
      </trkpt>
      <trkpt lat="64.55602" lon="11.49085">
        <ele>57.693691</ele>
        <time>2020-08-11T08:55:17.963Z</time>
      </trkpt>
      <trkpt lat="64.55592" lon="11.49068">
        <ele>57.783624</ele>
        <time>2020-08-11T08:55:21.979Z</time>
      </trkpt>
      <trkpt lat="64.55583" lon="11.49057">
        <ele>57.838757</ele>
        <time>2020-08-11T08:55:24.972Z</time>
      </trkpt>
      <trkpt lat="64.55575" lon="11.49047">
        <ele>57.892798</ele>
        <time>2020-08-11T08:55:27.959Z</time>
      </trkpt>
      <trkpt lat="64.55566" lon="11.49038">
        <ele>57.946637</ele>
        <time>2020-08-11T08:55:30.956Z</time>
      </trkpt>
      <trkpt lat="64.55557" lon="11.49029">
        <ele>58.00094</ele>
        <time>2020-08-11T08:55:33.950Z</time>
      </trkpt>
      <trkpt lat="64.55548" lon="11.4902">
        <ele>58.05498</ele>
        <time>2020-08-11T08:55:36.976Z</time>
      </trkpt>
      <trkpt lat="64.55538" lon="11.49011">
        <ele>58.1148</ele>
        <time>2020-08-11T08:55:39.973Z</time>
      </trkpt>
      <trkpt lat="64.55528" lon="11.49002">
        <ele>58.176111</ele>
        <time>2020-08-11T08:55:43.021Z</time>
      </trkpt>
      <trkpt lat="64.55518" lon="11.4899">
        <ele>58.239731</ele>
        <time>2020-08-11T08:55:45.979Z</time>
      </trkpt>
      <trkpt lat="64.55508" lon="11.48976">
        <ele>58.30584</ele>
        <time>2020-08-11T08:55:48.964Z</time>
      </trkpt>
      <trkpt lat="64.55498" lon="11.4896">
        <ele>58.372859</ele>
        <time>2020-08-11T08:55:51.972Z</time>
      </trkpt>
      <trkpt lat="64.55489" lon="11.48942">
        <ele>58.44157</ele>
        <time>2020-08-11T08:55:54.972Z</time>
      </trkpt>
      <trkpt lat="64.5548" lon="11.48922">
        <ele>58.513706</ele>
        <time>2020-08-11T08:55:57.976Z</time>
      </trkpt>
      <trkpt lat="64.55473" lon="11.48908">
        <ele>58.56444</ele>
        <time>2020-08-11T08:55:59.983Z</time>
      </trkpt>
      <trkpt lat="64.55467" lon="11.48892">
        <ele>58.616875</ele>
        <time>2020-08-11T08:56:01.960Z</time>
      </trkpt>
      <trkpt lat="64.55461" lon="11.48875">
        <ele>58.669904</ele>
        <time>2020-08-11T08:56:03.979Z</time>
      </trkpt>
      <trkpt lat="64.55457" lon="11.48856">
        <ele>58.721533</ele>
        <time>2020-08-11T08:56:05.966Z</time>
      </trkpt>
      <trkpt lat="64.55453" lon="11.48836">
        <ele>58.774132</ele>
        <time>2020-08-11T08:56:07.958Z</time>
      </trkpt>
      <trkpt lat="64.55449" lon="11.48815">
        <ele>58.983109</ele>
        <time>2020-08-11T08:56:09.969Z</time>
      </trkpt>
      <trkpt lat="64.55445" lon="11.48792">
        <ele>59.235065</ele>
        <time>2020-08-11T08:56:11.959Z</time>
      </trkpt>
      <trkpt lat="64.55442" lon="11.48768">
        <ele>59.483486</ele>
        <time>2020-08-11T08:56:13.967Z</time>
      </trkpt>
      <trkpt lat="64.5544" lon="11.48744">
        <ele>59.734918</ele>
        <time>2020-08-11T08:56:15.964Z</time>
      </trkpt>
      <trkpt lat="64.55439" lon="11.48719">
        <ele>59.995508</ele>
        <time>2020-08-11T08:56:17.968Z</time>
      </trkpt>
      <trkpt lat="64.55439" lon="11.48692">
        <ele>60.267861</ele>
        <time>2020-08-11T08:56:19.965Z</time>
      </trkpt>
      <trkpt lat="64.55438" lon="11.48667">
        <ele>60.530306</ele>
        <time>2020-08-11T08:56:21.964Z</time>
      </trkpt>
      <trkpt lat="64.55437" lon="11.4864">
        <ele>60.804701</ele>
        <time>2020-08-11T08:56:23.953Z</time>
      </trkpt>
      <trkpt lat="64.55436" lon="11.48613">
        <ele>61.083831</ele>
        <time>2020-08-11T08:56:25.970Z</time>
      </trkpt>
      <trkpt lat="64.55435" lon="11.48587">
        <ele>61.348316</ele>
        <time>2020-08-11T08:56:27.962Z</time>
      </trkpt>
      <trkpt lat="64.55434" lon="11.48563">
        <ele>61.593069</ele>
        <time>2020-08-11T08:56:29.947Z</time>
      </trkpt>
      <trkpt lat="64.55433" lon="11.48541">
        <ele>61.821563</ele>
        <time>2020-08-11T08:56:31.984Z</time>
      </trkpt>
      <trkpt lat="64.55431" lon="11.48511">
        <ele>62.130009</ele>
        <time>2020-08-11T08:56:34.950Z</time>
      </trkpt>
      <trkpt lat="64.55428" lon="11.48485">
        <ele>62.403954</ele>
        <time>2020-08-11T08:56:37.970Z</time>
      </trkpt>
      <trkpt lat="64.55426" lon="11.4846">
        <ele>62.671927</ele>
        <time>2020-08-11T08:56:40.971Z</time>
      </trkpt>
      <trkpt lat="64.55422" lon="11.48436">
        <ele>62.931847</ele>
        <time>2020-08-11T08:56:43.971Z</time>
      </trkpt>
      <trkpt lat="64.55418" lon="11.48416">
        <ele>63.405122</ele>
        <time>2020-08-11T08:56:46.950Z</time>
      </trkpt>
      <trkpt lat="64.55414" lon="11.48393">
        <ele>64.303033</ele>
        <time>2020-08-11T08:56:50.960Z</time>
      </trkpt>
      <trkpt lat="64.5541" lon="11.48372">
        <ele>65.158643</ele>
        <time>2020-08-11T08:56:54.958Z</time>
      </trkpt>
      <trkpt lat="64.55405" lon="11.48353">
        <ele>65.965341</ele>
        <time>2020-08-11T08:56:58.968Z</time>
      </trkpt>
      <trkpt lat="64.554" lon="11.48334">
        <ele>66.76836</ele>
        <time>2020-08-11T08:57:02.980Z</time>
      </trkpt>
      <trkpt lat="64.55395" lon="11.48317">
        <ele>67.537546</ele>
        <time>2020-08-11T08:57:06.986Z</time>
      </trkpt>
      <trkpt lat="64.55388" lon="11.48299">
        <ele>68.41204</ele>
        <time>2020-08-11T08:57:10.953Z</time>
      </trkpt>
      <trkpt lat="64.55382" lon="11.48282">
        <ele>69.225496</ele>
        <time>2020-08-11T08:57:14.969Z</time>
      </trkpt>
      <trkpt lat="64.55377" lon="11.4826">
        <ele>70.123494</ele>
        <time>2020-08-11T08:57:19.960Z</time>
      </trkpt>
      <trkpt lat="64.55371" lon="11.48242">
        <ele>70.95076</ele>
        <time>2020-08-11T08:57:24.965Z</time>
      </trkpt>
      <trkpt lat="64.55365" lon="11.48225">
        <ele>71.795079</ele>
        <time>2020-08-11T08:57:29.964Z</time>
      </trkpt>
      <trkpt lat="64.55357" lon="11.4821">
        <ele>72.610226</ele>
        <time>2020-08-11T08:57:34.984Z</time>
      </trkpt>
      <trkpt lat="64.55349" lon="11.48194">
        <ele>73.517597</ele>
        <time>2020-08-11T08:57:40.986Z</time>
      </trkpt>
      <trkpt lat="64.55342" lon="11.4818">
        <ele>74.349935</ele>
        <time>2020-08-11T08:57:45.959Z</time>
      </trkpt>
      <trkpt lat="64.55334" lon="11.48165">
        <ele>75.173086</ele>
        <time>2020-08-11T08:57:51.000Z</time>
      </trkpt>
      <trkpt lat="64.55326" lon="11.48154">
        <ele>75.975994</ele>
        <time>2020-08-11T08:57:54.975Z</time>
      </trkpt>
      <trkpt lat="64.55318" lon="11.48142">
        <ele>76.775055</ele>
        <time>2020-08-11T08:57:58.952Z</time>
      </trkpt>
      <trkpt lat="64.5531" lon="11.48132">
        <ele>77.607478</ele>
        <time>2020-08-11T08:58:02.956Z</time>
      </trkpt>
      <trkpt lat="64.553" lon="11.48123">
        <ele>78.33441</ele>
        <time>2020-08-11T08:58:05.969Z</time>
      </trkpt>
      <trkpt lat="64.55289" lon="11.48113">
        <ele>77.724745</ele>
        <time>2020-08-11T08:58:08.980Z</time>
      </trkpt>
      <trkpt lat="64.55277" lon="11.48102">
        <ele>77.097549</ele>
        <time>2020-08-11T08:58:11.964Z</time>
      </trkpt>
      <trkpt lat="64.55268" lon="11.48093">
        <ele>76.597483</ele>
        <time>2020-08-11T08:58:13.975Z</time>
      </trkpt>
      <trkpt lat="64.55257" lon="11.48083">
        <ele>76.017839</ele>
        <time>2020-08-11T08:58:15.996Z</time>
      </trkpt>
      <trkpt lat="64.55245" lon="11.48074">
        <ele>75.400987</ele>
        <time>2020-08-11T08:58:17.959Z</time>
      </trkpt>
      <trkpt lat="64.55232" lon="11.48063">
        <ele>74.70715</ele>
        <time>2020-08-11T08:58:19.959Z</time>
      </trkpt>
      <trkpt lat="64.55218" lon="11.48051">
        <ele>73.983978</ele>
        <time>2020-08-11T08:58:21.951Z</time>
      </trkpt>
      <trkpt lat="64.55203" lon="11.48038">
        <ele>73.223204</ele>
        <time>2020-08-11T08:58:23.970Z</time>
      </trkpt>
      <trkpt lat="64.55188" lon="11.48025">
        <ele>72.390629</ele>
        <time>2020-08-11T08:58:25.993Z</time>
      </trkpt>
      <trkpt lat="64.55171" lon="11.48013">
        <ele>71.507915</ele>
        <time>2020-08-11T08:58:27.999Z</time>
      </trkpt>
      <trkpt lat="64.55162" lon="11.48006">
        <ele>71.047084</ele>
        <time>2020-08-11T08:58:28.981Z</time>
      </trkpt>
      <trkpt lat="64.55153" lon="11.47998">
        <ele>70.573362</ele>
        <time>2020-08-11T08:58:29.996Z</time>
      </trkpt>
      <trkpt lat="64.55144" lon="11.47989">
        <ele>70.084047</ele>
        <time>2020-08-11T08:58:30.970Z</time>
      </trkpt>
      <trkpt lat="64.55134" lon="11.47979">
        <ele>69.586878</ele>
        <time>2020-08-11T08:58:31.970Z</time>
      </trkpt>
      <trkpt lat="64.55125" lon="11.47968">
        <ele>68.596951</ele>
        <time>2020-08-11T08:58:32.951Z</time>
      </trkpt>
      <trkpt lat="64.55117" lon="11.47956">
        <ele>67.516299</ele>
        <time>2020-08-11T08:58:33.992Z</time>
      </trkpt>
      <trkpt lat="64.55108" lon="11.47942">
        <ele>66.443667</ele>
        <time>2020-08-11T08:58:34.951Z</time>
      </trkpt>
      <trkpt lat="64.551" lon="11.47928">
        <ele>65.38032</ele>
        <time>2020-08-11T08:58:35.964Z</time>
      </trkpt>
      <trkpt lat="64.55093" lon="11.47915">
        <ele>64.362021</ele>
        <time>2020-08-11T08:58:36.956Z</time>
      </trkpt>
      <trkpt lat="64.55085" lon="11.47901">
        <ele>63.35421</ele>
        <time>2020-08-11T08:58:37.950Z</time>
      </trkpt>
      <trkpt lat="64.55079" lon="11.47886">
        <ele>62.372559</ele>
        <time>2020-08-11T08:58:38.989Z</time>
      </trkpt>
      <trkpt lat="64.55067" lon="11.47856">
        <ele>60.503654</ele>
        <time>2020-08-11T08:58:40.958Z</time>
      </trkpt>
      <trkpt lat="64.55057" lon="11.47825">
        <ele>58.784729</ele>
        <time>2020-08-11T08:58:42.961Z</time>
      </trkpt>
      <trkpt lat="64.55048" lon="11.47796">
        <ele>57.180896</ele>
        <time>2020-08-11T08:58:44.979Z</time>
      </trkpt>
      <trkpt lat="64.55041" lon="11.4777">
        <ele>55.753348</ele>
        <time>2020-08-11T08:58:46.948Z</time>
      </trkpt>
      <trkpt lat="64.55036" lon="11.47745">
        <ele>54.527414</ele>
        <time>2020-08-11T08:58:48.983Z</time>
      </trkpt>
      <trkpt lat="64.55033" lon="11.47722">
        <ele>53.409544</ele>
        <time>2020-08-11T08:58:50.967Z</time>
      </trkpt>
      <trkpt lat="64.5503" lon="11.47701">
        <ele>52.380605</ele>
        <time>2020-08-11T08:58:52.971Z</time>
      </trkpt>
      <trkpt lat="64.55026" lon="11.47672">
        <ele>51.027025</ele>
        <time>2020-08-11T08:58:55.966Z</time>
      </trkpt>
      <trkpt lat="64.55024" lon="11.47649">
        <ele>51.164921</ele>
        <time>2020-08-11T08:58:58.969Z</time>
      </trkpt>
      <trkpt lat="64.55023" lon="11.47628">
        <ele>52.682777</ele>
        <time>2020-08-11T08:59:03.003Z</time>
      </trkpt>
      <trkpt lat="64.55023" lon="11.47606">
        <ele>54.165571</ele>
        <time>2020-08-11T08:59:07.967Z</time>
      </trkpt>
      <trkpt lat="64.55021" lon="11.47586">
        <ele>55.622713</ele>
        <time>2020-08-11T08:59:13.991Z</time>
      </trkpt>
      <trkpt lat="64.55021" lon="11.47562">
        <ele>57.283651</ele>
        <time>2020-08-11T08:59:20.986Z</time>
      </trkpt>
      <trkpt lat="64.5502" lon="11.47539">
        <ele>58.908728</ele>
        <time>2020-08-11T08:59:27.977Z</time>
      </trkpt>
      <trkpt lat="64.5502" lon="11.47518">
        <ele>60.360652</ele>
        <time>2020-08-11T08:59:34.945Z</time>
      </trkpt>
      <trkpt lat="64.55021" lon="11.47497">
        <ele>61.851918</ele>
        <time>2020-08-11T08:59:41.963Z</time>
      </trkpt>
      <trkpt lat="64.55022" lon="11.47474">
        <ele>63.443421</ele>
        <time>2020-08-11T08:59:49.971Z</time>
      </trkpt>
      <trkpt lat="64.55023" lon="11.47453">
        <ele>64.918034</ele>
        <time>2020-08-11T08:59:57.980Z</time>
      </trkpt>
      <trkpt lat="64.55024" lon="11.47432">
        <ele>66.391927</ele>
        <time>2020-08-11T09:00:05.991Z</time>
      </trkpt>
      <trkpt lat="64.55025" lon="11.4741">
        <ele>67.903572</ele>
        <time>2020-08-11T09:00:12.965Z</time>
      </trkpt>
      <trkpt lat="64.55025" lon="11.47386">
        <ele>69.585339</ele>
        <time>2020-08-11T09:00:19.943Z</time>
      </trkpt>
      <trkpt lat="64.55028" lon="11.47363">
        <ele>71.215979</ele>
        <time>2020-08-11T09:00:27.986Z</time>
      </trkpt>
      <trkpt lat="64.55029" lon="11.47342">
        <ele>72.674217</ele>
        <time>2020-08-11T09:00:34.967Z</time>
      </trkpt>
      <trkpt lat="64.55032" lon="11.47321">
        <ele>74.19983</ele>
        <time>2020-08-11T09:00:41.975Z</time>
      </trkpt>
      <trkpt lat="64.55033" lon="11.47299">
        <ele>75.749801</ele>
        <time>2020-08-11T09:00:49.006Z</time>
      </trkpt>
      <trkpt lat="64.55034" lon="11.47277">
        <ele>77.307291</ele>
        <time>2020-08-11T09:00:55.950Z</time>
      </trkpt>
      <trkpt lat="64.55034" lon="11.47254">
        <ele>78.87235</ele>
        <time>2020-08-11T09:01:02.956Z</time>
      </trkpt>
      <trkpt lat="64.55032" lon="11.47231">
        <ele>79.461816</ele>
        <time>2020-08-11T09:01:09.945Z</time>
      </trkpt>
      <trkpt lat="64.55031" lon="11.47209">
        <ele>79.365008</ele>
        <time>2020-08-11T09:01:16.958Z</time>
      </trkpt>
      <trkpt lat="64.55029" lon="11.47186">
        <ele>79.268337</ele>
        <time>2020-08-11T09:01:22.961Z</time>
      </trkpt>
      <trkpt lat="64.55027" lon="11.47165">
        <ele>79.175585</ele>
        <time>2020-08-11T09:01:27.955Z</time>
      </trkpt>
      <trkpt lat="64.55026" lon="11.4714">
        <ele>79.066758</ele>
        <time>2020-08-11T09:01:32.977Z</time>
      </trkpt>
      <trkpt lat="64.55023" lon="11.47119">
        <ele>78.972996</ele>
        <time>2020-08-11T09:01:36.961Z</time>
      </trkpt>
      <trkpt lat="64.55019" lon="11.47095">
        <ele>78.864597</ele>
        <time>2020-08-11T09:01:40.985Z</time>
      </trkpt>
      <trkpt lat="64.55017" lon="11.47075">
        <ele>78.774683</ele>
        <time>2020-08-11T09:01:43.950Z</time>
      </trkpt>
      <trkpt lat="64.55013" lon="11.47053">
        <ele>78.670773</ele>
        <time>2020-08-11T09:01:46.961Z</time>
      </trkpt>
      <trkpt lat="64.55009" lon="11.47026">
        <ele>78.549669</ele>
        <time>2020-08-11T09:01:49.972Z</time>
      </trkpt>
      <trkpt lat="64.55004" lon="11.46996">
        <ele>78.414791</ele>
        <time>2020-08-11T09:01:52.992Z</time>
      </trkpt>
      <trkpt lat="64.55" lon="11.46974">
        <ele>78.31169</ele>
        <time>2020-08-11T09:01:54.974Z</time>
      </trkpt>
      <trkpt lat="64.54997" lon="11.46951">
        <ele>78.20524</ele>
        <time>2020-08-11T09:01:56.961Z</time>
      </trkpt>
      <trkpt lat="64.54993" lon="11.46927">
        <ele>78.096898</ele>
        <time>2020-08-11T09:01:58.959Z</time>
      </trkpt>
      <trkpt lat="64.5499" lon="11.46901">
        <ele>77.981732</ele>
        <time>2020-08-11T09:02:00.946Z</time>
      </trkpt>
      <trkpt lat="64.54987" lon="11.46874">
        <ele>77.862872</ele>
        <time>2020-08-11T09:02:02.977Z</time>
      </trkpt>
      <trkpt lat="64.54984" lon="11.46848">
        <ele>77.745501</ele>
        <time>2020-08-11T09:02:04.961Z</time>
      </trkpt>
      <trkpt lat="64.54981" lon="11.46823">
        <ele>77.304321</ele>
        <time>2020-08-11T09:02:06.975Z</time>
      </trkpt>
      <trkpt lat="64.54978" lon="11.46801">
        <ele>76.862819</ele>
        <time>2020-08-11T09:02:08.974Z</time>
      </trkpt>
      <trkpt lat="64.54977" lon="11.46778">
        <ele>76.415188</ele>
        <time>2020-08-11T09:02:10.969Z</time>
      </trkpt>
      <trkpt lat="64.54977" lon="11.46756">
        <ele>75.997702</ele>
        <time>2020-08-11T09:02:12.988Z</time>
      </trkpt>
      <trkpt lat="64.54977" lon="11.46725">
        <ele>75.403184</ele>
        <time>2020-08-11T09:02:15.952Z</time>
      </trkpt>
      <trkpt lat="64.54978" lon="11.46695">
        <ele>74.825867</ele>
        <time>2020-08-11T09:02:18.963Z</time>
      </trkpt>
      <trkpt lat="64.5498" lon="11.46666">
        <ele>74.258371</ele>
        <time>2020-08-11T09:02:21.959Z</time>
      </trkpt>
      <trkpt lat="64.54982" lon="11.46635">
        <ele>73.659148</ele>
        <time>2020-08-11T09:02:24.944Z</time>
      </trkpt>
      <trkpt lat="64.54983" lon="11.46613">
        <ele>73.219065</ele>
        <time>2020-08-11T09:02:26.958Z</time>
      </trkpt>
      <trkpt lat="64.54984" lon="11.4659">
        <ele>72.785333</ele>
        <time>2020-08-11T09:02:28.979Z</time>
      </trkpt>
      <trkpt lat="64.54986" lon="11.46568">
        <ele>72.357978</ele>
        <time>2020-08-11T09:02:31.020Z</time>
      </trkpt>
      <trkpt lat="64.54988" lon="11.46546">
        <ele>71.910311</ele>
        <time>2020-08-11T09:02:32.960Z</time>
      </trkpt>
      <trkpt lat="64.54991" lon="11.46523">
        <ele>71.448888</ele>
        <time>2020-08-11T09:02:34.963Z</time>
      </trkpt>
      <trkpt lat="64.54994" lon="11.46501">
        <ele>71.003794</ele>
        <time>2020-08-11T09:02:36.950Z</time>
      </trkpt>
      <trkpt lat="64.54997" lon="11.46479">
        <ele>70.573446</ele>
        <time>2020-08-11T09:02:39.005Z</time>
      </trkpt>
      <trkpt lat="64.55" lon="11.46458">
        <ele>70.130617</ele>
        <time>2020-08-11T09:02:40.969Z</time>
      </trkpt>
      <trkpt lat="64.55003" lon="11.46437">
        <ele>69.699097</ele>
        <time>2020-08-11T09:02:42.964Z</time>
      </trkpt>
      <trkpt lat="64.55008" lon="11.46416">
        <ele>69.970439</ele>
        <time>2020-08-11T09:02:45.007Z</time>
      </trkpt>
      <trkpt lat="64.55011" lon="11.46397">
        <ele>70.263011</ele>
        <time>2020-08-11T09:02:46.947Z</time>
      </trkpt>
      <trkpt lat="64.55018" lon="11.46369">
        <ele>70.682888</ele>
        <time>2020-08-11T09:02:49.958Z</time>
      </trkpt>
      <trkpt lat="64.55024" lon="11.46343">
        <ele>71.091427</ele>
        <time>2020-08-11T09:02:53.021Z</time>
      </trkpt>
      <trkpt lat="64.55031" lon="11.46319">
        <ele>71.475746</ele>
        <time>2020-08-11T09:02:55.969Z</time>
      </trkpt>
      <trkpt lat="64.55036" lon="11.46297">
        <ele>71.821658</ele>
        <time>2020-08-11T09:02:58.958Z</time>
      </trkpt>
      <trkpt lat="64.55043" lon="11.46278">
        <ele>72.157263</ele>
        <time>2020-08-11T09:03:01.958Z</time>
      </trkpt>
      <trkpt lat="64.55048" lon="11.46259">
        <ele>72.474632</ele>
        <time>2020-08-11T09:03:04.967Z</time>
      </trkpt>
      <trkpt lat="64.55054" lon="11.46241">
        <ele>72.777494</ele>
        <time>2020-08-11T09:03:07.958Z</time>
      </trkpt>
      <trkpt lat="64.55059" lon="11.46219">
        <ele>73.124587</ele>
        <time>2020-08-11T09:03:11.968Z</time>
      </trkpt>
      <trkpt lat="64.55065" lon="11.46196">
        <ele>73.476016</ele>
        <time>2020-08-11T09:03:15.978Z</time>
      </trkpt>
      <trkpt lat="64.55072" lon="11.46178">
        <ele>73.823062</ele>
        <time>2020-08-11T09:03:19.995Z</time>
      </trkpt>
      <trkpt lat="64.55079" lon="11.46159">
        <ele>74.149259</ele>
        <time>2020-08-11T09:03:23.957Z</time>
      </trkpt>
      <trkpt lat="64.55085" lon="11.46143">
        <ele>74.439222</ele>
        <time>2020-08-11T09:03:27.983Z</time>
      </trkpt>
      <trkpt lat="64.55092" lon="11.46127">
        <ele>74.746127</ele>
        <time>2020-08-11T09:03:31.968Z</time>
      </trkpt>
      <trkpt lat="64.55097" lon="11.4611">
        <ele>75.032408</ele>
        <time>2020-08-11T09:03:35.992Z</time>
      </trkpt>
      <trkpt lat="64.55105" lon="11.46093">
        <ele>75.379632</ele>
        <time>2020-08-11T09:03:40.971Z</time>
      </trkpt>
      <trkpt lat="64.55113" lon="11.46082">
        <ele>76.132729</ele>
        <time>2020-08-11T09:03:44.964Z</time>
      </trkpt>
      <trkpt lat="64.5512" lon="11.46069">
        <ele>76.907861</ele>
        <time>2020-08-11T09:03:49.963Z</time>
      </trkpt>
      <trkpt lat="64.55129" lon="11.46056">
        <ele>77.758115</ele>
        <time>2020-08-11T09:03:55.955Z</time>
      </trkpt>
      <trkpt lat="64.55138" lon="11.46046">
        <ele>78.631251</ele>
        <time>2020-08-11T09:04:01.980Z</time>
      </trkpt>
      <trkpt lat="64.55147" lon="11.46036">
        <ele>79.472485</ele>
        <time>2020-08-11T09:04:07.945Z</time>
      </trkpt>
      <trkpt lat="64.55156" lon="11.46031">
        <ele>80.222916</ele>
        <time>2020-08-11T09:04:12.950Z</time>
      </trkpt>
      <trkpt lat="64.55165" lon="11.46026">
        <ele>80.985484</ele>
        <time>2020-08-11T09:04:17.948Z</time>
      </trkpt>
      <trkpt lat="64.55175" lon="11.46021">
        <ele>81.853676</ele>
        <time>2020-08-11T09:04:23.955Z</time>
      </trkpt>
      <trkpt lat="64.55186" lon="11.46017">
        <ele>82.751111</ele>
        <time>2020-08-11T09:04:29.957Z</time>
      </trkpt>
      <trkpt lat="64.55196" lon="11.46014">
        <ele>83.617082</ele>
        <time>2020-08-11T09:04:35.979Z</time>
      </trkpt>
      <trkpt lat="64.55205" lon="11.4601">
        <ele>84.385296</ele>
        <time>2020-08-11T09:04:40.967Z</time>
      </trkpt>
      <trkpt lat="64.55215" lon="11.4601">
        <ele>85.168223</ele>
        <time>2020-08-11T09:04:45.961Z</time>
      </trkpt>
      <trkpt lat="64.55224" lon="11.46011">
        <ele>85.960127</ele>
        <time>2020-08-11T09:04:50.944Z</time>
      </trkpt>
      <trkpt lat="64.55234" lon="11.46012">
        <ele>86.794126</ele>
        <time>2020-08-11T09:04:56.964Z</time>
      </trkpt>
      <trkpt lat="64.55244" lon="11.46014">
        <ele>87.647317</ele>
        <time>2020-08-11T09:05:02.943Z</time>
      </trkpt>
      <trkpt lat="64.55253" lon="11.46019">
        <ele>88.397747</ele>
        <time>2020-08-11T09:05:07.968Z</time>
      </trkpt>
      <trkpt lat="64.55263" lon="11.46024">
        <ele>89.222255</ele>
        <time>2020-08-11T09:05:12.960Z</time>
      </trkpt>
      <trkpt lat="64.55273" lon="11.4603">
        <ele>90.057011</ele>
        <time>2020-08-11T09:05:18.959Z</time>
      </trkpt>
      <trkpt lat="64.55281" lon="11.46039">
        <ele>90.689084</ele>
        <time>2020-08-11T09:05:23.959Z</time>
      </trkpt>
      <trkpt lat="64.55289" lon="11.46048">
        <ele>91.248434</ele>
        <time>2020-08-11T09:05:28.979Z</time>
      </trkpt>
      <trkpt lat="64.55299" lon="11.46058">
        <ele>91.880347</ele>
        <time>2020-08-11T09:05:34.958Z</time>
      </trkpt>
      <trkpt lat="64.55308" lon="11.46068">
        <ele>92.466685</ele>
        <time>2020-08-11T09:05:40.960Z</time>
      </trkpt>
      <trkpt lat="64.55317" lon="11.46078">
        <ele>93.053023</ele>
        <time>2020-08-11T09:05:46.969Z</time>
      </trkpt>
      <trkpt lat="64.55325" lon="11.46086">
        <ele>93.591586</ele>
        <time>2020-08-11T09:05:51.982Z</time>
      </trkpt>
      <trkpt lat="64.55334" lon="11.46094">
        <ele>94.136918</ele>
        <time>2020-08-11T09:05:57.959Z</time>
      </trkpt>
      <trkpt lat="64.55343" lon="11.46103">
        <ele>94.768392</ele>
        <time>2020-08-11T09:06:04.014Z</time>
      </trkpt>
      <trkpt lat="64.55353" lon="11.4611">
        <ele>95.401148</ele>
        <time>2020-08-11T09:06:09.967Z</time>
      </trkpt>
      <trkpt lat="64.55363" lon="11.46119">
        <ele>96.00753</ele>
        <time>2020-08-11T09:06:15.981Z</time>
      </trkpt>
      <trkpt lat="64.55373" lon="11.46125">
        <ele>96.60087</ele>
        <time>2020-08-11T09:06:21.970Z</time>
      </trkpt>
      <trkpt lat="64.55382" lon="11.46132">
        <ele>97.215761</ele>
        <time>2020-08-11T09:06:27.954Z</time>
      </trkpt>
      <trkpt lat="64.55392" lon="11.46141">
        <ele>97.841634</ele>
        <time>2020-08-11T09:06:33.960Z</time>
      </trkpt>
      <trkpt lat="64.55401" lon="11.46148">
        <ele>98.396045</ele>
        <time>2020-08-11T09:06:38.958Z</time>
      </trkpt>
      <trkpt lat="64.55409" lon="11.46155">
        <ele>98.943961</ele>
        <time>2020-08-11T09:06:44.979Z</time>
      </trkpt>
      <trkpt lat="64.55419" lon="11.46157">
        <ele>99.495081</ele>
        <time>2020-08-11T09:06:50.982Z</time>
      </trkpt>
      <trkpt lat="64.55429" lon="11.46162">
        <ele>100.099913</ele>
        <time>2020-08-11T09:06:57.948Z</time>
      </trkpt>
      <trkpt lat="64.55439" lon="11.46164">
        <ele>100.730144</ele>
        <time>2020-08-11T09:07:03.965Z</time>
      </trkpt>
      <trkpt lat="64.55448" lon="11.46163">
        <ele>101.327638</ele>
        <time>2020-08-11T09:07:09.965Z</time>
      </trkpt>
      <trkpt lat="64.55457" lon="11.46159">
        <ele>102.029655</ele>
        <time>2020-08-11T09:07:15.948Z</time>
      </trkpt>
      <trkpt lat="64.55466" lon="11.46158">
        <ele>102.745118</ele>
        <time>2020-08-11T09:07:21.956Z</time>
      </trkpt>
      <trkpt lat="64.55475" lon="11.46154">
        <ele>103.464199</ele>
        <time>2020-08-11T09:07:27.968Z</time>
      </trkpt>
      <trkpt lat="64.55485" lon="11.46152">
        <ele>104.237724</ele>
        <time>2020-08-11T09:07:33.965Z</time>
      </trkpt>
      <trkpt lat="64.55495" lon="11.46147">
        <ele>105.032589</ele>
        <time>2020-08-11T09:07:41.981Z</time>
      </trkpt>
      <trkpt lat="64.55504" lon="11.46144">
        <ele>105.73296</ele>
        <time>2020-08-11T09:07:47.980Z</time>
      </trkpt>
      <trkpt lat="64.55513" lon="11.4614">
        <ele>106.452041</ele>
        <time>2020-08-11T09:07:53.956Z</time>
      </trkpt>
      <trkpt lat="64.55523" lon="11.46136">
        <ele>107.239464</ele>
        <time>2020-08-11T09:08:00.958Z</time>
      </trkpt>
      <trkpt lat="64.55532" lon="11.46135">
        <ele>107.947043</ele>
        <time>2020-08-11T09:08:06.965Z</time>
      </trkpt>
      <trkpt lat="64.55542" lon="11.46133">
        <ele>108.711272</ele>
        <time>2020-08-11T09:08:14.003Z</time>
      </trkpt>
      <trkpt lat="64.55551" lon="11.46128">
        <ele>109.440269</ele>
        <time>2020-08-11T09:08:19.994Z</time>
      </trkpt>
      <trkpt lat="64.55561" lon="11.46124">
        <ele>110.204145</ele>
        <time>2020-08-11T09:08:25.984Z</time>
      </trkpt>
      <trkpt lat="64.55571" lon="11.46118">
        <ele>110.983279</ele>
        <time>2020-08-11T09:08:33.971Z</time>
      </trkpt>
      <trkpt lat="64.5558" lon="11.46114">
        <ele>111.704241</ele>
        <time>2020-08-11T09:08:39.998Z</time>
      </trkpt>
      <trkpt lat="64.55589" lon="11.4611">
        <ele>112.464617</ele>
        <time>2020-08-11T09:08:45.947Z</time>
      </trkpt>
      <trkpt lat="64.55599" lon="11.46104">
        <ele>113.236235</ele>
        <time>2020-08-11T09:08:51.974Z</time>
      </trkpt>
      <trkpt lat="64.55609" lon="11.46097">
        <ele>114.021603</ele>
        <time>2020-08-11T09:08:57.959Z</time>
      </trkpt>
      <trkpt lat="64.55617" lon="11.46093">
        <ele>114.723254</ele>
        <time>2020-08-11T09:09:03.979Z</time>
      </trkpt>
      <trkpt lat="64.55626" lon="11.4609">
        <ele>115.468747</ele>
        <time>2020-08-11T09:09:09.951Z</time>
      </trkpt>
      <trkpt lat="64.55636" lon="11.46087">
        <ele>116.264537</ele>
        <time>2020-08-11T09:09:15.996Z</time>
      </trkpt>
      <trkpt lat="64.55645" lon="11.46081">
        <ele>117.119683</ele>
        <time>2020-08-11T09:09:22.952Z</time>
      </trkpt>
      <trkpt lat="64.55654" lon="11.46079">
        <ele>117.931635</ele>
        <time>2020-08-11T09:09:29.990Z</time>
      </trkpt>
      <trkpt lat="64.55664" lon="11.46077">
        <ele>118.747201</ele>
        <time>2020-08-11T09:09:36.967Z</time>
      </trkpt>
      <trkpt lat="64.55673" lon="11.46075">
        <ele>119.572482</ele>
        <time>2020-08-11T09:09:42.969Z</time>
      </trkpt>
      <trkpt lat="64.55683" lon="11.46074">
        <ele>120.423372</ele>
        <time>2020-08-11T09:09:49.974Z</time>
      </trkpt>
      <trkpt lat="64.55692" lon="11.46072">
        <ele>121.223086</ele>
        <time>2020-08-11T09:09:55.967Z</time>
      </trkpt>
      <trkpt lat="64.55702" lon="11.46072">
        <ele>122.036996</ele>
        <time>2020-08-11T09:10:01.960Z</time>
      </trkpt>
      <trkpt lat="64.55712" lon="11.4607">
        <ele>122.88817</ele>
        <time>2020-08-11T09:10:08.956Z</time>
      </trkpt>
      <trkpt lat="64.55721" lon="11.46072">
        <ele>123.713761</ele>
        <time>2020-08-11T09:10:16.961Z</time>
      </trkpt>
      <trkpt lat="64.55731" lon="11.46069">
        <ele>124.567377</ele>
        <time>2020-08-11T09:10:23.996Z</time>
      </trkpt>
      <trkpt lat="64.55741" lon="11.46069">
        <ele>125.433622</ele>
        <time>2020-08-11T09:10:30.968Z</time>
      </trkpt>
      <trkpt lat="64.55751" lon="11.46069">
        <ele>126.30826</ele>
        <time>2020-08-11T09:10:37.948Z</time>
      </trkpt>
      <trkpt lat="64.55761" lon="11.46075">
        <ele>127.202415</ele>
        <time>2020-08-11T09:10:43.957Z</time>
      </trkpt>
      <trkpt lat="64.55771" lon="11.4608">
        <ele>128.112678</ele>
        <time>2020-08-11T09:10:49.960Z</time>
      </trkpt>
      <trkpt lat="64.55781" lon="11.46084">
        <ele>128.995276</ele>
        <time>2020-08-11T09:10:56.002Z</time>
      </trkpt>
      <trkpt lat="64.55791" lon="11.46086">
        <ele>129.8548</ele>
        <time>2020-08-11T09:11:01.950Z</time>
      </trkpt>
      <trkpt lat="64.55801" lon="11.46082">
        <ele>130.685663</ele>
        <time>2020-08-11T09:11:07.949Z</time>
      </trkpt>
      <trkpt lat="64.55811" lon="11.46075">
        <ele>130.96533</ele>
        <time>2020-08-11T09:11:13.987Z</time>
      </trkpt>
      <trkpt lat="64.5582" lon="11.46073">
        <ele>131.236694</ele>
        <time>2020-08-11T09:11:19.958Z</time>
      </trkpt>
      <trkpt lat="64.5583" lon="11.46067">
        <ele>131.520056</ele>
        <time>2020-08-11T09:11:25.982Z</time>
      </trkpt>
      <trkpt lat="64.5584" lon="11.46065">
        <ele>131.814683</ele>
        <time>2020-08-11T09:11:31.949Z</time>
      </trkpt>
      <trkpt lat="64.5585" lon="11.46062">
        <ele>132.106633</ele>
        <time>2020-08-11T09:11:36.947Z</time>
      </trkpt>
      <trkpt lat="64.55859" lon="11.46055">
        <ele>132.372016</ele>
        <time>2020-08-11T09:11:40.957Z</time>
      </trkpt>
      <trkpt lat="64.55869" lon="11.46047">
        <ele>132.666919</ele>
        <time>2020-08-11T09:11:44.968Z</time>
      </trkpt>
      <trkpt lat="64.55879" lon="11.4604">
        <ele>132.957808</ele>
        <time>2020-08-11T09:11:48.951Z</time>
      </trkpt>
      <trkpt lat="64.55888" lon="11.46031">
        <ele>133.244317</ele>
        <time>2020-08-11T09:11:53.000Z</time>
      </trkpt>
      <trkpt lat="64.55897" lon="11.46023">
        <ele>133.525089</ele>
        <time>2020-08-11T09:11:56.959Z</time>
      </trkpt>
      <trkpt lat="64.55907" lon="11.46016">
        <ele>133.817336</ele>
        <time>2020-08-11T09:12:00.968Z</time>
      </trkpt>
      <trkpt lat="64.55917" lon="11.4601">
        <ele>134.099745</ele>
        <time>2020-08-11T09:12:04.991Z</time>
      </trkpt>
      <trkpt lat="64.55926" lon="11.46005">
        <ele>134.363805</ele>
        <time>2020-08-11T09:12:08.969Z</time>
      </trkpt>
      <trkpt lat="64.55936" lon="11.46">
        <ele>134.643841</ele>
        <time>2020-08-11T09:12:12.964Z</time>
      </trkpt>
      <trkpt lat="64.55946" lon="11.45994">
        <ele>134.936938</ele>
        <time>2020-08-11T09:12:16.952Z</time>
      </trkpt>
      <trkpt lat="64.55955" lon="11.4599">
        <ele>135.213603</ele>
        <time>2020-08-11T09:12:20.981Z</time>
      </trkpt>
      <trkpt lat="64.55965" lon="11.45988">
        <ele>135.501142</ele>
        <time>2020-08-11T09:12:24.953Z</time>
      </trkpt>
      <trkpt lat="64.55975" lon="11.45986">
        <ele>135.795806</ele>
        <time>2020-08-11T09:12:28.970Z</time>
      </trkpt>
      <trkpt lat="64.55986" lon="11.45983">
        <ele>136.115982</ele>
        <time>2020-08-11T09:12:32.968Z</time>
      </trkpt>
      <trkpt lat="64.55995" lon="11.45981">
        <ele>136.412876</ele>
        <time>2020-08-11T09:12:36.953Z</time>
      </trkpt>
      <trkpt lat="64.56004" lon="11.45979">
        <ele>136.700601</ele>
        <time>2020-08-11T09:12:40.972Z</time>
      </trkpt>
      <trkpt lat="64.56013" lon="11.45978">
        <ele>136.997018</ele>
        <time>2020-08-11T09:12:44.960Z</time>
      </trkpt>
      <trkpt lat="64.56024" lon="11.45976">
        <ele>137.316095</ele>
        <time>2020-08-11T09:12:48.967Z</time>
      </trkpt>
      <trkpt lat="64.56034" lon="11.45975">
        <ele>137.650038</ele>
        <time>2020-08-11T09:12:52.959Z</time>
      </trkpt>
      <trkpt lat="64.56044" lon="11.45972">
        <ele>137.970719</ele>
        <time>2020-08-11T09:12:56.998Z</time>
      </trkpt>
      <trkpt lat="64.56055" lon="11.45969">
        <ele>138.309365</ele>
        <time>2020-08-11T09:13:00.971Z</time>
      </trkpt>
      <trkpt lat="64.56065" lon="11.45967">
        <ele>138.638087</ele>
        <time>2020-08-11T09:13:04.972Z</time>
      </trkpt>
      <trkpt lat="64.56075" lon="11.45965">
        <ele>138.947756</ele>
        <time>2020-08-11T09:13:08.966Z</time>
      </trkpt>
      <trkpt lat="64.56085" lon="11.45964">
        <ele>139.268936</ele>
        <time>2020-08-11T09:13:12.979Z</time>
      </trkpt>
      <trkpt lat="64.56095" lon="11.45963">
        <ele>139.581627</ele>
        <time>2020-08-11T09:13:16.972Z</time>
      </trkpt>
      <trkpt lat="64.56105" lon="11.45961">
        <ele>139.890968</ele>
        <time>2020-08-11T09:13:20.965Z</time>
      </trkpt>
      <trkpt lat="64.56115" lon="11.45958">
        <ele>140.218249</ele>
        <time>2020-08-11T09:13:24.999Z</time>
      </trkpt>
      <trkpt lat="64.56126" lon="11.45955">
        <ele>140.553241</ele>
        <time>2020-08-11T09:13:28.986Z</time>
      </trkpt>
      <trkpt lat="64.56137" lon="11.45954">
        <ele>140.893423</ele>
        <time>2020-08-11T09:13:33.006Z</time>
      </trkpt>
      <trkpt lat="64.56148" lon="11.45954">
        <ele>141.233605</ele>
        <time>2020-08-11T09:13:36.977Z</time>
      </trkpt>
      <trkpt lat="64.56159" lon="11.45953">
        <ele>141.279403</ele>
        <time>2020-08-11T09:13:40.959Z</time>
      </trkpt>
      <trkpt lat="64.56171" lon="11.45954">
        <ele>140.955241</ele>
        <time>2020-08-11T09:13:44.974Z</time>
      </trkpt>
      <trkpt lat="64.5618" lon="11.45955">
        <ele>140.704076</ele>
        <time>2020-08-11T09:13:47.957Z</time>
      </trkpt>
      <trkpt lat="64.56192" lon="11.45957">
        <ele>140.389972</ele>
        <time>2020-08-11T09:13:51.979Z</time>
      </trkpt>
      <trkpt lat="64.56201" lon="11.45958">
        <ele>140.141287</ele>
        <time>2020-08-11T09:13:54.959Z</time>
      </trkpt>
      <trkpt lat="64.56212" lon="11.45961">
        <ele>139.845799</ele>
        <time>2020-08-11T09:13:58.976Z</time>
      </trkpt>
      <trkpt lat="64.56222" lon="11.45963">
        <ele>139.580193</ele>
        <time>2020-08-11T09:14:02.981Z</time>
      </trkpt>
      <trkpt lat="64.56231" lon="11.45967">
        <ele>139.332689</ele>
        <time>2020-08-11T09:14:06.965Z</time>
      </trkpt>
      <trkpt lat="64.56241" lon="11.45971">
        <ele>139.063106</ele>
        <time>2020-08-11T09:14:10.960Z</time>
      </trkpt>
      <trkpt lat="64.5625" lon="11.45976">
        <ele>138.794174</ele>
        <time>2020-08-11T09:14:14.979Z</time>
      </trkpt>
      <trkpt lat="64.56261" lon="11.45981">
        <ele>138.515495</ele>
        <time>2020-08-11T09:14:18.988Z</time>
      </trkpt>
      <trkpt lat="64.5627" lon="11.45986">
        <ele>138.258258</ele>
        <time>2020-08-11T09:14:22.979Z</time>
      </trkpt>
      <trkpt lat="64.5628" lon="11.45993">
        <ele>137.980962</ele>
        <time>2020-08-11T09:14:26.988Z</time>
      </trkpt>
      <trkpt lat="64.5629" lon="11.45998">
        <ele>137.685721</ele>
        <time>2020-08-11T09:14:30.964Z</time>
      </trkpt>
      <trkpt lat="64.56301" lon="11.46003">
        <ele>137.382789</ele>
        <time>2020-08-11T09:14:34.957Z</time>
      </trkpt>
      <trkpt lat="64.56312" lon="11.46009">
        <ele>137.087057</ele>
        <time>2020-08-11T09:14:38.969Z</time>
      </trkpt>
      <trkpt lat="64.56323" lon="11.46013">
        <ele>136.79227</ele>
        <time>2020-08-11T09:14:42.965Z</time>
      </trkpt>
      <trkpt lat="64.56333" lon="11.46015">
        <ele>136.54971</ele>
        <time>2020-08-11T09:14:46.970Z</time>
      </trkpt>
      <trkpt lat="64.56343" lon="11.46016">
        <ele>136.455994</ele>
        <time>2020-08-11T09:14:50.960Z</time>
      </trkpt>
      <trkpt lat="64.56353" lon="11.46016">
        <ele>136.361436</ele>
        <time>2020-08-11T09:14:54.981Z</time>
      </trkpt>
      <trkpt lat="64.56362" lon="11.46016">
        <ele>136.27443</ele>
        <time>2020-08-11T09:14:58.965Z</time>
      </trkpt>
      <trkpt lat="64.56373" lon="11.46015">
        <ele>136.176794</ele>
        <time>2020-08-11T09:15:02.954Z</time>
      </trkpt>
      <trkpt lat="64.56383" lon="11.46012">
        <ele>136.074172</ele>
        <time>2020-08-11T09:15:06.953Z</time>
      </trkpt>
      <trkpt lat="64.56395" lon="11.46012">
        <ele>135.963506</ele>
        <time>2020-08-11T09:15:10.961Z</time>
      </trkpt>
      <trkpt lat="64.56404" lon="11.4601">
        <ele>135.877299</ele>
        <time>2020-08-11T09:15:13.961Z</time>
      </trkpt>
      <trkpt lat="64.56414" lon="11.46011">
        <ele>135.785567</ele>
        <time>2020-08-11T09:15:16.972Z</time>
      </trkpt>
      <trkpt lat="64.56425" lon="11.46011">
        <ele>135.684392</ele>
        <time>2020-08-11T09:15:19.973Z</time>
      </trkpt>
      <trkpt lat="64.56437" lon="11.4601">
        <ele>135.570909</ele>
        <time>2020-08-11T09:15:22.960Z</time>
      </trkpt>
      <trkpt lat="64.5645" lon="11.46009">
        <ele>135.443195</ele>
        <time>2020-08-11T09:15:25.999Z</time>
      </trkpt>
      <trkpt lat="64.5646" lon="11.4601">
        <ele>135.348553</ele>
        <time>2020-08-11T09:15:27.984Z</time>
      </trkpt>
      <trkpt lat="64.56472" lon="11.46012">
        <ele>135.240589</ele>
        <time>2020-08-11T09:15:29.951Z</time>
      </trkpt>
      <trkpt lat="64.56484" lon="11.46013">
        <ele>135.124082</ele>
        <time>2020-08-11T09:15:31.978Z</time>
      </trkpt>
      <trkpt lat="64.56497" lon="11.46015">
        <ele>134.99895</ele>
        <time>2020-08-11T09:15:33.979Z</time>
      </trkpt>
      <trkpt lat="64.56512" lon="11.4602">
        <ele>134.782671</ele>
        <time>2020-08-11T09:15:36.029Z</time>
      </trkpt>
      <trkpt lat="64.5653" lon="11.46024">
        <ele>133.942669</ele>
        <time>2020-08-11T09:15:37.960Z</time>
      </trkpt>
      <trkpt lat="64.56539" lon="11.46027">
        <ele>133.493153</ele>
        <time>2020-08-11T09:15:38.971Z</time>
      </trkpt>
      <trkpt lat="64.56548" lon="11.4603">
        <ele>133.028143</ele>
        <time>2020-08-11T09:15:39.951Z</time>
      </trkpt>
      <trkpt lat="64.56558" lon="11.46033">
        <ele>132.537955</ele>
        <time>2020-08-11T09:15:40.962Z</time>
      </trkpt>
      <trkpt lat="64.56569" lon="11.46036">
        <ele>132.034466</ele>
        <time>2020-08-11T09:15:41.991Z</time>
      </trkpt>
      <trkpt lat="64.56579" lon="11.46039">
        <ele>131.508237</ele>
        <time>2020-08-11T09:15:42.977Z</time>
      </trkpt>
      <trkpt lat="64.5659" lon="11.46041">
        <ele>130.972542</ele>
        <time>2020-08-11T09:15:43.970Z</time>
      </trkpt>
      <trkpt lat="64.56601" lon="11.46044">
        <ele>130.430764</ele>
        <time>2020-08-11T09:15:44.978Z</time>
      </trkpt>
      <trkpt lat="64.56613" lon="11.46047">
        <ele>129.879786</ele>
        <time>2020-08-11T09:15:45.979Z</time>
      </trkpt>
      <trkpt lat="64.56624" lon="11.46048">
        <ele>129.325421</ele>
        <time>2020-08-11T09:15:46.999Z</time>
      </trkpt>
      <trkpt lat="64.56635" lon="11.4605">
        <ele>128.776546</ele>
        <time>2020-08-11T09:15:47.963Z</time>
      </trkpt>
      <trkpt lat="64.56647" lon="11.4605">
        <ele>128.233196</ele>
        <time>2020-08-11T09:15:48.953Z</time>
      </trkpt>
      <trkpt lat="64.56658" lon="11.46049">
        <ele>127.699241</ele>
        <time>2020-08-11T09:15:49.949Z</time>
      </trkpt>
      <trkpt lat="64.56668" lon="11.46047">
        <ele>127.177842</ele>
        <time>2020-08-11T09:15:50.965Z</time>
      </trkpt>
      <trkpt lat="64.56679" lon="11.46044">
        <ele>126.673819</ele>
        <time>2020-08-11T09:15:51.988Z</time>
      </trkpt>
      <trkpt lat="64.56689" lon="11.4604">
        <ele>126.183631</ele>
        <time>2020-08-11T09:15:52.958Z</time>
      </trkpt>
      <trkpt lat="64.56699" lon="11.46036">
        <ele>125.875655</ele>
        <time>2020-08-11T09:15:53.967Z</time>
      </trkpt>
      <trkpt lat="64.56708" lon="11.46032">
        <ele>125.582156</ele>
        <time>2020-08-11T09:15:54.973Z</time>
      </trkpt>
      <trkpt lat="64.56718" lon="11.46028">
        <ele>125.291526</ele>
        <time>2020-08-11T09:15:55.965Z</time>
      </trkpt>
      <trkpt lat="64.56728" lon="11.46024">
        <ele>125.006397</ele>
        <time>2020-08-11T09:15:57.002Z</time>
      </trkpt>
      <trkpt lat="64.56737" lon="11.4602">
        <ele>124.730332</ele>
        <time>2020-08-11T09:15:57.980Z</time>
      </trkpt>
      <trkpt lat="64.56747" lon="11.46016">
        <ele>124.453434</ele>
        <time>2020-08-11T09:15:58.966Z</time>
      </trkpt>
      <trkpt lat="64.56756" lon="11.46014">
        <ele>124.185875</ele>
        <time>2020-08-11T09:15:59.963Z</time>
      </trkpt>
      <trkpt lat="64.56773" lon="11.46009">
        <ele>123.666427</ele>
        <time>2020-08-11T09:16:01.949Z</time>
      </trkpt>
      <trkpt lat="64.56791" lon="11.46007">
        <ele>123.155574</ele>
        <time>2020-08-11T09:16:03.983Z</time>
      </trkpt>
      <trkpt lat="64.56808" lon="11.46007">
        <ele>122.648043</ele>
        <time>2020-08-11T09:16:05.984Z</time>
      </trkpt>
      <trkpt lat="64.56826" lon="11.46008">
        <ele>122.134564</ele>
        <time>2020-08-11T09:16:07.969Z</time>
      </trkpt>
      <trkpt lat="64.56835" lon="11.4601">
        <ele>121.871101</ele>
        <time>2020-08-11T09:16:08.977Z</time>
      </trkpt>
      <trkpt lat="64.56844" lon="11.46012">
        <ele>121.603992</ele>
        <time>2020-08-11T09:16:09.962Z</time>
      </trkpt>
      <trkpt lat="64.56853" lon="11.46015">
        <ele>121.329981</ele>
        <time>2020-08-11T09:16:11.000Z</time>
      </trkpt>
      <trkpt lat="64.56863" lon="11.46018">
        <ele>121.050018</ele>
        <time>2020-08-11T09:16:11.967Z</time>
      </trkpt>
      <trkpt lat="64.56872" lon="11.46022">
        <ele>120.740366</ele>
        <time>2020-08-11T09:16:12.981Z</time>
      </trkpt>
      <trkpt lat="64.56882" lon="11.46027">
        <ele>120.395993</ele>
        <time>2020-08-11T09:16:13.956Z</time>
      </trkpt>
      <trkpt lat="64.56891" lon="11.46032">
        <ele>120.045569</ele>
        <time>2020-08-11T09:16:14.969Z</time>
      </trkpt>
      <trkpt lat="64.56901" lon="11.46037">
        <ele>119.692681</ele>
        <time>2020-08-11T09:16:15.981Z</time>
      </trkpt>
      <trkpt lat="64.56911" lon="11.46041">
        <ele>119.340427</ele>
        <time>2020-08-11T09:16:16.971Z</time>
      </trkpt>
      <trkpt lat="64.5692" lon="11.46046">
        <ele>118.987859</ele>
        <time>2020-08-11T09:16:17.964Z</time>
      </trkpt>
      <trkpt lat="64.5693" lon="11.46051">
        <ele>118.635605</ele>
        <time>2020-08-11T09:16:18.984Z</time>
      </trkpt>
      <trkpt lat="64.5694" lon="11.46056">
        <ele>118.292796</ele>
        <time>2020-08-11T09:16:19.976Z</time>
      </trkpt>
      <trkpt lat="64.56949" lon="11.4606">
        <ele>117.958568</ele>
        <time>2020-08-11T09:16:20.954Z</time>
      </trkpt>
      <trkpt lat="64.56966" lon="11.46067">
        <ele>117.338043</ele>
        <time>2020-08-11T09:16:22.985Z</time>
      </trkpt>
      <trkpt lat="64.56982" lon="11.46072">
        <ele>116.778388</ele>
        <time>2020-08-11T09:16:24.980Z</time>
      </trkpt>
      <trkpt lat="64.56996" lon="11.46076">
        <ele>116.259778</ele>
        <time>2020-08-11T09:16:26.968Z</time>
      </trkpt>
      <trkpt lat="64.57009" lon="11.4608">
        <ele>115.779465</ele>
        <time>2020-08-11T09:16:28.973Z</time>
      </trkpt>
      <trkpt lat="64.57022" lon="11.46082">
        <ele>115.330454</ele>
        <time>2020-08-11T09:16:30.954Z</time>
      </trkpt>
      <trkpt lat="64.57034" lon="11.46083">
        <ele>114.892625</ele>
        <time>2020-08-11T09:16:32.970Z</time>
      </trkpt>
      <trkpt lat="64.57047" lon="11.46084">
        <ele>114.463408</ele>
        <time>2020-08-11T09:16:34.974Z</time>
      </trkpt>
      <trkpt lat="64.57059" lon="11.46084">
        <ele>114.060892</ele>
        <time>2020-08-11T09:16:36.966Z</time>
      </trkpt>
      <trkpt lat="64.57072" lon="11.46083">
        <ele>113.65148</ele>
        <time>2020-08-11T09:16:38.960Z</time>
      </trkpt>
      <trkpt lat="64.57085" lon="11.46081">
        <ele>113.232496</ele>
        <time>2020-08-11T09:16:40.980Z</time>
      </trkpt>
      <trkpt lat="64.57099" lon="11.4608">
        <ele>112.800681</ele>
        <time>2020-08-11T09:16:43.008Z</time>
      </trkpt>
      <trkpt lat="64.57112" lon="11.46076">
        <ele>112.360558</ele>
        <time>2020-08-11T09:16:44.992Z</time>
      </trkpt>
      <trkpt lat="64.57127" lon="11.46072">
        <ele>111.881427</ele>
        <time>2020-08-11T09:16:46.981Z</time>
      </trkpt>
      <trkpt lat="64.57143" lon="11.46069">
        <ele>111.368427</ele>
        <time>2020-08-11T09:16:48.944Z</time>
      </trkpt>
      <trkpt lat="64.5716" lon="11.46065">
        <ele>110.840906</ele>
        <time>2020-08-11T09:16:50.966Z</time>
      </trkpt>
      <trkpt lat="64.57177" lon="11.46061">
        <ele>110.285405</ele>
        <time>2020-08-11T09:16:52.993Z</time>
      </trkpt>
      <trkpt lat="64.57186" lon="11.46058">
        <ele>109.998694</ele>
        <time>2020-08-11T09:16:53.983Z</time>
      </trkpt>
      <trkpt lat="64.57195" lon="11.46056">
        <ele>109.709883</ele>
        <time>2020-08-11T09:16:54.949Z</time>
      </trkpt>
      <trkpt lat="64.57204" lon="11.46054">
        <ele>109.4088</ele>
        <time>2020-08-11T09:16:56.003Z</time>
      </trkpt>
      <trkpt lat="64.57213" lon="11.46052">
        <ele>109.110449</ele>
        <time>2020-08-11T09:16:57.005Z</time>
      </trkpt>
      <trkpt lat="64.57224" lon="11.4605">
        <ele>108.783458</ele>
        <time>2020-08-11T09:16:58.002Z</time>
      </trkpt>
      <trkpt lat="64.57234" lon="11.46048">
        <ele>108.28067</ele>
        <time>2020-08-11T09:16:58.964Z</time>
      </trkpt>
      <trkpt lat="64.57244" lon="11.46047">
        <ele>107.769103</ele>
        <time>2020-08-11T09:16:59.961Z</time>
      </trkpt>
      <trkpt lat="64.57254" lon="11.46046">
        <ele>107.253169</ele>
        <time>2020-08-11T09:17:00.981Z</time>
      </trkpt>
      <trkpt lat="64.57264" lon="11.46046">
        <ele>106.732556</ele>
        <time>2020-08-11T09:17:01.968Z</time>
      </trkpt>
      <trkpt lat="64.57274" lon="11.46046">
        <ele>106.21692</ele>
        <time>2020-08-11T09:17:02.971Z</time>
      </trkpt>
      <trkpt lat="64.57284" lon="11.46047">
        <ele>105.701284</ele>
        <time>2020-08-11T09:17:03.963Z</time>
      </trkpt>
      <trkpt lat="64.57294" lon="11.46048">
        <ele>105.180049</ele>
        <time>2020-08-11T09:17:04.987Z</time>
      </trkpt>
      <trkpt lat="64.57305" lon="11.4605">
        <ele>104.656603</ele>
        <time>2020-08-11T09:17:05.962Z</time>
      </trkpt>
      <trkpt lat="64.57315" lon="11.46054">
        <ele>104.12062</ele>
        <time>2020-08-11T09:17:06.990Z</time>
      </trkpt>
      <trkpt lat="64.57326" lon="11.46059">
        <ele>103.57493</ele>
        <time>2020-08-11T09:17:07.947Z</time>
      </trkpt>
      <trkpt lat="64.57336" lon="11.46065">
        <ele>103.017146</ele>
        <time>2020-08-11T09:17:08.981Z</time>
      </trkpt>
      <trkpt lat="64.57347" lon="11.46072">
        <ele>102.435823</ele>
        <time>2020-08-11T09:17:09.984Z</time>
      </trkpt>
      <trkpt lat="64.57358" lon="11.46081">
        <ele>101.856081</ele>
        <time>2020-08-11T09:17:10.980Z</time>
      </trkpt>
      <trkpt lat="64.57369" lon="11.46089">
        <ele>101.277672</ele>
        <time>2020-08-11T09:17:11.972Z</time>
      </trkpt>
      <trkpt lat="64.57379" lon="11.46098">
        <ele>100.712199</ele>
        <time>2020-08-11T09:17:12.995Z</time>
      </trkpt>
      <trkpt lat="64.57389" lon="11.46108">
        <ele>100.140982</ele>
        <time>2020-08-11T09:17:13.961Z</time>
      </trkpt>
      <trkpt lat="64.574" lon="11.46119">
        <ele>99.564894</ele>
        <time>2020-08-11T09:17:14.964Z</time>
      </trkpt>
      <trkpt lat="64.5741" lon="11.4613">
        <ele>99.063296</ele>
        <time>2020-08-11T09:17:16.009Z</time>
      </trkpt>
      <trkpt lat="64.5742" lon="11.4614">
        <ele>98.568838</ele>
        <time>2020-08-11T09:17:16.967Z</time>
      </trkpt>
      <trkpt lat="64.5743" lon="11.46149">
        <ele>98.087138</ele>
        <time>2020-08-11T09:17:17.969Z</time>
      </trkpt>
      <trkpt lat="64.5744" lon="11.46157">
        <ele>97.628128</ele>
        <time>2020-08-11T09:17:19.003Z</time>
      </trkpt>
      <trkpt lat="64.57449" lon="11.46164">
        <ele>97.187945</ele>
        <time>2020-08-11T09:17:19.967Z</time>
      </trkpt>
      <trkpt lat="64.57458" lon="11.46171">
        <ele>96.761328</ele>
        <time>2020-08-11T09:17:20.998Z</time>
      </trkpt>
      <trkpt lat="64.57467" lon="11.46176">
        <ele>96.346371</ele>
        <time>2020-08-11T09:17:21.983Z</time>
      </trkpt>
      <trkpt lat="64.57485" lon="11.46185">
        <ele>95.564606</ele>
        <time>2020-08-11T09:17:23.960Z</time>
      </trkpt>
      <trkpt lat="64.57501" lon="11.46196">
        <ele>94.819343</ele>
        <time>2020-08-11T09:17:25.976Z</time>
      </trkpt>
      <trkpt lat="64.57517" lon="11.46207">
        <ele>94.080507</ele>
        <time>2020-08-11T09:17:27.975Z</time>
      </trkpt>
      <trkpt lat="64.57532" lon="11.4622">
        <ele>93.35827</ele>
        <time>2020-08-11T09:17:29.967Z</time>
      </trkpt>
      <trkpt lat="64.57546" lon="11.46233">
        <ele>92.666183</ele>
        <time>2020-08-11T09:17:31.965Z</time>
      </trkpt>
      <trkpt lat="64.5756" lon="11.46246">
        <ele>92.011</ele>
        <time>2020-08-11T09:17:33.971Z</time>
      </trkpt>
      <trkpt lat="64.57573" lon="11.46259">
        <ele>91.607554</ele>
        <time>2020-08-11T09:17:35.988Z</time>
      </trkpt>
      <trkpt lat="64.57587" lon="11.46273">
        <ele>91.736735</ele>
        <time>2020-08-11T09:17:37.983Z</time>
      </trkpt>
      <trkpt lat="64.576" lon="11.46285">
        <ele>91.865434</ele>
        <time>2020-08-11T09:17:39.963Z</time>
      </trkpt>
      <trkpt lat="64.57614" lon="11.46295">
        <ele>91.989882</ele>
        <time>2020-08-11T09:17:41.979Z</time>
      </trkpt>
      <trkpt lat="64.57627" lon="11.46303">
        <ele>92.10871</ele>
        <time>2020-08-11T09:17:43.983Z</time>
      </trkpt>
      <trkpt lat="64.57639" lon="11.46308">
        <ele>92.22116</ele>
        <time>2020-08-11T09:17:45.959Z</time>
      </trkpt>
      <trkpt lat="64.57651" lon="11.46311">
        <ele>92.323827</ele>
        <time>2020-08-11T09:17:47.964Z</time>
      </trkpt>
      <trkpt lat="64.57662" lon="11.46313">
        <ele>92.419121</ele>
        <time>2020-08-11T09:17:49.990Z</time>
      </trkpt>
      <trkpt lat="64.57673" lon="11.46315">
        <ele>92.516081</ele>
        <time>2020-08-11T09:17:51.961Z</time>
      </trkpt>
      <trkpt lat="64.57684" lon="11.46316">
        <ele>92.615527</ele>
        <time>2020-08-11T09:17:54.019Z</time>
      </trkpt>
      <trkpt lat="64.57695" lon="11.46317">
        <ele>92.71489</ele>
        <time>2020-08-11T09:17:55.951Z</time>
      </trkpt>
      <trkpt lat="64.57706" lon="11.46316">
        <ele>92.811619</ele>
        <time>2020-08-11T09:17:57.965Z</time>
      </trkpt>
      <trkpt lat="64.57717" lon="11.46316">
        <ele>92.903963</ele>
        <time>2020-08-11T09:17:59.953Z</time>
      </trkpt>
      <trkpt lat="64.57727" lon="11.46316">
        <ele>92.991014</ele>
        <time>2020-08-11T09:18:01.983Z</time>
      </trkpt>
      <trkpt lat="64.5774" lon="11.46315">
        <ele>93.109723</ele>
        <time>2020-08-11T09:18:04.962Z</time>
      </trkpt>
      <trkpt lat="64.57753" lon="11.46315">
        <ele>93.246735</ele>
        <time>2020-08-11T09:18:07.959Z</time>
      </trkpt>
      <trkpt lat="64.57766" lon="11.46316">
        <ele>93.398453</ele>
        <time>2020-08-11T09:18:10.969Z</time>
      </trkpt>
      <trkpt lat="64.57779" lon="11.46318">
        <ele>93.549265</ele>
        <time>2020-08-11T09:18:13.998Z</time>
      </trkpt>
      <trkpt lat="64.57792" lon="11.46319">
        <ele>93.705698</ele>
        <time>2020-08-11T09:18:16.972Z</time>
      </trkpt>
      <trkpt lat="64.57805" lon="11.46322">
        <ele>93.851932</ele>
        <time>2020-08-11T09:18:19.958Z</time>
      </trkpt>
      <trkpt lat="64.57817" lon="11.46322">
        <ele>93.996571</ele>
        <time>2020-08-11T09:18:22.966Z</time>
      </trkpt>
      <trkpt lat="64.5783" lon="11.46325">
        <ele>94.148745</ele>
        <time>2020-08-11T09:18:25.965Z</time>
      </trkpt>
      <trkpt lat="64.57843" lon="11.46327">
        <ele>94.306777</ele>
        <time>2020-08-11T09:18:28.980Z</time>
      </trkpt>
      <trkpt lat="64.57853" lon="11.46329">
        <ele>94.417837</ele>
        <time>2020-08-11T09:18:30.957Z</time>
      </trkpt>
      <trkpt lat="64.57862" lon="11.46332">
        <ele>94.525556</ele>
        <time>2020-08-11T09:18:32.983Z</time>
      </trkpt>
      <trkpt lat="64.57871" lon="11.46334">
        <ele>94.633058</ele>
        <time>2020-08-11T09:18:34.981Z</time>
      </trkpt>
      <trkpt lat="64.57884" lon="11.46337">
        <ele>94.786734</ele>
        <time>2020-08-11T09:18:37.978Z</time>
      </trkpt>
      <trkpt lat="64.57896" lon="11.4634">
        <ele>94.936798</ele>
        <time>2020-08-11T09:18:40.951Z</time>
      </trkpt>
      <trkpt lat="64.57909" lon="11.46344">
        <ele>95.082867</ele>
        <time>2020-08-11T09:18:43.957Z</time>
      </trkpt>
      <trkpt lat="64.57922" lon="11.46349">
        <ele>95.243047</ele>
        <time>2020-08-11T09:18:47.010Z</time>
      </trkpt>
      <trkpt lat="64.57932" lon="11.46351">
        <ele>95.267618</ele>
        <time>2020-08-11T09:18:48.960Z</time>
      </trkpt>
      <trkpt lat="64.57942" lon="11.46354">
        <ele>95.27191</ele>
        <time>2020-08-11T09:18:50.989Z</time>
      </trkpt>
      <trkpt lat="64.57952" lon="11.46357">
        <ele>95.276177</ele>
        <time>2020-08-11T09:18:52.971Z</time>
      </trkpt>
      <trkpt lat="64.57962" lon="11.46359">
        <ele>95.280345</ele>
        <time>2020-08-11T09:18:54.956Z</time>
      </trkpt>
      <trkpt lat="64.57972" lon="11.46362">
        <ele>95.284573</ele>
        <time>2020-08-11T09:18:56.957Z</time>
      </trkpt>
      <trkpt lat="64.57981" lon="11.46365">
        <ele>95.288787</ele>
        <time>2020-08-11T09:18:58.970Z</time>
      </trkpt>
      <trkpt lat="64.57991" lon="11.46367">
        <ele>95.292872</ele>
        <time>2020-08-11T09:19:00.959Z</time>
      </trkpt>
      <trkpt lat="64.58001" lon="11.4637">
        <ele>95.297038</ele>
        <time>2020-08-11T09:19:02.971Z</time>
      </trkpt>
      <trkpt lat="64.5801" lon="11.46373">
        <ele>95.301063</ele>
        <time>2020-08-11T09:19:04.966Z</time>
      </trkpt>
      <trkpt lat="64.58019" lon="11.46376">
        <ele>95.305034</ele>
        <time>2020-08-11T09:19:07.007Z</time>
      </trkpt>
      <trkpt lat="64.58028" lon="11.46378">
        <ele>95.309067</ele>
        <time>2020-08-11T09:19:08.953Z</time>
      </trkpt>
      <trkpt lat="64.58038" lon="11.4638">
        <ele>95.313178</ele>
        <time>2020-08-11T09:19:10.999Z</time>
      </trkpt>
      <trkpt lat="64.58048" lon="11.46382">
        <ele>95.317337</ele>
        <time>2020-08-11T09:19:12.972Z</time>
      </trkpt>
      <trkpt lat="64.58058" lon="11.46384">
        <ele>95.321583</ele>
        <time>2020-08-11T09:19:14.979Z</time>
      </trkpt>
      <trkpt lat="64.58068" lon="11.46386">
        <ele>95.325912</ele>
        <time>2020-08-11T09:19:16.958Z</time>
      </trkpt>
      <trkpt lat="64.58078" lon="11.46388">
        <ele>95.330216</ele>
        <time>2020-08-11T09:19:18.984Z</time>
      </trkpt>
      <trkpt lat="64.58088" lon="11.46392">
        <ele>95.334444</ele>
        <time>2020-08-11T09:19:20.971Z</time>
      </trkpt>
      <trkpt lat="64.58098" lon="11.46394">
        <ele>95.33883</ele>
        <time>2020-08-11T09:19:22.975Z</time>
      </trkpt>
      <trkpt lat="64.58108" lon="11.46397">
        <ele>95.235214</ele>
        <time>2020-08-11T09:19:24.959Z</time>
      </trkpt>
      <trkpt lat="64.58118" lon="11.464">
        <ele>95.016379</ele>
        <time>2020-08-11T09:19:26.963Z</time>
      </trkpt>
      <trkpt lat="64.58128" lon="11.46404">
        <ele>94.79768</ele>
        <time>2020-08-11T09:19:28.998Z</time>
      </trkpt>
      <trkpt lat="64.58139" lon="11.46407">
        <ele>94.57795</ele>
        <time>2020-08-11T09:19:30.970Z</time>
      </trkpt>
      <trkpt lat="64.58149" lon="11.46409">
        <ele>94.36518</ele>
        <time>2020-08-11T09:19:32.958Z</time>
      </trkpt>
      <trkpt lat="64.58159" lon="11.46411">
        <ele>94.158171</ele>
        <time>2020-08-11T09:19:34.964Z</time>
      </trkpt>
      <trkpt lat="64.58169" lon="11.46414">
        <ele>93.944801</ele>
        <time>2020-08-11T09:19:36.999Z</time>
      </trkpt>
      <trkpt lat="64.58179" lon="11.46417">
        <ele>93.734541</ele>
        <time>2020-08-11T09:19:38.976Z</time>
      </trkpt>
      <trkpt lat="64.58189" lon="11.46421">
        <ele>93.511135</ele>
        <time>2020-08-11T09:19:40.955Z</time>
      </trkpt>
      <trkpt lat="64.582" lon="11.46426">
        <ele>93.279746</ele>
        <time>2020-08-11T09:19:42.988Z</time>
      </trkpt>
      <trkpt lat="64.58211" lon="11.46431">
        <ele>93.052287</ele>
        <time>2020-08-11T09:19:44.981Z</time>
      </trkpt>
      <trkpt lat="64.58222" lon="11.46439">
        <ele>92.802476</ele>
        <time>2020-08-11T09:19:46.949Z</time>
      </trkpt>
      <trkpt lat="64.58235" lon="11.4645">
        <ele>92.518652</ele>
        <time>2020-08-11T09:19:48.991Z</time>
      </trkpt>
      <trkpt lat="64.5825" lon="11.46463">
        <ele>92.181556</ele>
        <time>2020-08-11T09:19:50.972Z</time>
      </trkpt>
      <trkpt lat="64.58265" lon="11.46476">
        <ele>91.843251</ele>
        <time>2020-08-11T09:19:52.957Z</time>
      </trkpt>
      <trkpt lat="64.58273" lon="11.46484">
        <ele>91.653375</ele>
        <time>2020-08-11T09:19:53.951Z</time>
      </trkpt>
      <trkpt lat="64.58282" lon="11.46492">
        <ele>91.20361</ele>
        <time>2020-08-11T09:19:54.987Z</time>
      </trkpt>
      <trkpt lat="64.58291" lon="11.46499">
        <ele>90.515727</ele>
        <time>2020-08-11T09:19:55.985Z</time>
      </trkpt>
      <trkpt lat="64.58301" lon="11.46504">
        <ele>89.81033</ele>
        <time>2020-08-11T09:19:56.971Z</time>
      </trkpt>
      <trkpt lat="64.58311" lon="11.46509">
        <ele>89.081543</ele>
        <time>2020-08-11T09:19:57.983Z</time>
      </trkpt>
      <trkpt lat="64.58322" lon="11.46513">
        <ele>88.343925</ele>
        <time>2020-08-11T09:19:58.986Z</time>
      </trkpt>
      <trkpt lat="64.58333" lon="11.46516">
        <ele>87.581694</ele>
        <time>2020-08-11T09:19:59.961Z</time>
      </trkpt>
      <trkpt lat="64.58344" lon="11.46519">
        <ele>86.794636</ele>
        <time>2020-08-11T09:20:01.024Z</time>
      </trkpt>
      <trkpt lat="64.58355" lon="11.4652">
        <ele>85.98129</ele>
        <time>2020-08-11T09:20:01.959Z</time>
      </trkpt>
      <trkpt lat="64.58367" lon="11.4652">
        <ele>85.134538</ele>
        <time>2020-08-11T09:20:02.973Z</time>
      </trkpt>
      <trkpt lat="64.5838" lon="11.46518">
        <ele>84.271504</ele>
        <time>2020-08-11T09:20:03.954Z</time>
      </trkpt>
      <trkpt lat="64.58392" lon="11.46516">
        <ele>83.408011</ele>
        <time>2020-08-11T09:20:04.953Z</time>
      </trkpt>
      <trkpt lat="64.58404" lon="11.46513">
        <ele>82.535622</ele>
        <time>2020-08-11T09:20:05.974Z</time>
      </trkpt>
      <trkpt lat="64.58417" lon="11.46509">
        <ele>81.661554</ele>
        <time>2020-08-11T09:20:06.991Z</time>
      </trkpt>
      <trkpt lat="64.5843" lon="11.46506">
        <ele>80.76699</ele>
        <time>2020-08-11T09:20:07.972Z</time>
      </trkpt>
      <trkpt lat="64.58442" lon="11.46504">
        <ele>79.896977</ele>
        <time>2020-08-11T09:20:08.956Z</time>
      </trkpt>
      <trkpt lat="64.58454" lon="11.46503">
        <ele>79.022173</ele>
        <time>2020-08-11T09:20:09.982Z</time>
      </trkpt>
      <trkpt lat="64.58467" lon="11.46504">
        <ele>78.483028</ele>
        <time>2020-08-11T09:20:10.999Z</time>
      </trkpt>
      <trkpt lat="64.5848" lon="11.46505">
        <ele>77.982194</ele>
        <time>2020-08-11T09:20:11.947Z</time>
      </trkpt>
      <trkpt lat="64.58492" lon="11.46509">
        <ele>77.486032</ele>
        <time>2020-08-11T09:20:12.980Z</time>
      </trkpt>
      <trkpt lat="64.58504" lon="11.46514">
        <ele>76.989856</ele>
        <time>2020-08-11T09:20:13.954Z</time>
      </trkpt>
      <trkpt lat="64.58516" lon="11.4652">
        <ele>76.502762</ele>
        <time>2020-08-11T09:20:14.968Z</time>
      </trkpt>
      <trkpt lat="64.58528" lon="11.46526">
        <ele>76.020297</ele>
        <time>2020-08-11T09:20:15.951Z</time>
      </trkpt>
      <trkpt lat="64.5854" lon="11.46531">
        <ele>75.551965</ele>
        <time>2020-08-11T09:20:17.001Z</time>
      </trkpt>
      <trkpt lat="64.58551" lon="11.46535">
        <ele>75.086006</ele>
        <time>2020-08-11T09:20:17.963Z</time>
      </trkpt>
      <trkpt lat="64.58562" lon="11.46539">
        <ele>74.645083</ele>
        <time>2020-08-11T09:20:18.982Z</time>
      </trkpt>
      <trkpt lat="64.58573" lon="11.46543">
        <ele>74.211541</ele>
        <time>2020-08-11T09:20:19.966Z</time>
      </trkpt>
      <trkpt lat="64.58583" lon="11.46546">
        <ele>73.78767</ele>
        <time>2020-08-11T09:20:20.952Z</time>
      </trkpt>
      <trkpt lat="64.58594" lon="11.46549">
        <ele>73.373877</ele>
        <time>2020-08-11T09:20:21.973Z</time>
      </trkpt>
      <trkpt lat="64.58603" lon="11.46549">
        <ele>72.977632</ele>
        <time>2020-08-11T09:20:22.980Z</time>
      </trkpt>
      <trkpt lat="64.58613" lon="11.4655">
        <ele>72.593433</ele>
        <time>2020-08-11T09:20:23.957Z</time>
      </trkpt>
      <trkpt lat="64.58623" lon="11.46551">
        <ele>72.205185</ele>
        <time>2020-08-11T09:20:24.968Z</time>
      </trkpt>
      <trkpt lat="64.58633" lon="11.4655">
        <ele>71.813088</ele>
        <time>2020-08-11T09:20:25.959Z</time>
      </trkpt>
      <trkpt lat="64.58642" lon="11.4655">
        <ele>71.53316</ele>
        <time>2020-08-11T09:20:26.992Z</time>
      </trkpt>
      <trkpt lat="64.58651" lon="11.46549">
        <ele>71.267829</ele>
        <time>2020-08-11T09:20:27.970Z</time>
      </trkpt>
      <trkpt lat="64.5866" lon="11.46548">
        <ele>71.008031</ele>
        <time>2020-08-11T09:20:28.952Z</time>
      </trkpt>
      <trkpt lat="64.58678" lon="11.46544">
        <ele>70.504417</ele>
        <time>2020-08-11T09:20:30.985Z</time>
      </trkpt>
      <trkpt lat="64.58695" lon="11.46539">
        <ele>70.021387</ele>
        <time>2020-08-11T09:20:32.972Z</time>
      </trkpt>
      <trkpt lat="64.58711" lon="11.46532">
        <ele>69.552506</ele>
        <time>2020-08-11T09:20:34.966Z</time>
      </trkpt>
      <trkpt lat="64.58727" lon="11.46525">
        <ele>69.095821</ele>
        <time>2020-08-11T09:20:37.000Z</time>
      </trkpt>
      <trkpt lat="64.58741" lon="11.46516">
        <ele>68.668624</ele>
        <time>2020-08-11T09:20:38.988Z</time>
      </trkpt>
      <trkpt lat="64.58755" lon="11.46505">
        <ele>68.260471</ele>
        <time>2020-08-11T09:20:40.970Z</time>
      </trkpt>
      <trkpt lat="64.58768" lon="11.46493">
        <ele>67.855155</ele>
        <time>2020-08-11T09:20:42.975Z</time>
      </trkpt>
      <trkpt lat="64.5878" lon="11.46478">
        <ele>67.463577</ele>
        <time>2020-08-11T09:20:44.968Z</time>
      </trkpt>
      <trkpt lat="64.58793" lon="11.46462">
        <ele>67.057555</ele>
        <time>2020-08-11T09:20:46.979Z</time>
      </trkpt>
      <trkpt lat="64.58805" lon="11.46446">
        <ele>66.639327</ele>
        <time>2020-08-11T09:20:48.994Z</time>
      </trkpt>
      <trkpt lat="64.58819" lon="11.46427">
        <ele>66.183178</ele>
        <time>2020-08-11T09:20:50.961Z</time>
      </trkpt>
      <trkpt lat="64.58832" lon="11.46408">
        <ele>65.718003</ele>
        <time>2020-08-11T09:20:52.964Z</time>
      </trkpt>
      <trkpt lat="64.58846" lon="11.4639">
        <ele>65.234105</ele>
        <time>2020-08-11T09:20:54.959Z</time>
      </trkpt>
      <trkpt lat="64.58862" lon="11.46373">
        <ele>64.726809</ele>
        <time>2020-08-11T09:20:56.981Z</time>
      </trkpt>
      <trkpt lat="64.58878" lon="11.46357">
        <ele>64.200353</ele>
        <time>2020-08-11T09:20:58.976Z</time>
      </trkpt>
      <trkpt lat="64.58887" lon="11.46351">
        <ele>63.933867</ele>
        <time>2020-08-11T09:20:59.966Z</time>
      </trkpt>
      <trkpt lat="64.58903" lon="11.46339">
        <ele>63.416937</ele>
        <time>2020-08-11T09:21:01.969Z</time>
      </trkpt>
      <trkpt lat="64.5892" lon="11.46325">
        <ele>62.890814</ele>
        <time>2020-08-11T09:21:03.961Z</time>
      </trkpt>
      <trkpt lat="64.58937" lon="11.46311">
        <ele>62.368</ele>
        <time>2020-08-11T09:21:05.999Z</time>
      </trkpt>
      <trkpt lat="64.58953" lon="11.46295">
        <ele>61.846174</ele>
        <time>2020-08-11T09:21:07.956Z</time>
      </trkpt>
      <trkpt lat="64.58969" lon="11.46278">
        <ele>61.323943</ele>
        <time>2020-08-11T09:21:09.960Z</time>
      </trkpt>
      <trkpt lat="64.58984" lon="11.46258">
        <ele>61.261151</ele>
        <time>2020-08-11T09:21:11.970Z</time>
      </trkpt>
      <trkpt lat="64.58999" lon="11.46236">
        <ele>61.209922</ele>
        <time>2020-08-11T09:21:13.986Z</time>
      </trkpt>
      <trkpt lat="64.59012" lon="11.46211">
        <ele>61.159224</ele>
        <time>2020-08-11T09:21:15.961Z</time>
      </trkpt>
      <trkpt lat="64.59025" lon="11.46186">
        <ele>61.110104</ele>
        <time>2020-08-11T09:21:17.967Z</time>
      </trkpt>
      <trkpt lat="64.59036" lon="11.46161">
        <ele>61.064486</ele>
        <time>2020-08-11T09:21:19.982Z</time>
      </trkpt>
      <trkpt lat="64.59047" lon="11.46138">
        <ele>61.020903</ele>
        <time>2020-08-11T09:21:21.985Z</time>
      </trkpt>
      <trkpt lat="64.59056" lon="11.46115">
        <ele>60.980674</ele>
        <time>2020-08-11T09:21:23.954Z</time>
      </trkpt>
      <trkpt lat="64.59064" lon="11.46093">
        <ele>60.943488</ele>
        <time>2020-08-11T09:21:25.977Z</time>
      </trkpt>
      <trkpt lat="64.59072" lon="11.46071">
        <ele>60.907646</ele>
        <time>2020-08-11T09:21:27.962Z</time>
      </trkpt>
      <trkpt lat="64.59079" lon="11.4605">
        <ele>60.874105</ele>
        <time>2020-08-11T09:21:29.956Z</time>
      </trkpt>
      <trkpt lat="64.59085" lon="11.46031">
        <ele>60.843018</ele>
        <time>2020-08-11T09:21:31.962Z</time>
      </trkpt>
      <trkpt lat="64.59091" lon="11.46011">
        <ele>60.813067</ele>
        <time>2020-08-11T09:21:33.965Z</time>
      </trkpt>
      <trkpt lat="64.59096" lon="11.45993">
        <ele>60.785291</ele>
        <time>2020-08-11T09:21:35.988Z</time>
      </trkpt>
      <trkpt lat="64.59103" lon="11.45967">
        <ele>61.124545</ele>
        <time>2020-08-11T09:21:38.975Z</time>
      </trkpt>
      <trkpt lat="64.59109" lon="11.45942">
        <ele>61.509554</ele>
        <time>2020-08-11T09:21:41.958Z</time>
      </trkpt>
      <trkpt lat="64.59115" lon="11.45915">
        <ele>61.901493</ele>
        <time>2020-08-11T09:21:44.957Z</time>
      </trkpt>
      <trkpt lat="64.59121" lon="11.45891">
        <ele>62.271277</ele>
        <time>2020-08-11T09:21:47.965Z</time>
      </trkpt>
      <trkpt lat="64.59127" lon="11.45866">
        <ele>62.648037</ele>
        <time>2020-08-11T09:21:50.989Z</time>
      </trkpt>
      <trkpt lat="64.59132" lon="11.45842">
        <ele>63.005798</ele>
        <time>2020-08-11T09:21:53.990Z</time>
      </trkpt>
      <trkpt lat="64.59138" lon="11.45819">
        <ele>63.351555</ele>
        <time>2020-08-11T09:21:56.965Z</time>
      </trkpt>
      <trkpt lat="64.59144" lon="11.45797">
        <ele>63.692396</ele>
        <time>2020-08-11T09:21:59.960Z</time>
      </trkpt>
      <trkpt lat="64.5915" lon="11.45776">
        <ele>64.033621</ele>
        <time>2020-08-11T09:22:02.976Z</time>
      </trkpt>
      <trkpt lat="64.59156" lon="11.45753">
        <ele>64.390985</ele>
        <time>2020-08-11T09:22:05.972Z</time>
      </trkpt>
      <trkpt lat="64.59162" lon="11.45732">
        <ele>64.726114</ele>
        <time>2020-08-11T09:22:08.968Z</time>
      </trkpt>
      <trkpt lat="64.59168" lon="11.4571">
        <ele>65.064575</ele>
        <time>2020-08-11T09:22:12.037Z</time>
      </trkpt>
      <trkpt lat="64.59175" lon="11.45688">
        <ele>65.41936</ele>
        <time>2020-08-11T09:22:14.973Z</time>
      </trkpt>
      <trkpt lat="64.59182" lon="11.45667">
        <ele>65.778892</ele>
        <time>2020-08-11T09:22:17.962Z</time>
      </trkpt>
      <trkpt lat="64.59189" lon="11.45645">
        <ele>66.139472</ele>
        <time>2020-08-11T09:22:20.970Z</time>
      </trkpt>
      <trkpt lat="64.59196" lon="11.45627">
        <ele>66.370756</ele>
        <time>2020-08-11T09:22:23.948Z</time>
      </trkpt>
      <trkpt lat="64.59202" lon="11.45609">
        <ele>66.501996</ele>
        <time>2020-08-11T09:22:26.998Z</time>
      </trkpt>
      <trkpt lat="64.59208" lon="11.45591">
        <ele>66.63428</ele>
        <time>2020-08-11T09:22:29.960Z</time>
      </trkpt>
      <trkpt lat="64.59215" lon="11.45573">
        <ele>66.768971</ele>
        <time>2020-08-11T09:22:32.958Z</time>
      </trkpt>
      <trkpt lat="64.59221" lon="11.45554">
        <ele>66.908095</ele>
        <time>2020-08-11T09:22:36.005Z</time>
      </trkpt>
      <trkpt lat="64.59228" lon="11.45535">
        <ele>67.047742</ele>
        <time>2020-08-11T09:22:38.962Z</time>
      </trkpt>
      <trkpt lat="64.59234" lon="11.45516">
        <ele>67.186935</ele>
        <time>2020-08-11T09:22:41.981Z</time>
      </trkpt>
      <trkpt lat="64.5924" lon="11.45499">
        <ele>67.30777</ele>
        <time>2020-08-11T09:22:44.965Z</time>
      </trkpt>
      <trkpt lat="64.59245" lon="11.45482">
        <ele>67.430978</ele>
        <time>2020-08-11T09:22:47.970Z</time>
      </trkpt>
      <trkpt lat="64.59252" lon="11.45463">
        <ele>67.567537</ele>
        <time>2020-08-11T09:22:50.970Z</time>
      </trkpt>
      <trkpt lat="64.59258" lon="11.45445">
        <ele>67.698456</ele>
        <time>2020-08-11T09:22:53.949Z</time>
      </trkpt>
      <trkpt lat="64.59264" lon="11.45429">
        <ele>67.823118</ele>
        <time>2020-08-11T09:22:56.978Z</time>
      </trkpt>
      <trkpt lat="64.59269" lon="11.4541">
        <ele>67.950145</ele>
        <time>2020-08-11T09:22:59.960Z</time>
      </trkpt>
      <trkpt lat="64.59275" lon="11.45391">
        <ele>68.086352</ele>
        <time>2020-08-11T09:23:02.980Z</time>
      </trkpt>
      <trkpt lat="64.5928" lon="11.4537">
        <ele>68.224514</ele>
        <time>2020-08-11T09:23:05.971Z</time>
      </trkpt>
      <trkpt lat="64.59285" lon="11.45349">
        <ele>68.366806</ele>
        <time>2020-08-11T09:23:08.982Z</time>
      </trkpt>
      <trkpt lat="64.59291" lon="11.45325">
        <ele>68.525366</ele>
        <time>2020-08-11T09:23:12.003Z</time>
      </trkpt>
      <trkpt lat="64.59297" lon="11.45299">
        <ele>68.694207</ele>
        <time>2020-08-11T09:23:14.992Z</time>
      </trkpt>
      <trkpt lat="64.59301" lon="11.4528">
        <ele>68.359106</ele>
        <time>2020-08-11T09:23:16.976Z</time>
      </trkpt>
      <trkpt lat="64.59305" lon="11.4526">
        <ele>67.93908</ele>
        <time>2020-08-11T09:23:18.964Z</time>
      </trkpt>
      <trkpt lat="64.59308" lon="11.45238">
        <ele>67.507813</ele>
        <time>2020-08-11T09:23:20.984Z</time>
      </trkpt>
      <trkpt lat="64.59311" lon="11.45216">
        <ele>67.05801</ele>
        <time>2020-08-11T09:23:22.968Z</time>
      </trkpt>
      <trkpt lat="64.59313" lon="11.45191">
        <ele>66.580894</ele>
        <time>2020-08-11T09:23:24.962Z</time>
      </trkpt>
      <trkpt lat="64.59314" lon="11.45164">
        <ele>66.058714</ele>
        <time>2020-08-11T09:23:26.983Z</time>
      </trkpt>
      <trkpt lat="64.59315" lon="11.45134">
        <ele>65.486784</ele>
        <time>2020-08-11T09:23:28.963Z</time>
      </trkpt>
      <trkpt lat="64.59314" lon="11.45101">
        <ele>64.867467</ele>
        <time>2020-08-11T09:23:30.996Z</time>
      </trkpt>
      <trkpt lat="64.59312" lon="11.45067">
        <ele>64.218851</ele>
        <time>2020-08-11T09:23:32.974Z</time>
      </trkpt>
      <trkpt lat="64.59309" lon="11.45032">
        <ele>63.523924</ele>
        <time>2020-08-11T09:23:34.979Z</time>
      </trkpt>
      <trkpt lat="64.59302" lon="11.44996">
        <ele>62.795669</ele>
        <time>2020-08-11T09:23:36.999Z</time>
      </trkpt>
      <trkpt lat="64.59295" lon="11.4496">
        <ele>62.031594</ele>
        <time>2020-08-11T09:23:38.964Z</time>
      </trkpt>
      <trkpt lat="64.59291" lon="11.44942">
        <ele>61.633001</ele>
        <time>2020-08-11T09:23:39.966Z</time>
      </trkpt>
      <trkpt lat="64.59286" lon="11.44923">
        <ele>61.218031</ele>
        <time>2020-08-11T09:23:40.966Z</time>
      </trkpt>
      <trkpt lat="64.59282" lon="11.44903">
        <ele>60.796367</ele>
        <time>2020-08-11T09:23:41.957Z</time>
      </trkpt>
      <trkpt lat="64.59277" lon="11.44883">
        <ele>60.23275</ele>
        <time>2020-08-11T09:23:42.981Z</time>
      </trkpt>
      <trkpt lat="64.59271" lon="11.44863">
        <ele>59.626357</ele>
        <time>2020-08-11T09:23:43.968Z</time>
      </trkpt>
      <trkpt lat="64.59266" lon="11.44842">
        <ele>58.997758</ele>
        <time>2020-08-11T09:23:44.970Z</time>
      </trkpt>
      <trkpt lat="64.5926" lon="11.4482">
        <ele>58.352162</ele>
        <time>2020-08-11T09:23:45.967Z</time>
      </trkpt>
      <trkpt lat="64.59255" lon="11.44797">
        <ele>57.701549</ele>
        <time>2020-08-11T09:23:47.002Z</time>
      </trkpt>
      <trkpt lat="64.59251" lon="11.44773">
        <ele>57.041502</ele>
        <time>2020-08-11T09:23:48.005Z</time>
      </trkpt>
      <trkpt lat="64.59249" lon="11.44747">
        <ele>56.372508</ele>
        <time>2020-08-11T09:23:48.982Z</time>
      </trkpt>
      <trkpt lat="64.59247" lon="11.44721">
        <ele>55.705329</ele>
        <time>2020-08-11T09:23:49.961Z</time>
      </trkpt>
      <trkpt lat="64.59247" lon="11.44694">
        <ele>55.033273</ele>
        <time>2020-08-11T09:23:50.963Z</time>
      </trkpt>
      <trkpt lat="64.59247" lon="11.44668">
        <ele>54.366698</ele>
        <time>2020-08-11T09:23:51.971Z</time>
      </trkpt>
      <trkpt lat="64.59248" lon="11.44642">
        <ele>53.694678</ele>
        <time>2020-08-11T09:23:52.969Z</time>
      </trkpt>
      <trkpt lat="64.5925" lon="11.44615">
        <ele>53.019965</ele>
        <time>2020-08-11T09:23:54.021Z</time>
      </trkpt>
      <trkpt lat="64.59252" lon="11.44589">
        <ele>52.342408</ele>
        <time>2020-08-11T09:23:54.992Z</time>
      </trkpt>
      <trkpt lat="64.59255" lon="11.44563">
        <ele>51.647356</ele>
        <time>2020-08-11T09:23:55.964Z</time>
      </trkpt>
      <trkpt lat="64.59259" lon="11.44537">
        <ele>50.959784</ele>
        <time>2020-08-11T09:23:56.955Z</time>
      </trkpt>
      <trkpt lat="64.59264" lon="11.44514">
        <ele>50.290657</ele>
        <time>2020-08-11T09:23:57.990Z</time>
      </trkpt>
      <trkpt lat="64.5927" lon="11.4449">
        <ele>50.221714</ele>
        <time>2020-08-11T09:23:58.965Z</time>
      </trkpt>
      <trkpt lat="64.59275" lon="11.44469">
        <ele>50.376513</ele>
        <time>2020-08-11T09:23:59.945Z</time>
      </trkpt>
      <trkpt lat="64.59282" lon="11.44449">
        <ele>50.524931</ele>
        <time>2020-08-11T09:24:00.965Z</time>
      </trkpt>
      <trkpt lat="64.59288" lon="11.44431">
        <ele>50.666521</ele>
        <time>2020-08-11T09:24:01.955Z</time>
      </trkpt>
      <trkpt lat="64.59294" lon="11.44413">
        <ele>50.805301</ele>
        <time>2020-08-11T09:24:02.980Z</time>
      </trkpt>
      <trkpt lat="64.59301" lon="11.44397">
        <ele>50.937684</ele>
        <time>2020-08-11T09:24:03.966Z</time>
      </trkpt>
      <trkpt lat="64.59312" lon="11.44369">
        <ele>51.168852</ele>
        <time>2020-08-11T09:24:05.966Z</time>
      </trkpt>
      <trkpt lat="64.5932" lon="11.44345">
        <ele>51.357716</ele>
        <time>2020-08-11T09:24:07.950Z</time>
      </trkpt>
      <trkpt lat="64.59327" lon="11.44327">
        <ele>51.502137</ele>
        <time>2020-08-11T09:24:09.963Z</time>
      </trkpt>
      <trkpt lat="64.59336" lon="11.44316">
        <ele>51.641139</ele>
        <time>2020-08-11T09:24:14.029Z</time>
      </trkpt>
      <trkpt lat="64.59345" lon="11.44311">
        <ele>51.771297</ele>
        <time>2020-08-11T09:24:19.945Z</time>
      </trkpt>
      <trkpt lat="64.59356" lon="11.44288">
        <ele>51.981247</ele>
        <time>2020-08-11T09:38:22.958Z</time>
      </trkpt>
      <trkpt lat="64.59368" lon="11.44251">
        <ele>52.263951</ele>
        <time>2020-08-11T09:38:34.987Z</time>
      </trkpt>
      <trkpt lat="64.59377" lon="11.44236">
        <ele>52.414406</ele>
        <time>2020-08-11T09:38:39.962Z</time>
      </trkpt>
      <trkpt lat="64.59384" lon="11.44224">
        <ele>52.54232</ele>
        <time>2020-08-11T09:38:43.966Z</time>
      </trkpt>
      <trkpt lat="64.59392" lon="11.44212">
        <ele>52.677824</ele>
        <time>2020-08-11T09:38:48.969Z</time>
      </trkpt>
      <trkpt lat="64.59401" lon="11.44198">
        <ele>52.823385</ele>
        <time>2020-08-11T09:38:54.956Z</time>
      </trkpt>
      <trkpt lat="64.5941" lon="11.44187">
        <ele>52.969485</ele>
        <time>2020-08-11T09:39:00.958Z</time>
      </trkpt>
      <trkpt lat="64.59418" lon="11.44175">
        <ele>53.097512</ele>
        <time>2020-08-11T09:39:05.970Z</time>
      </trkpt>
      <trkpt lat="64.59424" lon="11.4416">
        <ele>53.228434</ele>
        <time>2020-08-11T09:39:10.960Z</time>
      </trkpt>
      <trkpt lat="64.59432" lon="11.44146">
        <ele>53.367142</ele>
        <time>2020-08-11T09:39:15.973Z</time>
      </trkpt>
      <trkpt lat="64.5944" lon="11.4413">
        <ele>53.511401</ele>
        <time>2020-08-11T09:39:20.969Z</time>
      </trkpt>
      <trkpt lat="64.59448" lon="11.44112">
        <ele>53.665457</ele>
        <time>2020-08-11T09:39:26.005Z</time>
      </trkpt>
      <trkpt lat="64.59454" lon="11.44096">
        <ele>53.791654</ele>
        <time>2020-08-11T09:39:29.978Z</time>
      </trkpt>
      <trkpt lat="64.5946" lon="11.44074">
        <ele>53.942302</ele>
        <time>2020-08-11T09:39:34.969Z</time>
      </trkpt>
      <trkpt lat="64.59464" lon="11.44052">
        <ele>54.094815</ele>
        <time>2020-08-11T09:39:39.956Z</time>
      </trkpt>
      <trkpt lat="64.59468" lon="11.44032">
        <ele>54.224624</ele>
        <time>2020-08-11T09:39:43.956Z</time>
      </trkpt>
      <trkpt lat="64.59473" lon="11.44011">
        <ele>54.366176</ele>
        <time>2020-08-11T09:39:47.978Z</time>
      </trkpt>
      <trkpt lat="64.59477" lon="11.43991">
        <ele>54.499824</ele>
        <time>2020-08-11T09:39:50.986Z</time>
      </trkpt>
      <trkpt lat="64.59482" lon="11.43968">
        <ele>54.655312</ele>
        <time>2020-08-11T09:39:54.014Z</time>
      </trkpt>
      <trkpt lat="64.59489" lon="11.43942">
        <ele>54.833739</ele>
        <time>2020-08-11T09:39:56.968Z</time>
      </trkpt>
      <trkpt lat="64.59495" lon="11.43923">
        <ele>54.974711</ele>
        <time>2020-08-11T09:39:59.027Z</time>
      </trkpt>
      <trkpt lat="64.59502" lon="11.43902">
        <ele>55.134087</ele>
        <time>2020-08-11T09:40:00.970Z</time>
      </trkpt>
      <trkpt lat="64.5951" lon="11.43883">
        <ele>55.349487</ele>
        <time>2020-08-11T09:40:02.959Z</time>
      </trkpt>
      <trkpt lat="64.59518" lon="11.43864">
        <ele>55.570307</ele>
        <time>2020-08-11T09:40:04.996Z</time>
      </trkpt>
      <trkpt lat="64.59527" lon="11.43851">
        <ele>55.776029</ele>
        <time>2020-08-11T09:40:06.957Z</time>
      </trkpt>
      <trkpt lat="64.59536" lon="11.43841">
        <ele>55.965888</ele>
        <time>2020-08-11T09:40:08.960Z</time>
      </trkpt>
      <trkpt lat="64.59545" lon="11.43832">
        <ele>56.143289</ele>
        <time>2020-08-11T09:40:10.965Z</time>
      </trkpt>
      <trkpt lat="64.59557" lon="11.43823">
        <ele>56.395464</ele>
        <time>2020-08-11T09:40:13.995Z</time>
      </trkpt>
      <trkpt lat="64.59569" lon="11.4382">
        <ele>56.619143</ele>
        <time>2020-08-11T09:40:16.969Z</time>
      </trkpt>
      <trkpt lat="64.59579" lon="11.43819">
        <ele>56.807154</ele>
        <time>2020-08-11T09:40:19.961Z</time>
      </trkpt>
      <trkpt lat="64.59588" lon="11.43818">
        <ele>56.993858</ele>
        <time>2020-08-11T09:40:23.979Z</time>
      </trkpt>
      <trkpt lat="64.59598" lon="11.43816">
        <ele>57.172781</ele>
        <time>2020-08-11T09:40:28.995Z</time>
      </trkpt>
      <trkpt lat="64.59609" lon="11.43816">
        <ele>57.381847</ele>
        <time>2020-08-11T09:40:33.973Z</time>
      </trkpt>
      <trkpt lat="64.59618" lon="11.43815">
        <ele>57.56027</ele>
        <time>2020-08-11T09:40:37.996Z</time>
      </trkpt>
      <trkpt lat="64.59629" lon="11.43814">
        <ele>57.765821</ele>
        <time>2020-08-11T09:40:42.988Z</time>
      </trkpt>
      <trkpt lat="64.59638" lon="11.43814">
        <ele>57.940369</ele>
        <time>2020-08-11T09:40:46.957Z</time>
      </trkpt>
      <trkpt lat="64.59649" lon="11.43814">
        <ele>58.149491</ele>
        <time>2020-08-11T09:40:51.975Z</time>
      </trkpt>
      <trkpt lat="64.5966" lon="11.43813">
        <ele>58.366733</ele>
        <time>2020-08-11T09:40:56.969Z</time>
      </trkpt>
      <trkpt lat="64.5967" lon="11.43809">
        <ele>58.560684</ele>
        <time>2020-08-11T09:41:01.010Z</time>
      </trkpt>
      <trkpt lat="64.5968" lon="11.43804">
        <ele>58.59434</ele>
        <time>2020-08-11T09:41:04.960Z</time>
      </trkpt>
      <trkpt lat="64.59689" lon="11.43795">
        <ele>58.585062</ele>
        <time>2020-08-11T09:41:08.984Z</time>
      </trkpt>
      <trkpt lat="64.597" lon="11.43787">
        <ele>58.575039</ele>
        <time>2020-08-11T09:41:12.960Z</time>
      </trkpt>
      <trkpt lat="64.59711" lon="11.43776">
        <ele>58.564854</ele>
        <time>2020-08-11T09:41:16.969Z</time>
      </trkpt>
      <trkpt lat="64.59719" lon="11.43768">
        <ele>58.55624</ele>
        <time>2020-08-11T09:41:19.964Z</time>
      </trkpt>
      <trkpt lat="64.59729" lon="11.43756">
        <ele>58.546413</ele>
        <time>2020-08-11T09:41:22.978Z</time>
      </trkpt>
      <trkpt lat="64.5974" lon="11.43747">
        <ele>58.535912</ele>
        <time>2020-08-11T09:41:25.963Z</time>
      </trkpt>
      <trkpt lat="64.59751" lon="11.43734">
        <ele>58.524868</ele>
        <time>2020-08-11T09:41:28.999Z</time>
      </trkpt>
      <trkpt lat="64.59762" lon="11.4372">
        <ele>58.513893</ele>
        <time>2020-08-11T09:41:32.009Z</time>
      </trkpt>
      <trkpt lat="64.59773" lon="11.43708">
        <ele>58.503471</ele>
        <time>2020-08-11T09:41:34.968Z</time>
      </trkpt>
      <trkpt lat="64.59783" lon="11.43697">
        <ele>58.49326</ele>
        <time>2020-08-11T09:41:37.979Z</time>
      </trkpt>
      <trkpt lat="64.59793" lon="11.43686">
        <ele>58.483162</ele>
        <time>2020-08-11T09:41:40.968Z</time>
      </trkpt>
      <trkpt lat="64.59803" lon="11.43678">
        <ele>58.473684</ele>
        <time>2020-08-11T09:41:43.983Z</time>
      </trkpt>
      <trkpt lat="64.59813" lon="11.4367">
        <ele>58.464627</ele>
        <time>2020-08-11T09:41:46.972Z</time>
      </trkpt>
      <trkpt lat="64.59823" lon="11.43664">
        <ele>58.454892</ele>
        <time>2020-08-11T09:41:49.957Z</time>
      </trkpt>
      <trkpt lat="64.59833" lon="11.43659">
        <ele>58.445748</ele>
        <time>2020-08-11T09:41:52.970Z</time>
      </trkpt>
      <trkpt lat="64.59843" lon="11.43656">
        <ele>58.488229</ele>
        <time>2020-08-11T09:41:55.967Z</time>
      </trkpt>
      <trkpt lat="64.59853" lon="11.43655">
        <ele>58.602267</ele>
        <time>2020-08-11T09:41:58.953Z</time>
      </trkpt>
      <trkpt lat="64.59863" lon="11.43654">
        <ele>58.719582</ele>
        <time>2020-08-11T09:42:01.964Z</time>
      </trkpt>
      <trkpt lat="64.59873" lon="11.43654">
        <ele>58.831112</ele>
        <time>2020-08-11T09:42:05.003Z</time>
      </trkpt>
      <trkpt lat="64.59883" lon="11.43655">
        <ele>58.944993</ele>
        <time>2020-08-11T09:42:07.960Z</time>
      </trkpt>
      <trkpt lat="64.59893" lon="11.43657">
        <ele>59.058061</ele>
        <time>2020-08-11T09:42:10.961Z</time>
      </trkpt>
      <trkpt lat="64.59902" lon="11.43658">
        <ele>59.166253</ele>
        <time>2020-08-11T09:42:13.959Z</time>
      </trkpt>
      <trkpt lat="64.59912" lon="11.43661">
        <ele>59.278963</ele>
        <time>2020-08-11T09:42:16.971Z</time>
      </trkpt>
      <trkpt lat="64.59921" lon="11.43663">
        <ele>59.389924</ele>
        <time>2020-08-11T09:42:19.986Z</time>
      </trkpt>
      <trkpt lat="64.59931" lon="11.43664">
        <ele>59.500413</ele>
        <time>2020-08-11T09:42:23.011Z</time>
      </trkpt>
      <trkpt lat="64.59941" lon="11.43665">
        <ele>59.611952</ele>
        <time>2020-08-11T09:42:25.979Z</time>
      </trkpt>
      <trkpt lat="64.5995" lon="11.43664">
        <ele>59.720104</ele>
        <time>2020-08-11T09:42:28.992Z</time>
      </trkpt>
      <trkpt lat="64.5996" lon="11.43663">
        <ele>59.836283</ele>
        <time>2020-08-11T09:42:31.947Z</time>
      </trkpt>
      <trkpt lat="64.5997" lon="11.43662">
        <ele>59.954974</ele>
        <time>2020-08-11T09:42:34.953Z</time>
      </trkpt>
      <trkpt lat="64.59981" lon="11.4366">
        <ele>60.079433</ele>
        <time>2020-08-11T09:42:37.968Z</time>
      </trkpt>
      <trkpt lat="64.59992" lon="11.43657">
        <ele>60.200788</ele>
        <time>2020-08-11T09:42:40.977Z</time>
      </trkpt>
      <trkpt lat="64.60002" lon="11.43654">
        <ele>60.323038</ele>
        <time>2020-08-11T09:42:43.967Z</time>
      </trkpt>
      <trkpt lat="64.60013" lon="11.4365">
        <ele>60.446131</ele>
        <time>2020-08-11T09:42:46.950Z</time>
      </trkpt>
      <trkpt lat="64.60024" lon="11.43646">
        <ele>60.385721</ele>
        <time>2020-08-11T09:42:49.968Z</time>
      </trkpt>
      <trkpt lat="64.60036" lon="11.43641">
        <ele>60.134668</ele>
        <time>2020-08-11T09:42:52.975Z</time>
      </trkpt>
      <trkpt lat="64.60048" lon="11.43635">
        <ele>59.875656</ele>
        <time>2020-08-11T09:42:55.962Z</time>
      </trkpt>
      <trkpt lat="64.60061" lon="11.43629">
        <ele>59.603887</ele>
        <time>2020-08-11T09:42:58.964Z</time>
      </trkpt>
      <trkpt lat="64.6007" lon="11.43624">
        <ele>59.415808</ele>
        <time>2020-08-11T09:43:00.962Z</time>
      </trkpt>
      <trkpt lat="64.60083" lon="11.43616">
        <ele>59.136758</ele>
        <time>2020-08-11T09:43:03.988Z</time>
      </trkpt>
      <trkpt lat="64.60096" lon="11.43609">
        <ele>58.861425</ele>
        <time>2020-08-11T09:43:06.968Z</time>
      </trkpt>
      <trkpt lat="64.60109" lon="11.43603">
        <ele>58.585761</ele>
        <time>2020-08-11T09:43:09.962Z</time>
      </trkpt>
      <trkpt lat="64.60121" lon="11.43596">
        <ele>58.317303</ele>
        <time>2020-08-11T09:43:13.000Z</time>
      </trkpt>
      <trkpt lat="64.60134" lon="11.43588">
        <ele>58.04512</ele>
        <time>2020-08-11T09:43:15.955Z</time>
      </trkpt>
      <trkpt lat="64.60147" lon="11.4358">
        <ele>57.770759</ele>
        <time>2020-08-11T09:43:18.977Z</time>
      </trkpt>
      <trkpt lat="64.60155" lon="11.43573">
        <ele>57.573727</ele>
        <time>2020-08-11T09:43:20.952Z</time>
      </trkpt>
      <trkpt lat="64.60164" lon="11.43565">
        <ele>57.373499</ele>
        <time>2020-08-11T09:43:22.961Z</time>
      </trkpt>
      <trkpt lat="64.60173" lon="11.43557">
        <ele>57.180365</ele>
        <time>2020-08-11T09:43:24.999Z</time>
      </trkpt>
      <trkpt lat="64.60181" lon="11.43548">
        <ele>56.98962</ele>
        <time>2020-08-11T09:43:26.983Z</time>
      </trkpt>
      <trkpt lat="64.60189" lon="11.43537">
        <ele>56.797001</ele>
        <time>2020-08-11T09:43:28.952Z</time>
      </trkpt>
      <trkpt lat="64.60197" lon="11.43525">
        <ele>56.964738</ele>
        <time>2020-08-11T09:43:30.963Z</time>
      </trkpt>
      <trkpt lat="64.60205" lon="11.43512">
        <ele>57.20273</ele>
        <time>2020-08-11T09:43:33.020Z</time>
      </trkpt>
      <trkpt lat="64.60213" lon="11.43498">
        <ele>57.439134</ele>
        <time>2020-08-11T09:43:34.963Z</time>
      </trkpt>
      <trkpt lat="64.6022" lon="11.43483">
        <ele>57.679238</ele>
        <time>2020-08-11T09:43:36.950Z</time>
      </trkpt>
      <trkpt lat="64.60227" lon="11.43468">
        <ele>57.916725</ele>
        <time>2020-08-11T09:43:39.004Z</time>
      </trkpt>
      <trkpt lat="64.60233" lon="11.43453">
        <ele>58.140912</ele>
        <time>2020-08-11T09:43:40.973Z</time>
      </trkpt>
      <trkpt lat="64.60242" lon="11.43432">
        <ele>58.457911</ele>
        <time>2020-08-11T09:43:43.973Z</time>
      </trkpt>
      <trkpt lat="64.60251" lon="11.4341">
        <ele>58.764926</ele>
        <time>2020-08-11T09:43:46.958Z</time>
      </trkpt>
      <trkpt lat="64.60259" lon="11.4339">
        <ele>59.05759</ele>
        <time>2020-08-11T09:43:49.959Z</time>
      </trkpt>
      <trkpt lat="64.60267" lon="11.43372">
        <ele>59.330894</ele>
        <time>2020-08-11T09:43:52.950Z</time>
      </trkpt>
      <trkpt lat="64.60274" lon="11.43355">
        <ele>59.587739</ele>
        <time>2020-08-11T09:43:55.969Z</time>
      </trkpt>
      <trkpt lat="64.6028" lon="11.43339">
        <ele>59.816734</ele>
        <time>2020-08-11T09:43:58.995Z</time>
      </trkpt>
      <trkpt lat="64.60288" lon="11.4332">
        <ele>60.084458</ele>
        <time>2020-08-11T09:44:02.968Z</time>
      </trkpt>
      <trkpt lat="64.60294" lon="11.43303">
        <ele>60.332805</ele>
        <time>2020-08-11T09:44:06.974Z</time>
      </trkpt>
      <trkpt lat="64.60301" lon="11.43287">
        <ele>60.561272</ele>
        <time>2020-08-11T09:44:10.956Z</time>
      </trkpt>
      <trkpt lat="64.60308" lon="11.4327">
        <ele>60.813627</ele>
        <time>2020-08-11T09:44:15.965Z</time>
      </trkpt>
      <trkpt lat="64.60314" lon="11.43253">
        <ele>61.049793</ele>
        <time>2020-08-11T09:44:20.960Z</time>
      </trkpt>
      <trkpt lat="64.6032" lon="11.43233">
        <ele>61.53377</ele>
        <time>2020-08-11T09:44:26.970Z</time>
      </trkpt>
      <trkpt lat="64.60327" lon="11.43216">
        <ele>62.32839</ele>
        <time>2020-08-11T09:44:32.980Z</time>
      </trkpt>
      <trkpt lat="64.60332" lon="11.43197">
        <ele>63.127395</ele>
        <time>2020-08-11T09:44:38.971Z</time>
      </trkpt>
      <trkpt lat="64.60338" lon="11.43179">
        <ele>63.915302</ele>
        <time>2020-08-11T09:44:45.965Z</time>
      </trkpt>
      <trkpt lat="64.60343" lon="11.43161">
        <ele>64.653006</ele>
        <time>2020-08-11T09:44:51.960Z</time>
      </trkpt>
      <trkpt lat="64.60348" lon="11.43142">
        <ele>65.450227</ele>
        <time>2020-08-11T09:44:59.000Z</time>
      </trkpt>
      <trkpt lat="64.60355" lon="11.43126">
        <ele>66.192161</ele>
        <time>2020-08-11T09:45:04.955Z</time>
      </trkpt>
      <trkpt lat="64.60361" lon="11.43109">
        <ele>66.963235</ele>
        <time>2020-08-11T09:45:11.986Z</time>
      </trkpt>
      <trkpt lat="64.60367" lon="11.43091">
        <ele>67.767116</ele>
        <time>2020-08-11T09:45:19.957Z</time>
      </trkpt>
      <trkpt lat="64.60372" lon="11.43073">
        <ele>68.524465</ele>
        <time>2020-08-11T09:45:25.986Z</time>
      </trkpt>
      <trkpt lat="64.60378" lon="11.43053">
        <ele>69.361238</ele>
        <time>2020-08-11T09:45:32.963Z</time>
      </trkpt>
      <trkpt lat="64.60383" lon="11.43036">
        <ele>70.097808</ele>
        <time>2020-08-11T09:45:38.980Z</time>
      </trkpt>
      <trkpt lat="64.60388" lon="11.43017">
        <ele>70.843536</ele>
        <time>2020-08-11T09:45:44.968Z</time>
      </trkpt>
      <trkpt lat="64.60392" lon="11.42999">
        <ele>71.573939</ele>
        <time>2020-08-11T09:45:51.956Z</time>
      </trkpt>
      <trkpt lat="64.60397" lon="11.42981">
        <ele>72.320086</ele>
        <time>2020-08-11T09:45:57.961Z</time>
      </trkpt>
      <trkpt lat="64.60403" lon="11.42963">
        <ele>73.088044</ele>
        <time>2020-08-11T09:46:03.973Z</time>
      </trkpt>
      <trkpt lat="64.60407" lon="11.42943">
        <ele>73.871306</ele>
        <time>2020-08-11T09:46:09.986Z</time>
      </trkpt>
      <trkpt lat="64.60412" lon="11.42924">
        <ele>74.63811</ele>
        <time>2020-08-11T09:46:15.954Z</time>
      </trkpt>
      <trkpt lat="64.60417" lon="11.42907">
        <ele>75.387879</ele>
        <time>2020-08-11T09:46:21.965Z</time>
      </trkpt>
      <trkpt lat="64.60422" lon="11.42889">
        <ele>75.831731</ele>
        <time>2020-08-11T09:46:26.956Z</time>
      </trkpt>
      <trkpt lat="64.60427" lon="11.4287">
        <ele>75.917695</ele>
        <time>2020-08-11T09:46:31.979Z</time>
      </trkpt>
      <trkpt lat="64.60432" lon="11.42849">
        <ele>76.013517</ele>
        <time>2020-08-11T09:46:37.954Z</time>
      </trkpt>
      <trkpt lat="64.60437" lon="11.42831">
        <ele>76.098562</ele>
        <time>2020-08-11T09:46:42.975Z</time>
      </trkpt>
      <trkpt lat="64.60442" lon="11.42811">
        <ele>76.191125</ele>
        <time>2020-08-11T09:46:48.018Z</time>
      </trkpt>
      <trkpt lat="64.60447" lon="11.42791">
        <ele>76.282471</ele>
        <time>2020-08-11T09:46:52.979Z</time>
      </trkpt>
      <trkpt lat="64.60452" lon="11.42771">
        <ele>76.37149</ele>
        <time>2020-08-11T09:46:57.986Z</time>
      </trkpt>
      <trkpt lat="64.60458" lon="11.42751">
        <ele>76.466974</ele>
        <time>2020-08-11T09:47:02.958Z</time>
      </trkpt>
      <trkpt lat="64.60464" lon="11.42729">
        <ele>76.571597</ele>
        <time>2020-08-11T09:47:06.969Z</time>
      </trkpt>
      <trkpt lat="64.60469" lon="11.42709">
        <ele>76.664926</ele>
        <time>2020-08-11T09:47:09.937Z</time>
      </trkpt>
      <trkpt lat="64.60475" lon="11.42687">
        <ele>76.768545</ele>
        <time>2020-08-11T09:47:12.959Z</time>
      </trkpt>
      <trkpt lat="64.60482" lon="11.42664">
        <ele>76.878737</ele>
        <time>2020-08-11T09:47:15.965Z</time>
      </trkpt>
      <trkpt lat="64.60488" lon="11.42639">
        <ele>76.990604</ele>
        <time>2020-08-11T09:47:18.952Z</time>
      </trkpt>
      <trkpt lat="64.60495" lon="11.42614">
        <ele>77.106386</ele>
        <time>2020-08-11T09:47:21.955Z</time>
      </trkpt>
      <trkpt lat="64.60502" lon="11.4259">
        <ele>77.222367</ele>
        <time>2020-08-11T09:47:24.969Z</time>
      </trkpt>
      <trkpt lat="64.6051" lon="11.42566">
        <ele>77.341355</ele>
        <time>2020-08-11T09:47:27.963Z</time>
      </trkpt>
      <trkpt lat="64.60518" lon="11.42543">
        <ele>77.471088</ele>
        <time>2020-08-11T09:47:30.966Z</time>
      </trkpt>
      <trkpt lat="64.60527" lon="11.42523">
        <ele>77.751257</ele>
        <time>2020-08-11T09:47:33.981Z</time>
      </trkpt>
      <trkpt lat="64.60537" lon="11.42506">
        <ele>78.022404</ele>
        <time>2020-08-11T09:47:36.961Z</time>
      </trkpt>
      <trkpt lat="64.60548" lon="11.42492">
        <ele>78.285398</ele>
        <time>2020-08-11T09:47:39.997Z</time>
      </trkpt>
      <trkpt lat="64.60558" lon="11.42482">
        <ele>78.530127</ele>
        <time>2020-08-11T09:47:43.033Z</time>
      </trkpt>
      <trkpt lat="64.60568" lon="11.42473">
        <ele>78.767022</ele>
        <time>2020-08-11T09:47:45.956Z</time>
      </trkpt>
      <trkpt lat="64.60578" lon="11.42465">
        <ele>78.995858</ele>
        <time>2020-08-11T09:47:48.972Z</time>
      </trkpt>
      <trkpt lat="64.60589" lon="11.42459">
        <ele>79.23095</ele>
        <time>2020-08-11T09:47:51.979Z</time>
      </trkpt>
      <trkpt lat="64.60599" lon="11.42455">
        <ele>79.451943</ele>
        <time>2020-08-11T09:47:54.970Z</time>
      </trkpt>
      <trkpt lat="64.60609" lon="11.42453">
        <ele>79.683903</ele>
        <time>2020-08-11T09:47:57.964Z</time>
      </trkpt>
      <trkpt lat="64.6062" lon="11.42453">
        <ele>79.910761</ele>
        <time>2020-08-11T09:48:00.977Z</time>
      </trkpt>
      <trkpt lat="64.6063" lon="11.42453">
        <ele>80.137602</ele>
        <time>2020-08-11T09:48:04.016Z</time>
      </trkpt>
      <trkpt lat="64.60641" lon="11.42455">
        <ele>80.365461</ele>
        <time>2020-08-11T09:48:06.999Z</time>
      </trkpt>
      <trkpt lat="64.60651" lon="11.42457">
        <ele>80.58907</ele>
        <time>2020-08-11T09:48:09.972Z</time>
      </trkpt>
      <trkpt lat="64.6066" lon="11.42461">
        <ele>80.802621</ele>
        <time>2020-08-11T09:48:12.990Z</time>
      </trkpt>
      <trkpt lat="64.6067" lon="11.42463">
        <ele>81.01148</ele>
        <time>2020-08-11T09:48:15.968Z</time>
      </trkpt>
      <trkpt lat="64.6068" lon="11.42466">
        <ele>81.224241</ele>
        <time>2020-08-11T09:48:18.995Z</time>
      </trkpt>
      <trkpt lat="64.60689" lon="11.42468">
        <ele>81.377219</ele>
        <time>2020-08-11T09:48:21.962Z</time>
      </trkpt>
      <trkpt lat="64.60698" lon="11.42471">
        <ele>81.39267</ele>
        <time>2020-08-11T09:48:24.956Z</time>
      </trkpt>
      <trkpt lat="64.6071" lon="11.42472">
        <ele>81.412642</ele>
        <time>2020-08-11T09:48:28.968Z</time>
      </trkpt>
      <trkpt lat="64.6072" lon="11.42473">
        <ele>81.428271</ele>
        <time>2020-08-11T09:48:31.989Z</time>
      </trkpt>
      <trkpt lat="64.60729" lon="11.42471">
        <ele>81.443961</ele>
        <time>2020-08-11T09:48:34.993Z</time>
      </trkpt>
      <trkpt lat="64.60738" lon="11.42467">
        <ele>81.45885</ele>
        <time>2020-08-11T09:48:37.952Z</time>
      </trkpt>
      <trkpt lat="64.60747" lon="11.4246">
        <ele>81.473922</ele>
        <time>2020-08-11T09:48:40.956Z</time>
      </trkpt>
      <trkpt lat="64.60756" lon="11.42452">
        <ele>81.49001</ele>
        <time>2020-08-11T09:48:43.971Z</time>
      </trkpt>
      <trkpt lat="64.60764" lon="11.42441">
        <ele>81.506345</ele>
        <time>2020-08-11T09:48:46.960Z</time>
      </trkpt>
      <trkpt lat="64.60774" lon="11.42431">
        <ele>81.524031</ele>
        <time>2020-08-11T09:48:49.967Z</time>
      </trkpt>
      <trkpt lat="64.60784" lon="11.42418">
        <ele>81.542342</ele>
        <time>2020-08-11T09:48:52.965Z</time>
      </trkpt>
      <trkpt lat="64.60796" lon="11.42407">
        <ele>81.563749</ele>
        <time>2020-08-11T09:48:55.975Z</time>
      </trkpt>
      <trkpt lat="64.60806" lon="11.42401">
        <ele>81.581109</ele>
        <time>2020-08-11T09:48:57.970Z</time>
      </trkpt>
      <trkpt lat="64.60816" lon="11.42396">
        <ele>81.599469</ele>
        <time>2020-08-11T09:48:59.968Z</time>
      </trkpt>
      <trkpt lat="64.60828" lon="11.42391">
        <ele>81.618574</ele>
        <time>2020-08-11T09:49:01.970Z</time>
      </trkpt>
      <trkpt lat="64.6084" lon="11.42388">
        <ele>81.639086</ele>
        <time>2020-08-11T09:49:03.960Z</time>
      </trkpt>
      <trkpt lat="64.60854" lon="11.42391">
        <ele>81.662078</ele>
        <time>2020-08-11T09:49:06.007Z</time>
      </trkpt>
      <trkpt lat="64.60867" lon="11.42396">
        <ele>81.179143</ele>
        <time>2020-08-11T09:49:07.980Z</time>
      </trkpt>
      <trkpt lat="64.60878" lon="11.42404">
        <ele>80.416455</ele>
        <time>2020-08-11T09:49:09.973Z</time>
      </trkpt>
      <trkpt lat="64.60888" lon="11.42414">
        <ele>79.718003</ele>
        <time>2020-08-11T09:49:11.975Z</time>
      </trkpt>
      <trkpt lat="64.60897" lon="11.42426">
        <ele>79.05222</ele>
        <time>2020-08-11T09:49:13.984Z</time>
      </trkpt>
      <trkpt lat="64.60907" lon="11.42438">
        <ele>78.378396</ele>
        <time>2020-08-11T09:49:16.978Z</time>
      </trkpt>
      <trkpt lat="64.60915" lon="11.42452">
        <ele>77.710603</ele>
        <time>2020-08-11T09:49:19.960Z</time>
      </trkpt>
      <trkpt lat="64.60923" lon="11.42465">
        <ele>77.096069</ele>
        <time>2020-08-11T09:49:22.961Z</time>
      </trkpt>
      <trkpt lat="64.60932" lon="11.4248">
        <ele>76.379252</ele>
        <time>2020-08-11T09:49:25.958Z</time>
      </trkpt>
      <trkpt lat="64.60941" lon="11.42496">
        <ele>75.663083</ele>
        <time>2020-08-11T09:49:29.008Z</time>
      </trkpt>
      <trkpt lat="64.6095" lon="11.42512">
        <ele>74.923308</ele>
        <time>2020-08-11T09:49:31.967Z</time>
      </trkpt>
      <trkpt lat="64.60958" lon="11.42528">
        <ele>74.229241</ele>
        <time>2020-08-11T09:49:34.995Z</time>
      </trkpt>
      <trkpt lat="64.60968" lon="11.42545">
        <ele>73.453681</ele>
        <time>2020-08-11T09:49:37.958Z</time>
      </trkpt>
      <trkpt lat="64.60979" lon="11.42562">
        <ele>72.584948</ele>
        <time>2020-08-11T09:49:40.986Z</time>
      </trkpt>
      <trkpt lat="64.60986" lon="11.42574">
        <ele>72.007252</ele>
        <time>2020-08-11T09:49:42.966Z</time>
      </trkpt>
      <trkpt lat="64.60994" lon="11.42586">
        <ele>71.427482</ele>
        <time>2020-08-11T09:49:44.983Z</time>
      </trkpt>
      <trkpt lat="64.61002" lon="11.426">
        <ele>70.778135</ele>
        <time>2020-08-11T09:49:46.958Z</time>
      </trkpt>
      <trkpt lat="64.61011" lon="11.42613">
        <ele>70.113501</ele>
        <time>2020-08-11T09:49:48.949Z</time>
      </trkpt>
      <trkpt lat="64.61019" lon="11.42627">
        <ele>69.542491</ele>
        <time>2020-08-11T09:49:50.964Z</time>
      </trkpt>
      <trkpt lat="64.61028" lon="11.42641">
        <ele>68.94908</ele>
        <time>2020-08-11T09:49:52.981Z</time>
      </trkpt>
      <trkpt lat="64.61038" lon="11.42653">
        <ele>68.332945</ele>
        <time>2020-08-11T09:49:54.968Z</time>
      </trkpt>
      <trkpt lat="64.61048" lon="11.42665">
        <ele>67.726917</ele>
        <time>2020-08-11T09:49:56.969Z</time>
      </trkpt>
      <trkpt lat="64.61055" lon="11.42678">
        <ele>67.229464</ele>
        <time>2020-08-11T09:49:58.978Z</time>
      </trkpt>
      <trkpt lat="64.61064" lon="11.42695">
        <ele>66.615115</ele>
        <time>2020-08-11T09:50:01.952Z</time>
      </trkpt>
      <trkpt lat="64.61073" lon="11.42713">
        <ele>65.955991</ele>
        <time>2020-08-11T09:50:04.973Z</time>
      </trkpt>
      <trkpt lat="64.6108" lon="11.42729">
        <ele>65.412753</ele>
        <time>2020-08-11T09:50:06.979Z</time>
      </trkpt>
      <trkpt lat="64.61089" lon="11.42745">
        <ele>64.808574</ele>
        <time>2020-08-11T09:50:08.991Z</time>
      </trkpt>
      <trkpt lat="64.611" lon="11.42763">
        <ele>64.073041</ele>
        <time>2020-08-11T09:50:10.978Z</time>
      </trkpt>
      <trkpt lat="64.61113" lon="11.42785">
        <ele>63.198887</ele>
        <time>2020-08-11T09:50:12.975Z</time>
      </trkpt>
      <trkpt lat="64.61126" lon="11.42808">
        <ele>62.269945</ele>
        <time>2020-08-11T09:50:14.988Z</time>
      </trkpt>
      <trkpt lat="64.6114" lon="11.42832">
        <ele>61.352622</ele>
        <time>2020-08-11T09:50:16.987Z</time>
      </trkpt>
      <trkpt lat="64.61153" lon="11.42854">
        <ele>60.436377</ele>
        <time>2020-08-11T09:50:18.955Z</time>
      </trkpt>
      <trkpt lat="64.61161" lon="11.42867">
        <ele>59.940009</ele>
        <time>2020-08-11T09:50:19.964Z</time>
      </trkpt>
      <trkpt lat="64.61168" lon="11.4288">
        <ele>59.424071</ele>
        <time>2020-08-11T09:50:20.981Z</time>
      </trkpt>
      <trkpt lat="64.61176" lon="11.42892">
        <ele>58.880409</ele>
        <time>2020-08-11T09:50:21.980Z</time>
      </trkpt>
      <trkpt lat="64.61185" lon="11.42904">
        <ele>58.309632</ele>
        <time>2020-08-11T09:50:22.963Z</time>
      </trkpt>
      <trkpt lat="64.61195" lon="11.42913">
        <ele>57.738291</ele>
        <time>2020-08-11T09:50:23.975Z</time>
      </trkpt>
      <trkpt lat="64.61205" lon="11.4292">
        <ele>57.156927</ele>
        <time>2020-08-11T09:50:24.965Z</time>
      </trkpt>
      <trkpt lat="64.61216" lon="11.42923">
        <ele>56.569688</ele>
        <time>2020-08-11T09:50:25.964Z</time>
      </trkpt>
      <trkpt lat="64.61227" lon="11.42923">
        <ele>55.955132</ele>
        <time>2020-08-11T09:50:26.982Z</time>
      </trkpt>
      <trkpt lat="64.61238" lon="11.42921">
        <ele>55.337247</ele>
        <time>2020-08-11T09:50:27.960Z</time>
      </trkpt>
      <trkpt lat="64.61248" lon="11.42916">
        <ele>54.733531</ele>
        <time>2020-08-11T09:50:28.998Z</time>
      </trkpt>
      <trkpt lat="64.61259" lon="11.42909">
        <ele>54.130837</ele>
        <time>2020-08-11T09:50:29.964Z</time>
      </trkpt>
      <trkpt lat="64.61269" lon="11.42902">
        <ele>53.531545</ele>
        <time>2020-08-11T09:50:30.957Z</time>
      </trkpt>
      <trkpt lat="64.6128" lon="11.42895">
        <ele>52.930921</ele>
        <time>2020-08-11T09:50:31.980Z</time>
      </trkpt>
      <trkpt lat="64.6129" lon="11.42888">
        <ele>52.34757</ele>
        <time>2020-08-11T09:50:32.970Z</time>
      </trkpt>
      <trkpt lat="64.613" lon="11.42881">
        <ele>51.774132</ele>
        <time>2020-08-11T09:50:33.985Z</time>
      </trkpt>
      <trkpt lat="64.6131" lon="11.42874">
        <ele>51.201388</ele>
        <time>2020-08-11T09:50:34.975Z</time>
      </trkpt>
      <trkpt lat="64.61319" lon="11.42867">
        <ele>50.655076</ele>
        <time>2020-08-11T09:50:35.974Z</time>
      </trkpt>
      <trkpt lat="64.61328" lon="11.4286">
        <ele>50.265967</ele>
        <time>2020-08-11T09:50:36.946Z</time>
      </trkpt>
      <trkpt lat="64.61337" lon="11.42854">
        <ele>50.189826</ele>
        <time>2020-08-11T09:50:37.958Z</time>
      </trkpt>
      <trkpt lat="64.61353" lon="11.42841">
        <ele>50.050925</ele>
        <time>2020-08-11T09:50:39.979Z</time>
      </trkpt>
      <trkpt lat="64.61368" lon="11.42828">
        <ele>49.912641</ele>
        <time>2020-08-11T09:50:41.963Z</time>
      </trkpt>
      <trkpt lat="64.61386" lon="11.42816">
        <ele>49.763146</ele>
        <time>2020-08-11T09:50:43.961Z</time>
      </trkpt>
      <trkpt lat="64.61394" lon="11.4281">
        <ele>49.688493</ele>
        <time>2020-08-11T09:50:44.952Z</time>
      </trkpt>
      <trkpt lat="64.61411" lon="11.42801">
        <ele>49.547363</ele>
        <time>2020-08-11T09:50:46.966Z</time>
      </trkpt>
      <trkpt lat="64.61427" lon="11.42793">
        <ele>49.41509</ele>
        <time>2020-08-11T09:50:48.991Z</time>
      </trkpt>
      <trkpt lat="64.61441" lon="11.42786">
        <ele>49.296947</ele>
        <time>2020-08-11T09:50:50.964Z</time>
      </trkpt>
      <trkpt lat="64.61454" lon="11.4278">
        <ele>49.18793</ele>
        <time>2020-08-11T09:50:52.959Z</time>
      </trkpt>
      <trkpt lat="64.61466" lon="11.42772">
        <ele>49.084371</ele>
        <time>2020-08-11T09:50:54.974Z</time>
      </trkpt>
      <trkpt lat="64.61477" lon="11.42765">
        <ele>48.984461</ele>
        <time>2020-08-11T09:50:56.972Z</time>
      </trkpt>
      <trkpt lat="64.61489" lon="11.4276">
        <ele>48.886198</ele>
        <time>2020-08-11T09:50:58.958Z</time>
      </trkpt>
      <trkpt lat="64.615" lon="11.42758">
        <ele>48.83486</ele>
        <time>2020-08-11T09:51:00.955Z</time>
      </trkpt>
      <trkpt lat="64.61511" lon="11.42756">
        <ele>49.211101</ele>
        <time>2020-08-11T09:51:02.984Z</time>
      </trkpt>
      <trkpt lat="64.61521" lon="11.42757">
        <ele>49.572874</ele>
        <time>2020-08-11T09:51:05.498Z</time>
      </trkpt>
      <trkpt lat="64.61531" lon="11.4276">
        <ele>49.943534</ele>
        <time>2020-08-11T09:51:07.012Z</time>
      </trkpt>
      <trkpt lat="64.61541" lon="11.42762">
        <ele>50.296732</ele>
        <time>2020-08-11T09:51:08.991Z</time>
      </trkpt>
      <trkpt lat="64.61554" lon="11.42768">
        <ele>50.75816</ele>
        <time>2020-08-11T09:51:11.969Z</time>
      </trkpt>
      <trkpt lat="64.61567" lon="11.42775">
        <ele>51.23049</ele>
        <time>2020-08-11T09:51:14.961Z</time>
      </trkpt>
      <trkpt lat="64.6158" lon="11.42781">
        <ele>51.682932</ele>
        <time>2020-08-11T09:51:17.949Z</time>
      </trkpt>
      <trkpt lat="64.61591" lon="11.42788">
        <ele>52.108103</ele>
        <time>2020-08-11T09:51:20.986Z</time>
      </trkpt>
      <trkpt lat="64.61602" lon="11.42796">
        <ele>52.499292</ele>
        <time>2020-08-11T09:51:23.965Z</time>
      </trkpt>
      <trkpt lat="64.61611" lon="11.42805">
        <ele>52.857818</ele>
        <time>2020-08-11T09:51:26.964Z</time>
      </trkpt>
      <trkpt lat="64.61621" lon="11.42811">
        <ele>53.222775</ele>
        <time>2020-08-11T09:51:30.007Z</time>
      </trkpt>
      <trkpt lat="64.6163" lon="11.42816">
        <ele>53.554222</ele>
        <time>2020-08-11T09:51:32.999Z</time>
      </trkpt>
      <trkpt lat="64.6164" lon="11.4282">
        <ele>53.914449</ele>
        <time>2020-08-11T09:51:36.975Z</time>
      </trkpt>
      <trkpt lat="64.61649" lon="11.42824">
        <ele>54.236985</ele>
        <time>2020-08-11T09:51:40.949Z</time>
      </trkpt>
      <trkpt lat="64.61659" lon="11.42829">
        <ele>54.615468</ele>
        <time>2020-08-11T09:51:45.992Z</time>
      </trkpt>
      <trkpt lat="64.61668" lon="11.42835">
        <ele>54.945203</ele>
        <time>2020-08-11T09:51:50.971Z</time>
      </trkpt>
      <trkpt lat="64.61678" lon="11.4284">
        <ele>55.538897</ele>
        <time>2020-08-11T09:51:57.982Z</time>
      </trkpt>
      <trkpt lat="64.61687" lon="11.42845">
        <ele>56.556005</ele>
        <time>2020-08-11T09:52:02.959Z</time>
      </trkpt>
      <trkpt lat="64.61696" lon="11.42852">
        <ele>57.612442</ele>
        <time>2020-08-11T09:52:07.991Z</time>
      </trkpt>
      <trkpt lat="64.61706" lon="11.42858">
        <ele>58.776297</ele>
        <time>2020-08-11T09:52:13.968Z</time>
      </trkpt>
      <trkpt lat="64.61715" lon="11.42863">
        <ele>59.837592</ele>
        <time>2020-08-11T09:52:21.011Z</time>
      </trkpt>
      <trkpt lat="64.61725" lon="11.42865">
        <ele>60.897963</ele>
        <time>2020-08-11T09:52:28.983Z</time>
      </trkpt>
      <trkpt lat="64.61734" lon="11.42871">
        <ele>61.919855</ele>
        <time>2020-08-11T09:52:35.966Z</time>
      </trkpt>
      <trkpt lat="64.61744" lon="11.42871">
        <ele>63.028595</ele>
        <time>2020-08-11T09:52:43.989Z</time>
      </trkpt>
      <trkpt lat="64.61754" lon="11.42876">
        <ele>64.155847</ele>
        <time>2020-08-11T09:52:50.960Z</time>
      </trkpt>
      <trkpt lat="64.61763" lon="11.42881">
        <ele>65.21714</ele>
        <time>2020-08-11T09:52:58.003Z</time>
      </trkpt>
      <trkpt lat="64.61773" lon="11.42879">
        <ele>66.284087</ele>
        <time>2020-08-11T09:53:04.017Z</time>
      </trkpt>
      <trkpt lat="64.61782" lon="11.4288">
        <ele>67.282089</ele>
        <time>2020-08-11T09:53:09.970Z</time>
      </trkpt>
      <trkpt lat="64.61792" lon="11.42879">
        <ele>68.413087</ele>
        <time>2020-08-11T09:53:16.973Z</time>
      </trkpt>
      <trkpt lat="64.61802" lon="11.42878">
        <ele>69.523384</ele>
        <time>2020-08-11T09:53:24.001Z</time>
      </trkpt>
      <trkpt lat="64.61811" lon="11.42871">
        <ele>70.623605</ele>
        <time>2020-08-11T09:53:32.963Z</time>
      </trkpt>
      <trkpt lat="64.61822" lon="11.42875">
        <ele>71.776813</ele>
        <time>2020-08-11T09:53:39.985Z</time>
      </trkpt>
      <trkpt lat="64.61832" lon="11.42877">
        <ele>72.90011</ele>
        <time>2020-08-11T09:53:46.955Z</time>
      </trkpt>
      <trkpt lat="64.61842" lon="11.42877">
        <ele>74.031348</ele>
        <time>2020-08-11T09:53:53.950Z</time>
      </trkpt>
      <trkpt lat="64.61852" lon="11.42879">
        <ele>75.110859</ele>
        <time>2020-08-11T09:53:59.971Z</time>
      </trkpt>
      <trkpt lat="64.61862" lon="11.42881">
        <ele>76.072561</ele>
        <time>2020-08-11T09:54:06.987Z</time>
      </trkpt>
      <trkpt lat="64.61871" lon="11.42885">
        <ele>77.020745</ele>
        <time>2020-08-11T09:54:14.961Z</time>
      </trkpt>
      <trkpt lat="64.61881" lon="11.42887">
        <ele>77.95465</ele>
        <time>2020-08-11T09:54:20.995Z</time>
      </trkpt>
      <trkpt lat="64.6189" lon="11.42894">
        <ele>78.880197</ele>
        <time>2020-08-11T09:54:26.959Z</time>
      </trkpt>
      <trkpt lat="64.61899" lon="11.429">
        <ele>79.791508</ele>
        <time>2020-08-11T09:54:32.957Z</time>
      </trkpt>
      <trkpt lat="64.61909" lon="11.42905">
        <ele>80.788524</ele>
        <time>2020-08-11T09:54:39.983Z</time>
      </trkpt>
      <trkpt lat="64.61919" lon="11.42913">
        <ele>81.815034</ele>
        <time>2020-08-11T09:54:46.964Z</time>
      </trkpt>
      <trkpt lat="64.61928" lon="11.42922">
        <ele>82.741138</ele>
        <time>2020-08-11T09:54:53.971Z</time>
      </trkpt>
      <trkpt lat="64.61936" lon="11.42934">
        <ele>83.690886</ele>
        <time>2020-08-11T09:55:00.976Z</time>
      </trkpt>
      <trkpt lat="64.61944" lon="11.42946">
        <ele>84.606392</ele>
        <time>2020-08-11T09:55:07.003Z</time>
      </trkpt>
      <trkpt lat="64.61952" lon="11.42961">
        <ele>85.594777</ele>
        <time>2020-08-11T09:55:14.993Z</time>
      </trkpt>
      <trkpt lat="64.61959" lon="11.42977">
        <ele>86.528283</ele>
        <time>2020-08-11T09:55:22.980Z</time>
      </trkpt>
      <trkpt lat="64.61964" lon="11.42994">
        <ele>87.398905</ele>
        <time>2020-08-11T09:55:30.971Z</time>
      </trkpt>
      <trkpt lat="64.61971" lon="11.43011">
        <ele>88.372092</ele>
        <time>2020-08-11T09:55:39.009Z</time>
      </trkpt>
      <trkpt lat="64.61979" lon="11.43026">
        <ele>89.385135</ele>
        <time>2020-08-11T09:55:45.968Z</time>
      </trkpt>
      <trkpt lat="64.61985" lon="11.43044">
        <ele>90.288173</ele>
        <time>2020-08-11T09:55:52.972Z</time>
      </trkpt>
      <trkpt lat="64.6199" lon="11.43062">
        <ele>91.202481</ele>
        <time>2020-08-11T09:56:00.956Z</time>
      </trkpt>
      <trkpt lat="64.61997" lon="11.43079">
        <ele>92.147819</ele>
        <time>2020-08-11T09:56:08.983Z</time>
      </trkpt>
      <trkpt lat="64.62002" lon="11.43098">
        <ele>92.504138</ele>
        <time>2020-08-11T09:56:16.975Z</time>
      </trkpt>
      <trkpt lat="64.6201" lon="11.43114">
        <ele>92.485088</ele>
        <time>2020-08-11T09:56:24.958Z</time>
      </trkpt>
      <trkpt lat="64.62019" lon="11.43126">
        <ele>92.465978</ele>
        <time>2020-08-11T09:56:31.968Z</time>
      </trkpt>
      <trkpt lat="64.62026" lon="11.43141">
        <ele>92.447751</ele>
        <time>2020-08-11T09:56:39.002Z</time>
      </trkpt>
      <trkpt lat="64.6203" lon="11.4316">
        <ele>92.429839</ele>
        <time>2020-08-11T09:56:44.981Z</time>
      </trkpt>
      <trkpt lat="64.62036" lon="11.4318">
        <ele>92.410665</ele>
        <time>2020-08-11T09:56:51.965Z</time>
      </trkpt>
      <trkpt lat="64.62043" lon="11.43196">
        <ele>92.392121</ele>
        <time>2020-08-11T09:56:57.012Z</time>
      </trkpt>
      <trkpt lat="64.62051" lon="11.43214">
        <ele>92.372037</ele>
        <time>2020-08-11T09:57:01.019Z</time>
      </trkpt>
      <trkpt lat="64.62057" lon="11.43233">
        <ele>92.35295</ele>
        <time>2020-08-11T09:57:06.979Z</time>
      </trkpt>
      <trkpt lat="64.62061" lon="11.43251">
        <ele>92.335925</ele>
        <time>2020-08-11T09:57:11.989Z</time>
      </trkpt>
      <trkpt lat="64.62067" lon="11.43272">
        <ele>92.316682</ele>
        <time>2020-08-11T09:57:16.993Z</time>
      </trkpt>
      <trkpt lat="64.62073" lon="11.4329">
        <ele>92.297138</ele>
        <time>2020-08-11T09:57:21.960Z</time>
      </trkpt>
      <trkpt lat="64.6208" lon="11.43308">
        <ele>92.278635</ele>
        <time>2020-08-11T09:57:26.951Z</time>
      </trkpt>
      <trkpt lat="64.62086" lon="11.4333">
        <ele>92.257492</ele>
        <time>2020-08-11T09:57:31.956Z</time>
      </trkpt>
      <trkpt lat="64.62091" lon="11.43352">
        <ele>92.23687</ele>
        <time>2020-08-11T09:57:36.983Z</time>
      </trkpt>
      <trkpt lat="64.62097" lon="11.43373">
        <ele>92.216857</ele>
        <time>2020-08-11T09:57:42.035Z</time>
      </trkpt>
      <trkpt lat="64.62102" lon="11.43395">
        <ele>92.196259</ele>
        <time>2020-08-11T09:57:46.969Z</time>
      </trkpt>
      <trkpt lat="64.62105" lon="11.43416">
        <ele>92.178621</ele>
        <time>2020-08-11T09:57:50.964Z</time>
      </trkpt>
      <trkpt lat="64.62106" lon="11.43438">
        <ele>93.011876</ele>
        <time>2020-08-11T09:57:54.990Z</time>
      </trkpt>
      <trkpt lat="64.62108" lon="11.43462">
        <ele>94.064866</ele>
        <time>2020-08-11T09:57:58.963Z</time>
      </trkpt>
      <trkpt lat="64.62109" lon="11.43485">
        <ele>95.080578</ele>
        <time>2020-08-11T09:58:02.956Z</time>
      </trkpt>
      <trkpt lat="64.6211" lon="11.4351">
        <ele>96.149245</ele>
        <time>2020-08-11T09:58:06.961Z</time>
      </trkpt>
      <trkpt lat="64.62109" lon="11.43532">
        <ele>97.083374</ele>
        <time>2020-08-11T09:58:10.980Z</time>
      </trkpt>
      <trkpt lat="64.62107" lon="11.43554">
        <ele>98.089336</ele>
        <time>2020-08-11T09:58:15.985Z</time>
      </trkpt>
      <trkpt lat="64.62102" lon="11.43573">
        <ele>99.022703</ele>
        <time>2020-08-11T09:58:20.977Z</time>
      </trkpt>
      <trkpt lat="64.62097" lon="11.43595">
        <ele>100.072904</ele>
        <time>2020-08-11T09:58:26.971Z</time>
      </trkpt>
      <trkpt lat="64.62093" lon="11.43615">
        <ele>101.052076</ele>
        <time>2020-08-11T09:58:32.961Z</time>
      </trkpt>
      <trkpt lat="64.62088" lon="11.43633">
        <ele>101.985002</ele>
        <time>2020-08-11T09:58:38.953Z</time>
      </trkpt>
      <trkpt lat="64.62081" lon="11.43648">
        <ele>102.957166</ele>
        <time>2020-08-11T09:58:45.958Z</time>
      </trkpt>
      <trkpt lat="64.62075" lon="11.43666">
        <ele>103.871433</ele>
        <time>2020-08-11T09:58:51.954Z</time>
      </trkpt>
      <trkpt lat="64.62068" lon="11.43679">
        <ele>104.841248</ele>
        <time>2020-08-11T09:58:58.954Z</time>
      </trkpt>
      <trkpt lat="64.6206" lon="11.43695">
        <ele>105.853194</ele>
        <time>2020-08-11T09:59:06.961Z</time>
      </trkpt>
      <trkpt lat="64.62054" lon="11.43712">
        <ele>106.791186</ele>
        <time>2020-08-11T09:59:14.966Z</time>
      </trkpt>
      <trkpt lat="64.62046" lon="11.43724">
        <ele>107.76507</ele>
        <time>2020-08-11T09:59:21.949Z</time>
      </trkpt>
      <trkpt lat="64.62039" lon="11.43739">
        <ele>108.75045</ele>
        <time>2020-08-11T09:59:29.959Z</time>
      </trkpt>
      <trkpt lat="64.62031" lon="11.43753">
        <ele>109.733486</ele>
        <time>2020-08-11T09:59:36.949Z</time>
      </trkpt>
      <trkpt lat="64.62023" lon="11.43766">
        <ele>110.5974</ele>
        <time>2020-08-11T09:59:42.980Z</time>
      </trkpt>
      <trkpt lat="64.62015" lon="11.43781">
        <ele>111.383482</ele>
        <time>2020-08-11T09:59:49.985Z</time>
      </trkpt>
      <trkpt lat="64.62008" lon="11.43795">
        <ele>112.147071</ele>
        <time>2020-08-11T09:59:55.971Z</time>
      </trkpt>
      <trkpt lat="64.62" lon="11.43811">
        <ele>112.964082</ele>
        <time>2020-08-11T10:00:02.004Z</time>
      </trkpt>
      <trkpt lat="64.61992" lon="11.43823">
        <ele>113.76678</ele>
        <time>2020-08-11T10:00:07.962Z</time>
      </trkpt>
      <trkpt lat="64.61984" lon="11.43835">
        <ele>114.512146</ele>
        <time>2020-08-11T10:00:12.955Z</time>
      </trkpt>
      <trkpt lat="64.61976" lon="11.43846">
        <ele>115.231125</ele>
        <time>2020-08-11T10:00:17.979Z</time>
      </trkpt>
      <trkpt lat="64.61969" lon="11.4386">
        <ele>115.995905</ele>
        <time>2020-08-11T10:00:22.968Z</time>
      </trkpt>
      <trkpt lat="64.61962" lon="11.43874">
        <ele>116.73032</ele>
        <time>2020-08-11T10:00:27.961Z</time>
      </trkpt>
      <trkpt lat="64.61953" lon="11.43886">
        <ele>117.563793</ele>
        <time>2020-08-11T10:00:32.958Z</time>
      </trkpt>
      <trkpt lat="64.61945" lon="11.43899">
        <ele>118.294578</ele>
        <time>2020-08-11T10:00:37.994Z</time>
      </trkpt>
      <trkpt lat="64.61936" lon="11.43912">
        <ele>119.135114</ele>
        <time>2020-08-11T10:00:43.987Z</time>
      </trkpt>
      <trkpt lat="64.61928" lon="11.43926">
        <ele>119.95264</ele>
        <time>2020-08-11T10:00:50.979Z</time>
      </trkpt>
      <trkpt lat="64.61919" lon="11.43939">
        <ele>120.766226</ele>
        <time>2020-08-11T10:00:56.978Z</time>
      </trkpt>
      <trkpt lat="64.6191" lon="11.43948">
        <ele>121.588706</ele>
        <time>2020-08-11T10:01:02.957Z</time>
      </trkpt>
      <trkpt lat="64.61902" lon="11.43967">
        <ele>122.441869</ele>
        <time>2020-08-11T10:01:08.969Z</time>
      </trkpt>
      <trkpt lat="64.61894" lon="11.43977">
        <ele>123.213633</ele>
        <time>2020-08-11T10:01:13.962Z</time>
      </trkpt>
      <trkpt lat="64.61885" lon="11.43992">
        <ele>124.057514</ele>
        <time>2020-08-11T10:01:20.000Z</time>
      </trkpt>
      <trkpt lat="64.61879" lon="11.44006">
        <ele>124.541511</ele>
        <time>2020-08-11T10:01:24.984Z</time>
      </trkpt>
      <trkpt lat="64.61872" lon="11.44021">
        <ele>124.503113</ele>
        <time>2020-08-11T10:01:31.004Z</time>
      </trkpt>
      <trkpt lat="64.61865" lon="11.44038">
        <ele>124.462653</ele>
        <time>2020-08-11T10:01:36.958Z</time>
      </trkpt>
      <trkpt lat="64.61859" lon="11.44054">
        <ele>124.426098</ele>
        <time>2020-08-11T10:01:41.984Z</time>
      </trkpt>
      <trkpt lat="64.61853" lon="11.44071">
        <ele>124.389877</ele>
        <time>2020-08-11T10:01:46.958Z</time>
      </trkpt>
      <trkpt lat="64.61847" lon="11.44087">
        <ele>124.352173</ele>
        <time>2020-08-11T10:01:51.956Z</time>
      </trkpt>
      <trkpt lat="64.61841" lon="11.44109">
        <ele>124.308884</ele>
        <time>2020-08-11T10:01:57.952Z</time>
      </trkpt>
      <trkpt lat="64.61836" lon="11.44127">
        <ele>124.270508</ele>
        <time>2020-08-11T10:02:02.950Z</time>
      </trkpt>
      <trkpt lat="64.6183" lon="11.44148">
        <ele>124.226512</ele>
        <time>2020-08-11T10:02:07.961Z</time>
      </trkpt>
      <trkpt lat="64.61825" lon="11.4417">
        <ele>124.184581</ele>
        <time>2020-08-11T10:02:13.000Z</time>
      </trkpt>
      <trkpt lat="64.61821" lon="11.4419">
        <ele>124.147142</ele>
        <time>2020-08-11T10:02:16.972Z</time>
      </trkpt>
      <trkpt lat="64.61817" lon="11.44215">
        <ele>124.101024</ele>
        <time>2020-08-11T10:02:21.027Z</time>
      </trkpt>
      <trkpt lat="64.61813" lon="11.4424">
        <ele>124.055054</ele>
        <time>2020-08-11T10:02:24.964Z</time>
      </trkpt>
      <trkpt lat="64.61811" lon="11.44262">
        <ele>124.016659</ele>
        <time>2020-08-11T10:02:27.971Z</time>
      </trkpt>
      <trkpt lat="64.61809" lon="11.44289">
        <ele>123.969745</ele>
        <time>2020-08-11T10:02:31.984Z</time>
      </trkpt>
      <trkpt lat="64.61808" lon="11.44315">
        <ele>123.924375</ele>
        <time>2020-08-11T10:02:35.971Z</time>
      </trkpt>
      <trkpt lat="64.61807" lon="11.44342">
        <ele>123.8781</ele>
        <time>2020-08-11T10:02:39.956Z</time>
      </trkpt>
      <trkpt lat="64.61806" lon="11.44369">
        <ele>123.832331</ele>
        <time>2020-08-11T10:02:43.989Z</time>
      </trkpt>
      <trkpt lat="64.61805" lon="11.44395">
        <ele>123.846202</ele>
        <time>2020-08-11T10:02:47.999Z</time>
      </trkpt>
      <trkpt lat="64.61805" lon="11.44421">
        <ele>123.860451</ele>
        <time>2020-08-11T10:02:51.963Z</time>
      </trkpt>
      <trkpt lat="64.61804" lon="11.44446">
        <ele>123.874501</ele>
        <time>2020-08-11T10:02:56.005Z</time>
      </trkpt>
      <trkpt lat="64.61802" lon="11.4447">
        <ele>123.887715</ele>
        <time>2020-08-11T10:02:59.966Z</time>
      </trkpt>
      <trkpt lat="64.618" lon="11.44496">
        <ele>123.902031</ele>
        <time>2020-08-11T10:03:03.967Z</time>
      </trkpt>
      <trkpt lat="64.61798" lon="11.44522">
        <ele>123.916315</ele>
        <time>2020-08-11T10:03:07.981Z</time>
      </trkpt>
      <trkpt lat="64.61798" lon="11.44546">
        <ele>123.929927</ele>
        <time>2020-08-11T10:03:11.982Z</time>
      </trkpt>
      <trkpt lat="64.61797" lon="11.4457">
        <ele>123.942938</ele>
        <time>2020-08-11T10:03:16.000Z</time>
      </trkpt>
      <trkpt lat="64.61795" lon="11.44593">
        <ele>123.955788</ele>
        <time>2020-08-11T10:03:19.962Z</time>
      </trkpt>
      <trkpt lat="64.61794" lon="11.44617">
        <ele>123.968692</ele>
        <time>2020-08-11T10:03:23.975Z</time>
      </trkpt>
      <trkpt lat="64.61792" lon="11.44638">
        <ele>123.98046</ele>
        <time>2020-08-11T10:03:28.001Z</time>
      </trkpt>
      <trkpt lat="64.61791" lon="11.44659">
        <ele>123.992404</ele>
        <time>2020-08-11T10:03:32.047Z</time>
      </trkpt>
      <trkpt lat="64.61788" lon="11.44682">
        <ele>124.00559</ele>
        <time>2020-08-11T10:03:35.981Z</time>
      </trkpt>
      <trkpt lat="64.61785" lon="11.44708">
        <ele>124.019861</ele>
        <time>2020-08-11T10:03:39.979Z</time>
      </trkpt>
      <trkpt lat="64.61781" lon="11.44732">
        <ele>124.03422</ele>
        <time>2020-08-11T10:03:43.982Z</time>
      </trkpt>
      <trkpt lat="64.61778" lon="11.44754">
        <ele>124.047235</ele>
        <time>2020-08-11T10:03:47.952Z</time>
      </trkpt>
      <trkpt lat="64.61773" lon="11.44777">
        <ele>124.060676</ele>
        <time>2020-08-11T10:03:51.996Z</time>
      </trkpt>
      <trkpt lat="64.61768" lon="11.44799">
        <ele>124.286528</ele>
        <time>2020-08-11T10:03:55.968Z</time>
      </trkpt>
      <trkpt lat="64.61762" lon="11.4482">
        <ele>124.539908</ele>
        <time>2020-08-11T10:04:00.028Z</time>
      </trkpt>
      <trkpt lat="64.61756" lon="11.44844">
        <ele>124.817856</ele>
        <time>2020-08-11T10:04:04.003Z</time>
      </trkpt>
      <trkpt lat="64.61749" lon="11.44866">
        <ele>125.087485</ele>
        <time>2020-08-11T10:04:07.970Z</time>
      </trkpt>
      <trkpt lat="64.61742" lon="11.44888">
        <ele>125.358734</ele>
        <time>2020-08-11T10:04:11.995Z</time>
      </trkpt>
      <trkpt lat="64.61735" lon="11.44908">
        <ele>125.62007</ele>
        <time>2020-08-11T10:04:15.975Z</time>
      </trkpt>
      <trkpt lat="64.61727" lon="11.44927">
        <ele>125.875508</ele>
        <time>2020-08-11T10:04:20.011Z</time>
      </trkpt>
      <trkpt lat="64.6172" lon="11.44944">
        <ele>126.109931</ele>
        <time>2020-08-11T10:04:23.979Z</time>
      </trkpt>
      <trkpt lat="64.61714" lon="11.44962">
        <ele>126.336678</ele>
        <time>2020-08-11T10:04:27.975Z</time>
      </trkpt>
      <trkpt lat="64.61706" lon="11.44978">
        <ele>126.574193</ele>
        <time>2020-08-11T10:04:32.006Z</time>
      </trkpt>
      <trkpt lat="64.61698" lon="11.44993">
        <ele>126.815272</ele>
        <time>2020-08-11T10:04:35.971Z</time>
      </trkpt>
      <trkpt lat="64.6169" lon="11.45007">
        <ele>127.046255</ele>
        <time>2020-08-11T10:04:39.984Z</time>
      </trkpt>
      <trkpt lat="64.61682" lon="11.45021">
        <ele>127.279986</ele>
        <time>2020-08-11T10:04:43.970Z</time>
      </trkpt>
      <trkpt lat="64.61674" lon="11.45034">
        <ele>127.508722</ele>
        <time>2020-08-11T10:04:47.969Z</time>
      </trkpt>
      <trkpt lat="64.61665" lon="11.45047">
        <ele>127.738973</ele>
        <time>2020-08-11T10:04:51.960Z</time>
      </trkpt>
      <trkpt lat="64.61656" lon="11.45058">
        <ele>127.977936</ele>
        <time>2020-08-11T10:04:55.969Z</time>
      </trkpt>
      <trkpt lat="64.61647" lon="11.45071">
        <ele>128.217088</ele>
        <time>2020-08-11T10:04:59.963Z</time>
      </trkpt>
      <trkpt lat="64.61637" lon="11.45083">
        <ele>128.292845</ele>
        <time>2020-08-11T10:05:04.007Z</time>
      </trkpt>
      <trkpt lat="64.61629" lon="11.45096">
        <ele>128.362667</ele>
        <time>2020-08-11T10:05:07.964Z</time>
      </trkpt>
      <trkpt lat="64.61619" lon="11.45109">
        <ele>128.437939</ele>
        <time>2020-08-11T10:05:11.965Z</time>
      </trkpt>
      <trkpt lat="64.6161" lon="11.45122">
        <ele>128.511121</ele>
        <time>2020-08-11T10:05:15.987Z</time>
      </trkpt>
      <trkpt lat="64.61602" lon="11.45135">
        <ele>128.583831</ele>
        <time>2020-08-11T10:05:20.005Z</time>
      </trkpt>
      <trkpt lat="64.61593" lon="11.45151">
        <ele>128.658742</ele>
        <time>2020-08-11T10:05:23.974Z</time>
      </trkpt>
      <trkpt lat="64.61585" lon="11.45168">
        <ele>128.736306</ele>
        <time>2020-08-11T10:05:27.985Z</time>
      </trkpt>
      <trkpt lat="64.61577" lon="11.45189">
        <ele>128.817213</ele>
        <time>2020-08-11T10:05:31.961Z</time>
      </trkpt>
      <trkpt lat="64.61571" lon="11.4521">
        <ele>128.895541</ele>
        <time>2020-08-11T10:05:35.984Z</time>
      </trkpt>
      <trkpt lat="64.61566" lon="11.45232">
        <ele>128.969011</ele>
        <time>2020-08-11T10:05:39.959Z</time>
      </trkpt>
      <trkpt lat="64.6156" lon="11.45257">
        <ele>129.051851</ele>
        <time>2020-08-11T10:05:43.981Z</time>
      </trkpt>
      <trkpt lat="64.61557" lon="11.45282">
        <ele>129.130005</ele>
        <time>2020-08-11T10:05:47.989Z</time>
      </trkpt>
      <trkpt lat="64.61554" lon="11.45307">
        <ele>129.207198</ele>
        <time>2020-08-11T10:05:51.965Z</time>
      </trkpt>
      <trkpt lat="64.61552" lon="11.45334">
        <ele>129.287991</ele>
        <time>2020-08-11T10:05:55.972Z</time>
      </trkpt>
      <trkpt lat="64.61551" lon="11.45361">
        <ele>129.369318</ele>
        <time>2020-08-11T10:05:59.982Z</time>
      </trkpt>
      <trkpt lat="64.61551" lon="11.45383">
        <ele>129.436299</ele>
        <time>2020-08-11T10:06:02.999Z</time>
      </trkpt>
      <trkpt lat="64.61552" lon="11.45406">
        <ele>129.57722</ele>
        <time>2020-08-11T10:06:05.979Z</time>
      </trkpt>
      <trkpt lat="64.61554" lon="11.45428">
        <ele>129.758713</ele>
        <time>2020-08-11T10:06:08.991Z</time>
      </trkpt>
      <trkpt lat="64.61557" lon="11.4545">
        <ele>129.942294</ele>
        <time>2020-08-11T10:06:11.981Z</time>
      </trkpt>
      <trkpt lat="64.61561" lon="11.45471">
        <ele>130.121997</ele>
        <time>2020-08-11T10:06:14.972Z</time>
      </trkpt>
      <trkpt lat="64.61566" lon="11.4549">
        <ele>130.298874</ele>
        <time>2020-08-11T10:06:17.976Z</time>
      </trkpt>
      <trkpt lat="64.61572" lon="11.4551">
        <ele>130.49018</ele>
        <time>2020-08-11T10:06:20.970Z</time>
      </trkpt>
      <trkpt lat="64.6158" lon="11.45528">
        <ele>130.698708</ele>
        <time>2020-08-11T10:06:23.999Z</time>
      </trkpt>
      <trkpt lat="64.61589" lon="11.45547">
        <ele>130.925688</ele>
        <time>2020-08-11T10:06:26.979Z</time>
      </trkpt>
      <trkpt lat="64.61598" lon="11.45563">
        <ele>131.13878</ele>
        <time>2020-08-11T10:06:29.984Z</time>
      </trkpt>
      <trkpt lat="64.61607" lon="11.45577">
        <ele>131.344638</ele>
        <time>2020-08-11T10:06:32.985Z</time>
      </trkpt>
      <trkpt lat="64.61616" lon="11.45589">
        <ele>131.53798</ele>
        <time>2020-08-11T10:06:35.983Z</time>
      </trkpt>
      <trkpt lat="64.61626" lon="11.45601">
        <ele>131.736267</ele>
        <time>2020-08-11T10:06:38.963Z</time>
      </trkpt>
      <trkpt lat="64.61635" lon="11.45612">
        <ele>131.935827</ele>
        <time>2020-08-11T10:06:41.979Z</time>
      </trkpt>
      <trkpt lat="64.61644" lon="11.45622">
        <ele>132.12641</ele>
        <time>2020-08-11T10:06:44.970Z</time>
      </trkpt>
      <trkpt lat="64.61654" lon="11.45632">
        <ele>132.316436</ele>
        <time>2020-08-11T10:06:48.005Z</time>
      </trkpt>
      <trkpt lat="64.61664" lon="11.45641">
        <ele>132.51425</ele>
        <time>2020-08-11T10:06:50.984Z</time>
      </trkpt>
      <trkpt lat="64.61674" lon="11.4565">
        <ele>132.71373</ele>
        <time>2020-08-11T10:06:53.967Z</time>
      </trkpt>
      <trkpt lat="64.61684" lon="11.45661">
        <ele>132.991136</ele>
        <time>2020-08-11T10:06:56.981Z</time>
      </trkpt>
      <trkpt lat="64.61694" lon="11.45672">
        <ele>133.329699</ele>
        <time>2020-08-11T10:06:59.969Z</time>
      </trkpt>
      <trkpt lat="64.61703" lon="11.45685">
        <ele>133.646988</ele>
        <time>2020-08-11T10:07:02.964Z</time>
      </trkpt>
      <trkpt lat="64.61713" lon="11.45699">
        <ele>133.982066</ele>
        <time>2020-08-11T10:07:05.979Z</time>
      </trkpt>
      <trkpt lat="64.61721" lon="11.45714">
        <ele>134.312785</ele>
        <time>2020-08-11T10:07:08.963Z</time>
      </trkpt>
      <trkpt lat="64.61729" lon="11.45731">
        <ele>134.629376</ele>
        <time>2020-08-11T10:07:11.984Z</time>
      </trkpt>
      <trkpt lat="64.61736" lon="11.45753">
        <ele>134.978428</ele>
        <time>2020-08-11T10:07:15.970Z</time>
      </trkpt>
      <trkpt lat="64.61742" lon="11.45772">
        <ele>135.277175</ele>
        <time>2020-08-11T10:07:18.957Z</time>
      </trkpt>
      <trkpt lat="64.61748" lon="11.45795">
        <ele>135.619036</ele>
        <time>2020-08-11T10:07:22.008Z</time>
      </trkpt>
      <trkpt lat="64.61754" lon="11.45819">
        <ele>135.977644</ele>
        <time>2020-08-11T10:07:24.966Z</time>
      </trkpt>
      <trkpt lat="64.61758" lon="11.45842">
        <ele>136.307447</ele>
        <time>2020-08-11T10:07:27.988Z</time>
      </trkpt>
      <trkpt lat="64.61763" lon="11.45862">
        <ele>136.597318</ele>
        <time>2020-08-11T10:07:31.002Z</time>
      </trkpt>
      <trkpt lat="64.61767" lon="11.45882">
        <ele>136.882136</ele>
        <time>2020-08-11T10:07:33.959Z</time>
      </trkpt>
      <trkpt lat="64.61771" lon="11.45906">
        <ele>137.205916</ele>
        <time>2020-08-11T10:07:37.951Z</time>
      </trkpt>
      <trkpt lat="64.61774" lon="11.45927">
        <ele>137.502702</ele>
        <time>2020-08-11T10:07:42.012Z</time>
      </trkpt>
      <trkpt lat="64.61778" lon="11.45947">
        <ele>137.77684</ele>
        <time>2020-08-11T10:07:45.962Z</time>
      </trkpt>
      <trkpt lat="64.61782" lon="11.45967">
        <ele>138.057142</ele>
        <time>2020-08-11T10:07:50.960Z</time>
      </trkpt>
      <trkpt lat="64.61785" lon="11.45987">
        <ele>138.499075</ele>
        <time>2020-08-11T10:07:55.956Z</time>
      </trkpt>
      <trkpt lat="64.6179" lon="11.46007">
        <ele>139.128797</ele>
        <time>2020-08-11T10:08:01.001Z</time>
      </trkpt>
      <trkpt lat="64.61794" lon="11.46027">
        <ele>139.728153</ele>
        <time>2020-08-11T10:08:05.989Z</time>
      </trkpt>
      <trkpt lat="64.61798" lon="11.46048">
        <ele>140.3671</ele>
        <time>2020-08-11T10:08:11.992Z</time>
      </trkpt>
      <trkpt lat="64.61801" lon="11.46069">
        <ele>140.969797</ele>
        <time>2020-08-11T10:08:18.959Z</time>
      </trkpt>
      <trkpt lat="64.61804" lon="11.46091">
        <ele>141.605126</ele>
        <time>2020-08-11T10:08:26.004Z</time>
      </trkpt>
      <trkpt lat="64.61809" lon="11.46111">
        <ele>142.221499</ele>
        <time>2020-08-11T10:08:32.991Z</time>
      </trkpt>
      <trkpt lat="64.61814" lon="11.46131">
        <ele>142.839696</ele>
        <time>2020-08-11T10:08:39.998Z</time>
      </trkpt>
      <trkpt lat="64.61816" lon="11.46152">
        <ele>143.431874</ele>
        <time>2020-08-11T10:08:46.971Z</time>
      </trkpt>
      <trkpt lat="64.6182" lon="11.46171">
        <ele>144.030938</ele>
        <time>2020-08-11T10:08:53.987Z</time>
      </trkpt>
      <trkpt lat="64.61824" lon="11.46192">
        <ele>144.627423</ele>
        <time>2020-08-11T10:09:00.956Z</time>
      </trkpt>
      <trkpt lat="64.61828" lon="11.46214">
        <ele>145.294028</ele>
        <time>2020-08-11T10:09:07.980Z</time>
      </trkpt>
      <trkpt lat="64.61832" lon="11.46234">
        <ele>145.898047</ele>
        <time>2020-08-11T10:09:14.005Z</time>
      </trkpt>
      <trkpt lat="64.61836" lon="11.46254">
        <ele>146.501156</ele>
        <time>2020-08-11T10:09:20.971Z</time>
      </trkpt>
      <trkpt lat="64.61841" lon="11.46272">
        <ele>147.080187</ele>
        <time>2020-08-11T10:09:27.975Z</time>
      </trkpt>
      <trkpt lat="64.61847" lon="11.46291">
        <ele>147.733284</ele>
        <time>2020-08-11T10:09:34.973Z</time>
      </trkpt>
      <trkpt lat="64.61852" lon="11.4631">
        <ele>148.344504</ele>
        <time>2020-08-11T10:09:41.965Z</time>
      </trkpt>
      <trkpt lat="64.61857" lon="11.46329">
        <ele>148.972987</ele>
        <time>2020-08-11T10:09:47.970Z</time>
      </trkpt>
      <trkpt lat="64.61864" lon="11.46346">
        <ele>149.594255</ele>
        <time>2020-08-11T10:09:54.952Z</time>
      </trkpt>
      <trkpt lat="64.6187" lon="11.46363">
        <ele>150.03607</ele>
        <time>2020-08-11T10:10:01.961Z</time>
      </trkpt>
      <trkpt lat="64.61878" lon="11.46379">
        <ele>150.465724</ele>
        <time>2020-08-11T10:10:09.969Z</time>
      </trkpt>
      <trkpt lat="64.61886" lon="11.46397">
        <ele>150.92183</ele>
        <time>2020-08-11T10:10:15.959Z</time>
      </trkpt>
      <trkpt lat="64.61893" lon="11.4641">
        <ele>151.300152</ele>
        <time>2020-08-11T10:10:20.982Z</time>
      </trkpt>
      <trkpt lat="64.619" lon="11.46426">
        <ele>151.706677</ele>
        <time>2020-08-11T10:10:26.959Z</time>
      </trkpt>
      <trkpt lat="64.61908" lon="11.46435">
        <ele>152.085016</ele>
        <time>2020-08-11T10:10:31.962Z</time>
      </trkpt>
      <trkpt lat="64.61917" lon="11.46446">
        <ele>152.519168</ele>
        <time>2020-08-11T10:10:37.989Z</time>
      </trkpt>
      <trkpt lat="64.61925" lon="11.46457">
        <ele>152.921197</ele>
        <time>2020-08-11T10:10:42.975Z</time>
      </trkpt>
      <trkpt lat="64.61934" lon="11.46466">
        <ele>153.331449</ele>
        <time>2020-08-11T10:10:47.971Z</time>
      </trkpt>
      <trkpt lat="64.61944" lon="11.46477">
        <ele>153.76908</ele>
        <time>2020-08-11T10:10:52.989Z</time>
      </trkpt>
      <trkpt lat="64.61953" lon="11.46486">
        <ele>154.178821</ele>
        <time>2020-08-11T10:10:57.025Z</time>
      </trkpt>
      <trkpt lat="64.61962" lon="11.46492">
        <ele>154.591364</ele>
        <time>2020-08-11T10:11:00.968Z</time>
      </trkpt>
      <trkpt lat="64.61972" lon="11.46497">
        <ele>155.015576</ele>
        <time>2020-08-11T10:11:04.978Z</time>
      </trkpt>
      <trkpt lat="64.61982" lon="11.46502">
        <ele>155.446234</ele>
        <time>2020-08-11T10:11:08.987Z</time>
      </trkpt>
      <trkpt lat="64.61992" lon="11.46505">
        <ele>155.848572</ele>
        <time>2020-08-11T10:11:12.990Z</time>
      </trkpt>
      <trkpt lat="64.62003" lon="11.46508">
        <ele>156.312393</ele>
        <time>2020-08-11T10:11:17.012Z</time>
      </trkpt>
      <trkpt lat="64.62014" lon="11.4651">
        <ele>156.782535</ele>
        <time>2020-08-11T10:11:20.970Z</time>
      </trkpt>
      <trkpt lat="64.62025" lon="11.46509">
        <ele>157.226924</ele>
        <time>2020-08-11T10:11:24.983Z</time>
      </trkpt>
      <trkpt lat="64.62037" lon="11.46509">
        <ele>157.289432</ele>
        <time>2020-08-11T10:11:28.996Z</time>
      </trkpt>
      <trkpt lat="64.62046" lon="11.46507">
        <ele>157.339618</ele>
        <time>2020-08-11T10:11:31.973Z</time>
      </trkpt>
      <trkpt lat="64.62056" lon="11.46509">
        <ele>157.390776</ele>
        <time>2020-08-11T10:11:34.979Z</time>
      </trkpt>
      <trkpt lat="64.62066" lon="11.46508">
        <ele>157.439814</ele>
        <time>2020-08-11T10:11:37.967Z</time>
      </trkpt>
      <trkpt lat="64.62075" lon="11.46508">
        <ele>157.487737</ele>
        <time>2020-08-11T10:11:40.976Z</time>
      </trkpt>
      <trkpt lat="64.62085" lon="11.46506">
        <ele>157.539415</ele>
        <time>2020-08-11T10:11:43.984Z</time>
      </trkpt>
      <trkpt lat="64.62096" lon="11.46506">
        <ele>157.596193</ele>
        <time>2020-08-11T10:11:46.964Z</time>
      </trkpt>
      <trkpt lat="64.62107" lon="11.46504">
        <ele>157.653702</ele>
        <time>2020-08-11T10:11:49.971Z</time>
      </trkpt>
      <trkpt lat="64.62116" lon="11.46502">
        <ele>157.701758</ele>
        <time>2020-08-11T10:11:52.954Z</time>
      </trkpt>
      <trkpt lat="64.62125" lon="11.46503">
        <ele>157.75021</ele>
        <time>2020-08-11T10:11:55.966Z</time>
      </trkpt>
      <trkpt lat="64.62135" lon="11.46503">
        <ele>157.799698</ele>
        <time>2020-08-11T10:11:58.975Z</time>
      </trkpt>
      <trkpt lat="64.62145" lon="11.46504">
        <ele>157.852347</ele>
        <time>2020-08-11T10:12:01.968Z</time>
      </trkpt>
      <trkpt lat="64.62155" lon="11.46501">
        <ele>157.907822</ele>
        <time>2020-08-11T10:12:04.980Z</time>
      </trkpt>
      <trkpt lat="64.62166" lon="11.46502">
        <ele>157.965648</ele>
        <time>2020-08-11T10:12:07.985Z</time>
      </trkpt>
      <trkpt lat="64.62178" lon="11.46503">
        <ele>158.025051</ele>
        <time>2020-08-11T10:12:10.973Z</time>
      </trkpt>
      <trkpt lat="64.62188" lon="11.46502">
        <ele>158.079236</ele>
        <time>2020-08-11T10:12:14.002Z</time>
      </trkpt>
      <trkpt lat="64.62199" lon="11.46501">
        <ele>158.133953</ele>
        <time>2020-08-11T10:12:16.983Z</time>
      </trkpt>
      <trkpt lat="64.62209" lon="11.465">
        <ele>158.075258</ele>
        <time>2020-08-11T10:12:19.949Z</time>
      </trkpt>
      <trkpt lat="64.6222" lon="11.465">
        <ele>157.885506</ele>
        <time>2020-08-11T10:12:22.959Z</time>
      </trkpt>
      <trkpt lat="64.62231" lon="11.46498">
        <ele>157.693616</ele>
        <time>2020-08-11T10:12:25.957Z</time>
      </trkpt>
      <trkpt lat="64.62245" lon="11.46497">
        <ele>157.466427</ele>
        <time>2020-08-11T10:12:28.981Z</time>
      </trkpt>
      <trkpt lat="64.62258" lon="11.46495">
        <ele>157.242223</ele>
        <time>2020-08-11T10:12:31.969Z</time>
      </trkpt>
      <trkpt lat="64.62268" lon="11.46494">
        <ele>157.079384</ele>
        <time>2020-08-11T10:12:33.961Z</time>
      </trkpt>
      <trkpt lat="64.62277" lon="11.46493">
        <ele>156.915007</ele>
        <time>2020-08-11T10:12:36.010Z</time>
      </trkpt>
      <trkpt lat="64.62287" lon="11.46493">
        <ele>156.745581</ele>
        <time>2020-08-11T10:12:37.977Z</time>
      </trkpt>
      <trkpt lat="64.62297" lon="11.46492">
        <ele>156.584552</ele>
        <time>2020-08-11T10:12:39.964Z</time>
      </trkpt>
      <trkpt lat="64.62306" lon="11.4649">
        <ele>156.426324</ele>
        <time>2020-08-11T10:12:41.950Z</time>
      </trkpt>
      <trkpt lat="64.62316" lon="11.46488">
        <ele>156.260987</ele>
        <time>2020-08-11T10:12:43.957Z</time>
      </trkpt>
      <trkpt lat="64.62326" lon="11.46485">
        <ele>156.090437</ele>
        <time>2020-08-11T10:12:45.977Z</time>
      </trkpt>
      <trkpt lat="64.62335" lon="11.46483">
        <ele>155.92727</ele>
        <time>2020-08-11T10:12:47.977Z</time>
      </trkpt>
      <trkpt lat="64.62346" lon="11.46481">
        <ele>155.743325</ele>
        <time>2020-08-11T10:12:49.966Z</time>
      </trkpt>
      <trkpt lat="64.62357" lon="11.46478">
        <ele>155.564016</ele>
        <time>2020-08-11T10:12:51.962Z</time>
      </trkpt>
      <trkpt lat="64.62368" lon="11.46473">
        <ele>155.371222</ele>
        <time>2020-08-11T10:12:53.984Z</time>
      </trkpt>
      <trkpt lat="64.62379" lon="11.46468">
        <ele>155.174964</ele>
        <time>2020-08-11T10:12:56.007Z</time>
      </trkpt>
      <trkpt lat="64.62417" lon="11.46451">
        <ele>154.147564</ele>
        <time>2020-08-11T10:12:58.031Z</time>
      </trkpt>
      <trkpt lat="64.62428" lon="11.46446">
        <ele>153.842594</ele>
        <time>2020-08-11T10:13:00.046Z</time>
      </trkpt>
      <trkpt lat="64.62439" lon="11.46441">
        <ele>153.529056</ele>
        <time>2020-08-11T10:13:02.041Z</time>
      </trkpt>
      <trkpt lat="64.62449" lon="11.46434">
        <ele>153.229661</ele>
        <time>2020-08-11T10:13:04.030Z</time>
      </trkpt>
      <trkpt lat="64.6246" lon="11.46425">
        <ele>152.901372</ele>
        <time>2020-08-11T10:13:06.106Z</time>
      </trkpt>
      <trkpt lat="64.62473" lon="11.46418">
        <ele>152.543134</ele>
        <time>2020-08-11T10:13:08.040Z</time>
      </trkpt>
      <trkpt lat="64.62486" lon="11.46413">
        <ele>152.163423</ele>
        <time>2020-08-11T10:13:10.031Z</time>
      </trkpt>
      <trkpt lat="64.62501" lon="11.46408">
        <ele>151.755899</ele>
        <time>2020-08-11T10:13:12.036Z</time>
      </trkpt>
      <trkpt lat="64.62515" lon="11.464">
        <ele>151.349517</ele>
        <time>2020-08-11T10:13:14.054Z</time>
      </trkpt>
      <trkpt lat="64.6253" lon="11.46394">
        <ele>150.942747</ele>
        <time>2020-08-11T10:13:16.043Z</time>
      </trkpt>
      <trkpt lat="64.62545" lon="11.46386">
        <ele>150.515318</ele>
        <time>2020-08-11T10:13:18.047Z</time>
      </trkpt>
      <trkpt lat="64.6256" lon="11.46377">
        <ele>150.070609</ele>
        <time>2020-08-11T10:13:20.056Z</time>
      </trkpt>
      <trkpt lat="64.62575" lon="11.46369">
        <ele>149.466429</ele>
        <time>2020-08-11T10:13:22.044Z</time>
      </trkpt>
      <trkpt lat="64.62591" lon="11.46361">
        <ele>148.842911</ele>
        <time>2020-08-11T10:13:24.050Z</time>
      </trkpt>
      <trkpt lat="64.62606" lon="11.46354">
        <ele>148.231138</ele>
        <time>2020-08-11T10:13:26.061Z</time>
      </trkpt>
      <trkpt lat="64.62622" lon="11.46345">
        <ele>147.608493</ele>
        <time>2020-08-11T10:13:28.061Z</time>
      </trkpt>
      <trkpt lat="64.62639" lon="11.46337">
        <ele>146.923426</ele>
        <time>2020-08-11T10:13:30.025Z</time>
      </trkpt>
      <trkpt lat="64.62656" lon="11.46329">
        <ele>146.247256</ele>
        <time>2020-08-11T10:13:32.043Z</time>
      </trkpt>
      <trkpt lat="64.62673" lon="11.46321">
        <ele>145.567775</ele>
        <time>2020-08-11T10:13:34.059Z</time>
      </trkpt>
      <trkpt lat="64.6269" lon="11.46313">
        <ele>144.88586</ele>
        <time>2020-08-11T10:13:36.048Z</time>
      </trkpt>
      <trkpt lat="64.62699" lon="11.46308">
        <ele>144.527978</ele>
        <time>2020-08-11T10:13:37.034Z</time>
      </trkpt>
      <trkpt lat="64.62708" lon="11.46304">
        <ele>144.179406</ele>
        <time>2020-08-11T10:13:38.094Z</time>
      </trkpt>
      <trkpt lat="64.62717" lon="11.463">
        <ele>143.827023</ele>
        <time>2020-08-11T10:13:39.053Z</time>
      </trkpt>
      <trkpt lat="64.62734" lon="11.46292">
        <ele>143.147037</ele>
        <time>2020-08-11T10:13:41.042Z</time>
      </trkpt>
      <trkpt lat="64.6275" lon="11.46284">
        <ele>143.249485</ele>
        <time>2020-08-11T10:13:43.021Z</time>
      </trkpt>
      <trkpt lat="64.62765" lon="11.46276">
        <ele>143.366825</ele>
        <time>2020-08-11T10:13:45.095Z</time>
      </trkpt>
      <trkpt lat="64.6278" lon="11.46268">
        <ele>143.4787</ele>
        <time>2020-08-11T10:13:47.032Z</time>
      </trkpt>
      <trkpt lat="64.62793" lon="11.46262">
        <ele>143.576463</ele>
        <time>2020-08-11T10:13:49.075Z</time>
      </trkpt>
      <trkpt lat="64.62803" lon="11.46255">
        <ele>143.658323</ele>
        <time>2020-08-11T10:13:51.063Z</time>
      </trkpt>
      <trkpt lat="64.62812" lon="11.46248">
        <ele>143.730071</ele>
        <time>2020-08-11T10:13:53.029Z</time>
      </trkpt>
      <trkpt lat="64.62824" lon="11.46239">
        <ele>143.82294</ele>
        <time>2020-08-11T10:13:56.091Z</time>
      </trkpt>
      <trkpt lat="64.62834" lon="11.46229">
        <ele>143.901274</ele>
        <time>2020-08-11T10:13:59.036Z</time>
      </trkpt>
      <trkpt lat="64.62843" lon="11.4622">
        <ele>143.977165</ele>
        <time>2020-08-11T10:14:02.035Z</time>
      </trkpt>
      <trkpt lat="64.62852" lon="11.46211">
        <ele>144.047545</ele>
        <time>2020-08-11T10:14:05.046Z</time>
      </trkpt>
      <trkpt lat="64.62863" lon="11.46201">
        <ele>144.136297</ele>
        <time>2020-08-11T10:14:09.077Z</time>
      </trkpt>
      <trkpt lat="64.62871" lon="11.46192">
        <ele>144.20443</ele>
        <time>2020-08-11T10:14:12.023Z</time>
      </trkpt>
      <trkpt lat="64.62879" lon="11.46183">
        <ele>144.272699</ele>
        <time>2020-08-11T10:14:15.051Z</time>
      </trkpt>
      <trkpt lat="64.62888" lon="11.46175">
        <ele>144.34493</ele>
        <time>2020-08-11T10:14:18.040Z</time>
      </trkpt>
      <trkpt lat="64.62897" lon="11.46164">
        <ele>144.419988</ele>
        <time>2020-08-11T10:14:21.047Z</time>
      </trkpt>
      <trkpt lat="64.62907" lon="11.46152">
        <ele>144.363091</ele>
        <time>2020-08-11T10:14:24.081Z</time>
      </trkpt>
      <trkpt lat="64.62915" lon="11.46137">
        <ele>144.003638</ele>
        <time>2020-08-11T10:14:27.034Z</time>
      </trkpt>
      <trkpt lat="64.62926" lon="11.46121">
        <ele>143.561148</ele>
        <time>2020-08-11T10:14:30.061Z</time>
      </trkpt>
      <trkpt lat="64.62935" lon="11.46111">
        <ele>143.241956</ele>
        <time>2020-08-11T10:14:32.036Z</time>
      </trkpt>
      <trkpt lat="64.62943" lon="11.461">
        <ele>142.915725</ele>
        <time>2020-08-11T10:14:34.026Z</time>
      </trkpt>
      <trkpt lat="64.62952" lon="11.46087">
        <ele>142.566768</ele>
        <time>2020-08-11T10:14:36.039Z</time>
      </trkpt>
      <trkpt lat="64.62961" lon="11.46072">
        <ele>142.20121</ele>
        <time>2020-08-11T10:14:38.029Z</time>
      </trkpt>
      <trkpt lat="64.62971" lon="11.46058">
        <ele>141.81094</ele>
        <time>2020-08-11T10:14:40.074Z</time>
      </trkpt>
      <trkpt lat="64.62981" lon="11.46044">
        <ele>141.405991</ele>
        <time>2020-08-11T10:14:42.024Z</time>
      </trkpt>
      <trkpt lat="64.62992" lon="11.46026">
        <ele>140.963179</ele>
        <time>2020-08-11T10:14:44.023Z</time>
      </trkpt>
      <trkpt lat="64.63002" lon="11.46005">
        <ele>140.484814</ele>
        <time>2020-08-11T10:14:46.026Z</time>
      </trkpt>
      <trkpt lat="64.63015" lon="11.45982">
        <ele>139.947136</ele>
        <time>2020-08-11T10:14:48.022Z</time>
      </trkpt>
      <trkpt lat="64.63028" lon="11.45955">
        <ele>139.352908</ele>
        <time>2020-08-11T10:14:50.049Z</time>
      </trkpt>
      <trkpt lat="64.63036" lon="11.45942">
        <ele>139.030287</ele>
        <time>2020-08-11T10:14:51.060Z</time>
      </trkpt>
      <trkpt lat="64.63044" lon="11.45929">
        <ele>138.696245</ele>
        <time>2020-08-11T10:14:52.029Z</time>
      </trkpt>
      <trkpt lat="64.63053" lon="11.45916">
        <ele>138.348424</ele>
        <time>2020-08-11T10:14:53.036Z</time>
      </trkpt>
      <trkpt lat="64.63061" lon="11.45902">
        <ele>137.939001</ele>
        <time>2020-08-11T10:14:54.079Z</time>
      </trkpt>
      <trkpt lat="64.63071" lon="11.45886">
        <ele>137.501991</ele>
        <time>2020-08-11T10:14:55.026Z</time>
      </trkpt>
      <trkpt lat="64.6308" lon="11.4587">
        <ele>137.03422</ele>
        <time>2020-08-11T10:14:56.048Z</time>
      </trkpt>
      <trkpt lat="64.6309" lon="11.45852">
        <ele>136.567904</ele>
        <time>2020-08-11T10:14:57.024Z</time>
      </trkpt>
      <trkpt lat="64.631" lon="11.45834">
        <ele>136.095493</ele>
        <time>2020-08-11T10:14:58.026Z</time>
      </trkpt>
      <trkpt lat="64.63109" lon="11.45816">
        <ele>135.610879</ele>
        <time>2020-08-11T10:14:59.045Z</time>
      </trkpt>
      <trkpt lat="64.63119" lon="11.45798">
        <ele>135.129365</ele>
        <time>2020-08-11T10:15:00.021Z</time>
      </trkpt>
      <trkpt lat="64.63129" lon="11.4578">
        <ele>134.655928</ele>
        <time>2020-08-11T10:15:01.022Z</time>
      </trkpt>
      <trkpt lat="64.63138" lon="11.45762">
        <ele>134.191246</ele>
        <time>2020-08-11T10:15:02.093Z</time>
      </trkpt>
      <trkpt lat="64.63147" lon="11.45744">
        <ele>133.738569</ele>
        <time>2020-08-11T10:15:03.054Z</time>
      </trkpt>
      <trkpt lat="64.63155" lon="11.45726">
        <ele>133.299193</ele>
        <time>2020-08-11T10:15:04.040Z</time>
      </trkpt>
      <trkpt lat="64.63164" lon="11.45709">
        <ele>132.864256</ele>
        <time>2020-08-11T10:15:05.022Z</time>
      </trkpt>
      <trkpt lat="64.63172" lon="11.45691">
        <ele>132.440094</ele>
        <time>2020-08-11T10:15:06.031Z</time>
      </trkpt>
      <trkpt lat="64.6318" lon="11.45674">
        <ele>132.026075</ele>
        <time>2020-08-11T10:15:07.025Z</time>
      </trkpt>
      <trkpt lat="64.63187" lon="11.45658">
        <ele>131.641354</ele>
        <time>2020-08-11T10:15:08.045Z</time>
      </trkpt>
      <trkpt lat="64.63194" lon="11.45643">
        <ele>131.414366</ele>
        <time>2020-08-11T10:15:09.012Z</time>
      </trkpt>
      <trkpt lat="64.63202" lon="11.45629">
        <ele>131.307026</ele>
        <time>2020-08-11T10:15:10.019Z</time>
      </trkpt>
      <trkpt lat="64.63209" lon="11.45615">
        <ele>131.20404</ele>
        <time>2020-08-11T10:15:11.082Z</time>
      </trkpt>
      <trkpt lat="64.63216" lon="11.45601">
        <ele>131.101901</ele>
        <time>2020-08-11T10:15:12.031Z</time>
      </trkpt>
      <trkpt lat="64.6323" lon="11.45575">
        <ele>130.906087</ele>
        <time>2020-08-11T10:15:14.051Z</time>
      </trkpt>
      <trkpt lat="64.63243" lon="11.45551">
        <ele>130.722533</ele>
        <time>2020-08-11T10:15:16.027Z</time>
      </trkpt>
      <trkpt lat="64.63255" lon="11.45531">
        <ele>130.555496</ele>
        <time>2020-08-11T10:15:18.043Z</time>
      </trkpt>
      <trkpt lat="64.63268" lon="11.45513">
        <ele>130.396668</ele>
        <time>2020-08-11T10:15:20.029Z</time>
      </trkpt>
      <trkpt lat="64.63278" lon="11.45498">
        <ele>130.257175</ele>
        <time>2020-08-11T10:15:22.022Z</time>
      </trkpt>
      <trkpt lat="64.63289" lon="11.45486">
        <ele>130.128108</ele>
        <time>2020-08-11T10:15:24.036Z</time>
      </trkpt>
      <trkpt lat="64.63298" lon="11.45475">
        <ele>130.011256</ele>
        <time>2020-08-11T10:15:26.064Z</time>
      </trkpt>
      <trkpt lat="64.63307" lon="11.45466">
        <ele>129.907181</ele>
        <time>2020-08-11T10:15:28.043Z</time>
      </trkpt>
      <trkpt lat="64.63319" lon="11.45454">
        <ele>129.759878</ele>
        <time>2020-08-11T10:15:31.037Z</time>
      </trkpt>
      <trkpt lat="64.63331" lon="11.45442">
        <ele>129.623651</ele>
        <time>2020-08-11T10:15:34.054Z</time>
      </trkpt>
      <trkpt lat="64.63343" lon="11.4543">
        <ele>129.480181</ele>
        <time>2020-08-11T10:15:37.022Z</time>
      </trkpt>
      <trkpt lat="64.63355" lon="11.45419">
        <ele>129.375921</ele>
        <time>2020-08-11T10:15:40.044Z</time>
      </trkpt>
      <trkpt lat="64.63368" lon="11.45408">
        <ele>129.271136</ele>
        <time>2020-08-11T10:15:43.024Z</time>
      </trkpt>
      <trkpt lat="64.63377" lon="11.45402">
        <ele>129.195121</ele>
        <time>2020-08-11T10:15:45.034Z</time>
      </trkpt>
      <trkpt lat="64.63386" lon="11.45395">
        <ele>129.123502</ele>
        <time>2020-08-11T10:15:47.030Z</time>
      </trkpt>
      <trkpt lat="64.63399" lon="11.45385">
        <ele>129.016157</ele>
        <time>2020-08-11T10:15:50.035Z</time>
      </trkpt>
      <trkpt lat="64.63409" lon="11.45381">
        <ele>128.930631</ele>
        <time>2020-08-11T10:15:52.080Z</time>
      </trkpt>
      <trkpt lat="64.63421" lon="11.45375">
        <ele>128.838228</ele>
        <time>2020-08-11T10:15:54.052Z</time>
      </trkpt>
      <trkpt lat="64.63433" lon="11.45369">
        <ele>128.74093</ele>
        <time>2020-08-11T10:15:56.063Z</time>
      </trkpt>
      <trkpt lat="64.63444" lon="11.45363">
        <ele>128.646914</ele>
        <time>2020-08-11T10:15:58.039Z</time>
      </trkpt>
      <trkpt lat="64.63457" lon="11.45358">
        <ele>128.545808</ele>
        <time>2020-08-11T10:16:00.026Z</time>
      </trkpt>
      <trkpt lat="64.6347" lon="11.4535">
        <ele>128.440265</ele>
        <time>2020-08-11T10:16:02.046Z</time>
      </trkpt>
      <trkpt lat="64.63482" lon="11.45341">
        <ele>128.338138</ele>
        <time>2020-08-11T10:16:04.033Z</time>
      </trkpt>
      <trkpt lat="64.63495" lon="11.45334">
        <ele>128.235657</ele>
        <time>2020-08-11T10:16:06.039Z</time>
      </trkpt>
      <trkpt lat="64.63507" lon="11.45328">
        <ele>128.134791</ele>
        <time>2020-08-11T10:16:08.088Z</time>
      </trkpt>
      <trkpt lat="64.63519" lon="11.45317">
        <ele>128.253976</ele>
        <time>2020-08-11T10:16:10.045Z</time>
      </trkpt>
      <trkpt lat="64.6353" lon="11.45302">
        <ele>128.746376</ele>
        <time>2020-08-11T10:16:12.054Z</time>
      </trkpt>
      <trkpt lat="64.6354" lon="11.45286">
        <ele>129.235759</ele>
        <time>2020-08-11T10:16:14.023Z</time>
      </trkpt>
      <trkpt lat="64.63551" lon="11.45269">
        <ele>129.754324</ele>
        <time>2020-08-11T10:16:16.027Z</time>
      </trkpt>
      <trkpt lat="64.63561" lon="11.4525">
        <ele>130.248249</ele>
        <time>2020-08-11T10:16:18.026Z</time>
      </trkpt>
      <trkpt lat="64.6357" lon="11.45232">
        <ele>130.72488</ele>
        <time>2020-08-11T10:16:20.044Z</time>
      </trkpt>
      <trkpt lat="64.63577" lon="11.45215">
        <ele>131.137574</ele>
        <time>2020-08-11T10:16:22.046Z</time>
      </trkpt>
      <trkpt lat="64.63584" lon="11.452">
        <ele>131.509136</ele>
        <time>2020-08-11T10:16:24.046Z</time>
      </trkpt>
      <trkpt lat="64.63592" lon="11.4518">
        <ele>131.974987</ele>
        <time>2020-08-11T10:16:27.014Z</time>
      </trkpt>
      <trkpt lat="64.63599" lon="11.45165">
        <ele>132.332172</ele>
        <time>2020-08-11T10:16:30.055Z</time>
      </trkpt>
      <trkpt lat="64.63606" lon="11.45149">
        <ele>132.73621</ele>
        <time>2020-08-11T10:16:35.063Z</time>
      </trkpt>
      <trkpt lat="64.63612" lon="11.45129">
        <ele>133.150786</ele>
        <time>2020-08-11T10:16:42.041Z</time>
      </trkpt>
      <trkpt lat="64.63619" lon="11.45109">
        <ele>133.581641</ele>
        <time>2020-08-11T10:16:48.033Z</time>
      </trkpt>
      <trkpt lat="64.63626" lon="11.45092">
        <ele>133.993871</ele>
        <time>2020-08-11T10:16:54.024Z</time>
      </trkpt>
      <trkpt lat="64.63633" lon="11.45074">
        <ele>134.399932</ele>
        <time>2020-08-11T10:17:01.051Z</time>
      </trkpt>
      <trkpt lat="64.63641" lon="11.4506">
        <ele>134.805081</ele>
        <time>2020-08-11T10:17:08.019Z</time>
      </trkpt>
      <trkpt lat="64.63648" lon="11.45045">
        <ele>135.172605</ele>
        <time>2020-08-11T10:17:14.067Z</time>
      </trkpt>
      <trkpt lat="64.63655" lon="11.45029">
        <ele>135.994643</ele>
        <time>2020-08-11T10:17:21.051Z</time>
      </trkpt>
      <trkpt lat="64.63662" lon="11.45014">
        <ele>136.794413</ele>
        <time>2020-08-11T10:17:27.025Z</time>
      </trkpt>
      <trkpt lat="64.63669" lon="11.45001">
        <ele>137.610654</ele>
        <time>2020-08-11T10:17:33.024Z</time>
      </trkpt>
      <trkpt lat="64.63677" lon="11.44987">
        <ele>138.456874</ele>
        <time>2020-08-11T10:17:40.019Z</time>
      </trkpt>
      <trkpt lat="64.63684" lon="11.44974">
        <ele>139.284407</ele>
        <time>2020-08-11T10:17:47.034Z</time>
      </trkpt>
      <trkpt lat="64.63692" lon="11.4496">
        <ele>140.148812</ele>
        <time>2020-08-11T10:17:55.032Z</time>
      </trkpt>
      <trkpt lat="64.637" lon="11.44944">
        <ele>141.023756</ele>
        <time>2020-08-11T10:18:03.033Z</time>
      </trkpt>
      <trkpt lat="64.63707" lon="11.44931">
        <ele>141.877026</ele>
        <time>2020-08-11T10:18:10.021Z</time>
      </trkpt>
      <trkpt lat="64.63715" lon="11.44917">
        <ele>142.735204</ele>
        <time>2020-08-11T10:18:18.073Z</time>
      </trkpt>
      <trkpt lat="64.63724" lon="11.44906">
        <ele>143.582414</ele>
        <time>2020-08-11T10:18:26.070Z</time>
      </trkpt>
      <trkpt lat="64.63731" lon="11.44892">
        <ele>144.380188</ele>
        <time>2020-08-11T10:18:33.026Z</time>
      </trkpt>
      <trkpt lat="64.6374" lon="11.44882">
        <ele>145.227538</ele>
        <time>2020-08-11T10:18:40.021Z</time>
      </trkpt>
      <trkpt lat="64.63748" lon="11.44874">
        <ele>146.042125</ele>
        <time>2020-08-11T10:18:47.040Z</time>
      </trkpt>
      <trkpt lat="64.63756" lon="11.44865">
        <ele>146.838716</ele>
        <time>2020-08-11T10:18:54.027Z</time>
      </trkpt>
      <trkpt lat="64.63766" lon="11.44857">
        <ele>147.737572</ele>
        <time>2020-08-11T10:19:01.021Z</time>
      </trkpt>
      <trkpt lat="64.63775" lon="11.44851">
        <ele>148.548074</ele>
        <time>2020-08-11T10:19:08.031Z</time>
      </trkpt>
      <trkpt lat="64.63785" lon="11.44845">
        <ele>149.420452</ele>
        <time>2020-08-11T10:19:16.027Z</time>
      </trkpt>
      <trkpt lat="64.63794" lon="11.4484">
        <ele>150.291768</ele>
        <time>2020-08-11T10:19:24.012Z</time>
      </trkpt>
      <trkpt lat="64.63804" lon="11.44836">
        <ele>151.166508</ele>
        <time>2020-08-11T10:19:32.023Z</time>
      </trkpt>
      <trkpt lat="64.63813" lon="11.44833">
        <ele>152.017157</ele>
        <time>2020-08-11T10:19:40.023Z</time>
      </trkpt>
      <trkpt lat="64.63823" lon="11.44834">
        <ele>152.878705</ele>
        <time>2020-08-11T10:19:48.033Z</time>
      </trkpt>
      <trkpt lat="64.63832" lon="11.44832">
        <ele>153.742923</ele>
        <time>2020-08-11T10:19:56.056Z</time>
      </trkpt>
      <trkpt lat="64.63842" lon="11.44831">
        <ele>154.660872</ele>
        <time>2020-08-11T10:20:04.033Z</time>
      </trkpt>
      <trkpt lat="64.63852" lon="11.44829">
        <ele>155.560084</ele>
        <time>2020-08-11T10:20:12.022Z</time>
      </trkpt>
      <trkpt lat="64.63861" lon="11.44833">
        <ele>156.414842</ele>
        <time>2020-08-11T10:20:19.013Z</time>
      </trkpt>
      <trkpt lat="64.6387" lon="11.44836">
        <ele>157.236711</ele>
        <time>2020-08-11T10:20:26.049Z</time>
      </trkpt>
      <trkpt lat="64.6388" lon="11.44836">
        <ele>158.153225</ele>
        <time>2020-08-11T10:20:34.031Z</time>
      </trkpt>
      <trkpt lat="64.6389" lon="11.4484">
        <ele>159.055797</ele>
        <time>2020-08-11T10:20:42.038Z</time>
      </trkpt>
      <trkpt lat="64.63899" lon="11.44844">
        <ele>159.959767</ele>
        <time>2020-08-11T10:20:50.052Z</time>
      </trkpt>
      <trkpt lat="64.63909" lon="11.44847">
        <ele>160.818493</ele>
        <time>2020-08-11T10:20:57.045Z</time>
      </trkpt>
      <trkpt lat="64.63919" lon="11.44847">
        <ele>161.743968</ele>
        <time>2020-08-11T10:21:06.072Z</time>
      </trkpt>
      <trkpt lat="64.63928" lon="11.44847">
        <ele>162.59613</ele>
        <time>2020-08-11T10:21:15.040Z</time>
      </trkpt>
      <trkpt lat="64.63938" lon="11.44846">
        <ele>163.503686</ele>
        <time>2020-08-11T10:21:23.042Z</time>
      </trkpt>
      <trkpt lat="64.63948" lon="11.44847">
        <ele>164.411039</ele>
        <time>2020-08-11T10:21:31.028Z</time>
      </trkpt>
      <trkpt lat="64.63958" lon="11.44846">
        <ele>165.300719</ele>
        <time>2020-08-11T10:21:39.016Z</time>
      </trkpt>
      <trkpt lat="64.63968" lon="11.44845">
        <ele>166.235645</ele>
        <time>2020-08-11T10:21:48.046Z</time>
      </trkpt>
      <trkpt lat="64.63977" lon="11.44844">
        <ele>167.05388</ele>
        <time>2020-08-11T10:21:55.030Z</time>
      </trkpt>
      <trkpt lat="64.63986" lon="11.44841">
        <ele>167.667836</ele>
        <time>2020-08-11T10:22:02.028Z</time>
      </trkpt>
      <trkpt lat="64.63996" lon="11.44836">
        <ele>168.179298</ele>
        <time>2020-08-11T10:22:10.023Z</time>
      </trkpt>
      <trkpt lat="64.64005" lon="11.44834">
        <ele>168.632009</ele>
        <time>2020-08-11T10:22:18.031Z</time>
      </trkpt>
      <trkpt lat="64.64014" lon="11.4483">
        <ele>169.113167</ele>
        <time>2020-08-11T10:22:26.043Z</time>
      </trkpt>
      <trkpt lat="64.64023" lon="11.44828">
        <ele>169.580756</ele>
        <time>2020-08-11T10:22:33.023Z</time>
      </trkpt>
      <trkpt lat="64.64032" lon="11.44824">
        <ele>170.034249</ele>
        <time>2020-08-11T10:22:40.031Z</time>
      </trkpt>
      <trkpt lat="64.64041" lon="11.44819">
        <ele>170.497804</ele>
        <time>2020-08-11T10:22:48.031Z</time>
      </trkpt>
      <trkpt lat="64.64051" lon="11.44817">
        <ele>171.032144</ele>
        <time>2020-08-11T10:22:55.010Z</time>
      </trkpt>
      <trkpt lat="64.64062" lon="11.44813">
        <ele>171.567502</ele>
        <time>2020-08-11T10:23:01.024Z</time>
      </trkpt>
      <trkpt lat="64.64072" lon="11.44811">
        <ele>172.102084</ele>
        <time>2020-08-11T10:23:07.036Z</time>
      </trkpt>
      <trkpt lat="64.64082" lon="11.4481">
        <ele>172.573115</ele>
        <time>2020-08-11T10:23:12.019Z</time>
      </trkpt>
      <trkpt lat="64.64092" lon="11.44804">
        <ele>173.081475</ele>
        <time>2020-08-11T10:23:18.041Z</time>
      </trkpt>
      <trkpt lat="64.64101" lon="11.448">
        <ele>173.587544</ele>
        <time>2020-08-11T10:23:24.028Z</time>
      </trkpt>
      <trkpt lat="64.6411" lon="11.44795">
        <ele>174.055506</ele>
        <time>2020-08-11T10:23:30.054Z</time>
      </trkpt>
      <trkpt lat="64.64119" lon="11.44789">
        <ele>174.530451</ele>
        <time>2020-08-11T10:23:36.031Z</time>
      </trkpt>
      <trkpt lat="64.64129" lon="11.44785">
        <ele>175.044027</ele>
        <time>2020-08-11T10:23:42.024Z</time>
      </trkpt>
      <trkpt lat="64.64139" lon="11.4478">
        <ele>175.518443</ele>
        <time>2020-08-11T10:23:48.029Z</time>
      </trkpt>
      <trkpt lat="64.64147" lon="11.44774">
        <ele>175.976707</ele>
        <time>2020-08-11T10:23:53.034Z</time>
      </trkpt>
      <trkpt lat="64.64157" lon="11.44769">
        <ele>176.486788</ele>
        <time>2020-08-11T10:23:59.023Z</time>
      </trkpt>
      <trkpt lat="64.64167" lon="11.44764">
        <ele>176.405227</ele>
        <time>2020-08-11T10:24:06.043Z</time>
      </trkpt>
      <trkpt lat="64.64177" lon="11.4476">
        <ele>176.32507</ele>
        <time>2020-08-11T10:24:12.036Z</time>
      </trkpt>
      <trkpt lat="64.64188" lon="11.44756">
        <ele>176.237781</ele>
        <time>2020-08-11T10:24:18.049Z</time>
      </trkpt>
      <trkpt lat="64.64197" lon="11.44757">
        <ele>176.162808</ele>
        <time>2020-08-11T10:24:24.020Z</time>
      </trkpt>
      <trkpt lat="64.64206" lon="11.44758">
        <ele>176.087182</ele>
        <time>2020-08-11T10:24:32.505Z</time>
      </trkpt>
      <trkpt lat="64.64216" lon="11.44758">
        <ele>176.007525</ele>
        <time>2020-08-11T10:24:36.561Z</time>
      </trkpt>
      <trkpt lat="64.64227" lon="11.44758">
        <ele>175.916615</ele>
        <time>2020-08-11T10:24:40.515Z</time>
      </trkpt>
      <trkpt lat="64.64239" lon="11.44761">
        <ele>175.824201</ele>
        <time>2020-08-11T10:24:44.514Z</time>
      </trkpt>
      <trkpt lat="64.64248" lon="11.44765">
        <ele>175.746828</ele>
        <time>2020-08-11T10:24:47.533Z</time>
      </trkpt>
      <trkpt lat="64.64258" lon="11.44768">
        <ele>175.669345</ele>
        <time>2020-08-11T10:24:50.500Z</time>
      </trkpt>
      <trkpt lat="64.64268" lon="11.44774">
        <ele>175.585752</ele>
        <time>2020-08-11T10:24:53.521Z</time>
      </trkpt>
      <trkpt lat="64.64279" lon="11.44779">
        <ele>175.494741</ele>
        <time>2020-08-11T10:24:56.499Z</time>
      </trkpt>
      <trkpt lat="64.64289" lon="11.44786">
        <ele>175.408535</ele>
        <time>2020-08-11T10:24:59.513Z</time>
      </trkpt>
      <trkpt lat="64.64301" lon="11.44793">
        <ele>175.313617</ele>
        <time>2020-08-11T10:25:02.507Z</time>
      </trkpt>
      <trkpt lat="64.64313" lon="11.44804">
        <ele>175.206746</ele>
        <time>2020-08-11T10:25:05.557Z</time>
      </trkpt>
      <trkpt lat="64.64323" lon="11.4481">
        <ele>175.12739</ele>
        <time>2020-08-11T10:25:07.519Z</time>
      </trkpt>
      <trkpt lat="64.64334" lon="11.44815">
        <ele>175.039035</ele>
        <time>2020-08-11T10:25:09.505Z</time>
      </trkpt>
      <trkpt lat="64.64345" lon="11.44819">
        <ele>174.987996</ele>
        <time>2020-08-11T10:25:11.540Z</time>
      </trkpt>
      <trkpt lat="64.64356" lon="11.44822">
        <ele>174.940515</ele>
        <time>2020-08-11T10:25:13.531Z</time>
      </trkpt>
      <trkpt lat="64.64367" lon="11.44824">
        <ele>174.891392</ele>
        <time>2020-08-11T10:25:15.505Z</time>
      </trkpt>
      <trkpt lat="64.64379" lon="11.44826">
        <ele>174.838872</ele>
        <time>2020-08-11T10:25:17.531Z</time>
      </trkpt>
      <trkpt lat="64.64392" lon="11.44827">
        <ele>174.784681</ele>
        <time>2020-08-11T10:25:19.505Z</time>
      </trkpt>
      <trkpt lat="64.64405" lon="11.44826">
        <ele>174.727894</ele>
        <time>2020-08-11T10:25:21.519Z</time>
      </trkpt>
      <trkpt lat="64.64418" lon="11.44825">
        <ele>174.667537</ele>
        <time>2020-08-11T10:25:23.523Z</time>
      </trkpt>
      <trkpt lat="64.64432" lon="11.44823">
        <ele>174.607606</ele>
        <time>2020-08-11T10:25:25.530Z</time>
      </trkpt>
      <trkpt lat="64.64446" lon="11.44819">
        <ele>174.546459</ele>
        <time>2020-08-11T10:25:27.531Z</time>
      </trkpt>
      <trkpt lat="64.64459" lon="11.44813">
        <ele>174.487928</ele>
        <time>2020-08-11T10:25:29.510Z</time>
      </trkpt>
      <trkpt lat="64.64472" lon="11.44808">
        <ele>174.431151</ele>
        <time>2020-08-11T10:25:31.531Z</time>
      </trkpt>
      <trkpt lat="64.64484" lon="11.44803">
        <ele>174.377481</ele>
        <time>2020-08-11T10:25:33.509Z</time>
      </trkpt>
      <trkpt lat="64.64496" lon="11.44798">
        <ele>174.325531</ele>
        <time>2020-08-11T10:25:35.554Z</time>
      </trkpt>
      <trkpt lat="64.64506" lon="11.44794">
        <ele>174.279402</ele>
        <time>2020-08-11T10:25:37.514Z</time>
      </trkpt>
      <trkpt lat="64.64515" lon="11.44791">
        <ele>174.493621</ele>
        <time>2020-08-11T10:25:39.500Z</time>
      </trkpt>
      <trkpt lat="64.64526" lon="11.44786">
        <ele>175.311886</ele>
        <time>2020-08-11T10:25:42.515Z</time>
      </trkpt>
      <trkpt lat="64.64536" lon="11.4478">
        <ele>176.116793</ele>
        <time>2020-08-11T10:25:46.500Z</time>
      </trkpt>
      <trkpt lat="64.64545" lon="11.44774">
        <ele>176.799399</ele>
        <time>2020-08-11T10:25:50.522Z</time>
      </trkpt>
      <trkpt lat="64.64554" lon="11.44768">
        <ele>177.490556</ele>
        <time>2020-08-11T10:25:57.502Z</time>
      </trkpt>
      <trkpt lat="64.64564" lon="11.44763">
        <ele>178.206346</ele>
        <time>2020-08-11T10:26:04.509Z</time>
      </trkpt>
      <trkpt lat="64.64573" lon="11.44758">
        <ele>178.938748</ele>
        <time>2020-08-11T10:26:12.528Z</time>
      </trkpt>
      <trkpt lat="64.64583" lon="11.44754">
        <ele>179.671354</ele>
        <time>2020-08-11T10:26:19.507Z</time>
      </trkpt>
      <trkpt lat="64.64592" lon="11.44749">
        <ele>180.397997</ele>
        <time>2020-08-11T10:26:27.551Z</time>
      </trkpt>
      <trkpt lat="64.64602" lon="11.44745">
        <ele>181.107534</ele>
        <time>2020-08-11T10:26:34.552Z</time>
      </trkpt>
      <trkpt lat="64.64612" lon="11.44743">
        <ele>181.861124</ele>
        <time>2020-08-11T10:26:41.513Z</time>
      </trkpt>
      <trkpt lat="64.64621" lon="11.44742">
        <ele>182.544887</ele>
        <time>2020-08-11T10:26:47.522Z</time>
      </trkpt>
      <trkpt lat="64.64632" lon="11.44739">
        <ele>183.330674</ele>
        <time>2020-08-11T10:26:53.538Z</time>
      </trkpt>
      <trkpt lat="64.64641" lon="11.44734">
        <ele>184.054063</ele>
        <time>2020-08-11T10:26:58.518Z</time>
      </trkpt>
      <trkpt lat="64.6465" lon="11.44728">
        <ele>184.76551</ele>
        <time>2020-08-11T10:27:04.508Z</time>
      </trkpt>
      <trkpt lat="64.64659" lon="11.44724">
        <ele>185.445797</ele>
        <time>2020-08-11T10:27:10.507Z</time>
      </trkpt>
      <trkpt lat="64.64669" lon="11.44721">
        <ele>186.197286</ele>
        <time>2020-08-11T10:27:16.540Z</time>
      </trkpt>
      <trkpt lat="64.64679" lon="11.44715">
        <ele>186.973405</ele>
        <time>2020-08-11T10:27:22.511Z</time>
      </trkpt>
      <trkpt lat="64.64689" lon="11.4471">
        <ele>187.648663</ele>
        <time>2020-08-11T10:27:27.539Z</time>
      </trkpt>
      <trkpt lat="64.64698" lon="11.44707">
        <ele>187.928291</ele>
        <time>2020-08-11T10:27:32.509Z</time>
      </trkpt>
      <trkpt lat="64.64707" lon="11.44702">
        <ele>188.220559</ele>
        <time>2020-08-11T10:27:37.504Z</time>
      </trkpt>
      <trkpt lat="64.64716" lon="11.44697">
        <ele>188.499376</ele>
        <time>2020-08-11T10:27:41.520Z</time>
      </trkpt>
      <trkpt lat="64.64725" lon="11.4469">
        <ele>188.788255</ele>
        <time>2020-08-11T10:27:45.510Z</time>
      </trkpt>
      <trkpt lat="64.64735" lon="11.44682">
        <ele>189.119172</ele>
        <time>2020-08-11T10:27:50.543Z</time>
      </trkpt>
      <trkpt lat="64.64747" lon="11.44679">
        <ele>189.48641</ele>
        <time>2020-08-11T10:27:54.514Z</time>
      </trkpt>
      <trkpt lat="64.64756" lon="11.44676">
        <ele>189.775546</ele>
        <time>2020-08-11T10:27:57.518Z</time>
      </trkpt>
      <trkpt lat="64.64767" lon="11.4467">
        <ele>190.106959</ele>
        <time>2020-08-11T10:28:01.501Z</time>
      </trkpt>
      <trkpt lat="64.64778" lon="11.44664">
        <ele>190.455493</ele>
        <time>2020-08-11T10:28:05.521Z</time>
      </trkpt>
      <trkpt lat="64.64789" lon="11.44661">
        <ele>190.793626</ele>
        <time>2020-08-11T10:28:09.548Z</time>
      </trkpt>
      <trkpt lat="64.64799" lon="11.44659">
        <ele>191.110983</ele>
        <time>2020-08-11T10:28:13.504Z</time>
      </trkpt>
      <trkpt lat="64.64809" lon="11.44655">
        <ele>191.427459</ele>
        <time>2020-08-11T10:28:17.527Z</time>
      </trkpt>
      <trkpt lat="64.64818" lon="11.4465">
        <ele>191.718831</ele>
        <time>2020-08-11T10:28:21.553Z</time>
      </trkpt>
      <trkpt lat="64.64829" lon="11.44645">
        <ele>192.046074</ele>
        <time>2020-08-11T10:28:26.492Z</time>
      </trkpt>
      <trkpt lat="64.64838" lon="11.44638">
        <ele>192.342473</ele>
        <time>2020-08-11T10:28:32.513Z</time>
      </trkpt>
      <trkpt lat="64.64848" lon="11.44633">
        <ele>192.66315</ele>
        <time>2020-08-11T10:28:38.573Z</time>
      </trkpt>
      <trkpt lat="64.64857" lon="11.44625">
        <ele>192.9471</ele>
        <time>2020-08-11T10:28:44.533Z</time>
      </trkpt>
      <trkpt lat="64.64866" lon="11.44619">
        <ele>193.395222</ele>
        <time>2020-08-11T10:28:50.512Z</time>
      </trkpt>
      <trkpt lat="64.64875" lon="11.44607">
        <ele>194.163172</ele>
        <time>2020-08-11T10:28:59.513Z</time>
      </trkpt>
      <trkpt lat="64.64884" lon="11.44597">
        <ele>194.944697</ele>
        <time>2020-08-11T10:29:05.524Z</time>
      </trkpt>
      <trkpt lat="64.64893" lon="11.4459">
        <ele>195.621176</ele>
        <time>2020-08-11T10:29:10.540Z</time>
      </trkpt>
      <trkpt lat="64.64903" lon="11.44584">
        <ele>196.389701</ele>
        <time>2020-08-11T10:29:16.543Z</time>
      </trkpt>
      <trkpt lat="64.64912" lon="11.44575">
        <ele>197.1512</ele>
        <time>2020-08-11T10:29:23.501Z</time>
      </trkpt>
      <trkpt lat="64.6492" lon="11.44567">
        <ele>197.832722</ele>
        <time>2020-08-11T10:29:29.519Z</time>
      </trkpt>
      <trkpt lat="64.6493" lon="11.44561">
        <ele>198.596226</ele>
        <time>2020-08-11T10:29:36.507Z</time>
      </trkpt>
      <trkpt lat="64.64939" lon="11.44555">
        <ele>199.325747</ele>
        <time>2020-08-11T10:29:43.505Z</time>
      </trkpt>
      <trkpt lat="64.6495" lon="11.4455">
        <ele>200.133156</ele>
        <time>2020-08-11T10:29:50.513Z</time>
      </trkpt>
      <trkpt lat="64.64959" lon="11.44542">
        <ele>200.844121</ele>
        <time>2020-08-11T10:29:56.532Z</time>
      </trkpt>
      <trkpt lat="64.64967" lon="11.44532">
        <ele>201.533048</ele>
        <time>2020-08-11T10:30:02.516Z</time>
      </trkpt>
      <trkpt lat="64.64976" lon="11.44525">
        <ele>202.306997</ele>
        <time>2020-08-11T10:30:08.513Z</time>
      </trkpt>
      <trkpt lat="64.64985" lon="11.44518">
        <ele>202.996831</ele>
        <time>2020-08-11T10:30:13.514Z</time>
      </trkpt>
      <trkpt lat="64.64996" lon="11.44511">
        <ele>203.823276</ele>
        <time>2020-08-11T10:30:19.522Z</time>
      </trkpt>
      <trkpt lat="64.65005" lon="11.44504">
        <ele>204.590005</ele>
        <time>2020-08-11T10:30:25.500Z</time>
      </trkpt>
      <trkpt lat="64.65015" lon="11.44497">
        <ele>205.33812</ele>
        <time>2020-08-11T10:30:32.514Z</time>
      </trkpt>
      <trkpt lat="64.65025" lon="11.44492">
        <ele>206.125223</ele>
        <time>2020-08-11T10:30:39.532Z</time>
      </trkpt>
      <trkpt lat="64.65034" lon="11.44488">
        <ele>206.751977</ele>
        <time>2020-08-11T10:30:45.522Z</time>
      </trkpt>
      <trkpt lat="64.65044" lon="11.44485">
        <ele>206.924281</ele>
        <time>2020-08-11T10:30:51.520Z</time>
      </trkpt>
      <trkpt lat="64.65055" lon="11.44483">
        <ele>207.097581</ele>
        <time>2020-08-11T10:30:56.506Z</time>
      </trkpt>
      <trkpt lat="64.65065" lon="11.44487">
        <ele>207.281004</ele>
        <time>2020-08-11T10:31:01.506Z</time>
      </trkpt>
      <trkpt lat="64.65077" lon="11.44488">
        <ele>207.467009</ele>
        <time>2020-08-11T10:31:06.525Z</time>
      </trkpt>
      <trkpt lat="64.65087" lon="11.4449">
        <ele>207.64871</ele>
        <time>2020-08-11T10:31:11.521Z</time>
      </trkpt>
      <trkpt lat="64.65097" lon="11.44491">
        <ele>207.814496</ele>
        <time>2020-08-11T10:31:16.545Z</time>
      </trkpt>
      <trkpt lat="64.65107" lon="11.44494">
        <ele>207.983581</ele>
        <time>2020-08-11T10:31:21.527Z</time>
      </trkpt>
      <trkpt lat="64.65117" lon="11.44499">
        <ele>208.151677</ele>
        <time>2020-08-11T10:31:26.501Z</time>
      </trkpt>
      <trkpt lat="64.65126" lon="11.44503">
        <ele>208.30835</ele>
        <time>2020-08-11T10:31:31.504Z</time>
      </trkpt>
      <trkpt lat="64.65136" lon="11.44507">
        <ele>208.48151</ele>
        <time>2020-08-11T10:31:36.511Z</time>
      </trkpt>
      <trkpt lat="64.65147" lon="11.44513">
        <ele>208.654821</ele>
        <time>2020-08-11T10:31:41.516Z</time>
      </trkpt>
      <trkpt lat="64.65156" lon="11.44521">
        <ele>208.81682</ele>
        <time>2020-08-11T10:31:46.502Z</time>
      </trkpt>
      <trkpt lat="64.65164" lon="11.4453">
        <ele>208.970023</ele>
        <time>2020-08-11T10:31:52.513Z</time>
      </trkpt>
      <trkpt lat="64.65172" lon="11.4454">
        <ele>209.125405</ele>
        <time>2020-08-11T10:31:57.528Z</time>
      </trkpt>
      <trkpt lat="64.65182" lon="11.44547">
        <ele>209.299979</ele>
        <time>2020-08-11T10:32:03.506Z</time>
      </trkpt>
      <trkpt lat="64.65192" lon="11.44552">
        <ele>209.464373</ele>
        <time>2020-08-11T10:32:08.536Z</time>
      </trkpt>
      <trkpt lat="64.65202" lon="11.44559">
        <ele>209.650569</ele>
        <time>2020-08-11T10:32:13.514Z</time>
      </trkpt>
      <trkpt lat="64.65211" lon="11.44565">
        <ele>209.706852</ele>
        <time>2020-08-11T10:32:17.546Z</time>
      </trkpt>
      <trkpt lat="64.65221" lon="11.44571">
        <ele>209.619767</ele>
        <time>2020-08-11T10:32:22.500Z</time>
      </trkpt>
      <trkpt lat="64.65231" lon="11.44575">
        <ele>209.520719</ele>
        <time>2020-08-11T10:32:28.518Z</time>
      </trkpt>
      <trkpt lat="64.65242" lon="11.44582">
        <ele>209.424885</ele>
        <time>2020-08-11T10:32:33.521Z</time>
      </trkpt>
      <trkpt lat="64.65252" lon="11.44586">
        <ele>209.333484</ele>
        <time>2020-08-11T10:32:38.540Z</time>
      </trkpt>
      <trkpt lat="64.65262" lon="11.44589">
        <ele>209.237788</ele>
        <time>2020-08-11T10:32:43.519Z</time>
      </trkpt>
      <trkpt lat="64.65273" lon="11.44591">
        <ele>209.143024</ele>
        <time>2020-08-11T10:32:48.533Z</time>
      </trkpt>
      <trkpt lat="64.65283" lon="11.44592">
        <ele>209.048579</ele>
        <time>2020-08-11T10:32:52.511Z</time>
      </trkpt>
      <trkpt lat="64.65295" lon="11.44591">
        <ele>208.944283</ele>
        <time>2020-08-11T10:32:56.517Z</time>
      </trkpt>
      <trkpt lat="64.65306" lon="11.44591">
        <ele>208.840976</ele>
        <time>2020-08-11T10:33:00.534Z</time>
      </trkpt>
      <trkpt lat="64.65317" lon="11.44591">
        <ele>208.743949</ele>
        <time>2020-08-11T10:33:04.519Z</time>
      </trkpt>
      <trkpt lat="64.65328" lon="11.4459">
        <ele>208.644172</ele>
        <time>2020-08-11T10:33:08.547Z</time>
      </trkpt>
      <trkpt lat="64.65337" lon="11.44588">
        <ele>208.561871</ele>
        <time>2020-08-11T10:33:11.551Z</time>
      </trkpt>
      <trkpt lat="64.65348" lon="11.44585">
        <ele>208.462562</ele>
        <time>2020-08-11T10:33:14.576Z</time>
      </trkpt>
      <trkpt lat="64.6536" lon="11.44584">
        <ele>208.355474</ele>
        <time>2020-08-11T10:33:17.507Z</time>
      </trkpt>
      <trkpt lat="64.65373" lon="11.44581">
        <ele>208.241027</ele>
        <time>2020-08-11T10:33:20.507Z</time>
      </trkpt>
      <trkpt lat="64.65382" lon="11.4458">
        <ele>208.157449</ele>
        <time>2020-08-11T10:33:22.551Z</time>
      </trkpt>
      <trkpt lat="64.65391" lon="11.4458">
        <ele>208.228382</ele>
        <time>2020-08-11T10:33:24.522Z</time>
      </trkpt>
      <trkpt lat="64.65401" lon="11.4458">
        <ele>208.398652</ele>
        <time>2020-08-11T10:33:26.581Z</time>
      </trkpt>
      <trkpt lat="64.6541" lon="11.44579">
        <ele>208.574502</ele>
        <time>2020-08-11T10:33:28.507Z</time>
      </trkpt>
      <trkpt lat="64.65419" lon="11.4458">
        <ele>208.741078</ele>
        <time>2020-08-11T10:33:30.502Z</time>
      </trkpt>
      <trkpt lat="64.65431" lon="11.44582">
        <ele>208.958196</ele>
        <time>2020-08-11T10:33:33.523Z</time>
      </trkpt>
      <trkpt lat="64.65441" lon="11.44584">
        <ele>209.151325</ele>
        <time>2020-08-11T10:33:36.513Z</time>
      </trkpt>
      <trkpt lat="64.65453" lon="11.44588">
        <ele>209.370287</ele>
        <time>2020-08-11T10:33:40.518Z</time>
      </trkpt>
      <trkpt lat="64.65463" lon="11.44593">
        <ele>209.565485</ele>
        <time>2020-08-11T10:33:43.516Z</time>
      </trkpt>
      <trkpt lat="64.65474" lon="11.446">
        <ele>209.766726</ele>
        <time>2020-08-11T10:33:46.513Z</time>
      </trkpt>
      <trkpt lat="64.65484" lon="11.44606">
        <ele>209.964396</ele>
        <time>2020-08-11T10:33:49.525Z</time>
      </trkpt>
      <trkpt lat="64.65494" lon="11.44613">
        <ele>210.16249</ele>
        <time>2020-08-11T10:33:52.510Z</time>
      </trkpt>
      <trkpt lat="64.65504" lon="11.44621">
        <ele>210.344578</ele>
        <time>2020-08-11T10:33:55.509Z</time>
      </trkpt>
      <trkpt lat="64.65513" lon="11.44629">
        <ele>210.53573</ele>
        <time>2020-08-11T10:33:58.543Z</time>
      </trkpt>
      <trkpt lat="64.65522" lon="11.44638">
        <ele>210.706235</ele>
        <time>2020-08-11T10:34:01.519Z</time>
      </trkpt>
      <trkpt lat="64.65532" lon="11.44649">
        <ele>210.917858</ele>
        <time>2020-08-11T10:34:05.502Z</time>
      </trkpt>
      <trkpt lat="64.65541" lon="11.4466">
        <ele>211.105846</ele>
        <time>2020-08-11T10:34:08.552Z</time>
      </trkpt>
      <trkpt lat="64.65549" lon="11.44672">
        <ele>211.28409</ele>
        <time>2020-08-11T10:34:11.544Z</time>
      </trkpt>
      <trkpt lat="64.65558" lon="11.44684">
        <ele>211.452689</ele>
        <time>2020-08-11T10:34:14.554Z</time>
      </trkpt>
      <trkpt lat="64.65566" lon="11.44694">
        <ele>211.428113</ele>
        <time>2020-08-11T10:34:17.534Z</time>
      </trkpt>
      <trkpt lat="64.65576" lon="11.44706">
        <ele>211.39829</ele>
        <time>2020-08-11T10:34:20.559Z</time>
      </trkpt>
      <trkpt lat="64.65587" lon="11.44719">
        <ele>211.367405</ele>
        <time>2020-08-11T10:34:23.552Z</time>
      </trkpt>
      <trkpt lat="64.65596" lon="11.4473">
        <ele>211.33872</ele>
        <time>2020-08-11T10:34:26.519Z</time>
      </trkpt>
      <trkpt lat="64.65606" lon="11.44742">
        <ele>211.3105</ele>
        <time>2020-08-11T10:34:29.522Z</time>
      </trkpt>
      <trkpt lat="64.65615" lon="11.44755">
        <ele>211.282868</ele>
        <time>2020-08-11T10:34:32.561Z</time>
      </trkpt>
      <trkpt lat="64.65625" lon="11.44768">
        <ele>211.252852</ele>
        <time>2020-08-11T10:34:35.495Z</time>
      </trkpt>
      <trkpt lat="64.65635" lon="11.4478">
        <ele>211.222176</ele>
        <time>2020-08-11T10:34:38.553Z</time>
      </trkpt>
      <trkpt lat="64.65646" lon="11.4479">
        <ele>211.191502</ele>
        <time>2020-08-11T10:34:41.573Z</time>
      </trkpt>
      <trkpt lat="64.65658" lon="11.44798">
        <ele>211.160093</ele>
        <time>2020-08-11T10:34:44.524Z</time>
      </trkpt>
      <trkpt lat="64.6567" lon="11.44806">
        <ele>211.126947</ele>
        <time>2020-08-11T10:34:47.503Z</time>
      </trkpt>
      <trkpt lat="64.65683" lon="11.44812">
        <ele>211.092053</ele>
        <time>2020-08-11T10:34:50.508Z</time>
      </trkpt>
      <trkpt lat="64.65692" lon="11.44817">
        <ele>211.066583</ele>
        <time>2020-08-11T10:34:52.535Z</time>
      </trkpt>
      <trkpt lat="64.65702" lon="11.44823">
        <ele>211.04065</ele>
        <time>2020-08-11T10:34:54.523Z</time>
      </trkpt>
      <trkpt lat="64.65712" lon="11.4483">
        <ele>211.013991</ele>
        <time>2020-08-11T10:34:56.518Z</time>
      </trkpt>
      <trkpt lat="64.65722" lon="11.44836">
        <ele>210.986375</ele>
        <time>2020-08-11T10:34:58.508Z</time>
      </trkpt>
      <trkpt lat="64.65733" lon="11.44842">
        <ele>210.730604</ele>
        <time>2020-08-11T10:35:00.540Z</time>
      </trkpt>
      <trkpt lat="64.65744" lon="11.44848">
        <ele>210.419398</ele>
        <time>2020-08-11T10:35:02.515Z</time>
      </trkpt>
      <trkpt lat="64.65756" lon="11.44852">
        <ele>210.104488</ele>
        <time>2020-08-11T10:35:04.530Z</time>
      </trkpt>
      <trkpt lat="64.65769" lon="11.44854">
        <ele>209.762883</ele>
        <time>2020-08-11T10:35:06.528Z</time>
      </trkpt>
      <trkpt lat="64.65783" lon="11.44857">
        <ele>209.389585</ele>
        <time>2020-08-11T10:35:08.532Z</time>
      </trkpt>
      <trkpt lat="64.65798" lon="11.4486">
        <ele>208.997237</ele>
        <time>2020-08-11T10:35:10.500Z</time>
      </trkpt>
      <trkpt lat="64.65812" lon="11.44861">
        <ele>208.608467</ele>
        <time>2020-08-11T10:35:12.531Z</time>
      </trkpt>
      <trkpt lat="64.65829" lon="11.44861">
        <ele>208.172653</ele>
        <time>2020-08-11T10:35:14.529Z</time>
      </trkpt>
      <trkpt lat="64.65847" lon="11.44859">
        <ele>207.699412</ele>
        <time>2020-08-11T10:35:16.504Z</time>
      </trkpt>
      <trkpt lat="64.65856" lon="11.44857">
        <ele>207.452855</ele>
        <time>2020-08-11T10:35:17.505Z</time>
      </trkpt>
      <trkpt lat="64.65866" lon="11.44856">
        <ele>207.201455</ele>
        <time>2020-08-11T10:35:18.512Z</time>
      </trkpt>
      <trkpt lat="64.65876" lon="11.44854">
        <ele>206.936649</ele>
        <time>2020-08-11T10:35:19.521Z</time>
      </trkpt>
      <trkpt lat="64.65886" lon="11.44852">
        <ele>206.661306</ele>
        <time>2020-08-11T10:35:20.506Z</time>
      </trkpt>
      <trkpt lat="64.65897" lon="11.44851">
        <ele>206.380613</ele>
        <time>2020-08-11T10:35:21.539Z</time>
      </trkpt>
      <trkpt lat="64.65907" lon="11.44848">
        <ele>206.1462</ele>
        <time>2020-08-11T10:35:22.541Z</time>
      </trkpt>
      <trkpt lat="64.65919" lon="11.44845">
        <ele>205.965215</ele>
        <time>2020-08-11T10:35:23.551Z</time>
      </trkpt>
      <trkpt lat="64.6593" lon="11.44842">
        <ele>205.781525</ele>
        <time>2020-08-11T10:35:24.558Z</time>
      </trkpt>
      <trkpt lat="64.65941" lon="11.4484">
        <ele>205.59685</ele>
        <time>2020-08-11T10:35:25.502Z</time>
      </trkpt>
      <trkpt lat="64.65953" lon="11.44839">
        <ele>205.409162</ele>
        <time>2020-08-11T10:35:26.514Z</time>
      </trkpt>
      <trkpt lat="64.65964" lon="11.44837">
        <ele>205.223154</ele>
        <time>2020-08-11T10:35:27.525Z</time>
      </trkpt>
      <trkpt lat="64.65976" lon="11.44836">
        <ele>205.041988</ele>
        <time>2020-08-11T10:35:28.541Z</time>
      </trkpt>
      <trkpt lat="64.65987" lon="11.44835">
        <ele>204.862288</ele>
        <time>2020-08-11T10:35:29.519Z</time>
      </trkpt>
      <trkpt lat="64.65998" lon="11.44832">
        <ele>204.685562</ele>
        <time>2020-08-11T10:35:30.519Z</time>
      </trkpt>
      <trkpt lat="64.66008" lon="11.44831">
        <ele>204.521938</ele>
        <time>2020-08-11T10:35:31.494Z</time>
      </trkpt>
      <trkpt lat="64.66018" lon="11.44828">
        <ele>204.357964</ele>
        <time>2020-08-11T10:35:32.540Z</time>
      </trkpt>
      <trkpt lat="64.66028" lon="11.44825">
        <ele>204.196375</ele>
        <time>2020-08-11T10:35:33.501Z</time>
      </trkpt>
      <trkpt lat="64.66037" lon="11.44821">
        <ele>204.037094</ele>
        <time>2020-08-11T10:35:34.503Z</time>
      </trkpt>
      <trkpt lat="64.66046" lon="11.44817">
        <ele>203.892099</ele>
        <time>2020-08-11T10:35:35.509Z</time>
      </trkpt>
      <trkpt lat="64.66062" lon="11.44809">
        <ele>203.622534</ele>
        <time>2020-08-11T10:35:37.513Z</time>
      </trkpt>
      <trkpt lat="64.66077" lon="11.448">
        <ele>203.386013</ele>
        <time>2020-08-11T10:35:39.541Z</time>
      </trkpt>
      <trkpt lat="64.6609" lon="11.44794">
        <ele>203.351851</ele>
        <time>2020-08-11T10:35:41.527Z</time>
      </trkpt>
      <trkpt lat="64.66101" lon="11.44789">
        <ele>203.38302</ele>
        <time>2020-08-11T10:35:43.512Z</time>
      </trkpt>
      <trkpt lat="64.66112" lon="11.44783">
        <ele>203.412724</ele>
        <time>2020-08-11T10:35:45.520Z</time>
      </trkpt>
      <trkpt lat="64.66122" lon="11.44777">
        <ele>203.441459</ele>
        <time>2020-08-11T10:35:47.511Z</time>
      </trkpt>
      <trkpt lat="64.66132" lon="11.4477">
        <ele>203.46956</ele>
        <time>2020-08-11T10:35:49.523Z</time>
      </trkpt>
      <trkpt lat="64.66141" lon="11.44764">
        <ele>203.493899</ele>
        <time>2020-08-11T10:35:51.505Z</time>
      </trkpt>
      <trkpt lat="64.66152" lon="11.44756">
        <ele>203.526739</ele>
        <time>2020-08-11T10:35:54.533Z</time>
      </trkpt>
      <trkpt lat="64.66162" lon="11.44749">
        <ele>203.554814</ele>
        <time>2020-08-11T10:35:57.520Z</time>
      </trkpt>
      <trkpt lat="64.66173" lon="11.4474">
        <ele>203.584886</ele>
        <time>2020-08-11T10:36:00.541Z</time>
      </trkpt>
      <trkpt lat="64.66183" lon="11.44732">
        <ele>203.614647</ele>
        <time>2020-08-11T10:36:03.521Z</time>
      </trkpt>
      <trkpt lat="64.66193" lon="11.44724">
        <ele>203.642957</ele>
        <time>2020-08-11T10:36:06.525Z</time>
      </trkpt>
      <trkpt lat="64.66204" lon="11.44716">
        <ele>203.674269</ele>
        <time>2020-08-11T10:36:09.504Z</time>
      </trkpt>
      <trkpt lat="64.66216" lon="11.44705">
        <ele>203.708457</ele>
        <time>2020-08-11T10:36:12.502Z</time>
      </trkpt>
      <trkpt lat="64.66228" lon="11.44694">
        <ele>203.744535</ele>
        <time>2020-08-11T10:36:15.522Z</time>
      </trkpt>
      <trkpt lat="64.66237" lon="11.44686">
        <ele>203.769189</ele>
        <time>2020-08-11T10:36:17.515Z</time>
      </trkpt>
      <trkpt lat="64.66246" lon="11.44679">
        <ele>203.79517</ele>
        <time>2020-08-11T10:36:19.510Z</time>
      </trkpt>
      <trkpt lat="64.66255" lon="11.44671">
        <ele>203.635043</ele>
        <time>2020-08-11T10:36:21.508Z</time>
      </trkpt>
      <trkpt lat="64.66265" lon="11.44663">
        <ele>203.107855</ele>
        <time>2020-08-11T10:36:23.509Z</time>
      </trkpt>
      <trkpt lat="64.66277" lon="11.44653">
        <ele>202.507435</ele>
        <time>2020-08-11T10:36:25.522Z</time>
      </trkpt>
      <trkpt lat="64.66289" lon="11.44642">
        <ele>201.872091</ele>
        <time>2020-08-11T10:36:27.538Z</time>
      </trkpt>
      <trkpt lat="64.66302" lon="11.44632">
        <ele>201.180645</ele>
        <time>2020-08-11T10:36:29.531Z</time>
      </trkpt>
      <trkpt lat="64.66317" lon="11.44618">
        <ele>200.382086</ele>
        <time>2020-08-11T10:36:31.512Z</time>
      </trkpt>
      <trkpt lat="64.66333" lon="11.44603">
        <ele>199.575827</ele>
        <time>2020-08-11T10:36:33.530Z</time>
      </trkpt>
      <trkpt lat="64.6635" lon="11.44592">
        <ele>198.696677</ele>
        <time>2020-08-11T10:36:35.541Z</time>
      </trkpt>
      <trkpt lat="64.66359" lon="11.44586">
        <ele>198.238197</ele>
        <time>2020-08-11T10:36:36.506Z</time>
      </trkpt>
      <trkpt lat="64.66368" lon="11.4458">
        <ele>197.770242</ele>
        <time>2020-08-11T10:36:37.513Z</time>
      </trkpt>
      <trkpt lat="64.66377" lon="11.44574">
        <ele>197.286415</ele>
        <time>2020-08-11T10:36:38.552Z</time>
      </trkpt>
      <trkpt lat="64.66387" lon="11.44568">
        <ele>196.81317</ele>
        <time>2020-08-11T10:36:39.506Z</time>
      </trkpt>
      <trkpt lat="64.66396" lon="11.44563">
        <ele>196.350503</ele>
        <time>2020-08-11T10:36:40.541Z</time>
      </trkpt>
      <trkpt lat="64.66405" lon="11.44557">
        <ele>195.904742</ele>
        <time>2020-08-11T10:36:41.520Z</time>
      </trkpt>
      <trkpt lat="64.66421" lon="11.44548">
        <ele>195.074472</ele>
        <time>2020-08-11T10:36:43.502Z</time>
      </trkpt>
      <trkpt lat="64.66435" lon="11.4454">
        <ele>193.773131</ele>
        <time>2020-08-11T10:36:45.522Z</time>
      </trkpt>
      <trkpt lat="64.66448" lon="11.44532">
        <ele>192.53199</ele>
        <time>2020-08-11T10:36:47.518Z</time>
      </trkpt>
      <trkpt lat="64.66458" lon="11.44527">
        <ele>191.542491</ele>
        <time>2020-08-11T10:36:49.543Z</time>
      </trkpt>
      <trkpt lat="64.66467" lon="11.44521">
        <ele>190.643809</ele>
        <time>2020-08-11T10:36:51.529Z</time>
      </trkpt>
      <trkpt lat="64.66478" lon="11.44514">
        <ele>189.543957</ele>
        <time>2020-08-11T10:36:53.525Z</time>
      </trkpt>
      <trkpt lat="64.66492" lon="11.44505">
        <ele>188.183296</ele>
        <time>2020-08-11T10:36:55.499Z</time>
      </trkpt>
      <trkpt lat="64.66508" lon="11.44495">
        <ele>186.597826</ele>
        <time>2020-08-11T10:36:57.534Z</time>
      </trkpt>
      <trkpt lat="64.66525" lon="11.44484">
        <ele>184.933647</ele>
        <time>2020-08-11T10:36:59.512Z</time>
      </trkpt>
      <trkpt lat="64.66534" lon="11.44479">
        <ele>184.041284</ele>
        <time>2020-08-11T10:37:00.521Z</time>
      </trkpt>
      <trkpt lat="64.66544" lon="11.44473">
        <ele>183.097821</ele>
        <time>2020-08-11T10:37:01.544Z</time>
      </trkpt>
      <trkpt lat="64.66554" lon="11.44467">
        <ele>182.128733</ele>
        <time>2020-08-11T10:37:02.519Z</time>
      </trkpt>
      <trkpt lat="64.66564" lon="11.44461">
        <ele>181.118816</ele>
        <time>2020-08-11T10:37:03.520Z</time>
      </trkpt>
      <trkpt lat="64.66575" lon="11.44455">
        <ele>180.090463</ele>
        <time>2020-08-11T10:37:04.548Z</time>
      </trkpt>
      <trkpt lat="64.66585" lon="11.44448">
        <ele>179.048874</ele>
        <time>2020-08-11T10:37:05.561Z</time>
      </trkpt>
      <trkpt lat="64.66596" lon="11.44442">
        <ele>178.008311</ele>
        <time>2020-08-11T10:37:06.504Z</time>
      </trkpt>
      <trkpt lat="64.66606" lon="11.44435">
        <ele>177.115249</ele>
        <time>2020-08-11T10:37:07.511Z</time>
      </trkpt>
      <trkpt lat="64.66616" lon="11.44429">
        <ele>176.237113</ele>
        <time>2020-08-11T10:37:08.508Z</time>
      </trkpt>
      <trkpt lat="64.66627" lon="11.44423">
        <ele>175.314738</ele>
        <time>2020-08-11T10:37:09.508Z</time>
      </trkpt>
      <trkpt lat="64.66638" lon="11.44417">
        <ele>174.381058</ele>
        <time>2020-08-11T10:37:10.504Z</time>
      </trkpt>
      <trkpt lat="64.66649" lon="11.44412">
        <ele>173.449547</ele>
        <time>2020-08-11T10:37:11.501Z</time>
      </trkpt>
      <trkpt lat="64.66661" lon="11.44407">
        <ele>172.511351</ele>
        <time>2020-08-11T10:37:12.506Z</time>
      </trkpt>
      <trkpt lat="64.66672" lon="11.44402">
        <ele>171.567028</ele>
        <time>2020-08-11T10:37:13.521Z</time>
      </trkpt>
      <trkpt lat="64.66683" lon="11.44398">
        <ele>170.609457</ele>
        <time>2020-08-11T10:37:14.509Z</time>
      </trkpt>
      <trkpt lat="64.66695" lon="11.44394">
        <ele>169.631014</ele>
        <time>2020-08-11T10:37:15.520Z</time>
      </trkpt>
      <trkpt lat="64.66707" lon="11.4439">
        <ele>168.661176</ele>
        <time>2020-08-11T10:37:16.494Z</time>
      </trkpt>
      <trkpt lat="64.66719" lon="11.44387">
        <ele>167.693413</ele>
        <time>2020-08-11T10:37:17.495Z</time>
      </trkpt>
      <trkpt lat="64.66731" lon="11.44385">
        <ele>166.709674</ele>
        <time>2020-08-11T10:37:18.510Z</time>
      </trkpt>
      <trkpt lat="64.66742" lon="11.44382">
        <ele>165.725565</ele>
        <time>2020-08-11T10:37:19.569Z</time>
      </trkpt>
      <trkpt lat="64.66754" lon="11.44378">
        <ele>164.732899</ele>
        <time>2020-08-11T10:37:20.518Z</time>
      </trkpt>
      <trkpt lat="64.66767" lon="11.44375">
        <ele>163.722692</ele>
        <time>2020-08-11T10:37:21.514Z</time>
      </trkpt>
      <trkpt lat="64.66779" lon="11.44372">
        <ele>162.691743</ele>
        <time>2020-08-11T10:37:22.502Z</time>
      </trkpt>
      <trkpt lat="64.66791" lon="11.44369">
        <ele>161.636656</ele>
        <time>2020-08-11T10:37:23.521Z</time>
      </trkpt>
      <trkpt lat="64.66803" lon="11.44367">
        <ele>160.556511</ele>
        <time>2020-08-11T10:37:24.519Z</time>
      </trkpt>
      <trkpt lat="64.66816" lon="11.44365">
        <ele>159.459043</ele>
        <time>2020-08-11T10:37:25.524Z</time>
      </trkpt>
      <trkpt lat="64.66828" lon="11.44363">
        <ele>158.370237</ele>
        <time>2020-08-11T10:37:26.501Z</time>
      </trkpt>
      <trkpt lat="64.66841" lon="11.4436">
        <ele>157.305822</ele>
        <time>2020-08-11T10:37:27.514Z</time>
      </trkpt>
      <trkpt lat="64.66852" lon="11.44358">
        <ele>156.287378</ele>
        <time>2020-08-11T10:37:28.532Z</time>
      </trkpt>
      <trkpt lat="64.66864" lon="11.44357">
        <ele>155.313172</ele>
        <time>2020-08-11T10:37:29.517Z</time>
      </trkpt>
      <trkpt lat="64.66875" lon="11.44355">
        <ele>154.336926</ele>
        <time>2020-08-11T10:37:30.509Z</time>
      </trkpt>
      <trkpt lat="64.66886" lon="11.44353">
        <ele>153.361275</ele>
        <time>2020-08-11T10:37:31.529Z</time>
      </trkpt>
      <trkpt lat="64.66897" lon="11.4435">
        <ele>152.366738</ele>
        <time>2020-08-11T10:37:32.532Z</time>
      </trkpt>
      <trkpt lat="64.66909" lon="11.44348">
        <ele>151.346255</ele>
        <time>2020-08-11T10:37:33.534Z</time>
      </trkpt>
      <trkpt lat="64.66921" lon="11.44345">
        <ele>150.325772</ele>
        <time>2020-08-11T10:37:34.545Z</time>
      </trkpt>
      <trkpt lat="64.66933" lon="11.44342">
        <ele>149.25271</ele>
        <time>2020-08-11T10:37:35.537Z</time>
      </trkpt>
      <trkpt lat="64.66945" lon="11.4434">
        <ele>148.181503</ele>
        <time>2020-08-11T10:37:36.517Z</time>
      </trkpt>
      <trkpt lat="64.66958" lon="11.44338">
        <ele>147.112104</ele>
        <time>2020-08-11T10:37:37.502Z</time>
      </trkpt>
      <trkpt lat="64.6697" lon="11.44336">
        <ele>146.063437</ele>
        <time>2020-08-11T10:37:38.530Z</time>
      </trkpt>
      <trkpt lat="64.66982" lon="11.44334">
        <ele>145.039298</ele>
        <time>2020-08-11T10:37:39.528Z</time>
      </trkpt>
      <trkpt lat="64.66994" lon="11.44332">
        <ele>144.046931</ele>
        <time>2020-08-11T10:37:40.518Z</time>
      </trkpt>
      <trkpt lat="64.67005" lon="11.44329">
        <ele>143.070614</ele>
        <time>2020-08-11T10:37:41.551Z</time>
      </trkpt>
      <trkpt lat="64.67017" lon="11.44326">
        <ele>142.077886</ele>
        <time>2020-08-11T10:37:42.527Z</time>
      </trkpt>
      <trkpt lat="64.67029" lon="11.44322">
        <ele>141.055255</ele>
        <time>2020-08-11T10:37:43.549Z</time>
      </trkpt>
      <trkpt lat="64.67041" lon="11.44317">
        <ele>140.032054</ele>
        <time>2020-08-11T10:37:44.506Z</time>
      </trkpt>
      <trkpt lat="64.67053" lon="11.4431">
        <ele>139.004472</ele>
        <time>2020-08-11T10:37:45.508Z</time>
      </trkpt>
      <trkpt lat="64.67065" lon="11.44301">
        <ele>137.952039</ele>
        <time>2020-08-11T10:37:46.502Z</time>
      </trkpt>
      <trkpt lat="64.67076" lon="11.44291">
        <ele>136.915097</ele>
        <time>2020-08-11T10:37:47.509Z</time>
      </trkpt>
      <trkpt lat="64.67087" lon="11.44279">
        <ele>135.897979</ele>
        <time>2020-08-11T10:37:48.522Z</time>
      </trkpt>
      <trkpt lat="64.67098" lon="11.44266">
        <ele>134.885903</ele>
        <time>2020-08-11T10:37:49.543Z</time>
      </trkpt>
      <trkpt lat="64.67108" lon="11.44251">
        <ele>133.880139</ele>
        <time>2020-08-11T10:37:50.523Z</time>
      </trkpt>
      <trkpt lat="64.67117" lon="11.44233">
        <ele>132.87625</ele>
        <time>2020-08-11T10:37:51.499Z</time>
      </trkpt>
      <trkpt lat="64.67125" lon="11.44213">
        <ele>131.879291</ele>
        <time>2020-08-11T10:37:52.503Z</time>
      </trkpt>
      <trkpt lat="64.67133" lon="11.4419">
        <ele>130.904278</ele>
        <time>2020-08-11T10:37:53.514Z</time>
      </trkpt>
      <trkpt lat="64.6714" lon="11.44166">
        <ele>129.890291</ele>
        <time>2020-08-11T10:37:54.500Z</time>
      </trkpt>
      <trkpt lat="64.67146" lon="11.44141">
        <ele>128.893848</ele>
        <time>2020-08-11T10:37:55.511Z</time>
      </trkpt>
      <trkpt lat="64.67152" lon="11.44114">
        <ele>127.881662</ele>
        <time>2020-08-11T10:37:56.505Z</time>
      </trkpt>
      <trkpt lat="64.67157" lon="11.44087">
        <ele>126.856265</ele>
        <time>2020-08-11T10:37:57.509Z</time>
      </trkpt>
      <trkpt lat="64.67162" lon="11.44058">
        <ele>125.816018</ele>
        <time>2020-08-11T10:37:58.544Z</time>
      </trkpt>
      <trkpt lat="64.67165" lon="11.44029">
        <ele>124.794823</ele>
        <time>2020-08-11T10:37:59.533Z</time>
      </trkpt>
      <trkpt lat="64.67168" lon="11.44">
        <ele>123.754232</ele>
        <time>2020-08-11T10:38:00.526Z</time>
      </trkpt>
      <trkpt lat="64.67171" lon="11.4397">
        <ele>122.695439</ele>
        <time>2020-08-11T10:38:01.512Z</time>
      </trkpt>
      <trkpt lat="64.67173" lon="11.43939">
        <ele>121.619936</ele>
        <time>2020-08-11T10:38:02.510Z</time>
      </trkpt>
      <trkpt lat="64.67176" lon="11.43908">
        <ele>120.532691</ele>
        <time>2020-08-11T10:38:03.503Z</time>
      </trkpt>
      <trkpt lat="64.67179" lon="11.43877">
        <ele>119.45221</ele>
        <time>2020-08-11T10:38:04.503Z</time>
      </trkpt>
      <trkpt lat="64.67182" lon="11.43846">
        <ele>118.386761</ele>
        <time>2020-08-11T10:38:05.508Z</time>
      </trkpt>
      <trkpt lat="64.67185" lon="11.43816">
        <ele>117.253091</ele>
        <time>2020-08-11T10:38:06.523Z</time>
      </trkpt>
      <trkpt lat="64.67189" lon="11.43786">
        <ele>116.045467</ele>
        <time>2020-08-11T10:38:07.520Z</time>
      </trkpt>
      <trkpt lat="64.67194" lon="11.43757">
        <ele>114.845142</ele>
        <time>2020-08-11T10:38:08.525Z</time>
      </trkpt>
      <trkpt lat="64.67199" lon="11.43728">
        <ele>113.652649</ele>
        <time>2020-08-11T10:38:09.551Z</time>
      </trkpt>
      <trkpt lat="64.67205" lon="11.43701">
        <ele>112.472257</ele>
        <time>2020-08-11T10:38:10.501Z</time>
      </trkpt>
      <trkpt lat="64.67212" lon="11.43674">
        <ele>111.288686</ele>
        <time>2020-08-11T10:38:11.552Z</time>
      </trkpt>
      <trkpt lat="64.6722" lon="11.43649">
        <ele>110.075826</ele>
        <time>2020-08-11T10:38:12.536Z</time>
      </trkpt>
      <trkpt lat="64.67229" lon="11.43624">
        <ele>108.828733</ele>
        <time>2020-08-11T10:38:13.529Z</time>
      </trkpt>
      <trkpt lat="64.67239" lon="11.436">
        <ele>107.55325</ele>
        <time>2020-08-11T10:38:14.511Z</time>
      </trkpt>
      <trkpt lat="64.6725" lon="11.43577">
        <ele>106.250711</ele>
        <time>2020-08-11T10:38:15.524Z</time>
      </trkpt>
      <trkpt lat="64.67261" lon="11.43555">
        <ele>104.953594</ele>
        <time>2020-08-11T10:38:16.507Z</time>
      </trkpt>
      <trkpt lat="64.67272" lon="11.43534">
        <ele>103.662617</ele>
        <time>2020-08-11T10:38:17.538Z</time>
      </trkpt>
      <trkpt lat="64.67284" lon="11.43514">
        <ele>102.354147</ele>
        <time>2020-08-11T10:38:18.558Z</time>
      </trkpt>
      <trkpt lat="64.67296" lon="11.43495">
        <ele>101.295101</ele>
        <time>2020-08-11T10:38:19.506Z</time>
      </trkpt>
      <trkpt lat="64.67309" lon="11.43477">
        <ele>100.411457</ele>
        <time>2020-08-11T10:38:20.508Z</time>
      </trkpt>
      <trkpt lat="64.67321" lon="11.43461">
        <ele>99.535626</ele>
        <time>2020-08-11T10:38:21.549Z</time>
      </trkpt>
      <trkpt lat="64.67334" lon="11.43445">
        <ele>98.671005</ele>
        <time>2020-08-11T10:38:22.526Z</time>
      </trkpt>
      <trkpt lat="64.67347" lon="11.43431">
        <ele>97.813042</ele>
        <time>2020-08-11T10:38:23.514Z</time>
      </trkpt>
      <trkpt lat="64.6736" lon="11.43418">
        <ele>96.962811</ele>
        <time>2020-08-11T10:38:24.510Z</time>
      </trkpt>
      <trkpt lat="64.67373" lon="11.43408">
        <ele>96.107816</ele>
        <time>2020-08-11T10:38:25.512Z</time>
      </trkpt>
      <trkpt lat="64.67387" lon="11.434">
        <ele>95.259839</ele>
        <time>2020-08-11T10:38:26.512Z</time>
      </trkpt>
      <trkpt lat="64.674" lon="11.43395">
        <ele>94.443689</ele>
        <time>2020-08-11T10:38:27.547Z</time>
      </trkpt>
      <trkpt lat="64.67413" lon="11.43391">
        <ele>93.637998</ele>
        <time>2020-08-11T10:38:28.496Z</time>
      </trkpt>
      <trkpt lat="64.67426" lon="11.43389">
        <ele>92.848327</ele>
        <time>2020-08-11T10:38:29.530Z</time>
      </trkpt>
      <trkpt lat="64.67439" lon="11.43387">
        <ele>92.078645</ele>
        <time>2020-08-11T10:38:30.539Z</time>
      </trkpt>
      <trkpt lat="64.67451" lon="11.43387">
        <ele>91.327758</ele>
        <time>2020-08-11T10:38:31.514Z</time>
      </trkpt>
      <trkpt lat="64.67463" lon="11.43389">
        <ele>90.78374</ele>
        <time>2020-08-11T10:38:32.511Z</time>
      </trkpt>
      <trkpt lat="64.67475" lon="11.43393">
        <ele>90.459602</ele>
        <time>2020-08-11T10:38:33.534Z</time>
      </trkpt>
      <trkpt lat="64.67486" lon="11.43398">
        <ele>90.138313</ele>
        <time>2020-08-11T10:38:34.555Z</time>
      </trkpt>
      <trkpt lat="64.67497" lon="11.43404">
        <ele>89.828584</ele>
        <time>2020-08-11T10:38:35.506Z</time>
      </trkpt>
      <trkpt lat="64.67508" lon="11.43409">
        <ele>89.524729</ele>
        <time>2020-08-11T10:38:36.515Z</time>
      </trkpt>
      <trkpt lat="64.67519" lon="11.43416">
        <ele>89.227139</ele>
        <time>2020-08-11T10:38:37.512Z</time>
      </trkpt>
      <trkpt lat="64.67529" lon="11.43424">
        <ele>88.933088</ele>
        <time>2020-08-11T10:38:38.525Z</time>
      </trkpt>
      <trkpt lat="64.67539" lon="11.43433">
        <ele>88.643404</ele>
        <time>2020-08-11T10:38:39.544Z</time>
      </trkpt>
      <trkpt lat="64.67548" lon="11.43442">
        <ele>88.357977</ele>
        <time>2020-08-11T10:38:40.511Z</time>
      </trkpt>
      <trkpt lat="64.67558" lon="11.43452">
        <ele>88.080283</ele>
        <time>2020-08-11T10:38:41.512Z</time>
      </trkpt>
      <trkpt lat="64.67567" lon="11.43461">
        <ele>87.804505</ele>
        <time>2020-08-11T10:38:42.514Z</time>
      </trkpt>
      <trkpt lat="64.67576" lon="11.43471">
        <ele>87.522844</ele>
        <time>2020-08-11T10:38:43.541Z</time>
      </trkpt>
      <trkpt lat="64.67585" lon="11.43483">
        <ele>87.25013</ele>
        <time>2020-08-11T10:38:44.522Z</time>
      </trkpt>
      <trkpt lat="64.67593" lon="11.43496">
        <ele>86.977019</ele>
        <time>2020-08-11T10:38:45.523Z</time>
      </trkpt>
      <trkpt lat="64.67601" lon="11.43508">
        <ele>86.715002</ele>
        <time>2020-08-11T10:38:46.554Z</time>
      </trkpt>
      <trkpt lat="64.67609" lon="11.4352">
        <ele>86.461471</ele>
        <time>2020-08-11T10:38:47.544Z</time>
      </trkpt>
      <trkpt lat="64.67616" lon="11.43532">
        <ele>86.213817</ele>
        <time>2020-08-11T10:38:48.546Z</time>
      </trkpt>
      <trkpt lat="64.67623" lon="11.43544">
        <ele>85.987615</ele>
        <time>2020-08-11T10:38:49.537Z</time>
      </trkpt>
      <trkpt lat="64.67637" lon="11.43569">
        <ele>85.916977</ele>
        <time>2020-08-11T10:38:51.549Z</time>
      </trkpt>
      <trkpt lat="64.67651" lon="11.43593">
        <ele>85.847276</ele>
        <time>2020-08-11T10:38:53.528Z</time>
      </trkpt>
      <trkpt lat="64.67665" lon="11.43616">
        <ele>85.779712</ele>
        <time>2020-08-11T10:38:55.522Z</time>
      </trkpt>
      <trkpt lat="64.67679" lon="11.43636">
        <ele>85.713712</ele>
        <time>2020-08-11T10:38:57.507Z</time>
      </trkpt>
      <trkpt lat="64.67692" lon="11.43655">
        <ele>85.650521</ele>
        <time>2020-08-11T10:38:59.538Z</time>
      </trkpt>
      <trkpt lat="64.67706" lon="11.43673">
        <ele>85.587761</ele>
        <time>2020-08-11T10:39:01.520Z</time>
      </trkpt>
      <trkpt lat="64.6772" lon="11.43688">
        <ele>85.527009</ele>
        <time>2020-08-11T10:39:03.522Z</time>
      </trkpt>
      <trkpt lat="64.67734" lon="11.43701">
        <ele>85.466765</ele>
        <time>2020-08-11T10:39:05.537Z</time>
      </trkpt>
      <trkpt lat="64.67748" lon="11.4371">
        <ele>85.408751</ele>
        <time>2020-08-11T10:39:07.511Z</time>
      </trkpt>
      <trkpt lat="64.67762" lon="11.43717">
        <ele>85.35061</ele>
        <time>2020-08-11T10:39:09.510Z</time>
      </trkpt>
      <trkpt lat="64.67776" lon="11.43721">
        <ele>85.293151</ele>
        <time>2020-08-11T10:39:11.512Z</time>
      </trkpt>
      <trkpt lat="64.6779" lon="11.43722">
        <ele>85.279783</ele>
        <time>2020-08-11T10:39:13.522Z</time>
      </trkpt>
      <trkpt lat="64.67805" lon="11.43722">
        <ele>85.297922</ele>
        <time>2020-08-11T10:39:15.516Z</time>
      </trkpt>
      <trkpt lat="64.67819" lon="11.4372">
        <ele>85.315976</ele>
        <time>2020-08-11T10:39:17.527Z</time>
      </trkpt>
      <trkpt lat="64.67832" lon="11.43716">
        <ele>85.333345</ele>
        <time>2020-08-11T10:39:19.511Z</time>
      </trkpt>
      <trkpt lat="64.67845" lon="11.4371">
        <ele>85.350453</ele>
        <time>2020-08-11T10:39:21.525Z</time>
      </trkpt>
      <trkpt lat="64.67858" lon="11.43704">
        <ele>85.367036</ele>
        <time>2020-08-11T10:39:23.511Z</time>
      </trkpt>
      <trkpt lat="64.67871" lon="11.43697">
        <ele>85.383604</ele>
        <time>2020-08-11T10:39:25.496Z</time>
      </trkpt>
      <trkpt lat="64.67883" lon="11.43688">
        <ele>85.39962</ele>
        <time>2020-08-11T10:39:27.523Z</time>
      </trkpt>
      <trkpt lat="64.67894" lon="11.43678">
        <ele>85.415311</ele>
        <time>2020-08-11T10:39:29.538Z</time>
      </trkpt>
      <trkpt lat="64.67905" lon="11.43667">
        <ele>85.43068</ele>
        <time>2020-08-11T10:39:31.514Z</time>
      </trkpt>
      <trkpt lat="64.67915" lon="11.43655">
        <ele>85.444949</ele>
        <time>2020-08-11T10:39:33.514Z</time>
      </trkpt>
      <trkpt lat="64.67925" lon="11.43642">
        <ele>85.459175</ele>
        <time>2020-08-11T10:39:35.513Z</time>
      </trkpt>
      <trkpt lat="64.67934" lon="11.43628">
        <ele>85.472589</ele>
        <time>2020-08-11T10:39:37.526Z</time>
      </trkpt>
      <trkpt lat="64.67941" lon="11.43615">
        <ele>85.484929</ele>
        <time>2020-08-11T10:39:39.528Z</time>
      </trkpt>
      <trkpt lat="64.6795" lon="11.43601">
        <ele>85.497795</ele>
        <time>2020-08-11T10:39:41.504Z</time>
      </trkpt>
      <trkpt lat="64.67958" lon="11.43587">
        <ele>85.535251</ele>
        <time>2020-08-11T10:39:43.507Z</time>
      </trkpt>
      <trkpt lat="64.67966" lon="11.43572">
        <ele>85.576413</ele>
        <time>2020-08-11T10:39:45.526Z</time>
      </trkpt>
      <trkpt lat="64.67974" lon="11.43555">
        <ele>85.618311</ele>
        <time>2020-08-11T10:39:47.555Z</time>
      </trkpt>
      <trkpt lat="64.67983" lon="11.43538">
        <ele>85.662816</ele>
        <time>2020-08-11T10:39:49.503Z</time>
      </trkpt>
      <trkpt lat="64.67992" lon="11.43521">
        <ele>85.706701</ele>
        <time>2020-08-11T10:39:51.552Z</time>
      </trkpt>
      <trkpt lat="64.68" lon="11.43503">
        <ele>85.75015</ele>
        <time>2020-08-11T10:39:53.501Z</time>
      </trkpt>
      <trkpt lat="64.68009" lon="11.43486">
        <ele>85.793599</ele>
        <time>2020-08-11T10:39:55.504Z</time>
      </trkpt>
      <trkpt lat="64.68018" lon="11.43468">
        <ele>85.837663</ele>
        <time>2020-08-11T10:39:57.519Z</time>
      </trkpt>
      <trkpt lat="64.68026" lon="11.43451">
        <ele>85.882526</ele>
        <time>2020-08-11T10:39:59.511Z</time>
      </trkpt>
      <trkpt lat="64.68035" lon="11.43433">
        <ele>85.927538</ele>
        <time>2020-08-11T10:40:01.508Z</time>
      </trkpt>
      <trkpt lat="64.68045" lon="11.43417">
        <ele>85.973067</ele>
        <time>2020-08-11T10:40:03.517Z</time>
      </trkpt>
      <trkpt lat="64.68055" lon="11.43401">
        <ele>86.018741</ele>
        <time>2020-08-11T10:40:05.536Z</time>
      </trkpt>
      <trkpt lat="64.68064" lon="11.43386">
        <ele>86.064358</ele>
        <time>2020-08-11T10:40:07.505Z</time>
      </trkpt>
      <trkpt lat="64.68075" lon="11.43371">
        <ele>86.110297</ele>
        <time>2020-08-11T10:40:09.528Z</time>
      </trkpt>
      <trkpt lat="64.68086" lon="11.43358">
        <ele>86.157701</ele>
        <time>2020-08-11T10:40:11.522Z</time>
      </trkpt>
      <trkpt lat="64.68097" lon="11.43345">
        <ele>86.08697</ele>
        <time>2020-08-11T10:40:13.508Z</time>
      </trkpt>
      <trkpt lat="64.68107" lon="11.43333">
        <ele>85.699725</ele>
        <time>2020-08-11T10:40:15.531Z</time>
      </trkpt>
      <trkpt lat="64.68119" lon="11.43322">
        <ele>85.297965</ele>
        <time>2020-08-11T10:40:17.516Z</time>
      </trkpt>
      <trkpt lat="64.68132" lon="11.43313">
        <ele>84.88259</ele>
        <time>2020-08-11T10:40:19.514Z</time>
      </trkpt>
      <trkpt lat="64.68144" lon="11.43306">
        <ele>84.476785</ele>
        <time>2020-08-11T10:40:21.512Z</time>
      </trkpt>
      <trkpt lat="64.68156" lon="11.433">
        <ele>84.074455</ele>
        <time>2020-08-11T10:40:23.507Z</time>
      </trkpt>
      <trkpt lat="64.68169" lon="11.43294">
        <ele>83.649174</ele>
        <time>2020-08-11T10:40:25.505Z</time>
      </trkpt>
      <trkpt lat="64.68184" lon="11.4329">
        <ele>83.19209</ele>
        <time>2020-08-11T10:40:27.494Z</time>
      </trkpt>
      <trkpt lat="64.68198" lon="11.43287">
        <ele>82.721294</ele>
        <time>2020-08-11T10:40:29.517Z</time>
      </trkpt>
      <trkpt lat="64.68214" lon="11.43286">
        <ele>82.233141</ele>
        <time>2020-08-11T10:40:31.520Z</time>
      </trkpt>
      <trkpt lat="64.68228" lon="11.43288">
        <ele>81.760105</ele>
        <time>2020-08-11T10:40:33.525Z</time>
      </trkpt>
      <trkpt lat="64.68242" lon="11.43293">
        <ele>81.315276</ele>
        <time>2020-08-11T10:40:35.512Z</time>
      </trkpt>
      <trkpt lat="64.68255" lon="11.43298">
        <ele>80.892107</ele>
        <time>2020-08-11T10:40:37.508Z</time>
      </trkpt>
      <trkpt lat="64.68269" lon="11.43303">
        <ele>80.461755</ele>
        <time>2020-08-11T10:40:39.531Z</time>
      </trkpt>
      <trkpt lat="64.68282" lon="11.43309">
        <ele>79.656111</ele>
        <time>2020-08-11T10:40:41.526Z</time>
      </trkpt>
      <trkpt lat="64.68296" lon="11.43315">
        <ele>78.811827</ele>
        <time>2020-08-11T10:40:43.544Z</time>
      </trkpt>
      <trkpt lat="64.68311" lon="11.43324">
        <ele>77.943904</ele>
        <time>2020-08-11T10:40:45.498Z</time>
      </trkpt>
      <trkpt lat="64.68325" lon="11.43332">
        <ele>77.056156</ele>
        <time>2020-08-11T10:40:47.520Z</time>
      </trkpt>
      <trkpt lat="64.68341" lon="11.43339">
        <ele>76.130987</ele>
        <time>2020-08-11T10:40:49.510Z</time>
      </trkpt>
      <trkpt lat="64.68355" lon="11.43346">
        <ele>75.252512</ele>
        <time>2020-08-11T10:40:51.503Z</time>
      </trkpt>
      <trkpt lat="64.68369" lon="11.4335">
        <ele>74.456763</ele>
        <time>2020-08-11T10:40:53.522Z</time>
      </trkpt>
      <trkpt lat="64.68382" lon="11.43351">
        <ele>73.697669</ele>
        <time>2020-08-11T10:40:55.526Z</time>
      </trkpt>
      <trkpt lat="64.68392" lon="11.43351">
        <ele>73.080139</ele>
        <time>2020-08-11T10:40:57.524Z</time>
      </trkpt>
      <trkpt lat="64.68405" lon="11.43346">
        <ele>72.32619</ele>
        <time>2020-08-11T10:41:00.524Z</time>
      </trkpt>
      <trkpt lat="64.68414" lon="11.43341">
        <ele>71.769831</ele>
        <time>2020-08-11T10:41:02.505Z</time>
      </trkpt>
      <trkpt lat="64.68426" lon="11.43335">
        <ele>71.070943</ele>
        <time>2020-08-11T10:41:04.532Z</time>
      </trkpt>
      <trkpt lat="64.68439" lon="11.43328">
        <ele>70.245556</ele>
        <time>2020-08-11T10:41:06.509Z</time>
      </trkpt>
      <trkpt lat="64.68456" lon="11.43319">
        <ele>68.962917</ele>
        <time>2020-08-11T10:41:08.541Z</time>
      </trkpt>
      <trkpt lat="64.68465" lon="11.43314">
        <ele>68.138619</ele>
        <time>2020-08-11T10:41:09.511Z</time>
      </trkpt>
      <trkpt lat="64.68473" lon="11.43308">
        <ele>67.326508</ele>
        <time>2020-08-11T10:41:10.502Z</time>
      </trkpt>
      <trkpt lat="64.68482" lon="11.43301">
        <ele>66.502625</ele>
        <time>2020-08-11T10:41:11.510Z</time>
      </trkpt>
      <trkpt lat="64.68491" lon="11.43294">
        <ele>65.672914</ele>
        <time>2020-08-11T10:41:12.519Z</time>
      </trkpt>
      <trkpt lat="64.68501" lon="11.43287">
        <ele>64.80609</ele>
        <time>2020-08-11T10:41:13.509Z</time>
      </trkpt>
      <trkpt lat="64.6851" lon="11.43279">
        <ele>63.94518</ele>
        <time>2020-08-11T10:41:14.513Z</time>
      </trkpt>
      <trkpt lat="64.68519" lon="11.43271">
        <ele>63.093062</ele>
        <time>2020-08-11T10:41:15.531Z</time>
      </trkpt>
      <trkpt lat="64.68528" lon="11.43262">
        <ele>62.222933</ele>
        <time>2020-08-11T10:41:16.531Z</time>
      </trkpt>
      <trkpt lat="64.68537" lon="11.43254">
        <ele>61.346055</ele>
        <time>2020-08-11T10:41:17.559Z</time>
      </trkpt>
      <trkpt lat="64.68546" lon="11.43245">
        <ele>60.454152</ele>
        <time>2020-08-11T10:41:18.534Z</time>
      </trkpt>
      <trkpt lat="64.68556" lon="11.43236">
        <ele>59.544411</ele>
        <time>2020-08-11T10:41:19.503Z</time>
      </trkpt>
      <trkpt lat="64.68566" lon="11.43229">
        <ele>58.623699</ele>
        <time>2020-08-11T10:41:20.517Z</time>
      </trkpt>
      <trkpt lat="64.68576" lon="11.43222">
        <ele>57.708704</ele>
        <time>2020-08-11T10:41:21.513Z</time>
      </trkpt>
      <trkpt lat="64.68586" lon="11.43214">
        <ele>56.757696</ele>
        <time>2020-08-11T10:41:22.520Z</time>
      </trkpt>
      <trkpt lat="64.68597" lon="11.43208">
        <ele>55.783631</ele>
        <time>2020-08-11T10:41:23.529Z</time>
      </trkpt>
      <trkpt lat="64.68608" lon="11.43203">
        <ele>54.768799</ele>
        <time>2020-08-11T10:41:24.521Z</time>
      </trkpt>
      <trkpt lat="64.68619" lon="11.43201">
        <ele>53.922122</ele>
        <time>2020-08-11T10:41:25.507Z</time>
      </trkpt>
      <trkpt lat="64.6863" lon="11.432">
        <ele>53.601942</ele>
        <time>2020-08-11T10:41:26.503Z</time>
      </trkpt>
      <trkpt lat="64.68641" lon="11.43201">
        <ele>53.295884</ele>
        <time>2020-08-11T10:41:27.525Z</time>
      </trkpt>
      <trkpt lat="64.68651" lon="11.43204">
        <ele>52.99869</ele>
        <time>2020-08-11T10:41:28.514Z</time>
      </trkpt>
      <trkpt lat="64.68661" lon="11.4321">
        <ele>52.7151</ele>
        <time>2020-08-11T10:41:29.505Z</time>
      </trkpt>
      <trkpt lat="64.6867" lon="11.43218">
        <ele>52.436336</ele>
        <time>2020-08-11T10:41:30.498Z</time>
      </trkpt>
      <trkpt lat="64.68679" lon="11.43226">
        <ele>52.170062</ele>
        <time>2020-08-11T10:41:31.527Z</time>
      </trkpt>
      <trkpt lat="64.68687" lon="11.43235">
        <ele>51.907117</ele>
        <time>2020-08-11T10:41:32.519Z</time>
      </trkpt>
      <trkpt lat="64.68695" lon="11.43246">
        <ele>51.648707</ele>
        <time>2020-08-11T10:41:33.536Z</time>
      </trkpt>
      <trkpt lat="64.68709" lon="11.43269">
        <ele>51.156861</ele>
        <time>2020-08-11T10:41:35.514Z</time>
      </trkpt>
      <trkpt lat="64.68721" lon="11.43295">
        <ele>50.685633</ele>
        <time>2020-08-11T10:41:37.515Z</time>
      </trkpt>
      <trkpt lat="64.68732" lon="11.43321">
        <ele>50.241063</ele>
        <time>2020-08-11T10:41:39.504Z</time>
      </trkpt>
      <trkpt lat="64.68742" lon="11.43348">
        <ele>49.808393</ele>
        <time>2020-08-11T10:41:41.506Z</time>
      </trkpt>
      <trkpt lat="64.6875" lon="11.43375">
        <ele>49.403834</ele>
        <time>2020-08-11T10:41:43.510Z</time>
      </trkpt>
      <trkpt lat="64.68758" lon="11.43399">
        <ele>49.043369</ele>
        <time>2020-08-11T10:41:45.530Z</time>
      </trkpt>
      <trkpt lat="64.68764" lon="11.4342">
        <ele>48.912375</ele>
        <time>2020-08-11T10:41:47.512Z</time>
      </trkpt>
      <trkpt lat="64.68771" lon="11.4344">
        <ele>49.056597</ele>
        <time>2020-08-11T10:41:49.508Z</time>
      </trkpt>
      <trkpt lat="64.68777" lon="11.43459">
        <ele>49.19659</ele>
        <time>2020-08-11T10:41:51.513Z</time>
      </trkpt>
      <trkpt lat="64.68783" lon="11.43477">
        <ele>49.331367</ele>
        <time>2020-08-11T10:41:53.516Z</time>
      </trkpt>
      <trkpt lat="64.68789" lon="11.43494">
        <ele>49.457703</ele>
        <time>2020-08-11T10:41:55.510Z</time>
      </trkpt>
      <trkpt lat="64.68797" lon="11.43517">
        <ele>49.62814</ele>
        <time>2020-08-11T10:41:58.514Z</time>
      </trkpt>
      <trkpt lat="64.68804" lon="11.43539">
        <ele>49.786041</ele>
        <time>2020-08-11T10:42:01.505Z</time>
      </trkpt>
      <trkpt lat="64.68811" lon="11.4356">
        <ele>49.941426</ele>
        <time>2020-08-11T10:42:04.518Z</time>
      </trkpt>
      <trkpt lat="64.68819" lon="11.43578">
        <ele>50.088941</ele>
        <time>2020-08-11T10:42:07.504Z</time>
      </trkpt>
      <trkpt lat="64.68826" lon="11.43596">
        <ele>50.232039</ele>
        <time>2020-08-11T10:42:10.503Z</time>
      </trkpt>
      <trkpt lat="64.68833" lon="11.43613">
        <ele>50.367229</ele>
        <time>2020-08-11T10:42:13.500Z</time>
      </trkpt>
      <trkpt lat="64.6884" lon="11.43629">
        <ele>50.499188</ele>
        <time>2020-08-11T10:42:16.512Z</time>
      </trkpt>
      <trkpt lat="64.68847" lon="11.43643">
        <ele>50.630704</ele>
        <time>2020-08-11T10:42:19.506Z</time>
      </trkpt>
      <trkpt lat="64.68856" lon="11.43658">
        <ele>50.771865</ele>
        <time>2020-08-11T10:42:22.523Z</time>
      </trkpt>
      <trkpt lat="64.68864" lon="11.4367">
        <ele>50.909948</ele>
        <time>2020-08-11T10:42:25.501Z</time>
      </trkpt>
      <trkpt lat="64.68872" lon="11.43682">
        <ele>51.034017</ele>
        <time>2020-08-11T10:42:28.507Z</time>
      </trkpt>
      <trkpt lat="64.6888" lon="11.43692">
        <ele>51.156818</ele>
        <time>2020-08-11T10:42:31.522Z</time>
      </trkpt>
      <trkpt lat="64.68888" lon="11.43704">
        <ele>51.280263</ele>
        <time>2020-08-11T10:42:34.515Z</time>
      </trkpt>
      <trkpt lat="64.68896" lon="11.43715">
        <ele>51.49713</ele>
        <time>2020-08-11T10:42:37.514Z</time>
      </trkpt>
      <trkpt lat="64.68904" lon="11.43726">
        <ele>51.731945</ele>
        <time>2020-08-11T10:42:40.510Z</time>
      </trkpt>
      <trkpt lat="64.68913" lon="11.43739">
        <ele>51.968521</ele>
        <time>2020-08-11T10:42:43.508Z</time>
      </trkpt>
      <trkpt lat="64.68921" lon="11.4375">
        <ele>52.196606</ele>
        <time>2020-08-11T10:42:46.593Z</time>
      </trkpt>
      <trkpt lat="64.68929" lon="11.43761">
        <ele>52.427315</ele>
        <time>2020-08-11T10:42:49.535Z</time>
      </trkpt>
      <trkpt lat="64.68938" lon="11.43772">
        <ele>52.656538</ele>
        <time>2020-08-11T10:42:52.523Z</time>
      </trkpt>
      <trkpt lat="64.68945" lon="11.43782">
        <ele>52.875313</ele>
        <time>2020-08-11T10:42:55.510Z</time>
      </trkpt>
      <trkpt lat="64.68954" lon="11.43794">
        <ele>53.102391</ele>
        <time>2020-08-11T10:42:58.506Z</time>
      </trkpt>
      <trkpt lat="64.68962" lon="11.43806">
        <ele>53.333272</ele>
        <time>2020-08-11T10:43:01.503Z</time>
      </trkpt>
      <trkpt lat="64.6897" lon="11.43818">
        <ele>53.567278</ele>
        <time>2020-08-11T10:43:04.556Z</time>
      </trkpt>
      <trkpt lat="64.68978" lon="11.43829">
        <ele>53.792256</ele>
        <time>2020-08-11T10:43:07.518Z</time>
      </trkpt>
      <trkpt lat="64.68986" lon="11.4384">
        <ele>54.024073</ele>
        <time>2020-08-11T10:43:10.503Z</time>
      </trkpt>
      <trkpt lat="64.68995" lon="11.43851">
        <ele>54.247008</ele>
        <time>2020-08-11T10:43:13.530Z</time>
      </trkpt>
      <trkpt lat="64.69003" lon="11.43861">
        <ele>54.463907</ele>
        <time>2020-08-11T10:43:16.549Z</time>
      </trkpt>
      <trkpt lat="64.69012" lon="11.43872">
        <ele>54.708701</ele>
        <time>2020-08-11T10:43:19.548Z</time>
      </trkpt>
      <trkpt lat="64.69021" lon="11.43883">
        <ele>54.956629</ele>
        <time>2020-08-11T10:43:22.514Z</time>
      </trkpt>
      <trkpt lat="64.69029" lon="11.43893">
        <ele>55.187474</ele>
        <time>2020-08-11T10:43:25.501Z</time>
      </trkpt>
      <trkpt lat="64.69038" lon="11.43904">
        <ele>55.42682</ele>
        <time>2020-08-11T10:43:28.507Z</time>
      </trkpt>
      <trkpt lat="64.69047" lon="11.43914">
        <ele>55.669177</ele>
        <time>2020-08-11T10:43:31.502Z</time>
      </trkpt>
      <trkpt lat="64.69056" lon="11.43923">
        <ele>55.940061</ele>
        <time>2020-08-11T10:43:34.505Z</time>
      </trkpt>
      <trkpt lat="64.69064" lon="11.43932">
        <ele>56.207985</ele>
        <time>2020-08-11T10:43:37.501Z</time>
      </trkpt>
      <trkpt lat="64.69073" lon="11.43942">
        <ele>56.468821</ele>
        <time>2020-08-11T10:43:40.521Z</time>
      </trkpt>
      <trkpt lat="64.69081" lon="11.43953">
        <ele>56.755061</ele>
        <time>2020-08-11T10:43:43.507Z</time>
      </trkpt>
      <trkpt lat="64.6909" lon="11.43965">
        <ele>57.043637</ele>
        <time>2020-08-11T10:43:46.507Z</time>
      </trkpt>
      <trkpt lat="64.69098" lon="11.43979">
        <ele>57.308287</ele>
        <time>2020-08-11T10:43:49.559Z</time>
      </trkpt>
      <trkpt lat="64.69105" lon="11.43993">
        <ele>57.573382</ele>
        <time>2020-08-11T10:43:52.519Z</time>
      </trkpt>
      <trkpt lat="64.69112" lon="11.4401">
        <ele>57.853736</ele>
        <time>2020-08-11T10:43:55.503Z</time>
      </trkpt>
      <trkpt lat="64.69118" lon="11.44026">
        <ele>58.131366</ele>
        <time>2020-08-11T10:43:58.537Z</time>
      </trkpt>
      <trkpt lat="64.69126" lon="11.44043">
        <ele>58.421679</ele>
        <time>2020-08-11T10:44:01.510Z</time>
      </trkpt>
      <trkpt lat="64.69133" lon="11.4406">
        <ele>58.71975</ele>
        <time>2020-08-11T10:44:04.543Z</time>
      </trkpt>
      <trkpt lat="64.69139" lon="11.4408">
        <ele>59.01244</ele>
        <time>2020-08-11T10:44:07.506Z</time>
      </trkpt>
      <trkpt lat="64.69144" lon="11.441">
        <ele>59.297302</ele>
        <time>2020-08-11T10:44:10.501Z</time>
      </trkpt>
      <trkpt lat="64.69149" lon="11.44121">
        <ele>59.568898</ele>
        <time>2020-08-11T10:44:13.530Z</time>
      </trkpt>
      <trkpt lat="64.69153" lon="11.44141">
        <ele>59.8456</ele>
        <time>2020-08-11T10:44:16.501Z</time>
      </trkpt>
      <trkpt lat="64.69157" lon="11.44162">
        <ele>60.117841</ele>
        <time>2020-08-11T10:44:19.561Z</time>
      </trkpt>
      <trkpt lat="64.69161" lon="11.44183">
        <ele>60.402772</ele>
        <time>2020-08-11T10:44:22.534Z</time>
      </trkpt>
      <trkpt lat="64.69165" lon="11.44203">
        <ele>60.666135</ele>
        <time>2020-08-11T10:44:25.512Z</time>
      </trkpt>
      <trkpt lat="64.69169" lon="11.44223">
        <ele>60.845257</ele>
        <time>2020-08-11T10:44:28.503Z</time>
      </trkpt>
      <trkpt lat="64.69172" lon="11.44243">
        <ele>61.022963</ele>
        <time>2020-08-11T10:44:31.517Z</time>
      </trkpt>
      <trkpt lat="64.69176" lon="11.44263">
        <ele>61.199988</ele>
        <time>2020-08-11T10:44:34.522Z</time>
      </trkpt>
      <trkpt lat="64.69181" lon="11.44283">
        <ele>61.38051</ele>
        <time>2020-08-11T10:44:37.509Z</time>
      </trkpt>
      <trkpt lat="64.69186" lon="11.44302">
        <ele>61.565174</ele>
        <time>2020-08-11T10:44:40.522Z</time>
      </trkpt>
      <trkpt lat="64.69191" lon="11.44322">
        <ele>61.754997</ele>
        <time>2020-08-11T10:44:43.521Z</time>
      </trkpt>
      <trkpt lat="64.69196" lon="11.44341">
        <ele>61.92868</ele>
        <time>2020-08-11T10:44:46.543Z</time>
      </trkpt>
      <trkpt lat="64.692" lon="11.44359">
        <ele>62.099579</ele>
        <time>2020-08-11T10:44:49.526Z</time>
      </trkpt>
      <trkpt lat="64.69205" lon="11.44379">
        <ele>62.276555</ele>
        <time>2020-08-11T10:44:52.498Z</time>
      </trkpt>
      <trkpt lat="64.69211" lon="11.44398">
        <ele>62.464999</ele>
        <time>2020-08-11T10:44:55.515Z</time>
      </trkpt>
      <trkpt lat="64.69217" lon="11.44415">
        <ele>62.649784</ele>
        <time>2020-08-11T10:44:58.507Z</time>
      </trkpt>
      <trkpt lat="64.69223" lon="11.44433">
        <ele>62.835793</ele>
        <time>2020-08-11T10:45:01.534Z</time>
      </trkpt>
      <trkpt lat="64.6923" lon="11.4445">
        <ele>63.018742</ele>
        <time>2020-08-11T10:45:04.528Z</time>
      </trkpt>
      <trkpt lat="64.69237" lon="11.44468">
        <ele>63.212263</ele>
        <time>2020-08-11T10:45:07.501Z</time>
      </trkpt>
      <trkpt lat="64.69244" lon="11.44485">
        <ele>63.407577</ele>
        <time>2020-08-11T10:45:10.512Z</time>
      </trkpt>
      <trkpt lat="64.69251" lon="11.44502">
        <ele>63.597955</ele>
        <time>2020-08-11T10:45:13.530Z</time>
      </trkpt>
      <trkpt lat="64.69257" lon="11.44518">
        <ele>63.776944</ele>
        <time>2020-08-11T10:45:16.540Z</time>
      </trkpt>
      <trkpt lat="64.69264" lon="11.44534">
        <ele>63.954777</ele>
        <time>2020-08-11T10:45:19.522Z</time>
      </trkpt>
      <trkpt lat="64.69271" lon="11.44551">
        <ele>64.163262</ele>
        <time>2020-08-11T10:45:22.542Z</time>
      </trkpt>
      <trkpt lat="64.69277" lon="11.44567">
        <ele>64.419234</ele>
        <time>2020-08-11T10:45:25.522Z</time>
      </trkpt>
      <trkpt lat="64.69284" lon="11.44582">
        <ele>64.668954</ele>
        <time>2020-08-11T10:45:28.545Z</time>
      </trkpt>
      <trkpt lat="64.6929" lon="11.44598">
        <ele>64.921437</ele>
        <time>2020-08-11T10:45:31.515Z</time>
      </trkpt>
      <trkpt lat="64.69296" lon="11.44615">
        <ele>65.166716</ele>
        <time>2020-08-11T10:45:34.520Z</time>
      </trkpt>
      <trkpt lat="64.69303" lon="11.44631">
        <ele>65.416324</ele>
        <time>2020-08-11T10:45:37.489Z</time>
      </trkpt>
      <trkpt lat="64.69309" lon="11.44648">
        <ele>65.673698</ele>
        <time>2020-08-11T10:45:40.525Z</time>
      </trkpt>
      <trkpt lat="64.69316" lon="11.44666">
        <ele>65.952262</ele>
        <time>2020-08-11T10:45:43.504Z</time>
      </trkpt>
      <trkpt lat="64.69324" lon="11.44684">
        <ele>66.243395</ele>
        <time>2020-08-11T10:45:46.503Z</time>
      </trkpt>
      <trkpt lat="64.69331" lon="11.44702">
        <ele>66.529156</ele>
        <time>2020-08-11T10:45:49.544Z</time>
      </trkpt>
      <trkpt lat="64.69339" lon="11.44721">
        <ele>66.830975</ele>
        <time>2020-08-11T10:45:52.511Z</time>
      </trkpt>
      <trkpt lat="64.69348" lon="11.4474">
        <ele>67.150363</ele>
        <time>2020-08-11T10:45:55.525Z</time>
      </trkpt>
      <trkpt lat="64.69355" lon="11.4476">
        <ele>67.45375</ele>
        <time>2020-08-11T10:45:58.498Z</time>
      </trkpt>
      <trkpt lat="64.69363" lon="11.44781">
        <ele>67.767451</ele>
        <time>2020-08-11T10:46:01.506Z</time>
      </trkpt>
      <trkpt lat="64.69371" lon="11.44801">
        <ele>68.083072</ele>
        <time>2020-08-11T10:46:04.515Z</time>
      </trkpt>
      <trkpt lat="64.6938" lon="11.44822">
        <ele>68.412987</ele>
        <time>2020-08-11T10:46:07.548Z</time>
      </trkpt>
      <trkpt lat="64.69389" lon="11.44843">
        <ele>68.747442</ele>
        <time>2020-08-11T10:46:10.502Z</time>
      </trkpt>
      <trkpt lat="64.69397" lon="11.44865">
        <ele>69.015273</ele>
        <time>2020-08-11T10:46:13.517Z</time>
      </trkpt>
      <trkpt lat="64.69406" lon="11.44887">
        <ele>69.239668</ele>
        <time>2020-08-11T10:46:16.505Z</time>
      </trkpt>
      <trkpt lat="64.69415" lon="11.44908">
        <ele>69.461759</ele>
        <time>2020-08-11T10:46:19.536Z</time>
      </trkpt>
      <trkpt lat="64.69424" lon="11.44931">
        <ele>69.696339</ele>
        <time>2020-08-11T10:46:22.514Z</time>
      </trkpt>
      <trkpt lat="64.69433" lon="11.44954">
        <ele>69.927422</ele>
        <time>2020-08-11T10:46:25.519Z</time>
      </trkpt>
      <trkpt lat="64.69442" lon="11.44974">
        <ele>70.147362</ele>
        <time>2020-08-11T10:46:28.513Z</time>
      </trkpt>
      <trkpt lat="64.69451" lon="11.44995">
        <ele>70.375278</ele>
        <time>2020-08-11T10:46:31.511Z</time>
      </trkpt>
      <trkpt lat="64.69461" lon="11.45016">
        <ele>70.603946</ele>
        <time>2020-08-11T10:46:34.508Z</time>
      </trkpt>
      <trkpt lat="64.6947" lon="11.45036">
        <ele>70.830808</ele>
        <time>2020-08-11T10:46:37.503Z</time>
      </trkpt>
      <trkpt lat="64.69477" lon="11.4505">
        <ele>70.98967</ele>
        <time>2020-08-11T10:46:39.522Z</time>
      </trkpt>
      <trkpt lat="64.69484" lon="11.45065">
        <ele>71.15779</ele>
        <time>2020-08-11T10:46:41.503Z</time>
      </trkpt>
      <trkpt lat="64.69491" lon="11.45079">
        <ele>71.326903</ele>
        <time>2020-08-11T10:46:43.512Z</time>
      </trkpt>
      <trkpt lat="64.69498" lon="11.45094">
        <ele>71.489072</ele>
        <time>2020-08-11T10:46:45.520Z</time>
      </trkpt>
      <trkpt lat="64.69508" lon="11.45115">
        <ele>71.72389</ele>
        <time>2020-08-11T10:46:48.511Z</time>
      </trkpt>
      <trkpt lat="64.69517" lon="11.45136">
        <ele>71.941504</ele>
        <time>2020-08-11T10:46:51.510Z</time>
      </trkpt>
      <trkpt lat="64.69525" lon="11.45155">
        <ele>71.68237</ele>
        <time>2020-08-11T10:46:54.542Z</time>
      </trkpt>
      <trkpt lat="64.69534" lon="11.45174">
        <ele>71.095999</ele>
        <time>2020-08-11T10:46:57.527Z</time>
      </trkpt>
      <trkpt lat="64.69542" lon="11.45193">
        <ele>70.541939</ele>
        <time>2020-08-11T10:47:00.499Z</time>
      </trkpt>
      <trkpt lat="64.69551" lon="11.45209">
        <ele>69.997132</ele>
        <time>2020-08-11T10:47:03.516Z</time>
      </trkpt>
      <trkpt lat="64.6956" lon="11.45222">
        <ele>69.45984</ele>
        <time>2020-08-11T10:47:06.495Z</time>
      </trkpt>
      <trkpt lat="64.69571" lon="11.45234">
        <ele>68.850636</ele>
        <time>2020-08-11T10:47:09.523Z</time>
      </trkpt>
      <trkpt lat="64.69584" lon="11.45244">
        <ele>68.201043</ele>
        <time>2020-08-11T10:47:12.509Z</time>
      </trkpt>
      <trkpt lat="64.69593" lon="11.45251">
        <ele>67.747602</ele>
        <time>2020-08-11T10:47:14.516Z</time>
      </trkpt>
      <trkpt lat="64.69602" lon="11.45256">
        <ele>67.264124</ele>
        <time>2020-08-11T10:47:16.500Z</time>
      </trkpt>
      <trkpt lat="64.69612" lon="11.4526">
        <ele>66.781091</ele>
        <time>2020-08-11T10:47:18.512Z</time>
      </trkpt>
      <trkpt lat="64.69622" lon="11.45263">
        <ele>66.270368</ele>
        <time>2020-08-11T10:47:20.501Z</time>
      </trkpt>
      <trkpt lat="64.69633" lon="11.45264">
        <ele>65.743724</ele>
        <time>2020-08-11T10:47:22.510Z</time>
      </trkpt>
      <trkpt lat="64.69644" lon="11.45262">
        <ele>65.200838</ele>
        <time>2020-08-11T10:47:24.513Z</time>
      </trkpt>
      <trkpt lat="64.69655" lon="11.45257">
        <ele>64.633761</ele>
        <time>2020-08-11T10:47:26.523Z</time>
      </trkpt>
      <trkpt lat="64.69667" lon="11.45248">
        <ele>64.013909</ele>
        <time>2020-08-11T10:47:28.541Z</time>
      </trkpt>
      <trkpt lat="64.6968" lon="11.45234">
        <ele>63.337149</ele>
        <time>2020-08-11T10:47:30.545Z</time>
      </trkpt>
      <trkpt lat="64.69692" lon="11.45215">
        <ele>62.852508</ele>
        <time>2020-08-11T10:47:32.507Z</time>
      </trkpt>
      <trkpt lat="64.69705" lon="11.45195">
        <ele>62.426442</ele>
        <time>2020-08-11T10:47:34.507Z</time>
      </trkpt>
      <trkpt lat="64.69717" lon="11.45176">
        <ele>62.006326</ele>
        <time>2020-08-11T10:47:36.502Z</time>
      </trkpt>
      <trkpt lat="64.69729" lon="11.45153">
        <ele>61.582199</ele>
        <time>2020-08-11T10:47:38.546Z</time>
      </trkpt>
      <trkpt lat="64.69739" lon="11.4513">
        <ele>61.183773</ele>
        <time>2020-08-11T10:47:40.542Z</time>
      </trkpt>
      <trkpt lat="64.69749" lon="11.45111">
        <ele>60.830136</ele>
        <time>2020-08-11T10:47:42.529Z</time>
      </trkpt>
      <trkpt lat="64.69758" lon="11.45093">
        <ele>60.502502</ele>
        <time>2020-08-11T10:47:44.529Z</time>
      </trkpt>
      <trkpt lat="64.69766" lon="11.45075">
        <ele>60.189356</ele>
        <time>2020-08-11T10:47:46.511Z</time>
      </trkpt>
      <trkpt lat="64.69774" lon="11.45058">
        <ele>59.873487</ele>
        <time>2020-08-11T10:47:48.514Z</time>
      </trkpt>
      <trkpt lat="64.69782" lon="11.45041">
        <ele>59.570845</ele>
        <time>2020-08-11T10:47:50.523Z</time>
      </trkpt>
      <trkpt lat="64.6979" lon="11.45025">
        <ele>59.276599</ele>
        <time>2020-08-11T10:47:52.518Z</time>
      </trkpt>
      <trkpt lat="64.69798" lon="11.4501">
        <ele>59.006307</ele>
        <time>2020-08-11T10:47:54.566Z</time>
      </trkpt>
      <trkpt lat="64.69805" lon="11.44997">
        <ele>58.751085</ele>
        <time>2020-08-11T10:47:56.537Z</time>
      </trkpt>
      <trkpt lat="64.69815" lon="11.44978">
        <ele>58.37965</ele>
        <time>2020-08-11T10:47:59.510Z</time>
      </trkpt>
      <trkpt lat="64.69826" lon="11.44962">
        <ele>58.129488</ele>
        <time>2020-08-11T10:48:02.539Z</time>
      </trkpt>
      <trkpt lat="64.69838" lon="11.44949">
        <ele>58.081465</ele>
        <time>2020-08-11T10:48:05.523Z</time>
      </trkpt>
      <trkpt lat="64.69849" lon="11.44937">
        <ele>58.034476</ele>
        <time>2020-08-11T10:48:08.523Z</time>
      </trkpt>
      <trkpt lat="64.69861" lon="11.44927">
        <ele>57.986471</ele>
        <time>2020-08-11T10:48:11.505Z</time>
      </trkpt>
      <trkpt lat="64.69875" lon="11.4492">
        <ele>57.933852</ele>
        <time>2020-08-11T10:48:14.520Z</time>
      </trkpt>
      <trkpt lat="64.69885" lon="11.44917">
        <ele>57.894606</ele>
        <time>2020-08-11T10:48:16.524Z</time>
      </trkpt>
      <trkpt lat="64.69896" lon="11.44915">
        <ele>57.853654</ele>
        <time>2020-08-11T10:48:18.517Z</time>
      </trkpt>
      <trkpt lat="64.69907" lon="11.44915">
        <ele>57.810547</ele>
        <time>2020-08-11T10:48:20.505Z</time>
      </trkpt>
      <trkpt lat="64.69918" lon="11.44916">
        <ele>57.767776</ele>
        <time>2020-08-11T10:48:22.547Z</time>
      </trkpt>
      <trkpt lat="64.6993" lon="11.44919">
        <ele>57.72409</ele>
        <time>2020-08-11T10:48:24.543Z</time>
      </trkpt>
      <trkpt lat="64.69941" lon="11.44921">
        <ele>57.681955</ele>
        <time>2020-08-11T10:48:26.511Z</time>
      </trkpt>
      <trkpt lat="64.69951" lon="11.44923">
        <ele>57.643689</ele>
        <time>2020-08-11T10:48:28.518Z</time>
      </trkpt>
      <trkpt lat="64.69961" lon="11.44922">
        <ele>57.605491</ele>
        <time>2020-08-11T10:48:30.526Z</time>
      </trkpt>
      <trkpt lat="64.69971" lon="11.44919">
        <ele>57.568099</ele>
        <time>2020-08-11T10:48:32.506Z</time>
      </trkpt>
      <trkpt lat="64.6998" lon="11.44914">
        <ele>57.534065</ele>
        <time>2020-08-11T10:48:34.527Z</time>
      </trkpt>
      <trkpt lat="64.69992" lon="11.44903">
        <ele>57.483737</ele>
        <time>2020-08-11T10:48:37.525Z</time>
      </trkpt>
      <trkpt lat="64.70003" lon="11.44889">
        <ele>57.562782</ele>
        <time>2020-08-11T10:48:40.540Z</time>
      </trkpt>
      <trkpt lat="64.70012" lon="11.44873">
        <ele>57.693781</ele>
        <time>2020-08-11T10:48:43.503Z</time>
      </trkpt>
      <trkpt lat="64.70021" lon="11.44855">
        <ele>57.83602</ele>
        <time>2020-08-11T10:48:46.517Z</time>
      </trkpt>
      <trkpt lat="64.70032" lon="11.44839">
        <ele>57.982247</ele>
        <time>2020-08-11T10:48:49.520Z</time>
      </trkpt>
      <trkpt lat="64.70042" lon="11.44822">
        <ele>58.135244</ele>
        <time>2020-08-11T10:48:52.520Z</time>
      </trkpt>
      <trkpt lat="64.70053" lon="11.44804">
        <ele>58.293696</ele>
        <time>2020-08-11T10:48:55.543Z</time>
      </trkpt>
      <trkpt lat="64.70064" lon="11.44787">
        <ele>58.443499</ele>
        <time>2020-08-11T10:48:58.543Z</time>
      </trkpt>
      <trkpt lat="64.70073" lon="11.4477">
        <ele>58.586133</ele>
        <time>2020-08-11T10:49:01.531Z</time>
      </trkpt>
      <trkpt lat="64.70082" lon="11.44755">
        <ele>58.719383</ele>
        <time>2020-08-11T10:49:04.559Z</time>
      </trkpt>
      <trkpt lat="64.70091" lon="11.44739">
        <ele>58.845528</ele>
        <time>2020-08-11T10:49:07.525Z</time>
      </trkpt>
      <trkpt lat="64.70098" lon="11.44723">
        <ele>58.960667</ele>
        <time>2020-08-11T10:49:10.532Z</time>
      </trkpt>
      <trkpt lat="64.70105" lon="11.44703">
        <ele>59.095304</ele>
        <time>2020-08-11T10:49:14.543Z</time>
      </trkpt>
      <trkpt lat="64.7011" lon="11.44682">
        <ele>59.21825</ele>
        <time>2020-08-11T10:49:18.521Z</time>
      </trkpt>
      <trkpt lat="64.70113" lon="11.4466">
        <ele>59.334174</ele>
        <time>2020-08-11T10:49:22.527Z</time>
      </trkpt>
      <trkpt lat="64.70117" lon="11.44638">
        <ele>59.453662</ele>
        <time>2020-08-11T10:49:27.506Z</time>
      </trkpt>
      <trkpt lat="64.7012" lon="11.44617">
        <ele>59.564724</ele>
        <time>2020-08-11T10:49:32.531Z</time>
      </trkpt>
      <trkpt lat="64.70121" lon="11.44594">
        <ele>59.981762</ele>
        <time>2020-08-11T10:49:38.514Z</time>
      </trkpt>
      <trkpt lat="64.70123" lon="11.44573">
        <ele>60.468582</ele>
        <time>2020-08-11T10:49:44.545Z</time>
      </trkpt>
      <trkpt lat="64.70126" lon="11.44549">
        <ele>61.029003</ele>
        <time>2020-08-11T10:49:51.507Z</time>
      </trkpt>
      <trkpt lat="64.70129" lon="11.44529">
        <ele>61.507965</ele>
        <time>2020-08-11T10:49:57.530Z</time>
      </trkpt>
      <trkpt lat="64.70131" lon="11.44508">
        <ele>61.985994</ele>
        <time>2020-08-11T10:50:03.511Z</time>
      </trkpt>
      <trkpt lat="64.70135" lon="11.44488">
        <ele>62.473493</ele>
        <time>2020-08-11T10:50:09.519Z</time>
      </trkpt>
      <trkpt lat="64.70139" lon="11.44468">
        <ele>62.998793</ele>
        <time>2020-08-11T10:50:15.502Z</time>
      </trkpt>
      <trkpt lat="64.70145" lon="11.44448">
        <ele>63.541054</ele>
        <time>2020-08-11T10:50:21.562Z</time>
      </trkpt>
      <trkpt lat="64.70152" lon="11.44428">
        <ele>64.09388</ele>
        <time>2020-08-11T10:50:27.536Z</time>
      </trkpt>
      <trkpt lat="64.70158" lon="11.44412">
        <ele>64.617857</ele>
        <time>2020-08-11T10:50:33.520Z</time>
      </trkpt>
      <trkpt lat="64.70166" lon="11.44395">
        <ele>65.157388</ele>
        <time>2020-08-11T10:50:39.546Z</time>
      </trkpt>
      <trkpt lat="64.70174" lon="11.44381">
        <ele>65.687399</ele>
        <time>2020-08-11T10:50:46.509Z</time>
      </trkpt>
      <trkpt lat="64.70182" lon="11.44369">
        <ele>66.178239</ele>
        <time>2020-08-11T10:50:52.526Z</time>
      </trkpt>
      <trkpt lat="64.70189" lon="11.44356">
        <ele>66.678101</ele>
        <time>2020-08-11T10:50:58.545Z</time>
      </trkpt>
      <trkpt lat="64.70198" lon="11.44343">
        <ele>67.209213</ele>
        <time>2020-08-11T10:51:04.494Z</time>
      </trkpt>
      <trkpt lat="64.70206" lon="11.44331">
        <ele>67.703181</ele>
        <time>2020-08-11T10:51:10.534Z</time>
      </trkpt>
      <trkpt lat="64.70214" lon="11.44321">
        <ele>68.198757</ele>
        <time>2020-08-11T10:51:16.505Z</time>
      </trkpt>
      <trkpt lat="64.70222" lon="11.44309">
        <ele>68.729541</ele>
        <time>2020-08-11T10:51:22.528Z</time>
      </trkpt>
      <trkpt lat="64.70231" lon="11.44298">
        <ele>69.180855</ele>
        <time>2020-08-11T10:51:28.493Z</time>
      </trkpt>
      <trkpt lat="64.70238" lon="11.44287">
        <ele>69.499035</ele>
        <time>2020-08-11T10:51:34.505Z</time>
      </trkpt>
      <trkpt lat="64.70246" lon="11.44276">
        <ele>69.820327</ele>
        <time>2020-08-11T10:51:40.503Z</time>
      </trkpt>
      <trkpt lat="64.70255" lon="11.44268">
        <ele>70.155175</ele>
        <time>2020-08-11T10:51:46.498Z</time>
      </trkpt>
      <trkpt lat="64.70263" lon="11.44257">
        <ele>70.485588</ele>
        <time>2020-08-11T10:51:52.531Z</time>
      </trkpt>
      <trkpt lat="64.7027" lon="11.44245">
        <ele>70.803715</ele>
        <time>2020-08-11T10:51:58.524Z</time>
      </trkpt>
      <trkpt lat="64.70279" lon="11.44233">
        <ele>71.170921</ele>
        <time>2020-08-11T10:52:05.510Z</time>
      </trkpt>
      <trkpt lat="64.70288" lon="11.44221">
        <ele>71.524378</ele>
        <time>2020-08-11T10:52:12.534Z</time>
      </trkpt>
      <trkpt lat="64.70297" lon="11.44209">
        <ele>71.889289</ele>
        <time>2020-08-11T10:52:19.533Z</time>
      </trkpt>
      <trkpt lat="64.70306" lon="11.44199">
        <ele>72.246449</ele>
        <time>2020-08-11T10:52:25.513Z</time>
      </trkpt>
      <trkpt lat="64.70314" lon="11.44187">
        <ele>72.596787</ele>
        <time>2020-08-11T10:52:31.522Z</time>
      </trkpt>
      <trkpt lat="64.70323" lon="11.44177">
        <ele>72.949524</ele>
        <time>2020-08-11T10:52:37.562Z</time>
      </trkpt>
      <trkpt lat="64.70331" lon="11.44167">
        <ele>73.284001</ele>
        <time>2020-08-11T10:52:43.493Z</time>
      </trkpt>
      <trkpt lat="64.7034" lon="11.44155">
        <ele>73.649984</ele>
        <time>2020-08-11T10:52:49.500Z</time>
      </trkpt>
      <trkpt lat="64.7035" lon="11.44143">
        <ele>74.030389</ele>
        <time>2020-08-11T10:52:55.499Z</time>
      </trkpt>
      <trkpt lat="64.70359" lon="11.44136">
        <ele>74.366967</ele>
        <time>2020-08-11T10:53:00.525Z</time>
      </trkpt>
      <trkpt lat="64.70368" lon="11.4413">
        <ele>74.70775</ele>
        <time>2020-08-11T10:53:05.514Z</time>
      </trkpt>
      <trkpt lat="64.70377" lon="11.44125">
        <ele>75.048534</ele>
        <time>2020-08-11T10:53:10.508Z</time>
      </trkpt>
      <trkpt lat="64.70387" lon="11.44125">
        <ele>75.396813</ele>
        <time>2020-08-11T10:53:14.506Z</time>
      </trkpt>
      <trkpt lat="64.70398" lon="11.44127">
        <ele>75.740168</ele>
        <time>2020-08-11T10:53:18.546Z</time>
      </trkpt>
      <trkpt lat="64.70409" lon="11.4413">
        <ele>76.082567</ele>
        <time>2020-08-11T10:53:22.535Z</time>
      </trkpt>
      <trkpt lat="64.70419" lon="11.44138">
        <ele>76.429369</ele>
        <time>2020-08-11T10:53:26.515Z</time>
      </trkpt>
      <trkpt lat="64.70429" lon="11.44147">
        <ele>76.759243</ele>
        <time>2020-08-11T10:53:30.521Z</time>
      </trkpt>
      <trkpt lat="64.70438" lon="11.44159">
        <ele>77.082647</ele>
        <time>2020-08-11T10:53:34.515Z</time>
      </trkpt>
      <trkpt lat="64.70446" lon="11.44176">
        <ele>77.431356</ele>
        <time>2020-08-11T10:53:38.534Z</time>
      </trkpt>
      <trkpt lat="64.70453" lon="11.44191">
        <ele>77.720836</ele>
        <time>2020-08-11T10:53:41.524Z</time>
      </trkpt>
      <trkpt lat="64.7046" lon="11.44207">
        <ele>78.024764</ele>
        <time>2020-08-11T10:53:44.519Z</time>
      </trkpt>
      <trkpt lat="64.70467" lon="11.44223">
        <ele>78.349575</ele>
        <time>2020-08-11T10:53:47.520Z</time>
      </trkpt>
      <trkpt lat="64.70474" lon="11.44239">
        <ele>78.637578</ele>
        <time>2020-08-11T10:53:50.534Z</time>
      </trkpt>
      <trkpt lat="64.7048" lon="11.44255">
        <ele>78.930673</ele>
        <time>2020-08-11T10:53:53.538Z</time>
      </trkpt>
      <trkpt lat="64.70486" lon="11.44271">
        <ele>79.213452</ele>
        <time>2020-08-11T10:53:57.513Z</time>
      </trkpt>
      <trkpt lat="64.70492" lon="11.44286">
        <ele>79.498365</ele>
        <time>2020-08-11T10:54:01.507Z</time>
      </trkpt>
      <trkpt lat="64.705" lon="11.44306">
        <ele>79.864888</ele>
        <time>2020-08-11T10:54:05.526Z</time>
      </trkpt>
      <trkpt lat="64.70506" lon="11.44324">
        <ele>80.178308</ele>
        <time>2020-08-11T10:54:08.538Z</time>
      </trkpt>
      <trkpt lat="64.70513" lon="11.44344">
        <ele>80.517801</ele>
        <time>2020-08-11T10:54:11.532Z</time>
      </trkpt>
      <trkpt lat="64.7052" lon="11.44366">
        <ele>80.880693</ele>
        <time>2020-08-11T10:54:14.523Z</time>
      </trkpt>
      <trkpt lat="64.70527" lon="11.44388">
        <ele>81.071717</ele>
        <time>2020-08-11T10:54:17.545Z</time>
      </trkpt>
      <trkpt lat="64.70533" lon="11.44413">
        <ele>80.873173</ele>
        <time>2020-08-11T10:54:20.543Z</time>
      </trkpt>
      <trkpt lat="64.70538" lon="11.44441">
        <ele>80.669443</ele>
        <time>2020-08-11T10:54:23.519Z</time>
      </trkpt>
      <trkpt lat="64.70542" lon="11.44466">
        <ele>80.48213</ele>
        <time>2020-08-11T10:54:26.518Z</time>
      </trkpt>
      <trkpt lat="64.70547" lon="11.44492">
        <ele>80.293563</ele>
        <time>2020-08-11T10:54:29.512Z</time>
      </trkpt>
      <trkpt lat="64.70552" lon="11.44519">
        <ele>80.094974</ele>
        <time>2020-08-11T10:54:32.503Z</time>
      </trkpt>
      <trkpt lat="64.70556" lon="11.44548">
        <ele>79.88147</ele>
        <time>2020-08-11T10:54:35.531Z</time>
      </trkpt>
      <trkpt lat="64.7056" lon="11.44578">
        <ele>79.671432</ele>
        <time>2020-08-11T10:54:38.520Z</time>
      </trkpt>
      <trkpt lat="64.70564" lon="11.44606">
        <ele>79.463982</ele>
        <time>2020-08-11T10:54:41.537Z</time>
      </trkpt>
      <trkpt lat="64.70569" lon="11.44635">
        <ele>79.25402</ele>
        <time>2020-08-11T10:54:44.505Z</time>
      </trkpt>
      <trkpt lat="64.70574" lon="11.44663">
        <ele>79.048445</ele>
        <time>2020-08-11T10:54:47.530Z</time>
      </trkpt>
      <trkpt lat="64.70578" lon="11.44693">
        <ele>78.837601</ele>
        <time>2020-08-11T10:54:50.515Z</time>
      </trkpt>
      <trkpt lat="64.70582" lon="11.44721">
        <ele>78.629335</ele>
        <time>2020-08-11T10:54:53.550Z</time>
      </trkpt>
      <trkpt lat="64.70586" lon="11.4475">
        <ele>78.426268</ele>
        <time>2020-08-11T10:54:56.526Z</time>
      </trkpt>
      <trkpt lat="64.7059" lon="11.44778">
        <ele>78.362798</ele>
        <time>2020-08-11T10:54:59.510Z</time>
      </trkpt>
      <trkpt lat="64.70594" lon="11.44806">
        <ele>78.875622</ele>
        <time>2020-08-11T10:55:02.511Z</time>
      </trkpt>
      <trkpt lat="64.70599" lon="11.44832">
        <ele>79.375349</ele>
        <time>2020-08-11T10:55:05.502Z</time>
      </trkpt>
      <trkpt lat="64.70603" lon="11.44859">
        <ele>79.877194</ele>
        <time>2020-08-11T10:55:08.535Z</time>
      </trkpt>
      <trkpt lat="64.70607" lon="11.44884">
        <ele>80.338294</ele>
        <time>2020-08-11T10:55:11.503Z</time>
      </trkpt>
      <trkpt lat="64.70611" lon="11.44909">
        <ele>80.801238</ele>
        <time>2020-08-11T10:55:14.519Z</time>
      </trkpt>
      <trkpt lat="64.70614" lon="11.44933">
        <ele>81.240958</ele>
        <time>2020-08-11T10:55:17.516Z</time>
      </trkpt>
      <trkpt lat="64.70618" lon="11.44955">
        <ele>81.657303</ele>
        <time>2020-08-11T10:55:20.514Z</time>
      </trkpt>
      <trkpt lat="64.70621" lon="11.44978">
        <ele>82.066288</ele>
        <time>2020-08-11T10:55:23.512Z</time>
      </trkpt>
      <trkpt lat="64.70624" lon="11.44998">
        <ele>82.43993</ele>
        <time>2020-08-11T10:55:26.496Z</time>
      </trkpt>
      <trkpt lat="64.70628" lon="11.45023">
        <ele>82.913901</ele>
        <time>2020-08-11T10:55:30.509Z</time>
      </trkpt>
      <trkpt lat="64.70631" lon="11.45047">
        <ele>83.357915</ele>
        <time>2020-08-11T10:55:34.508Z</time>
      </trkpt>
      <trkpt lat="64.70635" lon="11.4507">
        <ele>83.78187</ele>
        <time>2020-08-11T10:55:38.531Z</time>
      </trkpt>
      <trkpt lat="64.70639" lon="11.45092">
        <ele>84.196097</ele>
        <time>2020-08-11T10:55:42.560Z</time>
      </trkpt>
      <trkpt lat="64.70643" lon="11.45114">
        <ele>84.613859</ele>
        <time>2020-08-11T10:55:46.511Z</time>
      </trkpt>
      <trkpt lat="64.70645" lon="11.45135">
        <ele>85.001203</ele>
        <time>2020-08-11T10:55:50.514Z</time>
      </trkpt>
      <trkpt lat="64.70648" lon="11.45159">
        <ele>85.424833</ele>
        <time>2020-08-11T10:55:54.503Z</time>
      </trkpt>
      <trkpt lat="64.70651" lon="11.4518">
        <ele>85.971063</ele>
        <time>2020-08-11T10:55:58.511Z</time>
      </trkpt>
      <trkpt lat="64.70654" lon="11.45205">
        <ele>86.782476</ele>
        <time>2020-08-11T10:56:03.593Z</time>
      </trkpt>
      <trkpt lat="64.70657" lon="11.4523">
        <ele>87.599216</ele>
        <time>2020-08-11T10:56:08.534Z</time>
      </trkpt>
      <trkpt lat="64.70661" lon="11.45253">
        <ele>88.336631</ele>
        <time>2020-08-11T10:56:13.503Z</time>
      </trkpt>
      <trkpt lat="64.70664" lon="11.45277">
        <ele>89.123928</ele>
        <time>2020-08-11T10:56:18.517Z</time>
      </trkpt>
      <trkpt lat="64.70668" lon="11.45297">
        <ele>89.789625</ele>
        <time>2020-08-11T10:56:22.516Z</time>
      </trkpt>
      <trkpt lat="64.70672" lon="11.45315">
        <ele>90.438891</ele>
        <time>2020-08-11T10:56:26.540Z</time>
      </trkpt>
      <trkpt lat="64.70675" lon="11.45339">
        <ele>91.214476</ele>
        <time>2020-08-11T10:56:31.521Z</time>
      </trkpt>
      <trkpt lat="64.70679" lon="11.45362">
        <ele>91.986122</ele>
        <time>2020-08-11T10:56:36.499Z</time>
      </trkpt>
      <trkpt lat="64.70683" lon="11.45385">
        <ele>92.758024</ele>
        <time>2020-08-11T10:56:41.515Z</time>
      </trkpt>
      <trkpt lat="64.7069" lon="11.45405">
        <ele>93.545142</ele>
        <time>2020-08-11T10:56:46.543Z</time>
      </trkpt>
      <trkpt lat="64.70692" lon="11.45428">
        <ele>94.282015</ele>
        <time>2020-08-11T10:56:51.506Z</time>
      </trkpt>
      <trkpt lat="64.70696" lon="11.4545">
        <ele>95.004982</ele>
        <time>2020-08-11T10:56:56.504Z</time>
      </trkpt>
      <trkpt lat="64.707" lon="11.45472">
        <ele>95.762443</ele>
        <time>2020-08-11T10:57:01.522Z</time>
      </trkpt>
      <trkpt lat="64.70704" lon="11.45492">
        <ele>96.46845</ele>
        <time>2020-08-11T10:57:06.506Z</time>
      </trkpt>
      <trkpt lat="64.70709" lon="11.45514">
        <ele>97.238685</ele>
        <time>2020-08-11T10:57:11.508Z</time>
      </trkpt>
      <trkpt lat="64.70714" lon="11.45533">
        <ele>97.920747</ele>
        <time>2020-08-11T10:57:15.530Z</time>
      </trkpt>
      <trkpt lat="64.70718" lon="11.45553">
        <ele>98.608588</ele>
        <time>2020-08-11T10:57:19.513Z</time>
      </trkpt>
      <trkpt lat="64.70723" lon="11.45574">
        <ele>99.008903</ele>
        <time>2020-08-11T10:57:24.535Z</time>
      </trkpt>
      <trkpt lat="64.70727" lon="11.45598">
        <ele>99.395652</ele>
        <time>2020-08-11T10:57:29.529Z</time>
      </trkpt>
      <trkpt lat="64.70732" lon="11.45619">
        <ele>99.750049</ele>
        <time>2020-08-11T10:57:33.519Z</time>
      </trkpt>
      <trkpt lat="64.70736" lon="11.45641">
        <ele>100.107792</ele>
        <time>2020-08-11T10:57:37.518Z</time>
      </trkpt>
      <trkpt lat="64.7074" lon="11.45663">
        <ele>100.474199</ele>
        <time>2020-08-11T10:57:41.502Z</time>
      </trkpt>
      <trkpt lat="64.70745" lon="11.45686">
        <ele>100.852599</ele>
        <time>2020-08-11T10:57:45.510Z</time>
      </trkpt>
      <trkpt lat="64.7075" lon="11.45706">
        <ele>101.187218</ele>
        <time>2020-08-11T10:57:48.500Z</time>
      </trkpt>
      <trkpt lat="64.70754" lon="11.45727">
        <ele>101.533984</ele>
        <time>2020-08-11T10:57:51.509Z</time>
      </trkpt>
      <trkpt lat="64.70759" lon="11.45749">
        <ele>101.915187</ele>
        <time>2020-08-11T10:57:54.523Z</time>
      </trkpt>
      <trkpt lat="64.70764" lon="11.45773">
        <ele>102.308043</ele>
        <time>2020-08-11T10:57:57.553Z</time>
      </trkpt>
      <trkpt lat="64.7077" lon="11.45798">
        <ele>102.723812</ele>
        <time>2020-08-11T10:58:00.525Z</time>
      </trkpt>
      <trkpt lat="64.70774" lon="11.45816">
        <ele>103.039504</ele>
        <time>2020-08-11T10:58:02.532Z</time>
      </trkpt>
      <trkpt lat="64.7078" lon="11.45843">
        <ele>103.492437</ele>
        <time>2020-08-11T10:58:05.524Z</time>
      </trkpt>
      <trkpt lat="64.70787" lon="11.45868">
        <ele>103.936087</ele>
        <time>2020-08-11T10:58:08.522Z</time>
      </trkpt>
      <trkpt lat="64.70793" lon="11.45893">
        <ele>104.365638</ele>
        <time>2020-08-11T10:58:11.540Z</time>
      </trkpt>
      <trkpt lat="64.70801" lon="11.45917">
        <ele>104.807617</ele>
        <time>2020-08-11T10:58:14.509Z</time>
      </trkpt>
      <trkpt lat="64.70808" lon="11.45939">
        <ele>104.531874</ele>
        <time>2020-08-11T10:58:17.496Z</time>
      </trkpt>
      <trkpt lat="64.70816" lon="11.4596">
        <ele>103.889751</ele>
        <time>2020-08-11T10:58:20.518Z</time>
      </trkpt>
      <trkpt lat="64.70824" lon="11.45978">
        <ele>103.252472</ele>
        <time>2020-08-11T10:58:23.510Z</time>
      </trkpt>
      <trkpt lat="64.70832" lon="11.45996">
        <ele>102.622511</ele>
        <time>2020-08-11T10:58:26.507Z</time>
      </trkpt>
      <trkpt lat="64.7084" lon="11.46015">
        <ele>102.021747</ele>
        <time>2020-08-11T10:58:29.531Z</time>
      </trkpt>
      <trkpt lat="64.70847" lon="11.46032">
        <ele>101.447793</ele>
        <time>2020-08-11T10:58:32.534Z</time>
      </trkpt>
      <trkpt lat="64.70855" lon="11.46049">
        <ele>100.837931</ele>
        <time>2020-08-11T10:58:35.516Z</time>
      </trkpt>
      <trkpt lat="64.70863" lon="11.46066">
        <ele>100.229925</ele>
        <time>2020-08-11T10:58:38.504Z</time>
      </trkpt>
      <trkpt lat="64.70872" lon="11.46083">
        <ele>99.623651</ele>
        <time>2020-08-11T10:58:41.561Z</time>
      </trkpt>
      <trkpt lat="64.7088" lon="11.46102">
        <ele>98.985208</ele>
        <time>2020-08-11T10:58:44.514Z</time>
      </trkpt>
      <trkpt lat="64.70889" lon="11.46121">
        <ele>98.293741</ele>
        <time>2020-08-11T10:58:47.513Z</time>
      </trkpt>
      <trkpt lat="64.709" lon="11.46139">
        <ele>97.528714</ele>
        <time>2020-08-11T10:58:50.514Z</time>
      </trkpt>
      <trkpt lat="64.70909" lon="11.46153">
        <ele>96.949542</ele>
        <time>2020-08-11T10:58:52.522Z</time>
      </trkpt>
      <trkpt lat="64.70918" lon="11.46167">
        <ele>96.339894</ele>
        <time>2020-08-11T10:58:54.499Z</time>
      </trkpt>
      <trkpt lat="64.70928" lon="11.46182">
        <ele>95.693141</ele>
        <time>2020-08-11T10:58:56.542Z</time>
      </trkpt>
      <trkpt lat="64.70938" lon="11.46197">
        <ele>95.021502</ele>
        <time>2020-08-11T10:58:58.530Z</time>
      </trkpt>
      <trkpt lat="64.7095" lon="11.46212">
        <ele>94.430462</ele>
        <time>2020-08-11T10:59:00.547Z</time>
      </trkpt>
      <trkpt lat="64.70963" lon="11.46228">
        <ele>93.777495</ele>
        <time>2020-08-11T10:59:02.499Z</time>
      </trkpt>
      <trkpt lat="64.70978" lon="11.46246">
        <ele>93.06733</ele>
        <time>2020-08-11T10:59:04.503Z</time>
      </trkpt>
      <trkpt lat="64.70993" lon="11.46265">
        <ele>92.302971</ele>
        <time>2020-08-11T10:59:06.502Z</time>
      </trkpt>
      <trkpt lat="64.71009" lon="11.46286">
        <ele>91.530358</ele>
        <time>2020-08-11T10:59:08.516Z</time>
      </trkpt>
      <trkpt lat="64.71017" lon="11.46297">
        <ele>91.139805</ele>
        <time>2020-08-11T10:59:09.523Z</time>
      </trkpt>
      <trkpt lat="64.71024" lon="11.46307">
        <ele>90.744643</ele>
        <time>2020-08-11T10:59:10.518Z</time>
      </trkpt>
      <trkpt lat="64.7104" lon="11.46326">
        <ele>89.983642</ele>
        <time>2020-08-11T10:59:12.499Z</time>
      </trkpt>
      <trkpt lat="64.71055" lon="11.46344">
        <ele>89.249996</ele>
        <time>2020-08-11T10:59:14.510Z</time>
      </trkpt>
      <trkpt lat="64.7107" lon="11.46362">
        <ele>88.538532</ele>
        <time>2020-08-11T10:59:16.524Z</time>
      </trkpt>
      <trkpt lat="64.71083" lon="11.46379">
        <ele>87.867509</ele>
        <time>2020-08-11T10:59:18.532Z</time>
      </trkpt>
      <trkpt lat="64.71097" lon="11.46397">
        <ele>87.206114</ele>
        <time>2020-08-11T10:59:20.504Z</time>
      </trkpt>
      <trkpt lat="64.71109" lon="11.46416">
        <ele>87.034368</ele>
        <time>2020-08-11T10:59:22.549Z</time>
      </trkpt>
      <trkpt lat="64.7112" lon="11.46435">
        <ele>86.901471</ele>
        <time>2020-08-11T10:59:24.507Z</time>
      </trkpt>
      <trkpt lat="64.71132" lon="11.46454">
        <ele>86.761815</ele>
        <time>2020-08-11T10:59:26.553Z</time>
      </trkpt>
      <trkpt lat="64.71143" lon="11.46473">
        <ele>86.631586</ele>
        <time>2020-08-11T10:59:28.518Z</time>
      </trkpt>
      <trkpt lat="64.71154" lon="11.46493">
        <ele>86.501638</ele>
        <time>2020-08-11T10:59:30.512Z</time>
      </trkpt>
      <trkpt lat="64.71164" lon="11.46514">
        <ele>86.375478</ele>
        <time>2020-08-11T10:59:32.505Z</time>
      </trkpt>
      <trkpt lat="64.71174" lon="11.46535">
        <ele>86.252275</ele>
        <time>2020-08-11T10:59:34.512Z</time>
      </trkpt>
      <trkpt lat="64.71183" lon="11.46555">
        <ele>86.13159</ele>
        <time>2020-08-11T10:59:36.511Z</time>
      </trkpt>
      <trkpt lat="64.71192" lon="11.46574">
        <ele>86.015589</ele>
        <time>2020-08-11T10:59:38.543Z</time>
      </trkpt>
      <trkpt lat="64.71201" lon="11.46593">
        <ele>85.903332</ele>
        <time>2020-08-11T10:59:40.522Z</time>
      </trkpt>
      <trkpt lat="64.71209" lon="11.4661">
        <ele>85.80163</ele>
        <time>2020-08-11T10:59:42.524Z</time>
      </trkpt>
      <trkpt lat="64.71215" lon="11.46626">
        <ele>85.709258</ele>
        <time>2020-08-11T10:59:44.510Z</time>
      </trkpt>
      <trkpt lat="64.71221" lon="11.46642">
        <ele>85.623244</ele>
        <time>2020-08-11T10:59:46.560Z</time>
      </trkpt>
      <trkpt lat="64.71228" lon="11.46664">
        <ele>85.515331</ele>
        <time>2020-08-11T10:59:49.518Z</time>
      </trkpt>
      <trkpt lat="64.71233" lon="11.46684">
        <ele>85.779532</ele>
        <time>2020-08-11T10:59:52.518Z</time>
      </trkpt>
      <trkpt lat="64.71239" lon="11.46702">
        <ele>86.603924</ele>
        <time>2020-08-11T10:59:56.534Z</time>
      </trkpt>
      <trkpt lat="64.71245" lon="11.46719">
        <ele>87.406259</ele>
        <time>2020-08-11T11:00:00.501Z</time>
      </trkpt>
      <trkpt lat="64.71251" lon="11.4674">
        <ele>88.293137</ele>
        <time>2020-08-11T11:00:05.538Z</time>
      </trkpt>
      <trkpt lat="64.71257" lon="11.46761">
        <ele>89.198384</ele>
        <time>2020-08-11T11:00:10.518Z</time>
      </trkpt>
      <trkpt lat="64.71262" lon="11.46782">
        <ele>90.079855</ele>
        <time>2020-08-11T11:00:15.542Z</time>
      </trkpt>
      <trkpt lat="64.71268" lon="11.46801">
        <ele>90.950443</ele>
        <time>2020-08-11T11:00:20.528Z</time>
      </trkpt>
      <trkpt lat="64.71276" lon="11.4682">
        <ele>91.851053</ele>
        <time>2020-08-11T11:00:25.532Z</time>
      </trkpt>
      <trkpt lat="64.71282" lon="11.46835">
        <ele>92.611726</ele>
        <time>2020-08-11T11:00:29.523Z</time>
      </trkpt>
      <trkpt lat="64.71289" lon="11.4685">
        <ele>93.396502</ele>
        <time>2020-08-11T11:00:33.542Z</time>
      </trkpt>
      <trkpt lat="64.71296" lon="11.46864">
        <ele>94.175315</ele>
        <time>2020-08-11T11:00:37.495Z</time>
      </trkpt>
      <trkpt lat="64.71302" lon="11.46879">
        <ele>94.94049</ele>
        <time>2020-08-11T11:00:41.516Z</time>
      </trkpt>
      <trkpt lat="64.7131" lon="11.46896">
        <ele>95.814854</ele>
        <time>2020-08-11T11:00:46.513Z</time>
      </trkpt>
      <trkpt lat="64.71318" lon="11.46913">
        <ele>96.731779</ele>
        <time>2020-08-11T11:00:51.506Z</time>
      </trkpt>
      <trkpt lat="64.71326" lon="11.4693">
        <ele>97.65573</ele>
        <time>2020-08-11T11:00:56.524Z</time>
      </trkpt>
      <trkpt lat="64.71334" lon="11.46944">
        <ele>98.474716</ele>
        <time>2020-08-11T11:01:00.498Z</time>
      </trkpt>
      <trkpt lat="64.71341" lon="11.46958">
        <ele>99.242479</ele>
        <time>2020-08-11T11:01:04.543Z</time>
      </trkpt>
      <trkpt lat="64.71348" lon="11.46973">
        <ele>100.034729</ele>
        <time>2020-08-11T11:01:09.502Z</time>
      </trkpt>
      <trkpt lat="64.71355" lon="11.4699">
        <ele>100.65867</ele>
        <time>2020-08-11T11:01:14.511Z</time>
      </trkpt>
      <trkpt lat="64.71363" lon="11.47006">
        <ele>100.905856</ele>
        <time>2020-08-11T11:01:19.561Z</time>
      </trkpt>
      <trkpt lat="64.7137" lon="11.47021">
        <ele>101.144843</ele>
        <time>2020-08-11T11:01:24.533Z</time>
      </trkpt>
      <trkpt lat="64.71376" lon="11.47038">
        <ele>101.378405</ele>
        <time>2020-08-11T11:01:29.538Z</time>
      </trkpt>
      <trkpt lat="64.71384" lon="11.47056">
        <ele>101.643032</ele>
        <time>2020-08-11T11:01:34.522Z</time>
      </trkpt>
      <trkpt lat="64.71391" lon="11.47071">
        <ele>101.878466</ele>
        <time>2020-08-11T11:01:38.496Z</time>
      </trkpt>
      <trkpt lat="64.71398" lon="11.47085">
        <ele>102.098866</ele>
        <time>2020-08-11T11:01:42.505Z</time>
      </trkpt>
      <trkpt lat="64.71407" lon="11.47101">
        <ele>102.372909</ele>
        <time>2020-08-11T11:01:47.534Z</time>
      </trkpt>
      <trkpt lat="64.71416" lon="11.47114">
        <ele>102.62457</ele>
        <time>2020-08-11T11:01:51.525Z</time>
      </trkpt>
      <trkpt lat="64.71423" lon="11.47128">
        <ele>102.864635</ele>
        <time>2020-08-11T11:01:55.525Z</time>
      </trkpt>
      <trkpt lat="64.71432" lon="11.47143">
        <ele>103.11826</ele>
        <time>2020-08-11T11:01:59.503Z</time>
      </trkpt>
      <trkpt lat="64.7144" lon="11.47157">
        <ele>103.378418</ele>
        <time>2020-08-11T11:02:03.524Z</time>
      </trkpt>
      <trkpt lat="64.7145" lon="11.4717">
        <ele>103.64491</ele>
        <time>2020-08-11T11:02:07.535Z</time>
      </trkpt>
      <trkpt lat="64.7146" lon="11.47182">
        <ele>103.920703</ele>
        <time>2020-08-11T11:02:11.513Z</time>
      </trkpt>
      <trkpt lat="64.71468" lon="11.4719">
        <ele>104.139762</ele>
        <time>2020-08-11T11:02:14.534Z</time>
      </trkpt>
      <trkpt lat="64.71477" lon="11.47198">
        <ele>104.363719</ele>
        <time>2020-08-11T11:02:17.566Z</time>
      </trkpt>
      <trkpt lat="64.71485" lon="11.47206">
        <ele>104.587677</ele>
        <time>2020-08-11T11:02:20.527Z</time>
      </trkpt>
      <trkpt lat="64.71497" lon="11.47217">
        <ele>104.882361</ele>
        <time>2020-08-11T11:02:24.513Z</time>
      </trkpt>
      <trkpt lat="64.71505" lon="11.47225">
        <ele>104.630992</ele>
        <time>2020-08-11T11:02:27.493Z</time>
      </trkpt>
      <trkpt lat="64.71513" lon="11.47236">
        <ele>104.1821</ele>
        <time>2020-08-11T11:02:30.495Z</time>
      </trkpt>
      <trkpt lat="64.71521" lon="11.4725">
        <ele>103.689437</ele>
        <time>2020-08-11T11:02:33.551Z</time>
      </trkpt>
      <trkpt lat="64.71531" lon="11.47263">
        <ele>103.127303</ele>
        <time>2020-08-11T11:02:36.510Z</time>
      </trkpt>
      <trkpt lat="64.71541" lon="11.47274">
        <ele>102.58173</ele>
        <time>2020-08-11T11:02:39.517Z</time>
      </trkpt>
      <trkpt lat="64.71552" lon="11.47283">
        <ele>102.014036</ele>
        <time>2020-08-11T11:02:42.506Z</time>
      </trkpt>
      <trkpt lat="64.71562" lon="11.47295">
        <ele>101.43959</ele>
        <time>2020-08-11T11:02:45.502Z</time>
      </trkpt>
      <trkpt lat="64.71573" lon="11.47308">
        <ele>100.837927</ele>
        <time>2020-08-11T11:02:48.506Z</time>
      </trkpt>
      <trkpt lat="64.71581" lon="11.47318">
        <ele>100.396931</ele>
        <time>2020-08-11T11:02:50.502Z</time>
      </trkpt>
      <trkpt lat="64.71593" lon="11.47332">
        <ele>99.73448</ele>
        <time>2020-08-11T11:02:53.513Z</time>
      </trkpt>
      <trkpt lat="64.71602" lon="11.47342">
        <ele>99.28659</ele>
        <time>2020-08-11T11:02:55.519Z</time>
      </trkpt>
      <trkpt lat="64.7161" lon="11.47352">
        <ele>98.804889</ele>
        <time>2020-08-11T11:02:57.526Z</time>
      </trkpt>
      <trkpt lat="64.71619" lon="11.47364">
        <ele>98.29577</ele>
        <time>2020-08-11T11:02:59.514Z</time>
      </trkpt>
      <trkpt lat="64.71629" lon="11.47376">
        <ele>97.754617</ele>
        <time>2020-08-11T11:03:01.511Z</time>
      </trkpt>
      <trkpt lat="64.7164" lon="11.4739">
        <ele>97.132771</ele>
        <time>2020-08-11T11:03:03.528Z</time>
      </trkpt>
      <trkpt lat="64.71652" lon="11.47404">
        <ele>96.466265</ele>
        <time>2020-08-11T11:03:05.514Z</time>
      </trkpt>
      <trkpt lat="64.71665" lon="11.47418">
        <ele>95.819333</ele>
        <time>2020-08-11T11:03:07.506Z</time>
      </trkpt>
      <trkpt lat="64.71679" lon="11.47434">
        <ele>95.197106</ele>
        <time>2020-08-11T11:03:09.522Z</time>
      </trkpt>
      <trkpt lat="64.71694" lon="11.47453">
        <ele>94.49828</ele>
        <time>2020-08-11T11:03:11.523Z</time>
      </trkpt>
      <trkpt lat="64.71702" lon="11.47463">
        <ele>94.122053</ele>
        <time>2020-08-11T11:03:12.560Z</time>
      </trkpt>
      <trkpt lat="64.7171" lon="11.47472">
        <ele>93.748718</ele>
        <time>2020-08-11T11:03:13.506Z</time>
      </trkpt>
      <trkpt lat="64.71726" lon="11.47492">
        <ele>93.010109</ele>
        <time>2020-08-11T11:03:15.575Z</time>
      </trkpt>
      <trkpt lat="64.71735" lon="11.47503">
        <ele>92.598691</ele>
        <time>2020-08-11T11:03:16.548Z</time>
      </trkpt>
      <trkpt lat="64.71744" lon="11.47514">
        <ele>92.179149</ele>
        <time>2020-08-11T11:03:17.508Z</time>
      </trkpt>
      <trkpt lat="64.71754" lon="11.47525">
        <ele>91.729152</ele>
        <time>2020-08-11T11:03:18.524Z</time>
      </trkpt>
      <trkpt lat="64.71764" lon="11.47537">
        <ele>91.275469</ele>
        <time>2020-08-11T11:03:19.543Z</time>
      </trkpt>
      <trkpt lat="64.71774" lon="11.47548">
        <ele>90.818859</ele>
        <time>2020-08-11T11:03:20.522Z</time>
      </trkpt>
      <trkpt lat="64.71784" lon="11.47559">
        <ele>90.359935</ele>
        <time>2020-08-11T11:03:21.498Z</time>
      </trkpt>
      <trkpt lat="64.71793" lon="11.47572">
        <ele>89.911595</ele>
        <time>2020-08-11T11:03:22.509Z</time>
      </trkpt>
      <trkpt lat="64.71803" lon="11.47585">
        <ele>89.444832</ele>
        <time>2020-08-11T11:03:23.531Z</time>
      </trkpt>
      <trkpt lat="64.71813" lon="11.47598">
        <ele>88.973711</ele>
        <time>2020-08-11T11:03:24.534Z</time>
      </trkpt>
      <trkpt lat="64.71823" lon="11.47613">
        <ele>88.43191</ele>
        <time>2020-08-11T11:03:25.510Z</time>
      </trkpt>
      <trkpt lat="64.71832" lon="11.4763">
        <ele>87.805876</ele>
        <time>2020-08-11T11:03:26.547Z</time>
      </trkpt>
      <trkpt lat="64.71841" lon="11.47649">
        <ele>87.178967</ele>
        <time>2020-08-11T11:03:27.519Z</time>
      </trkpt>
      <trkpt lat="64.71849" lon="11.47669">
        <ele>86.540819</ele>
        <time>2020-08-11T11:03:28.523Z</time>
      </trkpt>
      <trkpt lat="64.71857" lon="11.47691">
        <ele>85.904283</ele>
        <time>2020-08-11T11:03:29.506Z</time>
      </trkpt>
      <trkpt lat="64.71864" lon="11.47712">
        <ele>85.289682</ele>
        <time>2020-08-11T11:03:30.519Z</time>
      </trkpt>
      <trkpt lat="64.71872" lon="11.47734">
        <ele>84.672979</ele>
        <time>2020-08-11T11:03:31.537Z</time>
      </trkpt>
      <trkpt lat="64.71879" lon="11.47756">
        <ele>84.047692</ele>
        <time>2020-08-11T11:03:32.500Z</time>
      </trkpt>
      <trkpt lat="64.71886" lon="11.47777">
        <ele>83.419462</ele>
        <time>2020-08-11T11:03:33.575Z</time>
      </trkpt>
      <trkpt lat="64.71893" lon="11.47799">
        <ele>82.808121</ele>
        <time>2020-08-11T11:03:34.522Z</time>
      </trkpt>
      <trkpt lat="64.71901" lon="11.4782">
        <ele>82.193761</ele>
        <time>2020-08-11T11:03:35.530Z</time>
      </trkpt>
      <trkpt lat="64.71908" lon="11.47841">
        <ele>81.564204</ele>
        <time>2020-08-11T11:03:36.506Z</time>
      </trkpt>
      <trkpt lat="64.71916" lon="11.47863">
        <ele>80.946327</ele>
        <time>2020-08-11T11:03:37.546Z</time>
      </trkpt>
      <trkpt lat="64.71923" lon="11.47884">
        <ele>80.343575</ele>
        <time>2020-08-11T11:03:38.506Z</time>
      </trkpt>
      <trkpt lat="64.71929" lon="11.47905">
        <ele>79.752223</ele>
        <time>2020-08-11T11:03:39.575Z</time>
      </trkpt>
      <trkpt lat="64.71936" lon="11.47926">
        <ele>79.160458</ele>
        <time>2020-08-11T11:03:40.519Z</time>
      </trkpt>
      <trkpt lat="64.71943" lon="11.47946">
        <ele>78.588042</ele>
        <time>2020-08-11T11:03:41.506Z</time>
      </trkpt>
      <trkpt lat="64.71951" lon="11.47966">
        <ele>78.005833</ele>
        <time>2020-08-11T11:03:42.544Z</time>
      </trkpt>
      <trkpt lat="64.71958" lon="11.47986">
        <ele>77.433409</ele>
        <time>2020-08-11T11:03:43.543Z</time>
      </trkpt>
      <trkpt lat="64.71966" lon="11.48006">
        <ele>76.862742</ele>
        <time>2020-08-11T11:03:44.514Z</time>
      </trkpt>
      <trkpt lat="64.71973" lon="11.48025">
        <ele>76.295426</ele>
        <time>2020-08-11T11:03:45.499Z</time>
      </trkpt>
      <trkpt lat="64.71981" lon="11.48045">
        <ele>75.719351</ele>
        <time>2020-08-11T11:03:46.526Z</time>
      </trkpt>
      <trkpt lat="64.71988" lon="11.48064">
        <ele>75.163448</ele>
        <time>2020-08-11T11:03:47.506Z</time>
      </trkpt>
      <trkpt lat="64.71995" lon="11.48083">
        <ele>74.607729</ele>
        <time>2020-08-11T11:03:48.509Z</time>
      </trkpt>
      <trkpt lat="64.72002" lon="11.48102">
        <ele>74.058587</ele>
        <time>2020-08-11T11:03:49.541Z</time>
      </trkpt>
      <trkpt lat="64.72009" lon="11.48121">
        <ele>73.507808</ele>
        <time>2020-08-11T11:03:50.503Z</time>
      </trkpt>
      <trkpt lat="64.72016" lon="11.4814">
        <ele>72.957052</ele>
        <time>2020-08-11T11:03:51.526Z</time>
      </trkpt>
      <trkpt lat="64.72023" lon="11.48159">
        <ele>72.42111</ele>
        <time>2020-08-11T11:03:52.532Z</time>
      </trkpt>
      <trkpt lat="64.72029" lon="11.48178">
        <ele>71.893293</ele>
        <time>2020-08-11T11:03:53.540Z</time>
      </trkpt>
      <trkpt lat="64.72036" lon="11.48197">
        <ele>71.355674</ele>
        <time>2020-08-11T11:03:54.541Z</time>
      </trkpt>
      <trkpt lat="64.72043" lon="11.48217">
        <ele>70.818055</ele>
        <time>2020-08-11T11:03:55.533Z</time>
      </trkpt>
      <trkpt lat="64.72049" lon="11.48236">
        <ele>70.296231</ele>
        <time>2020-08-11T11:03:56.530Z</time>
      </trkpt>
      <trkpt lat="64.72055" lon="11.48255">
        <ele>69.662569</ele>
        <time>2020-08-11T11:03:57.522Z</time>
      </trkpt>
      <trkpt lat="64.72062" lon="11.48274">
        <ele>68.932137</ele>
        <time>2020-08-11T11:03:58.512Z</time>
      </trkpt>
      <trkpt lat="64.72068" lon="11.48294">
        <ele>68.200429</ele>
        <time>2020-08-11T11:03:59.516Z</time>
      </trkpt>
      <trkpt lat="64.72073" lon="11.48314">
        <ele>67.486182</ele>
        <time>2020-08-11T11:04:00.526Z</time>
      </trkpt>
      <trkpt lat="64.72079" lon="11.48334">
        <ele>66.779563</ele>
        <time>2020-08-11T11:04:01.518Z</time>
      </trkpt>
      <trkpt lat="64.72084" lon="11.48354">
        <ele>66.077814</ele>
        <time>2020-08-11T11:04:02.519Z</time>
      </trkpt>
      <trkpt lat="64.72089" lon="11.48375">
        <ele>65.368508</ele>
        <time>2020-08-11T11:04:03.513Z</time>
      </trkpt>
      <trkpt lat="64.72093" lon="11.48395">
        <ele>64.660603</ele>
        <time>2020-08-11T11:04:04.539Z</time>
      </trkpt>
      <trkpt lat="64.72098" lon="11.48417">
        <ele>63.936171</ele>
        <time>2020-08-11T11:04:05.533Z</time>
      </trkpt>
      <trkpt lat="64.72103" lon="11.48439">
        <ele>63.205111</ele>
        <time>2020-08-11T11:04:06.552Z</time>
      </trkpt>
      <trkpt lat="64.72107" lon="11.48461">
        <ele>62.45714</ele>
        <time>2020-08-11T11:04:07.505Z</time>
      </trkpt>
      <trkpt lat="64.72112" lon="11.48484">
        <ele>61.718385</ele>
        <time>2020-08-11T11:04:08.506Z</time>
      </trkpt>
      <trkpt lat="64.72116" lon="11.48506">
        <ele>60.976894</ele>
        <time>2020-08-11T11:04:09.516Z</time>
      </trkpt>
      <trkpt lat="64.72119" lon="11.48529">
        <ele>60.247471</ele>
        <time>2020-08-11T11:04:10.533Z</time>
      </trkpt>
      <trkpt lat="64.72123" lon="11.48553">
        <ele>59.494699</ele>
        <time>2020-08-11T11:04:11.516Z</time>
      </trkpt>
      <trkpt lat="64.72126" lon="11.48578">
        <ele>58.724798</ele>
        <time>2020-08-11T11:04:12.508Z</time>
      </trkpt>
      <trkpt lat="64.72129" lon="11.48602">
        <ele>57.951247</ele>
        <time>2020-08-11T11:04:13.531Z</time>
      </trkpt>
      <trkpt lat="64.72133" lon="11.48627">
        <ele>57.347494</ele>
        <time>2020-08-11T11:04:14.526Z</time>
      </trkpt>
      <trkpt lat="64.72136" lon="11.48651">
        <ele>57.072137</ele>
        <time>2020-08-11T11:04:15.529Z</time>
      </trkpt>
      <trkpt lat="64.7214" lon="11.48676">
        <ele>56.797795</ele>
        <time>2020-08-11T11:04:16.519Z</time>
      </trkpt>
      <trkpt lat="64.72143" lon="11.487">
        <ele>56.526031</ele>
        <time>2020-08-11T11:04:17.521Z</time>
      </trkpt>
      <trkpt lat="64.72146" lon="11.48724">
        <ele>56.257557</ele>
        <time>2020-08-11T11:04:18.504Z</time>
      </trkpt>
      <trkpt lat="64.7215" lon="11.48747">
        <ele>55.993494</ele>
        <time>2020-08-11T11:04:19.504Z</time>
      </trkpt>
      <trkpt lat="64.72153" lon="11.4877">
        <ele>55.7333</ele>
        <time>2020-08-11T11:04:20.531Z</time>
      </trkpt>
      <trkpt lat="64.72157" lon="11.48792">
        <ele>55.477263</ele>
        <time>2020-08-11T11:04:21.522Z</time>
      </trkpt>
      <trkpt lat="64.72161" lon="11.48815">
        <ele>55.221094</ele>
        <time>2020-08-11T11:04:22.539Z</time>
      </trkpt>
      <trkpt lat="64.72164" lon="11.48837">
        <ele>54.96593</ele>
        <time>2020-08-11T11:04:23.514Z</time>
      </trkpt>
      <trkpt lat="64.72167" lon="11.48859">
        <ele>54.714265</ele>
        <time>2020-08-11T11:04:24.511Z</time>
      </trkpt>
      <trkpt lat="64.7217" lon="11.48881">
        <ele>54.470265</ele>
        <time>2020-08-11T11:04:25.506Z</time>
      </trkpt>
      <trkpt lat="64.72173" lon="11.48902">
        <ele>54.233143</ele>
        <time>2020-08-11T11:04:26.514Z</time>
      </trkpt>
      <trkpt lat="64.72176" lon="11.48922">
        <ele>54.004528</ele>
        <time>2020-08-11T11:04:27.520Z</time>
      </trkpt>
      <trkpt lat="64.72182" lon="11.4896">
        <ele>53.570119</ele>
        <time>2020-08-11T11:04:29.544Z</time>
      </trkpt>
      <trkpt lat="64.72187" lon="11.48995">
        <ele>53.177544</ele>
        <time>2020-08-11T11:04:31.519Z</time>
      </trkpt>
      <trkpt lat="64.72193" lon="11.49026">
        <ele>53.255567</ele>
        <time>2020-08-11T11:04:33.502Z</time>
      </trkpt>
      <trkpt lat="64.72197" lon="11.49052">
        <ele>54.112937</ele>
        <time>2020-08-11T11:04:35.520Z</time>
      </trkpt>
      <trkpt lat="64.722" lon="11.49075">
        <ele>54.847436</ele>
        <time>2020-08-11T11:04:37.514Z</time>
      </trkpt>
      <trkpt lat="64.72203" lon="11.49102">
        <ele>55.723203</ele>
        <time>2020-08-11T11:04:40.507Z</time>
      </trkpt>
      <trkpt lat="64.72206" lon="11.49123">
        <ele>56.384517</ele>
        <time>2020-08-11T11:04:43.547Z</time>
      </trkpt>
      <trkpt lat="64.72208" lon="11.49148">
        <ele>57.168799</ele>
        <time>2020-08-11T11:04:48.515Z</time>
      </trkpt>
      <trkpt lat="64.7221" lon="11.49172">
        <ele>57.938041</ele>
        <time>2020-08-11T11:04:53.553Z</time>
      </trkpt>
      <trkpt lat="64.72214" lon="11.49192">
        <ele>58.587967</ele>
        <time>2020-08-11T11:04:57.543Z</time>
      </trkpt>
      <trkpt lat="64.72216" lon="11.49216">
        <ele>59.355719</ele>
        <time>2020-08-11T11:05:02.517Z</time>
      </trkpt>
      <trkpt lat="64.72218" lon="11.49241">
        <ele>60.13773</ele>
        <time>2020-08-11T11:05:07.508Z</time>
      </trkpt>
      <trkpt lat="64.7222" lon="11.49262">
        <ele>60.790847</ele>
        <time>2020-08-11T11:05:11.529Z</time>
      </trkpt>
      <trkpt lat="64.72223" lon="11.49283">
        <ele>61.469739</ele>
        <time>2020-08-11T11:05:15.510Z</time>
      </trkpt>
      <trkpt lat="64.72226" lon="11.49304">
        <ele>62.138597</ele>
        <time>2020-08-11T11:05:19.538Z</time>
      </trkpt>
      <trkpt lat="64.72229" lon="11.49325">
        <ele>62.849254</ele>
        <time>2020-08-11T11:05:23.531Z</time>
      </trkpt>
      <trkpt lat="64.72231" lon="11.49346">
        <ele>63.506448</ele>
        <time>2020-08-11T11:05:27.503Z</time>
      </trkpt>
      <trkpt lat="64.72234" lon="11.49367">
        <ele>64.175122</ele>
        <time>2020-08-11T11:05:31.534Z</time>
      </trkpt>
      <trkpt lat="64.72237" lon="11.4939">
        <ele>64.917719</ele>
        <time>2020-08-11T11:05:35.513Z</time>
      </trkpt>
      <trkpt lat="64.72239" lon="11.49412">
        <ele>65.615386</ele>
        <time>2020-08-11T11:05:39.530Z</time>
      </trkpt>
      <trkpt lat="64.72243" lon="11.49435">
        <ele>65.911628</ele>
        <time>2020-08-11T11:05:43.513Z</time>
      </trkpt>
      <trkpt lat="64.72247" lon="11.49457">
        <ele>65.967132</ele>
        <time>2020-08-11T11:05:47.511Z</time>
      </trkpt>
      <trkpt lat="64.72252" lon="11.49476">
        <ele>66.017054</ele>
        <time>2020-08-11T11:05:50.523Z</time>
      </trkpt>
      <trkpt lat="64.72257" lon="11.49497">
        <ele>66.069532</ele>
        <time>2020-08-11T11:05:53.510Z</time>
      </trkpt>
      <trkpt lat="64.72262" lon="11.49518">
        <ele>66.122694</ele>
        <time>2020-08-11T11:05:56.499Z</time>
      </trkpt>
      <trkpt lat="64.72267" lon="11.49541">
        <ele>66.181918</ele>
        <time>2020-08-11T11:05:59.514Z</time>
      </trkpt>
      <trkpt lat="64.72273" lon="11.49568">
        <ele>66.247709</ele>
        <time>2020-08-11T11:06:02.570Z</time>
      </trkpt>
      <trkpt lat="64.72277" lon="11.49587">
        <ele>66.297685</ele>
        <time>2020-08-11T11:06:04.545Z</time>
      </trkpt>
      <trkpt lat="64.72283" lon="11.49608">
        <ele>66.350445</ele>
        <time>2020-08-11T11:06:06.523Z</time>
      </trkpt>
      <trkpt lat="64.72287" lon="11.49629">
        <ele>66.404988</ele>
        <time>2020-08-11T11:06:08.514Z</time>
      </trkpt>
      <trkpt lat="64.72292" lon="11.49652">
        <ele>66.461995</ele>
        <time>2020-08-11T11:06:10.520Z</time>
      </trkpt>
      <trkpt lat="64.72297" lon="11.49677">
        <ele>66.523579</ele>
        <time>2020-08-11T11:06:12.524Z</time>
      </trkpt>
      <trkpt lat="64.72303" lon="11.49703">
        <ele>66.589459</ele>
        <time>2020-08-11T11:06:14.522Z</time>
      </trkpt>
      <trkpt lat="64.72309" lon="11.4973">
        <ele>66.657831</ele>
        <time>2020-08-11T11:06:16.548Z</time>
      </trkpt>
      <trkpt lat="64.72316" lon="11.49758">
        <ele>66.729798</ele>
        <time>2020-08-11T11:06:18.529Z</time>
      </trkpt>
      <trkpt lat="64.72323" lon="11.49788">
        <ele>66.804721</ele>
        <time>2020-08-11T11:06:20.519Z</time>
      </trkpt>
      <trkpt lat="64.7233" lon="11.49818">
        <ele>66.652811</ele>
        <time>2020-08-11T11:06:22.506Z</time>
      </trkpt>
      <trkpt lat="64.72336" lon="11.49849">
        <ele>66.456478</ele>
        <time>2020-08-11T11:06:24.537Z</time>
      </trkpt>
      <trkpt lat="64.72343" lon="11.49878">
        <ele>66.266922</ele>
        <time>2020-08-11T11:06:26.572Z</time>
      </trkpt>
      <trkpt lat="64.72349" lon="11.49906">
        <ele>66.082592</ele>
        <time>2020-08-11T11:06:28.498Z</time>
      </trkpt>
      <trkpt lat="64.72355" lon="11.49933">
        <ele>65.908815</ele>
        <time>2020-08-11T11:06:30.512Z</time>
      </trkpt>
      <trkpt lat="64.7236" lon="11.49958">
        <ele>65.744786</ele>
        <time>2020-08-11T11:06:32.503Z</time>
      </trkpt>
      <trkpt lat="64.72365" lon="11.4998">
        <ele>65.601111</ele>
        <time>2020-08-11T11:06:34.500Z</time>
      </trkpt>
      <trkpt lat="64.72371" lon="11.5">
        <ele>65.466245</ele>
        <time>2020-08-11T11:06:36.502Z</time>
      </trkpt>
      <trkpt lat="64.72375" lon="11.5002">
        <ele>65.33655</ele>
        <time>2020-08-11T11:06:38.528Z</time>
      </trkpt>
      <trkpt lat="64.72379" lon="11.50039">
        <ele>65.211678</ele>
        <time>2020-08-11T11:06:40.506Z</time>
      </trkpt>
      <trkpt lat="64.72384" lon="11.50058">
        <ele>65.087695</ele>
        <time>2020-08-11T11:06:42.515Z</time>
      </trkpt>
      <trkpt lat="64.72388" lon="11.50077">
        <ele>64.963334</ele>
        <time>2020-08-11T11:06:44.512Z</time>
      </trkpt>
      <trkpt lat="64.72392" lon="11.50097">
        <ele>64.837747</ele>
        <time>2020-08-11T11:06:46.550Z</time>
      </trkpt>
      <trkpt lat="64.72396" lon="11.50118">
        <ele>64.703143</ele>
        <time>2020-08-11T11:06:48.573Z</time>
      </trkpt>
      <trkpt lat="64.72401" lon="11.50139">
        <ele>64.566969</ele>
        <time>2020-08-11T11:06:50.531Z</time>
      </trkpt>
      <trkpt lat="64.72406" lon="11.5016">
        <ele>64.43216</ele>
        <time>2020-08-11T11:06:52.502Z</time>
      </trkpt>
      <trkpt lat="64.72411" lon="11.50181">
        <ele>64.155974</ele>
        <time>2020-08-11T11:06:54.506Z</time>
      </trkpt>
      <trkpt lat="64.72417" lon="11.50204">
        <ele>63.808063</ele>
        <time>2020-08-11T11:06:56.502Z</time>
      </trkpt>
      <trkpt lat="64.72423" lon="11.50226">
        <ele>63.476443</ele>
        <time>2020-08-11T11:06:58.503Z</time>
      </trkpt>
      <trkpt lat="64.72428" lon="11.5025">
        <ele>63.129583</ele>
        <time>2020-08-11T11:07:00.531Z</time>
      </trkpt>
      <trkpt lat="64.72433" lon="11.50274">
        <ele>62.782724</ele>
        <time>2020-08-11T11:07:02.507Z</time>
      </trkpt>
      <trkpt lat="64.72439" lon="11.50297">
        <ele>62.432407</ele>
        <time>2020-08-11T11:07:04.522Z</time>
      </trkpt>
      <trkpt lat="64.72445" lon="11.50322">
        <ele>62.068785</ele>
        <time>2020-08-11T11:07:06.501Z</time>
      </trkpt>
      <trkpt lat="64.7245" lon="11.50346">
        <ele>61.710414</ele>
        <time>2020-08-11T11:07:08.545Z</time>
      </trkpt>
      <trkpt lat="64.72456" lon="11.5037">
        <ele>61.35351</ele>
        <time>2020-08-11T11:07:10.506Z</time>
      </trkpt>
      <trkpt lat="64.72462" lon="11.50395">
        <ele>60.97814</ele>
        <time>2020-08-11T11:07:12.500Z</time>
      </trkpt>
      <trkpt lat="64.72468" lon="11.50421">
        <ele>60.58424</ele>
        <time>2020-08-11T11:07:14.513Z</time>
      </trkpt>
      <trkpt lat="64.72475" lon="11.5045">
        <ele>60.169092</ele>
        <time>2020-08-11T11:07:16.501Z</time>
      </trkpt>
      <trkpt lat="64.72481" lon="11.50478">
        <ele>59.74931</ele>
        <time>2020-08-11T11:07:18.508Z</time>
      </trkpt>
      <trkpt lat="64.72488" lon="11.50506">
        <ele>59.328718</ele>
        <time>2020-08-11T11:07:20.506Z</time>
      </trkpt>
      <trkpt lat="64.72495" lon="11.50534">
        <ele>58.912389</ele>
        <time>2020-08-11T11:07:22.506Z</time>
      </trkpt>
      <trkpt lat="64.72502" lon="11.50564">
        <ele>58.965856</ele>
        <time>2020-08-11T11:07:24.520Z</time>
      </trkpt>
      <trkpt lat="64.7251" lon="11.50594">
        <ele>59.019233</ele>
        <time>2020-08-11T11:07:26.501Z</time>
      </trkpt>
      <trkpt lat="64.72516" lon="11.50623">
        <ele>59.071811</ele>
        <time>2020-08-11T11:07:28.502Z</time>
      </trkpt>
      <trkpt lat="64.72523" lon="11.50652">
        <ele>59.121881</ele>
        <time>2020-08-11T11:07:30.517Z</time>
      </trkpt>
      <trkpt lat="64.72529" lon="11.5068">
        <ele>59.170037</ele>
        <time>2020-08-11T11:07:32.508Z</time>
      </trkpt>
      <trkpt lat="64.72534" lon="11.50707">
        <ele>59.217402</ele>
        <time>2020-08-11T11:07:34.525Z</time>
      </trkpt>
      <trkpt lat="64.7254" lon="11.50733">
        <ele>59.262341</ele>
        <time>2020-08-11T11:07:36.512Z</time>
      </trkpt>
      <trkpt lat="64.72546" lon="11.50756">
        <ele>59.304604</ele>
        <time>2020-08-11T11:07:38.505Z</time>
      </trkpt>
      <trkpt lat="64.72551" lon="11.50776">
        <ele>59.341391</ele>
        <time>2020-08-11T11:07:40.504Z</time>
      </trkpt>
      <trkpt lat="64.72559" lon="11.508">
        <ele>59.38855</ele>
        <time>2020-08-11T11:07:43.501Z</time>
      </trkpt>
      <trkpt lat="64.72564" lon="11.50817">
        <ele>59.421516</ele>
        <time>2020-08-11T11:07:46.521Z</time>
      </trkpt>
      <trkpt lat="64.72569" lon="11.50836">
        <ele>59.456608</ele>
        <time>2020-08-11T11:07:50.494Z</time>
      </trkpt>
      <trkpt lat="64.72575" lon="11.50857">
        <ele>59.495562</ele>
        <time>2020-08-11T11:07:55.510Z</time>
      </trkpt>
      <trkpt lat="64.72581" lon="11.50875">
        <ele>59.53105</ele>
        <time>2020-08-11T11:08:00.517Z</time>
      </trkpt>
      <trkpt lat="64.72588" lon="11.50894">
        <ele>59.592138</ele>
        <time>2020-08-11T11:08:05.506Z</time>
      </trkpt>
      <trkpt lat="64.72595" lon="11.50913">
        <ele>60.117159</ele>
        <time>2020-08-11T11:08:10.509Z</time>
      </trkpt>
      <trkpt lat="64.72601" lon="11.50933">
        <ele>60.65692</ele>
        <time>2020-08-11T11:08:15.517Z</time>
      </trkpt>
      <trkpt lat="64.72607" lon="11.50953">
        <ele>61.192752</ele>
        <time>2020-08-11T11:08:20.525Z</time>
      </trkpt>
      <trkpt lat="64.72614" lon="11.50972">
        <ele>61.734022</ele>
        <time>2020-08-11T11:08:25.503Z</time>
      </trkpt>
      <trkpt lat="64.72621" lon="11.50989">
        <ele>62.223258</ele>
        <time>2020-08-11T11:08:29.531Z</time>
      </trkpt>
      <trkpt lat="64.72627" lon="11.51007">
        <ele>62.706712</ele>
        <time>2020-08-11T11:08:33.513Z</time>
      </trkpt>
      <trkpt lat="64.72633" lon="11.51026">
        <ele>63.235008</ele>
        <time>2020-08-11T11:08:37.505Z</time>
      </trkpt>
      <trkpt lat="64.7264" lon="11.51047">
        <ele>63.773584</ele>
        <time>2020-08-11T11:08:41.506Z</time>
      </trkpt>
      <trkpt lat="64.72647" lon="11.51067">
        <ele>64.329555</ele>
        <time>2020-08-11T11:08:45.529Z</time>
      </trkpt>
      <trkpt lat="64.72653" lon="11.5109">
        <ele>64.924447</ele>
        <time>2020-08-11T11:08:49.514Z</time>
      </trkpt>
      <trkpt lat="64.72659" lon="11.5111">
        <ele>65.422724</ele>
        <time>2020-08-11T11:08:52.492Z</time>
      </trkpt>
      <trkpt lat="64.72665" lon="11.51133">
        <ele>66.008661</ele>
        <time>2020-08-11T11:08:55.498Z</time>
      </trkpt>
      <trkpt lat="64.72672" lon="11.51157">
        <ele>66.641684</ele>
        <time>2020-08-11T11:08:58.513Z</time>
      </trkpt>
      <trkpt lat="64.72677" lon="11.51175">
        <ele>67.102051</ele>
        <time>2020-08-11T11:09:00.512Z</time>
      </trkpt>
      <trkpt lat="64.72682" lon="11.51194">
        <ele>67.57775</ele>
        <time>2020-08-11T11:09:02.507Z</time>
      </trkpt>
      <trkpt lat="64.72687" lon="11.51214">
        <ele>68.089555</ele>
        <time>2020-08-11T11:09:04.548Z</time>
      </trkpt>
      <trkpt lat="64.72693" lon="11.51235">
        <ele>68.590753</ele>
        <time>2020-08-11T11:09:06.534Z</time>
      </trkpt>
      <trkpt lat="64.72699" lon="11.51256">
        <ele>68.374887</ele>
        <time>2020-08-11T11:09:08.510Z</time>
      </trkpt>
      <trkpt lat="64.72705" lon="11.51277">
        <ele>68.15939</ele>
        <time>2020-08-11T11:09:10.525Z</time>
      </trkpt>
      <trkpt lat="64.7271" lon="11.51298">
        <ele>67.94691</ele>
        <time>2020-08-11T11:09:12.527Z</time>
      </trkpt>
      <trkpt lat="64.72715" lon="11.51319">
        <ele>67.740415</ele>
        <time>2020-08-11T11:09:14.534Z</time>
      </trkpt>
      <trkpt lat="64.7272" lon="11.51339">
        <ele>67.539674</ele>
        <time>2020-08-11T11:09:16.506Z</time>
      </trkpt>
      <trkpt lat="64.72724" lon="11.51359">
        <ele>67.344468</ele>
        <time>2020-08-11T11:09:18.512Z</time>
      </trkpt>
      <trkpt lat="64.7273" lon="11.51387">
        <ele>67.077404</ele>
        <time>2020-08-11T11:09:21.530Z</time>
      </trkpt>
      <trkpt lat="64.72734" lon="11.51413">
        <ele>66.833318</ele>
        <time>2020-08-11T11:09:24.554Z</time>
      </trkpt>
      <trkpt lat="64.72738" lon="11.5144">
        <ele>66.589346</ele>
        <time>2020-08-11T11:09:27.499Z</time>
      </trkpt>
      <trkpt lat="64.72742" lon="11.51463">
        <ele>66.369394</ele>
        <time>2020-08-11T11:09:30.509Z</time>
      </trkpt>
      <trkpt lat="64.72746" lon="11.51485">
        <ele>66.164682</ele>
        <time>2020-08-11T11:09:33.513Z</time>
      </trkpt>
      <trkpt lat="64.7275" lon="11.51507">
        <ele>65.962391</ele>
        <time>2020-08-11T11:09:36.554Z</time>
      </trkpt>
      <trkpt lat="64.72754" lon="11.51528">
        <ele>65.762357</ele>
        <time>2020-08-11T11:09:39.515Z</time>
      </trkpt>
      <trkpt lat="64.72759" lon="11.51548">
        <ele>65.565342</ele>
        <time>2020-08-11T11:09:42.527Z</time>
      </trkpt>
      <trkpt lat="64.72762" lon="11.5157">
        <ele>65.358784</ele>
        <time>2020-08-11T11:09:45.562Z</time>
      </trkpt>
      <trkpt lat="64.72766" lon="11.51593">
        <ele>65.141362</ele>
        <time>2020-08-11T11:09:48.509Z</time>
      </trkpt>
      <trkpt lat="64.7277" lon="11.51616">
        <ele>64.916382</ele>
        <time>2020-08-11T11:09:51.527Z</time>
      </trkpt>
      <trkpt lat="64.72774" lon="11.5164">
        <ele>64.582086</ele>
        <time>2020-08-11T11:09:54.536Z</time>
      </trkpt>
      <trkpt lat="64.72778" lon="11.51666">
        <ele>64.214438</ele>
        <time>2020-08-11T11:09:57.566Z</time>
      </trkpt>
      <trkpt lat="64.72783" lon="11.51694">
        <ele>63.819489</ele>
        <time>2020-08-11T11:10:00.545Z</time>
      </trkpt>
      <trkpt lat="64.72788" lon="11.51722">
        <ele>63.404874</ele>
        <time>2020-08-11T11:10:03.522Z</time>
      </trkpt>
      <trkpt lat="64.72792" lon="11.51743">
        <ele>63.106207</ele>
        <time>2020-08-11T11:10:05.499Z</time>
      </trkpt>
      <trkpt lat="64.72796" lon="11.51764">
        <ele>62.795377</ele>
        <time>2020-08-11T11:10:07.522Z</time>
      </trkpt>
      <trkpt lat="64.728" lon="11.51787">
        <ele>62.46126</ele>
        <time>2020-08-11T11:10:09.511Z</time>
      </trkpt>
      <trkpt lat="64.72805" lon="11.51813">
        <ele>62.088267</ele>
        <time>2020-08-11T11:10:11.514Z</time>
      </trkpt>
      <trkpt lat="64.72811" lon="11.51841">
        <ele>61.682176</ele>
        <time>2020-08-11T11:10:13.511Z</time>
      </trkpt>
      <trkpt lat="64.72816" lon="11.51871">
        <ele>61.250589</ele>
        <time>2020-08-11T11:10:15.503Z</time>
      </trkpt>
      <trkpt lat="64.72822" lon="11.51903">
        <ele>60.782427</ele>
        <time>2020-08-11T11:10:17.501Z</time>
      </trkpt>
      <trkpt lat="64.72829" lon="11.51936">
        <ele>60.303736</ele>
        <time>2020-08-11T11:10:19.503Z</time>
      </trkpt>
      <trkpt lat="64.72837" lon="11.51967">
        <ele>59.811819</ele>
        <time>2020-08-11T11:10:21.539Z</time>
      </trkpt>
      <trkpt lat="64.72846" lon="11.51998">
        <ele>59.324826</ele>
        <time>2020-08-11T11:10:23.500Z</time>
      </trkpt>
      <trkpt lat="64.72857" lon="11.52026">
        <ele>58.913361</ele>
        <time>2020-08-11T11:10:25.501Z</time>
      </trkpt>
      <trkpt lat="64.72868" lon="11.52052">
        <ele>58.508391</ele>
        <time>2020-08-11T11:10:27.503Z</time>
      </trkpt>
      <trkpt lat="64.7288" lon="11.52075">
        <ele>58.111485</ele>
        <time>2020-08-11T11:10:29.522Z</time>
      </trkpt>
      <trkpt lat="64.72891" lon="11.52098">
        <ele>57.728267</ele>
        <time>2020-08-11T11:10:31.501Z</time>
      </trkpt>
      <trkpt lat="64.72901" lon="11.5212">
        <ele>57.377192</ele>
        <time>2020-08-11T11:10:33.520Z</time>
      </trkpt>
      <trkpt lat="64.7291" lon="11.5214">
        <ele>57.04679</ele>
        <time>2020-08-11T11:10:35.504Z</time>
      </trkpt>
      <trkpt lat="64.72919" lon="11.52158">
        <ele>56.753703</ele>
        <time>2020-08-11T11:10:37.524Z</time>
      </trkpt>
      <trkpt lat="64.72927" lon="11.52175">
        <ele>56.474585</ele>
        <time>2020-08-11T11:10:39.498Z</time>
      </trkpt>
      <trkpt lat="64.72934" lon="11.52192">
        <ele>56.202248</ele>
        <time>2020-08-11T11:10:41.519Z</time>
      </trkpt>
      <trkpt lat="64.72941" lon="11.52209">
        <ele>55.94697</ele>
        <time>2020-08-11T11:10:43.503Z</time>
      </trkpt>
      <trkpt lat="64.72948" lon="11.52226">
        <ele>55.691236</ele>
        <time>2020-08-11T11:10:45.561Z</time>
      </trkpt>
      <trkpt lat="64.72955" lon="11.52243">
        <ele>55.431789</ele>
        <time>2020-08-11T11:10:47.539Z</time>
      </trkpt>
      <trkpt lat="64.72961" lon="11.52259">
        <ele>55.181853</ele>
        <time>2020-08-11T11:10:49.528Z</time>
      </trkpt>
      <trkpt lat="64.72968" lon="11.52275">
        <ele>54.940271</ele>
        <time>2020-08-11T11:10:51.501Z</time>
      </trkpt>
      <trkpt lat="64.72975" lon="11.5229">
        <ele>54.731457</ele>
        <time>2020-08-11T11:10:53.519Z</time>
      </trkpt>
      <trkpt lat="64.72984" lon="11.52308">
        <ele>54.810171</ele>
        <time>2020-08-11T11:10:56.511Z</time>
      </trkpt>
      <trkpt lat="64.72992" lon="11.52325">
        <ele>54.885195</ele>
        <time>2020-08-11T11:11:00.510Z</time>
      </trkpt>
      <trkpt lat="64.72998" lon="11.5234">
        <ele>54.945406</ele>
        <time>2020-08-11T11:11:03.508Z</time>
      </trkpt>
      <trkpt lat="64.73006" lon="11.52357">
        <ele>55.014395</ele>
        <time>2020-08-11T11:11:06.523Z</time>
      </trkpt>
      <trkpt lat="64.73015" lon="11.52373">
        <ele>55.089368</ele>
        <time>2020-08-11T11:11:09.539Z</time>
      </trkpt>
      <trkpt lat="64.73024" lon="11.52391">
        <ele>55.172045</ele>
        <time>2020-08-11T11:11:12.510Z</time>
      </trkpt>
      <trkpt lat="64.73033" lon="11.52408">
        <ele>55.247762</ele>
        <time>2020-08-11T11:11:15.533Z</time>
      </trkpt>
      <trkpt lat="64.73042" lon="11.52424">
        <ele>55.320827</ele>
        <time>2020-08-11T11:11:18.498Z</time>
      </trkpt>
      <trkpt lat="64.7305" lon="11.52438">
        <ele>55.389519</ele>
        <time>2020-08-11T11:11:21.515Z</time>
      </trkpt>
      <trkpt lat="64.73058" lon="11.52451">
        <ele>55.455928</ele>
        <time>2020-08-11T11:11:24.523Z</time>
      </trkpt>
      <trkpt lat="64.73066" lon="11.52464">
        <ele>55.520518</ele>
        <time>2020-08-11T11:11:27.512Z</time>
      </trkpt>
      <trkpt lat="64.73077" lon="11.52477">
        <ele>55.599245</ele>
        <time>2020-08-11T11:11:31.563Z</time>
      </trkpt>
      <trkpt lat="64.73087" lon="11.52489">
        <ele>55.67803</ele>
        <time>2020-08-11T11:11:35.531Z</time>
      </trkpt>
      <trkpt lat="64.73098" lon="11.525">
        <ele>55.755049</ele>
        <time>2020-08-11T11:11:39.506Z</time>
      </trkpt>
      <trkpt lat="64.73108" lon="11.52509">
        <ele>55.82721</ele>
        <time>2020-08-11T11:11:43.525Z</time>
      </trkpt>
      <trkpt lat="64.73118" lon="11.52517">
        <ele>55.895136</ele>
        <time>2020-08-11T11:11:47.528Z</time>
      </trkpt>
      <trkpt lat="64.73127" lon="11.52524">
        <ele>55.983664</ele>
        <time>2020-08-11T11:11:51.522Z</time>
      </trkpt>
      <trkpt lat="64.73138" lon="11.5253">
        <ele>56.103148</ele>
        <time>2020-08-11T11:11:55.501Z</time>
      </trkpt>
      <trkpt lat="64.73148" lon="11.52535">
        <ele>56.2151</ele>
        <time>2020-08-11T11:11:59.548Z</time>
      </trkpt>
      <trkpt lat="64.73158" lon="11.5254">
        <ele>56.332218</ele>
        <time>2020-08-11T11:12:03.496Z</time>
      </trkpt>
      <trkpt lat="64.73169" lon="11.52544">
        <ele>56.453387</ele>
        <time>2020-08-11T11:12:07.530Z</time>
      </trkpt>
      <trkpt lat="64.73178" lon="11.52545">
        <ele>56.551304</ele>
        <time>2020-08-11T11:12:10.547Z</time>
      </trkpt>
      <trkpt lat="64.7319" lon="11.52545">
        <ele>56.678505</ele>
        <time>2020-08-11T11:12:14.542Z</time>
      </trkpt>
      <trkpt lat="64.73202" lon="11.52542">
        <ele>56.803948</ele>
        <time>2020-08-11T11:12:18.549Z</time>
      </trkpt>
      <trkpt lat="64.73211" lon="11.52541">
        <ele>56.903234</ele>
        <time>2020-08-11T11:12:21.513Z</time>
      </trkpt>
      <trkpt lat="64.7322" lon="11.52538">
        <ele>57.005361</ele>
        <time>2020-08-11T11:12:24.506Z</time>
      </trkpt>
      <trkpt lat="64.73229" lon="11.52533">
        <ele>57.103188</ele>
        <time>2020-08-11T11:12:27.515Z</time>
      </trkpt>
      <trkpt lat="64.73238" lon="11.52529">
        <ele>57.205366</ele>
        <time>2020-08-11T11:12:30.506Z</time>
      </trkpt>
      <trkpt lat="64.73247" lon="11.52522">
        <ele>57.306108</ele>
        <time>2020-08-11T11:12:33.505Z</time>
      </trkpt>
      <trkpt lat="64.73256" lon="11.52515">
        <ele>57.413342</ele>
        <time>2020-08-11T11:12:36.498Z</time>
      </trkpt>
      <trkpt lat="64.73266" lon="11.52508">
        <ele>57.521895</ele>
        <time>2020-08-11T11:12:39.511Z</time>
      </trkpt>
      <trkpt lat="64.73275" lon="11.525">
        <ele>57.630158</ele>
        <time>2020-08-11T11:12:42.573Z</time>
      </trkpt>
      <trkpt lat="64.73286" lon="11.52491">
        <ele>57.750935</ele>
        <time>2020-08-11T11:12:45.496Z</time>
      </trkpt>
      <trkpt lat="64.73295" lon="11.52482">
        <ele>57.863876</ele>
        <time>2020-08-11T11:12:48.514Z</time>
      </trkpt>
      <trkpt lat="64.73305" lon="11.52473">
        <ele>58.076109</ele>
        <time>2020-08-11T11:12:51.516Z</time>
      </trkpt>
      <trkpt lat="64.73315" lon="11.52467">
        <ele>58.307037</ele>
        <time>2020-08-11T11:12:54.534Z</time>
      </trkpt>
      <trkpt lat="64.73326" lon="11.52458">
        <ele>58.541723</ele>
        <time>2020-08-11T11:12:57.519Z</time>
      </trkpt>
      <trkpt lat="64.73336" lon="11.52449">
        <ele>58.779926</ele>
        <time>2020-08-11T11:13:00.513Z</time>
      </trkpt>
      <trkpt lat="64.73347" lon="11.52441">
        <ele>59.028073</ele>
        <time>2020-08-11T11:13:03.514Z</time>
      </trkpt>
      <trkpt lat="64.73359" lon="11.5243">
        <ele>59.307441</ele>
        <time>2020-08-11T11:13:06.511Z</time>
      </trkpt>
      <trkpt lat="64.73369" lon="11.52423">
        <ele>59.525148</ele>
        <time>2020-08-11T11:13:08.502Z</time>
      </trkpt>
      <trkpt lat="64.73379" lon="11.52416">
        <ele>59.765151</ele>
        <time>2020-08-11T11:13:10.503Z</time>
      </trkpt>
      <trkpt lat="64.73391" lon="11.52409">
        <ele>60.022105</ele>
        <time>2020-08-11T11:13:12.527Z</time>
      </trkpt>
      <trkpt lat="64.73403" lon="11.52403">
        <ele>60.302102</ele>
        <time>2020-08-11T11:13:14.508Z</time>
      </trkpt>
      <trkpt lat="64.73417" lon="11.52399">
        <ele>60.598298</ele>
        <time>2020-08-11T11:13:16.527Z</time>
      </trkpt>
      <trkpt lat="64.73431" lon="11.52399">
        <ele>60.892424</ele>
        <time>2020-08-11T11:13:18.502Z</time>
      </trkpt>
      <trkpt lat="64.73443" lon="11.52401">
        <ele>61.158941</ele>
        <time>2020-08-11T11:13:20.546Z</time>
      </trkpt>
      <trkpt lat="64.73454" lon="11.52407">
        <ele>61.402575</ele>
        <time>2020-08-11T11:13:22.523Z</time>
      </trkpt>
      <trkpt lat="64.73463" lon="11.52414">
        <ele>61.614103</ele>
        <time>2020-08-11T11:13:24.511Z</time>
      </trkpt>
      <trkpt lat="64.73475" lon="11.52424">
        <ele>62.074836</ele>
        <time>2020-08-11T11:13:27.504Z</time>
      </trkpt>
      <trkpt lat="64.73484" lon="11.52434">
        <ele>62.633306</ele>
        <time>2020-08-11T11:13:30.514Z</time>
      </trkpt>
      <trkpt lat="64.73493" lon="11.52446">
        <ele>63.19151</ele>
        <time>2020-08-11T11:13:35.507Z</time>
      </trkpt>
      <trkpt lat="64.735" lon="11.52459">
        <ele>63.735342</ele>
        <time>2020-08-11T11:13:41.508Z</time>
      </trkpt>
      <trkpt lat="64.73507" lon="11.52475">
        <ele>64.26471</ele>
        <time>2020-08-11T11:13:47.537Z</time>
      </trkpt>
      <trkpt lat="64.73512" lon="11.52494">
        <ele>64.802809</ele>
        <time>2020-08-11T11:13:53.520Z</time>
      </trkpt>
      <trkpt lat="64.73518" lon="11.52514">
        <ele>65.389035</ele>
        <time>2020-08-11T11:14:00.512Z</time>
      </trkpt>
      <trkpt lat="64.73521" lon="11.52536">
        <ele>65.961057</ele>
        <time>2020-08-11T11:14:07.508Z</time>
      </trkpt>
      <trkpt lat="64.73526" lon="11.52555">
        <ele>66.485398</ele>
        <time>2020-08-11T11:14:14.508Z</time>
      </trkpt>
      <trkpt lat="64.73531" lon="11.52573">
        <ele>67.014126</ele>
        <time>2020-08-11T11:14:20.507Z</time>
      </trkpt>
      <trkpt lat="64.73537" lon="11.52591">
        <ele>67.533701</ele>
        <time>2020-08-11T11:14:26.556Z</time>
      </trkpt>
      <trkpt lat="64.7354" lon="11.52612">
        <ele>68.080328</ele>
        <time>2020-08-11T11:14:32.514Z</time>
      </trkpt>
      <trkpt lat="64.73545" lon="11.52629">
        <ele>68.586922</ele>
        <time>2020-08-11T11:14:37.518Z</time>
      </trkpt>
      <trkpt lat="64.73551" lon="11.5265">
        <ele>69.182706</ele>
        <time>2020-08-11T11:14:42.523Z</time>
      </trkpt>
      <trkpt lat="64.73557" lon="11.5267">
        <ele>69.751368</ele>
        <time>2020-08-11T11:14:47.496Z</time>
      </trkpt>
      <trkpt lat="64.73562" lon="11.52689">
        <ele>70.310889</ele>
        <time>2020-08-11T11:14:52.509Z</time>
      </trkpt>
      <trkpt lat="64.73569" lon="11.52705">
        <ele>70.847333</ele>
        <time>2020-08-11T11:14:56.509Z</time>
      </trkpt>
      <trkpt lat="64.73574" lon="11.52723">
        <ele>71.370226</ele>
        <time>2020-08-11T11:15:00.527Z</time>
      </trkpt>
      <trkpt lat="64.73582" lon="11.52742">
        <ele>72.040639</ele>
        <time>2020-08-11T11:15:05.514Z</time>
      </trkpt>
      <trkpt lat="64.73589" lon="11.52757">
        <ele>72.841651</ele>
        <time>2020-08-11T11:15:09.563Z</time>
      </trkpt>
      <trkpt lat="64.73596" lon="11.52771">
        <ele>73.628545</ele>
        <time>2020-08-11T11:15:13.526Z</time>
      </trkpt>
      <trkpt lat="64.73604" lon="11.52789">
        <ele>74.565947</ele>
        <time>2020-08-11T11:15:18.543Z</time>
      </trkpt>
      <trkpt lat="64.73611" lon="11.52803">
        <ele>75.340316</ele>
        <time>2020-08-11T11:15:22.507Z</time>
      </trkpt>
      <trkpt lat="64.73618" lon="11.5282">
        <ele>76.223106</ele>
        <time>2020-08-11T11:15:27.548Z</time>
      </trkpt>
      <trkpt lat="64.73626" lon="11.52833">
        <ele>77.05265</ele>
        <time>2020-08-11T11:15:31.549Z</time>
      </trkpt>
      <trkpt lat="64.73633" lon="11.52848">
        <ele>77.846281</ele>
        <time>2020-08-11T11:15:35.524Z</time>
      </trkpt>
      <trkpt lat="64.7364" lon="11.52866">
        <ele>78.739533</ele>
        <time>2020-08-11T11:15:40.513Z</time>
      </trkpt>
      <trkpt lat="64.73647" lon="11.52882">
        <ele>79.568234</ele>
        <time>2020-08-11T11:15:45.532Z</time>
      </trkpt>
      <trkpt lat="64.73654" lon="11.52896">
        <ele>80.330873</ele>
        <time>2020-08-11T11:15:50.514Z</time>
      </trkpt>
      <trkpt lat="64.73659" lon="11.52915">
        <ele>81.117629</ele>
        <time>2020-08-11T11:15:56.493Z</time>
      </trkpt>
      <trkpt lat="64.73664" lon="11.52933">
        <ele>81.916244</ele>
        <time>2020-08-11T11:16:02.518Z</time>
      </trkpt>
      <trkpt lat="64.73671" lon="11.52951">
        <ele>82.800456</ele>
        <time>2020-08-11T11:16:09.503Z</time>
      </trkpt>
      <trkpt lat="64.73676" lon="11.52973">
        <ele>83.682663</ele>
        <time>2020-08-11T11:16:16.505Z</time>
      </trkpt>
      <trkpt lat="64.73682" lon="11.5299">
        <ele>84.482064</ele>
        <time>2020-08-11T11:16:22.524Z</time>
      </trkpt>
      <trkpt lat="64.73687" lon="11.5301">
        <ele>85.348162</ele>
        <time>2020-08-11T11:16:29.542Z</time>
      </trkpt>
      <trkpt lat="64.73693" lon="11.53028">
        <ele>86.124206</ele>
        <time>2020-08-11T11:16:35.516Z</time>
      </trkpt>
      <trkpt lat="64.73695" lon="11.5305">
        <ele>86.970956</ele>
        <time>2020-08-11T11:16:42.537Z</time>
      </trkpt>
      <trkpt lat="64.737" lon="11.53068">
        <ele>87.218074</ele>
        <time>2020-08-11T11:16:48.522Z</time>
      </trkpt>
      <trkpt lat="64.73705" lon="11.53087">
        <ele>87.286944</ele>
        <time>2020-08-11T11:16:54.506Z</time>
      </trkpt>
      <trkpt lat="64.73709" lon="11.53108">
        <ele>87.360732</ele>
        <time>2020-08-11T11:17:00.557Z</time>
      </trkpt>
      <trkpt lat="64.73714" lon="11.53129">
        <ele>87.434038</ele>
        <time>2020-08-11T11:17:06.522Z</time>
      </trkpt>
      <trkpt lat="64.7372" lon="11.53145">
        <ele>87.501926</ele>
        <time>2020-08-11T11:17:12.546Z</time>
      </trkpt>
      <trkpt lat="64.73721" lon="11.53167">
        <ele>87.570758</ele>
        <time>2020-08-11T11:17:18.546Z</time>
      </trkpt>
      <trkpt lat="64.73727" lon="11.53188">
        <ele>87.650886</ele>
        <time>2020-08-11T11:17:24.548Z</time>
      </trkpt>
      <trkpt lat="64.73733" lon="11.53205">
        <ele>87.717249</ele>
        <time>2020-08-11T11:17:28.515Z</time>
      </trkpt>
      <trkpt lat="64.73738" lon="11.53222">
        <ele>87.785494</ele>
        <time>2020-08-11T11:17:32.508Z</time>
      </trkpt>
      <trkpt lat="64.73743" lon="11.53242">
        <ele>87.854692</ele>
        <time>2020-08-11T11:17:36.508Z</time>
      </trkpt>
      <trkpt lat="64.73748" lon="11.53261">
        <ele>87.929381</ele>
        <time>2020-08-11T11:17:40.509Z</time>
      </trkpt>
      <trkpt lat="64.73755" lon="11.53283">
        <ele>88.014444</ele>
        <time>2020-08-11T11:17:44.559Z</time>
      </trkpt>
      <trkpt lat="64.73761" lon="11.53303">
        <ele>88.08935</ele>
        <time>2020-08-11T11:17:47.514Z</time>
      </trkpt>
      <trkpt lat="64.73768" lon="11.53324">
        <ele>88.172268</ele>
        <time>2020-08-11T11:17:50.514Z</time>
      </trkpt>
      <trkpt lat="64.73776" lon="11.53346">
        <ele>88.263285</ele>
        <time>2020-08-11T11:17:53.531Z</time>
      </trkpt>
      <trkpt lat="64.73785" lon="11.53371">
        <ele>88.363134</ele>
        <time>2020-08-11T11:17:56.531Z</time>
      </trkpt>
      <trkpt lat="64.73791" lon="11.53388">
        <ele>88.436522</ele>
        <time>2020-08-11T11:17:58.562Z</time>
      </trkpt>
      <trkpt lat="64.73797" lon="11.53407">
        <ele>88.342959</ele>
        <time>2020-08-11T11:18:00.542Z</time>
      </trkpt>
      <trkpt lat="64.73804" lon="11.53429">
        <ele>87.794647</ele>
        <time>2020-08-11T11:18:02.551Z</time>
      </trkpt>
      <trkpt lat="64.73811" lon="11.53451">
        <ele>87.20326</ele>
        <time>2020-08-11T11:18:04.569Z</time>
      </trkpt>
      <trkpt lat="64.73819" lon="11.53477">
        <ele>86.541817</ele>
        <time>2020-08-11T11:18:06.531Z</time>
      </trkpt>
      <trkpt lat="64.73829" lon="11.53506">
        <ele>85.803252</ele>
        <time>2020-08-11T11:18:08.523Z</time>
      </trkpt>
      <trkpt lat="64.73838" lon="11.53539">
        <ele>84.970917</ele>
        <time>2020-08-11T11:18:10.501Z</time>
      </trkpt>
      <trkpt lat="64.73844" lon="11.53557">
        <ele>84.518173</ele>
        <time>2020-08-11T11:18:11.502Z</time>
      </trkpt>
      <trkpt lat="64.73849" lon="11.53575">
        <ele>84.05244</ele>
        <time>2020-08-11T11:18:12.519Z</time>
      </trkpt>
      <trkpt lat="64.73855" lon="11.53595">
        <ele>83.563113</ele>
        <time>2020-08-11T11:18:13.517Z</time>
      </trkpt>
      <trkpt lat="64.73861" lon="11.53615">
        <ele>83.048483</ele>
        <time>2020-08-11T11:18:14.531Z</time>
      </trkpt>
      <trkpt lat="64.73867" lon="11.53636">
        <ele>82.515354</ele>
        <time>2020-08-11T11:18:15.530Z</time>
      </trkpt>
      <trkpt lat="64.73874" lon="11.53658">
        <ele>81.964205</ele>
        <time>2020-08-11T11:18:16.504Z</time>
      </trkpt>
      <trkpt lat="64.7388" lon="11.5368">
        <ele>81.407467</ele>
        <time>2020-08-11T11:18:17.531Z</time>
      </trkpt>
      <trkpt lat="64.73887" lon="11.53703">
        <ele>80.820332</ele>
        <time>2020-08-11T11:18:18.506Z</time>
      </trkpt>
      <trkpt lat="64.73895" lon="11.53727">
        <ele>80.21858</ele>
        <time>2020-08-11T11:18:19.524Z</time>
      </trkpt>
      <trkpt lat="64.73902" lon="11.53749">
        <ele>79.59368</ele>
        <time>2020-08-11T11:18:20.544Z</time>
      </trkpt>
      <trkpt lat="64.73911" lon="11.5377">
        <ele>78.857422</ele>
        <time>2020-08-11T11:18:21.523Z</time>
      </trkpt>
      <trkpt lat="64.7392" lon="11.53788">
        <ele>78.136711</ele>
        <time>2020-08-11T11:18:22.520Z</time>
      </trkpt>
      <trkpt lat="64.73929" lon="11.53806">
        <ele>77.428264</ele>
        <time>2020-08-11T11:18:23.506Z</time>
      </trkpt>
      <trkpt lat="64.73938" lon="11.53821">
        <ele>76.743223</ele>
        <time>2020-08-11T11:18:24.525Z</time>
      </trkpt>
      <trkpt lat="64.73947" lon="11.53837">
        <ele>76.081803</ele>
        <time>2020-08-11T11:18:25.515Z</time>
      </trkpt>
      <trkpt lat="64.73956" lon="11.53852">
        <ele>75.420383</ele>
        <time>2020-08-11T11:18:26.500Z</time>
      </trkpt>
      <trkpt lat="64.73965" lon="11.53867">
        <ele>74.768341</ele>
        <time>2020-08-11T11:18:27.510Z</time>
      </trkpt>
      <trkpt lat="64.73974" lon="11.53881">
        <ele>74.114389</ele>
        <time>2020-08-11T11:18:28.576Z</time>
      </trkpt>
      <trkpt lat="64.73983" lon="11.53896">
        <ele>73.456981</ele>
        <time>2020-08-11T11:18:29.526Z</time>
      </trkpt>
      <trkpt lat="64.73991" lon="11.53911">
        <ele>72.808285</ele>
        <time>2020-08-11T11:18:30.514Z</time>
      </trkpt>
      <trkpt lat="64.74" lon="11.53926">
        <ele>72.16457</ele>
        <time>2020-08-11T11:18:31.519Z</time>
      </trkpt>
      <trkpt lat="64.74008" lon="11.53942">
        <ele>71.516058</ele>
        <time>2020-08-11T11:18:32.514Z</time>
      </trkpt>
      <trkpt lat="64.74016" lon="11.53959">
        <ele>70.860211</ele>
        <time>2020-08-11T11:18:33.522Z</time>
      </trkpt>
      <trkpt lat="64.74024" lon="11.53977">
        <ele>70.196661</ele>
        <time>2020-08-11T11:18:34.544Z</time>
      </trkpt>
      <trkpt lat="64.74032" lon="11.53997">
        <ele>69.525768</ele>
        <time>2020-08-11T11:18:35.538Z</time>
      </trkpt>
      <trkpt lat="64.74039" lon="11.54016">
        <ele>68.85406</ele>
        <time>2020-08-11T11:18:36.510Z</time>
      </trkpt>
      <trkpt lat="64.74047" lon="11.54037">
        <ele>68.228167</ele>
        <time>2020-08-11T11:18:37.504Z</time>
      </trkpt>
      <trkpt lat="64.74056" lon="11.54057">
        <ele>67.580023</ele>
        <time>2020-08-11T11:18:38.534Z</time>
      </trkpt>
      <trkpt lat="64.74065" lon="11.54076">
        <ele>66.917438</ele>
        <time>2020-08-11T11:18:39.534Z</time>
      </trkpt>
      <trkpt lat="64.74074" lon="11.54095">
        <ele>66.248563</ele>
        <time>2020-08-11T11:18:40.513Z</time>
      </trkpt>
      <trkpt lat="64.74084" lon="11.54114">
        <ele>65.56318</ele>
        <time>2020-08-11T11:18:41.540Z</time>
      </trkpt>
      <trkpt lat="64.74095" lon="11.54133">
        <ele>64.853784</ele>
        <time>2020-08-11T11:18:42.533Z</time>
      </trkpt>
      <trkpt lat="64.74106" lon="11.54149">
        <ele>64.140369</ele>
        <time>2020-08-11T11:18:43.504Z</time>
      </trkpt>
      <trkpt lat="64.74118" lon="11.54163">
        <ele>63.431498</ele>
        <time>2020-08-11T11:18:44.527Z</time>
      </trkpt>
      <trkpt lat="64.7413" lon="11.54175">
        <ele>62.725379</ele>
        <time>2020-08-11T11:18:45.502Z</time>
      </trkpt>
      <trkpt lat="64.74142" lon="11.54186">
        <ele>62.030406</ele>
        <time>2020-08-11T11:18:46.540Z</time>
      </trkpt>
      <trkpt lat="64.74154" lon="11.54195">
        <ele>61.354825</ele>
        <time>2020-08-11T11:18:47.528Z</time>
      </trkpt>
      <trkpt lat="64.74166" lon="11.54202">
        <ele>60.702046</ele>
        <time>2020-08-11T11:18:48.507Z</time>
      </trkpt>
      <trkpt lat="64.74178" lon="11.54207">
        <ele>60.069387</ele>
        <time>2020-08-11T11:18:49.502Z</time>
      </trkpt>
      <trkpt lat="64.74189" lon="11.5421">
        <ele>59.473237</ele>
        <time>2020-08-11T11:18:50.544Z</time>
      </trkpt>
      <trkpt lat="64.742" lon="11.54213">
        <ele>59.382506</ele>
        <time>2020-08-11T11:18:51.519Z</time>
      </trkpt>
      <trkpt lat="64.74211" lon="11.54216">
        <ele>59.48297</ele>
        <time>2020-08-11T11:18:52.513Z</time>
      </trkpt>
      <trkpt lat="64.74221" lon="11.54219">
        <ele>59.576122</ele>
        <time>2020-08-11T11:18:53.512Z</time>
      </trkpt>
      <trkpt lat="64.74231" lon="11.54221">
        <ele>59.667075</ele>
        <time>2020-08-11T11:18:54.534Z</time>
      </trkpt>
      <trkpt lat="64.7424" lon="11.54223">
        <ele>59.755163</ele>
        <time>2020-08-11T11:18:55.511Z</time>
      </trkpt>
      <trkpt lat="64.7425" lon="11.54225">
        <ele>59.841458</ele>
        <time>2020-08-11T11:18:56.507Z</time>
      </trkpt>
      <trkpt lat="64.74259" lon="11.54227">
        <ele>59.925123</ele>
        <time>2020-08-11T11:18:57.530Z</time>
      </trkpt>
      <trkpt lat="64.74276" lon="11.54232">
        <ele>60.080885</ele>
        <time>2020-08-11T11:18:59.503Z</time>
      </trkpt>
      <trkpt lat="64.74291" lon="11.54237">
        <ele>60.218118</ele>
        <time>2020-08-11T11:19:01.522Z</time>
      </trkpt>
      <trkpt lat="64.74304" lon="11.54245">
        <ele>60.340432</ele>
        <time>2020-08-11T11:19:03.504Z</time>
      </trkpt>
      <trkpt lat="64.74314" lon="11.54252">
        <ele>60.443386</ele>
        <time>2020-08-11T11:19:05.502Z</time>
      </trkpt>
      <trkpt lat="64.74324" lon="11.54257">
        <ele>60.536389</ele>
        <time>2020-08-11T11:19:07.518Z</time>
      </trkpt>
      <trkpt lat="64.74336" lon="11.54264">
        <ele>60.64935</ele>
        <time>2020-08-11T11:19:10.531Z</time>
      </trkpt>
      <trkpt lat="64.74345" lon="11.54269">
        <ele>60.733891</ele>
        <time>2020-08-11T11:19:13.542Z</time>
      </trkpt>
      <trkpt lat="64.74356" lon="11.54275">
        <ele>60.836885</ele>
        <time>2020-08-11T11:19:17.539Z</time>
      </trkpt>
      <trkpt lat="64.74366" lon="11.54279">
        <ele>60.928111</ele>
        <time>2020-08-11T11:19:22.491Z</time>
      </trkpt>
      <trkpt lat="64.74377" lon="11.54285">
        <ele>61.114099</ele>
        <time>2020-08-11T11:19:27.507Z</time>
      </trkpt>
      <trkpt lat="64.74388" lon="11.54289">
        <ele>61.326384</ele>
        <time>2020-08-11T11:19:32.538Z</time>
      </trkpt>
      <trkpt lat="64.74397" lon="11.54291">
        <ele>61.508152</ele>
        <time>2020-08-11T11:19:36.563Z</time>
      </trkpt>
      <trkpt lat="64.74407" lon="11.54293">
        <ele>61.689692</ele>
        <time>2020-08-11T11:19:40.525Z</time>
      </trkpt>
      <trkpt lat="64.74417" lon="11.54295">
        <ele>61.882671</ele>
        <time>2020-08-11T11:19:44.525Z</time>
      </trkpt>
      <trkpt lat="64.74427" lon="11.54295">
        <ele>62.080965</ele>
        <time>2020-08-11T11:19:48.528Z</time>
      </trkpt>
      <trkpt lat="64.74439" lon="11.54293">
        <ele>62.312443</ele>
        <time>2020-08-11T11:19:52.511Z</time>
      </trkpt>
      <trkpt lat="64.74448" lon="11.54291">
        <ele>62.487134</ele>
        <time>2020-08-11T11:19:55.498Z</time>
      </trkpt>
      <trkpt lat="64.7446" lon="11.54288">
        <ele>62.714898</ele>
        <time>2020-08-11T11:19:59.558Z</time>
      </trkpt>
      <trkpt lat="64.74471" lon="11.54284">
        <ele>62.931934</ele>
        <time>2020-08-11T11:20:03.517Z</time>
      </trkpt>
      <trkpt lat="64.7448" lon="11.54278">
        <ele>63.123318</ele>
        <time>2020-08-11T11:20:06.525Z</time>
      </trkpt>
      <trkpt lat="64.74492" lon="11.5427">
        <ele>63.355073</ele>
        <time>2020-08-11T11:20:09.514Z</time>
      </trkpt>
      <trkpt lat="64.74501" lon="11.54265">
        <ele>63.529495</ele>
        <time>2020-08-11T11:20:11.558Z</time>
      </trkpt>
      <trkpt lat="64.7451" lon="11.54258">
        <ele>63.708042</ele>
        <time>2020-08-11T11:20:13.523Z</time>
      </trkpt>
      <trkpt lat="64.74518" lon="11.54251">
        <ele>63.888212</ele>
        <time>2020-08-11T11:20:15.512Z</time>
      </trkpt>
      <trkpt lat="64.74528" lon="11.54243">
        <ele>64.087418</ele>
        <time>2020-08-11T11:20:17.514Z</time>
      </trkpt>
      <trkpt lat="64.74539" lon="11.54237">
        <ele>64.30838</ele>
        <time>2020-08-11T11:20:19.519Z</time>
      </trkpt>
      <trkpt lat="64.74551" lon="11.54228">
        <ele>64.287671</ele>
        <time>2020-08-11T11:20:21.503Z</time>
      </trkpt>
      <trkpt lat="64.74564" lon="11.5422">
        <ele>64.044646</ele>
        <time>2020-08-11T11:20:23.520Z</time>
      </trkpt>
      <trkpt lat="64.74579" lon="11.54211">
        <ele>63.782207</ele>
        <time>2020-08-11T11:20:25.535Z</time>
      </trkpt>
      <trkpt lat="64.74593" lon="11.54204">
        <ele>63.521741</ele>
        <time>2020-08-11T11:20:27.523Z</time>
      </trkpt>
      <trkpt lat="64.74608" lon="11.54199">
        <ele>63.243329</ele>
        <time>2020-08-11T11:20:29.546Z</time>
      </trkpt>
      <trkpt lat="64.74624" lon="11.54196">
        <ele>62.954604</ele>
        <time>2020-08-11T11:20:31.513Z</time>
      </trkpt>
      <trkpt lat="64.7464" lon="11.54195">
        <ele>62.678931</ele>
        <time>2020-08-11T11:20:33.524Z</time>
      </trkpt>
      <trkpt lat="64.74653" lon="11.54195">
        <ele>62.437361</ele>
        <time>2020-08-11T11:20:35.511Z</time>
      </trkpt>
      <trkpt lat="64.74665" lon="11.54197">
        <ele>62.223929</ele>
        <time>2020-08-11T11:20:37.525Z</time>
      </trkpt>
      <trkpt lat="64.74676" lon="11.54202">
        <ele>62.026013</ele>
        <time>2020-08-11T11:20:39.495Z</time>
      </trkpt>
      <trkpt lat="64.74685" lon="11.54206">
        <ele>61.854026</ele>
        <time>2020-08-11T11:20:41.514Z</time>
      </trkpt>
      <trkpt lat="64.74697" lon="11.54213">
        <ele>61.637125</ele>
        <time>2020-08-11T11:20:44.528Z</time>
      </trkpt>
      <trkpt lat="64.74707" lon="11.5422">
        <ele>61.463028</ele>
        <time>2020-08-11T11:20:47.509Z</time>
      </trkpt>
      <trkpt lat="64.74717" lon="11.54227">
        <ele>61.268322</ele>
        <time>2020-08-11T11:20:51.521Z</time>
      </trkpt>
      <trkpt lat="64.74727" lon="11.54234">
        <ele>61.667465</ele>
        <time>2020-08-11T11:20:56.528Z</time>
      </trkpt>
      <trkpt lat="64.74737" lon="11.54242">
        <ele>62.507156</ele>
        <time>2020-08-11T11:21:01.509Z</time>
      </trkpt>
      <trkpt lat="64.74747" lon="11.54251">
        <ele>63.353645</ele>
        <time>2020-08-11T11:21:06.518Z</time>
      </trkpt>
      <trkpt lat="64.74756" lon="11.54257">
        <ele>64.099</ele>
        <time>2020-08-11T11:21:11.507Z</time>
      </trkpt>
      <trkpt lat="64.74767" lon="11.54263">
        <ele>64.914197</ele>
        <time>2020-08-11T11:21:17.512Z</time>
      </trkpt>
      <trkpt lat="64.74775" lon="11.54269">
        <ele>65.615813</ele>
        <time>2020-08-11T11:21:22.526Z</time>
      </trkpt>
      <trkpt lat="64.74785" lon="11.54274">
        <ele>66.429474</ele>
        <time>2020-08-11T11:21:28.511Z</time>
      </trkpt>
      <trkpt lat="64.74795" lon="11.5428">
        <ele>67.183592</ele>
        <time>2020-08-11T11:21:34.520Z</time>
      </trkpt>
      <trkpt lat="64.74804" lon="11.54287">
        <ele>67.922463</ele>
        <time>2020-08-11T11:21:40.546Z</time>
      </trkpt>
      <trkpt lat="64.74813" lon="11.54293">
        <ele>68.652938</ele>
        <time>2020-08-11T11:21:47.515Z</time>
      </trkpt>
      <trkpt lat="64.74821" lon="11.543">
        <ele>69.356036</ele>
        <time>2020-08-11T11:21:53.514Z</time>
      </trkpt>
      <trkpt lat="64.74831" lon="11.54309">
        <ele>70.176056</ele>
        <time>2020-08-11T11:22:00.510Z</time>
      </trkpt>
      <trkpt lat="64.74841" lon="11.54315">
        <ele>70.959499</ele>
        <time>2020-08-11T11:22:07.545Z</time>
      </trkpt>
      <trkpt lat="64.74851" lon="11.54321">
        <ele>71.723559</ele>
        <time>2020-08-11T11:22:14.526Z</time>
      </trkpt>
      <trkpt lat="64.7486" lon="11.54326">
        <ele>72.461783</ele>
        <time>2020-08-11T11:22:21.506Z</time>
      </trkpt>
      <trkpt lat="64.74869" lon="11.54334">
        <ele>73.221635</ele>
        <time>2020-08-11T11:22:28.507Z</time>
      </trkpt>
      <trkpt lat="64.74878" lon="11.54339">
        <ele>73.958246</ele>
        <time>2020-08-11T11:22:35.503Z</time>
      </trkpt>
      <trkpt lat="64.74887" lon="11.54347">
        <ele>74.714269</ele>
        <time>2020-08-11T11:22:42.512Z</time>
      </trkpt>
      <trkpt lat="64.74897" lon="11.54354">
        <ele>75.497378</ele>
        <time>2020-08-11T11:22:50.528Z</time>
      </trkpt>
      <trkpt lat="64.74906" lon="11.54362">
        <ele>76.290349</ele>
        <time>2020-08-11T11:22:57.506Z</time>
      </trkpt>
      <trkpt lat="64.74915" lon="11.54368">
        <ele>77.018586</ele>
        <time>2020-08-11T11:23:03.503Z</time>
      </trkpt>
      <trkpt lat="64.74925" lon="11.54372">
        <ele>77.797522</ele>
        <time>2020-08-11T11:23:09.501Z</time>
      </trkpt>
      <trkpt lat="64.74935" lon="11.54376">
        <ele>78.619799</ele>
        <time>2020-08-11T11:23:15.509Z</time>
      </trkpt>
      <trkpt lat="64.74944" lon="11.5438">
        <ele>79.377076</ele>
        <time>2020-08-11T11:23:21.508Z</time>
      </trkpt>
      <trkpt lat="64.74954" lon="11.54387">
        <ele>80.205514</ele>
        <time>2020-08-11T11:23:29.499Z</time>
      </trkpt>
      <trkpt lat="64.74964" lon="11.54392">
        <ele>81.00278</ele>
        <time>2020-08-11T11:23:35.537Z</time>
      </trkpt>
      <trkpt lat="64.74974" lon="11.54394">
        <ele>81.763015</ele>
        <time>2020-08-11T11:23:42.504Z</time>
      </trkpt>
      <trkpt lat="64.74983" lon="11.54402">
        <ele>82.595083</ele>
        <time>2020-08-11T11:23:49.507Z</time>
      </trkpt>
      <trkpt lat="64.74994" lon="11.54406">
        <ele>83.428703</ele>
        <time>2020-08-11T11:23:55.518Z</time>
      </trkpt>
      <trkpt lat="64.75002" lon="11.54412">
        <ele>84.150243</ele>
        <time>2020-08-11T11:24:00.501Z</time>
      </trkpt>
      <trkpt lat="64.75012" lon="11.54419">
        <ele>84.941548</ele>
        <time>2020-08-11T11:24:04.503Z</time>
      </trkpt>
      <trkpt lat="64.75021" lon="11.54424">
        <ele>85.676682</ele>
        <time>2020-08-11T11:24:08.530Z</time>
      </trkpt>
      <trkpt lat="64.75031" lon="11.54429">
        <ele>86.515701</ele>
        <time>2020-08-11T11:24:12.495Z</time>
      </trkpt>
      <trkpt lat="64.75042" lon="11.54437">
        <ele>87.379461</ele>
        <time>2020-08-11T11:24:16.521Z</time>
      </trkpt>
      <trkpt lat="64.75051" lon="11.54443">
        <ele>88.16591</ele>
        <time>2020-08-11T11:24:19.512Z</time>
      </trkpt>
      <trkpt lat="64.75062" lon="11.5445">
        <ele>89.032624</ele>
        <time>2020-08-11T11:24:22.517Z</time>
      </trkpt>
      <trkpt lat="64.75072" lon="11.54459">
        <ele>89.293913</ele>
        <time>2020-08-11T11:24:25.523Z</time>
      </trkpt>
      <trkpt lat="64.75083" lon="11.54468">
        <ele>88.919441</ele>
        <time>2020-08-11T11:24:28.500Z</time>
      </trkpt>
      <trkpt lat="64.75094" lon="11.5448">
        <ele>88.550769</ele>
        <time>2020-08-11T11:24:31.525Z</time>
      </trkpt>
      <trkpt lat="64.75104" lon="11.54492">
        <ele>88.200904</ele>
        <time>2020-08-11T11:24:34.522Z</time>
      </trkpt>
      <trkpt lat="64.75113" lon="11.54504">
        <ele>87.870192</ele>
        <time>2020-08-11T11:24:37.502Z</time>
      </trkpt>
      <trkpt lat="64.75122" lon="11.54519">
        <ele>87.519714</ele>
        <time>2020-08-11T11:24:40.538Z</time>
      </trkpt>
      <trkpt lat="64.75132" lon="11.54536">
        <ele>87.131598</ele>
        <time>2020-08-11T11:24:43.505Z</time>
      </trkpt>
      <trkpt lat="64.75141" lon="11.54552">
        <ele>86.77291</ele>
        <time>2020-08-11T11:24:46.520Z</time>
      </trkpt>
      <trkpt lat="64.7515" lon="11.54567">
        <ele>86.42992</ele>
        <time>2020-08-11T11:24:49.548Z</time>
      </trkpt>
      <trkpt lat="64.75157" lon="11.54584">
        <ele>86.100642</ele>
        <time>2020-08-11T11:24:52.520Z</time>
      </trkpt>
      <trkpt lat="64.75166" lon="11.54601">
        <ele>85.750931</ele>
        <time>2020-08-11T11:24:55.523Z</time>
      </trkpt>
      <trkpt lat="64.75174" lon="11.54619">
        <ele>85.40175</ele>
        <time>2020-08-11T11:24:58.523Z</time>
      </trkpt>
      <trkpt lat="64.75181" lon="11.54638">
        <ele>85.055951</ele>
        <time>2020-08-11T11:25:01.521Z</time>
      </trkpt>
      <trkpt lat="64.75189" lon="11.54657">
        <ele>84.69941</ele>
        <time>2020-08-11T11:25:04.560Z</time>
      </trkpt>
      <trkpt lat="64.75196" lon="11.54674">
        <ele>84.366904</ele>
        <time>2020-08-11T11:25:07.511Z</time>
      </trkpt>
      <trkpt lat="64.75205" lon="11.5469">
        <ele>84.009061</ele>
        <time>2020-08-11T11:25:10.539Z</time>
      </trkpt>
      <trkpt lat="64.75214" lon="11.54709">
        <ele>83.65669</ele>
        <time>2020-08-11T11:25:13.518Z</time>
      </trkpt>
      <trkpt lat="64.75222" lon="11.54727">
        <ele>83.324467</ele>
        <time>2020-08-11T11:25:16.503Z</time>
      </trkpt>
      <trkpt lat="64.7523" lon="11.54745">
        <ele>82.996155</ele>
        <time>2020-08-11T11:25:19.499Z</time>
      </trkpt>
      <trkpt lat="64.75238" lon="11.54762">
        <ele>82.665464</ele>
        <time>2020-08-11T11:25:22.505Z</time>
      </trkpt>
      <trkpt lat="64.75246" lon="11.54779">
        <ele>82.350014</ele>
        <time>2020-08-11T11:25:25.553Z</time>
      </trkpt>
      <trkpt lat="64.75254" lon="11.54797">
        <ele>82.037373</ele>
        <time>2020-08-11T11:25:28.522Z</time>
      </trkpt>
      <trkpt lat="64.75261" lon="11.54815">
        <ele>81.724416</ele>
        <time>2020-08-11T11:25:31.514Z</time>
      </trkpt>
      <trkpt lat="64.75268" lon="11.54833">
        <ele>81.421231</ele>
        <time>2020-08-11T11:25:34.526Z</time>
      </trkpt>
      <trkpt lat="64.75275" lon="11.54852">
        <ele>81.108536</ele>
        <time>2020-08-11T11:25:37.525Z</time>
      </trkpt>
      <trkpt lat="64.7528" lon="11.54874">
        <ele>80.801679</ele>
        <time>2020-08-11T11:25:40.504Z</time>
      </trkpt>
      <trkpt lat="64.75284" lon="11.54898">
        <ele>80.475485</ele>
        <time>2020-08-11T11:25:43.509Z</time>
      </trkpt>
      <trkpt lat="64.75287" lon="11.54924">
        <ele>80.131449</ele>
        <time>2020-08-11T11:25:46.525Z</time>
      </trkpt>
      <trkpt lat="64.75289" lon="11.54954">
        <ele>79.760386</ele>
        <time>2020-08-11T11:25:49.497Z</time>
      </trkpt>
      <trkpt lat="64.75289" lon="11.54975">
        <ele>79.490831</ele>
        <time>2020-08-11T11:25:51.510Z</time>
      </trkpt>
      <trkpt lat="64.75288" lon="11.54998">
        <ele>79.202062</ele>
        <time>2020-08-11T11:25:53.522Z</time>
      </trkpt>
      <trkpt lat="64.75286" lon="11.55023">
        <ele>78.887102</ele>
        <time>2020-08-11T11:25:55.565Z</time>
      </trkpt>
      <trkpt lat="64.75283" lon="11.55049">
        <ele>78.54546</ele>
        <time>2020-08-11T11:25:57.515Z</time>
      </trkpt>
      <trkpt lat="64.75277" lon="11.55074">
        <ele>77.784432</ele>
        <time>2020-08-11T11:25:59.521Z</time>
      </trkpt>
      <trkpt lat="64.7527" lon="11.55102">
        <ele>76.873305</ele>
        <time>2020-08-11T11:26:01.503Z</time>
      </trkpt>
      <trkpt lat="64.7526" lon="11.5513">
        <ele>75.86396</ele>
        <time>2020-08-11T11:26:03.534Z</time>
      </trkpt>
      <trkpt lat="64.75249" lon="11.55157">
        <ele>74.790843</ele>
        <time>2020-08-11T11:26:05.550Z</time>
      </trkpt>
      <trkpt lat="64.75237" lon="11.55186">
        <ele>73.644096</ele>
        <time>2020-08-11T11:26:07.518Z</time>
      </trkpt>
      <trkpt lat="64.7523" lon="11.55202">
        <ele>73.03754</ele>
        <time>2020-08-11T11:26:08.510Z</time>
      </trkpt>
      <trkpt lat="64.75223" lon="11.55218">
        <ele>72.393087</ele>
        <time>2020-08-11T11:26:09.511Z</time>
      </trkpt>
      <trkpt lat="64.75216" lon="11.55235">
        <ele>71.714161</ele>
        <time>2020-08-11T11:26:10.538Z</time>
      </trkpt>
      <trkpt lat="64.75208" lon="11.55253">
        <ele>71.000079</ele>
        <time>2020-08-11T11:26:11.545Z</time>
      </trkpt>
      <trkpt lat="64.75201" lon="11.55272">
        <ele>70.256791</ele>
        <time>2020-08-11T11:26:12.542Z</time>
      </trkpt>
      <trkpt lat="64.75193" lon="11.55293">
        <ele>69.483065</ele>
        <time>2020-08-11T11:26:13.503Z</time>
      </trkpt>
      <trkpt lat="64.75185" lon="11.55315">
        <ele>68.683817</ele>
        <time>2020-08-11T11:26:14.505Z</time>
      </trkpt>
      <trkpt lat="64.75177" lon="11.55337">
        <ele>67.866953</ele>
        <time>2020-08-11T11:26:15.527Z</time>
      </trkpt>
      <trkpt lat="64.7517" lon="11.55361">
        <ele>67.037403</ele>
        <time>2020-08-11T11:26:16.509Z</time>
      </trkpt>
      <trkpt lat="64.75162" lon="11.55386">
        <ele>66.043243</ele>
        <time>2020-08-11T11:26:17.507Z</time>
      </trkpt>
      <trkpt lat="64.75155" lon="11.55412">
        <ele>64.938173</ele>
        <time>2020-08-11T11:26:18.511Z</time>
      </trkpt>
      <trkpt lat="64.75148" lon="11.55437">
        <ele>63.816318</ele>
        <time>2020-08-11T11:26:19.531Z</time>
      </trkpt>
      <trkpt lat="64.7514" lon="11.55463">
        <ele>62.68242</ele>
        <time>2020-08-11T11:26:20.553Z</time>
      </trkpt>
      <trkpt lat="64.75133" lon="11.55489">
        <ele>61.551535</ele>
        <time>2020-08-11T11:26:21.504Z</time>
      </trkpt>
      <trkpt lat="64.75125" lon="11.55514">
        <ele>60.430854</ele>
        <time>2020-08-11T11:26:22.519Z</time>
      </trkpt>
      <trkpt lat="64.75118" lon="11.5554">
        <ele>59.303357</ele>
        <time>2020-08-11T11:26:23.527Z</time>
      </trkpt>
      <trkpt lat="64.7511" lon="11.55566">
        <ele>58.145307</ele>
        <time>2020-08-11T11:26:24.524Z</time>
      </trkpt>
      <trkpt lat="64.75102" lon="11.55592">
        <ele>56.992169</ele>
        <time>2020-08-11T11:26:25.524Z</time>
      </trkpt>
      <trkpt lat="64.75095" lon="11.55618">
        <ele>55.856518</ele>
        <time>2020-08-11T11:26:26.499Z</time>
      </trkpt>
      <trkpt lat="64.75087" lon="11.55643">
        <ele>54.742409</ele>
        <time>2020-08-11T11:26:27.507Z</time>
      </trkpt>
      <trkpt lat="64.75081" lon="11.55668">
        <ele>53.662079</ele>
        <time>2020-08-11T11:26:28.512Z</time>
      </trkpt>
      <trkpt lat="64.75075" lon="11.55694">
        <ele>52.604076</ele>
        <time>2020-08-11T11:26:29.505Z</time>
      </trkpt>
      <trkpt lat="64.7507" lon="11.55719">
        <ele>51.591782</ele>
        <time>2020-08-11T11:26:30.557Z</time>
      </trkpt>
      <trkpt lat="64.75065" lon="11.55744">
        <ele>50.929154</ele>
        <time>2020-08-11T11:26:31.529Z</time>
      </trkpt>
      <trkpt lat="64.7506" lon="11.55768">
        <ele>50.380528</ele>
        <time>2020-08-11T11:26:32.523Z</time>
      </trkpt>
      <trkpt lat="64.75056" lon="11.55791">
        <ele>49.853039</ele>
        <time>2020-08-11T11:26:33.543Z</time>
      </trkpt>
      <trkpt lat="64.75052" lon="11.55814">
        <ele>49.344785</ele>
        <time>2020-08-11T11:26:34.510Z</time>
      </trkpt>
      <trkpt lat="64.75048" lon="11.55835">
        <ele>48.848118</ele>
        <time>2020-08-11T11:26:35.517Z</time>
      </trkpt>
      <trkpt lat="64.75044" lon="11.55857">
        <ele>48.350939</ele>
        <time>2020-08-11T11:26:36.524Z</time>
      </trkpt>
      <trkpt lat="64.75038" lon="11.55878">
        <ele>47.843878</ele>
        <time>2020-08-11T11:26:37.538Z</time>
      </trkpt>
      <trkpt lat="64.75033" lon="11.55898">
        <ele>47.331517</ele>
        <time>2020-08-11T11:26:38.505Z</time>
      </trkpt>
      <trkpt lat="64.75026" lon="11.55917">
        <ele>46.81957</ele>
        <time>2020-08-11T11:26:39.507Z</time>
      </trkpt>
      <trkpt lat="64.7502" lon="11.55936">
        <ele>46.312899</ele>
        <time>2020-08-11T11:26:40.504Z</time>
      </trkpt>
      <trkpt lat="64.75013" lon="11.55954">
        <ele>45.817726</ele>
        <time>2020-08-11T11:26:41.531Z</time>
      </trkpt>
      <trkpt lat="64.75006" lon="11.55971">
        <ele>45.333655</ele>
        <time>2020-08-11T11:26:42.543Z</time>
      </trkpt>
      <trkpt lat="64.74999" lon="11.55986">
        <ele>44.842574</ele>
        <time>2020-08-11T11:26:43.522Z</time>
      </trkpt>
      <trkpt lat="64.74992" lon="11.56002">
        <ele>44.355108</ele>
        <time>2020-08-11T11:26:44.540Z</time>
      </trkpt>
      <trkpt lat="64.74984" lon="11.56018">
        <ele>43.873282</ele>
        <time>2020-08-11T11:26:45.513Z</time>
      </trkpt>
      <trkpt lat="64.74977" lon="11.56033">
        <ele>43.394245</ele>
        <time>2020-08-11T11:26:46.506Z</time>
      </trkpt>
      <trkpt lat="64.7497" lon="11.56048">
        <ele>42.918242</ele>
        <time>2020-08-11T11:26:47.522Z</time>
      </trkpt>
      <trkpt lat="64.74963" lon="11.56064">
        <ele>42.522821</ele>
        <time>2020-08-11T11:26:48.533Z</time>
      </trkpt>
      <trkpt lat="64.74957" lon="11.5608">
        <ele>42.435357</ele>
        <time>2020-08-11T11:26:49.509Z</time>
      </trkpt>
      <trkpt lat="64.74951" lon="11.56097">
        <ele>42.346994</ele>
        <time>2020-08-11T11:26:50.510Z</time>
      </trkpt>
      <trkpt lat="64.74945" lon="11.56114">
        <ele>42.257826</ele>
        <time>2020-08-11T11:26:51.527Z</time>
      </trkpt>
      <trkpt lat="64.7494" lon="11.56132">
        <ele>42.170728</ele>
        <time>2020-08-11T11:26:52.512Z</time>
      </trkpt>
      <trkpt lat="64.74936" lon="11.56151">
        <ele>42.084781</ele>
        <time>2020-08-11T11:26:53.519Z</time>
      </trkpt>
      <trkpt lat="64.74932" lon="11.56169">
        <ele>41.999626</ele>
        <time>2020-08-11T11:26:54.507Z</time>
      </trkpt>
      <trkpt lat="64.74924" lon="11.56205">
        <ele>41.839475</ele>
        <time>2020-08-11T11:26:56.519Z</time>
      </trkpt>
      <trkpt lat="64.74918" lon="11.56239">
        <ele>41.689085</ele>
        <time>2020-08-11T11:26:58.506Z</time>
      </trkpt>
      <trkpt lat="64.74911" lon="11.56271">
        <ele>41.543494</ele>
        <time>2020-08-11T11:27:00.507Z</time>
      </trkpt>
      <trkpt lat="64.74905" lon="11.56302">
        <ele>41.405041</ele>
        <time>2020-08-11T11:27:02.509Z</time>
      </trkpt>
      <trkpt lat="64.74901" lon="11.56336">
        <ele>41.264076</ele>
        <time>2020-08-11T11:27:04.503Z</time>
      </trkpt>
      <trkpt lat="64.74897" lon="11.56371">
        <ele>41.116957</ele>
        <time>2020-08-11T11:27:06.514Z</time>
      </trkpt>
      <trkpt lat="64.74893" lon="11.56408">
        <ele>40.96486</ele>
        <time>2020-08-11T11:27:08.522Z</time>
      </trkpt>
      <trkpt lat="64.74891" lon="11.56442">
        <ele>40.87399</ele>
        <time>2020-08-11T11:27:10.532Z</time>
      </trkpt>
      <trkpt lat="64.7489" lon="11.56474">
        <ele>41.405373</ele>
        <time>2020-08-11T11:27:12.515Z</time>
      </trkpt>
      <trkpt lat="64.74891" lon="11.56507">
        <ele>41.949844</ele>
        <time>2020-08-11T11:27:14.494Z</time>
      </trkpt>
      <trkpt lat="64.74895" lon="11.56536">
        <ele>42.450494</ele>
        <time>2020-08-11T11:27:16.530Z</time>
      </trkpt>
      <trkpt lat="64.749" lon="11.5656">
        <ele>42.89913</ele>
        <time>2020-08-11T11:27:18.504Z</time>
      </trkpt>
      <trkpt lat="64.74905" lon="11.56583">
        <ele>43.333832</ele>
        <time>2020-08-11T11:27:20.514Z</time>
      </trkpt>
      <trkpt lat="64.74911" lon="11.56602">
        <ele>43.727938</ele>
        <time>2020-08-11T11:27:22.497Z</time>
      </trkpt>
      <trkpt lat="64.7492" lon="11.56623">
        <ele>44.230033</ele>
        <time>2020-08-11T11:27:25.532Z</time>
      </trkpt>
      <trkpt lat="64.74929" lon="11.5664">
        <ele>44.667485</ele>
        <time>2020-08-11T11:27:28.499Z</time>
      </trkpt>
      <trkpt lat="64.74937" lon="11.56655">
        <ele>45.06274</ele>
        <time>2020-08-11T11:27:31.512Z</time>
      </trkpt>
      <trkpt lat="64.74945" lon="11.56672">
        <ele>45.496418</ele>
        <time>2020-08-11T11:27:35.582Z</time>
      </trkpt>
      <trkpt lat="64.74953" lon="11.56687">
        <ele>45.88352</ele>
        <time>2020-08-11T11:27:39.523Z</time>
      </trkpt>
      <trkpt lat="64.74962" lon="11.56702">
        <ele>46.307484</ele>
        <time>2020-08-11T11:27:43.526Z</time>
      </trkpt>
      <trkpt lat="64.7497" lon="11.56718">
        <ele>46.730352</ele>
        <time>2020-08-11T11:27:47.503Z</time>
      </trkpt>
      <trkpt lat="64.74978" lon="11.56735">
        <ele>47.14326</ele>
        <time>2020-08-11T11:27:51.520Z</time>
      </trkpt>
      <trkpt lat="64.74987" lon="11.56753">
        <ele>47.608046</ele>
        <time>2020-08-11T11:27:55.513Z</time>
      </trkpt>
      <trkpt lat="64.74994" lon="11.56768">
        <ele>47.872298</ele>
        <time>2020-08-11T11:27:58.525Z</time>
      </trkpt>
      <trkpt lat="64.75001" lon="11.56783">
        <ele>47.96235</ele>
        <time>2020-08-11T11:28:01.501Z</time>
      </trkpt>
      <trkpt lat="64.75009" lon="11.568">
        <ele>48.058497</ele>
        <time>2020-08-11T11:28:04.522Z</time>
      </trkpt>
      <trkpt lat="64.75017" lon="11.56818">
        <ele>48.164352</ele>
        <time>2020-08-11T11:28:07.526Z</time>
      </trkpt>
      <trkpt lat="64.75027" lon="11.56839">
        <ele>48.282324</ele>
        <time>2020-08-11T11:28:10.512Z</time>
      </trkpt>
      <trkpt lat="64.75034" lon="11.56854">
        <ele>48.36732</ele>
        <time>2020-08-11T11:28:12.497Z</time>
      </trkpt>
      <trkpt lat="64.75041" lon="11.56869">
        <ele>48.45867</ele>
        <time>2020-08-11T11:28:14.524Z</time>
      </trkpt>
      <trkpt lat="64.75048" lon="11.56886">
        <ele>48.549744</ele>
        <time>2020-08-11T11:28:16.520Z</time>
      </trkpt>
      <trkpt lat="64.75055" lon="11.56902">
        <ele>48.640737</ele>
        <time>2020-08-11T11:28:18.527Z</time>
      </trkpt>
      <trkpt lat="64.75064" lon="11.56915">
        <ele>48.732636</ele>
        <time>2020-08-11T11:28:20.506Z</time>
      </trkpt>
      <trkpt lat="64.75071" lon="11.56929">
        <ele>48.819651</ele>
        <time>2020-08-11T11:28:22.505Z</time>
      </trkpt>
      <trkpt lat="64.75079" lon="11.56943">
        <ele>48.91007</ele>
        <time>2020-08-11T11:28:24.525Z</time>
      </trkpt>
      <trkpt lat="64.75088" lon="11.56956">
        <ele>49.001718</ele>
        <time>2020-08-11T11:28:26.517Z</time>
      </trkpt>
      <trkpt lat="64.75095" lon="11.56968">
        <ele>49.087209</ele>
        <time>2020-08-11T11:28:28.530Z</time>
      </trkpt>
      <trkpt lat="64.75104" lon="11.56979">
        <ele>49.177377</ele>
        <time>2020-08-11T11:28:30.566Z</time>
      </trkpt>
      <trkpt lat="64.75113" lon="11.5699">
        <ele>49.2693</ele>
        <time>2020-08-11T11:28:32.522Z</time>
      </trkpt>
      <trkpt lat="64.75122" lon="11.57">
        <ele>49.357438</ele>
        <time>2020-08-11T11:28:34.518Z</time>
      </trkpt>
      <trkpt lat="64.7513" lon="11.5701">
        <ele>49.44639</ele>
        <time>2020-08-11T11:28:36.499Z</time>
      </trkpt>
      <trkpt lat="64.75139" lon="11.5702">
        <ele>49.689343</ele>
        <time>2020-08-11T11:28:38.517Z</time>
      </trkpt>
      <trkpt lat="64.75148" lon="11.57028">
        <ele>50.0334</ele>
        <time>2020-08-11T11:28:40.513Z</time>
      </trkpt>
      <trkpt lat="64.75159" lon="11.57042">
        <ele>50.483298</ele>
        <time>2020-08-11T11:28:43.503Z</time>
      </trkpt>
      <trkpt lat="64.75169" lon="11.57054">
        <ele>50.892908</ele>
        <time>2020-08-11T11:28:46.568Z</time>
      </trkpt>
      <trkpt lat="64.75178" lon="11.57065">
        <ele>51.251767</ele>
        <time>2020-08-11T11:28:49.523Z</time>
      </trkpt>
      <trkpt lat="64.75188" lon="11.57076">
        <ele>51.643962</ele>
        <time>2020-08-11T11:28:53.519Z</time>
      </trkpt>
      <trkpt lat="64.75196" lon="11.5709">
        <ele>52.010994</ele>
        <time>2020-08-11T11:28:58.507Z</time>
      </trkpt>
      <trkpt lat="64.75203" lon="11.57103">
        <ele>52.35116</ele>
        <time>2020-08-11T11:29:04.506Z</time>
      </trkpt>
      <trkpt lat="64.75211" lon="11.57115">
        <ele>52.685376</ele>
        <time>2020-08-11T11:29:10.511Z</time>
      </trkpt>
      <trkpt lat="64.75218" lon="11.57127">
        <ele>53.0153</ele>
        <time>2020-08-11T11:29:16.527Z</time>
      </trkpt>
      <trkpt lat="64.75226" lon="11.57141">
        <ele>53.373502</ele>
        <time>2020-08-11T11:29:22.530Z</time>
      </trkpt>
      <trkpt lat="64.75235" lon="11.57155">
        <ele>53.746436</ele>
        <time>2020-08-11T11:29:28.513Z</time>
      </trkpt>
      <trkpt lat="64.75242" lon="11.57168">
        <ele>54.086149</ele>
        <time>2020-08-11T11:29:33.505Z</time>
      </trkpt>
      <trkpt lat="64.75249" lon="11.57182">
        <ele>54.423653</ele>
        <time>2020-08-11T11:29:38.532Z</time>
      </trkpt>
      <trkpt lat="64.75258" lon="11.57199">
        <ele>54.819013</ele>
        <time>2020-08-11T11:29:43.530Z</time>
      </trkpt>
      <trkpt lat="64.75266" lon="11.57215">
        <ele>55.222079</ele>
        <time>2020-08-11T11:29:48.505Z</time>
      </trkpt>
      <trkpt lat="64.75275" lon="11.5723">
        <ele>55.622607</ele>
        <time>2020-08-11T11:29:53.502Z</time>
      </trkpt>
      <trkpt lat="64.75283" lon="11.57245">
        <ele>55.97642</ele>
        <time>2020-08-11T11:29:57.540Z</time>
      </trkpt>
      <trkpt lat="64.75291" lon="11.5726">
        <ele>55.698203</ele>
        <time>2020-08-11T11:30:01.514Z</time>
      </trkpt>
      <trkpt lat="64.753" lon="11.57276">
        <ele>55.33533</ele>
        <time>2020-08-11T11:30:05.501Z</time>
      </trkpt>
      <trkpt lat="64.75307" lon="11.57288">
        <ele>55.037742</ele>
        <time>2020-08-11T11:30:08.508Z</time>
      </trkpt>
      <trkpt lat="64.75314" lon="11.57301">
        <ele>54.733559</ele>
        <time>2020-08-11T11:30:11.522Z</time>
      </trkpt>
      <trkpt lat="64.75323" lon="11.57314">
        <ele>54.406352</ele>
        <time>2020-08-11T11:30:14.512Z</time>
      </trkpt>
      <trkpt lat="64.75331" lon="11.5733">
        <ele>54.043311</ele>
        <time>2020-08-11T11:30:17.514Z</time>
      </trkpt>
      <trkpt lat="64.75341" lon="11.57347">
        <ele>53.639638</ele>
        <time>2020-08-11T11:30:20.520Z</time>
      </trkpt>
      <trkpt lat="64.75352" lon="11.57366">
        <ele>53.201603</ele>
        <time>2020-08-11T11:30:23.537Z</time>
      </trkpt>
      <trkpt lat="64.7536" lon="11.5738">
        <ele>52.8714</ele>
        <time>2020-08-11T11:30:25.510Z</time>
      </trkpt>
      <trkpt lat="64.75368" lon="11.57395">
        <ele>52.522276</ele>
        <time>2020-08-11T11:30:27.526Z</time>
      </trkpt>
      <trkpt lat="64.75378" lon="11.57411">
        <ele>52.128053</ele>
        <time>2020-08-11T11:30:29.567Z</time>
      </trkpt>
      <trkpt lat="64.75388" lon="11.57427">
        <ele>51.750823</ele>
        <time>2020-08-11T11:30:31.508Z</time>
      </trkpt>
      <trkpt lat="64.75396" lon="11.57441">
        <ele>51.41733</ele>
        <time>2020-08-11T11:30:33.523Z</time>
      </trkpt>
      <trkpt lat="64.75404" lon="11.57458">
        <ele>51.049996</ele>
        <time>2020-08-11T11:30:36.523Z</time>
      </trkpt>
      <trkpt lat="64.75413" lon="11.5748">
        <ele>50.627846</ele>
        <time>2020-08-11T11:30:39.495Z</time>
      </trkpt>
      <trkpt lat="64.75421" lon="11.575">
        <ele>50.235569</ele>
        <time>2020-08-11T11:30:41.571Z</time>
      </trkpt>
      <trkpt lat="64.7543" lon="11.57523">
        <ele>49.644712</ele>
        <time>2020-08-11T11:30:43.522Z</time>
      </trkpt>
      <trkpt lat="64.75439" lon="11.57549">
        <ele>48.901795</ele>
        <time>2020-08-11T11:30:45.519Z</time>
      </trkpt>
      <trkpt lat="64.75448" lon="11.5758">
        <ele>48.090725</ele>
        <time>2020-08-11T11:30:47.499Z</time>
      </trkpt>
      <trkpt lat="64.75457" lon="11.57613">
        <ele>47.228923</ele>
        <time>2020-08-11T11:30:49.527Z</time>
      </trkpt>
      <trkpt lat="64.75466" lon="11.57647">
        <ele>46.374504</ele>
        <time>2020-08-11T11:30:51.502Z</time>
      </trkpt>
      <trkpt lat="64.75476" lon="11.5768">
        <ele>45.501799</ele>
        <time>2020-08-11T11:30:53.512Z</time>
      </trkpt>
      <trkpt lat="64.75485" lon="11.57711">
        <ele>44.659794</ele>
        <time>2020-08-11T11:30:55.522Z</time>
      </trkpt>
      <trkpt lat="64.75497" lon="11.57738">
        <ele>43.827493</ele>
        <time>2020-08-11T11:30:57.498Z</time>
      </trkpt>
      <trkpt lat="64.75509" lon="11.57762">
        <ele>43.034017</ele>
        <time>2020-08-11T11:30:59.517Z</time>
      </trkpt>
      <trkpt lat="64.75521" lon="11.57783">
        <ele>42.261387</ele>
        <time>2020-08-11T11:31:01.530Z</time>
      </trkpt>
      <trkpt lat="64.75533" lon="11.57801">
        <ele>41.521338</ele>
        <time>2020-08-11T11:31:03.507Z</time>
      </trkpt>
      <trkpt lat="64.75545" lon="11.57817">
        <ele>40.938029</ele>
        <time>2020-08-11T11:31:05.496Z</time>
      </trkpt>
      <trkpt lat="64.75557" lon="11.57831">
        <ele>41.046462</ele>
        <time>2020-08-11T11:31:07.515Z</time>
      </trkpt>
      <trkpt lat="64.75568" lon="11.57846">
        <ele>41.153061</ele>
        <time>2020-08-11T11:31:09.505Z</time>
      </trkpt>
      <trkpt lat="64.75578" lon="11.5786">
        <ele>41.254487</ele>
        <time>2020-08-11T11:31:11.505Z</time>
      </trkpt>
      <trkpt lat="64.75589" lon="11.57873">
        <ele>41.350081</ele>
        <time>2020-08-11T11:31:13.524Z</time>
      </trkpt>
      <trkpt lat="64.75599" lon="11.57884">
        <ele>41.445725</ele>
        <time>2020-08-11T11:31:15.537Z</time>
      </trkpt>
      <trkpt lat="64.75609" lon="11.57896">
        <ele>41.540667</ele>
        <time>2020-08-11T11:31:17.517Z</time>
      </trkpt>
      <trkpt lat="64.75619" lon="11.57908">
        <ele>41.633175</ele>
        <time>2020-08-11T11:31:19.507Z</time>
      </trkpt>
      <trkpt lat="64.75629" lon="11.5792">
        <ele>41.721087</ele>
        <time>2020-08-11T11:31:21.507Z</time>
      </trkpt>
      <trkpt lat="64.75638" lon="11.57931">
        <ele>41.807202</ele>
        <time>2020-08-11T11:31:23.527Z</time>
      </trkpt>
      <trkpt lat="64.75647" lon="11.57941">
        <ele>41.889812</ele>
        <time>2020-08-11T11:31:25.508Z</time>
      </trkpt>
      <trkpt lat="64.75655" lon="11.57952">
        <ele>41.969883</ele>
        <time>2020-08-11T11:31:27.531Z</time>
      </trkpt>
      <trkpt lat="64.75664" lon="11.57962">
        <ele>42.051277</ele>
        <time>2020-08-11T11:31:29.506Z</time>
      </trkpt>
      <trkpt lat="64.75673" lon="11.57972">
        <ele>42.134161</ele>
        <time>2020-08-11T11:31:31.553Z</time>
      </trkpt>
      <trkpt lat="64.75682" lon="11.57983">
        <ele>42.216625</ele>
        <time>2020-08-11T11:31:33.528Z</time>
      </trkpt>
      <trkpt lat="64.7569" lon="11.57995">
        <ele>42.296382</ele>
        <time>2020-08-11T11:31:35.507Z</time>
      </trkpt>
      <trkpt lat="64.75698" lon="11.58006">
        <ele>42.372269</ele>
        <time>2020-08-11T11:31:37.522Z</time>
      </trkpt>
      <trkpt lat="64.75705" lon="11.58019">
        <ele>42.701143</ele>
        <time>2020-08-11T11:31:39.553Z</time>
      </trkpt>
      <trkpt lat="64.75715" lon="11.58037">
        <ele>43.646771</ele>
        <time>2020-08-11T11:31:42.504Z</time>
      </trkpt>
      <trkpt lat="64.75724" lon="11.58055">
        <ele>44.471875</ele>
        <time>2020-08-11T11:31:45.500Z</time>
      </trkpt>
      <trkpt lat="64.75731" lon="11.58073">
        <ele>45.241343</ele>
        <time>2020-08-11T11:31:48.508Z</time>
      </trkpt>
      <trkpt lat="64.75738" lon="11.58091">
        <ele>46.013142</ele>
        <time>2020-08-11T11:31:51.514Z</time>
      </trkpt>
      <trkpt lat="64.75744" lon="11.5811">
        <ele>46.718565</ele>
        <time>2020-08-11T11:31:54.502Z</time>
      </trkpt>
      <trkpt lat="64.75748" lon="11.5813">
        <ele>47.424926</ele>
        <time>2020-08-11T11:31:57.516Z</time>
      </trkpt>
      <trkpt lat="64.75753" lon="11.58151">
        <ele>48.164424</ele>
        <time>2020-08-11T11:32:00.507Z</time>
      </trkpt>
      <trkpt lat="64.75758" lon="11.58172">
        <ele>48.935745</ele>
        <time>2020-08-11T11:32:03.527Z</time>
      </trkpt>
      <trkpt lat="64.75762" lon="11.58193">
        <ele>49.641913</ele>
        <time>2020-08-11T11:32:06.522Z</time>
      </trkpt>
      <trkpt lat="64.75765" lon="11.58214">
        <ele>50.333895</ele>
        <time>2020-08-11T11:32:09.512Z</time>
      </trkpt>
      <trkpt lat="64.75769" lon="11.58234">
        <ele>50.997282</ele>
        <time>2020-08-11T11:32:12.515Z</time>
      </trkpt>
      <trkpt lat="64.75772" lon="11.58259">
        <ele>51.833229</ele>
        <time>2020-08-11T11:32:16.526Z</time>
      </trkpt>
      <trkpt lat="64.75775" lon="11.5828">
        <ele>52.516855</ele>
        <time>2020-08-11T11:32:19.522Z</time>
      </trkpt>
      <trkpt lat="64.75777" lon="11.58307">
        <ele>53.386684</ele>
        <time>2020-08-11T11:32:23.527Z</time>
      </trkpt>
      <trkpt lat="64.75779" lon="11.58334">
        <ele>54.226024</ele>
        <time>2020-08-11T11:32:27.514Z</time>
      </trkpt>
      <trkpt lat="64.75781" lon="11.58356">
        <ele>54.914255</ele>
        <time>2020-08-11T11:32:31.506Z</time>
      </trkpt>
      <trkpt lat="64.75782" lon="11.58377">
        <ele>55.589446</ele>
        <time>2020-08-11T11:32:35.506Z</time>
      </trkpt>
      <trkpt lat="64.75783" lon="11.58402">
        <ele>56.073149</ele>
        <time>2020-08-11T11:32:39.546Z</time>
      </trkpt>
      <trkpt lat="64.75785" lon="11.58425">
        <ele>56.513902</ele>
        <time>2020-08-11T11:32:43.514Z</time>
      </trkpt>
      <trkpt lat="64.75786" lon="11.58449">
        <ele>56.988283</ele>
        <time>2020-08-11T11:32:47.522Z</time>
      </trkpt>
      <trkpt lat="64.75787" lon="11.58474">
        <ele>57.457515</ele>
        <time>2020-08-11T11:32:51.516Z</time>
      </trkpt>
      <trkpt lat="64.75789" lon="11.58494">
        <ele>57.866624</ele>
        <time>2020-08-11T11:32:55.538Z</time>
      </trkpt>
      <trkpt lat="64.75791" lon="11.58515">
        <ele>58.281359</ele>
        <time>2020-08-11T11:32:59.519Z</time>
      </trkpt>
      <trkpt lat="64.75791" lon="11.58537">
        <ele>58.69775</ele>
        <time>2020-08-11T11:33:03.535Z</time>
      </trkpt>
      <trkpt lat="64.75793" lon="11.5856">
        <ele>59.146088</ele>
        <time>2020-08-11T11:33:07.507Z</time>
      </trkpt>
      <trkpt lat="64.75795" lon="11.58581">
        <ele>59.55332</ele>
        <time>2020-08-11T11:33:11.502Z</time>
      </trkpt>
      <trkpt lat="64.75797" lon="11.58605">
        <ele>60.023411</ele>
        <time>2020-08-11T11:33:16.512Z</time>
      </trkpt>
      <trkpt lat="64.75798" lon="11.58626">
        <ele>60.439198</ele>
        <time>2020-08-11T11:33:20.505Z</time>
      </trkpt>
      <trkpt lat="64.758" lon="11.58648">
        <ele>60.861484</ele>
        <time>2020-08-11T11:33:24.525Z</time>
      </trkpt>
      <trkpt lat="64.75802" lon="11.58669">
        <ele>61.273386</ele>
        <time>2020-08-11T11:33:28.532Z</time>
      </trkpt>
      <trkpt lat="64.75804" lon="11.58691">
        <ele>61.700338</ele>
        <time>2020-08-11T11:33:32.495Z</time>
      </trkpt>
      <trkpt lat="64.75806" lon="11.58713">
        <ele>62.139515</ele>
        <time>2020-08-11T11:33:36.502Z</time>
      </trkpt>
      <trkpt lat="64.75809" lon="11.58735">
        <ele>62.566686</ele>
        <time>2020-08-11T11:33:40.518Z</time>
      </trkpt>
      <trkpt lat="64.75812" lon="11.58755">
        <ele>62.986754</ele>
        <time>2020-08-11T11:33:44.513Z</time>
      </trkpt>
      <trkpt lat="64.75817" lon="11.58778">
        <ele>63.47569</ele>
        <time>2020-08-11T11:33:48.543Z</time>
      </trkpt>
      <trkpt lat="64.75821" lon="11.58798">
        <ele>63.842511</ele>
        <time>2020-08-11T11:33:52.546Z</time>
      </trkpt>
      <trkpt lat="64.75825" lon="11.58817">
        <ele>64.1354</ele>
        <time>2020-08-11T11:33:56.519Z</time>
      </trkpt>
      <trkpt lat="64.7583" lon="11.58838">
        <ele>64.474629</ele>
        <time>2020-08-11T11:34:01.527Z</time>
      </trkpt>
      <trkpt lat="64.75835" lon="11.58856">
        <ele>64.768498</ele>
        <time>2020-08-11T11:34:05.492Z</time>
      </trkpt>
      <trkpt lat="64.75839" lon="11.58879">
        <ele>65.114271</ele>
        <time>2020-08-11T11:34:10.540Z</time>
      </trkpt>
      <trkpt lat="64.75844" lon="11.589">
        <ele>65.44266</ele>
        <time>2020-08-11T11:34:14.553Z</time>
      </trkpt>
      <trkpt lat="64.75849" lon="11.58919">
        <ele>65.742098</ele>
        <time>2020-08-11T11:34:18.505Z</time>
      </trkpt>
      <trkpt lat="64.75854" lon="11.58937">
        <ele>66.038301</ele>
        <time>2020-08-11T11:34:22.553Z</time>
      </trkpt>
      <trkpt lat="64.75858" lon="11.58959">
        <ele>66.382084</ele>
        <time>2020-08-11T11:34:27.561Z</time>
      </trkpt>
      <trkpt lat="64.75863" lon="11.58981">
        <ele>66.720907</ele>
        <time>2020-08-11T11:34:32.520Z</time>
      </trkpt>
      <trkpt lat="64.75868" lon="11.59002">
        <ele>67.067766</ele>
        <time>2020-08-11T11:34:37.536Z</time>
      </trkpt>
      <trkpt lat="64.75874" lon="11.5902">
        <ele>67.370026</ele>
        <time>2020-08-11T11:34:42.511Z</time>
      </trkpt>
      <trkpt lat="64.75878" lon="11.59042">
        <ele>67.706373</ele>
        <time>2020-08-11T11:34:48.542Z</time>
      </trkpt>
      <trkpt lat="64.75884" lon="11.59061">
        <ele>68.034764</ele>
        <time>2020-08-11T11:34:54.540Z</time>
      </trkpt>
      <trkpt lat="64.7589" lon="11.59079">
        <ele>68.355615</ele>
        <time>2020-08-11T11:35:00.496Z</time>
      </trkpt>
      <trkpt lat="64.75898" lon="11.59094">
        <ele>68.688161</ele>
        <time>2020-08-11T11:35:06.546Z</time>
      </trkpt>
      <trkpt lat="64.75905" lon="11.5911">
        <ele>69.008446</ele>
        <time>2020-08-11T11:35:12.503Z</time>
      </trkpt>
      <trkpt lat="64.75912" lon="11.59128">
        <ele>69.34303</ele>
        <time>2020-08-11T11:35:17.577Z</time>
      </trkpt>
      <trkpt lat="64.75919" lon="11.59148">
        <ele>69.458543</ele>
        <time>2020-08-11T11:35:22.506Z</time>
      </trkpt>
      <trkpt lat="64.75926" lon="11.59166">
        <ele>69.350394</ele>
        <time>2020-08-11T11:35:27.506Z</time>
      </trkpt>
      <trkpt lat="64.75931" lon="11.59185">
        <ele>69.248388</ele>
        <time>2020-08-11T11:35:32.538Z</time>
      </trkpt>
      <trkpt lat="64.75938" lon="11.59202">
        <ele>69.134602</ele>
        <time>2020-08-11T11:35:37.502Z</time>
      </trkpt>
      <trkpt lat="64.75945" lon="11.59218">
        <ele>69.028082</ele>
        <time>2020-08-11T11:35:41.508Z</time>
      </trkpt>
      <trkpt lat="64.75952" lon="11.59233">
        <ele>68.925729</ele>
        <time>2020-08-11T11:35:45.514Z</time>
      </trkpt>
      <trkpt lat="64.75959" lon="11.59251">
        <ele>68.804197</ele>
        <time>2020-08-11T11:35:50.522Z</time>
      </trkpt>
      <trkpt lat="64.75966" lon="11.59271">
        <ele>68.684675</ele>
        <time>2020-08-11T11:35:55.502Z</time>
      </trkpt>
      <trkpt lat="64.75972" lon="11.59288">
        <ele>68.583202</ele>
        <time>2020-08-11T11:35:59.518Z</time>
      </trkpt>
      <trkpt lat="64.7598" lon="11.59309">
        <ele>68.455139</ele>
        <time>2020-08-11T11:36:03.522Z</time>
      </trkpt>
      <trkpt lat="64.75987" lon="11.59328">
        <ele>68.334877</ele>
        <time>2020-08-11T11:36:06.542Z</time>
      </trkpt>
      <trkpt lat="64.75995" lon="11.5935">
        <ele>68.200414</ele>
        <time>2020-08-11T11:36:09.540Z</time>
      </trkpt>
      <trkpt lat="64.76003" lon="11.59372">
        <ele>68.062031</ele>
        <time>2020-08-11T11:36:12.532Z</time>
      </trkpt>
      <trkpt lat="64.76011" lon="11.59394">
        <ele>67.932189</ele>
        <time>2020-08-11T11:36:15.523Z</time>
      </trkpt>
      <trkpt lat="64.76018" lon="11.59414">
        <ele>67.810823</ele>
        <time>2020-08-11T11:36:18.511Z</time>
      </trkpt>
      <trkpt lat="64.76026" lon="11.59433">
        <ele>67.681894</ele>
        <time>2020-08-11T11:36:21.511Z</time>
      </trkpt>
      <trkpt lat="64.76034" lon="11.59454">
        <ele>67.554527</ele>
        <time>2020-08-11T11:36:24.526Z</time>
      </trkpt>
      <trkpt lat="64.76041" lon="11.59472">
        <ele>68.282249</ele>
        <time>2020-08-11T11:36:27.506Z</time>
      </trkpt>
      <trkpt lat="64.76048" lon="11.5949">
        <ele>68.997036</ele>
        <time>2020-08-11T11:36:30.521Z</time>
      </trkpt>
      <trkpt lat="64.76055" lon="11.5951">
        <ele>69.778801</ele>
        <time>2020-08-11T11:36:34.515Z</time>
      </trkpt>
      <trkpt lat="64.76062" lon="11.59525">
        <ele>70.479721</ele>
        <time>2020-08-11T11:36:38.514Z</time>
      </trkpt>
      <trkpt lat="64.76069" lon="11.59542">
        <ele>71.177103</ele>
        <time>2020-08-11T11:36:42.525Z</time>
      </trkpt>
      <trkpt lat="64.76076" lon="11.59558">
        <ele>71.853224</ele>
        <time>2020-08-11T11:36:46.560Z</time>
      </trkpt>
      <trkpt lat="64.76081" lon="11.59576">
        <ele>72.526725</ele>
        <time>2020-08-11T11:36:50.511Z</time>
      </trkpt>
      <trkpt lat="64.76087" lon="11.59597">
        <ele>73.279672</ele>
        <time>2020-08-11T11:36:55.503Z</time>
      </trkpt>
      <trkpt lat="64.76091" lon="11.5962">
        <ele>74.054456</ele>
        <time>2020-08-11T11:37:01.507Z</time>
      </trkpt>
      <trkpt lat="64.76095" lon="11.59642">
        <ele>74.784596</ele>
        <time>2020-08-11T11:37:07.499Z</time>
      </trkpt>
      <trkpt lat="64.76099" lon="11.59665">
        <ele>75.521167</ele>
        <time>2020-08-11T11:37:13.512Z</time>
      </trkpt>
      <trkpt lat="64.76103" lon="11.59686">
        <ele>76.215543</ele>
        <time>2020-08-11T11:37:19.500Z</time>
      </trkpt>
      <trkpt lat="64.76106" lon="11.5971">
        <ele>76.960642</ele>
        <time>2020-08-11T11:37:26.522Z</time>
      </trkpt>
      <trkpt lat="64.7611" lon="11.59733">
        <ele>77.69812</ele>
        <time>2020-08-11T11:37:33.500Z</time>
      </trkpt>
      <trkpt lat="64.76114" lon="11.59752">
        <ele>78.387301</ele>
        <time>2020-08-11T11:37:39.531Z</time>
      </trkpt>
      <trkpt lat="64.76119" lon="11.59772">
        <ele>79.079242</ele>
        <time>2020-08-11T11:37:45.530Z</time>
      </trkpt>
      <trkpt lat="64.76123" lon="11.59791">
        <ele>79.719548</ele>
        <time>2020-08-11T11:37:51.512Z</time>
      </trkpt>
      <trkpt lat="64.76129" lon="11.59812">
        <ele>80.418468</ele>
        <time>2020-08-11T11:37:58.520Z</time>
      </trkpt>
      <trkpt lat="64.76135" lon="11.5983">
        <ele>80.889852</ele>
        <time>2020-08-11T11:38:04.519Z</time>
      </trkpt>
      <trkpt lat="64.76142" lon="11.59846">
        <ele>81.3698</ele>
        <time>2020-08-11T11:38:10.519Z</time>
      </trkpt>
      <trkpt lat="64.76148" lon="11.59864">
        <ele>81.842384</ele>
        <time>2020-08-11T11:38:17.509Z</time>
      </trkpt>
      <trkpt lat="64.76155" lon="11.59877">
        <ele>82.287488</ele>
        <time>2020-08-11T11:38:23.515Z</time>
      </trkpt>
      <trkpt lat="64.76161" lon="11.59895">
        <ele>82.758659</ele>
        <time>2020-08-11T11:38:30.509Z</time>
      </trkpt>
      <trkpt lat="64.76166" lon="11.59913">
        <ele>83.214941</ele>
        <time>2020-08-11T11:38:36.518Z</time>
      </trkpt>
      <trkpt lat="64.76172" lon="11.59934">
        <ele>83.730419</ele>
        <time>2020-08-11T11:38:42.516Z</time>
      </trkpt>
      <trkpt lat="64.76177" lon="11.59953">
        <ele>84.186498</ele>
        <time>2020-08-11T11:38:48.521Z</time>
      </trkpt>
      <trkpt lat="64.76184" lon="11.59968">
        <ele>84.632176</ele>
        <time>2020-08-11T11:38:54.542Z</time>
      </trkpt>
      <trkpt lat="64.7619" lon="11.59985">
        <ele>85.093853</ele>
        <time>2020-08-11T11:39:00.507Z</time>
      </trkpt>
      <trkpt lat="64.76195" lon="11.60004">
        <ele>85.563553</ele>
        <time>2020-08-11T11:39:06.512Z</time>
      </trkpt>
      <trkpt lat="64.76202" lon="11.60018">
        <ele>86.004257</ele>
        <time>2020-08-11T11:39:11.524Z</time>
      </trkpt>
      <trkpt lat="64.7621" lon="11.60036">
        <ele>86.547772</ele>
        <time>2020-08-11T11:39:16.515Z</time>
      </trkpt>
      <trkpt lat="64.76217" lon="11.60054">
        <ele>87.036227</ele>
        <time>2020-08-11T11:39:20.509Z</time>
      </trkpt>
      <trkpt lat="64.76224" lon="11.60072">
        <ele>87.556864</ele>
        <time>2020-08-11T11:39:24.527Z</time>
      </trkpt>
      <trkpt lat="64.76231" lon="11.60092">
        <ele>88.084662</ele>
        <time>2020-08-11T11:39:28.549Z</time>
      </trkpt>
      <trkpt lat="64.76238" lon="11.60113">
        <ele>88.641404</ele>
        <time>2020-08-11T11:39:32.504Z</time>
      </trkpt>
      <trkpt lat="64.76245" lon="11.60136">
        <ele>88.865043</ele>
        <time>2020-08-11T11:39:36.548Z</time>
      </trkpt>
      <trkpt lat="64.76252" lon="11.60153">
        <ele>88.254615</ele>
        <time>2020-08-11T11:39:39.528Z</time>
      </trkpt>
      <trkpt lat="64.76258" lon="11.60173">
        <ele>87.584025</ele>
        <time>2020-08-11T11:39:42.506Z</time>
      </trkpt>
      <trkpt lat="64.76266" lon="11.60197">
        <ele>86.81095</ele>
        <time>2020-08-11T11:39:45.502Z</time>
      </trkpt>
      <trkpt lat="64.76271" lon="11.60214">
        <ele>86.233494</ele>
        <time>2020-08-11T11:39:47.542Z</time>
      </trkpt>
      <trkpt lat="64.76278" lon="11.60232">
        <ele>85.623164</ele>
        <time>2020-08-11T11:39:49.520Z</time>
      </trkpt>
      <trkpt lat="64.76284" lon="11.60252">
        <ele>84.950524</ele>
        <time>2020-08-11T11:39:51.541Z</time>
      </trkpt>
      <trkpt lat="64.76292" lon="11.60273">
        <ele>84.226162</ele>
        <time>2020-08-11T11:39:53.510Z</time>
      </trkpt>
      <trkpt lat="64.763" lon="11.60296">
        <ele>83.443823</ele>
        <time>2020-08-11T11:39:55.531Z</time>
      </trkpt>
      <trkpt lat="64.76309" lon="11.6032">
        <ele>82.609461</ele>
        <time>2020-08-11T11:39:57.528Z</time>
      </trkpt>
      <trkpt lat="64.76318" lon="11.60348">
        <ele>81.686903</ele>
        <time>2020-08-11T11:39:59.527Z</time>
      </trkpt>
      <trkpt lat="64.76328" lon="11.6038">
        <ele>80.647251</ele>
        <time>2020-08-11T11:40:01.515Z</time>
      </trkpt>
      <trkpt lat="64.76334" lon="11.60396">
        <ele>80.094958</ele>
        <time>2020-08-11T11:40:02.532Z</time>
      </trkpt>
      <trkpt lat="64.7634" lon="11.60413">
        <ele>79.508699</ele>
        <time>2020-08-11T11:40:03.503Z</time>
      </trkpt>
      <trkpt lat="64.76346" lon="11.60431">
        <ele>78.896144</ele>
        <time>2020-08-11T11:40:04.503Z</time>
      </trkpt>
      <trkpt lat="64.76352" lon="11.6045">
        <ele>78.269459</ele>
        <time>2020-08-11T11:40:05.519Z</time>
      </trkpt>
      <trkpt lat="64.76359" lon="11.60469">
        <ele>77.592355</ele>
        <time>2020-08-11T11:40:06.526Z</time>
      </trkpt>
      <trkpt lat="64.76367" lon="11.60489">
        <ele>76.871639</ele>
        <time>2020-08-11T11:40:07.513Z</time>
      </trkpt>
      <trkpt lat="64.76374" lon="11.6051">
        <ele>76.128046</ele>
        <time>2020-08-11T11:40:08.521Z</time>
      </trkpt>
      <trkpt lat="64.76382" lon="11.60531">
        <ele>75.362972</ele>
        <time>2020-08-11T11:40:09.547Z</time>
      </trkpt>
      <trkpt lat="64.76391" lon="11.60551">
        <ele>74.568594</ele>
        <time>2020-08-11T11:40:10.504Z</time>
      </trkpt>
      <trkpt lat="64.764" lon="11.6057">
        <ele>73.769522</ele>
        <time>2020-08-11T11:40:11.511Z</time>
      </trkpt>
      <trkpt lat="64.7641" lon="11.60589">
        <ele>72.931546</ele>
        <time>2020-08-11T11:40:12.605Z</time>
      </trkpt>
      <trkpt lat="64.76421" lon="11.60608">
        <ele>72.07774</ele>
        <time>2020-08-11T11:40:13.554Z</time>
      </trkpt>
      <trkpt lat="64.76433" lon="11.60624">
        <ele>71.213346</ele>
        <time>2020-08-11T11:40:14.539Z</time>
      </trkpt>
      <trkpt lat="64.76445" lon="11.60639">
        <ele>70.34289</ele>
        <time>2020-08-11T11:40:15.519Z</time>
      </trkpt>
      <trkpt lat="64.76457" lon="11.60652">
        <ele>69.476357</ele>
        <time>2020-08-11T11:40:16.513Z</time>
      </trkpt>
      <trkpt lat="64.7647" lon="11.60663">
        <ele>68.604279</ele>
        <time>2020-08-11T11:40:17.531Z</time>
      </trkpt>
      <trkpt lat="64.76483" lon="11.60673">
        <ele>67.716346</ele>
        <time>2020-08-11T11:40:18.568Z</time>
      </trkpt>
      <trkpt lat="64.76496" lon="11.60683">
        <ele>66.836806</ele>
        <time>2020-08-11T11:40:19.553Z</time>
      </trkpt>
      <trkpt lat="64.76509" lon="11.60692">
        <ele>66.148976</ele>
        <time>2020-08-11T11:40:20.505Z</time>
      </trkpt>
      <trkpt lat="64.76522" lon="11.607">
        <ele>65.634012</ele>
        <time>2020-08-11T11:40:21.539Z</time>
      </trkpt>
      <trkpt lat="64.76534" lon="11.60708">
        <ele>65.126569</ele>
        <time>2020-08-11T11:40:22.515Z</time>
      </trkpt>
      <trkpt lat="64.76546" lon="11.60717">
        <ele>64.626638</ele>
        <time>2020-08-11T11:40:23.503Z</time>
      </trkpt>
      <trkpt lat="64.76558" lon="11.60725">
        <ele>64.143988</ele>
        <time>2020-08-11T11:40:24.519Z</time>
      </trkpt>
      <trkpt lat="64.76569" lon="11.60735">
        <ele>63.675669</ele>
        <time>2020-08-11T11:40:25.509Z</time>
      </trkpt>
      <trkpt lat="64.7658" lon="11.60745">
        <ele>63.215405</ele>
        <time>2020-08-11T11:40:26.521Z</time>
      </trkpt>
      <trkpt lat="64.76591" lon="11.60756">
        <ele>62.776897</ele>
        <time>2020-08-11T11:40:27.545Z</time>
      </trkpt>
      <trkpt lat="64.766" lon="11.60768">
        <ele>62.355087</ele>
        <time>2020-08-11T11:40:28.549Z</time>
      </trkpt>
      <trkpt lat="64.76609" lon="11.6078">
        <ele>61.957491</ele>
        <time>2020-08-11T11:40:29.527Z</time>
      </trkpt>
      <trkpt lat="64.76617" lon="11.60792">
        <ele>61.588955</ele>
        <time>2020-08-11T11:40:30.563Z</time>
      </trkpt>
      <trkpt lat="64.7663" lon="11.60815">
        <ele>60.934434</ele>
        <time>2020-08-11T11:40:32.532Z</time>
      </trkpt>
      <trkpt lat="64.76641" lon="11.60837">
        <ele>60.368711</ele>
        <time>2020-08-11T11:40:34.503Z</time>
      </trkpt>
      <trkpt lat="64.7665" lon="11.60857">
        <ele>59.891874</ele>
        <time>2020-08-11T11:40:36.530Z</time>
      </trkpt>
      <trkpt lat="64.76657" lon="11.60875">
        <ele>59.491452</ele>
        <time>2020-08-11T11:40:38.517Z</time>
      </trkpt>
      <trkpt lat="64.76662" lon="11.60894">
        <ele>59.395022</ele>
        <time>2020-08-11T11:40:40.540Z</time>
      </trkpt>
      <trkpt lat="64.76667" lon="11.60912">
        <ele>59.395305</ele>
        <time>2020-08-11T11:40:42.499Z</time>
      </trkpt>
      <trkpt lat="64.76674" lon="11.60935">
        <ele>59.395678</ele>
        <time>2020-08-11T11:40:45.502Z</time>
      </trkpt>
      <trkpt lat="64.7668" lon="11.60955">
        <ele>59.396014</ele>
        <time>2020-08-11T11:40:48.511Z</time>
      </trkpt>
      <trkpt lat="64.76685" lon="11.60974">
        <ele>59.396306</ele>
        <time>2020-08-11T11:40:51.510Z</time>
      </trkpt>
      <trkpt lat="64.7669" lon="11.60998">
        <ele>59.396651</ele>
        <time>2020-08-11T11:40:55.523Z</time>
      </trkpt>
      <trkpt lat="64.76694" lon="11.61023">
        <ele>59.39701</ele>
        <time>2020-08-11T11:40:59.507Z</time>
      </trkpt>
      <trkpt lat="64.76698" lon="11.61044">
        <ele>59.39731</ele>
        <time>2020-08-11T11:41:02.514Z</time>
      </trkpt>
      <trkpt lat="64.76702" lon="11.61065">
        <ele>59.397631</ele>
        <time>2020-08-11T11:41:05.512Z</time>
      </trkpt>
      <trkpt lat="64.76707" lon="11.61092">
        <ele>59.398023</ele>
        <time>2020-08-11T11:41:08.514Z</time>
      </trkpt>
      <trkpt lat="64.76712" lon="11.61123">
        <ele>59.398455</ele>
        <time>2020-08-11T11:41:11.584Z</time>
      </trkpt>
      <trkpt lat="64.76715" lon="11.61146">
        <ele>59.398785</ele>
        <time>2020-08-11T11:41:13.511Z</time>
      </trkpt>
      <trkpt lat="64.76719" lon="11.61172">
        <ele>59.39915</ele>
        <time>2020-08-11T11:41:15.509Z</time>
      </trkpt>
      <trkpt lat="64.76724" lon="11.61201">
        <ele>59.399556</ele>
        <time>2020-08-11T11:41:17.519Z</time>
      </trkpt>
      <trkpt lat="64.76729" lon="11.61233">
        <ele>59.400012</ele>
        <time>2020-08-11T11:41:19.519Z</time>
      </trkpt>
      <trkpt lat="64.76734" lon="11.61267">
        <ele>59.304699</ele>
        <time>2020-08-11T11:41:21.560Z</time>
      </trkpt>
      <trkpt lat="64.76741" lon="11.61301">
        <ele>58.741533</ele>
        <time>2020-08-11T11:41:23.507Z</time>
      </trkpt>
      <trkpt lat="64.76747" lon="11.61337">
        <ele>58.160359</ele>
        <time>2020-08-11T11:41:25.512Z</time>
      </trkpt>
      <trkpt lat="64.76754" lon="11.61375">
        <ele>57.541586</ele>
        <time>2020-08-11T11:41:27.542Z</time>
      </trkpt>
      <trkpt lat="64.76757" lon="11.61395">
        <ele>57.215409</ele>
        <time>2020-08-11T11:41:28.523Z</time>
      </trkpt>
      <trkpt lat="64.7676" lon="11.61416">
        <ele>56.873463</ele>
        <time>2020-08-11T11:41:29.529Z</time>
      </trkpt>
      <trkpt lat="64.76763" lon="11.61438">
        <ele>56.524395</ele>
        <time>2020-08-11T11:41:30.539Z</time>
      </trkpt>
      <trkpt lat="64.76766" lon="11.61461">
        <ele>56.167084</ele>
        <time>2020-08-11T11:41:31.510Z</time>
      </trkpt>
      <trkpt lat="64.76769" lon="11.61484">
        <ele>55.807122</ele>
        <time>2020-08-11T11:41:32.499Z</time>
      </trkpt>
      <trkpt lat="64.7677" lon="11.61508">
        <ele>55.444991</ele>
        <time>2020-08-11T11:41:33.506Z</time>
      </trkpt>
      <trkpt lat="64.76772" lon="11.61532">
        <ele>55.074226</ele>
        <time>2020-08-11T11:41:34.510Z</time>
      </trkpt>
      <trkpt lat="64.76772" lon="11.61557">
        <ele>54.702482</ele>
        <time>2020-08-11T11:41:35.502Z</time>
      </trkpt>
      <trkpt lat="64.76773" lon="11.61581">
        <ele>54.331496</ele>
        <time>2020-08-11T11:41:36.528Z</time>
      </trkpt>
      <trkpt lat="64.76772" lon="11.61606">
        <ele>53.967687</ele>
        <time>2020-08-11T11:41:37.522Z</time>
      </trkpt>
      <trkpt lat="64.76771" lon="11.61629">
        <ele>53.615721</ele>
        <time>2020-08-11T11:41:38.499Z</time>
      </trkpt>
      <trkpt lat="64.7677" lon="11.61651">
        <ele>53.270853</ele>
        <time>2020-08-11T11:41:39.518Z</time>
      </trkpt>
      <trkpt lat="64.76768" lon="11.61674">
        <ele>52.920884</ele>
        <time>2020-08-11T11:41:40.503Z</time>
      </trkpt>
      <trkpt lat="64.76767" lon="11.61695">
        <ele>52.568309</ele>
        <time>2020-08-11T11:41:41.497Z</time>
      </trkpt>
      <trkpt lat="64.76765" lon="11.61716">
        <ele>52.227396</ele>
        <time>2020-08-11T11:41:42.526Z</time>
      </trkpt>
      <trkpt lat="64.76762" lon="11.61757">
        <ele>51.549042</ele>
        <time>2020-08-11T11:41:44.507Z</time>
      </trkpt>
      <trkpt lat="64.76758" lon="11.61798">
        <ele>50.861451</ele>
        <time>2020-08-11T11:41:46.588Z</time>
      </trkpt>
      <trkpt lat="64.76754" lon="11.61838">
        <ele>50.196642</ele>
        <time>2020-08-11T11:41:48.533Z</time>
      </trkpt>
      <trkpt lat="64.7675" lon="11.61875">
        <ele>49.578451</ele>
        <time>2020-08-11T11:41:50.546Z</time>
      </trkpt>
      <trkpt lat="64.76747" lon="11.61911">
        <ele>48.978094</ele>
        <time>2020-08-11T11:41:52.513Z</time>
      </trkpt>
      <trkpt lat="64.76745" lon="11.61945">
        <ele>48.421741</ele>
        <time>2020-08-11T11:41:54.499Z</time>
      </trkpt>
      <trkpt lat="64.76744" lon="11.61975">
        <ele>47.935539</ele>
        <time>2020-08-11T11:41:56.511Z</time>
      </trkpt>
      <trkpt lat="64.76745" lon="11.62002">
        <ele>47.494198</ele>
        <time>2020-08-11T11:41:58.500Z</time>
      </trkpt>
      <trkpt lat="64.76747" lon="11.62026">
        <ele>47.097989</ele>
        <time>2020-08-11T11:42:00.522Z</time>
      </trkpt>
      <trkpt lat="64.76751" lon="11.62047">
        <ele>46.723038</ele>
        <time>2020-08-11T11:42:02.519Z</time>
      </trkpt>
      <trkpt lat="64.76756" lon="11.62066">
        <ele>46.366508</ele>
        <time>2020-08-11T11:42:04.552Z</time>
      </trkpt>
      <trkpt lat="64.76763" lon="11.62092">
        <ele>45.972321</ele>
        <time>2020-08-11T11:42:07.517Z</time>
      </trkpt>
      <trkpt lat="64.7677" lon="11.62118">
        <ele>45.630657</ele>
        <time>2020-08-11T11:42:10.552Z</time>
      </trkpt>
      <trkpt lat="64.76777" lon="11.62138">
        <ele>45.358861</ele>
        <time>2020-08-11T11:42:12.525Z</time>
      </trkpt>
      <trkpt lat="64.76784" lon="11.62162">
        <ele>45.038718</ele>
        <time>2020-08-11T11:42:14.506Z</time>
      </trkpt>
      <trkpt lat="64.7679" lon="11.62188">
        <ele>44.699753</ele>
        <time>2020-08-11T11:42:16.515Z</time>
      </trkpt>
      <trkpt lat="64.76798" lon="11.62218">
        <ele>44.327998</ele>
        <time>2020-08-11T11:42:18.504Z</time>
      </trkpt>
      <trkpt lat="64.76805" lon="11.62246">
        <ele>43.974611</ele>
        <time>2020-08-11T11:42:20.502Z</time>
      </trkpt>
      <trkpt lat="64.76812" lon="11.62269">
        <ele>43.664572</ele>
        <time>2020-08-11T11:42:22.502Z</time>
      </trkpt>
      <trkpt lat="64.76818" lon="11.62284">
        <ele>43.423298</ele>
        <time>2020-08-11T11:42:24.524Z</time>
      </trkpt>
      <trkpt lat="64.76829" lon="11.62292">
        <ele>43.149901</ele>
        <time>2020-08-11T11:42:27.504Z</time>
      </trkpt>
      <trkpt lat="64.76839" lon="11.6229">
        <ele>42.895995</ele>
        <time>2020-08-11T11:42:31.532Z</time>
      </trkpt>
      <trkpt lat="64.76843" lon="11.6229">
        <ele>42.777879</ele>
        <time>2020-08-11T11:43:02.269Z</time>
      </trkpt>
      <trkpt lat="64.76839" lon="11.62309">
        <ele>42.538579</ele>
        <time>2020-08-11T12:25:06.133Z</time>
      </trkpt>
      <trkpt lat="64.76832" lon="11.62323">
        <ele>42.308598</ele>
        <time>2020-08-11T12:25:12.131Z</time>
      </trkpt>
      <trkpt lat="64.76833" lon="11.62345">
        <ele>42.06709</ele>
        <time>2020-08-11T12:25:21.150Z</time>
      </trkpt>
      <trkpt lat="64.76838" lon="11.62363">
        <ele>41.821966</ele>
        <time>2020-08-11T12:25:31.187Z</time>
      </trkpt>
      <trkpt lat="64.76843" lon="11.62381">
        <ele>41.59113</ele>
        <time>2020-08-11T12:25:41.130Z</time>
      </trkpt>
      <trkpt lat="64.76849" lon="11.62398">
        <ele>41.325695</ele>
        <time>2020-08-11T12:25:59.120Z</time>
      </trkpt>
      <trkpt lat="64.76843" lon="11.6237">
        <ele>40.944459</ele>
        <time>2020-08-11T12:27:39.134Z</time>
      </trkpt>
      <trkpt lat="64.76843" lon="11.62392">
        <ele>40.673247</ele>
        <time>2020-08-11T12:28:34.131Z</time>
      </trkpt>
      <trkpt lat="64.76849" lon="11.6241">
        <ele>40.39358</ele>
        <time>2020-08-11T12:28:51.122Z</time>
      </trkpt>
      <trkpt lat="64.76856" lon="11.62422">
        <ele>40.125783</ele>
        <time>2020-08-11T12:29:14.140Z</time>
      </trkpt>
      <trkpt lat="64.7748" lon="11.62019">
        <ele>30.513672</ele>
        <time>2020-08-11T12:36:15.437Z</time>
      </trkpt>
      <trkpt lat="64.77488" lon="11.61993">
        <ele>30.928942</ele>
        <time>2020-08-11T12:36:17.335Z</time>
      </trkpt>
      <trkpt lat="64.77494" lon="11.61973">
        <ele>31.330819</ele>
        <time>2020-08-11T12:36:19.283Z</time>
      </trkpt>
      <trkpt lat="64.77505" lon="11.61956">
        <ele>32.171245</ele>
        <time>2020-08-11T12:36:22.258Z</time>
      </trkpt>
      <trkpt lat="64.77516" lon="11.61936">
        <ele>33.03571</ele>
        <time>2020-08-11T12:36:25.263Z</time>
      </trkpt>
      <trkpt lat="64.77523" lon="11.61923">
        <ele>33.662965</ele>
        <time>2020-08-11T12:36:27.281Z</time>
      </trkpt>
      <trkpt lat="64.77532" lon="11.61908">
        <ele>34.349501</ele>
        <time>2020-08-11T12:36:29.280Z</time>
      </trkpt>
      <trkpt lat="64.7754" lon="11.61893">
        <ele>35.025405</ele>
        <time>2020-08-11T12:36:31.292Z</time>
      </trkpt>
      <trkpt lat="64.77549" lon="11.61881">
        <ele>35.66726</ele>
        <time>2020-08-11T12:36:33.282Z</time>
      </trkpt>
      <trkpt lat="64.77557" lon="11.61868">
        <ele>36.298204</ele>
        <time>2020-08-11T12:36:35.267Z</time>
      </trkpt>
      <trkpt lat="64.77565" lon="11.61853">
        <ele>36.970671</ele>
        <time>2020-08-11T12:36:37.269Z</time>
      </trkpt>
      <trkpt lat="64.77574" lon="11.6184">
        <ele>37.637622</ele>
        <time>2020-08-11T12:36:39.308Z</time>
      </trkpt>
      <trkpt lat="64.77582" lon="11.61825">
        <ele>38.329033</ele>
        <time>2020-08-11T12:36:41.322Z</time>
      </trkpt>
      <trkpt lat="64.77591" lon="11.61809">
        <ele>39.037277</ele>
        <time>2020-08-11T12:36:43.331Z</time>
      </trkpt>
      <trkpt lat="64.776" lon="11.61795">
        <ele>39.725186</ele>
        <time>2020-08-11T12:36:45.304Z</time>
      </trkpt>
      <trkpt lat="64.77609" lon="11.61781">
        <ele>40.415931</ele>
        <time>2020-08-11T12:36:47.284Z</time>
      </trkpt>
      <trkpt lat="64.77617" lon="11.61766">
        <ele>41.088393</ele>
        <time>2020-08-11T12:36:49.291Z</time>
      </trkpt>
      <trkpt lat="64.77625" lon="11.61752">
        <ele>41.769691</ele>
        <time>2020-08-11T12:36:51.328Z</time>
      </trkpt>
      <trkpt lat="64.77634" lon="11.61735">
        <ele>42.472923</ele>
        <time>2020-08-11T12:36:53.281Z</time>
      </trkpt>
      <trkpt lat="64.77642" lon="11.6172">
        <ele>42.991502</ele>
        <time>2020-08-11T12:36:55.295Z</time>
      </trkpt>
      <trkpt lat="64.7765" lon="11.61704">
        <ele>43.298702</ele>
        <time>2020-08-11T12:36:57.300Z</time>
      </trkpt>
      <trkpt lat="64.77658" lon="11.61688">
        <ele>43.607718</ele>
        <time>2020-08-11T12:36:59.281Z</time>
      </trkpt>
      <trkpt lat="64.77666" lon="11.61673">
        <ele>43.916027</ele>
        <time>2020-08-11T12:37:01.292Z</time>
      </trkpt>
      <trkpt lat="64.77674" lon="11.61656">
        <ele>44.225534</ele>
        <time>2020-08-11T12:37:03.316Z</time>
      </trkpt>
      <trkpt lat="64.77682" lon="11.61642">
        <ele>44.533839</ele>
        <time>2020-08-11T12:37:05.291Z</time>
      </trkpt>
      <trkpt lat="64.77691" lon="11.61627">
        <ele>44.840652</ele>
        <time>2020-08-11T12:37:07.308Z</time>
      </trkpt>
      <trkpt lat="64.77699" lon="11.61612">
        <ele>45.138074</ele>
        <time>2020-08-11T12:37:09.345Z</time>
      </trkpt>
      <trkpt lat="64.77706" lon="11.61597">
        <ele>45.439022</ele>
        <time>2020-08-11T12:37:11.260Z</time>
      </trkpt>
      <trkpt lat="64.77714" lon="11.6158">
        <ele>45.753221</ele>
        <time>2020-08-11T12:37:13.313Z</time>
      </trkpt>
      <trkpt lat="64.77722" lon="11.61564">
        <ele>46.061677</ele>
        <time>2020-08-11T12:37:15.296Z</time>
      </trkpt>
      <trkpt lat="64.7773" lon="11.61547">
        <ele>46.374883</ele>
        <time>2020-08-11T12:37:17.279Z</time>
      </trkpt>
      <trkpt lat="64.77738" lon="11.61531">
        <ele>46.67279</ele>
        <time>2020-08-11T12:37:19.287Z</time>
      </trkpt>
      <trkpt lat="64.77746" lon="11.61516">
        <ele>46.968839</ele>
        <time>2020-08-11T12:37:21.302Z</time>
      </trkpt>
      <trkpt lat="64.77754" lon="11.61502">
        <ele>47.277288</ele>
        <time>2020-08-11T12:37:23.279Z</time>
      </trkpt>
      <trkpt lat="64.77763" lon="11.61487">
        <ele>47.602659</ele>
        <time>2020-08-11T12:37:25.303Z</time>
      </trkpt>
      <trkpt lat="64.77772" lon="11.61473">
        <ele>47.91808</ele>
        <time>2020-08-11T12:37:27.269Z</time>
      </trkpt>
      <trkpt lat="64.7778" lon="11.61457">
        <ele>48.290862</ele>
        <time>2020-08-11T12:37:29.291Z</time>
      </trkpt>
      <trkpt lat="64.7779" lon="11.61445">
        <ele>48.795323</ele>
        <time>2020-08-11T12:37:31.303Z</time>
      </trkpt>
      <trkpt lat="64.77799" lon="11.61431">
        <ele>49.294134</ele>
        <time>2020-08-11T12:37:33.307Z</time>
      </trkpt>
      <trkpt lat="64.77807" lon="11.61414">
        <ele>49.819331</ele>
        <time>2020-08-11T12:37:35.298Z</time>
      </trkpt>
      <trkpt lat="64.77815" lon="11.61397">
        <ele>50.325982</ele>
        <time>2020-08-11T12:37:37.329Z</time>
      </trkpt>
      <trkpt lat="64.77823" lon="11.61382">
        <ele>50.811747</ele>
        <time>2020-08-11T12:37:39.291Z</time>
      </trkpt>
      <trkpt lat="64.77831" lon="11.61364">
        <ele>51.31212</ele>
        <time>2020-08-11T12:37:41.289Z</time>
      </trkpt>
      <trkpt lat="64.77839" lon="11.61348">
        <ele>51.821853</ele>
        <time>2020-08-11T12:37:43.292Z</time>
      </trkpt>
      <trkpt lat="64.77847" lon="11.6133">
        <ele>52.355015</ele>
        <time>2020-08-11T12:37:45.272Z</time>
      </trkpt>
      <trkpt lat="64.77856" lon="11.61313">
        <ele>52.887249</ele>
        <time>2020-08-11T12:37:47.273Z</time>
      </trkpt>
      <trkpt lat="64.77864" lon="11.61297">
        <ele>53.391459</ele>
        <time>2020-08-11T12:37:49.300Z</time>
      </trkpt>
      <trkpt lat="64.77873" lon="11.61282">
        <ele>53.884552</ele>
        <time>2020-08-11T12:37:51.298Z</time>
      </trkpt>
      <trkpt lat="64.77881" lon="11.61267">
        <ele>54.396176</ele>
        <time>2020-08-11T12:37:53.287Z</time>
      </trkpt>
      <trkpt lat="64.77891" lon="11.61253">
        <ele>54.920209</ele>
        <time>2020-08-11T12:37:55.287Z</time>
      </trkpt>
      <trkpt lat="64.779" lon="11.61238">
        <ele>55.451446</ele>
        <time>2020-08-11T12:37:57.288Z</time>
      </trkpt>
      <trkpt lat="64.77909" lon="11.61224">
        <ele>55.944654</ele>
        <time>2020-08-11T12:37:59.320Z</time>
      </trkpt>
      <trkpt lat="64.77917" lon="11.61209">
        <ele>56.453483</ele>
        <time>2020-08-11T12:38:01.285Z</time>
      </trkpt>
      <trkpt lat="64.77927" lon="11.61197">
        <ele>56.884584</ele>
        <time>2020-08-11T12:38:03.276Z</time>
      </trkpt>
      <trkpt lat="64.77936" lon="11.61182">
        <ele>57.270434</ele>
        <time>2020-08-11T12:38:05.284Z</time>
      </trkpt>
      <trkpt lat="64.77944" lon="11.61165">
        <ele>57.664099</ele>
        <time>2020-08-11T12:38:07.304Z</time>
      </trkpt>
      <trkpt lat="64.77953" lon="11.61148">
        <ele>58.044836</ele>
        <time>2020-08-11T12:38:09.279Z</time>
      </trkpt>
      <trkpt lat="64.7796" lon="11.61133">
        <ele>58.394541</ele>
        <time>2020-08-11T12:38:11.299Z</time>
      </trkpt>
      <trkpt lat="64.77968" lon="11.61116">
        <ele>58.763764</ele>
        <time>2020-08-11T12:38:13.291Z</time>
      </trkpt>
      <trkpt lat="64.77976" lon="11.61098">
        <ele>59.148614</ele>
        <time>2020-08-11T12:38:15.265Z</time>
      </trkpt>
      <trkpt lat="64.77984" lon="11.61081">
        <ele>59.53842</ele>
        <time>2020-08-11T12:38:17.287Z</time>
      </trkpt>
      <trkpt lat="64.77992" lon="11.61064">
        <ele>59.923314</ele>
        <time>2020-08-11T12:38:19.306Z</time>
      </trkpt>
      <trkpt lat="64.78001" lon="11.6105">
        <ele>60.302508</ele>
        <time>2020-08-11T12:38:21.284Z</time>
      </trkpt>
      <trkpt lat="64.78009" lon="11.61034">
        <ele>60.675407</ele>
        <time>2020-08-11T12:38:23.285Z</time>
      </trkpt>
      <trkpt lat="64.78017" lon="11.61019">
        <ele>61.037105</ele>
        <time>2020-08-11T12:38:25.297Z</time>
      </trkpt>
      <trkpt lat="64.78025" lon="11.61003">
        <ele>61.40904</ele>
        <time>2020-08-11T12:38:27.297Z</time>
      </trkpt>
      <trkpt lat="64.78034" lon="11.60988">
        <ele>61.790082</ele>
        <time>2020-08-11T12:38:29.291Z</time>
      </trkpt>
      <trkpt lat="64.78042" lon="11.60971">
        <ele>62.186177</ele>
        <time>2020-08-11T12:38:31.276Z</time>
      </trkpt>
      <trkpt lat="64.78051" lon="11.60955">
        <ele>62.570016</ele>
        <time>2020-08-11T12:38:33.285Z</time>
      </trkpt>
      <trkpt lat="64.78059" lon="11.6094">
        <ele>62.95586</ele>
        <time>2020-08-11T12:38:35.301Z</time>
      </trkpt>
      <trkpt lat="64.78068" lon="11.60924">
        <ele>63.226737</ele>
        <time>2020-08-11T12:38:37.301Z</time>
      </trkpt>
      <trkpt lat="64.78076" lon="11.60909">
        <ele>63.494001</ele>
        <time>2020-08-11T12:38:39.301Z</time>
      </trkpt>
      <trkpt lat="64.78084" lon="11.60893">
        <ele>63.748756</ele>
        <time>2020-08-11T12:38:41.283Z</time>
      </trkpt>
      <trkpt lat="64.78091" lon="11.60877">
        <ele>64.012257</ele>
        <time>2020-08-11T12:38:43.292Z</time>
      </trkpt>
      <trkpt lat="64.78099" lon="11.60862">
        <ele>64.269543</ele>
        <time>2020-08-11T12:38:45.298Z</time>
      </trkpt>
      <trkpt lat="64.78107" lon="11.60847">
        <ele>64.52813</ele>
        <time>2020-08-11T12:38:47.278Z</time>
      </trkpt>
      <trkpt lat="64.78115" lon="11.60832">
        <ele>64.783577</ele>
        <time>2020-08-11T12:38:49.285Z</time>
      </trkpt>
      <trkpt lat="64.78123" lon="11.60816">
        <ele>65.045551</ele>
        <time>2020-08-11T12:38:51.294Z</time>
      </trkpt>
      <trkpt lat="64.78132" lon="11.60802">
        <ele>65.316556</ele>
        <time>2020-08-11T12:38:53.291Z</time>
      </trkpt>
      <trkpt lat="64.7814" lon="11.60788">
        <ele>65.578246</ele>
        <time>2020-08-11T12:38:55.286Z</time>
      </trkpt>
      <trkpt lat="64.78149" lon="11.60774">
        <ele>65.844939</ele>
        <time>2020-08-11T12:38:57.311Z</time>
      </trkpt>
      <trkpt lat="64.78157" lon="11.60759">
        <ele>66.112421</ele>
        <time>2020-08-11T12:38:59.277Z</time>
      </trkpt>
      <trkpt lat="64.78166" lon="11.60744">
        <ele>66.378976</ele>
        <time>2020-08-11T12:39:01.285Z</time>
      </trkpt>
      <trkpt lat="64.78175" lon="11.60729">
        <ele>66.655148</ele>
        <time>2020-08-11T12:39:03.276Z</time>
      </trkpt>
      <trkpt lat="64.78184" lon="11.60714">
        <ele>66.935112</ele>
        <time>2020-08-11T12:39:05.299Z</time>
      </trkpt>
      <trkpt lat="64.78192" lon="11.60699">
        <ele>67.207802</ele>
        <time>2020-08-11T12:39:07.293Z</time>
      </trkpt>
      <trkpt lat="64.78201" lon="11.60685">
        <ele>67.478192</ele>
        <time>2020-08-11T12:39:09.286Z</time>
      </trkpt>
      <trkpt lat="64.7821" lon="11.6067">
        <ele>67.081852</ele>
        <time>2020-08-11T12:39:11.287Z</time>
      </trkpt>
      <trkpt lat="64.78218" lon="11.60655">
        <ele>66.604409</ele>
        <time>2020-08-11T12:39:13.286Z</time>
      </trkpt>
      <trkpt lat="64.78226" lon="11.60639">
        <ele>66.117323</ele>
        <time>2020-08-11T12:39:15.288Z</time>
      </trkpt>
      <trkpt lat="64.78235" lon="11.60624">
        <ele>65.633863</ele>
        <time>2020-08-11T12:39:17.286Z</time>
      </trkpt>
      <trkpt lat="64.78243" lon="11.60609">
        <ele>65.148025</ele>
        <time>2020-08-11T12:39:19.276Z</time>
      </trkpt>
      <trkpt lat="64.78252" lon="11.60596">
        <ele>64.673107</ele>
        <time>2020-08-11T12:39:21.285Z</time>
      </trkpt>
      <trkpt lat="64.78261" lon="11.60582">
        <ele>64.187793</ele>
        <time>2020-08-11T12:39:23.290Z</time>
      </trkpt>
      <trkpt lat="64.78269" lon="11.60568">
        <ele>63.720767</ele>
        <time>2020-08-11T12:39:25.292Z</time>
      </trkpt>
      <trkpt lat="64.78277" lon="11.60554">
        <ele>63.266835</ele>
        <time>2020-08-11T12:39:27.312Z</time>
      </trkpt>
      <trkpt lat="64.78285" lon="11.6054">
        <ele>62.795689</ele>
        <time>2020-08-11T12:39:29.321Z</time>
      </trkpt>
      <trkpt lat="64.78294" lon="11.60527">
        <ele>62.30341</ele>
        <time>2020-08-11T12:39:31.289Z</time>
      </trkpt>
      <trkpt lat="64.78304" lon="11.60512">
        <ele>61.791564</ele>
        <time>2020-08-11T12:39:33.306Z</time>
      </trkpt>
      <trkpt lat="64.78312" lon="11.60496">
        <ele>61.306922</ele>
        <time>2020-08-11T12:39:35.299Z</time>
      </trkpt>
      <trkpt lat="64.7832" lon="11.60481">
        <ele>60.832928</ele>
        <time>2020-08-11T12:39:37.291Z</time>
      </trkpt>
      <trkpt lat="64.78328" lon="11.60465">
        <ele>60.338437</ele>
        <time>2020-08-11T12:39:39.287Z</time>
      </trkpt>
      <trkpt lat="64.78337" lon="11.60449">
        <ele>59.847801</ele>
        <time>2020-08-11T12:39:41.276Z</time>
      </trkpt>
      <trkpt lat="64.78346" lon="11.60435">
        <ele>59.357654</ele>
        <time>2020-08-11T12:39:43.288Z</time>
      </trkpt>
      <trkpt lat="64.78354" lon="11.60422">
        <ele>59.162322</ele>
        <time>2020-08-11T12:39:45.287Z</time>
      </trkpt>
      <trkpt lat="64.78363" lon="11.60407">
        <ele>59.010104</ele>
        <time>2020-08-11T12:39:47.278Z</time>
      </trkpt>
      <trkpt lat="64.78372" lon="11.60395">
        <ele>58.860555</ele>
        <time>2020-08-11T12:39:49.279Z</time>
      </trkpt>
      <trkpt lat="64.7838" lon="11.60381">
        <ele>58.715727</ele>
        <time>2020-08-11T12:39:51.308Z</time>
      </trkpt>
      <trkpt lat="64.78388" lon="11.60366">
        <ele>58.569784</ele>
        <time>2020-08-11T12:39:53.289Z</time>
      </trkpt>
      <trkpt lat="64.78396" lon="11.60351">
        <ele>58.415407</ele>
        <time>2020-08-11T12:39:55.337Z</time>
      </trkpt>
      <trkpt lat="64.78405" lon="11.60337">
        <ele>58.255836</ele>
        <time>2020-08-11T12:39:57.283Z</time>
      </trkpt>
      <trkpt lat="64.78414" lon="11.60322">
        <ele>58.102079</ele>
        <time>2020-08-11T12:39:59.320Z</time>
      </trkpt>
      <trkpt lat="64.78423" lon="11.60308">
        <ele>57.948323</ele>
        <time>2020-08-11T12:40:01.305Z</time>
      </trkpt>
      <trkpt lat="64.78432" lon="11.60295">
        <ele>57.798451</ele>
        <time>2020-08-11T12:40:03.293Z</time>
      </trkpt>
      <trkpt lat="64.7844" lon="11.60281">
        <ele>57.644206</ele>
        <time>2020-08-11T12:40:05.284Z</time>
      </trkpt>
      <trkpt lat="64.78448" lon="11.60265">
        <ele>57.491251</ele>
        <time>2020-08-11T12:40:07.286Z</time>
      </trkpt>
      <trkpt lat="64.78457" lon="11.60249">
        <ele>57.33277</ele>
        <time>2020-08-11T12:40:09.293Z</time>
      </trkpt>
      <trkpt lat="64.78466" lon="11.60233">
        <ele>57.167379</ele>
        <time>2020-08-11T12:40:11.275Z</time>
      </trkpt>
      <trkpt lat="64.78475" lon="11.60217">
        <ele>57.010319</ele>
        <time>2020-08-11T12:40:13.306Z</time>
      </trkpt>
      <trkpt lat="64.78483" lon="11.60201">
        <ele>56.856775</ele>
        <time>2020-08-11T12:40:15.288Z</time>
      </trkpt>
      <trkpt lat="64.78491" lon="11.60185">
        <ele>56.69749</ele>
        <time>2020-08-11T12:40:17.278Z</time>
      </trkpt>
      <trkpt lat="64.785" lon="11.60168">
        <ele>56.879917</ele>
        <time>2020-08-11T12:40:19.284Z</time>
      </trkpt>
      <trkpt lat="64.78508" lon="11.60152">
        <ele>57.079224</ele>
        <time>2020-08-11T12:40:21.289Z</time>
      </trkpt>
      <trkpt lat="64.78516" lon="11.60136">
        <ele>57.273781</ele>
        <time>2020-08-11T12:40:23.292Z</time>
      </trkpt>
      <trkpt lat="64.78524" lon="11.60119">
        <ele>57.474835</ele>
        <time>2020-08-11T12:40:25.311Z</time>
      </trkpt>
      <trkpt lat="64.78531" lon="11.60102">
        <ele>57.670982</ele>
        <time>2020-08-11T12:40:27.301Z</time>
      </trkpt>
      <trkpt lat="64.78539" lon="11.60087">
        <ele>57.859057</ele>
        <time>2020-08-11T12:40:29.302Z</time>
      </trkpt>
      <trkpt lat="64.78547" lon="11.60071">
        <ele>58.05573</ele>
        <time>2020-08-11T12:40:31.283Z</time>
      </trkpt>
      <trkpt lat="64.78555" lon="11.60058">
        <ele>58.231296</ele>
        <time>2020-08-11T12:40:33.282Z</time>
      </trkpt>
      <trkpt lat="64.78562" lon="11.60044">
        <ele>58.415691</ele>
        <time>2020-08-11T12:40:35.292Z</time>
      </trkpt>
      <trkpt lat="64.78571" lon="11.60028">
        <ele>58.620737</ele>
        <time>2020-08-11T12:40:37.302Z</time>
      </trkpt>
      <trkpt lat="64.7858" lon="11.60013">
        <ele>58.827856</ele>
        <time>2020-08-11T12:40:39.301Z</time>
      </trkpt>
      <trkpt lat="64.78588" lon="11.59998">
        <ele>59.022075</ele>
        <time>2020-08-11T12:40:41.287Z</time>
      </trkpt>
      <trkpt lat="64.78597" lon="11.59983">
        <ele>59.218755</ele>
        <time>2020-08-11T12:40:43.285Z</time>
      </trkpt>
      <trkpt lat="64.78605" lon="11.59968">
        <ele>59.414957</ele>
        <time>2020-08-11T12:40:45.299Z</time>
      </trkpt>
      <trkpt lat="64.78613" lon="11.59954">
        <ele>59.607286</ele>
        <time>2020-08-11T12:40:47.298Z</time>
      </trkpt>
      <trkpt lat="64.78622" lon="11.5994">
        <ele>59.79775</ele>
        <time>2020-08-11T12:40:49.288Z</time>
      </trkpt>
      <trkpt lat="64.78631" lon="11.59926">
        <ele>59.999224</ele>
        <time>2020-08-11T12:40:51.266Z</time>
      </trkpt>
      <trkpt lat="64.78639" lon="11.59912">
        <ele>60.103466</ele>
        <time>2020-08-11T12:40:53.299Z</time>
      </trkpt>
      <trkpt lat="64.78648" lon="11.59898">
        <ele>60.178775</ele>
        <time>2020-08-11T12:40:55.293Z</time>
      </trkpt>
      <trkpt lat="64.78657" lon="11.59884">
        <ele>60.253331</ele>
        <time>2020-08-11T12:40:57.310Z</time>
      </trkpt>
      <trkpt lat="64.78665" lon="11.59865">
        <ele>60.330042</ele>
        <time>2020-08-11T12:40:59.290Z</time>
      </trkpt>
      <trkpt lat="64.78673" lon="11.59848">
        <ele>60.406426</ele>
        <time>2020-08-11T12:41:01.304Z</time>
      </trkpt>
      <trkpt lat="64.7868" lon="11.59831">
        <ele>60.478992</ele>
        <time>2020-08-11T12:41:03.288Z</time>
      </trkpt>
      <trkpt lat="64.78688" lon="11.59815">
        <ele>60.548494</ele>
        <time>2020-08-11T12:41:05.282Z</time>
      </trkpt>
      <trkpt lat="64.78696" lon="11.59801">
        <ele>60.619218</ele>
        <time>2020-08-11T12:41:07.300Z</time>
      </trkpt>
      <trkpt lat="64.78704" lon="11.59786">
        <ele>60.691366</ele>
        <time>2020-08-11T12:41:09.301Z</time>
      </trkpt>
      <trkpt lat="64.78712" lon="11.59772">
        <ele>60.762599</ele>
        <time>2020-08-11T12:41:11.283Z</time>
      </trkpt>
      <trkpt lat="64.78721" lon="11.59758">
        <ele>60.835342</ele>
        <time>2020-08-11T12:41:13.283Z</time>
      </trkpt>
      <trkpt lat="64.7873" lon="11.59744">
        <ele>60.910907</ele>
        <time>2020-08-11T12:41:15.279Z</time>
      </trkpt>
      <trkpt lat="64.78737" lon="11.59728">
        <ele>60.982312</ele>
        <time>2020-08-11T12:41:17.273Z</time>
      </trkpt>
      <trkpt lat="64.78745" lon="11.59713">
        <ele>61.053728</ele>
        <time>2020-08-11T12:41:19.280Z</time>
      </trkpt>
      <trkpt lat="64.78754" lon="11.59699">
        <ele>61.12589</ele>
        <time>2020-08-11T12:41:21.292Z</time>
      </trkpt>
      <trkpt lat="64.78763" lon="11.59685">
        <ele>61.198551</ele>
        <time>2020-08-11T12:41:23.280Z</time>
      </trkpt>
      <trkpt lat="64.78771" lon="11.59672">
        <ele>61.271458</ele>
        <time>2020-08-11T12:41:25.296Z</time>
      </trkpt>
      <trkpt lat="64.7878" lon="11.59659">
        <ele>61.148422</ele>
        <time>2020-08-11T12:41:27.280Z</time>
      </trkpt>
      <trkpt lat="64.78789" lon="11.59647">
        <ele>60.866825</ele>
        <time>2020-08-11T12:41:29.279Z</time>
      </trkpt>
      <trkpt lat="64.78798" lon="11.59632">
        <ele>60.566363</ele>
        <time>2020-08-11T12:41:31.336Z</time>
      </trkpt>
      <trkpt lat="64.78806" lon="11.59617">
        <ele>60.280136</ele>
        <time>2020-08-11T12:41:33.304Z</time>
      </trkpt>
      <trkpt lat="64.78814" lon="11.59603">
        <ele>60.002594</ele>
        <time>2020-08-11T12:41:35.285Z</time>
      </trkpt>
      <trkpt lat="64.78823" lon="11.59587">
        <ele>59.703433</ele>
        <time>2020-08-11T12:41:37.284Z</time>
      </trkpt>
      <trkpt lat="64.78832" lon="11.59572">
        <ele>59.396967</ele>
        <time>2020-08-11T12:41:39.296Z</time>
      </trkpt>
      <trkpt lat="64.78841" lon="11.59557">
        <ele>59.10413</ele>
        <time>2020-08-11T12:41:41.301Z</time>
      </trkpt>
      <trkpt lat="64.78849" lon="11.59542">
        <ele>58.818644</ele>
        <time>2020-08-11T12:41:43.316Z</time>
      </trkpt>
      <trkpt lat="64.78858" lon="11.59527">
        <ele>58.52291</ele>
        <time>2020-08-11T12:41:45.300Z</time>
      </trkpt>
      <trkpt lat="64.78866" lon="11.59513">
        <ele>58.238325</ele>
        <time>2020-08-11T12:41:47.319Z</time>
      </trkpt>
      <trkpt lat="64.78875" lon="11.595">
        <ele>57.959517</ele>
        <time>2020-08-11T12:41:49.315Z</time>
      </trkpt>
      <trkpt lat="64.78884" lon="11.59488">
        <ele>57.681466</ele>
        <time>2020-08-11T12:41:51.287Z</time>
      </trkpt>
      <trkpt lat="64.78892" lon="11.59476">
        <ele>57.406974</ele>
        <time>2020-08-11T12:41:53.290Z</time>
      </trkpt>
      <trkpt lat="64.789" lon="11.59465">
        <ele>57.154248</ele>
        <time>2020-08-11T12:41:55.300Z</time>
      </trkpt>
      <trkpt lat="64.78908" lon="11.59451">
        <ele>56.87946</ele>
        <time>2020-08-11T12:41:57.287Z</time>
      </trkpt>
      <trkpt lat="64.78916" lon="11.59434">
        <ele>56.588699</ele>
        <time>2020-08-11T12:41:59.287Z</time>
      </trkpt>
      <trkpt lat="64.78925" lon="11.59421">
        <ele>56.267119</ele>
        <time>2020-08-11T12:42:01.283Z</time>
      </trkpt>
      <trkpt lat="64.78935" lon="11.59407">
        <ele>55.865199</ele>
        <time>2020-08-11T12:42:03.288Z</time>
      </trkpt>
      <trkpt lat="64.78944" lon="11.59394">
        <ele>55.480285</ele>
        <time>2020-08-11T12:42:05.287Z</time>
      </trkpt>
      <trkpt lat="64.78952" lon="11.59375">
        <ele>55.086095</ele>
        <time>2020-08-11T12:42:07.288Z</time>
      </trkpt>
      <trkpt lat="64.7896" lon="11.59358">
        <ele>54.697504</ele>
        <time>2020-08-11T12:42:09.286Z</time>
      </trkpt>
      <trkpt lat="64.78969" lon="11.59343">
        <ele>54.312282</ele>
        <time>2020-08-11T12:42:11.298Z</time>
      </trkpt>
      <trkpt lat="64.78977" lon="11.59326">
        <ele>53.933072</ele>
        <time>2020-08-11T12:42:13.277Z</time>
      </trkpt>
      <trkpt lat="64.78984" lon="11.59311">
        <ele>53.566443</ele>
        <time>2020-08-11T12:42:15.278Z</time>
      </trkpt>
      <trkpt lat="64.78992" lon="11.59294">
        <ele>53.193185</ele>
        <time>2020-08-11T12:42:17.278Z</time>
      </trkpt>
      <trkpt lat="64.79" lon="11.59279">
        <ele>52.819916</ele>
        <time>2020-08-11T12:42:19.291Z</time>
      </trkpt>
      <trkpt lat="64.79008" lon="11.59266">
        <ele>52.468325</ele>
        <time>2020-08-11T12:42:21.287Z</time>
      </trkpt>
      <trkpt lat="64.79016" lon="11.59253">
        <ele>52.12055</ele>
        <time>2020-08-11T12:42:23.289Z</time>
      </trkpt>
      <trkpt lat="64.79025" lon="11.59239">
        <ele>51.746892</ele>
        <time>2020-08-11T12:42:25.281Z</time>
      </trkpt>
      <trkpt lat="64.79034" lon="11.59223">
        <ele>51.358846</ele>
        <time>2020-08-11T12:42:27.296Z</time>
      </trkpt>
      <trkpt lat="64.79041" lon="11.59206">
        <ele>50.979285</ele>
        <time>2020-08-11T12:42:29.295Z</time>
      </trkpt>
      <trkpt lat="64.7905" lon="11.59191">
        <ele>50.595928</ele>
        <time>2020-08-11T12:42:31.300Z</time>
      </trkpt>
      <trkpt lat="64.79058" lon="11.59176">
        <ele>50.223832</ele>
        <time>2020-08-11T12:42:33.297Z</time>
      </trkpt>
      <trkpt lat="64.79067" lon="11.59161">
        <ele>49.851876</ele>
        <time>2020-08-11T12:42:35.301Z</time>
      </trkpt>
      <trkpt lat="64.79076" lon="11.59149">
        <ele>49.481845</ele>
        <time>2020-08-11T12:42:37.275Z</time>
      </trkpt>
      <trkpt lat="64.79084" lon="11.59134">
        <ele>49.126884</ele>
        <time>2020-08-11T12:42:39.290Z</time>
      </trkpt>
      <trkpt lat="64.79092" lon="11.59119">
        <ele>48.769927</ele>
        <time>2020-08-11T12:42:41.284Z</time>
      </trkpt>
      <trkpt lat="64.791" lon="11.59103">
        <ele>48.399469</ele>
        <time>2020-08-11T12:42:43.291Z</time>
      </trkpt>
      <trkpt lat="64.79109" lon="11.59088">
        <ele>48.008803</ele>
        <time>2020-08-11T12:42:45.316Z</time>
      </trkpt>
      <trkpt lat="64.79118" lon="11.59073">
        <ele>47.645382</ele>
        <time>2020-08-11T12:42:47.300Z</time>
      </trkpt>
      <trkpt lat="64.79127" lon="11.59062">
        <ele>47.277467</ele>
        <time>2020-08-11T12:42:49.317Z</time>
      </trkpt>
      <trkpt lat="64.79137" lon="11.5905">
        <ele>46.915595</ele>
        <time>2020-08-11T12:42:51.281Z</time>
      </trkpt>
      <trkpt lat="64.79145" lon="11.59039">
        <ele>46.575333</ele>
        <time>2020-08-11T12:42:53.296Z</time>
      </trkpt>
      <trkpt lat="64.79154" lon="11.59027">
        <ele>46.234416</ele>
        <time>2020-08-11T12:42:55.313Z</time>
      </trkpt>
      <trkpt lat="64.79163" lon="11.59017">
        <ele>45.885426</ele>
        <time>2020-08-11T12:42:57.309Z</time>
      </trkpt>
      <trkpt lat="64.79171" lon="11.59003">
        <ele>45.517695</ele>
        <time>2020-08-11T12:42:59.296Z</time>
      </trkpt>
      <trkpt lat="64.7918" lon="11.58988">
        <ele>45.138037</ele>
        <time>2020-08-11T12:43:01.304Z</time>
      </trkpt>
      <trkpt lat="64.79189" lon="11.58972">
        <ele>44.763064</ele>
        <time>2020-08-11T12:43:03.296Z</time>
      </trkpt>
      <trkpt lat="64.79198" lon="11.58958">
        <ele>44.373914</ele>
        <time>2020-08-11T12:43:05.293Z</time>
      </trkpt>
      <trkpt lat="64.79208" lon="11.58945">
        <ele>43.982189</ele>
        <time>2020-08-11T12:43:07.320Z</time>
      </trkpt>
      <trkpt lat="64.79218" lon="11.58933">
        <ele>43.727439</ele>
        <time>2020-08-11T12:43:09.295Z</time>
      </trkpt>
      <trkpt lat="64.79227" lon="11.5892">
        <ele>43.716789</ele>
        <time>2020-08-11T12:43:11.346Z</time>
      </trkpt>
      <trkpt lat="64.79236" lon="11.58908">
        <ele>43.705985</ele>
        <time>2020-08-11T12:43:13.284Z</time>
      </trkpt>
      <trkpt lat="64.79246" lon="11.58896">
        <ele>43.695505</ele>
        <time>2020-08-11T12:43:15.290Z</time>
      </trkpt>
      <trkpt lat="64.79255" lon="11.58882">
        <ele>43.684723</ele>
        <time>2020-08-11T12:43:17.288Z</time>
      </trkpt>
      <trkpt lat="64.79264" lon="11.58867">
        <ele>43.673658</ele>
        <time>2020-08-11T12:43:19.301Z</time>
      </trkpt>
      <trkpt lat="64.79273" lon="11.58854">
        <ele>43.66288</ele>
        <time>2020-08-11T12:43:21.358Z</time>
      </trkpt>
      <trkpt lat="64.79282" lon="11.58841">
        <ele>43.652434</ele>
        <time>2020-08-11T12:43:23.316Z</time>
      </trkpt>
      <trkpt lat="64.79291" lon="11.58827">
        <ele>43.642073</ele>
        <time>2020-08-11T12:43:25.283Z</time>
      </trkpt>
      <trkpt lat="64.79299" lon="11.58815">
        <ele>43.632428</ele>
        <time>2020-08-11T12:43:27.291Z</time>
      </trkpt>
      <trkpt lat="64.79307" lon="11.58799">
        <ele>43.622189</ele>
        <time>2020-08-11T12:43:29.289Z</time>
      </trkpt>
      <trkpt lat="64.79314" lon="11.58783">
        <ele>43.611949</ele>
        <time>2020-08-11T12:43:31.299Z</time>
      </trkpt>
      <trkpt lat="64.79322" lon="11.58766">
        <ele>43.601496</ele>
        <time>2020-08-11T12:43:33.296Z</time>
      </trkpt>
      <trkpt lat="64.7933" lon="11.5875">
        <ele>43.591051</ele>
        <time>2020-08-11T12:43:35.284Z</time>
      </trkpt>
      <trkpt lat="64.79338" lon="11.58734">
        <ele>43.580537</ele>
        <time>2020-08-11T12:43:37.281Z</time>
      </trkpt>
      <trkpt lat="64.79347" lon="11.5872">
        <ele>43.569643</ele>
        <time>2020-08-11T12:43:39.288Z</time>
      </trkpt>
      <trkpt lat="64.79356" lon="11.58706">
        <ele>43.558794</ele>
        <time>2020-08-11T12:43:41.291Z</time>
      </trkpt>
      <trkpt lat="64.79365" lon="11.58692">
        <ele>43.570099</ele>
        <time>2020-08-11T12:43:43.319Z</time>
      </trkpt>
      <trkpt lat="64.79375" lon="11.58678">
        <ele>43.616113</ele>
        <time>2020-08-11T12:43:45.286Z</time>
      </trkpt>
      <trkpt lat="64.79383" lon="11.58663">
        <ele>43.659191</ele>
        <time>2020-08-11T12:43:47.311Z</time>
      </trkpt>
      <trkpt lat="64.79391" lon="11.58648">
        <ele>43.702724</ele>
        <time>2020-08-11T12:43:49.289Z</time>
      </trkpt>
      <trkpt lat="64.79399" lon="11.58633">
        <ele>43.746802</ele>
        <time>2020-08-11T12:43:51.276Z</time>
      </trkpt>
      <trkpt lat="64.79408" lon="11.58618">
        <ele>43.791532</ele>
        <time>2020-08-11T12:43:53.280Z</time>
      </trkpt>
      <trkpt lat="64.79416" lon="11.58603">
        <ele>43.836179</ele>
        <time>2020-08-11T12:43:55.281Z</time>
      </trkpt>
      <trkpt lat="64.79425" lon="11.58591">
        <ele>43.880633</ele>
        <time>2020-08-11T12:43:57.301Z</time>
      </trkpt>
      <trkpt lat="64.79435" lon="11.58577">
        <ele>43.926262</ele>
        <time>2020-08-11T12:43:59.309Z</time>
      </trkpt>
      <trkpt lat="64.79443" lon="11.58561">
        <ele>43.972989</ele>
        <time>2020-08-11T12:44:01.307Z</time>
      </trkpt>
      <trkpt lat="64.79452" lon="11.58543">
        <ele>44.020479</ele>
        <time>2020-08-11T12:44:03.286Z</time>
      </trkpt>
      <trkpt lat="64.7946" lon="11.58528">
        <ele>44.06499</ele>
        <time>2020-08-11T12:44:05.299Z</time>
      </trkpt>
      <trkpt lat="64.79469" lon="11.58515">
        <ele>44.109424</ele>
        <time>2020-08-11T12:44:07.309Z</time>
      </trkpt>
      <trkpt lat="64.79479" lon="11.58504">
        <ele>44.155195</ele>
        <time>2020-08-11T12:44:09.313Z</time>
      </trkpt>
      <trkpt lat="64.79488" lon="11.5849">
        <ele>44.200469</ele>
        <time>2020-08-11T12:44:11.296Z</time>
      </trkpt>
      <trkpt lat="64.79497" lon="11.58477">
        <ele>44.245197</ele>
        <time>2020-08-11T12:44:13.276Z</time>
      </trkpt>
      <trkpt lat="64.79506" lon="11.58464">
        <ele>44.28797</ele>
        <time>2020-08-11T12:44:15.294Z</time>
      </trkpt>
      <trkpt lat="64.79515" lon="11.58451">
        <ele>44.261755</ele>
        <time>2020-08-11T12:44:17.289Z</time>
      </trkpt>
      <trkpt lat="64.79523" lon="11.58437">
        <ele>44.181405</ele>
        <time>2020-08-11T12:44:19.282Z</time>
      </trkpt>
      <trkpt lat="64.79532" lon="11.58424">
        <ele>44.10287</ele>
        <time>2020-08-11T12:44:21.305Z</time>
      </trkpt>
      <trkpt lat="64.79541" lon="11.58414">
        <ele>44.021397</ele>
        <time>2020-08-11T12:44:23.281Z</time>
      </trkpt>
      <trkpt lat="64.79551" lon="11.58402">
        <ele>43.941556</ele>
        <time>2020-08-11T12:44:25.298Z</time>
      </trkpt>
      <trkpt lat="64.7956" lon="11.58391">
        <ele>43.862</ele>
        <time>2020-08-11T12:44:27.328Z</time>
      </trkpt>
      <trkpt lat="64.79569" lon="11.58378">
        <ele>43.779826</ele>
        <time>2020-08-11T12:44:29.291Z</time>
      </trkpt>
      <trkpt lat="64.79578" lon="11.58365">
        <ele>43.700906</ele>
        <time>2020-08-11T12:44:31.312Z</time>
      </trkpt>
      <trkpt lat="64.79587" lon="11.58352">
        <ele>43.621706</ele>
        <time>2020-08-11T12:44:33.288Z</time>
      </trkpt>
      <trkpt lat="64.79596" lon="11.58338">
        <ele>43.538618</ele>
        <time>2020-08-11T12:44:35.288Z</time>
      </trkpt>
      <trkpt lat="64.79605" lon="11.58324">
        <ele>43.457062</ele>
        <time>2020-08-11T12:44:37.294Z</time>
      </trkpt>
      <trkpt lat="64.79614" lon="11.58311">
        <ele>43.376196</ele>
        <time>2020-08-11T12:44:39.289Z</time>
      </trkpt>
      <trkpt lat="64.79623" lon="11.583">
        <ele>43.292641</ele>
        <time>2020-08-11T12:44:41.308Z</time>
      </trkpt>
      <trkpt lat="64.79633" lon="11.58288">
        <ele>43.212724</ele>
        <time>2020-08-11T12:44:43.297Z</time>
      </trkpt>
      <trkpt lat="64.79641" lon="11.58274">
        <ele>43.131824</ele>
        <time>2020-08-11T12:44:45.301Z</time>
      </trkpt>
      <trkpt lat="64.7965" lon="11.5826">
        <ele>43.049108</ele>
        <time>2020-08-11T12:44:47.288Z</time>
      </trkpt>
      <trkpt lat="64.79659" lon="11.58247">
        <ele>42.966597</ele>
        <time>2020-08-11T12:44:49.286Z</time>
      </trkpt>
      <trkpt lat="64.79668" lon="11.58235">
        <ele>42.820275</ele>
        <time>2020-08-11T12:44:51.303Z</time>
      </trkpt>
      <trkpt lat="64.79678" lon="11.58224">
        <ele>42.61361</ele>
        <time>2020-08-11T12:44:53.272Z</time>
      </trkpt>
      <trkpt lat="64.79687" lon="11.58211">
        <ele>42.404724</ele>
        <time>2020-08-11T12:44:55.288Z</time>
      </trkpt>
      <trkpt lat="64.79697" lon="11.582">
        <ele>42.186488</ele>
        <time>2020-08-11T12:44:57.295Z</time>
      </trkpt>
      <trkpt lat="64.79707" lon="11.58189">
        <ele>41.966826</ele>
        <time>2020-08-11T12:44:59.301Z</time>
      </trkpt>
      <trkpt lat="64.79717" lon="11.58175">
        <ele>41.747773</ele>
        <time>2020-08-11T12:45:01.325Z</time>
      </trkpt>
      <trkpt lat="64.79727" lon="11.58165">
        <ele>41.526555</ele>
        <time>2020-08-11T12:45:03.292Z</time>
      </trkpt>
      <trkpt lat="64.79737" lon="11.58152">
        <ele>41.314321</ele>
        <time>2020-08-11T12:45:05.301Z</time>
      </trkpt>
      <trkpt lat="64.79746" lon="11.5814">
        <ele>41.101614</ele>
        <time>2020-08-11T12:45:07.301Z</time>
      </trkpt>
      <trkpt lat="64.79756" lon="11.58128">
        <ele>40.892227</ele>
        <time>2020-08-11T12:45:09.302Z</time>
      </trkpt>
      <trkpt lat="64.79766" lon="11.58117">
        <ele>40.674693</ele>
        <time>2020-08-11T12:45:11.281Z</time>
      </trkpt>
      <trkpt lat="64.79776" lon="11.58108">
        <ele>40.454779</ele>
        <time>2020-08-11T12:45:13.295Z</time>
      </trkpt>
      <trkpt lat="64.79787" lon="11.58098">
        <ele>40.238817</ele>
        <time>2020-08-11T12:45:15.297Z</time>
      </trkpt>
      <trkpt lat="64.79797" lon="11.58088">
        <ele>40.016942</ele>
        <time>2020-08-11T12:45:17.312Z</time>
      </trkpt>
      <trkpt lat="64.79807" lon="11.58076">
        <ele>39.79891</ele>
        <time>2020-08-11T12:45:19.296Z</time>
      </trkpt>
      <trkpt lat="64.79816" lon="11.58064">
        <ele>39.585289</ele>
        <time>2020-08-11T12:45:21.317Z</time>
      </trkpt>
      <trkpt lat="64.79826" lon="11.58049">
        <ele>39.425846</ele>
        <time>2020-08-11T12:45:23.295Z</time>
      </trkpt>
      <trkpt lat="64.79835" lon="11.58037">
        <ele>39.500066</ele>
        <time>2020-08-11T12:45:25.312Z</time>
      </trkpt>
      <trkpt lat="64.79844" lon="11.58026">
        <ele>39.573747</ele>
        <time>2020-08-11T12:45:27.278Z</time>
      </trkpt>
      <trkpt lat="64.79853" lon="11.58016">
        <ele>39.646522</ele>
        <time>2020-08-11T12:45:29.298Z</time>
      </trkpt>
      <trkpt lat="64.79862" lon="11.58003">
        <ele>39.718901</ele>
        <time>2020-08-11T12:45:31.279Z</time>
      </trkpt>
      <trkpt lat="64.79871" lon="11.57991">
        <ele>39.793428</ele>
        <time>2020-08-11T12:45:33.299Z</time>
      </trkpt>
      <trkpt lat="64.7988" lon="11.57978">
        <ele>39.867186</ele>
        <time>2020-08-11T12:45:35.301Z</time>
      </trkpt>
      <trkpt lat="64.79889" lon="11.57967">
        <ele>39.940556</ele>
        <time>2020-08-11T12:45:37.281Z</time>
      </trkpt>
      <trkpt lat="64.79898" lon="11.57956">
        <ele>40.013229</ele>
        <time>2020-08-11T12:45:39.308Z</time>
      </trkpt>
      <trkpt lat="64.79907" lon="11.57947">
        <ele>40.085636</ele>
        <time>2020-08-11T12:45:41.300Z</time>
      </trkpt>
      <trkpt lat="64.79917" lon="11.57936">
        <ele>40.159991</ele>
        <time>2020-08-11T12:45:43.305Z</time>
      </trkpt>
      <trkpt lat="64.79926" lon="11.57926">
        <ele>40.234242</ele>
        <time>2020-08-11T12:45:45.276Z</time>
      </trkpt>
      <trkpt lat="64.79935" lon="11.57915">
        <ele>40.308461</ele>
        <time>2020-08-11T12:45:47.278Z</time>
      </trkpt>
      <trkpt lat="64.79946" lon="11.57906">
        <ele>40.385565</ele>
        <time>2020-08-11T12:45:49.309Z</time>
      </trkpt>
      <trkpt lat="64.79956" lon="11.57896">
        <ele>40.464292</ele>
        <time>2020-08-11T12:45:51.306Z</time>
      </trkpt>
      <trkpt lat="64.79965" lon="11.57884">
        <ele>40.540829</ele>
        <time>2020-08-11T12:45:53.283Z</time>
      </trkpt>
      <trkpt lat="64.79975" lon="11.57874">
        <ele>40.616831</ele>
        <time>2020-08-11T12:45:55.288Z</time>
      </trkpt>
      <trkpt lat="64.79986" lon="11.57865">
        <ele>40.686768</ele>
        <time>2020-08-11T12:45:57.281Z</time>
      </trkpt>
      <trkpt lat="64.79996" lon="11.57857">
        <ele>40.594781</ele>
        <time>2020-08-11T12:45:59.293Z</time>
      </trkpt>
      <trkpt lat="64.80006" lon="11.57848">
        <ele>40.508393</ele>
        <time>2020-08-11T12:46:01.285Z</time>
      </trkpt>
      <trkpt lat="64.80015" lon="11.57837">
        <ele>40.421474</ele>
        <time>2020-08-11T12:46:03.314Z</time>
      </trkpt>
      <trkpt lat="64.80025" lon="11.57827">
        <ele>40.333505</ele>
        <time>2020-08-11T12:46:05.325Z</time>
      </trkpt>
      <trkpt lat="64.80034" lon="11.57815">
        <ele>40.244298</ele>
        <time>2020-08-11T12:46:07.277Z</time>
      </trkpt>
      <trkpt lat="64.80045" lon="11.57806">
        <ele>40.150585</ele>
        <time>2020-08-11T12:46:09.294Z</time>
      </trkpt>
      <trkpt lat="64.80056" lon="11.57797">
        <ele>40.053515</ele>
        <time>2020-08-11T12:46:11.284Z</time>
      </trkpt>
      <trkpt lat="64.80068" lon="11.57787">
        <ele>39.952095</ele>
        <time>2020-08-11T12:46:13.297Z</time>
      </trkpt>
      <trkpt lat="64.80079" lon="11.57778">
        <ele>39.855145</ele>
        <time>2020-08-11T12:46:15.282Z</time>
      </trkpt>
      <trkpt lat="64.8009" lon="11.5777">
        <ele>39.760122</ele>
        <time>2020-08-11T12:46:17.304Z</time>
      </trkpt>
      <trkpt lat="64.80099" lon="11.5776">
        <ele>39.671088</ele>
        <time>2020-08-11T12:46:19.290Z</time>
      </trkpt>
      <trkpt lat="64.80109" lon="11.5775">
        <ele>39.586086</ele>
        <time>2020-08-11T12:46:21.328Z</time>
      </trkpt>
      <trkpt lat="64.80119" lon="11.57743">
        <ele>39.496764</ele>
        <time>2020-08-11T12:46:23.281Z</time>
      </trkpt>
      <trkpt lat="64.80129" lon="11.57735">
        <ele>39.409337</ele>
        <time>2020-08-11T12:46:25.300Z</time>
      </trkpt>
      <trkpt lat="64.80139" lon="11.57727">
        <ele>39.323299</ele>
        <time>2020-08-11T12:46:27.276Z</time>
      </trkpt>
      <trkpt lat="64.80148" lon="11.5772">
        <ele>39.240409</ele>
        <time>2020-08-11T12:46:29.330Z</time>
      </trkpt>
      <trkpt lat="64.80158" lon="11.57714">
        <ele>39.449764</ele>
        <time>2020-08-11T12:46:31.277Z</time>
      </trkpt>
      <trkpt lat="64.80168" lon="11.57706">
        <ele>39.896325</ele>
        <time>2020-08-11T12:46:33.295Z</time>
      </trkpt>
      <trkpt lat="64.80177" lon="11.57699">
        <ele>40.333355</ele>
        <time>2020-08-11T12:46:35.299Z</time>
      </trkpt>
      <trkpt lat="64.80187" lon="11.57692">
        <ele>40.786493</ele>
        <time>2020-08-11T12:46:37.281Z</time>
      </trkpt>
      <trkpt lat="64.80197" lon="11.57686">
        <ele>41.261674</ele>
        <time>2020-08-11T12:46:39.308Z</time>
      </trkpt>
      <trkpt lat="64.80207" lon="11.57677">
        <ele>41.734699</ele>
        <time>2020-08-11T12:46:41.323Z</time>
      </trkpt>
      <trkpt lat="64.80217" lon="11.57669">
        <ele>42.210691</ele>
        <time>2020-08-11T12:46:43.327Z</time>
      </trkpt>
      <trkpt lat="64.80227" lon="11.57662">
        <ele>42.681994</ele>
        <time>2020-08-11T12:46:45.294Z</time>
      </trkpt>
      <trkpt lat="64.80238" lon="11.57657">
        <ele>43.17331</ele>
        <time>2020-08-11T12:46:47.299Z</time>
      </trkpt>
      <trkpt lat="64.80249" lon="11.57652">
        <ele>43.64318</ele>
        <time>2020-08-11T12:46:49.290Z</time>
      </trkpt>
      <trkpt lat="64.80259" lon="11.57646">
        <ele>44.122981</ele>
        <time>2020-08-11T12:46:51.288Z</time>
      </trkpt>
      <trkpt lat="64.80269" lon="11.57642">
        <ele>44.590589</ele>
        <time>2020-08-11T12:46:53.288Z</time>
      </trkpt>
      <trkpt lat="64.8028" lon="11.57638">
        <ele>45.05839</ele>
        <time>2020-08-11T12:46:55.285Z</time>
      </trkpt>
      <trkpt lat="64.8029" lon="11.57633">
        <ele>45.518744</ele>
        <time>2020-08-11T12:46:57.276Z</time>
      </trkpt>
      <trkpt lat="64.803" lon="11.57629">
        <ele>45.999503</ele>
        <time>2020-08-11T12:46:59.284Z</time>
      </trkpt>
      <trkpt lat="64.80312" lon="11.57626">
        <ele>46.497614</ele>
        <time>2020-08-11T12:47:01.317Z</time>
      </trkpt>
      <trkpt lat="64.80322" lon="11.57623">
        <ele>46.974022</ele>
        <time>2020-08-11T12:47:03.292Z</time>
      </trkpt>
      <trkpt lat="64.80333" lon="11.57619">
        <ele>47.32243</ele>
        <time>2020-08-11T12:47:05.295Z</time>
      </trkpt>
      <trkpt lat="64.80344" lon="11.57617">
        <ele>47.55623</ele>
        <time>2020-08-11T12:47:07.260Z</time>
      </trkpt>
      <trkpt lat="64.80356" lon="11.57616">
        <ele>47.791436</ele>
        <time>2020-08-11T12:47:09.300Z</time>
      </trkpt>
      <trkpt lat="64.80368" lon="11.57618">
        <ele>48.031117</ele>
        <time>2020-08-11T12:47:11.276Z</time>
      </trkpt>
      <trkpt lat="64.8038" lon="11.5762">
        <ele>48.273141</ele>
        <time>2020-08-11T12:47:13.275Z</time>
      </trkpt>
      <trkpt lat="64.80391" lon="11.57621">
        <ele>48.502294</ele>
        <time>2020-08-11T12:47:15.255Z</time>
      </trkpt>
      <trkpt lat="64.80403" lon="11.57623">
        <ele>48.735689</ele>
        <time>2020-08-11T12:47:17.259Z</time>
      </trkpt>
      <trkpt lat="64.80414" lon="11.57624">
        <ele>48.969239</ele>
        <time>2020-08-11T12:47:19.287Z</time>
      </trkpt>
      <trkpt lat="64.80426" lon="11.5763">
        <ele>49.202705</ele>
        <time>2020-08-11T12:47:21.281Z</time>
      </trkpt>
      <trkpt lat="64.80437" lon="11.57637">
        <ele>49.43554</ele>
        <time>2020-08-11T12:47:23.265Z</time>
      </trkpt>
      <trkpt lat="64.80448" lon="11.57644">
        <ele>49.667816</ele>
        <time>2020-08-11T12:47:25.273Z</time>
      </trkpt>
      <trkpt lat="64.80459" lon="11.5765">
        <ele>49.889827</ele>
        <time>2020-08-11T12:47:27.272Z</time>
      </trkpt>
      <trkpt lat="64.80469" lon="11.57659">
        <ele>50.115876</ele>
        <time>2020-08-11T12:47:29.275Z</time>
      </trkpt>
      <trkpt lat="64.8048" lon="11.57667">
        <ele>50.337637</ele>
        <time>2020-08-11T12:47:31.307Z</time>
      </trkpt>
      <trkpt lat="64.8049" lon="11.57673">
        <ele>50.556886</ele>
        <time>2020-08-11T12:47:33.301Z</time>
      </trkpt>
      <trkpt lat="64.80501" lon="11.57682">
        <ele>50.776782</ele>
        <time>2020-08-11T12:47:35.278Z</time>
      </trkpt>
      <trkpt lat="64.80511" lon="11.5769">
        <ele>50.653302</ele>
        <time>2020-08-11T12:47:37.254Z</time>
      </trkpt>
      <trkpt lat="64.80521" lon="11.57697">
        <ele>50.412913</ele>
        <time>2020-08-11T12:47:39.272Z</time>
      </trkpt>
      <trkpt lat="64.8053" lon="11.57703">
        <ele>50.176791</ele>
        <time>2020-08-11T12:47:41.313Z</time>
      </trkpt>
      <trkpt lat="64.80541" lon="11.57709">
        <ele>49.921678</ele>
        <time>2020-08-11T12:47:43.274Z</time>
      </trkpt>
      <trkpt lat="64.80552" lon="11.57713">
        <ele>49.664147</ele>
        <time>2020-08-11T12:47:45.289Z</time>
      </trkpt>
      <trkpt lat="64.80562" lon="11.57719">
        <ele>49.40565</ele>
        <time>2020-08-11T12:47:47.321Z</time>
      </trkpt>
      <trkpt lat="64.80573" lon="11.57725">
        <ele>49.150042</ele>
        <time>2020-08-11T12:47:49.266Z</time>
      </trkpt>
      <trkpt lat="64.80583" lon="11.57734">
        <ele>48.905627</ele>
        <time>2020-08-11T12:47:51.286Z</time>
      </trkpt>
      <trkpt lat="64.80592" lon="11.57743">
        <ele>48.662578</ele>
        <time>2020-08-11T12:47:53.306Z</time>
      </trkpt>
      <trkpt lat="64.80602" lon="11.57752">
        <ele>48.410696</ele>
        <time>2020-08-11T12:47:55.273Z</time>
      </trkpt>
      <trkpt lat="64.80613" lon="11.57759">
        <ele>48.150099</ele>
        <time>2020-08-11T12:47:57.287Z</time>
      </trkpt>
      <trkpt lat="64.80623" lon="11.57765">
        <ele>47.909671</ele>
        <time>2020-08-11T12:47:59.292Z</time>
      </trkpt>
      <trkpt lat="64.80632" lon="11.57774">
        <ele>47.668914</ele>
        <time>2020-08-11T12:48:01.291Z</time>
      </trkpt>
      <trkpt lat="64.80642" lon="11.57789">
        <ele>47.392758</ele>
        <time>2020-08-11T12:48:03.282Z</time>
      </trkpt>
      <trkpt lat="64.80651" lon="11.57799">
        <ele>47.15455</ele>
        <time>2020-08-11T12:48:05.303Z</time>
      </trkpt>
      <trkpt lat="64.80661" lon="11.57807">
        <ele>46.909686</ele>
        <time>2020-08-11T12:48:07.299Z</time>
      </trkpt>
      <trkpt lat="64.80671" lon="11.57815">
        <ele>46.651766</ele>
        <time>2020-08-11T12:48:09.296Z</time>
      </trkpt>
      <trkpt lat="64.80683" lon="11.57824">
        <ele>46.496328</ele>
        <time>2020-08-11T12:48:11.268Z</time>
      </trkpt>
      <trkpt lat="64.80693" lon="11.57829">
        <ele>46.376475</ele>
        <time>2020-08-11T12:48:13.295Z</time>
      </trkpt>
      <trkpt lat="64.80703" lon="11.57838">
        <ele>46.266892</ele>
        <time>2020-08-11T12:48:15.273Z</time>
      </trkpt>
      <trkpt lat="64.80712" lon="11.57847">
        <ele>46.15579</ele>
        <time>2020-08-11T12:48:17.276Z</time>
      </trkpt>
      <trkpt lat="64.80721" lon="11.57856">
        <ele>46.048171</ele>
        <time>2020-08-11T12:48:19.279Z</time>
      </trkpt>
      <trkpt lat="64.80731" lon="11.57867">
        <ele>45.930964</ele>
        <time>2020-08-11T12:48:21.274Z</time>
      </trkpt>
      <trkpt lat="64.80741" lon="11.57879">
        <ele>45.808837</ele>
        <time>2020-08-11T12:48:23.284Z</time>
      </trkpt>
      <trkpt lat="64.80751" lon="11.5789">
        <ele>45.695936</ele>
        <time>2020-08-11T12:48:25.281Z</time>
      </trkpt>
      <trkpt lat="64.8076" lon="11.57901">
        <ele>45.581857</ele>
        <time>2020-08-11T12:48:27.271Z</time>
      </trkpt>
      <trkpt lat="64.8077" lon="11.57914">
        <ele>45.460545</ele>
        <time>2020-08-11T12:48:29.280Z</time>
      </trkpt>
      <trkpt lat="64.8078" lon="11.57926">
        <ele>45.333219</ele>
        <time>2020-08-11T12:48:31.291Z</time>
      </trkpt>
      <trkpt lat="64.8079" lon="11.5794">
        <ele>45.205094</ele>
        <time>2020-08-11T12:48:33.292Z</time>
      </trkpt>
      <trkpt lat="64.80801" lon="11.5795">
        <ele>45.080836</ele>
        <time>2020-08-11T12:48:35.284Z</time>
      </trkpt>
      <trkpt lat="64.80812" lon="11.57959">
        <ele>44.950922</ele>
        <time>2020-08-11T12:48:37.286Z</time>
      </trkpt>
      <trkpt lat="64.80823" lon="11.5797">
        <ele>44.824776</ele>
        <time>2020-08-11T12:48:39.290Z</time>
      </trkpt>
      <trkpt lat="64.80833" lon="11.57979">
        <ele>44.706592</ele>
        <time>2020-08-11T12:48:41.294Z</time>
      </trkpt>
      <trkpt lat="64.80843" lon="11.57991">
        <ele>44.532258</ele>
        <time>2020-08-11T12:48:43.278Z</time>
      </trkpt>
      <trkpt lat="64.80852" lon="11.58002">
        <ele>44.31147</ele>
        <time>2020-08-11T12:48:45.292Z</time>
      </trkpt>
      <trkpt lat="64.80862" lon="11.58013">
        <ele>44.094591</ele>
        <time>2020-08-11T12:48:47.282Z</time>
      </trkpt>
      <trkpt lat="64.80872" lon="11.58023">
        <ele>43.87271</ele>
        <time>2020-08-11T12:48:49.278Z</time>
      </trkpt>
      <trkpt lat="64.80881" lon="11.58033">
        <ele>43.656153</ele>
        <time>2020-08-11T12:48:51.280Z</time>
      </trkpt>
      <trkpt lat="64.80891" lon="11.58045">
        <ele>43.420741</ele>
        <time>2020-08-11T12:48:53.293Z</time>
      </trkpt>
      <trkpt lat="64.80902" lon="11.58058">
        <ele>43.17313</ele>
        <time>2020-08-11T12:48:55.289Z</time>
      </trkpt>
      <trkpt lat="64.80913" lon="11.58071">
        <ele>42.926311</ele>
        <time>2020-08-11T12:48:57.300Z</time>
      </trkpt>
      <trkpt lat="64.80923" lon="11.58081">
        <ele>42.69855</ele>
        <time>2020-08-11T12:48:59.295Z</time>
      </trkpt>
      <trkpt lat="64.80932" lon="11.58093">
        <ele>42.482637</ele>
        <time>2020-08-11T12:49:01.275Z</time>
      </trkpt>
      <trkpt lat="64.80941" lon="11.58106">
        <ele>42.266524</ele>
        <time>2020-08-11T12:49:03.267Z</time>
      </trkpt>
      <trkpt lat="64.80951" lon="11.58116">
        <ele>42.041005</ele>
        <time>2020-08-11T12:49:05.304Z</time>
      </trkpt>
      <trkpt lat="64.80961" lon="11.58125">
        <ele>41.819858</ele>
        <time>2020-08-11T12:49:07.271Z</time>
      </trkpt>
      <trkpt lat="64.8097" lon="11.58133">
        <ele>41.619327</ele>
        <time>2020-08-11T12:49:09.291Z</time>
      </trkpt>
      <trkpt lat="64.80979" lon="11.58142">
        <ele>41.415859</ele>
        <time>2020-08-11T12:49:11.279Z</time>
      </trkpt>
      <trkpt lat="64.80989" lon="11.58153">
        <ele>41.194434</ele>
        <time>2020-08-11T12:49:13.272Z</time>
      </trkpt>
      <trkpt lat="64.80999" lon="11.58166">
        <ele>40.966372</ele>
        <time>2020-08-11T12:49:15.268Z</time>
      </trkpt>
      <trkpt lat="64.81009" lon="11.58179">
        <ele>41.52411</ele>
        <time>2020-08-11T12:49:17.273Z</time>
      </trkpt>
      <trkpt lat="64.81019" lon="11.58189">
        <ele>42.179056</ele>
        <time>2020-08-11T12:49:19.289Z</time>
      </trkpt>
      <trkpt lat="64.81029" lon="11.58195">
        <ele>42.771023</ele>
        <time>2020-08-11T12:49:21.298Z</time>
      </trkpt>
      <trkpt lat="64.81039" lon="11.58199">
        <ele>43.350209</ele>
        <time>2020-08-11T12:49:23.300Z</time>
      </trkpt>
      <trkpt lat="64.81049" lon="11.58206">
        <ele>43.947387</ele>
        <time>2020-08-11T12:49:25.288Z</time>
      </trkpt>
      <trkpt lat="64.81059" lon="11.58219">
        <ele>44.565426</ele>
        <time>2020-08-11T12:49:27.277Z</time>
      </trkpt>
      <trkpt lat="64.81069" lon="11.58236">
        <ele>45.252881</ele>
        <time>2020-08-11T12:49:29.281Z</time>
      </trkpt>
      <trkpt lat="64.81078" lon="11.58251">
        <ele>45.888976</ele>
        <time>2020-08-11T12:49:31.284Z</time>
      </trkpt>
      <trkpt lat="64.81087" lon="11.58267">
        <ele>46.550303</ele>
        <time>2020-08-11T12:49:33.281Z</time>
      </trkpt>
      <trkpt lat="64.81097" lon="11.58284">
        <ele>47.239558</ele>
        <time>2020-08-11T12:49:35.281Z</time>
      </trkpt>
      <trkpt lat="64.81105" lon="11.58304">
        <ele>47.915494</ele>
        <time>2020-08-11T12:49:37.287Z</time>
      </trkpt>
      <trkpt lat="64.81113" lon="11.5832">
        <ele>48.507969</ele>
        <time>2020-08-11T12:49:39.281Z</time>
      </trkpt>
      <trkpt lat="64.81121" lon="11.58336">
        <ele>49.143291</ele>
        <time>2020-08-11T12:49:41.293Z</time>
      </trkpt>
      <trkpt lat="64.81131" lon="11.58348">
        <ele>49.782011</ele>
        <time>2020-08-11T12:49:43.348Z</time>
      </trkpt>
      <trkpt lat="64.81142" lon="11.58358">
        <ele>50.410667</ele>
        <time>2020-08-11T12:49:45.275Z</time>
      </trkpt>
      <trkpt lat="64.81151" lon="11.58371">
        <ele>51.035943</ele>
        <time>2020-08-11T12:49:47.313Z</time>
      </trkpt>
      <trkpt lat="64.8116" lon="11.5838">
        <ele>51.61212</ele>
        <time>2020-08-11T12:49:49.292Z</time>
      </trkpt>
      <trkpt lat="64.81168" lon="11.58394">
        <ele>52.209229</ele>
        <time>2020-08-11T12:49:51.313Z</time>
      </trkpt>
      <trkpt lat="64.81176" lon="11.58405">
        <ele>52.759162</ele>
        <time>2020-08-11T12:49:53.289Z</time>
      </trkpt>
      <trkpt lat="64.81185" lon="11.58417">
        <ele>53.38318</ele>
        <time>2020-08-11T12:49:55.285Z</time>
      </trkpt>
      <trkpt lat="64.81194" lon="11.58428">
        <ele>54.045087</ele>
        <time>2020-08-11T12:49:57.291Z</time>
      </trkpt>
      <trkpt lat="64.81204" lon="11.58442">
        <ele>54.71719</ele>
        <time>2020-08-11T12:49:59.292Z</time>
      </trkpt>
      <trkpt lat="64.81213" lon="11.58456">
        <ele>55.357273</ele>
        <time>2020-08-11T12:50:01.282Z</time>
      </trkpt>
      <trkpt lat="64.81222" lon="11.58469">
        <ele>55.993721</ele>
        <time>2020-08-11T12:50:03.289Z</time>
      </trkpt>
      <trkpt lat="64.8123" lon="11.58484">
        <ele>56.620078</ele>
        <time>2020-08-11T12:50:05.277Z</time>
      </trkpt>
      <trkpt lat="64.81239" lon="11.58503">
        <ele>57.356369</ele>
        <time>2020-08-11T12:50:07.292Z</time>
      </trkpt>
      <trkpt lat="64.81249" lon="11.5852">
        <ele>58.095331</ele>
        <time>2020-08-11T12:50:09.288Z</time>
      </trkpt>
      <trkpt lat="64.81257" lon="11.58533">
        <ele>58.689647</ele>
        <time>2020-08-11T12:50:11.281Z</time>
      </trkpt>
      <trkpt lat="64.81266" lon="11.58547">
        <ele>59.32183</ele>
        <time>2020-08-11T12:50:13.281Z</time>
      </trkpt>
      <trkpt lat="64.81274" lon="11.58561">
        <ele>59.925979</ele>
        <time>2020-08-11T12:50:15.283Z</time>
      </trkpt>
      <trkpt lat="64.81283" lon="11.58575">
        <ele>60.577643</ele>
        <time>2020-08-11T12:50:17.290Z</time>
      </trkpt>
      <trkpt lat="64.81293" lon="11.58589">
        <ele>61.302016</ele>
        <time>2020-08-11T12:50:19.315Z</time>
      </trkpt>
      <trkpt lat="64.81303" lon="11.58604">
        <ele>62.008732</ele>
        <time>2020-08-11T12:50:21.280Z</time>
      </trkpt>
      <trkpt lat="64.81312" lon="11.58625">
        <ele>61.947542</ele>
        <time>2020-08-11T12:50:23.291Z</time>
      </trkpt>
      <trkpt lat="64.81322" lon="11.58647">
        <ele>61.794574</ele>
        <time>2020-08-11T12:50:25.305Z</time>
      </trkpt>
      <trkpt lat="64.81332" lon="11.5867">
        <ele>61.646998</ele>
        <time>2020-08-11T12:50:27.296Z</time>
      </trkpt>
      <trkpt lat="64.81343" lon="11.58683">
        <ele>61.502408</ele>
        <time>2020-08-11T12:50:29.285Z</time>
      </trkpt>
      <trkpt lat="64.81355" lon="11.58699">
        <ele>61.355461</ele>
        <time>2020-08-11T12:50:31.292Z</time>
      </trkpt>
      <trkpt lat="64.81365" lon="11.58715">
        <ele>61.220885</ele>
        <time>2020-08-11T12:50:33.278Z</time>
      </trkpt>
      <trkpt lat="64.81374" lon="11.58733">
        <ele>61.089771</ele>
        <time>2020-08-11T12:50:35.273Z</time>
      </trkpt>
      <trkpt lat="64.81383" lon="11.5875">
        <ele>60.957566</ele>
        <time>2020-08-11T12:50:37.296Z</time>
      </trkpt>
      <trkpt lat="64.81392" lon="11.58767">
        <ele>60.831149</ele>
        <time>2020-08-11T12:50:39.288Z</time>
      </trkpt>
      <trkpt lat="64.81402" lon="11.58787">
        <ele>60.692681</ele>
        <time>2020-08-11T12:50:41.306Z</time>
      </trkpt>
      <trkpt lat="64.8141" lon="11.58805">
        <ele>60.564842</ele>
        <time>2020-08-11T12:50:43.293Z</time>
      </trkpt>
      <trkpt lat="64.81418" lon="11.58823">
        <ele>60.440059</ele>
        <time>2020-08-11T12:50:45.285Z</time>
      </trkpt>
      <trkpt lat="64.81426" lon="11.58838">
        <ele>60.328148</ele>
        <time>2020-08-11T12:50:47.287Z</time>
      </trkpt>
      <trkpt lat="64.81435" lon="11.58852">
        <ele>60.214099</ele>
        <time>2020-08-11T12:50:49.289Z</time>
      </trkpt>
      <trkpt lat="64.81441" lon="11.58869">
        <ele>60.108087</ele>
        <time>2020-08-11T12:50:51.284Z</time>
      </trkpt>
      <trkpt lat="64.81449" lon="11.58883">
        <ele>59.870009</ele>
        <time>2020-08-11T12:50:53.278Z</time>
      </trkpt>
      <trkpt lat="64.81457" lon="11.58901">
        <ele>59.559248</ele>
        <time>2020-08-11T12:50:55.302Z</time>
      </trkpt>
      <trkpt lat="64.81466" lon="11.58917">
        <ele>59.256986</ele>
        <time>2020-08-11T12:50:57.276Z</time>
      </trkpt>
      <trkpt lat="64.81474" lon="11.58934">
        <ele>58.967357</ele>
        <time>2020-08-11T12:50:59.276Z</time>
      </trkpt>
      <trkpt lat="64.81482" lon="11.58949">
        <ele>58.680825</ele>
        <time>2020-08-11T12:51:01.307Z</time>
      </trkpt>
      <trkpt lat="64.81491" lon="11.58965">
        <ele>58.390616</ele>
        <time>2020-08-11T12:51:03.285Z</time>
      </trkpt>
      <trkpt lat="64.81498" lon="11.58987">
        <ele>58.066625</ele>
        <time>2020-08-11T12:51:05.323Z</time>
      </trkpt>
      <trkpt lat="64.81507" lon="11.59004">
        <ele>57.745799</ele>
        <time>2020-08-11T12:51:07.284Z</time>
      </trkpt>
      <trkpt lat="64.81518" lon="11.59021">
        <ele>57.40462</ele>
        <time>2020-08-11T12:51:09.279Z</time>
      </trkpt>
      <trkpt lat="64.81527" lon="11.59038">
        <ele>57.076756</ele>
        <time>2020-08-11T12:51:11.286Z</time>
      </trkpt>
      <trkpt lat="64.81537" lon="11.59053">
        <ele>56.763656</ele>
        <time>2020-08-11T12:51:13.273Z</time>
      </trkpt>
      <trkpt lat="64.81544" lon="11.59074">
        <ele>56.459124</ele>
        <time>2020-08-11T12:51:15.306Z</time>
      </trkpt>
      <trkpt lat="64.81551" lon="11.59098">
        <ele>56.119622</ele>
        <time>2020-08-11T12:51:17.311Z</time>
      </trkpt>
      <trkpt lat="64.81557" lon="11.59123">
        <ele>55.784015</ele>
        <time>2020-08-11T12:51:19.284Z</time>
      </trkpt>
      <trkpt lat="64.81565" lon="11.59145">
        <ele>55.454607</ele>
        <time>2020-08-11T12:51:21.288Z</time>
      </trkpt>
      <trkpt lat="64.81574" lon="11.59165">
        <ele>55.390642</ele>
        <time>2020-08-11T12:51:23.285Z</time>
      </trkpt>
      <trkpt lat="64.81584" lon="11.59182">
        <ele>56.055137</ele>
        <time>2020-08-11T12:51:25.279Z</time>
      </trkpt>
      <trkpt lat="64.81593" lon="11.59202">
        <ele>56.701862</ele>
        <time>2020-08-11T12:51:27.286Z</time>
      </trkpt>
      <trkpt lat="64.81601" lon="11.59221">
        <ele>57.304338</ele>
        <time>2020-08-11T12:51:29.297Z</time>
      </trkpt>
      <trkpt lat="64.81611" lon="11.59239">
        <ele>57.966935</ele>
        <time>2020-08-11T12:51:31.292Z</time>
      </trkpt>
      <trkpt lat="64.81619" lon="11.59258">
        <ele>58.560231</ele>
        <time>2020-08-11T12:51:33.275Z</time>
      </trkpt>
      <trkpt lat="64.81627" lon="11.59276">
        <ele>59.159244</ele>
        <time>2020-08-11T12:51:35.313Z</time>
      </trkpt>
      <trkpt lat="64.81636" lon="11.59292">
        <ele>59.764753</ele>
        <time>2020-08-11T12:51:37.388Z</time>
      </trkpt>
      <trkpt lat="64.81645" lon="11.5931">
        <ele>60.365665</ele>
        <time>2020-08-11T12:51:39.292Z</time>
      </trkpt>
      <trkpt lat="64.81652" lon="11.59328">
        <ele>60.915689</ele>
        <time>2020-08-11T12:51:41.288Z</time>
      </trkpt>
      <trkpt lat="64.81659" lon="11.59348">
        <ele>61.520173</ele>
        <time>2020-08-11T12:51:43.277Z</time>
      </trkpt>
      <trkpt lat="64.81669" lon="11.59368">
        <ele>62.210133</ele>
        <time>2020-08-11T12:51:45.287Z</time>
      </trkpt>
      <trkpt lat="64.81677" lon="11.59388">
        <ele>62.835061</ele>
        <time>2020-08-11T12:51:47.264Z</time>
      </trkpt>
      <trkpt lat="64.81685" lon="11.59407">
        <ele>63.42107</ele>
        <time>2020-08-11T12:51:49.281Z</time>
      </trkpt>
      <trkpt lat="64.81692" lon="11.59426">
        <ele>63.992834</ele>
        <time>2020-08-11T12:51:51.284Z</time>
      </trkpt>
      <trkpt lat="64.817" lon="11.59442">
        <ele>64.570909</ele>
        <time>2020-08-11T12:51:53.277Z</time>
      </trkpt>
      <trkpt lat="64.8171" lon="11.59457">
        <ele>64.768632</ele>
        <time>2020-08-11T12:51:55.267Z</time>
      </trkpt>
      <trkpt lat="64.81718" lon="11.59476">
        <ele>64.77703</ele>
        <time>2020-08-11T12:51:57.272Z</time>
      </trkpt>
      <trkpt lat="64.81725" lon="11.595">
        <ele>64.786093</ele>
        <time>2020-08-11T12:51:59.269Z</time>
      </trkpt>
      <trkpt lat="64.81734" lon="11.59518">
        <ele>64.79426</ele>
        <time>2020-08-11T12:52:01.270Z</time>
      </trkpt>
      <trkpt lat="64.81742" lon="11.59531">
        <ele>64.801354</ele>
        <time>2020-08-11T12:52:03.277Z</time>
      </trkpt>
      <trkpt lat="64.81749" lon="11.59546">
        <ele>64.808517</ele>
        <time>2020-08-11T12:52:05.278Z</time>
      </trkpt>
      <trkpt lat="64.81758" lon="11.59563">
        <ele>64.816424</ele>
        <time>2020-08-11T12:52:07.268Z</time>
      </trkpt>
      <trkpt lat="64.81766" lon="11.59581">
        <ele>64.82471</ele>
        <time>2020-08-11T12:52:09.335Z</time>
      </trkpt>
      <trkpt lat="64.81775" lon="11.59596">
        <ele>64.83278</ele>
        <time>2020-08-11T12:52:11.306Z</time>
      </trkpt>
      <trkpt lat="64.81784" lon="11.5961">
        <ele>64.840155</ele>
        <time>2020-08-11T12:52:13.269Z</time>
      </trkpt>
      <trkpt lat="64.81792" lon="11.59627">
        <ele>64.847873</ele>
        <time>2020-08-11T12:52:15.282Z</time>
      </trkpt>
      <trkpt lat="64.81799" lon="11.59647">
        <ele>64.856102</ele>
        <time>2020-08-11T12:52:17.280Z</time>
      </trkpt>
      <trkpt lat="64.81807" lon="11.59667">
        <ele>64.864213</ele>
        <time>2020-08-11T12:52:19.280Z</time>
      </trkpt>
      <trkpt lat="64.81814" lon="11.59686">
        <ele>64.872189</ele>
        <time>2020-08-11T12:52:21.296Z</time>
      </trkpt>
      <trkpt lat="64.81822" lon="11.59703">
        <ele>64.880266</ele>
        <time>2020-08-11T12:52:23.277Z</time>
      </trkpt>
      <trkpt lat="64.8183" lon="11.59723">
        <ele>64.888306</ele>
        <time>2020-08-11T12:52:25.274Z</time>
      </trkpt>
      <trkpt lat="64.81835" lon="11.59747">
        <ele>64.571685</ele>
        <time>2020-08-11T12:52:27.278Z</time>
      </trkpt>
      <trkpt lat="64.81841" lon="11.59769">
        <ele>63.901918</ele>
        <time>2020-08-11T12:52:29.269Z</time>
      </trkpt>
      <trkpt lat="64.81848" lon="11.59793">
        <ele>63.128518</ele>
        <time>2020-08-11T12:52:31.301Z</time>
      </trkpt>
      <trkpt lat="64.81856" lon="11.59815">
        <ele>62.430167</ele>
        <time>2020-08-11T12:52:33.258Z</time>
      </trkpt>
      <trkpt lat="64.81863" lon="11.59833">
        <ele>61.771857</ele>
        <time>2020-08-11T12:52:35.324Z</time>
      </trkpt>
      <trkpt lat="64.81871" lon="11.59852">
        <ele>61.094537</ele>
        <time>2020-08-11T12:52:37.286Z</time>
      </trkpt>
      <trkpt lat="64.81879" lon="11.59872">
        <ele>60.37429</ele>
        <time>2020-08-11T12:52:39.309Z</time>
      </trkpt>
      <trkpt lat="64.81887" lon="11.59891">
        <ele>59.718316</ele>
        <time>2020-08-11T12:52:41.293Z</time>
      </trkpt>
      <trkpt lat="64.81895" lon="11.59909">
        <ele>59.03394</ele>
        <time>2020-08-11T12:52:43.278Z</time>
      </trkpt>
      <trkpt lat="64.81903" lon="11.59928">
        <ele>58.360351</ele>
        <time>2020-08-11T12:52:45.297Z</time>
      </trkpt>
      <trkpt lat="64.81909" lon="11.59948">
        <ele>57.718694</ele>
        <time>2020-08-11T12:52:47.288Z</time>
      </trkpt>
      <trkpt lat="64.81916" lon="11.59964">
        <ele>57.127002</ele>
        <time>2020-08-11T12:52:49.285Z</time>
      </trkpt>
      <trkpt lat="64.81925" lon="11.59978">
        <ele>56.503705</ele>
        <time>2020-08-11T12:52:51.300Z</time>
      </trkpt>
      <trkpt lat="64.81933" lon="11.59994">
        <ele>55.84512</ele>
        <time>2020-08-11T12:52:53.299Z</time>
      </trkpt>
      <trkpt lat="64.81941" lon="11.60012">
        <ele>55.189153</ele>
        <time>2020-08-11T12:52:55.321Z</time>
      </trkpt>
      <trkpt lat="64.81947" lon="11.60031">
        <ele>54.563035</ele>
        <time>2020-08-11T12:52:57.295Z</time>
      </trkpt>
      <trkpt lat="64.81954" lon="11.6005">
        <ele>54.032645</ele>
        <time>2020-08-11T12:52:59.294Z</time>
      </trkpt>
      <trkpt lat="64.81961" lon="11.60071">
        <ele>53.987235</ele>
        <time>2020-08-11T12:53:01.281Z</time>
      </trkpt>
      <trkpt lat="64.81968" lon="11.60091">
        <ele>53.939288</ele>
        <time>2020-08-11T12:53:03.287Z</time>
      </trkpt>
      <trkpt lat="64.81976" lon="11.60111">
        <ele>53.893063</ele>
        <time>2020-08-11T12:53:05.276Z</time>
      </trkpt>
      <trkpt lat="64.81983" lon="11.60131">
        <ele>53.846455</ele>
        <time>2020-08-11T12:53:07.294Z</time>
      </trkpt>
      <trkpt lat="64.8199" lon="11.6015">
        <ele>53.802604</ele>
        <time>2020-08-11T12:53:09.279Z</time>
      </trkpt>
      <trkpt lat="64.81997" lon="11.60171">
        <ele>53.754925</ele>
        <time>2020-08-11T12:53:11.285Z</time>
      </trkpt>
      <trkpt lat="64.82004" lon="11.60193">
        <ele>53.705883</ele>
        <time>2020-08-11T12:53:13.279Z</time>
      </trkpt>
      <trkpt lat="64.82012" lon="11.60213">
        <ele>53.65766</ele>
        <time>2020-08-11T12:53:15.304Z</time>
      </trkpt>
      <trkpt lat="64.82019" lon="11.60234">
        <ele>53.610518</ele>
        <time>2020-08-11T12:53:17.297Z</time>
      </trkpt>
      <trkpt lat="64.82029" lon="11.60254">
        <ele>53.558934</ele>
        <time>2020-08-11T12:53:19.280Z</time>
      </trkpt>
      <trkpt lat="64.82036" lon="11.60271">
        <ele>53.51513</ele>
        <time>2020-08-11T12:53:21.284Z</time>
      </trkpt>
      <trkpt lat="64.82043" lon="11.60289">
        <ele>53.473626</ele>
        <time>2020-08-11T12:53:23.297Z</time>
      </trkpt>
      <trkpt lat="64.8205" lon="11.60307">
        <ele>53.429156</ele>
        <time>2020-08-11T12:53:25.308Z</time>
      </trkpt>
      <trkpt lat="64.82058" lon="11.60324">
        <ele>53.384516</ele>
        <time>2020-08-11T12:53:27.291Z</time>
      </trkpt>
      <trkpt lat="64.82066" lon="11.60346">
        <ele>53.333729</ele>
        <time>2020-08-11T12:53:29.277Z</time>
      </trkpt>
      <trkpt lat="64.82076" lon="11.60364">
        <ele>53.261939</ele>
        <time>2020-08-11T12:53:31.294Z</time>
      </trkpt>
      <trkpt lat="64.82085" lon="11.60382">
        <ele>53.139115</ele>
        <time>2020-08-11T12:53:33.307Z</time>
      </trkpt>
      <trkpt lat="64.82095" lon="11.60399">
        <ele>53.016809</ele>
        <time>2020-08-11T12:53:35.291Z</time>
      </trkpt>
      <trkpt lat="64.82103" lon="11.60419">
        <ele>52.895493</ele>
        <time>2020-08-11T12:53:37.313Z</time>
      </trkpt>
      <trkpt lat="64.82111" lon="11.6044">
        <ele>52.774568</ele>
        <time>2020-08-11T12:53:39.292Z</time>
      </trkpt>
      <trkpt lat="64.8212" lon="11.60461">
        <ele>52.649736</ele>
        <time>2020-08-11T12:53:41.300Z</time>
      </trkpt>
      <trkpt lat="64.82128" lon="11.60482">
        <ele>52.522882</ele>
        <time>2020-08-11T12:53:43.286Z</time>
      </trkpt>
      <trkpt lat="64.82136" lon="11.60503">
        <ele>52.405093</ele>
        <time>2020-08-11T12:53:45.290Z</time>
      </trkpt>
      <trkpt lat="64.82144" lon="11.60522">
        <ele>52.287569</ele>
        <time>2020-08-11T12:53:47.296Z</time>
      </trkpt>
      <trkpt lat="64.82152" lon="11.60536">
        <ele>52.187627</ele>
        <time>2020-08-11T12:53:49.299Z</time>
      </trkpt>
      <trkpt lat="64.8216" lon="11.60551">
        <ele>52.088689</ele>
        <time>2020-08-11T12:53:51.287Z</time>
      </trkpt>
      <trkpt lat="64.82169" lon="11.60562">
        <ele>51.977314</ele>
        <time>2020-08-11T12:53:53.289Z</time>
      </trkpt>
      <trkpt lat="64.82179" lon="11.60575">
        <ele>51.865039</ele>
        <time>2020-08-11T12:53:55.335Z</time>
      </trkpt>
      <trkpt lat="64.82187" lon="11.6059">
        <ele>51.756604</ele>
        <time>2020-08-11T12:53:57.300Z</time>
      </trkpt>
      <trkpt lat="64.82196" lon="11.60604">
        <ele>51.653766</ele>
        <time>2020-08-11T12:53:59.317Z</time>
      </trkpt>
      <trkpt lat="64.82203" lon="11.6062">
        <ele>51.547968</ele>
        <time>2020-08-11T12:54:01.288Z</time>
      </trkpt>
      <trkpt lat="64.82211" lon="11.60639">
        <ele>51.357337</ele>
        <time>2020-08-11T12:54:03.308Z</time>
      </trkpt>
      <trkpt lat="64.82218" lon="11.60656">
        <ele>50.951938</ele>
        <time>2020-08-11T12:54:05.277Z</time>
      </trkpt>
      <trkpt lat="64.82226" lon="11.60675">
        <ele>50.525639</ele>
        <time>2020-08-11T12:54:07.293Z</time>
      </trkpt>
      <trkpt lat="64.82233" lon="11.60695">
        <ele>50.093078</ele>
        <time>2020-08-11T12:54:09.298Z</time>
      </trkpt>
      <trkpt lat="64.82241" lon="11.60714">
        <ele>49.63862</ele>
        <time>2020-08-11T12:54:11.284Z</time>
      </trkpt>
      <trkpt lat="64.8225" lon="11.60735">
        <ele>49.151454</ele>
        <time>2020-08-11T12:54:13.293Z</time>
      </trkpt>
      <trkpt lat="64.82257" lon="11.60755">
        <ele>48.736901</ele>
        <time>2020-08-11T12:54:15.288Z</time>
      </trkpt>
      <trkpt lat="64.82265" lon="11.60775">
        <ele>48.295151</ele>
        <time>2020-08-11T12:54:17.316Z</time>
      </trkpt>
      <trkpt lat="64.82271" lon="11.60794">
        <ele>47.881133</ele>
        <time>2020-08-11T12:54:19.307Z</time>
      </trkpt>
      <trkpt lat="64.82277" lon="11.60814">
        <ele>47.483338</ele>
        <time>2020-08-11T12:54:21.289Z</time>
      </trkpt>
      <trkpt lat="64.82285" lon="11.60835">
        <ele>47.025772</ele>
        <time>2020-08-11T12:54:23.284Z</time>
      </trkpt>
      <trkpt lat="64.82294" lon="11.60855">
        <ele>46.554964</ele>
        <time>2020-08-11T12:54:25.284Z</time>
      </trkpt>
      <trkpt lat="64.82302" lon="11.60875">
        <ele>46.090358</ele>
        <time>2020-08-11T12:54:27.277Z</time>
      </trkpt>
      <trkpt lat="64.8231" lon="11.60895">
        <ele>45.654006</ele>
        <time>2020-08-11T12:54:29.294Z</time>
      </trkpt>
      <trkpt lat="64.82318" lon="11.60914">
        <ele>45.201154</ele>
        <time>2020-08-11T12:54:31.285Z</time>
      </trkpt>
      <trkpt lat="64.82326" lon="11.60934">
        <ele>44.745975</ele>
        <time>2020-08-11T12:54:33.335Z</time>
      </trkpt>
      <trkpt lat="64.82334" lon="11.60954">
        <ele>44.657103</ele>
        <time>2020-08-11T12:54:35.306Z</time>
      </trkpt>
      <trkpt lat="64.82342" lon="11.60973">
        <ele>44.969071</ele>
        <time>2020-08-11T12:54:37.291Z</time>
      </trkpt>
      <trkpt lat="64.82349" lon="11.60993">
        <ele>45.291845</ele>
        <time>2020-08-11T12:54:39.290Z</time>
      </trkpt>
      <trkpt lat="64.82357" lon="11.61014">
        <ele>45.615306</ele>
        <time>2020-08-11T12:54:41.334Z</time>
      </trkpt>
      <trkpt lat="64.82364" lon="11.61034">
        <ele>45.918154</ele>
        <time>2020-08-11T12:54:43.275Z</time>
      </trkpt>
      <trkpt lat="64.82373" lon="11.61051">
        <ele>46.222045</ele>
        <time>2020-08-11T12:54:45.278Z</time>
      </trkpt>
      <trkpt lat="64.8238" lon="11.6107">
        <ele>46.530956</ele>
        <time>2020-08-11T12:54:47.284Z</time>
      </trkpt>
      <trkpt lat="64.82387" lon="11.61089">
        <ele>46.834705</ele>
        <time>2020-08-11T12:54:49.324Z</time>
      </trkpt>
      <trkpt lat="64.82395" lon="11.61108">
        <ele>47.135814</ele>
        <time>2020-08-11T12:54:51.292Z</time>
      </trkpt>
      <trkpt lat="64.82403" lon="11.61126">
        <ele>47.440541</ele>
        <time>2020-08-11T12:54:53.276Z</time>
      </trkpt>
      <trkpt lat="64.8241" lon="11.61142">
        <ele>47.724586</ele>
        <time>2020-08-11T12:54:55.291Z</time>
      </trkpt>
      <trkpt lat="64.8242" lon="11.61159">
        <ele>48.043146</ele>
        <time>2020-08-11T12:54:57.304Z</time>
      </trkpt>
      <trkpt lat="64.82429" lon="11.61176">
        <ele>48.36383</ele>
        <time>2020-08-11T12:54:59.285Z</time>
      </trkpt>
      <trkpt lat="64.82438" lon="11.61192">
        <ele>48.675084</ele>
        <time>2020-08-11T12:55:01.285Z</time>
      </trkpt>
      <trkpt lat="64.82447" lon="11.61208">
        <ele>49.001857</ele>
        <time>2020-08-11T12:55:03.331Z</time>
      </trkpt>
      <trkpt lat="64.82457" lon="11.61226">
        <ele>49.35447</ele>
        <time>2020-08-11T12:55:05.275Z</time>
      </trkpt>
      <trkpt lat="64.82466" lon="11.61247">
        <ele>49.258024</ele>
        <time>2020-08-11T12:55:07.281Z</time>
      </trkpt>
      <trkpt lat="64.82474" lon="11.61266">
        <ele>48.906749</ele>
        <time>2020-08-11T12:55:09.294Z</time>
      </trkpt>
      <trkpt lat="64.82484" lon="11.61285">
        <ele>48.537132</ele>
        <time>2020-08-11T12:55:11.286Z</time>
      </trkpt>
      <trkpt lat="64.82494" lon="11.61301">
        <ele>48.182621</ele>
        <time>2020-08-11T12:55:13.296Z</time>
      </trkpt>
      <trkpt lat="64.82504" lon="11.61316">
        <ele>47.831882</ele>
        <time>2020-08-11T12:55:15.280Z</time>
      </trkpt>
      <trkpt lat="64.82511" lon="11.61331">
        <ele>47.550201</ele>
        <time>2020-08-11T12:55:17.277Z</time>
      </trkpt>
      <trkpt lat="64.82519" lon="11.61347">
        <ele>47.248706</ele>
        <time>2020-08-11T12:55:19.299Z</time>
      </trkpt>
      <trkpt lat="64.82526" lon="11.61361">
        <ele>46.977046</ele>
        <time>2020-08-11T12:55:21.287Z</time>
      </trkpt>
      <trkpt lat="64.82536" lon="11.6138">
        <ele>46.593456</ele>
        <time>2020-08-11T12:55:24.294Z</time>
      </trkpt>
      <trkpt lat="64.82544" lon="11.61396">
        <ele>46.299697</ele>
        <time>2020-08-11T12:55:27.287Z</time>
      </trkpt>
      <trkpt lat="64.82553" lon="11.61409">
        <ele>45.980834</ele>
        <time>2020-08-11T12:55:30.270Z</time>
      </trkpt>
      <trkpt lat="64.82562" lon="11.6142">
        <ele>45.673174</ele>
        <time>2020-08-11T12:55:33.286Z</time>
      </trkpt>
      <trkpt lat="64.82571" lon="11.61432">
        <ele>45.362914</ele>
        <time>2020-08-11T12:55:36.275Z</time>
      </trkpt>
      <trkpt lat="64.82582" lon="11.61442">
        <ele>45.035264</ele>
        <time>2020-08-11T12:55:39.265Z</time>
      </trkpt>
      <trkpt lat="64.82592" lon="11.61454">
        <ele>44.692289</ele>
        <time>2020-08-11T12:55:42.257Z</time>
      </trkpt>
      <trkpt lat="64.82602" lon="11.61466">
        <ele>44.350688</ele>
        <time>2020-08-11T12:55:45.279Z</time>
      </trkpt>
      <trkpt lat="64.82623" lon="11.61489">
        <ele>43.462295</ele>
        <time>2020-08-11T12:55:52.361Z</time>
      </trkpt>
      <trkpt lat="64.82629" lon="11.61473">
        <ele>43.085375</ele>
        <time>2020-08-11T12:55:55.279Z</time>
      </trkpt>
      <trkpt lat="64.8264" lon="11.61479">
        <ele>42.637174</ele>
        <time>2020-08-11T12:55:58.280Z</time>
      </trkpt>
      <trkpt lat="64.82648" lon="11.61492">
        <ele>42.237967</ele>
        <time>2020-08-11T12:56:04.281Z</time>
      </trkpt>
      <trkpt lat="64.82658" lon="11.61494">
        <ele>41.834465</ele>
        <time>2020-08-11T12:56:07.275Z</time>
      </trkpt>
      <trkpt lat="64.82667" lon="11.61498">
        <ele>41.432726</ele>
        <time>2020-08-11T12:56:12.276Z</time>
      </trkpt>
      <trkpt lat="64.82675" lon="11.61486">
        <ele>41.045652</ele>
        <time>2020-08-11T12:56:22.264Z</time>
      </trkpt>
      <trkpt lat="64.82682" lon="11.6147">
        <ele>40.663391</ele>
        <time>2020-08-11T12:56:28.266Z</time>
      </trkpt>
      <trkpt lat="64.82689" lon="11.61456">
        <ele>40.27619</ele>
        <time>2020-08-11T12:56:32.286Z</time>
      </trkpt>
      <trkpt lat="64.82698" lon="11.61445">
        <ele>39.85758</ele>
        <time>2020-08-11T12:56:36.265Z</time>
      </trkpt>
      <trkpt lat="64.82706" lon="11.61433">
        <ele>39.469985</ele>
        <time>2020-08-11T12:56:40.274Z</time>
      </trkpt>
      <trkpt lat="64.82713" lon="11.61419">
        <ele>39.079118</ele>
        <time>2020-08-11T12:56:46.269Z</time>
      </trkpt>
      <trkpt lat="64.82722" lon="11.61411">
        <ele>38.678254</ele>
        <time>2020-08-11T12:56:53.274Z</time>
      </trkpt>
      <trkpt lat="64.82731" lon="11.61402">
        <ele>38.304679</ele>
        <time>2020-08-11T12:57:15.284Z</time>
      </trkpt>
      <trkpt lat="64.82736" lon="11.61382">
        <ele>37.898441</ele>
        <time>2020-08-11T12:57:24.282Z</time>
      </trkpt>
      <trkpt lat="64.82741" lon="11.61324">
        <ele>36.85339</ele>
        <time>2020-08-11T12:59:06.313Z</time>
      </trkpt>
      <trkpt lat="64.82741" lon="11.61299">
        <ele>37.22016</ele>
        <time>2020-08-11T12:59:08.302Z</time>
      </trkpt>
      <trkpt lat="64.82744" lon="11.61271">
        <ele>37.816696</ele>
        <time>2020-08-11T12:59:11.281Z</time>
      </trkpt>
      <trkpt lat="64.82747" lon="11.61251">
        <ele>38.274632</ele>
        <time>2020-08-11T12:59:15.282Z</time>
      </trkpt>
      <trkpt lat="64.82748" lon="11.61227">
        <ele>38.776727</ele>
        <time>2020-08-11T12:59:22.266Z</time>
      </trkpt>
      <trkpt lat="64.82746" lon="11.61195">
        <ele>39.433458</ele>
        <time>2020-08-11T12:59:50.285Z</time>
      </trkpt>
      <trkpt lat="64.82747" lon="11.61173">
        <ele>39.895653</ele>
        <time>2020-08-11T12:59:55.328Z</time>
      </trkpt>
      <trkpt lat="64.82749" lon="11.61153">
        <ele>40.332926</ele>
        <time>2020-08-11T12:59:59.275Z</time>
      </trkpt>
      <trkpt lat="64.82753" lon="11.61128">
        <ele>40.873386</ele>
        <time>2020-08-11T13:00:04.269Z</time>
      </trkpt>
      <trkpt lat="64.82756" lon="11.61106">
        <ele>41.365294</ele>
        <time>2020-08-11T13:00:08.291Z</time>
      </trkpt>
      <trkpt lat="64.82758" lon="11.61085">
        <ele>41.812644</ele>
        <time>2020-08-11T13:00:11.274Z</time>
      </trkpt>
      <trkpt lat="64.8276" lon="11.61062">
        <ele>42.290306</ele>
        <time>2020-08-11T13:00:14.291Z</time>
      </trkpt>
      <trkpt lat="64.82762" lon="11.6104">
        <ele>42.763919</ele>
        <time>2020-08-11T13:00:17.273Z</time>
      </trkpt>
      <trkpt lat="64.82763" lon="11.61017">
        <ele>43.24332</ele>
        <time>2020-08-11T13:00:20.307Z</time>
      </trkpt>
      <trkpt lat="64.82763" lon="11.60992">
        <ele>43.765953</ele>
        <time>2020-08-11T13:00:24.275Z</time>
      </trkpt>
      <trkpt lat="64.82768" lon="11.60972">
        <ele>44.255149</ele>
        <time>2020-08-11T13:00:28.274Z</time>
      </trkpt>
      <trkpt lat="64.82773" lon="11.60948">
        <ele>44.821114</ele>
        <time>2020-08-11T13:00:32.279Z</time>
      </trkpt>
      <trkpt lat="64.82776" lon="11.60922">
        <ele>45.368879</ele>
        <time>2020-08-11T13:00:35.278Z</time>
      </trkpt>
      <trkpt lat="64.82774" lon="11.60897">
        <ele>45.517809</ele>
        <time>2020-08-11T13:00:38.266Z</time>
      </trkpt>
      <trkpt lat="64.82771" lon="11.60873">
        <ele>45.432045</ele>
        <time>2020-08-11T13:00:41.298Z</time>
      </trkpt>
      <trkpt lat="64.82769" lon="11.6085">
        <ele>45.345065</ele>
        <time>2020-08-11T13:00:44.278Z</time>
      </trkpt>
      <trkpt lat="64.82765" lon="11.60828">
        <ele>45.256803</ele>
        <time>2020-08-11T13:00:47.270Z</time>
      </trkpt>
      <trkpt lat="64.8276" lon="11.60808">
        <ele>45.172315</ele>
        <time>2020-08-11T13:00:50.290Z</time>
      </trkpt>
      <trkpt lat="64.82755" lon="11.60789">
        <ele>45.093039</ele>
        <time>2020-08-11T13:00:53.275Z</time>
      </trkpt>
      <trkpt lat="64.8275" lon="11.60771">
        <ele>45.013151</ele>
        <time>2020-08-11T13:00:56.284Z</time>
      </trkpt>
      <trkpt lat="64.82745" lon="11.60751">
        <ele>44.931231</ele>
        <time>2020-08-11T13:00:59.302Z</time>
      </trkpt>
      <trkpt lat="64.8274" lon="11.60731">
        <ele>44.845117</ele>
        <time>2020-08-11T13:01:02.265Z</time>
      </trkpt>
      <trkpt lat="64.82736" lon="11.6071">
        <ele>44.763196</ele>
        <time>2020-08-11T13:01:05.305Z</time>
      </trkpt>
      <trkpt lat="64.82732" lon="11.60689">
        <ele>44.680967</ele>
        <time>2020-08-11T13:01:08.284Z</time>
      </trkpt>
      <trkpt lat="64.8273" lon="11.60667">
        <ele>44.598205</ele>
        <time>2020-08-11T13:01:11.274Z</time>
      </trkpt>
      <trkpt lat="64.82727" lon="11.60644">
        <ele>44.510524</ele>
        <time>2020-08-11T13:01:14.293Z</time>
      </trkpt>
      <trkpt lat="64.82726" lon="11.60616">
        <ele>44.407536</ele>
        <time>2020-08-11T13:01:17.271Z</time>
      </trkpt>
      <trkpt lat="64.82726" lon="11.60593">
        <ele>44.325683</ele>
        <time>2020-08-11T13:01:19.392Z</time>
      </trkpt>
      <trkpt lat="64.82726" lon="11.60569">
        <ele>44.23927</ele>
        <time>2020-08-11T13:01:21.307Z</time>
      </trkpt>
      <trkpt lat="64.82726" lon="11.60545">
        <ele>44.152026</ele>
        <time>2020-08-11T13:01:23.293Z</time>
      </trkpt>
      <trkpt lat="64.82726" lon="11.60519">
        <ele>44.056158</ele>
        <time>2020-08-11T13:01:25.285Z</time>
      </trkpt>
      <trkpt lat="64.82726" lon="11.60492">
        <ele>43.959314</ele>
        <time>2020-08-11T13:01:27.312Z</time>
      </trkpt>
      <trkpt lat="64.82724" lon="11.60463">
        <ele>43.857379</ele>
        <time>2020-08-11T13:01:29.287Z</time>
      </trkpt>
      <trkpt lat="64.82722" lon="11.60434">
        <ele>43.750879</ele>
        <time>2020-08-11T13:01:31.263Z</time>
      </trkpt>
      <trkpt lat="64.82718" lon="11.60404">
        <ele>43.640279</ele>
        <time>2020-08-11T13:01:33.311Z</time>
      </trkpt>
      <trkpt lat="64.82713" lon="11.60374">
        <ele>43.52467</ele>
        <time>2020-08-11T13:01:35.264Z</time>
      </trkpt>
      <trkpt lat="64.82708" lon="11.60343">
        <ele>43.409027</ele>
        <time>2020-08-11T13:01:37.269Z</time>
      </trkpt>
      <trkpt lat="64.82703" lon="11.60312">
        <ele>43.288726</ele>
        <time>2020-08-11T13:01:39.352Z</time>
      </trkpt>
      <trkpt lat="64.82698" lon="11.60279">
        <ele>43.165027</ele>
        <time>2020-08-11T13:01:41.287Z</time>
      </trkpt>
      <trkpt lat="64.82693" lon="11.60246">
        <ele>43.042053</ele>
        <time>2020-08-11T13:01:43.314Z</time>
      </trkpt>
      <trkpt lat="64.82688" lon="11.60214">
        <ele>42.918123</ele>
        <time>2020-08-11T13:01:45.283Z</time>
      </trkpt>
      <trkpt lat="64.82683" lon="11.6018">
        <ele>42.78978</ele>
        <time>2020-08-11T13:01:47.280Z</time>
      </trkpt>
      <trkpt lat="64.82678" lon="11.60147">
        <ele>42.668036</ele>
        <time>2020-08-11T13:01:49.309Z</time>
      </trkpt>
      <trkpt lat="64.82674" lon="11.60116">
        <ele>42.551268</ele>
        <time>2020-08-11T13:01:51.277Z</time>
      </trkpt>
      <trkpt lat="64.82669" lon="11.60087">
        <ele>42.401338</ele>
        <time>2020-08-11T13:01:53.337Z</time>
      </trkpt>
      <trkpt lat="64.82665" lon="11.60061">
        <ele>42.258234</ele>
        <time>2020-08-11T13:01:55.312Z</time>
      </trkpt>
      <trkpt lat="64.82662" lon="11.60035">
        <ele>42.1214</ele>
        <time>2020-08-11T13:01:57.268Z</time>
      </trkpt>
      <trkpt lat="64.82659" lon="11.6001">
        <ele>41.986213</ele>
        <time>2020-08-11T13:01:59.263Z</time>
      </trkpt>
      <trkpt lat="64.82655" lon="11.59984">
        <ele>41.851025</ele>
        <time>2020-08-11T13:02:01.311Z</time>
      </trkpt>
      <trkpt lat="64.82652" lon="11.59959">
        <ele>41.717627</ele>
        <time>2020-08-11T13:02:03.268Z</time>
      </trkpt>
      <trkpt lat="64.82649" lon="11.59933">
        <ele>41.583903</ele>
        <time>2020-08-11T13:02:05.289Z</time>
      </trkpt>
      <trkpt lat="64.82646" lon="11.59909">
        <ele>41.454943</ele>
        <time>2020-08-11T13:02:07.272Z</time>
      </trkpt>
      <trkpt lat="64.82642" lon="11.59887">
        <ele>41.332373</ele>
        <time>2020-08-11T13:02:09.275Z</time>
      </trkpt>
      <trkpt lat="64.82639" lon="11.59864">
        <ele>41.210315</ele>
        <time>2020-08-11T13:02:11.283Z</time>
      </trkpt>
      <trkpt lat="64.82635" lon="11.59841">
        <ele>41.085942</ele>
        <time>2020-08-11T13:02:13.269Z</time>
      </trkpt>
      <trkpt lat="64.82632" lon="11.59818">
        <ele>40.962352</ele>
        <time>2020-08-11T13:02:15.266Z</time>
      </trkpt>
      <trkpt lat="64.82629" lon="11.59794">
        <ele>40.835144</ele>
        <time>2020-08-11T13:02:17.274Z</time>
      </trkpt>
      <trkpt lat="64.82626" lon="11.5977">
        <ele>40.710214</ele>
        <time>2020-08-11T13:02:19.273Z</time>
      </trkpt>
      <trkpt lat="64.82623" lon="11.59747">
        <ele>40.586752</ele>
        <time>2020-08-11T13:02:21.302Z</time>
      </trkpt>
      <trkpt lat="64.82621" lon="11.59723">
        <ele>40.460521</ele>
        <time>2020-08-11T13:02:23.275Z</time>
      </trkpt>
      <trkpt lat="64.82617" lon="11.597">
        <ele>40.390005</ele>
        <time>2020-08-11T13:02:25.291Z</time>
      </trkpt>
      <trkpt lat="64.82614" lon="11.59677">
        <ele>40.39582</ele>
        <time>2020-08-11T13:02:27.271Z</time>
      </trkpt>
      <trkpt lat="64.82611" lon="11.59654">
        <ele>40.401435</ele>
        <time>2020-08-11T13:02:29.265Z</time>
      </trkpt>
      <trkpt lat="64.82609" lon="11.59632">
        <ele>40.406906</ele>
        <time>2020-08-11T13:02:31.274Z</time>
      </trkpt>
      <trkpt lat="64.82607" lon="11.5961">
        <ele>40.412399</ele>
        <time>2020-08-11T13:02:33.305Z</time>
      </trkpt>
      <trkpt lat="64.82605" lon="11.59588">
        <ele>40.417768</ele>
        <time>2020-08-11T13:02:35.277Z</time>
      </trkpt>
      <trkpt lat="64.82601" lon="11.59566">
        <ele>40.423533</ele>
        <time>2020-08-11T13:02:37.263Z</time>
      </trkpt>
      <trkpt lat="64.82598" lon="11.59543">
        <ele>40.429393</ele>
        <time>2020-08-11T13:02:39.303Z</time>
      </trkpt>
      <trkpt lat="64.82595" lon="11.5952">
        <ele>40.434946</ele>
        <time>2020-08-11T13:02:41.295Z</time>
      </trkpt>
      <trkpt lat="64.82593" lon="11.59498">
        <ele>40.440524</ele>
        <time>2020-08-11T13:02:43.283Z</time>
      </trkpt>
      <trkpt lat="64.82591" lon="11.59475">
        <ele>40.446206</ele>
        <time>2020-08-11T13:02:45.278Z</time>
      </trkpt>
      <trkpt lat="64.82588" lon="11.59453">
        <ele>40.451683</ele>
        <time>2020-08-11T13:02:47.279Z</time>
      </trkpt>
      <trkpt lat="64.82585" lon="11.59431">
        <ele>40.457285</ele>
        <time>2020-08-11T13:02:49.312Z</time>
      </trkpt>
      <trkpt lat="64.82583" lon="11.59408">
        <ele>40.462907</ele>
        <time>2020-08-11T13:02:51.274Z</time>
      </trkpt>
      <trkpt lat="64.82581" lon="11.59385">
        <ele>40.468389</ele>
        <time>2020-08-11T13:02:53.296Z</time>
      </trkpt>
      <trkpt lat="64.82579" lon="11.59364">
        <ele>40.473741</ele>
        <time>2020-08-11T13:02:55.273Z</time>
      </trkpt>
      <trkpt lat="64.82577" lon="11.59333">
        <ele>40.481221</ele>
        <time>2020-08-11T13:02:58.280Z</time>
      </trkpt>
      <trkpt lat="64.82574" lon="11.59304">
        <ele>40.488432</ele>
        <time>2020-08-11T13:03:01.324Z</time>
      </trkpt>
      <trkpt lat="64.82571" lon="11.59276">
        <ele>40.950445</ele>
        <time>2020-08-11T13:03:04.276Z</time>
      </trkpt>
      <trkpt lat="64.82569" lon="11.59251">
        <ele>41.439225</ele>
        <time>2020-08-11T13:03:07.300Z</time>
      </trkpt>
      <trkpt lat="64.82566" lon="11.59225">
        <ele>41.913397</ele>
        <time>2020-08-11T13:03:10.294Z</time>
      </trkpt>
      <trkpt lat="64.82565" lon="11.59201">
        <ele>42.364309</ele>
        <time>2020-08-11T13:03:13.269Z</time>
      </trkpt>
      <trkpt lat="64.82561" lon="11.59178">
        <ele>42.817782</ele>
        <time>2020-08-11T13:03:16.264Z</time>
      </trkpt>
      <trkpt lat="64.8256" lon="11.59153">
        <ele>43.296051</ele>
        <time>2020-08-11T13:03:19.265Z</time>
      </trkpt>
      <trkpt lat="64.82558" lon="11.59126">
        <ele>43.79495</ele>
        <time>2020-08-11T13:03:22.271Z</time>
      </trkpt>
      <trkpt lat="64.82557" lon="11.59098">
        <ele>44.306444</ele>
        <time>2020-08-11T13:03:25.321Z</time>
      </trkpt>
      <trkpt lat="64.82556" lon="11.59072">
        <ele>44.802777</ele>
        <time>2020-08-11T13:03:28.273Z</time>
      </trkpt>
      <trkpt lat="64.82554" lon="11.59046">
        <ele>45.287668</ele>
        <time>2020-08-11T13:03:31.297Z</time>
      </trkpt>
      <trkpt lat="64.82553" lon="11.5902">
        <ele>45.767429</ele>
        <time>2020-08-11T13:03:34.295Z</time>
      </trkpt>
      <trkpt lat="64.82552" lon="11.58993">
        <ele>46.273402</ele>
        <time>2020-08-11T13:03:37.268Z</time>
      </trkpt>
      <trkpt lat="64.82551" lon="11.58964">
        <ele>46.800335</ele>
        <time>2020-08-11T13:03:40.276Z</time>
      </trkpt>
      <trkpt lat="64.82549" lon="11.58936">
        <ele>47.335515</ele>
        <time>2020-08-11T13:03:43.277Z</time>
      </trkpt>
      <trkpt lat="64.82547" lon="11.58907">
        <ele>47.880928</ele>
        <time>2020-08-11T13:03:46.291Z</time>
      </trkpt>
      <trkpt lat="64.82545" lon="11.58878">
        <ele>48.248094</ele>
        <time>2020-08-11T13:03:49.285Z</time>
      </trkpt>
      <trkpt lat="64.82543" lon="11.5885">
        <ele>47.88651</ele>
        <time>2020-08-11T13:03:52.292Z</time>
      </trkpt>
      <trkpt lat="64.82542" lon="11.58818">
        <ele>47.481935</ele>
        <time>2020-08-11T13:03:55.271Z</time>
      </trkpt>
      <trkpt lat="64.82541" lon="11.58794">
        <ele>47.184895</ele>
        <time>2020-08-11T13:03:57.271Z</time>
      </trkpt>
      <trkpt lat="64.8254" lon="11.58772">
        <ele>46.901998</ele>
        <time>2020-08-11T13:03:59.284Z</time>
      </trkpt>
      <trkpt lat="64.82539" lon="11.58749">
        <ele>46.62222</ele>
        <time>2020-08-11T13:04:01.309Z</time>
      </trkpt>
      <trkpt lat="64.82537" lon="11.58728">
        <ele>46.344781</ele>
        <time>2020-08-11T13:04:03.301Z</time>
      </trkpt>
      <trkpt lat="64.82536" lon="11.58706">
        <ele>46.068025</ele>
        <time>2020-08-11T13:04:05.278Z</time>
      </trkpt>
      <trkpt lat="64.82534" lon="11.58683">
        <ele>45.770353</ele>
        <time>2020-08-11T13:04:07.277Z</time>
      </trkpt>
      <trkpt lat="64.82532" lon="11.58658">
        <ele>45.460907</ele>
        <time>2020-08-11T13:04:09.276Z</time>
      </trkpt>
      <trkpt lat="64.82531" lon="11.58633">
        <ele>45.147215</ele>
        <time>2020-08-11T13:04:11.275Z</time>
      </trkpt>
      <trkpt lat="64.8253" lon="11.58608">
        <ele>44.831899</ele>
        <time>2020-08-11T13:04:13.299Z</time>
      </trkpt>
      <trkpt lat="64.8253" lon="11.58582">
        <ele>44.509971</ele>
        <time>2020-08-11T13:04:15.273Z</time>
      </trkpt>
      <trkpt lat="64.82529" lon="11.58556">
        <ele>44.181348</ele>
        <time>2020-08-11T13:04:17.296Z</time>
      </trkpt>
      <trkpt lat="64.82527" lon="11.58531">
        <ele>43.864456</ele>
        <time>2020-08-11T13:04:19.280Z</time>
      </trkpt>
      <trkpt lat="64.82526" lon="11.58506">
        <ele>43.545082</ele>
        <time>2020-08-11T13:04:21.280Z</time>
      </trkpt>
      <trkpt lat="64.82524" lon="11.58481">
        <ele>43.221826</ele>
        <time>2020-08-11T13:04:23.295Z</time>
      </trkpt>
      <trkpt lat="64.82522" lon="11.58455">
        <ele>43.042309</ele>
        <time>2020-08-11T13:04:25.268Z</time>
      </trkpt>
      <trkpt lat="64.82519" lon="11.58429">
        <ele>43.098867</ele>
        <time>2020-08-11T13:04:27.304Z</time>
      </trkpt>
      <trkpt lat="64.82517" lon="11.58404">
        <ele>43.155313</ele>
        <time>2020-08-11T13:04:29.300Z</time>
      </trkpt>
      <trkpt lat="64.82515" lon="11.58379">
        <ele>43.211443</ele>
        <time>2020-08-11T13:04:31.279Z</time>
      </trkpt>
      <trkpt lat="64.82513" lon="11.58353">
        <ele>43.268245</ele>
        <time>2020-08-11T13:04:33.268Z</time>
      </trkpt>
      <trkpt lat="64.82511" lon="11.58327">
        <ele>43.325609</ele>
        <time>2020-08-11T13:04:35.294Z</time>
      </trkpt>
      <trkpt lat="64.8251" lon="11.58301">
        <ele>43.383108</ele>
        <time>2020-08-11T13:04:37.276Z</time>
      </trkpt>
      <trkpt lat="64.82508" lon="11.58276">
        <ele>43.438711</ele>
        <time>2020-08-11T13:04:39.282Z</time>
      </trkpt>
      <trkpt lat="64.82505" lon="11.58252">
        <ele>43.493126</ele>
        <time>2020-08-11T13:04:41.291Z</time>
      </trkpt>
      <trkpt lat="64.82503" lon="11.58231">
        <ele>43.54129</ele>
        <time>2020-08-11T13:04:43.274Z</time>
      </trkpt>
      <trkpt lat="64.82499" lon="11.58202">
        <ele>43.607409</ele>
        <time>2020-08-11T13:04:46.299Z</time>
      </trkpt>
      <trkpt lat="64.82496" lon="11.58175">
        <ele>43.667139</ele>
        <time>2020-08-11T13:04:49.273Z</time>
      </trkpt>
      <trkpt lat="64.82493" lon="11.58151">
        <ele>43.724585</ele>
        <time>2020-08-11T13:04:52.295Z</time>
      </trkpt>
      <trkpt lat="64.82489" lon="11.58127">
        <ele>43.779358</ele>
        <time>2020-08-11T13:04:55.289Z</time>
      </trkpt>
      <trkpt lat="64.82486" lon="11.58105">
        <ele>43.830898</ele>
        <time>2020-08-11T13:04:58.296Z</time>
      </trkpt>
      <trkpt lat="64.82483" lon="11.58083">
        <ele>43.880528</ele>
        <time>2020-08-11T13:05:01.300Z</time>
      </trkpt>
      <trkpt lat="64.8248" lon="11.58062">
        <ele>43.928876</ele>
        <time>2020-08-11T13:05:04.290Z</time>
      </trkpt>
      <trkpt lat="64.82476" lon="11.58036">
        <ele>44.027715</ele>
        <time>2020-08-11T13:05:08.295Z</time>
      </trkpt>
      <trkpt lat="64.82471" lon="11.58015">
        <ele>44.121593</ele>
        <time>2020-08-11T13:05:11.269Z</time>
      </trkpt>
      <trkpt lat="64.82468" lon="11.57992">
        <ele>44.218531</ele>
        <time>2020-08-11T13:05:14.291Z</time>
      </trkpt>
      <trkpt lat="64.82464" lon="11.57969">
        <ele>44.317543</ele>
        <time>2020-08-11T13:05:17.261Z</time>
      </trkpt>
      <trkpt lat="64.8246" lon="11.57945">
        <ele>44.421029</ele>
        <time>2020-08-11T13:05:20.272Z</time>
      </trkpt>
      <trkpt lat="64.82456" lon="11.57918">
        <ele>44.53683</ele>
        <time>2020-08-11T13:05:23.312Z</time>
      </trkpt>
      <trkpt lat="64.82451" lon="11.57889">
        <ele>44.663968</ele>
        <time>2020-08-11T13:05:26.313Z</time>
      </trkpt>
      <trkpt lat="64.82447" lon="11.5787">
        <ele>44.749975</ele>
        <time>2020-08-11T13:05:28.332Z</time>
      </trkpt>
      <trkpt lat="64.82444" lon="11.5785">
        <ele>44.835599</ele>
        <time>2020-08-11T13:05:30.288Z</time>
      </trkpt>
      <trkpt lat="64.82441" lon="11.57828">
        <ele>44.92783</ele>
        <time>2020-08-11T13:05:32.284Z</time>
      </trkpt>
      <trkpt lat="64.82438" lon="11.57805">
        <ele>45.023963</ele>
        <time>2020-08-11T13:05:34.287Z</time>
      </trkpt>
      <trkpt lat="64.82435" lon="11.57781">
        <ele>45.126713</ele>
        <time>2020-08-11T13:05:36.278Z</time>
      </trkpt>
      <trkpt lat="64.82431" lon="11.57756">
        <ele>45.233306</ele>
        <time>2020-08-11T13:05:38.270Z</time>
      </trkpt>
      <trkpt lat="64.82427" lon="11.5773">
        <ele>45.345433</ele>
        <time>2020-08-11T13:05:40.312Z</time>
      </trkpt>
      <trkpt lat="64.82424" lon="11.57704">
        <ele>45.454965</ele>
        <time>2020-08-11T13:05:42.280Z</time>
      </trkpt>
      <trkpt lat="64.8242" lon="11.57679">
        <ele>45.56233</ele>
        <time>2020-08-11T13:05:44.300Z</time>
      </trkpt>
      <trkpt lat="64.82417" lon="11.57654">
        <ele>45.637578</ele>
        <time>2020-08-11T13:05:46.280Z</time>
      </trkpt>
      <trkpt lat="64.82413" lon="11.57629">
        <ele>45.586319</ele>
        <time>2020-08-11T13:05:48.273Z</time>
      </trkpt>
      <trkpt lat="64.8241" lon="11.57605">
        <ele>45.53638</ele>
        <time>2020-08-11T13:05:50.296Z</time>
      </trkpt>
      <trkpt lat="64.82407" lon="11.57582">
        <ele>45.488963</ele>
        <time>2020-08-11T13:05:52.288Z</time>
      </trkpt>
      <trkpt lat="64.82404" lon="11.57559">
        <ele>45.442619</ele>
        <time>2020-08-11T13:05:54.276Z</time>
      </trkpt>
      <trkpt lat="64.82401" lon="11.57536">
        <ele>45.396407</ele>
        <time>2020-08-11T13:05:56.272Z</time>
      </trkpt>
      <trkpt lat="64.82399" lon="11.57513">
        <ele>45.349565</ele>
        <time>2020-08-11T13:05:58.272Z</time>
      </trkpt>
      <trkpt lat="64.82396" lon="11.57491">
        <ele>45.303785</ele>
        <time>2020-08-11T13:06:00.276Z</time>
      </trkpt>
      <trkpt lat="64.82393" lon="11.57469">
        <ele>45.258644</ele>
        <time>2020-08-11T13:06:02.269Z</time>
      </trkpt>
      <trkpt lat="64.82391" lon="11.57447">
        <ele>45.214739</ele>
        <time>2020-08-11T13:06:04.280Z</time>
      </trkpt>
      <trkpt lat="64.82388" lon="11.57426">
        <ele>45.17129</ele>
        <time>2020-08-11T13:06:06.288Z</time>
      </trkpt>
      <trkpt lat="64.82385" lon="11.57405">
        <ele>45.127312</ele>
        <time>2020-08-11T13:06:08.282Z</time>
      </trkpt>
      <trkpt lat="64.82383" lon="11.57384">
        <ele>45.083808</ele>
        <time>2020-08-11T13:06:10.298Z</time>
      </trkpt>
      <trkpt lat="64.8238" lon="11.57362">
        <ele>45.039945</ele>
        <time>2020-08-11T13:06:12.273Z</time>
      </trkpt>
      <trkpt lat="64.82377" lon="11.57342">
        <ele>44.996676</ele>
        <time>2020-08-11T13:06:14.265Z</time>
      </trkpt>
      <trkpt lat="64.82372" lon="11.57312">
        <ele>44.935334</ele>
        <time>2020-08-11T13:06:17.311Z</time>
      </trkpt>
      <trkpt lat="64.82369" lon="11.57292">
        <ele>44.893336</ele>
        <time>2020-08-11T13:06:19.280Z</time>
      </trkpt>
      <trkpt lat="64.82366" lon="11.57263">
        <ele>44.835774</ele>
        <time>2020-08-11T13:06:22.291Z</time>
      </trkpt>
      <trkpt lat="64.82363" lon="11.57236">
        <ele>45.175215</ele>
        <time>2020-08-11T13:06:25.281Z</time>
      </trkpt>
      <trkpt lat="64.8236" lon="11.5721">
        <ele>45.679773</ele>
        <time>2020-08-11T13:06:28.312Z</time>
      </trkpt>
      <trkpt lat="64.82356" lon="11.57183">
        <ele>46.215922</ele>
        <time>2020-08-11T13:06:31.284Z</time>
      </trkpt>
      <trkpt lat="64.82352" lon="11.57155">
        <ele>46.754907</ele>
        <time>2020-08-11T13:06:34.284Z</time>
      </trkpt>
      <trkpt lat="64.82348" lon="11.5713">
        <ele>47.278091</ele>
        <time>2020-08-11T13:06:37.278Z</time>
      </trkpt>
      <trkpt lat="64.82345" lon="11.57105">
        <ele>47.7572</ele>
        <time>2020-08-11T13:06:40.274Z</time>
      </trkpt>
      <trkpt lat="64.82342" lon="11.57081">
        <ele>48.22838</ele>
        <time>2020-08-11T13:06:43.282Z</time>
      </trkpt>
      <trkpt lat="64.82339" lon="11.57058">
        <ele>48.680858</ele>
        <time>2020-08-11T13:06:46.275Z</time>
      </trkpt>
      <trkpt lat="64.82338" lon="11.57034">
        <ele>49.123724</ele>
        <time>2020-08-11T13:06:49.288Z</time>
      </trkpt>
      <trkpt lat="64.82335" lon="11.57011">
        <ele>49.588271</ele>
        <time>2020-08-11T13:06:52.261Z</time>
      </trkpt>
      <trkpt lat="64.82332" lon="11.5699">
        <ele>49.995652</ele>
        <time>2020-08-11T13:06:55.296Z</time>
      </trkpt>
      <trkpt lat="64.82329" lon="11.56969">
        <ele>50.398897</ele>
        <time>2020-08-11T13:06:58.280Z</time>
      </trkpt>
      <trkpt lat="64.82327" lon="11.56948">
        <ele>50.824942</ele>
        <time>2020-08-11T13:07:01.289Z</time>
      </trkpt>
      <trkpt lat="64.82324" lon="11.56921">
        <ele>51.330023</ele>
        <time>2020-08-11T13:07:05.299Z</time>
      </trkpt>
      <trkpt lat="64.8232" lon="11.56896">
        <ele>51.823881</ele>
        <time>2020-08-11T13:07:09.301Z</time>
      </trkpt>
      <trkpt lat="64.82318" lon="11.56875">
        <ele>52.249928</ele>
        <time>2020-08-11T13:07:13.283Z</time>
      </trkpt>
      <trkpt lat="64.82314" lon="11.56854">
        <ele>52.670004</ele>
        <time>2020-08-11T13:07:17.283Z</time>
      </trkpt>
      <trkpt lat="64.82313" lon="11.56829">
        <ele>52.89281</ele>
        <time>2020-08-11T13:07:21.282Z</time>
      </trkpt>
      <trkpt lat="64.82311" lon="11.56808">
        <ele>53.048928</ele>
        <time>2020-08-11T13:07:25.295Z</time>
      </trkpt>
      <trkpt lat="64.82308" lon="11.56788">
        <ele>53.199923</ele>
        <time>2020-08-11T13:07:29.314Z</time>
      </trkpt>
      <trkpt lat="64.82306" lon="11.56763">
        <ele>53.378297</ele>
        <time>2020-08-11T13:07:33.280Z</time>
      </trkpt>
      <trkpt lat="64.82304" lon="11.56739">
        <ele>53.547234</ele>
        <time>2020-08-11T13:07:37.288Z</time>
      </trkpt>
      <trkpt lat="64.82301" lon="11.56717">
        <ele>53.714783</ele>
        <time>2020-08-11T13:07:41.274Z</time>
      </trkpt>
      <trkpt lat="64.82298" lon="11.56697">
        <ele>53.867014</ele>
        <time>2020-08-11T13:07:45.289Z</time>
      </trkpt>
      <trkpt lat="64.82294" lon="11.56674">
        <ele>54.039953</ele>
        <time>2020-08-11T13:07:50.269Z</time>
      </trkpt>
      <trkpt lat="64.8229" lon="11.56651">
        <ele>54.209064</ele>
        <time>2020-08-11T13:07:55.319Z</time>
      </trkpt>
      <trkpt lat="64.82287" lon="11.5663">
        <ele>54.374877</ele>
        <time>2020-08-11T13:08:00.276Z</time>
      </trkpt>
      <trkpt lat="64.82283" lon="11.56608">
        <ele>54.539955</ele>
        <time>2020-08-11T13:08:05.284Z</time>
      </trkpt>
      <trkpt lat="64.8228" lon="11.56582">
        <ele>54.729371</ele>
        <time>2020-08-11T13:08:10.306Z</time>
      </trkpt>
      <trkpt lat="64.82278" lon="11.56561">
        <ele>54.87757</ele>
        <time>2020-08-11T13:08:14.296Z</time>
      </trkpt>
      <trkpt lat="64.82276" lon="11.56539">
        <ele>55.038602</ele>
        <time>2020-08-11T13:08:18.269Z</time>
      </trkpt>
      <trkpt lat="64.82273" lon="11.56517">
        <ele>55.201264</ele>
        <time>2020-08-11T13:08:22.300Z</time>
      </trkpt>
      <trkpt lat="64.82271" lon="11.56496">
        <ele>55.355574</ele>
        <time>2020-08-11T13:08:26.277Z</time>
      </trkpt>
      <trkpt lat="64.82269" lon="11.56475">
        <ele>55.510775</ele>
        <time>2020-08-11T13:08:30.287Z</time>
      </trkpt>
      <trkpt lat="64.82266" lon="11.56454">
        <ele>55.660313</ele>
        <time>2020-08-11T13:08:34.283Z</time>
      </trkpt>
      <trkpt lat="64.82263" lon="11.56432">
        <ele>55.717457</ele>
        <time>2020-08-11T13:08:38.329Z</time>
      </trkpt>
      <trkpt lat="64.8226" lon="11.5641">
        <ele>55.683294</ele>
        <time>2020-08-11T13:08:42.333Z</time>
      </trkpt>
      <trkpt lat="64.82257" lon="11.5639">
        <ele>55.652614</ele>
        <time>2020-08-11T13:08:46.281Z</time>
      </trkpt>
      <trkpt lat="64.82251" lon="11.56368">
        <ele>55.616207</ele>
        <time>2020-08-11T13:08:50.276Z</time>
      </trkpt>
      <trkpt lat="64.82247" lon="11.56345">
        <ele>55.579407</ele>
        <time>2020-08-11T13:08:54.274Z</time>
      </trkpt>
      <trkpt lat="64.82241" lon="11.5632">
        <ele>55.538894</ele>
        <time>2020-08-11T13:08:58.313Z</time>
      </trkpt>
      <trkpt lat="64.82238" lon="11.56301">
        <ele>55.507871</ele>
        <time>2020-08-11T13:09:01.289Z</time>
      </trkpt>
      <trkpt lat="64.82232" lon="11.56278">
        <ele>55.469314</ele>
        <time>2020-08-11T13:09:05.274Z</time>
      </trkpt>
      <trkpt lat="64.82228" lon="11.56257">
        <ele>55.436686</ele>
        <time>2020-08-11T13:09:08.268Z</time>
      </trkpt>
      <trkpt lat="64.82224" lon="11.56236">
        <ele>55.403515</ele>
        <time>2020-08-11T13:09:11.309Z</time>
      </trkpt>
      <trkpt lat="64.8222" lon="11.56217">
        <ele>55.37082</ele>
        <time>2020-08-11T13:09:14.271Z</time>
      </trkpt>
      <trkpt lat="64.82215" lon="11.56198">
        <ele>55.340104</ele>
        <time>2020-08-11T13:09:17.292Z</time>
      </trkpt>
      <trkpt lat="64.8221" lon="11.56175">
        <ele>55.302183</ele>
        <time>2020-08-11T13:09:21.282Z</time>
      </trkpt>
      <trkpt lat="64.82204" lon="11.56154">
        <ele>55.264452</ele>
        <time>2020-08-11T13:09:25.286Z</time>
      </trkpt>
      <trkpt lat="64.82199" lon="11.56131">
        <ele>55.227332</ele>
        <time>2020-08-11T13:09:29.284Z</time>
      </trkpt>
      <trkpt lat="64.82193" lon="11.56109">
        <ele>55.190027</ele>
        <time>2020-08-11T13:09:33.310Z</time>
      </trkpt>
      <trkpt lat="64.82189" lon="11.56086">
        <ele>55.153247</ele>
        <time>2020-08-11T13:09:37.277Z</time>
      </trkpt>
      <trkpt lat="64.82184" lon="11.56062">
        <ele>55.242077</ele>
        <time>2020-08-11T13:09:41.267Z</time>
      </trkpt>
      <trkpt lat="64.82179" lon="11.56037">
        <ele>55.898881</ele>
        <time>2020-08-11T13:09:45.296Z</time>
      </trkpt>
      <trkpt lat="64.82174" lon="11.56014">
        <ele>56.501916</ele>
        <time>2020-08-11T13:09:49.284Z</time>
      </trkpt>
      <trkpt lat="64.8217" lon="11.55993">
        <ele>57.0501</ele>
        <time>2020-08-11T13:09:53.265Z</time>
      </trkpt>
      <trkpt lat="64.82167" lon="11.55973">
        <ele>57.551675</ele>
        <time>2020-08-11T13:09:57.291Z</time>
      </trkpt>
      <trkpt lat="64.82163" lon="11.5595">
        <ele>58.136794</ele>
        <time>2020-08-11T13:10:02.275Z</time>
      </trkpt>
      <trkpt lat="64.82159" lon="11.55928">
        <ele>58.702189</ele>
        <time>2020-08-11T13:10:07.318Z</time>
      </trkpt>
      <trkpt lat="64.82157" lon="11.55906">
        <ele>59.244891</ele>
        <time>2020-08-11T13:10:12.296Z</time>
      </trkpt>
      <trkpt lat="64.82156" lon="11.55885">
        <ele>59.749755</ele>
        <time>2020-08-11T13:10:16.271Z</time>
      </trkpt>
      <trkpt lat="64.82155" lon="11.55863">
        <ele>60.250893</ele>
        <time>2020-08-11T13:10:20.295Z</time>
      </trkpt>
      <trkpt lat="64.82153" lon="11.55838">
        <ele>60.85105</ele>
        <time>2020-08-11T13:10:25.278Z</time>
      </trkpt>
      <trkpt lat="64.8215" lon="11.55816">
        <ele>61.408276</ele>
        <time>2020-08-11T13:10:30.269Z</time>
      </trkpt>
      <trkpt lat="64.82147" lon="11.55793">
        <ele>61.99086</ele>
        <time>2020-08-11T13:10:36.281Z</time>
      </trkpt>
      <trkpt lat="64.82145" lon="11.55771">
        <ele>62.520195</ele>
        <time>2020-08-11T13:10:42.280Z</time>
      </trkpt>
      <trkpt lat="64.82144" lon="11.55747">
        <ele>63.070261</ele>
        <time>2020-08-11T13:10:47.309Z</time>
      </trkpt>
      <trkpt lat="64.82144" lon="11.55726">
        <ele>63.583352</ele>
        <time>2020-08-11T13:10:52.271Z</time>
      </trkpt>
      <trkpt lat="64.82142" lon="11.55705">
        <ele>64.091918</ele>
        <time>2020-08-11T13:10:57.288Z</time>
      </trkpt>
      <trkpt lat="64.82142" lon="11.55682">
        <ele>64.638275</ele>
        <time>2020-08-11T13:11:02.332Z</time>
      </trkpt>
      <trkpt lat="64.82141" lon="11.5566">
        <ele>65.114326</ele>
        <time>2020-08-11T13:11:07.281Z</time>
      </trkpt>
      <trkpt lat="64.82141" lon="11.55636">
        <ele>65.133071</ele>
        <time>2020-08-11T13:11:13.284Z</time>
      </trkpt>
      <trkpt lat="64.8214" lon="11.55613">
        <ele>65.15094</ele>
        <time>2020-08-11T13:11:19.271Z</time>
      </trkpt>
      <trkpt lat="64.82141" lon="11.55592">
        <ele>65.168</ele>
        <time>2020-08-11T13:11:24.279Z</time>
      </trkpt>
      <trkpt lat="64.82142" lon="11.55566">
        <ele>65.187693</ele>
        <time>2020-08-11T13:11:29.304Z</time>
      </trkpt>
      <trkpt lat="64.82143" lon="11.55544">
        <ele>65.204882</ele>
        <time>2020-08-11T13:11:34.335Z</time>
      </trkpt>
      <trkpt lat="64.82144" lon="11.55522">
        <ele>65.222175</ele>
        <time>2020-08-11T13:11:39.303Z</time>
      </trkpt>
      <trkpt lat="64.82145" lon="11.55498">
        <ele>65.241442</ele>
        <time>2020-08-11T13:11:44.296Z</time>
      </trkpt>
      <trkpt lat="64.82145" lon="11.55474">
        <ele>65.259857</ele>
        <time>2020-08-11T13:11:49.280Z</time>
      </trkpt>
      <trkpt lat="64.82147" lon="11.55449">
        <ele>65.279934</ele>
        <time>2020-08-11T13:11:54.309Z</time>
      </trkpt>
      <trkpt lat="64.82147" lon="11.55427">
        <ele>65.296733</ele>
        <time>2020-08-11T13:11:58.275Z</time>
      </trkpt>
      <trkpt lat="64.82149" lon="11.55405">
        <ele>65.314546</ele>
        <time>2020-08-11T13:12:02.283Z</time>
      </trkpt>
      <trkpt lat="64.82148" lon="11.5538">
        <ele>65.333885</ele>
        <time>2020-08-11T13:12:07.281Z</time>
      </trkpt>
      <trkpt lat="64.82149" lon="11.55357">
        <ele>65.351608</ele>
        <time>2020-08-11T13:12:11.288Z</time>
      </trkpt>
      <trkpt lat="64.8215" lon="11.55334">
        <ele>65.370007</ele>
        <time>2020-08-11T13:12:15.291Z</time>
      </trkpt>
      <trkpt lat="64.82152" lon="11.55311">
        <ele>65.388241</ele>
        <time>2020-08-11T13:12:19.270Z</time>
      </trkpt>
      <trkpt lat="64.82153" lon="11.55286">
        <ele>65.407216</ele>
        <time>2020-08-11T13:12:23.289Z</time>
      </trkpt>
      <trkpt lat="64.82155" lon="11.55261">
        <ele>65.427032</ele>
        <time>2020-08-11T13:12:27.316Z</time>
      </trkpt>
      <trkpt lat="64.82156" lon="11.55236">
        <ele>65.469547</ele>
        <time>2020-08-11T13:12:31.279Z</time>
      </trkpt>
      <trkpt lat="64.82155" lon="11.5521">
        <ele>65.600844</ele>
        <time>2020-08-11T13:12:35.274Z</time>
      </trkpt>
      <trkpt lat="64.82156" lon="11.55184">
        <ele>65.731389</ele>
        <time>2020-08-11T13:12:39.275Z</time>
      </trkpt>
      <trkpt lat="64.82157" lon="11.55157">
        <ele>65.871719</ele>
        <time>2020-08-11T13:12:43.279Z</time>
      </trkpt>
      <trkpt lat="64.82159" lon="11.5513">
        <ele>66.007988</ele>
        <time>2020-08-11T13:12:47.294Z</time>
      </trkpt>
      <trkpt lat="64.82159" lon="11.55104">
        <ele>66.137309</ele>
        <time>2020-08-11T13:12:51.287Z</time>
      </trkpt>
      <trkpt lat="64.82159" lon="11.5508">
        <ele>66.26</ele>
        <time>2020-08-11T13:12:55.280Z</time>
      </trkpt>
      <trkpt lat="64.82158" lon="11.55056">
        <ele>66.384688</ele>
        <time>2020-08-11T13:12:59.286Z</time>
      </trkpt>
      <trkpt lat="64.82158" lon="11.55029">
        <ele>66.518959</ele>
        <time>2020-08-11T13:13:03.281Z</time>
      </trkpt>
      <trkpt lat="64.82156" lon="11.55003">
        <ele>66.65296</ele>
        <time>2020-08-11T13:13:07.335Z</time>
      </trkpt>
      <trkpt lat="64.82155" lon="11.54981">
        <ele>66.767837</ele>
        <time>2020-08-11T13:13:10.275Z</time>
      </trkpt>
      <trkpt lat="64.82153" lon="11.54956">
        <ele>66.892733</ele>
        <time>2020-08-11T13:13:13.278Z</time>
      </trkpt>
      <trkpt lat="64.82152" lon="11.54932">
        <ele>67.017168</ele>
        <time>2020-08-11T13:13:16.289Z</time>
      </trkpt>
      <trkpt lat="64.8215" lon="11.54906">
        <ele>67.149526</ele>
        <time>2020-08-11T13:13:19.267Z</time>
      </trkpt>
      <trkpt lat="64.82147" lon="11.54881">
        <ele>67.281607</ele>
        <time>2020-08-11T13:13:22.291Z</time>
      </trkpt>
      <trkpt lat="64.82144" lon="11.54853">
        <ele>67.429939</ele>
        <time>2020-08-11T13:13:25.267Z</time>
      </trkpt>
      <trkpt lat="64.82141" lon="11.54824">
        <ele>67.579457</ele>
        <time>2020-08-11T13:13:28.276Z</time>
      </trkpt>
      <trkpt lat="64.82138" lon="11.54802">
        <ele>67.378069</ele>
        <time>2020-08-11T13:13:30.326Z</time>
      </trkpt>
      <trkpt lat="64.82135" lon="11.54779">
        <ele>67.147108</ele>
        <time>2020-08-11T13:13:32.318Z</time>
      </trkpt>
      <trkpt lat="64.82131" lon="11.54755">
        <ele>66.907633</ele>
        <time>2020-08-11T13:13:34.284Z</time>
      </trkpt>
      <trkpt lat="64.82127" lon="11.54731">
        <ele>66.66128</ele>
        <time>2020-08-11T13:13:36.285Z</time>
      </trkpt>
      <trkpt lat="64.82123" lon="11.54706">
        <ele>66.401168</ele>
        <time>2020-08-11T13:13:38.279Z</time>
      </trkpt>
      <trkpt lat="64.82118" lon="11.54679">
        <ele>66.129694</ele>
        <time>2020-08-11T13:13:40.293Z</time>
      </trkpt>
      <trkpt lat="64.82113" lon="11.54655">
        <ele>65.870322</ele>
        <time>2020-08-11T13:13:42.280Z</time>
      </trkpt>
      <trkpt lat="64.82108" lon="11.5463">
        <ele>65.610071</ele>
        <time>2020-08-11T13:13:44.304Z</time>
      </trkpt>
      <trkpt lat="64.82102" lon="11.54607">
        <ele>65.349287</ele>
        <time>2020-08-11T13:13:46.328Z</time>
      </trkpt>
      <trkpt lat="64.82095" lon="11.54582">
        <ele>65.080514</ele>
        <time>2020-08-11T13:13:48.293Z</time>
      </trkpt>
      <trkpt lat="64.82089" lon="11.54559">
        <ele>64.81264</ele>
        <time>2020-08-11T13:13:50.270Z</time>
      </trkpt>
      <trkpt lat="64.82082" lon="11.54534">
        <ele>64.539557</ele>
        <time>2020-08-11T13:13:52.295Z</time>
      </trkpt>
      <trkpt lat="64.82076" lon="11.54509">
        <ele>64.260829</ele>
        <time>2020-08-11T13:13:54.277Z</time>
      </trkpt>
      <trkpt lat="64.82069" lon="11.54486">
        <ele>63.998549</ele>
        <time>2020-08-11T13:13:56.262Z</time>
      </trkpt>
      <trkpt lat="64.82063" lon="11.54463">
        <ele>63.736268</ele>
        <time>2020-08-11T13:13:58.271Z</time>
      </trkpt>
      <trkpt lat="64.82057" lon="11.54441">
        <ele>63.44165</ele>
        <time>2020-08-11T13:14:00.295Z</time>
      </trkpt>
      <trkpt lat="64.8205" lon="11.54419">
        <ele>63.079407</ele>
        <time>2020-08-11T13:14:02.267Z</time>
      </trkpt>
      <trkpt lat="64.82044" lon="11.54397">
        <ele>62.710436</ele>
        <time>2020-08-11T13:14:04.293Z</time>
      </trkpt>
      <trkpt lat="64.82037" lon="11.54373">
        <ele>62.327183</ele>
        <time>2020-08-11T13:14:06.277Z</time>
      </trkpt>
      <trkpt lat="64.82031" lon="11.54348">
        <ele>61.933011</ele>
        <time>2020-08-11T13:14:08.274Z</time>
      </trkpt>
      <trkpt lat="64.82025" lon="11.54324">
        <ele>61.558915</ele>
        <time>2020-08-11T13:14:10.308Z</time>
      </trkpt>
      <trkpt lat="64.82019" lon="11.54299">
        <ele>61.160386</ele>
        <time>2020-08-11T13:14:12.278Z</time>
      </trkpt>
      <trkpt lat="64.82014" lon="11.54274">
        <ele>60.780845</ele>
        <time>2020-08-11T13:14:14.284Z</time>
      </trkpt>
      <trkpt lat="64.82009" lon="11.54248">
        <ele>60.398981</ele>
        <time>2020-08-11T13:14:16.284Z</time>
      </trkpt>
      <trkpt lat="64.82005" lon="11.54222">
        <ele>60.014395</ele>
        <time>2020-08-11T13:14:18.297Z</time>
      </trkpt>
      <trkpt lat="64.82001" lon="11.54197">
        <ele>59.646377</ele>
        <time>2020-08-11T13:14:20.268Z</time>
      </trkpt>
      <trkpt lat="64.81996" lon="11.54173">
        <ele>59.292121</ele>
        <time>2020-08-11T13:14:22.284Z</time>
      </trkpt>
      <trkpt lat="64.81992" lon="11.5415">
        <ele>58.950088</ele>
        <time>2020-08-11T13:14:24.314Z</time>
      </trkpt>
      <trkpt lat="64.81988" lon="11.54126">
        <ele>58.60206</ele>
        <time>2020-08-11T13:14:26.310Z</time>
      </trkpt>
      <trkpt lat="64.81985" lon="11.54103">
        <ele>58.263998</ele>
        <time>2020-08-11T13:14:28.269Z</time>
      </trkpt>
      <trkpt lat="64.81981" lon="11.54078">
        <ele>57.899052</ele>
        <time>2020-08-11T13:14:30.268Z</time>
      </trkpt>
      <trkpt lat="64.81977" lon="11.54051">
        <ele>57.58028</ele>
        <time>2020-08-11T13:14:32.270Z</time>
      </trkpt>
      <trkpt lat="64.81973" lon="11.54027">
        <ele>57.296575</ele>
        <time>2020-08-11T13:14:34.277Z</time>
      </trkpt>
      <trkpt lat="64.81969" lon="11.54002">
        <ele>57.010962</ele>
        <time>2020-08-11T13:14:36.264Z</time>
      </trkpt>
      <trkpt lat="64.81965" lon="11.53976">
        <ele>56.718626</ele>
        <time>2020-08-11T13:14:38.268Z</time>
      </trkpt>
      <trkpt lat="64.81961" lon="11.53949">
        <ele>56.418677</ele>
        <time>2020-08-11T13:14:40.303Z</time>
      </trkpt>
      <trkpt lat="64.81957" lon="11.53922">
        <ele>56.111982</ele>
        <time>2020-08-11T13:14:42.280Z</time>
      </trkpt>
      <trkpt lat="64.81953" lon="11.53894">
        <ele>55.797823</ele>
        <time>2020-08-11T13:14:44.272Z</time>
      </trkpt>
      <trkpt lat="64.8195" lon="11.53865">
        <ele>55.481837</ele>
        <time>2020-08-11T13:14:46.273Z</time>
      </trkpt>
      <trkpt lat="64.81946" lon="11.53838">
        <ele>55.169277</ele>
        <time>2020-08-11T13:14:48.320Z</time>
      </trkpt>
      <trkpt lat="64.81942" lon="11.53809">
        <ele>54.853996</ele>
        <time>2020-08-11T13:14:50.311Z</time>
      </trkpt>
      <trkpt lat="64.81938" lon="11.53781">
        <ele>54.533487</ele>
        <time>2020-08-11T13:14:52.295Z</time>
      </trkpt>
      <trkpt lat="64.81934" lon="11.53753">
        <ele>54.216907</ele>
        <time>2020-08-11T13:14:54.269Z</time>
      </trkpt>
      <trkpt lat="64.8193" lon="11.53725">
        <ele>53.902337</ele>
        <time>2020-08-11T13:14:56.284Z</time>
      </trkpt>
      <trkpt lat="64.81927" lon="11.53698">
        <ele>53.610304</ele>
        <time>2020-08-11T13:14:58.273Z</time>
      </trkpt>
      <trkpt lat="64.81923" lon="11.53673">
        <ele>53.320183</ele>
        <time>2020-08-11T13:15:00.269Z</time>
      </trkpt>
      <trkpt lat="64.81918" lon="11.53646">
        <ele>52.816781</ele>
        <time>2020-08-11T13:15:02.283Z</time>
      </trkpt>
      <trkpt lat="64.81914" lon="11.53618">
        <ele>52.291507</ele>
        <time>2020-08-11T13:15:04.296Z</time>
      </trkpt>
      <trkpt lat="64.8191" lon="11.53591">
        <ele>51.764454</ele>
        <time>2020-08-11T13:15:06.273Z</time>
      </trkpt>
      <trkpt lat="64.81906" lon="11.53562">
        <ele>51.208893</ele>
        <time>2020-08-11T13:15:08.290Z</time>
      </trkpt>
      <trkpt lat="64.81902" lon="11.53533">
        <ele>50.668906</ele>
        <time>2020-08-11T13:15:10.290Z</time>
      </trkpt>
      <trkpt lat="64.81898" lon="11.53503">
        <ele>50.104598</ele>
        <time>2020-08-11T13:15:12.282Z</time>
      </trkpt>
      <trkpt lat="64.81894" lon="11.53473">
        <ele>49.537516</ele>
        <time>2020-08-11T13:15:14.291Z</time>
      </trkpt>
      <trkpt lat="64.81891" lon="11.53444">
        <ele>48.991151</ele>
        <time>2020-08-11T13:15:16.280Z</time>
      </trkpt>
      <trkpt lat="64.81888" lon="11.53416">
        <ele>48.474717</ele>
        <time>2020-08-11T13:15:18.272Z</time>
      </trkpt>
      <trkpt lat="64.81886" lon="11.53389">
        <ele>47.982891</ele>
        <time>2020-08-11T13:15:20.311Z</time>
      </trkpt>
      <trkpt lat="64.81883" lon="11.53362">
        <ele>47.491908</ele>
        <time>2020-08-11T13:15:22.289Z</time>
      </trkpt>
      <trkpt lat="64.81881" lon="11.53335">
        <ele>46.998145</ele>
        <time>2020-08-11T13:15:24.281Z</time>
      </trkpt>
      <trkpt lat="64.81879" lon="11.53309">
        <ele>46.516477</ele>
        <time>2020-08-11T13:15:26.267Z</time>
      </trkpt>
      <trkpt lat="64.81877" lon="11.53283">
        <ele>46.045792</ele>
        <time>2020-08-11T13:15:28.274Z</time>
      </trkpt>
      <trkpt lat="64.81874" lon="11.53258">
        <ele>45.66506</ele>
        <time>2020-08-11T13:15:30.273Z</time>
      </trkpt>
      <trkpt lat="64.81872" lon="11.53233">
        <ele>45.557502</ele>
        <time>2020-08-11T13:15:32.280Z</time>
      </trkpt>
      <trkpt lat="64.8187" lon="11.53209">
        <ele>45.453941</ele>
        <time>2020-08-11T13:15:34.283Z</time>
      </trkpt>
      <trkpt lat="64.81869" lon="11.53186">
        <ele>45.35347</ele>
        <time>2020-08-11T13:15:36.299Z</time>
      </trkpt>
      <trkpt lat="64.81867" lon="11.53163">
        <ele>45.255244</ele>
        <time>2020-08-11T13:15:38.284Z</time>
      </trkpt>
      <trkpt lat="64.81866" lon="11.53141">
        <ele>45.162757</ele>
        <time>2020-08-11T13:15:40.316Z</time>
      </trkpt>
      <trkpt lat="64.81865" lon="11.5312">
        <ele>45.070692</ele>
        <time>2020-08-11T13:15:42.273Z</time>
      </trkpt>
      <trkpt lat="64.81865" lon="11.53098">
        <ele>44.978897</ele>
        <time>2020-08-11T13:15:44.298Z</time>
      </trkpt>
      <trkpt lat="64.81865" lon="11.53077">
        <ele>44.887183</ele>
        <time>2020-08-11T13:15:46.295Z</time>
      </trkpt>
      <trkpt lat="64.81864" lon="11.53055">
        <ele>44.794964</ele>
        <time>2020-08-11T13:15:48.303Z</time>
      </trkpt>
      <trkpt lat="64.81864" lon="11.53033">
        <ele>44.702831</ele>
        <time>2020-08-11T13:15:50.274Z</time>
      </trkpt>
      <trkpt lat="64.81864" lon="11.53012">
        <ele>44.612799</ele>
        <time>2020-08-11T13:15:52.278Z</time>
      </trkpt>
      <trkpt lat="64.81864" lon="11.52981">
        <ele>44.481602</ele>
        <time>2020-08-11T13:15:55.268Z</time>
      </trkpt>
      <trkpt lat="64.81864" lon="11.52952">
        <ele>44.358896</ele>
        <time>2020-08-11T13:15:58.274Z</time>
      </trkpt>
      <trkpt lat="64.81864" lon="11.52924">
        <ele>44.238213</ele>
        <time>2020-08-11T13:16:01.271Z</time>
      </trkpt>
      <trkpt lat="64.81865" lon="11.52896">
        <ele>44.120454</ele>
        <time>2020-08-11T13:16:04.290Z</time>
      </trkpt>
      <trkpt lat="64.81866" lon="11.52868">
        <ele>44.00149</ele>
        <time>2020-08-11T13:16:07.353Z</time>
      </trkpt>
      <trkpt lat="64.81868" lon="11.52841">
        <ele>43.9413</ele>
        <time>2020-08-11T13:16:10.295Z</time>
      </trkpt>
      <trkpt lat="64.81869" lon="11.52812">
        <ele>44.327629</ele>
        <time>2020-08-11T13:16:13.265Z</time>
      </trkpt>
      <trkpt lat="64.8187" lon="11.52786">
        <ele>44.696852</ele>
        <time>2020-08-11T13:16:16.278Z</time>
      </trkpt>
      <trkpt lat="64.81872" lon="11.52759">
        <ele>45.067433</ele>
        <time>2020-08-11T13:16:19.301Z</time>
      </trkpt>
      <trkpt lat="64.81873" lon="11.52732">
        <ele>45.442092</ele>
        <time>2020-08-11T13:16:22.299Z</time>
      </trkpt>
      <trkpt lat="64.81875" lon="11.52706">
        <ele>45.799536</ele>
        <time>2020-08-11T13:16:25.316Z</time>
      </trkpt>
      <trkpt lat="64.81876" lon="11.5268">
        <ele>46.160672</ele>
        <time>2020-08-11T13:16:28.292Z</time>
      </trkpt>
      <trkpt lat="64.81878" lon="11.52655">
        <ele>46.510986</ele>
        <time>2020-08-11T13:16:31.294Z</time>
      </trkpt>
      <trkpt lat="64.81881" lon="11.52631">
        <ele>46.852271</ele>
        <time>2020-08-11T13:16:34.268Z</time>
      </trkpt>
      <trkpt lat="64.81883" lon="11.52607">
        <ele>47.192606</ele>
        <time>2020-08-11T13:16:37.287Z</time>
      </trkpt>
      <trkpt lat="64.81886" lon="11.52584">
        <ele>47.509667</ele>
        <time>2020-08-11T13:16:40.263Z</time>
      </trkpt>
      <trkpt lat="64.81889" lon="11.52558">
        <ele>47.885131</ele>
        <time>2020-08-11T13:16:44.295Z</time>
      </trkpt>
      <trkpt lat="64.81892" lon="11.52531">
        <ele>48.267216</ele>
        <time>2020-08-11T13:16:48.273Z</time>
      </trkpt>
      <trkpt lat="64.81894" lon="11.5251">
        <ele>48.561051</ele>
        <time>2020-08-11T13:16:51.288Z</time>
      </trkpt>
      <trkpt lat="64.81897" lon="11.52484">
        <ele>48.927209</ele>
        <time>2020-08-11T13:16:55.302Z</time>
      </trkpt>
      <trkpt lat="64.819" lon="11.52459">
        <ele>49.286205</ele>
        <time>2020-08-11T13:16:59.264Z</time>
      </trkpt>
      <trkpt lat="64.81904" lon="11.52434">
        <ele>49.65297</ele>
        <time>2020-08-11T13:17:03.291Z</time>
      </trkpt>
      <trkpt lat="64.81908" lon="11.52409">
        <ele>49.751124</ele>
        <time>2020-08-11T13:17:07.275Z</time>
      </trkpt>
      <trkpt lat="64.81911" lon="11.52385">
        <ele>49.816158</ele>
        <time>2020-08-11T13:17:11.272Z</time>
      </trkpt>
      <trkpt lat="64.81913" lon="11.52364">
        <ele>49.870077</ele>
        <time>2020-08-11T13:17:14.292Z</time>
      </trkpt>
      <trkpt lat="64.81916" lon="11.52338">
        <ele>49.939346</ele>
        <time>2020-08-11T13:17:18.255Z</time>
      </trkpt>
      <trkpt lat="64.8192" lon="11.52319">
        <ele>49.992698</ele>
        <time>2020-08-11T13:17:21.297Z</time>
      </trkpt>
      <trkpt lat="64.81923" lon="11.52294">
        <ele>50.058459</ele>
        <time>2020-08-11T13:17:25.296Z</time>
      </trkpt>
      <trkpt lat="64.81927" lon="11.52269">
        <ele>50.125675</ele>
        <time>2020-08-11T13:17:29.299Z</time>
      </trkpt>
      <trkpt lat="64.8193" lon="11.52247">
        <ele>50.186021</ele>
        <time>2020-08-11T13:17:33.340Z</time>
      </trkpt>
      <trkpt lat="64.81932" lon="11.52225">
        <ele>50.243044</ele>
        <time>2020-08-11T13:17:37.306Z</time>
      </trkpt>
      <trkpt lat="64.81933" lon="11.52201">
        <ele>50.303097</ele>
        <time>2020-08-11T13:17:41.302Z</time>
      </trkpt>
      <trkpt lat="64.81935" lon="11.52178">
        <ele>50.36405</ele>
        <time>2020-08-11T13:17:45.284Z</time>
      </trkpt>
      <trkpt lat="64.81937" lon="11.52153">
        <ele>50.429319</ele>
        <time>2020-08-11T13:17:49.310Z</time>
      </trkpt>
      <trkpt lat="64.8194" lon="11.52127">
        <ele>50.496897</ele>
        <time>2020-08-11T13:17:53.301Z</time>
      </trkpt>
      <trkpt lat="64.81942" lon="11.52104">
        <ele>50.556033</ele>
        <time>2020-08-11T13:17:57.293Z</time>
      </trkpt>
      <trkpt lat="64.81944" lon="11.52079">
        <ele>50.62129</ele>
        <time>2020-08-11T13:18:01.270Z</time>
      </trkpt>
      <trkpt lat="64.81946" lon="11.52052">
        <ele>50.689551</ele>
        <time>2020-08-11T13:18:05.275Z</time>
      </trkpt>
      <trkpt lat="64.81947" lon="11.52027">
        <ele>50.753516</ele>
        <time>2020-08-11T13:18:09.269Z</time>
      </trkpt>
      <trkpt lat="64.81948" lon="11.52">
        <ele>50.868623</ele>
        <time>2020-08-11T13:18:13.301Z</time>
      </trkpt>
      <trkpt lat="64.81949" lon="11.51979">
        <ele>50.967791</ele>
        <time>2020-08-11T13:18:16.322Z</time>
      </trkpt>
      <trkpt lat="64.81949" lon="11.51953">
        <ele>51.089298</ele>
        <time>2020-08-11T13:18:20.328Z</time>
      </trkpt>
      <trkpt lat="64.81949" lon="11.51928">
        <ele>51.20691</ele>
        <time>2020-08-11T13:18:24.273Z</time>
      </trkpt>
      <trkpt lat="64.81949" lon="11.51902">
        <ele>51.328705</ele>
        <time>2020-08-11T13:18:28.266Z</time>
      </trkpt>
      <trkpt lat="64.81949" lon="11.51875">
        <ele>51.451972</ele>
        <time>2020-08-11T13:18:32.268Z</time>
      </trkpt>
      <trkpt lat="64.81949" lon="11.51849">
        <ele>51.571488</ele>
        <time>2020-08-11T13:18:36.272Z</time>
      </trkpt>
      <trkpt lat="64.81948" lon="11.51822">
        <ele>51.699345</ele>
        <time>2020-08-11T13:18:40.321Z</time>
      </trkpt>
      <trkpt lat="64.81949" lon="11.518">
        <ele>51.803292</ele>
        <time>2020-08-11T13:18:43.281Z</time>
      </trkpt>
      <trkpt lat="64.8195" lon="11.51776">
        <ele>51.910816</ele>
        <time>2020-08-11T13:18:46.271Z</time>
      </trkpt>
      <trkpt lat="64.81949" lon="11.51754">
        <ele>52.016544</ele>
        <time>2020-08-11T13:18:49.266Z</time>
      </trkpt>
      <trkpt lat="64.81949" lon="11.51731">
        <ele>52.121139</ele>
        <time>2020-08-11T13:18:52.311Z</time>
      </trkpt>
      <trkpt lat="64.81948" lon="11.51707">
        <ele>52.233364</ele>
        <time>2020-08-11T13:18:55.298Z</time>
      </trkpt>
      <trkpt lat="64.81949" lon="11.51682">
        <ele>52.350638</ele>
        <time>2020-08-11T13:18:58.273Z</time>
      </trkpt>
      <trkpt lat="64.8195" lon="11.51656">
        <ele>52.471745</ele>
        <time>2020-08-11T13:19:01.297Z</time>
      </trkpt>
      <trkpt lat="64.8195" lon="11.51632">
        <ele>52.583041</ele>
        <time>2020-08-11T13:19:04.292Z</time>
      </trkpt>
      <trkpt lat="64.8195" lon="11.51611">
        <ele>52.681599</ele>
        <time>2020-08-11T13:19:07.282Z</time>
      </trkpt>
      <trkpt lat="64.81951" lon="11.5159">
        <ele>52.97283</ele>
        <time>2020-08-11T13:19:10.292Z</time>
      </trkpt>
      <trkpt lat="64.81952" lon="11.51563">
        <ele>53.602549</ele>
        <time>2020-08-11T13:19:14.283Z</time>
      </trkpt>
      <trkpt lat="64.81953" lon="11.51535">
        <ele>54.230904</ele>
        <time>2020-08-11T13:19:18.273Z</time>
      </trkpt>
      <trkpt lat="64.81954" lon="11.51508">
        <ele>54.868791</ele>
        <time>2020-08-11T13:19:22.301Z</time>
      </trkpt>
      <trkpt lat="64.81955" lon="11.51481">
        <ele>55.497685</ele>
        <time>2020-08-11T13:19:26.320Z</time>
      </trkpt>
      <trkpt lat="64.81956" lon="11.5146">
        <ele>55.986562</ele>
        <time>2020-08-11T13:19:29.280Z</time>
      </trkpt>
      <trkpt lat="64.81959" lon="11.51434">
        <ele>56.60516</ele>
        <time>2020-08-11T13:19:33.299Z</time>
      </trkpt>
      <trkpt lat="64.8196" lon="11.51413">
        <ele>57.096515</ele>
        <time>2020-08-11T13:19:36.314Z</time>
      </trkpt>
      <trkpt lat="64.81963" lon="11.5139">
        <ele>57.635396</ele>
        <time>2020-08-11T13:19:40.259Z</time>
      </trkpt>
      <trkpt lat="64.81966" lon="11.51368">
        <ele>58.181609</ele>
        <time>2020-08-11T13:19:44.293Z</time>
      </trkpt>
      <trkpt lat="64.8197" lon="11.51344">
        <ele>58.762742</ele>
        <time>2020-08-11T13:19:48.279Z</time>
      </trkpt>
      <trkpt lat="64.81972" lon="11.51323">
        <ele>59.270719</ele>
        <time>2020-08-11T13:19:52.279Z</time>
      </trkpt>
      <trkpt lat="64.81974" lon="11.51302">
        <ele>59.759433</ele>
        <time>2020-08-11T13:19:56.293Z</time>
      </trkpt>
      <trkpt lat="64.81979" lon="11.51279">
        <ele>60.348126</ele>
        <time>2020-08-11T13:20:01.271Z</time>
      </trkpt>
      <trkpt lat="64.81981" lon="11.51256">
        <ele>60.894498</ele>
        <time>2020-08-11T13:20:06.257Z</time>
      </trkpt>
      <trkpt lat="64.81985" lon="11.51232">
        <ele>61.497749</ele>
        <time>2020-08-11T13:20:10.272Z</time>
      </trkpt>
      <trkpt lat="64.8199" lon="11.5121">
        <ele>62.079565</ele>
        <time>2020-08-11T13:20:14.279Z</time>
      </trkpt>
      <trkpt lat="64.81995" lon="11.51189">
        <ele>62.579566</ele>
        <time>2020-08-11T13:20:18.277Z</time>
      </trkpt>
      <trkpt lat="64.81999" lon="11.51171">
        <ele>62.937629</ele>
        <time>2020-08-11T13:20:22.313Z</time>
      </trkpt>
      <trkpt lat="64.82005" lon="11.51155">
        <ele>63.297243</ele>
        <time>2020-08-11T13:20:26.277Z</time>
      </trkpt>
      <trkpt lat="64.8201" lon="11.51136">
        <ele>63.660827</ele>
        <time>2020-08-11T13:20:31.271Z</time>
      </trkpt>
      <trkpt lat="64.82014" lon="11.51114">
        <ele>64.073422</ele>
        <time>2020-08-11T13:20:37.281Z</time>
      </trkpt>
      <trkpt lat="64.82018" lon="11.51093">
        <ele>64.461294</ele>
        <time>2020-08-11T13:20:43.289Z</time>
      </trkpt>
      <trkpt lat="64.82023" lon="11.51071">
        <ele>64.869051</ele>
        <time>2020-08-11T13:20:49.261Z</time>
      </trkpt>
      <trkpt lat="64.82027" lon="11.51051">
        <ele>65.259692</ele>
        <time>2020-08-11T13:20:54.262Z</time>
      </trkpt>
      <trkpt lat="64.82033" lon="11.51031">
        <ele>65.662585</ele>
        <time>2020-08-11T13:20:59.321Z</time>
      </trkpt>
      <trkpt lat="64.82038" lon="11.51013">
        <ele>66.024939</ele>
        <time>2020-08-11T13:21:04.296Z</time>
      </trkpt>
      <trkpt lat="64.82043" lon="11.50994">
        <ele>66.413535</ele>
        <time>2020-08-11T13:21:11.295Z</time>
      </trkpt>
      <trkpt lat="64.82048" lon="11.50974">
        <ele>66.804292</ele>
        <time>2020-08-11T13:21:18.321Z</time>
      </trkpt>
      <trkpt lat="64.82053" lon="11.50955">
        <ele>67.166403</ele>
        <time>2020-08-11T13:21:23.267Z</time>
      </trkpt>
      <trkpt lat="64.82058" lon="11.50935">
        <ele>67.550505</ele>
        <time>2020-08-11T13:21:29.273Z</time>
      </trkpt>
      <trkpt lat="64.82063" lon="11.50917">
        <ele>67.92403</ele>
        <time>2020-08-11T13:21:35.282Z</time>
      </trkpt>
      <trkpt lat="64.82069" lon="11.50899">
        <ele>68.30443</ele>
        <time>2020-08-11T13:21:41.271Z</time>
      </trkpt>
      <trkpt lat="64.82074" lon="11.50877">
        <ele>68.725659</ele>
        <time>2020-08-11T13:21:47.292Z</time>
      </trkpt>
      <trkpt lat="64.82079" lon="11.50859">
        <ele>69.086574</ele>
        <time>2020-08-11T13:21:53.281Z</time>
      </trkpt>
      <trkpt lat="64.82083" lon="11.50838">
        <ele>69.481689</ele>
        <time>2020-08-11T13:22:00.312Z</time>
      </trkpt>
      <trkpt lat="64.82088" lon="11.50818">
        <ele>69.770863</ele>
        <time>2020-08-11T13:22:06.276Z</time>
      </trkpt>
      <trkpt lat="64.82092" lon="11.50799">
        <ele>69.995562</ele>
        <time>2020-08-11T13:22:11.280Z</time>
      </trkpt>
      <trkpt lat="64.82096" lon="11.50779">
        <ele>70.231003</ele>
        <time>2020-08-11T13:22:17.264Z</time>
      </trkpt>
      <trkpt lat="64.82101" lon="11.5076">
        <ele>70.469299</ele>
        <time>2020-08-11T13:22:23.260Z</time>
      </trkpt>
      <trkpt lat="64.82107" lon="11.5074">
        <ele>70.716887</ele>
        <time>2020-08-11T13:22:29.272Z</time>
      </trkpt>
      <trkpt lat="64.82112" lon="11.50722">
        <ele>70.951678</ele>
        <time>2020-08-11T13:22:35.287Z</time>
      </trkpt>
      <trkpt lat="64.82116" lon="11.507">
        <ele>71.204634</ele>
        <time>2020-08-11T13:22:42.272Z</time>
      </trkpt>
      <trkpt lat="64.82122" lon="11.50682">
        <ele>71.445181</ele>
        <time>2020-08-11T13:22:48.282Z</time>
      </trkpt>
      <trkpt lat="64.82127" lon="11.50663">
        <ele>71.68216</ele>
        <time>2020-08-11T13:22:53.314Z</time>
      </trkpt>
      <trkpt lat="64.82133" lon="11.5064">
        <ele>71.95914</ele>
        <time>2020-08-11T13:22:58.272Z</time>
      </trkpt>
      <trkpt lat="64.82138" lon="11.50619">
        <ele>72.220938</ele>
        <time>2020-08-11T13:23:03.264Z</time>
      </trkpt>
      <trkpt lat="64.82144" lon="11.50598">
        <ele>72.478874</ele>
        <time>2020-08-11T13:23:08.274Z</time>
      </trkpt>
      <trkpt lat="64.82149" lon="11.50577">
        <ele>72.736481</ele>
        <time>2020-08-11T13:23:13.277Z</time>
      </trkpt>
      <trkpt lat="64.82155" lon="11.50557">
        <ele>72.984524</ele>
        <time>2020-08-11T13:23:17.285Z</time>
      </trkpt>
      <trkpt lat="64.8216" lon="11.50536">
        <ele>73.243646</ele>
        <time>2020-08-11T13:23:21.274Z</time>
      </trkpt>
      <trkpt lat="64.82166" lon="11.50515">
        <ele>73.511641</ele>
        <time>2020-08-11T13:23:25.260Z</time>
      </trkpt>
      <trkpt lat="64.82171" lon="11.50493">
        <ele>73.7661</ele>
        <time>2020-08-11T13:23:29.276Z</time>
      </trkpt>
      <trkpt lat="64.82175" lon="11.50472">
        <ele>74.00924</ele>
        <time>2020-08-11T13:23:33.294Z</time>
      </trkpt>
      <trkpt lat="64.8218" lon="11.50452">
        <ele>74.070312</ele>
        <time>2020-08-11T13:23:37.290Z</time>
      </trkpt>
      <trkpt lat="64.82185" lon="11.50431">
        <ele>74.077326</ele>
        <time>2020-08-11T13:23:41.291Z</time>
      </trkpt>
      <trkpt lat="64.8219" lon="11.5041">
        <ele>74.084494</ele>
        <time>2020-08-11T13:23:45.274Z</time>
      </trkpt>
      <trkpt lat="64.82196" lon="11.50389">
        <ele>74.091673</ele>
        <time>2020-08-11T13:23:49.289Z</time>
      </trkpt>
      <trkpt lat="64.822" lon="11.50369">
        <ele>74.098144</ele>
        <time>2020-08-11T13:23:53.281Z</time>
      </trkpt>
      <trkpt lat="64.82205" lon="11.50348">
        <ele>74.104945</ele>
        <time>2020-08-11T13:23:57.264Z</time>
      </trkpt>
      <trkpt lat="64.82208" lon="11.50327">
        <ele>74.111402</ele>
        <time>2020-08-11T13:24:01.289Z</time>
      </trkpt>
      <trkpt lat="64.82213" lon="11.50303">
        <ele>74.119027</ele>
        <time>2020-08-11T13:24:05.282Z</time>
      </trkpt>
      <trkpt lat="64.82218" lon="11.50283">
        <ele>74.12589</ele>
        <time>2020-08-11T13:24:08.293Z</time>
      </trkpt>
      <trkpt lat="64.82223" lon="11.50264">
        <ele>74.13219</ele>
        <time>2020-08-11T13:24:11.286Z</time>
      </trkpt>
      <trkpt lat="64.82227" lon="11.50244">
        <ele>74.138783</ele>
        <time>2020-08-11T13:24:14.280Z</time>
      </trkpt>
      <trkpt lat="64.82232" lon="11.50222">
        <ele>74.14572</ele>
        <time>2020-08-11T13:24:17.257Z</time>
      </trkpt>
      <trkpt lat="64.82236" lon="11.50199">
        <ele>74.153347</ele>
        <time>2020-08-11T13:24:20.279Z</time>
      </trkpt>
      <trkpt lat="64.82242" lon="11.50172">
        <ele>74.161721</ele>
        <time>2020-08-11T13:24:23.297Z</time>
      </trkpt>
      <trkpt lat="64.82247" lon="11.50146">
        <ele>74.170266</ele>
        <time>2020-08-11T13:24:26.263Z</time>
      </trkpt>
      <trkpt lat="64.82253" lon="11.50119">
        <ele>74.179046</ele>
        <time>2020-08-11T13:24:29.278Z</time>
      </trkpt>
      <trkpt lat="64.82259" lon="11.5009">
        <ele>74.168122</ele>
        <time>2020-08-11T13:24:32.294Z</time>
      </trkpt>
      <trkpt lat="64.82263" lon="11.50069">
        <ele>74.041573</ele>
        <time>2020-08-11T13:24:34.283Z</time>
      </trkpt>
      <trkpt lat="64.82267" lon="11.50049">
        <ele>73.916557</ele>
        <time>2020-08-11T13:24:36.289Z</time>
      </trkpt>
      <trkpt lat="64.82271" lon="11.50028">
        <ele>73.783583</ele>
        <time>2020-08-11T13:24:38.272Z</time>
      </trkpt>
      <trkpt lat="64.82276" lon="11.50007">
        <ele>73.650106</ele>
        <time>2020-08-11T13:24:40.270Z</time>
      </trkpt>
      <trkpt lat="64.82281" lon="11.49985">
        <ele>73.513423</ele>
        <time>2020-08-11T13:24:42.272Z</time>
      </trkpt>
      <trkpt lat="64.82285" lon="11.49963">
        <ele>73.372889</ele>
        <time>2020-08-11T13:24:44.272Z</time>
      </trkpt>
      <trkpt lat="64.8229" lon="11.4994">
        <ele>73.227876</ele>
        <time>2020-08-11T13:24:46.277Z</time>
      </trkpt>
      <trkpt lat="64.82296" lon="11.49917">
        <ele>73.07986</ele>
        <time>2020-08-11T13:24:48.277Z</time>
      </trkpt>
      <trkpt lat="64.82301" lon="11.49895">
        <ele>72.936392</ele>
        <time>2020-08-11T13:24:50.297Z</time>
      </trkpt>
      <trkpt lat="64.82307" lon="11.49876">
        <ele>72.803379</ele>
        <time>2020-08-11T13:24:52.312Z</time>
      </trkpt>
      <trkpt lat="64.82312" lon="11.49855">
        <ele>72.667462</ele>
        <time>2020-08-11T13:24:54.310Z</time>
      </trkpt>
      <trkpt lat="64.82318" lon="11.49832">
        <ele>72.521433</ele>
        <time>2020-08-11T13:24:56.288Z</time>
      </trkpt>
      <trkpt lat="64.82323" lon="11.49809">
        <ele>72.372399</ele>
        <time>2020-08-11T13:24:58.305Z</time>
      </trkpt>
      <trkpt lat="64.82328" lon="11.49785">
        <ele>72.222424</ele>
        <time>2020-08-11T13:25:00.281Z</time>
      </trkpt>
      <trkpt lat="64.82334" lon="11.49762">
        <ele>72.071004</ele>
        <time>2020-08-11T13:25:02.307Z</time>
      </trkpt>
      <trkpt lat="64.8234" lon="11.49739">
        <ele>71.92066</ele>
        <time>2020-08-11T13:25:04.276Z</time>
      </trkpt>
      <trkpt lat="64.82345" lon="11.49716">
        <ele>71.807156</ele>
        <time>2020-08-11T13:25:06.280Z</time>
      </trkpt>
      <trkpt lat="64.82351" lon="11.49695">
        <ele>71.814168</ele>
        <time>2020-08-11T13:25:08.270Z</time>
      </trkpt>
      <trkpt lat="64.82359" lon="11.4968">
        <ele>71.820712</ele>
        <time>2020-08-11T13:25:10.290Z</time>
      </trkpt>
      <trkpt lat="64.8237" lon="11.4968">
        <ele>71.827819</ele>
        <time>2020-08-11T13:25:12.312Z</time>
      </trkpt>
      <trkpt lat="64.82381" lon="11.49695">
        <ele>71.835871</ele>
        <time>2020-08-11T13:25:14.296Z</time>
      </trkpt>
      <trkpt lat="64.82391" lon="11.49712">
        <ele>71.844118</ele>
        <time>2020-08-11T13:25:16.273Z</time>
      </trkpt>
      <trkpt lat="64.82402" lon="11.49729">
        <ele>71.85244</ele>
        <time>2020-08-11T13:25:18.264Z</time>
      </trkpt>
      <trkpt lat="64.82412" lon="11.49745">
        <ele>71.860456</ele>
        <time>2020-08-11T13:25:20.272Z</time>
      </trkpt>
      <trkpt lat="64.82423" lon="11.49761">
        <ele>71.868758</ele>
        <time>2020-08-11T13:25:22.270Z</time>
      </trkpt>
      <trkpt lat="64.82434" lon="11.49775">
        <ele>71.876501</ele>
        <time>2020-08-11T13:25:24.269Z</time>
      </trkpt>
      <trkpt lat="64.82443" lon="11.49788">
        <ele>71.883688</ele>
        <time>2020-08-11T13:25:26.269Z</time>
      </trkpt>
      <trkpt lat="64.82453" lon="11.498">
        <ele>71.8905</ele>
        <time>2020-08-11T13:25:28.271Z</time>
      </trkpt>
      <trkpt lat="64.82461" lon="11.49812">
        <ele>71.896989</ele>
        <time>2020-08-11T13:25:30.281Z</time>
      </trkpt>
      <trkpt lat="64.8247" lon="11.49823">
        <ele>71.903461</ele>
        <time>2020-08-11T13:25:32.286Z</time>
      </trkpt>
      <trkpt lat="64.8248" lon="11.49833">
        <ele>71.910116</ele>
        <time>2020-08-11T13:25:34.276Z</time>
      </trkpt>
      <trkpt lat="64.82489" lon="11.49843">
        <ele>71.916793</ele>
        <time>2020-08-11T13:25:36.271Z</time>
      </trkpt>
      <trkpt lat="64.82498" lon="11.49852">
        <ele>72.061514</ele>
        <time>2020-08-11T13:25:38.273Z</time>
      </trkpt>
      <trkpt lat="64.82506" lon="11.49862">
        <ele>72.633358</ele>
        <time>2020-08-11T13:25:40.305Z</time>
      </trkpt>
      <trkpt lat="64.82517" lon="11.49873">
        <ele>73.383212</ele>
        <time>2020-08-11T13:25:43.269Z</time>
      </trkpt>
      <trkpt lat="64.82527" lon="11.49883">
        <ele>74.029721</ele>
        <time>2020-08-11T13:25:46.280Z</time>
      </trkpt>
      <trkpt lat="64.82537" lon="11.49895">
        <ele>74.736203</ele>
        <time>2020-08-11T13:25:50.262Z</time>
      </trkpt>
      <trkpt lat="64.82546" lon="11.49906">
        <ele>75.399812</ele>
        <time>2020-08-11T13:25:55.276Z</time>
      </trkpt>
      <trkpt lat="64.82555" lon="11.49918">
        <ele>76.051073</ele>
        <time>2020-08-11T13:26:00.278Z</time>
      </trkpt>
      <trkpt lat="64.82564" lon="11.49934">
        <ele>76.738764</ele>
        <time>2020-08-11T13:26:05.287Z</time>
      </trkpt>
      <trkpt lat="64.82572" lon="11.49943">
        <ele>77.329802</ele>
        <time>2020-08-11T13:26:09.292Z</time>
      </trkpt>
      <trkpt lat="64.82581" lon="11.49956">
        <ele>77.966224</ele>
        <time>2020-08-11T13:26:14.261Z</time>
      </trkpt>
      <trkpt lat="64.8259" lon="11.49969">
        <ele>78.640748</ele>
        <time>2020-08-11T13:26:19.263Z</time>
      </trkpt>
      <trkpt lat="64.82599" lon="11.49983">
        <ele>79.297591</ele>
        <time>2020-08-11T13:26:24.296Z</time>
      </trkpt>
      <trkpt lat="64.82607" lon="11.49996">
        <ele>79.898776</ele>
        <time>2020-08-11T13:26:29.285Z</time>
      </trkpt>
      <trkpt lat="64.82617" lon="11.50007">
        <ele>80.582741</ele>
        <time>2020-08-11T13:26:34.307Z</time>
      </trkpt>
      <trkpt lat="64.82626" lon="11.50022">
        <ele>81.266745</ele>
        <time>2020-08-11T13:26:39.281Z</time>
      </trkpt>
      <trkpt lat="64.82633" lon="11.50036">
        <ele>81.848127</ele>
        <time>2020-08-11T13:26:43.275Z</time>
      </trkpt>
      <trkpt lat="64.8264" lon="11.50051">
        <ele>82.446392</ele>
        <time>2020-08-11T13:26:47.275Z</time>
      </trkpt>
      <trkpt lat="64.82647" lon="11.50067">
        <ele>83.0596</ele>
        <time>2020-08-11T13:26:51.280Z</time>
      </trkpt>
      <trkpt lat="64.82654" lon="11.50083">
        <ele>83.649208</ele>
        <time>2020-08-11T13:26:55.261Z</time>
      </trkpt>
      <trkpt lat="64.82662" lon="11.50096">
        <ele>84.249859</ele>
        <time>2020-08-11T13:26:59.279Z</time>
      </trkpt>
      <trkpt lat="64.8267" lon="11.50111">
        <ele>84.848445</ele>
        <time>2020-08-11T13:27:03.296Z</time>
      </trkpt>
      <trkpt lat="64.82678" lon="11.50127">
        <ele>85.490138</ele>
        <time>2020-08-11T13:27:07.290Z</time>
      </trkpt>
      <trkpt lat="64.82686" lon="11.50145">
        <ele>86.118913</ele>
        <time>2020-08-11T13:27:11.295Z</time>
      </trkpt>
      <trkpt lat="64.82693" lon="11.50159">
        <ele>86.693992</ele>
        <time>2020-08-11T13:27:15.267Z</time>
      </trkpt>
      <trkpt lat="64.82703" lon="11.50172">
        <ele>87.362966</ele>
        <time>2020-08-11T13:27:20.269Z</time>
      </trkpt>
      <trkpt lat="64.82714" lon="11.50183">
        <ele>88.038118</ele>
        <time>2020-08-11T13:27:25.317Z</time>
      </trkpt>
      <trkpt lat="64.82723" lon="11.50195">
        <ele>88.682871</ele>
        <time>2020-08-11T13:27:30.309Z</time>
      </trkpt>
      <trkpt lat="64.82731" lon="11.50206">
        <ele>89.242699</ele>
        <time>2020-08-11T13:27:35.285Z</time>
      </trkpt>
      <trkpt lat="64.82738" lon="11.50223">
        <ele>89.853567</ele>
        <time>2020-08-11T13:27:40.281Z</time>
      </trkpt>
      <trkpt lat="64.82746" lon="11.5024">
        <ele>90.487434</ele>
        <time>2020-08-11T13:27:45.287Z</time>
      </trkpt>
      <trkpt lat="64.82755" lon="11.50255">
        <ele>91.132836</ele>
        <time>2020-08-11T13:27:51.275Z</time>
      </trkpt>
      <trkpt lat="64.82764" lon="11.50268">
        <ele>91.761984</ele>
        <time>2020-08-11T13:27:56.277Z</time>
      </trkpt>
      <trkpt lat="64.82772" lon="11.50282">
        <ele>92.377244</ele>
        <time>2020-08-11T13:28:01.318Z</time>
      </trkpt>
      <trkpt lat="64.82781" lon="11.50295">
        <ele>92.975515</ele>
        <time>2020-08-11T13:28:06.276Z</time>
      </trkpt>
      <trkpt lat="64.82789" lon="11.50309">
        <ele>93.560573</ele>
        <time>2020-08-11T13:28:10.281Z</time>
      </trkpt>
      <trkpt lat="64.82798" lon="11.50323">
        <ele>93.680484</ele>
        <time>2020-08-11T13:28:14.261Z</time>
      </trkpt>
      <trkpt lat="64.82806" lon="11.50338">
        <ele>93.257921</ele>
        <time>2020-08-11T13:28:18.274Z</time>
      </trkpt>
      <trkpt lat="64.82814" lon="11.50353">
        <ele>92.856976</ele>
        <time>2020-08-11T13:28:22.295Z</time>
      </trkpt>
      <trkpt lat="64.82823" lon="11.50367">
        <ele>92.448236</ele>
        <time>2020-08-11T13:28:26.302Z</time>
      </trkpt>
      <trkpt lat="64.82831" lon="11.50382">
        <ele>92.036012</ele>
        <time>2020-08-11T13:28:30.284Z</time>
      </trkpt>
      <trkpt lat="64.82839" lon="11.50394">
        <ele>91.680035</ele>
        <time>2020-08-11T13:28:33.303Z</time>
      </trkpt>
      <trkpt lat="64.82846" lon="11.50407">
        <ele>91.321884</ele>
        <time>2020-08-11T13:28:36.280Z</time>
      </trkpt>
      <trkpt lat="64.82855" lon="11.50419">
        <ele>90.939397</ele>
        <time>2020-08-11T13:28:39.273Z</time>
      </trkpt>
      <trkpt lat="64.82863" lon="11.50432">
        <ele>90.563476</ele>
        <time>2020-08-11T13:28:42.303Z</time>
      </trkpt>
      <trkpt lat="64.8287" lon="11.50446">
        <ele>90.185018</ele>
        <time>2020-08-11T13:28:45.325Z</time>
      </trkpt>
      <trkpt lat="64.8288" lon="11.50462">
        <ele>89.714392</ele>
        <time>2020-08-11T13:28:49.267Z</time>
      </trkpt>
      <trkpt lat="64.82888" lon="11.50474">
        <ele>89.352802</ele>
        <time>2020-08-11T13:28:52.272Z</time>
      </trkpt>
      <trkpt lat="64.82898" lon="11.50489">
        <ele>88.88378</ele>
        <time>2020-08-11T13:28:56.284Z</time>
      </trkpt>
      <trkpt lat="64.82906" lon="11.50501">
        <ele>88.530113</ele>
        <time>2020-08-11T13:28:59.288Z</time>
      </trkpt>
      <trkpt lat="64.82914" lon="11.50518">
        <ele>88.094772</ele>
        <time>2020-08-11T13:29:03.279Z</time>
      </trkpt>
      <trkpt lat="64.82923" lon="11.50536">
        <ele>87.632229</ele>
        <time>2020-08-11T13:29:07.300Z</time>
      </trkpt>
      <trkpt lat="64.82933" lon="11.50552">
        <ele>87.189055</ele>
        <time>2020-08-11T13:29:11.273Z</time>
      </trkpt>
      <trkpt lat="64.82941" lon="11.50564">
        <ele>86.933413</ele>
        <time>2020-08-11T13:29:14.278Z</time>
      </trkpt>
      <trkpt lat="64.82948" lon="11.50576">
        <ele>87.278928</ele>
        <time>2020-08-11T13:29:17.305Z</time>
      </trkpt>
      <trkpt lat="64.82957" lon="11.50587">
        <ele>87.643041</ele>
        <time>2020-08-11T13:29:20.296Z</time>
      </trkpt>
      <trkpt lat="64.82965" lon="11.50598">
        <ele>88.008115</ele>
        <time>2020-08-11T13:29:23.283Z</time>
      </trkpt>
      <trkpt lat="64.82973" lon="11.50609">
        <ele>88.359885</ele>
        <time>2020-08-11T13:29:26.269Z</time>
      </trkpt>
      <trkpt lat="64.82981" lon="11.5062">
        <ele>88.718285</ele>
        <time>2020-08-11T13:29:29.302Z</time>
      </trkpt>
      <trkpt lat="64.82991" lon="11.50632">
        <ele>89.156147</ele>
        <time>2020-08-11T13:29:33.296Z</time>
      </trkpt>
      <trkpt lat="64.83001" lon="11.50643">
        <ele>89.560573</ele>
        <time>2020-08-11T13:29:37.256Z</time>
      </trkpt>
      <trkpt lat="64.83012" lon="11.50652">
        <ele>90.003851</ele>
        <time>2020-08-11T13:29:41.289Z</time>
      </trkpt>
      <trkpt lat="64.83022" lon="11.50662">
        <ele>90.424635</ele>
        <time>2020-08-11T13:29:45.264Z</time>
      </trkpt>
      <trkpt lat="64.83031" lon="11.50669">
        <ele>90.784606</ele>
        <time>2020-08-11T13:29:49.277Z</time>
      </trkpt>
      <trkpt lat="64.8304" lon="11.50677">
        <ele>91.168851</ele>
        <time>2020-08-11T13:29:53.295Z</time>
      </trkpt>
      <trkpt lat="64.83051" lon="11.50683">
        <ele>91.586503</ele>
        <time>2020-08-11T13:29:57.314Z</time>
      </trkpt>
      <trkpt lat="64.83062" lon="11.50686">
        <ele>91.99467</ele>
        <time>2020-08-11T13:30:01.287Z</time>
      </trkpt>
      <trkpt lat="64.83073" lon="11.50691">
        <ele>92.431433</ele>
        <time>2020-08-11T13:30:05.273Z</time>
      </trkpt>
      <trkpt lat="64.83082" lon="11.50693">
        <ele>92.776153</ele>
        <time>2020-08-11T13:30:08.293Z</time>
      </trkpt>
      <trkpt lat="64.83093" lon="11.50693">
        <ele>93.188138</ele>
        <time>2020-08-11T13:30:12.275Z</time>
      </trkpt>
      <trkpt lat="64.83103" lon="11.50693">
        <ele>93.565772</ele>
        <time>2020-08-11T13:30:17.271Z</time>
      </trkpt>
      <trkpt lat="64.83113" lon="11.50693">
        <ele>93.958572</ele>
        <time>2020-08-11T13:30:23.289Z</time>
      </trkpt>
      <trkpt lat="64.83123" lon="11.50694">
        <ele>94.356639</ele>
        <time>2020-08-11T13:30:30.267Z</time>
      </trkpt>
      <trkpt lat="64.83133" lon="11.50697">
        <ele>94.763037</ele>
        <time>2020-08-11T13:30:37.263Z</time>
      </trkpt>
      <trkpt lat="64.83142" lon="11.50702">
        <ele>95.144462</ele>
        <time>2020-08-11T13:30:43.281Z</time>
      </trkpt>
      <trkpt lat="64.83151" lon="11.5071">
        <ele>95.537332</ele>
        <time>2020-08-11T13:30:49.277Z</time>
      </trkpt>
      <trkpt lat="64.83161" lon="11.50719">
        <ele>95.952502</ele>
        <time>2020-08-11T13:30:55.279Z</time>
      </trkpt>
      <trkpt lat="64.8317" lon="11.50729">
        <ele>96.352508</ele>
        <time>2020-08-11T13:31:01.291Z</time>
      </trkpt>
      <trkpt lat="64.83179" lon="11.50742">
        <ele>96.77935</ele>
        <time>2020-08-11T13:31:07.310Z</time>
      </trkpt>
      <trkpt lat="64.83187" lon="11.50753">
        <ele>97.176783</ele>
        <time>2020-08-11T13:31:12.285Z</time>
      </trkpt>
      <trkpt lat="64.83195" lon="11.50767">
        <ele>97.562623</ele>
        <time>2020-08-11T13:31:16.273Z</time>
      </trkpt>
      <trkpt lat="64.83204" lon="11.50786">
        <ele>98.05079</ele>
        <time>2020-08-11T13:31:20.289Z</time>
      </trkpt>
      <trkpt lat="64.83213" lon="11.50802">
        <ele>98.488163</ele>
        <time>2020-08-11T13:31:23.277Z</time>
      </trkpt>
      <trkpt lat="64.83223" lon="11.50817">
        <ele>98.972143</ele>
        <time>2020-08-11T13:31:26.288Z</time>
      </trkpt>
      <trkpt lat="64.83233" lon="11.50835">
        <ele>99.497099</ele>
        <time>2020-08-11T13:31:29.296Z</time>
      </trkpt>
      <trkpt lat="64.83241" lon="11.50847">
        <ele>99.866762</ele>
        <time>2020-08-11T13:31:31.283Z</time>
      </trkpt>
      <trkpt lat="64.83249" lon="11.5086">
        <ele>100.237044</ele>
        <time>2020-08-11T13:31:33.300Z</time>
      </trkpt>
      <trkpt lat="64.83256" lon="11.50871">
        <ele>100.60257</ele>
        <time>2020-08-11T13:31:35.281Z</time>
      </trkpt>
      <trkpt lat="64.83264" lon="11.50883">
        <ele>100.955693</ele>
        <time>2020-08-11T13:31:37.269Z</time>
      </trkpt>
      <trkpt lat="64.83272" lon="11.50896">
        <ele>100.915171</ele>
        <time>2020-08-11T13:31:39.301Z</time>
      </trkpt>
      <trkpt lat="64.8328" lon="11.5091">
        <ele>100.873229</ele>
        <time>2020-08-11T13:31:41.304Z</time>
      </trkpt>
      <trkpt lat="64.83287" lon="11.50924">
        <ele>100.833504</ele>
        <time>2020-08-11T13:31:43.268Z</time>
      </trkpt>
      <trkpt lat="64.83295" lon="11.50939">
        <ele>100.791125</ele>
        <time>2020-08-11T13:31:45.279Z</time>
      </trkpt>
      <trkpt lat="64.83304" lon="11.50956">
        <ele>100.744513</ele>
        <time>2020-08-11T13:31:47.281Z</time>
      </trkpt>
      <trkpt lat="64.83313" lon="11.50974">
        <ele>100.693684</ele>
        <time>2020-08-11T13:31:49.280Z</time>
      </trkpt>
      <trkpt lat="64.83322" lon="11.50992">
        <ele>100.644129</ele>
        <time>2020-08-11T13:31:51.262Z</time>
      </trkpt>
      <trkpt lat="64.83331" lon="11.51009">
        <ele>100.596093</ele>
        <time>2020-08-11T13:31:53.282Z</time>
      </trkpt>
      <trkpt lat="64.83338" lon="11.51025">
        <ele>100.552358</ele>
        <time>2020-08-11T13:31:55.275Z</time>
      </trkpt>
      <trkpt lat="64.83345" lon="11.51042">
        <ele>100.51281</ele>
        <time>2020-08-11T13:31:57.296Z</time>
      </trkpt>
      <trkpt lat="64.83354" lon="11.51064">
        <ele>100.458287</ele>
        <time>2020-08-11T13:32:00.285Z</time>
      </trkpt>
      <trkpt lat="64.83361" lon="11.51084">
        <ele>100.409354</ele>
        <time>2020-08-11T13:32:03.279Z</time>
      </trkpt>
      <trkpt lat="64.83369" lon="11.51105">
        <ele>100.360846</ele>
        <time>2020-08-11T13:32:06.282Z</time>
      </trkpt>
      <trkpt lat="64.83376" lon="11.51124">
        <ele>100.315884</ele>
        <time>2020-08-11T13:32:09.288Z</time>
      </trkpt>
      <trkpt lat="64.83384" lon="11.51145">
        <ele>100.266562</ele>
        <time>2020-08-11T13:32:13.271Z</time>
      </trkpt>
      <trkpt lat="64.8339" lon="11.51161">
        <ele>100.227596</ele>
        <time>2020-08-11T13:32:16.275Z</time>
      </trkpt>
      <trkpt lat="64.83397" lon="11.51181">
        <ele>100.345903</ele>
        <time>2020-08-11T13:32:20.279Z</time>
      </trkpt>
      <trkpt lat="64.83405" lon="11.51198">
        <ele>100.656766</ele>
        <time>2020-08-11T13:32:24.293Z</time>
      </trkpt>
      <trkpt lat="64.83415" lon="11.51213">
        <ele>100.988613</ele>
        <time>2020-08-11T13:32:28.279Z</time>
      </trkpt>
      <trkpt lat="64.83424" lon="11.51226">
        <ele>101.290558</ele>
        <time>2020-08-11T13:32:32.293Z</time>
      </trkpt>
      <trkpt lat="64.83434" lon="11.51238">
        <ele>101.60266</ele>
        <time>2020-08-11T13:32:36.270Z</time>
      </trkpt>
      <trkpt lat="64.83442" lon="11.51249">
        <ele>101.864643</ele>
        <time>2020-08-11T13:32:39.275Z</time>
      </trkpt>
      <trkpt lat="64.8345" lon="11.51257">
        <ele>102.128028</ele>
        <time>2020-08-11T13:32:42.307Z</time>
      </trkpt>
      <trkpt lat="64.8346" lon="11.51264">
        <ele>102.420602</ele>
        <time>2020-08-11T13:32:45.296Z</time>
      </trkpt>
      <trkpt lat="64.83472" lon="11.51271">
        <ele>102.759473</ele>
        <time>2020-08-11T13:32:48.269Z</time>
      </trkpt>
      <trkpt lat="64.83484" lon="11.51275">
        <ele>103.109326</ele>
        <time>2020-08-11T13:32:51.287Z</time>
      </trkpt>
      <trkpt lat="64.83496" lon="11.51282">
        <ele>103.459814</ele>
        <time>2020-08-11T13:32:54.272Z</time>
      </trkpt>
      <trkpt lat="64.83508" lon="11.51287">
        <ele>103.80954</ele>
        <time>2020-08-11T13:32:57.308Z</time>
      </trkpt>
      <trkpt lat="64.83519" lon="11.51296">
        <ele>104.158512</ele>
        <time>2020-08-11T13:33:00.274Z</time>
      </trkpt>
      <trkpt lat="64.83532" lon="11.51304">
        <ele>104.528713</ele>
        <time>2020-08-11T13:33:03.266Z</time>
      </trkpt>
      <trkpt lat="64.8354" lon="11.51311">
        <ele>104.784838</ele>
        <time>2020-08-11T13:33:05.294Z</time>
      </trkpt>
      <trkpt lat="64.83549" lon="11.51319">
        <ele>105.046014</ele>
        <time>2020-08-11T13:33:07.279Z</time>
      </trkpt>
      <trkpt lat="64.83558" lon="11.51327">
        <ele>105.319588</ele>
        <time>2020-08-11T13:33:09.277Z</time>
      </trkpt>
      <trkpt lat="64.8357" lon="11.51339">
        <ele>105.074091</ele>
        <time>2020-08-11T13:33:12.299Z</time>
      </trkpt>
      <trkpt lat="64.83581" lon="11.5135">
        <ele>104.815924</ele>
        <time>2020-08-11T13:33:15.286Z</time>
      </trkpt>
      <trkpt lat="64.83594" lon="11.51361">
        <ele>104.543703</ele>
        <time>2020-08-11T13:33:18.278Z</time>
      </trkpt>
      <trkpt lat="64.83606" lon="11.51373">
        <ele>104.269877</ele>
        <time>2020-08-11T13:33:21.278Z</time>
      </trkpt>
      <trkpt lat="64.83618" lon="11.51384">
        <ele>103.996689</ele>
        <time>2020-08-11T13:33:24.281Z</time>
      </trkpt>
      <trkpt lat="64.83627" lon="11.51391">
        <ele>103.811604</ele>
        <time>2020-08-11T13:33:26.290Z</time>
      </trkpt>
      <trkpt lat="64.83639" lon="11.51402">
        <ele>103.535539</ele>
        <time>2020-08-11T13:33:29.293Z</time>
      </trkpt>
      <trkpt lat="64.83648" lon="11.5141">
        <ele>103.348386</ele>
        <time>2020-08-11T13:33:31.305Z</time>
      </trkpt>
      <trkpt lat="64.83657" lon="11.51418">
        <ele>103.15452</ele>
        <time>2020-08-11T13:33:33.277Z</time>
      </trkpt>
      <trkpt lat="64.83665" lon="11.51425">
        <ele>102.968864</ele>
        <time>2020-08-11T13:33:35.291Z</time>
      </trkpt>
      <trkpt lat="64.83674" lon="11.51433">
        <ele>102.765025</ele>
        <time>2020-08-11T13:33:37.318Z</time>
      </trkpt>
      <trkpt lat="64.83684" lon="11.51441">
        <ele>102.558446</ele>
        <time>2020-08-11T13:33:39.278Z</time>
      </trkpt>
      <trkpt lat="64.83694" lon="11.51447">
        <ele>102.346558</ele>
        <time>2020-08-11T13:33:41.263Z</time>
      </trkpt>
      <trkpt lat="64.83705" lon="11.51452">
        <ele>102.117454</ele>
        <time>2020-08-11T13:33:43.258Z</time>
      </trkpt>
      <trkpt lat="64.83716" lon="11.51457">
        <ele>101.878068</ele>
        <time>2020-08-11T13:33:45.283Z</time>
      </trkpt>
      <trkpt lat="64.83728" lon="11.51465">
        <ele>101.630525</ele>
        <time>2020-08-11T13:33:47.258Z</time>
      </trkpt>
      <trkpt lat="64.83739" lon="11.51472">
        <ele>101.527016</ele>
        <time>2020-08-11T13:33:49.290Z</time>
      </trkpt>
      <trkpt lat="64.83751" lon="11.51479">
        <ele>101.427416</ele>
        <time>2020-08-11T13:33:51.271Z</time>
      </trkpt>
      <trkpt lat="64.83762" lon="11.51487">
        <ele>101.326583</ele>
        <time>2020-08-11T13:33:53.277Z</time>
      </trkpt>
      <trkpt lat="64.83773" lon="11.51496">
        <ele>101.229668</ele>
        <time>2020-08-11T13:33:55.290Z</time>
      </trkpt>
      <trkpt lat="64.83784" lon="11.51504">
        <ele>101.133781</ele>
        <time>2020-08-11T13:33:57.265Z</time>
      </trkpt>
      <trkpt lat="64.83794" lon="11.51512">
        <ele>101.045287</ele>
        <time>2020-08-11T13:33:59.268Z</time>
      </trkpt>
      <trkpt lat="64.83804" lon="11.51519">
        <ele>100.957143</ele>
        <time>2020-08-11T13:34:01.275Z</time>
      </trkpt>
      <trkpt lat="64.83813" lon="11.51527">
        <ele>100.872681</ele>
        <time>2020-08-11T13:34:03.293Z</time>
      </trkpt>
      <trkpt lat="64.83822" lon="11.51536">
        <ele>100.795149</ele>
        <time>2020-08-11T13:34:05.263Z</time>
      </trkpt>
      <trkpt lat="64.8383" lon="11.51546">
        <ele>100.718212</ele>
        <time>2020-08-11T13:34:07.273Z</time>
      </trkpt>
      <trkpt lat="64.83839" lon="11.51554">
        <ele>100.639487</ele>
        <time>2020-08-11T13:34:09.261Z</time>
      </trkpt>
      <trkpt lat="64.83848" lon="11.51561">
        <ele>100.559395</ele>
        <time>2020-08-11T13:34:11.291Z</time>
      </trkpt>
      <trkpt lat="64.83856" lon="11.5157">
        <ele>100.483841</ele>
        <time>2020-08-11T13:34:13.279Z</time>
      </trkpt>
      <trkpt lat="64.83867" lon="11.51583">
        <ele>100.377426</ele>
        <time>2020-08-11T13:34:16.266Z</time>
      </trkpt>
      <trkpt lat="64.83877" lon="11.51593">
        <ele>100.289237</ele>
        <time>2020-08-11T13:34:19.279Z</time>
      </trkpt>
      <trkpt lat="64.83886" lon="11.51604">
        <ele>100.20196</ele>
        <time>2020-08-11T13:34:22.275Z</time>
      </trkpt>
      <trkpt lat="64.83897" lon="11.51616">
        <ele>100.089243</ele>
        <time>2020-08-11T13:34:25.279Z</time>
      </trkpt>
      <trkpt lat="64.83906" lon="11.51628">
        <ele>99.949459</ele>
        <time>2020-08-11T13:34:27.337Z</time>
      </trkpt>
      <trkpt lat="64.83916" lon="11.51643">
        <ele>99.77714</ele>
        <time>2020-08-11T13:34:29.286Z</time>
      </trkpt>
      <trkpt lat="64.83928" lon="11.51664">
        <ele>99.563662</ele>
        <time>2020-08-11T13:34:31.315Z</time>
      </trkpt>
      <trkpt lat="64.83942" lon="11.51692">
        <ele>99.298223</ele>
        <time>2020-08-11T13:34:33.274Z</time>
      </trkpt>
      <trkpt lat="64.83949" lon="11.51709">
        <ele>99.155102</ele>
        <time>2020-08-11T13:34:34.301Z</time>
      </trkpt>
      <trkpt lat="64.83957" lon="11.51728">
        <ele>99.001183</ele>
        <time>2020-08-11T13:34:35.313Z</time>
      </trkpt>
      <trkpt lat="64.83965" lon="11.51748">
        <ele>98.831168</ele>
        <time>2020-08-11T13:34:36.277Z</time>
      </trkpt>
      <trkpt lat="64.83973" lon="11.51768">
        <ele>98.663332</ele>
        <time>2020-08-11T13:34:37.274Z</time>
      </trkpt>
      <trkpt lat="64.8398" lon="11.51788">
        <ele>98.506671</ele>
        <time>2020-08-11T13:34:38.273Z</time>
      </trkpt>
      <trkpt lat="64.83987" lon="11.51808">
        <ele>98.349053</ele>
        <time>2020-08-11T13:34:39.296Z</time>
      </trkpt>
      <trkpt lat="64.83995" lon="11.51827">
        <ele>98.193147</ele>
        <time>2020-08-11T13:34:40.299Z</time>
      </trkpt>
      <trkpt lat="64.84003" lon="11.51844">
        <ele>98.038733</ele>
        <time>2020-08-11T13:34:41.273Z</time>
      </trkpt>
      <trkpt lat="64.84011" lon="11.51859">
        <ele>97.885748</ele>
        <time>2020-08-11T13:34:42.284Z</time>
      </trkpt>
      <trkpt lat="64.84021" lon="11.51872">
        <ele>97.733087</ele>
        <time>2020-08-11T13:34:43.303Z</time>
      </trkpt>
      <trkpt lat="64.8403" lon="11.51882">
        <ele>97.580652</ele>
        <time>2020-08-11T13:34:44.298Z</time>
      </trkpt>
      <trkpt lat="64.84041" lon="11.51889">
        <ele>97.117097</ele>
        <time>2020-08-11T13:34:45.302Z</time>
      </trkpt>
      <trkpt lat="64.84051" lon="11.51892">
        <ele>96.583306</ele>
        <time>2020-08-11T13:34:46.290Z</time>
      </trkpt>
      <trkpt lat="64.84062" lon="11.51892">
        <ele>96.038873</ele>
        <time>2020-08-11T13:34:47.274Z</time>
      </trkpt>
      <trkpt lat="64.84073" lon="11.5189">
        <ele>95.477508</ele>
        <time>2020-08-11T13:34:48.293Z</time>
      </trkpt>
      <trkpt lat="64.84085" lon="11.51885">
        <ele>94.909988</ele>
        <time>2020-08-11T13:34:49.283Z</time>
      </trkpt>
      <trkpt lat="64.84096" lon="11.51877">
        <ele>94.31757</ele>
        <time>2020-08-11T13:34:50.273Z</time>
      </trkpt>
      <trkpt lat="64.84107" lon="11.51867">
        <ele>93.719995</ele>
        <time>2020-08-11T13:34:51.273Z</time>
      </trkpt>
      <trkpt lat="64.84118" lon="11.51853">
        <ele>93.105087</ele>
        <time>2020-08-11T13:34:52.296Z</time>
      </trkpt>
      <trkpt lat="64.84128" lon="11.51836">
        <ele>92.474366</ele>
        <time>2020-08-11T13:34:53.298Z</time>
      </trkpt>
      <trkpt lat="64.84138" lon="11.51818">
        <ele>91.844131</ele>
        <time>2020-08-11T13:34:54.290Z</time>
      </trkpt>
      <trkpt lat="64.84149" lon="11.518">
        <ele>91.208499</ele>
        <time>2020-08-11T13:34:55.280Z</time>
      </trkpt>
      <trkpt lat="64.8416" lon="11.51782">
        <ele>90.530604</ele>
        <time>2020-08-11T13:34:56.312Z</time>
      </trkpt>
      <trkpt lat="64.8417" lon="11.51763">
        <ele>89.862256</ele>
        <time>2020-08-11T13:34:57.265Z</time>
      </trkpt>
      <trkpt lat="64.84181" lon="11.51745">
        <ele>89.195833</ele>
        <time>2020-08-11T13:34:58.282Z</time>
      </trkpt>
      <trkpt lat="64.84192" lon="11.51726">
        <ele>88.51474</ele>
        <time>2020-08-11T13:34:59.293Z</time>
      </trkpt>
      <trkpt lat="64.84203" lon="11.51707">
        <ele>87.650877</ele>
        <time>2020-08-11T13:35:00.324Z</time>
      </trkpt>
      <trkpt lat="64.84214" lon="11.51689">
        <ele>86.783125</ele>
        <time>2020-08-11T13:35:01.277Z</time>
      </trkpt>
      <trkpt lat="64.84225" lon="11.51669">
        <ele>85.890232</ele>
        <time>2020-08-11T13:35:02.264Z</time>
      </trkpt>
      <trkpt lat="64.84237" lon="11.51649">
        <ele>84.965755</ele>
        <time>2020-08-11T13:35:03.275Z</time>
      </trkpt>
      <trkpt lat="64.84248" lon="11.5163">
        <ele>84.048844</ele>
        <time>2020-08-11T13:35:04.297Z</time>
      </trkpt>
      <trkpt lat="64.8426" lon="11.51611">
        <ele>83.129801</ele>
        <time>2020-08-11T13:35:05.306Z</time>
      </trkpt>
      <trkpt lat="64.84272" lon="11.51592">
        <ele>82.197926</ele>
        <time>2020-08-11T13:35:06.268Z</time>
      </trkpt>
      <trkpt lat="64.84285" lon="11.51574">
        <ele>81.274326</ele>
        <time>2020-08-11T13:35:07.301Z</time>
      </trkpt>
      <trkpt lat="64.84298" lon="11.51559">
        <ele>80.343211</ele>
        <time>2020-08-11T13:35:08.273Z</time>
      </trkpt>
      <trkpt lat="64.84311" lon="11.51547">
        <ele>79.420709</ele>
        <time>2020-08-11T13:35:09.276Z</time>
      </trkpt>
      <trkpt lat="64.84325" lon="11.51539">
        <ele>78.480426</ele>
        <time>2020-08-11T13:35:10.294Z</time>
      </trkpt>
      <trkpt lat="64.8434" lon="11.51535">
        <ele>77.556642</ele>
        <time>2020-08-11T13:35:11.277Z</time>
      </trkpt>
      <trkpt lat="64.84354" lon="11.51531">
        <ele>76.395383</ele>
        <time>2020-08-11T13:35:12.271Z</time>
      </trkpt>
      <trkpt lat="64.84368" lon="11.51529">
        <ele>74.993571</ele>
        <time>2020-08-11T13:35:13.278Z</time>
      </trkpt>
      <trkpt lat="64.84383" lon="11.51533">
        <ele>73.566976</ele>
        <time>2020-08-11T13:35:14.297Z</time>
      </trkpt>
      <trkpt lat="64.84397" lon="11.5154">
        <ele>72.124905</ele>
        <time>2020-08-11T13:35:15.270Z</time>
      </trkpt>
      <trkpt lat="64.84413" lon="11.51551">
        <ele>70.556532</ele>
        <time>2020-08-11T13:35:16.300Z</time>
      </trkpt>
      <trkpt lat="64.84428" lon="11.51563">
        <ele>69.00974</ele>
        <time>2020-08-11T13:35:17.279Z</time>
      </trkpt>
      <trkpt lat="64.84442" lon="11.51576">
        <ele>67.501844</ele>
        <time>2020-08-11T13:35:18.336Z</time>
      </trkpt>
      <trkpt lat="64.84456" lon="11.51588">
        <ele>66.05432</ele>
        <time>2020-08-11T13:35:19.281Z</time>
      </trkpt>
      <trkpt lat="64.8447" lon="11.51598">
        <ele>64.644189</ele>
        <time>2020-08-11T13:35:20.287Z</time>
      </trkpt>
      <trkpt lat="64.84483" lon="11.51608">
        <ele>63.259028</ele>
        <time>2020-08-11T13:35:21.273Z</time>
      </trkpt>
      <trkpt lat="64.84496" lon="11.51618">
        <ele>61.913748</ele>
        <time>2020-08-11T13:35:22.282Z</time>
      </trkpt>
      <trkpt lat="64.84508" lon="11.51627">
        <ele>60.653191</ele>
        <time>2020-08-11T13:35:23.274Z</time>
      </trkpt>
      <trkpt lat="64.8452" lon="11.51635">
        <ele>59.445556</ele>
        <time>2020-08-11T13:35:24.287Z</time>
      </trkpt>
      <trkpt lat="64.84531" lon="11.51643">
        <ele>58.333244</ele>
        <time>2020-08-11T13:35:25.273Z</time>
      </trkpt>
      <trkpt lat="64.84542" lon="11.51649">
        <ele>57.24307</ele>
        <time>2020-08-11T13:35:26.261Z</time>
      </trkpt>
      <trkpt lat="64.84553" lon="11.51655">
        <ele>56.176339</ele>
        <time>2020-08-11T13:35:27.330Z</time>
      </trkpt>
      <trkpt lat="64.84564" lon="11.51659">
        <ele>55.083575</ele>
        <time>2020-08-11T13:35:28.313Z</time>
      </trkpt>
      <trkpt lat="64.84576" lon="11.51662">
        <ele>53.979853</ele>
        <time>2020-08-11T13:35:29.283Z</time>
      </trkpt>
      <trkpt lat="64.84587" lon="11.51666">
        <ele>52.881239</ele>
        <time>2020-08-11T13:35:30.260Z</time>
      </trkpt>
      <trkpt lat="64.84599" lon="11.5167">
        <ele>51.757269</ele>
        <time>2020-08-11T13:35:31.276Z</time>
      </trkpt>
      <trkpt lat="64.8461" lon="11.51678">
        <ele>50.645193</ele>
        <time>2020-08-11T13:35:32.283Z</time>
      </trkpt>
      <trkpt lat="64.8462" lon="11.51688">
        <ele>49.53927</ele>
        <time>2020-08-11T13:35:33.268Z</time>
      </trkpt>
      <trkpt lat="64.8463" lon="11.51701">
        <ele>48.441073</ele>
        <time>2020-08-11T13:35:34.331Z</time>
      </trkpt>
      <trkpt lat="64.84639" lon="11.51716">
        <ele>47.356181</ele>
        <time>2020-08-11T13:35:35.274Z</time>
      </trkpt>
      <trkpt lat="64.84647" lon="11.51734">
        <ele>46.297183</ele>
        <time>2020-08-11T13:35:36.290Z</time>
      </trkpt>
      <trkpt lat="64.84655" lon="11.51754">
        <ele>45.230559</ele>
        <time>2020-08-11T13:35:37.285Z</time>
      </trkpt>
      <trkpt lat="64.8466" lon="11.51775">
        <ele>44.222813</ele>
        <time>2020-08-11T13:35:38.278Z</time>
      </trkpt>
      <trkpt lat="64.84664" lon="11.51798">
        <ele>43.186719</ele>
        <time>2020-08-11T13:35:39.272Z</time>
      </trkpt>
      <trkpt lat="64.84666" lon="11.51825">
        <ele>42.103765</ele>
        <time>2020-08-11T13:35:40.301Z</time>
      </trkpt>
      <trkpt lat="64.84666" lon="11.51853">
        <ele>41.504063</ele>
        <time>2020-08-11T13:35:41.292Z</time>
      </trkpt>
      <trkpt lat="64.84665" lon="11.51878">
        <ele>40.949797</ele>
        <time>2020-08-11T13:35:42.283Z</time>
      </trkpt>
      <trkpt lat="64.84664" lon="11.51904">
        <ele>40.404068</ele>
        <time>2020-08-11T13:35:43.271Z</time>
      </trkpt>
      <trkpt lat="64.84663" lon="11.51929">
        <ele>39.870335</ele>
        <time>2020-08-11T13:35:44.305Z</time>
      </trkpt>
      <trkpt lat="64.84663" lon="11.51953">
        <ele>39.345664</ele>
        <time>2020-08-11T13:35:45.268Z</time>
      </trkpt>
      <trkpt lat="64.84663" lon="11.51976">
        <ele>38.851041</ele>
        <time>2020-08-11T13:35:46.288Z</time>
      </trkpt>
      <trkpt lat="64.84663" lon="11.51998">
        <ele>38.375686</ele>
        <time>2020-08-11T13:35:47.293Z</time>
      </trkpt>
      <trkpt lat="64.84663" lon="11.52021">
        <ele>37.902499</ele>
        <time>2020-08-11T13:35:48.281Z</time>
      </trkpt>
      <trkpt lat="64.84663" lon="11.52042">
        <ele>37.441911</ele>
        <time>2020-08-11T13:35:49.307Z</time>
      </trkpt>
      <trkpt lat="64.84664" lon="11.52063">
        <ele>36.987547</ele>
        <time>2020-08-11T13:35:50.292Z</time>
      </trkpt>
      <trkpt lat="64.84665" lon="11.52104">
        <ele>36.103865</ele>
        <time>2020-08-11T13:35:52.279Z</time>
      </trkpt>
      <trkpt lat="64.84668" lon="11.52144">
        <ele>35.251486</ele>
        <time>2020-08-11T13:35:54.270Z</time>
      </trkpt>
      <trkpt lat="64.84672" lon="11.52179">
        <ele>34.470006</ele>
        <time>2020-08-11T13:35:56.279Z</time>
      </trkpt>
      <trkpt lat="64.84677" lon="11.52211">
        <ele>33.732944</ele>
        <time>2020-08-11T13:35:58.269Z</time>
      </trkpt>
      <trkpt lat="64.84682" lon="11.52244">
        <ele>33.080958</ele>
        <time>2020-08-11T13:36:00.276Z</time>
      </trkpt>
      <trkpt lat="64.84686" lon="11.52275">
        <ele>33.474703</ele>
        <time>2020-08-11T13:36:02.285Z</time>
      </trkpt>
      <trkpt lat="64.8469" lon="11.52306">
        <ele>33.867022</ele>
        <time>2020-08-11T13:36:04.293Z</time>
      </trkpt>
      <trkpt lat="64.84693" lon="11.52336">
        <ele>34.238466</ele>
        <time>2020-08-11T13:36:06.294Z</time>
      </trkpt>
      <trkpt lat="64.84697" lon="11.52365">
        <ele>34.599289</ele>
        <time>2020-08-11T13:36:08.273Z</time>
      </trkpt>
      <trkpt lat="64.84701" lon="11.52394">
        <ele>34.967673</ele>
        <time>2020-08-11T13:36:10.311Z</time>
      </trkpt>
      <trkpt lat="64.84705" lon="11.52421">
        <ele>35.313033</ele>
        <time>2020-08-11T13:36:12.291Z</time>
      </trkpt>
      <trkpt lat="64.84709" lon="11.52448">
        <ele>35.654334</ele>
        <time>2020-08-11T13:36:14.300Z</time>
      </trkpt>
      <trkpt lat="64.84712" lon="11.52475">
        <ele>35.991972</ele>
        <time>2020-08-11T13:36:16.269Z</time>
      </trkpt>
      <trkpt lat="64.84716" lon="11.52499">
        <ele>36.30785</ele>
        <time>2020-08-11T13:36:18.274Z</time>
      </trkpt>
      <trkpt lat="64.84721" lon="11.52523">
        <ele>36.628332</ele>
        <time>2020-08-11T13:36:20.299Z</time>
      </trkpt>
      <trkpt lat="64.84727" lon="11.52547">
        <ele>36.96085</ele>
        <time>2020-08-11T13:36:22.274Z</time>
      </trkpt>
      <trkpt lat="64.84733" lon="11.5257">
        <ele>37.278467</ele>
        <time>2020-08-11T13:36:24.284Z</time>
      </trkpt>
      <trkpt lat="64.84739" lon="11.52592">
        <ele>37.602435</ele>
        <time>2020-08-11T13:36:26.274Z</time>
      </trkpt>
      <trkpt lat="64.84746" lon="11.52615">
        <ele>37.931728</ele>
        <time>2020-08-11T13:36:28.280Z</time>
      </trkpt>
      <trkpt lat="64.84752" lon="11.52636">
        <ele>38.276596</ele>
        <time>2020-08-11T13:36:30.273Z</time>
      </trkpt>
      <trkpt lat="64.84758" lon="11.52655">
        <ele>38.68086</ele>
        <time>2020-08-11T13:36:32.293Z</time>
      </trkpt>
      <trkpt lat="64.84764" lon="11.52675">
        <ele>39.090061</ele>
        <time>2020-08-11T13:36:34.280Z</time>
      </trkpt>
      <trkpt lat="64.84769" lon="11.52695">
        <ele>39.475035</ele>
        <time>2020-08-11T13:36:36.266Z</time>
      </trkpt>
      <trkpt lat="64.84774" lon="11.52713">
        <ele>39.842187</ele>
        <time>2020-08-11T13:36:38.294Z</time>
      </trkpt>
      <trkpt lat="64.84779" lon="11.52733">
        <ele>40.249981</ele>
        <time>2020-08-11T13:36:40.288Z</time>
      </trkpt>
      <trkpt lat="64.84786" lon="11.52756">
        <ele>40.708205</ele>
        <time>2020-08-11T13:36:42.264Z</time>
      </trkpt>
      <trkpt lat="64.84791" lon="11.52777">
        <ele>41.112001</ele>
        <time>2020-08-11T13:36:44.304Z</time>
      </trkpt>
      <trkpt lat="64.84795" lon="11.52799">
        <ele>41.51583</ele>
        <time>2020-08-11T13:36:46.273Z</time>
      </trkpt>
      <trkpt lat="64.84797" lon="11.52824">
        <ele>41.958676</ele>
        <time>2020-08-11T13:36:48.315Z</time>
      </trkpt>
      <trkpt lat="64.84799" lon="11.52851">
        <ele>42.423764</ele>
        <time>2020-08-11T13:36:50.290Z</time>
      </trkpt>
      <trkpt lat="64.84801" lon="11.5288">
        <ele>42.915033</ele>
        <time>2020-08-11T13:36:52.279Z</time>
      </trkpt>
      <trkpt lat="64.84803" lon="11.52907">
        <ele>43.3806</ele>
        <time>2020-08-11T13:36:54.290Z</time>
      </trkpt>
      <trkpt lat="64.84808" lon="11.52932">
        <ele>43.839135</ele>
        <time>2020-08-11T13:36:56.293Z</time>
      </trkpt>
      <trkpt lat="64.84811" lon="11.52957">
        <ele>44.280864</ele>
        <time>2020-08-11T13:36:58.271Z</time>
      </trkpt>
      <trkpt lat="64.84813" lon="11.52985">
        <ele>44.749504</ele>
        <time>2020-08-11T13:37:00.311Z</time>
      </trkpt>
      <trkpt lat="64.84815" lon="11.53011">
        <ele>45.199379</ele>
        <time>2020-08-11T13:37:02.287Z</time>
      </trkpt>
      <trkpt lat="64.84819" lon="11.53035">
        <ele>45.363003</ele>
        <time>2020-08-11T13:37:04.269Z</time>
      </trkpt>
      <trkpt lat="64.84823" lon="11.53057">
        <ele>45.457529</ele>
        <time>2020-08-11T13:37:06.259Z</time>
      </trkpt>
      <trkpt lat="64.84827" lon="11.5308">
        <ele>45.550297</ele>
        <time>2020-08-11T13:37:08.287Z</time>
      </trkpt>
      <trkpt lat="64.84831" lon="11.53102">
        <ele>45.64234</ele>
        <time>2020-08-11T13:37:10.291Z</time>
      </trkpt>
      <trkpt lat="64.84835" lon="11.53124">
        <ele>45.73685</ele>
        <time>2020-08-11T13:37:12.273Z</time>
      </trkpt>
      <trkpt lat="64.8484" lon="11.53147">
        <ele>45.834214</ele>
        <time>2020-08-11T13:37:14.300Z</time>
      </trkpt>
      <trkpt lat="64.84845" lon="11.53169">
        <ele>45.928332</ele>
        <time>2020-08-11T13:37:16.262Z</time>
      </trkpt>
      <trkpt lat="64.84851" lon="11.53187">
        <ele>46.018654</ele>
        <time>2020-08-11T13:37:18.305Z</time>
      </trkpt>
      <trkpt lat="64.84858" lon="11.53204">
        <ele>46.107171</ele>
        <time>2020-08-11T13:37:20.267Z</time>
      </trkpt>
      <trkpt lat="64.84866" lon="11.53218">
        <ele>46.201821</ele>
        <time>2020-08-11T13:37:22.273Z</time>
      </trkpt>
      <trkpt lat="64.84876" lon="11.53231">
        <ele>46.302684</ele>
        <time>2020-08-11T13:37:24.273Z</time>
      </trkpt>
      <trkpt lat="64.84887" lon="11.53243">
        <ele>46.410212</ele>
        <time>2020-08-11T13:37:26.274Z</time>
      </trkpt>
      <trkpt lat="64.84897" lon="11.53251">
        <ele>46.508972</ele>
        <time>2020-08-11T13:37:28.298Z</time>
      </trkpt>
      <trkpt lat="64.84907" lon="11.53257">
        <ele>46.597782</ele>
        <time>2020-08-11T13:37:30.271Z</time>
      </trkpt>
      <trkpt lat="64.84916" lon="11.53261">
        <ele>46.683153</ele>
        <time>2020-08-11T13:37:32.275Z</time>
      </trkpt>
      <trkpt lat="64.84926" lon="11.53265">
        <ele>46.76934</ele>
        <time>2020-08-11T13:37:34.275Z</time>
      </trkpt>
      <trkpt lat="64.84935" lon="11.53271">
        <ele>46.852803</ele>
        <time>2020-08-11T13:37:36.279Z</time>
      </trkpt>
      <trkpt lat="64.84944" lon="11.53277">
        <ele>46.838157</ele>
        <time>2020-08-11T13:37:38.309Z</time>
      </trkpt>
      <trkpt lat="64.84953" lon="11.53283">
        <ele>46.645437</ele>
        <time>2020-08-11T13:37:40.282Z</time>
      </trkpt>
      <trkpt lat="64.84963" lon="11.5329">
        <ele>46.440048</ele>
        <time>2020-08-11T13:37:42.270Z</time>
      </trkpt>
      <trkpt lat="64.84973" lon="11.53299">
        <ele>46.233282</ele>
        <time>2020-08-11T13:37:44.273Z</time>
      </trkpt>
      <trkpt lat="64.84983" lon="11.53307">
        <ele>46.018381</ele>
        <time>2020-08-11T13:37:46.273Z</time>
      </trkpt>
      <trkpt lat="64.84995" lon="11.53315">
        <ele>45.787417</ele>
        <time>2020-08-11T13:37:48.275Z</time>
      </trkpt>
      <trkpt lat="64.85006" lon="11.53321">
        <ele>45.553785</ele>
        <time>2020-08-11T13:37:50.276Z</time>
      </trkpt>
      <trkpt lat="64.85018" lon="11.53328">
        <ele>45.315757</ele>
        <time>2020-08-11T13:37:52.307Z</time>
      </trkpt>
      <trkpt lat="64.8503" lon="11.53336">
        <ele>45.082167</ele>
        <time>2020-08-11T13:37:54.294Z</time>
      </trkpt>
      <trkpt lat="64.8504" lon="11.53344">
        <ele>44.857956</ele>
        <time>2020-08-11T13:37:56.275Z</time>
      </trkpt>
      <trkpt lat="64.85051" lon="11.53352">
        <ele>44.639851</ele>
        <time>2020-08-11T13:37:58.270Z</time>
      </trkpt>
      <trkpt lat="64.85061" lon="11.53359">
        <ele>44.43425</ele>
        <time>2020-08-11T13:38:00.270Z</time>
      </trkpt>
      <trkpt lat="64.85071" lon="11.53364">
        <ele>44.234949</ele>
        <time>2020-08-11T13:38:02.280Z</time>
      </trkpt>
      <trkpt lat="64.8508" lon="11.5337">
        <ele>44.045564</ele>
        <time>2020-08-11T13:38:04.272Z</time>
      </trkpt>
      <trkpt lat="64.8509" lon="11.53377">
        <ele>43.850767</ele>
        <time>2020-08-11T13:38:06.279Z</time>
      </trkpt>
      <trkpt lat="64.851" lon="11.53382">
        <ele>43.652025</ele>
        <time>2020-08-11T13:38:08.288Z</time>
      </trkpt>
      <trkpt lat="64.85109" lon="11.53388">
        <ele>43.460342</ele>
        <time>2020-08-11T13:38:10.269Z</time>
      </trkpt>
      <trkpt lat="64.85119" lon="11.53393">
        <ele>43.253764</ele>
        <time>2020-08-11T13:38:12.267Z</time>
      </trkpt>
      <trkpt lat="64.85128" lon="11.534">
        <ele>43.047356</ele>
        <time>2020-08-11T13:38:14.284Z</time>
      </trkpt>
      <trkpt lat="64.85136" lon="11.53407">
        <ele>42.842224</ele>
        <time>2020-08-11T13:38:16.292Z</time>
      </trkpt>
      <trkpt lat="64.85145" lon="11.53414">
        <ele>42.636772</ele>
        <time>2020-08-11T13:38:18.268Z</time>
      </trkpt>
      <trkpt lat="64.85154" lon="11.53422">
        <ele>42.425352</ele>
        <time>2020-08-11T13:38:20.264Z</time>
      </trkpt>
      <trkpt lat="64.85163" lon="11.53431">
        <ele>42.215546</ele>
        <time>2020-08-11T13:38:22.299Z</time>
      </trkpt>
      <trkpt lat="64.85171" lon="11.53442">
        <ele>41.994246</ele>
        <time>2020-08-11T13:38:24.277Z</time>
      </trkpt>
      <trkpt lat="64.8518" lon="11.53455">
        <ele>41.773065</ele>
        <time>2020-08-11T13:38:26.262Z</time>
      </trkpt>
      <trkpt lat="64.85187" lon="11.5347">
        <ele>41.5638</ele>
        <time>2020-08-11T13:38:28.283Z</time>
      </trkpt>
      <trkpt lat="64.85194" lon="11.53486">
        <ele>41.346064</ele>
        <time>2020-08-11T13:38:30.280Z</time>
      </trkpt>
      <trkpt lat="64.85201" lon="11.53502">
        <ele>41.12548</ele>
        <time>2020-08-11T13:38:32.264Z</time>
      </trkpt>
      <trkpt lat="64.85208" lon="11.53519">
        <ele>40.900286</ele>
        <time>2020-08-11T13:38:34.269Z</time>
      </trkpt>
      <trkpt lat="64.85215" lon="11.53537">
        <ele>40.673744</ele>
        <time>2020-08-11T13:38:36.264Z</time>
      </trkpt>
      <trkpt lat="64.85221" lon="11.53556">
        <ele>40.452862</ele>
        <time>2020-08-11T13:38:38.285Z</time>
      </trkpt>
      <trkpt lat="64.85227" lon="11.53574">
        <ele>40.233225</ele>
        <time>2020-08-11T13:38:40.288Z</time>
      </trkpt>
      <trkpt lat="64.85233" lon="11.53593">
        <ele>40.008745</ele>
        <time>2020-08-11T13:38:42.274Z</time>
      </trkpt>
      <trkpt lat="64.85239" lon="11.53611">
        <ele>39.782875</ele>
        <time>2020-08-11T13:38:44.278Z</time>
      </trkpt>
      <trkpt lat="64.85246" lon="11.53632">
        <ele>39.54564</ele>
        <time>2020-08-11T13:38:46.293Z</time>
      </trkpt>
      <trkpt lat="64.85252" lon="11.53653">
        <ele>39.362071</ele>
        <time>2020-08-11T13:38:48.272Z</time>
      </trkpt>
      <trkpt lat="64.85259" lon="11.53673">
        <ele>39.288168</ele>
        <time>2020-08-11T13:38:50.289Z</time>
      </trkpt>
      <trkpt lat="64.85266" lon="11.53693">
        <ele>39.2162</ele>
        <time>2020-08-11T13:38:52.289Z</time>
      </trkpt>
      <trkpt lat="64.85274" lon="11.53712">
        <ele>39.143573</ele>
        <time>2020-08-11T13:38:54.318Z</time>
      </trkpt>
      <trkpt lat="64.85281" lon="11.5373">
        <ele>39.072447</ele>
        <time>2020-08-11T13:38:56.263Z</time>
      </trkpt>
      <trkpt lat="64.85289" lon="11.53747">
        <ele>39.001355</ele>
        <time>2020-08-11T13:38:58.271Z</time>
      </trkpt>
      <trkpt lat="64.85297" lon="11.53763">
        <ele>38.92953</ele>
        <time>2020-08-11T13:39:00.276Z</time>
      </trkpt>
      <trkpt lat="64.85306" lon="11.53778">
        <ele>38.859011</ele>
        <time>2020-08-11T13:39:02.257Z</time>
      </trkpt>
      <trkpt lat="64.85315" lon="11.53791">
        <ele>38.788413</ele>
        <time>2020-08-11T13:39:04.272Z</time>
      </trkpt>
      <trkpt lat="64.85324" lon="11.53804">
        <ele>38.71757</ele>
        <time>2020-08-11T13:39:06.274Z</time>
      </trkpt>
      <trkpt lat="64.85334" lon="11.53814">
        <ele>38.648615</ele>
        <time>2020-08-11T13:39:08.283Z</time>
      </trkpt>
      <trkpt lat="64.85343" lon="11.53823">
        <ele>38.581212</ele>
        <time>2020-08-11T13:39:10.304Z</time>
      </trkpt>
      <trkpt lat="64.85353" lon="11.53833">
        <ele>38.511768</ele>
        <time>2020-08-11T13:39:12.294Z</time>
      </trkpt>
      <trkpt lat="64.85362" lon="11.53844">
        <ele>38.443415</ele>
        <time>2020-08-11T13:39:14.263Z</time>
      </trkpt>
      <trkpt lat="64.85371" lon="11.53856">
        <ele>38.373425</ele>
        <time>2020-08-11T13:39:16.273Z</time>
      </trkpt>
      <trkpt lat="64.85381" lon="11.53869">
        <ele>38.301857</ele>
        <time>2020-08-11T13:39:18.280Z</time>
      </trkpt>
      <trkpt lat="64.85389" lon="11.53884">
        <ele>38.232634</ele>
        <time>2020-08-11T13:39:20.279Z</time>
      </trkpt>
      <trkpt lat="64.85397" lon="11.53901">
        <ele>38.246165</ele>
        <time>2020-08-11T13:39:22.288Z</time>
      </trkpt>
      <trkpt lat="64.85404" lon="11.53918">
        <ele>38.343301</ele>
        <time>2020-08-11T13:39:24.283Z</time>
      </trkpt>
      <trkpt lat="64.85411" lon="11.53936">
        <ele>38.4411</ele>
        <time>2020-08-11T13:39:26.303Z</time>
      </trkpt>
      <trkpt lat="64.85418" lon="11.53955">
        <ele>38.538499</ele>
        <time>2020-08-11T13:39:28.278Z</time>
      </trkpt>
      <trkpt lat="64.85423" lon="11.53975">
        <ele>38.635281</ele>
        <time>2020-08-11T13:39:30.306Z</time>
      </trkpt>
      <trkpt lat="64.85429" lon="11.53996">
        <ele>38.736096</ele>
        <time>2020-08-11T13:39:32.279Z</time>
      </trkpt>
      <trkpt lat="64.85434" lon="11.54019">
        <ele>38.838323</ele>
        <time>2020-08-11T13:39:34.283Z</time>
      </trkpt>
      <trkpt lat="64.85439" lon="11.54042">
        <ele>38.941917</ele>
        <time>2020-08-11T13:39:36.261Z</time>
      </trkpt>
      <trkpt lat="64.85443" lon="11.54067">
        <ele>39.048459</ele>
        <time>2020-08-11T13:39:38.288Z</time>
      </trkpt>
      <trkpt lat="64.85448" lon="11.5409">
        <ele>39.151728</ele>
        <time>2020-08-11T13:39:40.284Z</time>
      </trkpt>
      <trkpt lat="64.85454" lon="11.54114">
        <ele>39.258809</ele>
        <time>2020-08-11T13:39:42.297Z</time>
      </trkpt>
      <trkpt lat="64.85458" lon="11.54137">
        <ele>39.360234</ele>
        <time>2020-08-11T13:39:44.283Z</time>
      </trkpt>
      <trkpt lat="64.85463" lon="11.54161">
        <ele>39.466032</ele>
        <time>2020-08-11T13:39:46.271Z</time>
      </trkpt>
      <trkpt lat="64.85467" lon="11.54185">
        <ele>39.567424</ele>
        <time>2020-08-11T13:39:48.321Z</time>
      </trkpt>
      <trkpt lat="64.85471" lon="11.54209">
        <ele>39.672573</ele>
        <time>2020-08-11T13:39:50.286Z</time>
      </trkpt>
      <trkpt lat="64.85476" lon="11.54231">
        <ele>39.77367</ele>
        <time>2020-08-11T13:39:52.301Z</time>
      </trkpt>
      <trkpt lat="64.85481" lon="11.54254">
        <ele>39.873686</ele>
        <time>2020-08-11T13:39:54.278Z</time>
      </trkpt>
      <trkpt lat="64.85485" lon="11.54277">
        <ele>39.931257</ele>
        <time>2020-08-11T13:39:56.313Z</time>
      </trkpt>
      <trkpt lat="64.8549" lon="11.54301">
        <ele>39.982264</ele>
        <time>2020-08-11T13:39:58.266Z</time>
      </trkpt>
      <trkpt lat="64.85495" lon="11.54325">
        <ele>40.034692</ele>
        <time>2020-08-11T13:40:00.298Z</time>
      </trkpt>
      <trkpt lat="64.85499" lon="11.54349">
        <ele>40.086594</ele>
        <time>2020-08-11T13:40:02.262Z</time>
      </trkpt>
      <trkpt lat="64.85504" lon="11.54372">
        <ele>40.137446</ele>
        <time>2020-08-11T13:40:04.281Z</time>
      </trkpt>
      <trkpt lat="64.85509" lon="11.54395">
        <ele>40.188151</ele>
        <time>2020-08-11T13:40:06.318Z</time>
      </trkpt>
      <trkpt lat="64.85513" lon="11.54418">
        <ele>40.238388</ele>
        <time>2020-08-11T13:40:08.302Z</time>
      </trkpt>
      <trkpt lat="64.85518" lon="11.5444">
        <ele>40.287208</ele>
        <time>2020-08-11T13:40:10.298Z</time>
      </trkpt>
      <trkpt lat="64.85522" lon="11.54463">
        <ele>40.337261</ele>
        <time>2020-08-11T13:40:12.273Z</time>
      </trkpt>
      <trkpt lat="64.85526" lon="11.54487">
        <ele>40.38877</ele>
        <time>2020-08-11T13:40:14.265Z</time>
      </trkpt>
      <trkpt lat="64.85531" lon="11.54511">
        <ele>40.440297</ele>
        <time>2020-08-11T13:40:16.265Z</time>
      </trkpt>
      <trkpt lat="64.85536" lon="11.54534">
        <ele>40.491565</ele>
        <time>2020-08-11T13:40:18.292Z</time>
      </trkpt>
      <trkpt lat="64.85541" lon="11.54557">
        <ele>40.542555</ele>
        <time>2020-08-11T13:40:20.284Z</time>
      </trkpt>
      <trkpt lat="64.85547" lon="11.54577">
        <ele>40.590867</ele>
        <time>2020-08-11T13:40:22.298Z</time>
      </trkpt>
      <trkpt lat="64.85554" lon="11.54596">
        <ele>40.640191</ele>
        <time>2020-08-11T13:40:24.277Z</time>
      </trkpt>
      <trkpt lat="64.85561" lon="11.54615">
        <ele>40.689172</ele>
        <time>2020-08-11T13:40:26.276Z</time>
      </trkpt>
      <trkpt lat="64.85567" lon="11.54633">
        <ele>40.779328</ele>
        <time>2020-08-11T13:40:28.315Z</time>
      </trkpt>
      <trkpt lat="64.85575" lon="11.54651">
        <ele>40.989358</ele>
        <time>2020-08-11T13:40:30.260Z</time>
      </trkpt>
      <trkpt lat="64.85584" lon="11.54667">
        <ele>41.210403</ele>
        <time>2020-08-11T13:40:32.272Z</time>
      </trkpt>
      <trkpt lat="64.85593" lon="11.54682">
        <ele>41.426506</ele>
        <time>2020-08-11T13:40:34.263Z</time>
      </trkpt>
      <trkpt lat="64.85601" lon="11.54697">
        <ele>41.639533</ele>
        <time>2020-08-11T13:40:36.285Z</time>
      </trkpt>
      <trkpt lat="64.85611" lon="11.5471">
        <ele>41.853179</ele>
        <time>2020-08-11T13:40:38.268Z</time>
      </trkpt>
      <trkpt lat="64.85619" lon="11.54723">
        <ele>42.056529</ele>
        <time>2020-08-11T13:40:40.269Z</time>
      </trkpt>
      <trkpt lat="64.85627" lon="11.54735">
        <ele>42.248907</ele>
        <time>2020-08-11T13:40:42.283Z</time>
      </trkpt>
      <trkpt lat="64.85635" lon="11.54747">
        <ele>42.435364</ele>
        <time>2020-08-11T13:40:44.288Z</time>
      </trkpt>
      <trkpt lat="64.85643" lon="11.54759">
        <ele>42.61957</ele>
        <time>2020-08-11T13:40:46.290Z</time>
      </trkpt>
      <trkpt lat="64.85652" lon="11.5477">
        <ele>42.817961</ele>
        <time>2020-08-11T13:40:48.288Z</time>
      </trkpt>
      <trkpt lat="64.85661" lon="11.5478">
        <ele>43.017478</ele>
        <time>2020-08-11T13:40:50.277Z</time>
      </trkpt>
      <trkpt lat="64.8567" lon="11.5479">
        <ele>43.211274</ele>
        <time>2020-08-11T13:40:52.271Z</time>
      </trkpt>
      <trkpt lat="64.85678" lon="11.54799">
        <ele>43.390697</ele>
        <time>2020-08-11T13:40:54.281Z</time>
      </trkpt>
      <trkpt lat="64.8569" lon="11.54813">
        <ele>43.655851</ele>
        <time>2020-08-11T13:40:57.297Z</time>
      </trkpt>
      <trkpt lat="64.85702" lon="11.54829">
        <ele>43.922929</ele>
        <time>2020-08-11T13:41:00.274Z</time>
      </trkpt>
      <trkpt lat="64.8571" lon="11.54839">
        <ele>44.102432</ele>
        <time>2020-08-11T13:41:02.270Z</time>
      </trkpt>
      <trkpt lat="64.85718" lon="11.5485">
        <ele>44.290735</ele>
        <time>2020-08-11T13:41:04.288Z</time>
      </trkpt>
      <trkpt lat="64.85726" lon="11.54862">
        <ele>44.234088</ele>
        <time>2020-08-11T13:41:06.273Z</time>
      </trkpt>
      <trkpt lat="64.85734" lon="11.54875">
        <ele>44.179126</ele>
        <time>2020-08-11T13:41:08.263Z</time>
      </trkpt>
      <trkpt lat="64.85741" lon="11.54892">
        <ele>44.119113</ele>
        <time>2020-08-11T13:41:10.281Z</time>
      </trkpt>
      <trkpt lat="64.85749" lon="11.54911">
        <ele>44.056887</ele>
        <time>2020-08-11T13:41:12.272Z</time>
      </trkpt>
      <trkpt lat="64.85755" lon="11.54931">
        <ele>43.994444</ele>
        <time>2020-08-11T13:41:14.273Z</time>
      </trkpt>
      <trkpt lat="64.85761" lon="11.54952">
        <ele>43.932583</ele>
        <time>2020-08-11T13:41:16.264Z</time>
      </trkpt>
      <trkpt lat="64.85766" lon="11.54976">
        <ele>43.865012</ele>
        <time>2020-08-11T13:41:18.311Z</time>
      </trkpt>
      <trkpt lat="64.85771" lon="11.55002">
        <ele>43.797148</ele>
        <time>2020-08-11T13:41:20.305Z</time>
      </trkpt>
      <trkpt lat="64.85774" lon="11.55028">
        <ele>43.73135</ele>
        <time>2020-08-11T13:41:22.292Z</time>
      </trkpt>
      <trkpt lat="64.85777" lon="11.55053">
        <ele>43.666029</ele>
        <time>2020-08-11T13:41:24.287Z</time>
      </trkpt>
      <trkpt lat="64.85781" lon="11.55077">
        <ele>43.603126</ele>
        <time>2020-08-11T13:41:26.304Z</time>
      </trkpt>
      <trkpt lat="64.85784" lon="11.55102">
        <ele>43.538121</ele>
        <time>2020-08-11T13:41:28.276Z</time>
      </trkpt>
      <trkpt lat="64.85788" lon="11.55127">
        <ele>43.472927</ele>
        <time>2020-08-11T13:41:30.272Z</time>
      </trkpt>
      <trkpt lat="64.85791" lon="11.55151">
        <ele>43.410827</ele>
        <time>2020-08-11T13:41:32.275Z</time>
      </trkpt>
      <trkpt lat="64.85795" lon="11.55172">
        <ele>43.354492</ele>
        <time>2020-08-11T13:41:34.317Z</time>
      </trkpt>
      <trkpt lat="64.85798" lon="11.55194">
        <ele>43.298126</ele>
        <time>2020-08-11T13:41:36.297Z</time>
      </trkpt>
      <trkpt lat="64.85802" lon="11.55216">
        <ele>43.229425</ele>
        <time>2020-08-11T13:41:38.318Z</time>
      </trkpt>
      <trkpt lat="64.85805" lon="11.55238">
        <ele>43.096009</ele>
        <time>2020-08-11T13:41:40.309Z</time>
      </trkpt>
      <trkpt lat="64.85809" lon="11.5526">
        <ele>42.956805</ele>
        <time>2020-08-11T13:41:42.271Z</time>
      </trkpt>
      <trkpt lat="64.85815" lon="11.55281">
        <ele>42.813511</ele>
        <time>2020-08-11T13:41:44.298Z</time>
      </trkpt>
      <trkpt lat="64.85821" lon="11.55303">
        <ele>42.666258</ele>
        <time>2020-08-11T13:41:46.276Z</time>
      </trkpt>
      <trkpt lat="64.85827" lon="11.55324">
        <ele>42.522978</ele>
        <time>2020-08-11T13:41:48.268Z</time>
      </trkpt>
      <trkpt lat="64.85833" lon="11.55343">
        <ele>42.385269</ele>
        <time>2020-08-11T13:41:50.276Z</time>
      </trkpt>
      <trkpt lat="64.85839" lon="11.55362">
        <ele>42.251116</ele>
        <time>2020-08-11T13:41:52.288Z</time>
      </trkpt>
      <trkpt lat="64.85845" lon="11.55379">
        <ele>42.118928</ele>
        <time>2020-08-11T13:41:54.274Z</time>
      </trkpt>
      <trkpt lat="64.85851" lon="11.55397">
        <ele>41.989298</ele>
        <time>2020-08-11T13:41:56.300Z</time>
      </trkpt>
      <trkpt lat="64.85857" lon="11.55415">
        <ele>41.862151</ele>
        <time>2020-08-11T13:41:58.295Z</time>
      </trkpt>
      <trkpt lat="64.85863" lon="11.55432">
        <ele>41.735629</ele>
        <time>2020-08-11T13:42:00.277Z</time>
      </trkpt>
      <trkpt lat="64.85869" lon="11.55449">
        <ele>41.605552</ele>
        <time>2020-08-11T13:42:02.299Z</time>
      </trkpt>
      <trkpt lat="64.85874" lon="11.55468">
        <ele>41.47535</ele>
        <time>2020-08-11T13:42:04.262Z</time>
      </trkpt>
      <trkpt lat="64.8588" lon="11.55487">
        <ele>41.346383</ele>
        <time>2020-08-11T13:42:06.283Z</time>
      </trkpt>
      <trkpt lat="64.85885" lon="11.55504">
        <ele>41.223951</ele>
        <time>2020-08-11T13:42:08.276Z</time>
      </trkpt>
      <trkpt lat="64.85893" lon="11.55528">
        <ele>41.046232</ele>
        <time>2020-08-11T13:42:11.291Z</time>
      </trkpt>
      <trkpt lat="64.85901" lon="11.55553">
        <ele>40.872742</ele>
        <time>2020-08-11T13:42:14.288Z</time>
      </trkpt>
      <trkpt lat="64.85908" lon="11.55576">
        <ele>40.925086</ele>
        <time>2020-08-11T13:42:17.290Z</time>
      </trkpt>
      <trkpt lat="64.85915" lon="11.556">
        <ele>41.069641</ele>
        <time>2020-08-11T13:42:20.280Z</time>
      </trkpt>
      <trkpt lat="64.85923" lon="11.55623">
        <ele>41.215966</ele>
        <time>2020-08-11T13:42:23.302Z</time>
      </trkpt>
      <trkpt lat="64.85931" lon="11.55648">
        <ele>41.370579</ele>
        <time>2020-08-11T13:42:26.272Z</time>
      </trkpt>
      <trkpt lat="64.85938" lon="11.55673">
        <ele>41.521382</ele>
        <time>2020-08-11T13:42:29.268Z</time>
      </trkpt>
      <trkpt lat="64.85943" lon="11.55691">
        <ele>41.628583</ele>
        <time>2020-08-11T13:42:31.297Z</time>
      </trkpt>
      <trkpt lat="64.85948" lon="11.55709">
        <ele>41.737912</ele>
        <time>2020-08-11T13:42:33.280Z</time>
      </trkpt>
      <trkpt lat="64.85953" lon="11.55728">
        <ele>41.851211</ele>
        <time>2020-08-11T13:42:35.289Z</time>
      </trkpt>
      <trkpt lat="64.85959" lon="11.55748">
        <ele>41.968092</ele>
        <time>2020-08-11T13:42:37.282Z</time>
      </trkpt>
      <trkpt lat="64.85964" lon="11.55769">
        <ele>42.09084</ele>
        <time>2020-08-11T13:42:39.281Z</time>
      </trkpt>
      <trkpt lat="64.8597" lon="11.55791">
        <ele>42.220325</ele>
        <time>2020-08-11T13:42:41.288Z</time>
      </trkpt>
      <trkpt lat="64.85976" lon="11.55814">
        <ele>42.349449</ele>
        <time>2020-08-11T13:42:43.280Z</time>
      </trkpt>
      <trkpt lat="64.85982" lon="11.55837">
        <ele>42.487148</ele>
        <time>2020-08-11T13:42:45.276Z</time>
      </trkpt>
      <trkpt lat="64.85987" lon="11.55861">
        <ele>42.624639</ele>
        <time>2020-08-11T13:42:47.302Z</time>
      </trkpt>
      <trkpt lat="64.85993" lon="11.55885">
        <ele>42.760689</ele>
        <time>2020-08-11T13:42:49.280Z</time>
      </trkpt>
      <trkpt lat="64.85999" lon="11.55909">
        <ele>42.896874</ele>
        <time>2020-08-11T13:42:51.312Z</time>
      </trkpt>
      <trkpt lat="64.86005" lon="11.55932">
        <ele>42.841786</ele>
        <time>2020-08-11T13:42:53.275Z</time>
      </trkpt>
      <trkpt lat="64.86011" lon="11.55955">
        <ele>42.720118</ele>
        <time>2020-08-11T13:42:55.291Z</time>
      </trkpt>
      <trkpt lat="64.86017" lon="11.55977">
        <ele>42.596105</ele>
        <time>2020-08-11T13:42:57.264Z</time>
      </trkpt>
      <trkpt lat="64.86023" lon="11.56">
        <ele>42.47152</ele>
        <time>2020-08-11T13:42:59.282Z</time>
      </trkpt>
      <trkpt lat="64.86029" lon="11.56023">
        <ele>42.349028</ele>
        <time>2020-08-11T13:43:01.291Z</time>
      </trkpt>
      <trkpt lat="64.86035" lon="11.56048">
        <ele>42.219349</ele>
        <time>2020-08-11T13:43:03.287Z</time>
      </trkpt>
      <trkpt lat="64.86041" lon="11.56073">
        <ele>42.086317</ele>
        <time>2020-08-11T13:43:05.267Z</time>
      </trkpt>
      <trkpt lat="64.86047" lon="11.56097">
        <ele>41.95651</ele>
        <time>2020-08-11T13:43:07.296Z</time>
      </trkpt>
      <trkpt lat="64.86053" lon="11.56123">
        <ele>41.817459</ele>
        <time>2020-08-11T13:43:09.296Z</time>
      </trkpt>
      <trkpt lat="64.8606" lon="11.56149">
        <ele>41.677459</ele>
        <time>2020-08-11T13:43:11.302Z</time>
      </trkpt>
      <trkpt lat="64.86066" lon="11.56175">
        <ele>41.541767</ele>
        <time>2020-08-11T13:43:13.296Z</time>
      </trkpt>
      <trkpt lat="64.86072" lon="11.56201">
        <ele>41.405004</ele>
        <time>2020-08-11T13:43:15.289Z</time>
      </trkpt>
      <trkpt lat="64.86079" lon="11.56226">
        <ele>41.266233</ele>
        <time>2020-08-11T13:43:17.277Z</time>
      </trkpt>
      <trkpt lat="64.86085" lon="11.56252">
        <ele>41.131992</ele>
        <time>2020-08-11T13:43:19.278Z</time>
      </trkpt>
      <trkpt lat="64.86091" lon="11.56277">
        <ele>41.000403</ele>
        <time>2020-08-11T13:43:21.291Z</time>
      </trkpt>
      <trkpt lat="64.86097" lon="11.563">
        <ele>41.145028</ele>
        <time>2020-08-11T13:43:23.275Z</time>
      </trkpt>
      <trkpt lat="64.86103" lon="11.56323">
        <ele>41.335389</ele>
        <time>2020-08-11T13:43:25.286Z</time>
      </trkpt>
      <trkpt lat="64.8611" lon="11.56345">
        <ele>41.520651</ele>
        <time>2020-08-11T13:43:27.273Z</time>
      </trkpt>
      <trkpt lat="64.86117" lon="11.56365">
        <ele>41.704596</ele>
        <time>2020-08-11T13:43:29.324Z</time>
      </trkpt>
      <trkpt lat="64.86125" lon="11.56383">
        <ele>41.88311</ele>
        <time>2020-08-11T13:43:31.282Z</time>
      </trkpt>
      <trkpt lat="64.86133" lon="11.564">
        <ele>42.0608</ele>
        <time>2020-08-11T13:43:33.320Z</time>
      </trkpt>
      <trkpt lat="64.86141" lon="11.56416">
        <ele>42.242867</ele>
        <time>2020-08-11T13:43:35.284Z</time>
      </trkpt>
      <trkpt lat="64.8615" lon="11.5643">
        <ele>42.420114</ele>
        <time>2020-08-11T13:43:37.284Z</time>
      </trkpt>
      <trkpt lat="64.8616" lon="11.56442">
        <ele>42.603086</ele>
        <time>2020-08-11T13:43:39.277Z</time>
      </trkpt>
      <trkpt lat="64.8617" lon="11.56455">
        <ele>42.782836</ele>
        <time>2020-08-11T13:43:41.277Z</time>
      </trkpt>
      <trkpt lat="64.86179" lon="11.56467">
        <ele>42.949358</ele>
        <time>2020-08-11T13:43:43.298Z</time>
      </trkpt>
      <trkpt lat="64.86187" lon="11.56478">
        <ele>43.109529</ele>
        <time>2020-08-11T13:43:45.263Z</time>
      </trkpt>
      <trkpt lat="64.86195" lon="11.56491">
        <ele>43.256119</ele>
        <time>2020-08-11T13:43:47.285Z</time>
      </trkpt>
      <trkpt lat="64.86204" lon="11.56507">
        <ele>43.449018</ele>
        <time>2020-08-11T13:43:50.269Z</time>
      </trkpt>
      <trkpt lat="64.86212" lon="11.56523">
        <ele>43.62165</ele>
        <time>2020-08-11T13:43:53.277Z</time>
      </trkpt>
      <trkpt lat="64.8622" lon="11.56541">
        <ele>43.804998</ele>
        <time>2020-08-11T13:43:56.274Z</time>
      </trkpt>
      <trkpt lat="64.86228" lon="11.56559">
        <ele>43.894882</ele>
        <time>2020-08-11T13:43:59.280Z</time>
      </trkpt>
      <trkpt lat="64.86236" lon="11.56579">
        <ele>43.792011</ele>
        <time>2020-08-11T13:44:02.281Z</time>
      </trkpt>
      <trkpt lat="64.86244" lon="11.566">
        <ele>43.680037</ele>
        <time>2020-08-11T13:44:05.295Z</time>
      </trkpt>
      <trkpt lat="64.8625" lon="11.56616">
        <ele>43.596501</ele>
        <time>2020-08-11T13:44:07.275Z</time>
      </trkpt>
      <trkpt lat="64.86257" lon="11.56632">
        <ele>43.509028</ele>
        <time>2020-08-11T13:44:09.261Z</time>
      </trkpt>
      <trkpt lat="64.86264" lon="11.56649">
        <ele>43.415524</ele>
        <time>2020-08-11T13:44:11.292Z</time>
      </trkpt>
      <trkpt lat="64.86272" lon="11.56668">
        <ele>43.314524</ele>
        <time>2020-08-11T13:44:13.294Z</time>
      </trkpt>
      <trkpt lat="64.8628" lon="11.56688">
        <ele>43.209433</ele>
        <time>2020-08-11T13:44:15.272Z</time>
      </trkpt>
      <trkpt lat="64.86288" lon="11.56708">
        <ele>43.102153</ele>
        <time>2020-08-11T13:44:17.293Z</time>
      </trkpt>
      <trkpt lat="64.86296" lon="11.56728">
        <ele>42.99697</ele>
        <time>2020-08-11T13:44:19.312Z</time>
      </trkpt>
      <trkpt lat="64.86303" lon="11.56748">
        <ele>42.892409</ele>
        <time>2020-08-11T13:44:21.281Z</time>
      </trkpt>
      <trkpt lat="64.86311" lon="11.56767">
        <ele>42.792262</ele>
        <time>2020-08-11T13:44:23.271Z</time>
      </trkpt>
      <trkpt lat="64.86318" lon="11.56786">
        <ele>42.694568</ele>
        <time>2020-08-11T13:44:25.279Z</time>
      </trkpt>
      <trkpt lat="64.86325" lon="11.56806">
        <ele>42.593049</ele>
        <time>2020-08-11T13:44:27.266Z</time>
      </trkpt>
      <trkpt lat="64.86332" lon="11.56825">
        <ele>42.49419</ele>
        <time>2020-08-11T13:44:29.299Z</time>
      </trkpt>
      <trkpt lat="64.8634" lon="11.56843">
        <ele>42.39582</ele>
        <time>2020-08-11T13:44:31.282Z</time>
      </trkpt>
      <trkpt lat="64.86348" lon="11.56861">
        <ele>42.298098</ele>
        <time>2020-08-11T13:44:33.276Z</time>
      </trkpt>
      <trkpt lat="64.86355" lon="11.56878">
        <ele>42.420056</ele>
        <time>2020-08-11T13:44:35.271Z</time>
      </trkpt>
      <trkpt lat="64.86362" lon="11.56894">
        <ele>42.562941</ele>
        <time>2020-08-11T13:44:37.315Z</time>
      </trkpt>
      <trkpt lat="64.8637" lon="11.56909">
        <ele>42.701814</ele>
        <time>2020-08-11T13:44:39.261Z</time>
      </trkpt>
      <trkpt lat="64.86377" lon="11.56922">
        <ele>42.837659</ele>
        <time>2020-08-11T13:44:41.268Z</time>
      </trkpt>
      <trkpt lat="64.86385" lon="11.56933">
        <ele>42.967645</ele>
        <time>2020-08-11T13:44:43.273Z</time>
      </trkpt>
      <trkpt lat="64.86394" lon="11.56942">
        <ele>43.10003</ele>
        <time>2020-08-11T13:44:45.269Z</time>
      </trkpt>
      <trkpt lat="64.86406" lon="11.56955">
        <ele>43.291932</ele>
        <time>2020-08-11T13:44:48.271Z</time>
      </trkpt>
      <trkpt lat="64.86415" lon="11.56962">
        <ele>43.423253</ele>
        <time>2020-08-11T13:44:50.290Z</time>
      </trkpt>
      <trkpt lat="64.86424" lon="11.56967">
        <ele>43.558928</ele>
        <time>2020-08-11T13:44:52.269Z</time>
      </trkpt>
      <trkpt lat="64.86433" lon="11.56971">
        <ele>43.68944</ele>
        <time>2020-08-11T13:44:54.289Z</time>
      </trkpt>
      <trkpt lat="64.86442" lon="11.56973">
        <ele>43.821101</ele>
        <time>2020-08-11T13:44:56.286Z</time>
      </trkpt>
      <trkpt lat="64.86452" lon="11.56975">
        <ele>43.967295</ele>
        <time>2020-08-11T13:44:58.289Z</time>
      </trkpt>
      <trkpt lat="64.86466" lon="11.56978">
        <ele>44.156111</ele>
        <time>2020-08-11T13:45:01.281Z</time>
      </trkpt>
      <trkpt lat="64.86478" lon="11.56978">
        <ele>44.330121</ele>
        <time>2020-08-11T13:45:04.294Z</time>
      </trkpt>
      <trkpt lat="64.86488" lon="11.56979">
        <ele>44.472867</ele>
        <time>2020-08-11T13:45:07.296Z</time>
      </trkpt>
      <trkpt lat="64.86497" lon="11.56993">
        <ele>44.633879</ele>
        <time>2020-08-11T13:45:11.287Z</time>
      </trkpt>
      <trkpt lat="64.86504" lon="11.57011">
        <ele>44.776544</ele>
        <time>2020-08-11T13:45:15.295Z</time>
      </trkpt>
      <trkpt lat="64.86508" lon="11.57036">
        <ele>44.966568</ele>
        <time>2020-08-11T13:45:19.277Z</time>
      </trkpt>
      <trkpt lat="64.86513" lon="11.57057">
        <ele>45.150566</ele>
        <time>2020-08-11T13:45:22.286Z</time>
      </trkpt>
      <trkpt lat="64.86516" lon="11.57078">
        <ele>45.327131</ele>
        <time>2020-08-11T13:45:25.284Z</time>
      </trkpt>
      <trkpt lat="64.86519" lon="11.571">
        <ele>45.513267</ele>
        <time>2020-08-11T13:45:28.314Z</time>
      </trkpt>
      <trkpt lat="64.86524" lon="11.57121">
        <ele>45.696802</ele>
        <time>2020-08-11T13:45:31.287Z</time>
      </trkpt>
      <trkpt lat="64.86528" lon="11.57143">
        <ele>45.88539</ele>
        <time>2020-08-11T13:45:34.287Z</time>
      </trkpt>
      <trkpt lat="64.86533" lon="11.57163">
        <ele>46.066695</ele>
        <time>2020-08-11T13:45:37.288Z</time>
      </trkpt>
      <trkpt lat="64.86537" lon="11.57185">
        <ele>46.254853</ele>
        <time>2020-08-11T13:45:40.290Z</time>
      </trkpt>
      <trkpt lat="64.86542" lon="11.57206">
        <ele>46.443564</ele>
        <time>2020-08-11T13:45:43.305Z</time>
      </trkpt>
      <trkpt lat="64.86545" lon="11.57227">
        <ele>46.618055</ele>
        <time>2020-08-11T13:45:46.314Z</time>
      </trkpt>
      <trkpt lat="64.86549" lon="11.57248">
        <ele>46.801276</ele>
        <time>2020-08-11T13:45:49.313Z</time>
      </trkpt>
      <trkpt lat="64.86553" lon="11.5727">
        <ele>46.991392</ele>
        <time>2020-08-11T13:45:52.288Z</time>
      </trkpt>
      <trkpt lat="64.86557" lon="11.57292">
        <ele>47.179019</ele>
        <time>2020-08-11T13:45:55.308Z</time>
      </trkpt>
      <trkpt lat="64.86562" lon="11.57315">
        <ele>47.377545</ele>
        <time>2020-08-11T13:45:58.296Z</time>
      </trkpt>
      <trkpt lat="64.86566" lon="11.57338">
        <ele>47.575278</ele>
        <time>2020-08-11T13:46:01.290Z</time>
      </trkpt>
      <trkpt lat="64.8657" lon="11.57359">
        <ele>47.757996</ele>
        <time>2020-08-11T13:46:04.292Z</time>
      </trkpt>
      <trkpt lat="64.86574" lon="11.5738">
        <ele>47.939795</ele>
        <time>2020-08-11T13:46:07.281Z</time>
      </trkpt>
      <trkpt lat="64.86578" lon="11.57401">
        <ele>48.115059</ele>
        <time>2020-08-11T13:46:10.296Z</time>
      </trkpt>
      <trkpt lat="64.86583" lon="11.57421">
        <ele>48.456867</ele>
        <time>2020-08-11T13:46:13.268Z</time>
      </trkpt>
      <trkpt lat="64.86585" lon="11.57443">
        <ele>48.912862</ele>
        <time>2020-08-11T13:46:16.295Z</time>
      </trkpt>
      <trkpt lat="64.86589" lon="11.57465">
        <ele>49.358009</ele>
        <time>2020-08-11T13:46:19.276Z</time>
      </trkpt>
      <trkpt lat="64.86593" lon="11.57485">
        <ele>49.809546</ele>
        <time>2020-08-11T13:46:22.288Z</time>
      </trkpt>
      <trkpt lat="64.86598" lon="11.57505">
        <ele>50.243159</ele>
        <time>2020-08-11T13:46:25.278Z</time>
      </trkpt>
      <trkpt lat="64.86602" lon="11.57527">
        <ele>50.704598</ele>
        <time>2020-08-11T13:46:28.289Z</time>
      </trkpt>
      <trkpt lat="64.86607" lon="11.5755">
        <ele>51.198876</ele>
        <time>2020-08-11T13:46:31.281Z</time>
      </trkpt>
      <trkpt lat="64.86611" lon="11.57572">
        <ele>51.670848</ele>
        <time>2020-08-11T13:46:34.295Z</time>
      </trkpt>
      <trkpt lat="64.86616" lon="11.57592">
        <ele>52.111696</ele>
        <time>2020-08-11T13:46:37.266Z</time>
      </trkpt>
      <trkpt lat="64.86619" lon="11.57613">
        <ele>52.527459</ele>
        <time>2020-08-11T13:46:40.290Z</time>
      </trkpt>
      <trkpt lat="64.86623" lon="11.57632">
        <ele>52.949954</ele>
        <time>2020-08-11T13:46:43.281Z</time>
      </trkpt>
      <trkpt lat="64.86628" lon="11.57657">
        <ele>53.484181</ele>
        <time>2020-08-11T13:46:47.282Z</time>
      </trkpt>
      <trkpt lat="64.86632" lon="11.57683">
        <ele>54.019376</ele>
        <time>2020-08-11T13:46:51.266Z</time>
      </trkpt>
      <trkpt lat="64.86636" lon="11.57707">
        <ele>54.526798</ele>
        <time>2020-08-11T13:46:55.293Z</time>
      </trkpt>
      <trkpt lat="64.86641" lon="11.57728">
        <ele>54.981817</ele>
        <time>2020-08-11T13:46:59.285Z</time>
      </trkpt>
      <trkpt lat="64.86646" lon="11.57752">
        <ele>55.501737</ele>
        <time>2020-08-11T13:47:03.264Z</time>
      </trkpt>
      <trkpt lat="64.86649" lon="11.57775">
        <ele>55.964007</ele>
        <time>2020-08-11T13:47:07.272Z</time>
      </trkpt>
      <trkpt lat="64.86653" lon="11.57798">
        <ele>56.430114</ele>
        <time>2020-08-11T13:47:11.297Z</time>
      </trkpt>
      <trkpt lat="64.86656" lon="11.5782">
        <ele>56.826001</ele>
        <time>2020-08-11T13:47:15.303Z</time>
      </trkpt>
      <trkpt lat="64.86659" lon="11.5784">
        <ele>57.182655</ele>
        <time>2020-08-11T13:47:19.275Z</time>
      </trkpt>
      <trkpt lat="64.86662" lon="11.57862">
        <ele>57.577558</ele>
        <time>2020-08-11T13:47:24.319Z</time>
      </trkpt>
      <trkpt lat="64.86666" lon="11.57886">
        <ele>58.015399</ele>
        <time>2020-08-11T13:47:29.292Z</time>
      </trkpt>
      <trkpt lat="64.86669" lon="11.57906">
        <ele>58.372051</ele>
        <time>2020-08-11T13:47:33.285Z</time>
      </trkpt>
      <trkpt lat="64.86671" lon="11.57928">
        <ele>58.745449</ele>
        <time>2020-08-11T13:47:37.292Z</time>
      </trkpt>
      <trkpt lat="64.86672" lon="11.57949">
        <ele>59.11469</ele>
        <time>2020-08-11T13:47:41.272Z</time>
      </trkpt>
      <trkpt lat="64.86674" lon="11.57973">
        <ele>59.52922</ele>
        <time>2020-08-11T13:47:45.283Z</time>
      </trkpt>
      <trkpt lat="64.86675" lon="11.57996">
        <ele>59.914109</ele>
        <time>2020-08-11T13:47:49.323Z</time>
      </trkpt>
      <trkpt lat="64.86677" lon="11.58017">
        <ele>60.277606</ele>
        <time>2020-08-11T13:47:53.293Z</time>
      </trkpt>
      <trkpt lat="64.8668" lon="11.5804">
        <ele>60.682719</ele>
        <time>2020-08-11T13:47:58.283Z</time>
      </trkpt>
      <trkpt lat="64.86681" lon="11.58061">
        <ele>61.045428</ele>
        <time>2020-08-11T13:48:02.296Z</time>
      </trkpt>
      <trkpt lat="64.86683" lon="11.58084">
        <ele>61.433705</ele>
        <time>2020-08-11T13:48:06.284Z</time>
      </trkpt>
      <trkpt lat="64.86685" lon="11.58108">
        <ele>61.850104</ele>
        <time>2020-08-11T13:48:11.325Z</time>
      </trkpt>
      <trkpt lat="64.86687" lon="11.58133">
        <ele>62.289988</ele>
        <time>2020-08-11T13:48:16.280Z</time>
      </trkpt>
      <trkpt lat="64.86691" lon="11.58157">
        <ele>62.72966</ele>
        <time>2020-08-11T13:48:21.277Z</time>
      </trkpt>
      <trkpt lat="64.86694" lon="11.58177">
        <ele>63.090006</ele>
        <time>2020-08-11T13:48:25.301Z</time>
      </trkpt>
      <trkpt lat="64.86697" lon="11.58198">
        <ele>63.447743</ele>
        <time>2020-08-11T13:48:29.284Z</time>
      </trkpt>
      <trkpt lat="64.86699" lon="11.58221">
        <ele>63.974598</ele>
        <time>2020-08-11T13:48:34.293Z</time>
      </trkpt>
      <trkpt lat="64.86702" lon="11.58244">
        <ele>64.539415</ele>
        <time>2020-08-11T13:48:39.268Z</time>
      </trkpt>
      <trkpt lat="64.86706" lon="11.58265">
        <ele>65.102769</ele>
        <time>2020-08-11T13:48:44.294Z</time>
      </trkpt>
      <trkpt lat="64.86709" lon="11.58286">
        <ele>65.641876</ele>
        <time>2020-08-11T13:48:49.302Z</time>
      </trkpt>
      <trkpt lat="64.86713" lon="11.58309">
        <ele>66.215864</ele>
        <time>2020-08-11T13:48:54.268Z</time>
      </trkpt>
      <trkpt lat="64.86717" lon="11.58333">
        <ele>66.827873</ele>
        <time>2020-08-11T13:49:00.295Z</time>
      </trkpt>
      <trkpt lat="64.8672" lon="11.58352">
        <ele>67.333953</ele>
        <time>2020-08-11T13:49:05.278Z</time>
      </trkpt>
      <trkpt lat="64.86723" lon="11.58373">
        <ele>67.848174</ele>
        <time>2020-08-11T13:49:10.291Z</time>
      </trkpt>
      <trkpt lat="64.86726" lon="11.58394">
        <ele>68.381147</ele>
        <time>2020-08-11T13:49:15.271Z</time>
      </trkpt>
      <trkpt lat="64.8673" lon="11.58416">
        <ele>68.957581</ele>
        <time>2020-08-11T13:49:20.265Z</time>
      </trkpt>
      <trkpt lat="64.86734" lon="11.58439">
        <ele>69.547336</ele>
        <time>2020-08-11T13:49:25.280Z</time>
      </trkpt>
      <trkpt lat="64.86737" lon="11.5846">
        <ele>70.073392</ele>
        <time>2020-08-11T13:49:30.272Z</time>
      </trkpt>
      <trkpt lat="64.8674" lon="11.5848">
        <ele>70.591683</ele>
        <time>2020-08-11T13:49:35.276Z</time>
      </trkpt>
      <trkpt lat="64.86742" lon="11.58502">
        <ele>71.127566</ele>
        <time>2020-08-11T13:49:40.302Z</time>
      </trkpt>
      <trkpt lat="64.86744" lon="11.58527">
        <ele>71.72266</ele>
        <time>2020-08-11T13:49:46.293Z</time>
      </trkpt>
      <trkpt lat="64.86747" lon="11.5855">
        <ele>72.319502</ele>
        <time>2020-08-11T13:49:51.272Z</time>
      </trkpt>
      <trkpt lat="64.8675" lon="11.58574">
        <ele>72.919899</ele>
        <time>2020-08-11T13:49:56.276Z</time>
      </trkpt>
      <trkpt lat="64.86751" lon="11.58596">
        <ele>73.449276</ele>
        <time>2020-08-11T13:50:00.327Z</time>
      </trkpt>
      <trkpt lat="64.86752" lon="11.58621">
        <ele>73.636073</ele>
        <time>2020-08-11T13:50:06.263Z</time>
      </trkpt>
      <trkpt lat="64.86755" lon="11.58645">
        <ele>73.584432</ele>
        <time>2020-08-11T13:50:11.370Z</time>
      </trkpt>
      <trkpt lat="64.86757" lon="11.58667">
        <ele>73.540372</ele>
        <time>2020-08-11T13:50:15.297Z</time>
      </trkpt>
      <trkpt lat="64.86759" lon="11.58688">
        <ele>73.495173</ele>
        <time>2020-08-11T13:50:19.309Z</time>
      </trkpt>
      <trkpt lat="64.86765" lon="11.58707">
        <ele>73.446675</ele>
        <time>2020-08-11T13:50:23.259Z</time>
      </trkpt>
      <trkpt lat="64.86769" lon="11.58728">
        <ele>73.400573</ele>
        <time>2020-08-11T13:50:27.298Z</time>
      </trkpt>
      <trkpt lat="64.8677" lon="11.58751">
        <ele>73.353914</ele>
        <time>2020-08-11T13:50:31.269Z</time>
      </trkpt>
      <trkpt lat="64.86768" lon="11.58774">
        <ele>73.306199</ele>
        <time>2020-08-11T13:50:36.277Z</time>
      </trkpt>
      <trkpt lat="64.86768" lon="11.58799">
        <ele>73.25608</ele>
        <time>2020-08-11T13:50:40.301Z</time>
      </trkpt>
      <trkpt lat="64.86767" lon="11.58826">
        <ele>73.201771</ele>
        <time>2020-08-11T13:50:44.274Z</time>
      </trkpt>
      <trkpt lat="64.86766" lon="11.58848">
        <ele>73.156633</ele>
        <time>2020-08-11T13:50:47.319Z</time>
      </trkpt>
      <trkpt lat="64.86765" lon="11.5887">
        <ele>73.111899</ele>
        <time>2020-08-11T13:50:50.298Z</time>
      </trkpt>
      <trkpt lat="64.86764" lon="11.58893">
        <ele>73.065518</ele>
        <time>2020-08-11T13:50:53.321Z</time>
      </trkpt>
      <trkpt lat="64.86762" lon="11.58921">
        <ele>73.007946</ele>
        <time>2020-08-11T13:50:56.292Z</time>
      </trkpt>
      <trkpt lat="64.8676" lon="11.58949">
        <ele>72.950123</ele>
        <time>2020-08-11T13:50:59.288Z</time>
      </trkpt>
      <trkpt lat="64.86758" lon="11.58978">
        <ele>72.890215</ele>
        <time>2020-08-11T13:51:02.313Z</time>
      </trkpt>
      <trkpt lat="64.86756" lon="11.58999">
        <ele>72.847061</ele>
        <time>2020-08-11T13:51:04.277Z</time>
      </trkpt>
      <trkpt lat="64.86753" lon="11.59019">
        <ele>72.848764</ele>
        <time>2020-08-11T13:51:06.265Z</time>
      </trkpt>
      <trkpt lat="64.86751" lon="11.5904">
        <ele>73.237449</ele>
        <time>2020-08-11T13:51:08.274Z</time>
      </trkpt>
      <trkpt lat="64.86749" lon="11.59061">
        <ele>73.627889</ele>
        <time>2020-08-11T13:51:10.305Z</time>
      </trkpt>
      <trkpt lat="64.86744" lon="11.5909">
        <ele>74.184881</ele>
        <time>2020-08-11T13:51:13.295Z</time>
      </trkpt>
      <trkpt lat="64.86739" lon="11.59117">
        <ele>74.739492</ele>
        <time>2020-08-11T13:51:16.275Z</time>
      </trkpt>
      <trkpt lat="64.86734" lon="11.59145">
        <ele>75.277228</ele>
        <time>2020-08-11T13:51:19.318Z</time>
      </trkpt>
      <trkpt lat="64.8673" lon="11.59167">
        <ele>75.714741</ele>
        <time>2020-08-11T13:51:22.297Z</time>
      </trkpt>
      <trkpt lat="64.86726" lon="11.59188">
        <ele>76.137228</ele>
        <time>2020-08-11T13:51:25.290Z</time>
      </trkpt>
      <trkpt lat="64.86721" lon="11.5921">
        <ele>76.584712</ele>
        <time>2020-08-11T13:51:28.276Z</time>
      </trkpt>
      <trkpt lat="64.86717" lon="11.5923">
        <ele>76.987625</ele>
        <time>2020-08-11T13:51:31.273Z</time>
      </trkpt>
      <trkpt lat="64.86713" lon="11.59254">
        <ele>77.463995</ele>
        <time>2020-08-11T13:51:35.294Z</time>
      </trkpt>
      <trkpt lat="64.86708" lon="11.5928">
        <ele>77.976749</ele>
        <time>2020-08-11T13:51:39.284Z</time>
      </trkpt>
      <trkpt lat="64.86702" lon="11.59304">
        <ele>78.482731</ele>
        <time>2020-08-11T13:51:43.278Z</time>
      </trkpt>
      <trkpt lat="64.86697" lon="11.59326">
        <ele>78.925018</ele>
        <time>2020-08-11T13:51:47.275Z</time>
      </trkpt>
      <trkpt lat="64.86693" lon="11.59347">
        <ele>79.351079</ele>
        <time>2020-08-11T13:51:51.293Z</time>
      </trkpt>
      <trkpt lat="64.86689" lon="11.59368">
        <ele>79.768575</ele>
        <time>2020-08-11T13:51:55.292Z</time>
      </trkpt>
      <trkpt lat="64.86685" lon="11.59388">
        <ele>80.171741</ele>
        <time>2020-08-11T13:51:59.299Z</time>
      </trkpt>
      <trkpt lat="64.86682" lon="11.59411">
        <ele>80.675482</ele>
        <time>2020-08-11T13:52:03.289Z</time>
      </trkpt>
      <trkpt lat="64.8668" lon="11.59435">
        <ele>81.453206</ele>
        <time>2020-08-11T13:52:07.266Z</time>
      </trkpt>
      <trkpt lat="64.86678" lon="11.59456">
        <ele>82.146911</ele>
        <time>2020-08-11T13:52:11.267Z</time>
      </trkpt>
      <trkpt lat="64.86674" lon="11.5948">
        <ele>82.93928</ele>
        <time>2020-08-11T13:52:15.287Z</time>
      </trkpt>
      <trkpt lat="64.86667" lon="11.59496">
        <ele>83.659137</ele>
        <time>2020-08-11T13:52:19.282Z</time>
      </trkpt>
      <trkpt lat="64.8666" lon="11.5951">
        <ele>84.377426</ele>
        <time>2020-08-11T13:52:23.302Z</time>
      </trkpt>
      <trkpt lat="64.86652" lon="11.59524">
        <ele>85.097672</ele>
        <time>2020-08-11T13:52:27.265Z</time>
      </trkpt>
      <trkpt lat="64.86644" lon="11.59538">
        <ele>85.817953</ele>
        <time>2020-08-11T13:52:31.283Z</time>
      </trkpt>
      <trkpt lat="64.86636" lon="11.59552">
        <ele>86.589303</ele>
        <time>2020-08-11T13:52:35.302Z</time>
      </trkpt>
      <trkpt lat="64.86629" lon="11.59569">
        <ele>87.347003</ele>
        <time>2020-08-11T13:52:39.275Z</time>
      </trkpt>
      <trkpt lat="64.8662" lon="11.59582">
        <ele>88.099483</ele>
        <time>2020-08-11T13:52:43.284Z</time>
      </trkpt>
      <trkpt lat="64.86614" lon="11.59598">
        <ele>88.805674</ele>
        <time>2020-08-11T13:52:48.299Z</time>
      </trkpt>
      <trkpt lat="64.86607" lon="11.59614">
        <ele>89.521571</ele>
        <time>2020-08-11T13:52:53.294Z</time>
      </trkpt>
      <trkpt lat="64.86599" lon="11.59627">
        <ele>90.235268</ele>
        <time>2020-08-11T13:52:57.274Z</time>
      </trkpt>
      <trkpt lat="64.86592" lon="11.5964">
        <ele>90.907206</ele>
        <time>2020-08-11T13:53:01.263Z</time>
      </trkpt>
      <trkpt lat="64.86583" lon="11.59654">
        <ele>91.684574</ele>
        <time>2020-08-11T13:53:06.304Z</time>
      </trkpt>
      <trkpt lat="64.86575" lon="11.59669">
        <ele>92.422473</ele>
        <time>2020-08-11T13:53:11.293Z</time>
      </trkpt>
      <trkpt lat="64.86567" lon="11.59682">
        <ele>93.17275</ele>
        <time>2020-08-11T13:53:17.340Z</time>
      </trkpt>
      <trkpt lat="64.86561" lon="11.59698">
        <ele>93.865119</ele>
        <time>2020-08-11T13:53:23.280Z</time>
      </trkpt>
      <trkpt lat="64.86554" lon="11.59716">
        <ele>94.465758</ele>
        <time>2020-08-11T13:53:29.265Z</time>
      </trkpt>
      <trkpt lat="64.8655" lon="11.59735">
        <ele>95.040069</ele>
        <time>2020-08-11T13:53:35.279Z</time>
      </trkpt>
      <trkpt lat="64.86545" lon="11.59757">
        <ele>95.669516</ele>
        <time>2020-08-11T13:53:41.296Z</time>
      </trkpt>
      <trkpt lat="64.86544" lon="11.59778">
        <ele>96.236216</ele>
        <time>2020-08-11T13:53:47.265Z</time>
      </trkpt>
      <trkpt lat="64.86542" lon="11.59801">
        <ele>96.834708</ele>
        <time>2020-08-11T13:53:54.291Z</time>
      </trkpt>
      <trkpt lat="64.86541" lon="11.59824">
        <ele>97.44484</ele>
        <time>2020-08-11T13:54:00.273Z</time>
      </trkpt>
      <trkpt lat="64.86542" lon="11.59848">
        <ele>98.068908</ele>
        <time>2020-08-11T13:54:06.272Z</time>
      </trkpt>
      <trkpt lat="64.86542" lon="11.59871">
        <ele>98.646354</ele>
        <time>2020-08-11T13:54:12.305Z</time>
      </trkpt>
      <trkpt lat="64.86542" lon="11.59893">
        <ele>99.242005</ele>
        <time>2020-08-11T13:54:19.302Z</time>
      </trkpt>
      <trkpt lat="64.8654" lon="11.59916">
        <ele>99.85405</ele>
        <time>2020-08-11T13:54:26.283Z</time>
      </trkpt>
      <trkpt lat="64.86538" lon="11.59939">
        <ele>100.459784</ele>
        <time>2020-08-11T13:54:33.276Z</time>
      </trkpt>
      <trkpt lat="64.86538" lon="11.59961">
        <ele>101.014094</ele>
        <time>2020-08-11T13:54:41.273Z</time>
      </trkpt>
      <trkpt lat="64.86539" lon="11.59982">
        <ele>101.577263</ele>
        <time>2020-08-11T13:54:48.294Z</time>
      </trkpt>
      <trkpt lat="64.86542" lon="11.60007">
        <ele>102.248195</ele>
        <time>2020-08-11T13:54:54.327Z</time>
      </trkpt>
      <trkpt lat="64.86543" lon="11.6003">
        <ele>102.850196</ele>
        <time>2020-08-11T13:55:00.282Z</time>
      </trkpt>
      <trkpt lat="64.86545" lon="11.60056">
        <ele>103.546378</ele>
        <time>2020-08-11T13:55:04.309Z</time>
      </trkpt>
      <trkpt lat="64.86546" lon="11.60079">
        <ele>104.136772</ele>
        <time>2020-08-11T13:55:06.295Z</time>
      </trkpt>
      <trkpt lat="64.86548" lon="11.601">
        <ele>104.695773</ele>
        <time>2020-08-11T13:55:08.275Z</time>
      </trkpt>
      <trkpt lat="64.86546" lon="11.60125">
        <ele>104.768816</ele>
        <time>2020-08-11T13:55:11.286Z</time>
      </trkpt>
      <trkpt lat="64.86539" lon="11.6014">
        <ele>104.661288</ele>
        <time>2020-08-11T13:55:14.307Z</time>
      </trkpt>
      <trkpt lat="64.8653" lon="11.6016">
        <ele>104.518695</ele>
        <time>2020-08-11T13:55:17.279Z</time>
      </trkpt>
      <trkpt lat="64.86522" lon="11.60174">
        <ele>104.414667</ele>
        <time>2020-08-11T13:55:19.292Z</time>
      </trkpt>
      <trkpt lat="64.86511" lon="11.60183">
        <ele>104.279633</ele>
        <time>2020-08-11T13:55:22.279Z</time>
      </trkpt>
      <trkpt lat="64.86506" lon="11.60211">
        <ele>104.13457</ele>
        <time>2020-08-11T13:55:25.303Z</time>
      </trkpt>
      <trkpt lat="64.86497" lon="11.60226">
        <ele>104.00879</ele>
        <time>2020-08-11T13:55:27.267Z</time>
      </trkpt>
      <trkpt lat="64.86488" lon="11.6023">
        <ele>103.90167</ele>
        <time>2020-08-11T13:55:29.283Z</time>
      </trkpt>
      <trkpt lat="64.86478" lon="11.60238">
        <ele>103.792827</ele>
        <time>2020-08-11T13:55:35.318Z</time>
      </trkpt>
      <trkpt lat="64.86477" lon="11.60264">
        <ele>103.667625</ele>
        <time>2020-08-11T13:55:39.296Z</time>
      </trkpt>
      <trkpt lat="64.86477" lon="11.60287">
        <ele>103.559105</ele>
        <time>2020-08-11T13:55:42.287Z</time>
      </trkpt>
      <trkpt lat="64.86478" lon="11.60309">
        <ele>103.45401</ele>
        <time>2020-08-11T13:55:45.304Z</time>
      </trkpt>
      <trkpt lat="64.86481" lon="11.60332">
        <ele>103.337654</ele>
        <time>2020-08-11T13:55:49.281Z</time>
      </trkpt>
      <trkpt lat="64.86484" lon="11.60355">
        <ele>103.226781</ele>
        <time>2020-08-11T13:55:53.308Z</time>
      </trkpt>
      <trkpt lat="64.86485" lon="11.60379">
        <ele>103.109912</ele>
        <time>2020-08-11T13:55:58.272Z</time>
      </trkpt>
      <trkpt lat="64.86486" lon="11.60403">
        <ele>102.994615</ele>
        <time>2020-08-11T13:56:02.290Z</time>
      </trkpt>
      <trkpt lat="64.86488" lon="11.60428">
        <ele>102.872377</ele>
        <time>2020-08-11T13:56:06.304Z</time>
      </trkpt>
      <trkpt lat="64.86491" lon="11.60454">
        <ele>103.074945</ele>
        <time>2020-08-11T13:56:11.310Z</time>
      </trkpt>
      <trkpt lat="64.86493" lon="11.60478">
        <ele>103.342856</ele>
        <time>2020-08-11T13:56:16.265Z</time>
      </trkpt>
      <trkpt lat="64.86471" lon="11.60361">
        <ele>104.776463</ele>
        <time>2020-08-11T14:12:22.281Z</time>
      </trkpt>
      <trkpt lat="64.86472" lon="11.60386">
        <ele>105.059075</ele>
        <time>2020-08-11T14:12:23.278Z</time>
      </trkpt>
      <trkpt lat="64.86485" lon="11.60428">
        <ele>105.634766</ele>
        <time>2020-08-11T14:12:28.282Z</time>
      </trkpt>
      <trkpt lat="64.8649" lon="11.60456">
        <ele>105.985977</ele>
        <time>2020-08-11T14:12:29.265Z</time>
      </trkpt>
      <trkpt lat="64.86493" lon="11.60477">
        <ele>106.228005</ele>
        <time>2020-08-11T14:12:32.254Z</time>
      </trkpt>
      <trkpt lat="64.86505" lon="11.60506">
        <ele>106.687012</ele>
        <time>2020-08-11T14:17:00.271Z</time>
      </trkpt>
      <trkpt lat="64.86516" lon="11.60501">
        <ele>106.971517</ele>
        <time>2020-08-11T14:17:06.270Z</time>
      </trkpt>
      <trkpt lat="64.86524" lon="11.60492">
        <ele>107.211449</ele>
        <time>2020-08-11T14:17:11.262Z</time>
      </trkpt>
      <trkpt lat="64.86534" lon="11.60477">
        <ele>107.520203</ele>
        <time>2020-08-11T14:17:15.293Z</time>
      </trkpt>
      <trkpt lat="64.86543" lon="11.60467">
        <ele>107.493236</ele>
        <time>2020-08-11T14:17:21.262Z</time>
      </trkpt>
      <trkpt lat="64.86552" lon="11.60461">
        <ele>107.357969</ele>
        <time>2020-08-11T14:17:27.274Z</time>
      </trkpt>
      <trkpt lat="64.86562" lon="11.60457">
        <ele>107.20825</ele>
        <time>2020-08-11T14:17:33.276Z</time>
      </trkpt>
      <trkpt lat="64.86571" lon="11.60453">
        <ele>107.075751</ele>
        <time>2020-08-11T14:17:38.270Z</time>
      </trkpt>
      <trkpt lat="64.8658" lon="11.60445">
        <ele>106.939169</ele>
        <time>2020-08-11T14:17:44.313Z</time>
      </trkpt>
      <trkpt lat="64.8659" lon="11.60438">
        <ele>106.79071</ele>
        <time>2020-08-11T14:17:50.292Z</time>
      </trkpt>
      <trkpt lat="64.86598" lon="11.60424">
        <ele>106.641911</ele>
        <time>2020-08-11T14:17:56.269Z</time>
      </trkpt>
      <trkpt lat="64.86602" lon="11.60405">
        <ele>106.507551</ele>
        <time>2020-08-11T14:18:03.303Z</time>
      </trkpt>
      <trkpt lat="64.86597" lon="11.60387">
        <ele>106.375874</ele>
        <time>2020-08-11T14:18:07.283Z</time>
      </trkpt>
      <trkpt lat="64.86588" lon="11.60378">
        <ele>106.24068</ele>
        <time>2020-08-11T14:18:10.277Z</time>
      </trkpt>
      <trkpt lat="64.86579" lon="11.60368">
        <ele>106.085891</ele>
        <time>2020-08-11T14:18:13.295Z</time>
      </trkpt>
      <trkpt lat="64.86569" lon="11.60353">
        <ele>105.920955</ele>
        <time>2020-08-11T14:18:16.277Z</time>
      </trkpt>
      <trkpt lat="64.8656" lon="11.60333">
        <ele>105.744288</ele>
        <time>2020-08-11T14:18:19.280Z</time>
      </trkpt>
      <trkpt lat="64.86551" lon="11.60316">
        <ele>105.577572</ele>
        <time>2020-08-11T14:18:22.272Z</time>
      </trkpt>
      <trkpt lat="64.86544" lon="11.60293">
        <ele>105.396677</ele>
        <time>2020-08-11T14:18:25.269Z</time>
      </trkpt>
      <trkpt lat="64.86537" lon="11.60269">
        <ele>105.218646</ele>
        <time>2020-08-11T14:18:28.259Z</time>
      </trkpt>
      <trkpt lat="64.86531" lon="11.60246">
        <ele>105.050854</ele>
        <time>2020-08-11T14:18:31.273Z</time>
      </trkpt>
      <trkpt lat="64.86525" lon="11.60222">
        <ele>104.635062</ele>
        <time>2020-08-11T14:18:34.288Z</time>
      </trkpt>
      <trkpt lat="64.8652" lon="11.60197">
        <ele>104.048679</ele>
        <time>2020-08-11T14:18:37.271Z</time>
      </trkpt>
      <trkpt lat="64.86516" lon="11.6017">
        <ele>103.440943</ele>
        <time>2020-08-11T14:18:40.270Z</time>
      </trkpt>
      <trkpt lat="64.86512" lon="11.60144">
        <ele>102.852993</ele>
        <time>2020-08-11T14:18:43.276Z</time>
      </trkpt>
      <trkpt lat="64.86509" lon="11.60117">
        <ele>102.26241</ele>
        <time>2020-08-11T14:18:46.276Z</time>
      </trkpt>
      <trkpt lat="64.86506" lon="11.6009">
        <ele>101.682326</ele>
        <time>2020-08-11T14:18:49.286Z</time>
      </trkpt>
      <trkpt lat="64.86503" lon="11.60061">
        <ele>101.044558</ele>
        <time>2020-08-11T14:18:52.275Z</time>
      </trkpt>
      <trkpt lat="64.86501" lon="11.6004">
        <ele>100.592682</ele>
        <time>2020-08-11T14:18:54.269Z</time>
      </trkpt>
      <trkpt lat="64.86499" lon="11.60018">
        <ele>100.134602</ele>
        <time>2020-08-11T14:18:56.281Z</time>
      </trkpt>
      <trkpt lat="64.86497" lon="11.59997">
        <ele>99.67036</ele>
        <time>2020-08-11T14:18:58.282Z</time>
      </trkpt>
      <trkpt lat="64.86496" lon="11.59976">
        <ele>99.21715</ele>
        <time>2020-08-11T14:19:00.281Z</time>
      </trkpt>
      <trkpt lat="64.86496" lon="11.5995">
        <ele>98.681395</ele>
        <time>2020-08-11T14:19:02.276Z</time>
      </trkpt>
      <trkpt lat="64.86497" lon="11.59921">
        <ele>98.067271</ele>
        <time>2020-08-11T14:19:04.256Z</time>
      </trkpt>
      <trkpt lat="64.865" lon="11.5989">
        <ele>97.385321</ele>
        <time>2020-08-11T14:19:06.309Z</time>
      </trkpt>
      <trkpt lat="64.86504" lon="11.59856">
        <ele>96.635623</ele>
        <time>2020-08-11T14:19:08.285Z</time>
      </trkpt>
      <trkpt lat="64.8651" lon="11.5982">
        <ele>95.785438</ele>
        <time>2020-08-11T14:19:10.279Z</time>
      </trkpt>
      <trkpt lat="64.86519" lon="11.59787">
        <ele>94.794964</ele>
        <time>2020-08-11T14:19:12.268Z</time>
      </trkpt>
      <trkpt lat="64.86529" lon="11.59754">
        <ele>93.750183</ele>
        <time>2020-08-11T14:19:14.303Z</time>
      </trkpt>
      <trkpt lat="64.86535" lon="11.59737">
        <ele>93.207605</ele>
        <time>2020-08-11T14:19:15.285Z</time>
      </trkpt>
      <trkpt lat="64.86541" lon="11.59722">
        <ele>92.661619</ele>
        <time>2020-08-11T14:19:16.263Z</time>
      </trkpt>
      <trkpt lat="64.86548" lon="11.59707">
        <ele>92.10992</ele>
        <time>2020-08-11T14:19:17.270Z</time>
      </trkpt>
      <trkpt lat="64.86555" lon="11.59692">
        <ele>91.559963</ele>
        <time>2020-08-11T14:19:18.265Z</time>
      </trkpt>
      <trkpt lat="64.86562" lon="11.59678">
        <ele>90.997337</ele>
        <time>2020-08-11T14:19:19.283Z</time>
      </trkpt>
      <trkpt lat="64.86569" lon="11.59664">
        <ele>90.449432</ele>
        <time>2020-08-11T14:19:20.266Z</time>
      </trkpt>
      <trkpt lat="64.86576" lon="11.59651">
        <ele>89.903056</ele>
        <time>2020-08-11T14:19:21.306Z</time>
      </trkpt>
      <trkpt lat="64.86584" lon="11.59638">
        <ele>89.347308</ele>
        <time>2020-08-11T14:19:22.328Z</time>
      </trkpt>
      <trkpt lat="64.86591" lon="11.59625">
        <ele>88.794617</ele>
        <time>2020-08-11T14:19:23.292Z</time>
      </trkpt>
      <trkpt lat="64.86599" lon="11.59612">
        <ele>88.235606</ele>
        <time>2020-08-11T14:19:24.288Z</time>
      </trkpt>
      <trkpt lat="64.86606" lon="11.59599">
        <ele>87.681508</ele>
        <time>2020-08-11T14:19:25.296Z</time>
      </trkpt>
      <trkpt lat="64.86613" lon="11.59585">
        <ele>87.124269</ele>
        <time>2020-08-11T14:19:26.302Z</time>
      </trkpt>
      <trkpt lat="64.8662" lon="11.59571">
        <ele>86.583967</ele>
        <time>2020-08-11T14:19:27.283Z</time>
      </trkpt>
      <trkpt lat="64.86627" lon="11.59557">
        <ele>86.037054</ele>
        <time>2020-08-11T14:19:28.283Z</time>
      </trkpt>
      <trkpt lat="64.86634" lon="11.59543">
        <ele>85.488899</ele>
        <time>2020-08-11T14:19:29.279Z</time>
      </trkpt>
      <trkpt lat="64.86641" lon="11.59529">
        <ele>84.868114</ele>
        <time>2020-08-11T14:19:30.291Z</time>
      </trkpt>
      <trkpt lat="64.86648" lon="11.59515">
        <ele>84.211967</ele>
        <time>2020-08-11T14:19:31.324Z</time>
      </trkpt>
      <trkpt lat="64.86654" lon="11.595">
        <ele>83.566255</ele>
        <time>2020-08-11T14:19:32.291Z</time>
      </trkpt>
      <trkpt lat="64.8666" lon="11.59483">
        <ele>82.92782</ele>
        <time>2020-08-11T14:19:33.320Z</time>
      </trkpt>
      <trkpt lat="64.86666" lon="11.59466">
        <ele>82.285744</ele>
        <time>2020-08-11T14:19:34.287Z</time>
      </trkpt>
      <trkpt lat="64.86674" lon="11.59431">
        <ele>81.041984</ele>
        <time>2020-08-11T14:19:36.282Z</time>
      </trkpt>
      <trkpt lat="64.86681" lon="11.59393">
        <ele>79.826629</ele>
        <time>2020-08-11T14:19:38.269Z</time>
      </trkpt>
      <trkpt lat="64.86687" lon="11.59356">
        <ele>78.619454</ele>
        <time>2020-08-11T14:19:40.298Z</time>
      </trkpt>
      <trkpt lat="64.86693" lon="11.59318">
        <ele>77.396333</ele>
        <time>2020-08-11T14:19:42.284Z</time>
      </trkpt>
      <trkpt lat="64.86697" lon="11.59299">
        <ele>76.758289</ele>
        <time>2020-08-11T14:19:43.296Z</time>
      </trkpt>
      <trkpt lat="64.86701" lon="11.59278">
        <ele>76.092668</ele>
        <time>2020-08-11T14:19:44.281Z</time>
      </trkpt>
      <trkpt lat="64.86704" lon="11.59258">
        <ele>75.446153</ele>
        <time>2020-08-11T14:19:45.293Z</time>
      </trkpt>
      <trkpt lat="64.8671" lon="11.59221">
        <ele>74.225603</ele>
        <time>2020-08-11T14:19:47.277Z</time>
      </trkpt>
      <trkpt lat="64.86717" lon="11.59185">
        <ele>73.052456</ele>
        <time>2020-08-11T14:19:49.304Z</time>
      </trkpt>
      <trkpt lat="64.86724" lon="11.59148">
        <ele>71.807864</ele>
        <time>2020-08-11T14:19:51.288Z</time>
      </trkpt>
      <trkpt lat="64.86731" lon="11.59112">
        <ele>70.568434</ele>
        <time>2020-08-11T14:19:53.290Z</time>
      </trkpt>
      <trkpt lat="64.86738" lon="11.59077">
        <ele>69.368699</ele>
        <time>2020-08-11T14:19:55.293Z</time>
      </trkpt>
      <trkpt lat="64.86744" lon="11.59044">
        <ele>68.264225</ele>
        <time>2020-08-11T14:19:57.289Z</time>
      </trkpt>
      <trkpt lat="64.86748" lon="11.59008">
        <ele>67.103668</ele>
        <time>2020-08-11T14:19:59.280Z</time>
      </trkpt>
      <trkpt lat="64.86751" lon="11.58979">
        <ele>66.154058</ele>
        <time>2020-08-11T14:20:01.285Z</time>
      </trkpt>
      <trkpt lat="64.86754" lon="11.58951">
        <ele>65.240722</ele>
        <time>2020-08-11T14:20:03.296Z</time>
      </trkpt>
      <trkpt lat="64.86756" lon="11.58923">
        <ele>64.380647</ele>
        <time>2020-08-11T14:20:05.284Z</time>
      </trkpt>
      <trkpt lat="64.86757" lon="11.58896">
        <ele>63.532897</ele>
        <time>2020-08-11T14:20:07.280Z</time>
      </trkpt>
      <trkpt lat="64.86758" lon="11.5887">
        <ele>62.719295</ele>
        <time>2020-08-11T14:20:09.292Z</time>
      </trkpt>
      <trkpt lat="64.86758" lon="11.58844">
        <ele>61.904272</ele>
        <time>2020-08-11T14:20:11.284Z</time>
      </trkpt>
      <trkpt lat="64.86759" lon="11.58818">
        <ele>61.105912</ele>
        <time>2020-08-11T14:20:13.309Z</time>
      </trkpt>
      <trkpt lat="64.86759" lon="11.58794">
        <ele>60.353944</ele>
        <time>2020-08-11T14:20:15.288Z</time>
      </trkpt>
      <trkpt lat="64.86759" lon="11.58772">
        <ele>59.668278</ele>
        <time>2020-08-11T14:20:17.292Z</time>
      </trkpt>
      <trkpt lat="64.86759" lon="11.5875">
        <ele>59.802428</ele>
        <time>2020-08-11T14:20:19.284Z</time>
      </trkpt>
      <trkpt lat="64.8676" lon="11.58728">
        <ele>60.739744</ele>
        <time>2020-08-11T14:20:21.276Z</time>
      </trkpt>
      <trkpt lat="64.86769" lon="11.58715">
        <ele>61.736848</ele>
        <time>2020-08-11T14:20:23.286Z</time>
      </trkpt>
      <trkpt lat="64.86779" lon="11.58718">
        <ele>62.827766</ele>
        <time>2020-08-11T14:20:25.288Z</time>
      </trkpt>
      <trkpt lat="64.8679" lon="11.58729">
        <ele>63.957457</ele>
        <time>2020-08-11T14:20:28.274Z</time>
      </trkpt>
      <trkpt lat="64.86799" lon="11.58727">
        <ele>64.895213</ele>
        <time>2020-08-11T14:20:32.288Z</time>
      </trkpt>
      <trkpt lat="64.86809" lon="11.58721">
        <ele>65.925732</ele>
        <time>2020-08-11T14:20:37.294Z</time>
      </trkpt>
      <trkpt lat="64.86819" lon="11.58722">
        <ele>66.871345</ele>
        <time>2020-08-11T14:20:42.289Z</time>
      </trkpt>
      <trkpt lat="64.86828" lon="11.58722">
        <ele>67.785522</ele>
        <time>2020-08-11T14:20:47.301Z</time>
      </trkpt>
      <trkpt lat="64.86838" lon="11.58718">
        <ele>68.781721</ele>
        <time>2020-08-11T14:20:52.277Z</time>
      </trkpt>
      <trkpt lat="64.86849" lon="11.58716">
        <ele>69.887673</ele>
        <time>2020-08-11T14:20:57.303Z</time>
      </trkpt>
      <trkpt lat="64.86859" lon="11.58714">
        <ele>70.875262</ele>
        <time>2020-08-11T14:21:01.278Z</time>
      </trkpt>
      <trkpt lat="64.86868" lon="11.58713">
        <ele>71.779828</ele>
        <time>2020-08-11T14:21:04.283Z</time>
      </trkpt>
      <trkpt lat="64.86878" lon="11.58714">
        <ele>72.804026</ele>
        <time>2020-08-11T14:21:07.280Z</time>
      </trkpt>
      <trkpt lat="64.86889" lon="11.58716">
        <ele>73.862035</ele>
        <time>2020-08-11T14:21:10.273Z</time>
      </trkpt>
      <trkpt lat="64.869" lon="11.58718">
        <ele>74.91815</ele>
        <time>2020-08-11T14:21:13.316Z</time>
      </trkpt>
      <trkpt lat="64.86911" lon="11.58721">
        <ele>76.035077</ele>
        <time>2020-08-11T14:21:16.276Z</time>
      </trkpt>
      <trkpt lat="64.86921" lon="11.58722">
        <ele>77.019392</ele>
        <time>2020-08-11T14:21:19.273Z</time>
      </trkpt>
      <trkpt lat="64.86931" lon="11.58722">
        <ele>77.504698</ele>
        <time>2020-08-11T14:21:22.270Z</time>
      </trkpt>
      <trkpt lat="64.86942" lon="11.5872">
        <ele>77.934029</ele>
        <time>2020-08-11T14:21:26.281Z</time>
      </trkpt>
      <trkpt lat="64.86952" lon="11.58719">
        <ele>78.299051</ele>
        <time>2020-08-11T14:21:30.284Z</time>
      </trkpt>
      <trkpt lat="64.86962" lon="11.58722">
        <ele>78.689302</ele>
        <time>2020-08-11T14:21:34.279Z</time>
      </trkpt>
      <trkpt lat="64.86972" lon="11.58726">
        <ele>79.077612</ele>
        <time>2020-08-11T14:21:38.272Z</time>
      </trkpt>
      <trkpt lat="64.86983" lon="11.58729">
        <ele>79.475725</ele>
        <time>2020-08-11T14:21:44.272Z</time>
      </trkpt>
      <trkpt lat="64.86992" lon="11.58731">
        <ele>79.830623</ele>
        <time>2020-08-11T14:21:48.279Z</time>
      </trkpt>
      <trkpt lat="64.87003" lon="11.58734">
        <ele>80.228339</ele>
        <time>2020-08-11T14:21:50.274Z</time>
      </trkpt>
      <trkpt lat="64.87013" lon="11.58738">
        <ele>80.619882</ele>
        <time>2020-08-11T14:21:54.280Z</time>
      </trkpt>
      <trkpt lat="64.87023" lon="11.58741">
        <ele>81.013674</ele>
        <time>2020-08-11T14:21:58.284Z</time>
      </trkpt>
      <trkpt lat="64.87035" lon="11.58746">
        <ele>81.45654</ele>
        <time>2020-08-11T14:22:02.293Z</time>
      </trkpt>
      <trkpt lat="64.87046" lon="11.58754">
        <ele>81.892868</ele>
        <time>2020-08-11T14:22:06.270Z</time>
      </trkpt>
      <trkpt lat="64.87054" lon="11.58765">
        <ele>82.245379</ele>
        <time>2020-08-11T14:22:09.268Z</time>
      </trkpt>
      <trkpt lat="64.87062" lon="11.58779">
        <ele>82.602296</ele>
        <time>2020-08-11T14:22:12.277Z</time>
      </trkpt>
      <trkpt lat="64.87071" lon="11.58795">
        <ele>83.031252</ele>
        <time>2020-08-11T14:22:16.269Z</time>
      </trkpt>
      <trkpt lat="64.87078" lon="11.5881">
        <ele>83.379975</ele>
        <time>2020-08-11T14:22:19.286Z</time>
      </trkpt>
      <trkpt lat="64.87085" lon="11.58828">
        <ele>83.786081</ele>
        <time>2020-08-11T14:22:22.280Z</time>
      </trkpt>
      <trkpt lat="64.87092" lon="11.58846">
        <ele>83.813539</ele>
        <time>2020-08-11T14:22:25.286Z</time>
      </trkpt>
      <trkpt lat="64.87097" lon="11.58864">
        <ele>83.579589</ele>
        <time>2020-08-11T14:22:28.279Z</time>
      </trkpt>
      <trkpt lat="64.87101" lon="11.58883">
        <ele>83.335766</ele>
        <time>2020-08-11T14:22:31.278Z</time>
      </trkpt>
      <trkpt lat="64.87105" lon="11.58903">
        <ele>83.09814</ele>
        <time>2020-08-11T14:22:34.281Z</time>
      </trkpt>
      <trkpt lat="64.87109" lon="11.58929">
        <ele>82.789964</ele>
        <time>2020-08-11T14:22:38.277Z</time>
      </trkpt>
      <trkpt lat="64.87112" lon="11.5895">
        <ele>82.55012</ele>
        <time>2020-08-11T14:22:41.269Z</time>
      </trkpt>
      <trkpt lat="64.87115" lon="11.5897">
        <ele>82.310277</ele>
        <time>2020-08-11T14:22:44.292Z</time>
      </trkpt>
      <trkpt lat="64.87118" lon="11.58991">
        <ele>82.063588</ele>
        <time>2020-08-11T14:22:47.267Z</time>
      </trkpt>
      <trkpt lat="64.8712" lon="11.59013">
        <ele>81.81308</ele>
        <time>2020-08-11T14:22:50.320Z</time>
      </trkpt>
      <trkpt lat="64.87125" lon="11.59035">
        <ele>81.552976</ele>
        <time>2020-08-11T14:22:53.275Z</time>
      </trkpt>
      <trkpt lat="64.87133" lon="11.59049">
        <ele>81.289932</ele>
        <time>2020-08-11T14:22:57.270Z</time>
      </trkpt>
      <trkpt lat="64.87142" lon="11.59047">
        <ele>81.04471</ele>
        <time>2020-08-11T14:23:01.291Z</time>
      </trkpt>
      <trkpt lat="64.87151" lon="11.59034">
        <ele>80.780602</ele>
        <time>2020-08-11T14:23:06.273Z</time>
      </trkpt>
      <trkpt lat="64.8716" lon="11.59029">
        <ele>80.534624</ele>
        <time>2020-08-11T14:23:10.281Z</time>
      </trkpt>
      <trkpt lat="64.87169" lon="11.59017">
        <ele>80.277734</ele>
        <time>2020-08-11T14:23:15.271Z</time>
      </trkpt>
      <trkpt lat="64.87177" lon="11.59001">
        <ele>79.993074</ele>
        <time>2020-08-11T14:23:20.277Z</time>
      </trkpt>
      <trkpt lat="64.87185" lon="11.58986">
        <ele>79.740932</ele>
        <time>2020-08-11T14:23:25.264Z</time>
      </trkpt>
      <trkpt lat="64.87193" lon="11.58973">
        <ele>79.488724</ele>
        <time>2020-08-11T14:23:30.275Z</time>
      </trkpt>
      <trkpt lat="64.872" lon="11.58956">
        <ele>79.287232</ele>
        <time>2020-08-11T14:23:36.307Z</time>
      </trkpt>
      <trkpt lat="64.87206" lon="11.58939">
        <ele>79.287232</ele>
        <time>2020-08-11T14:23:41.280Z</time>
      </trkpt>
      <trkpt lat="64.87205" lon="11.58917">
        <ele>79.287232</ele>
        <time>2020-08-11T14:23:49.273Z</time>
      </trkpt>
      <trkpt lat="64.87215" lon="11.58922">
        <ele>79.287232</ele>
        <time>2020-08-11T14:25:03.336Z</time>
      </trkpt>
      <trkpt lat="64.87218" lon="11.58943">
        <ele>79.287232</ele>
        <time>2020-08-11T14:25:11.274Z</time>
      </trkpt>
      <trkpt lat="64.87222" lon="11.58964">
        <ele>79.287232</ele>
        <time>2020-08-11T14:25:18.266Z</time>
      </trkpt>
      <trkpt lat="64.87228" lon="11.58983">
        <ele>79.287232</ele>
        <time>2020-08-11T14:25:25.268Z</time>
      </trkpt>
      <trkpt lat="64.87237" lon="11.58978">
        <ele>79.287232</ele>
        <time>2020-08-11T14:25:32.262Z</time>
      </trkpt>
      <trkpt lat="64.87228" lon="11.58974">
        <ele>79.287232</ele>
        <time>2020-08-11T14:28:05.275Z</time>
      </trkpt>
      <trkpt lat="64.87221" lon="11.58953">
        <ele>79.287232</ele>
        <time>2020-08-11T14:28:15.309Z</time>
      </trkpt>
      <trkpt lat="64.87213" lon="11.58937">
        <ele>79.287232</ele>
        <time>2020-08-11T14:28:23.284Z</time>
      </trkpt>
      <trkpt lat="64.87221" lon="11.58949">
        <ele>79.287232</ele>
        <time>2020-08-11T14:28:49.259Z</time>
      </trkpt>
      <trkpt lat="64.87225" lon="11.58968">
        <ele>79.287232</ele>
        <time>2020-08-11T14:28:57.280Z</time>
      </trkpt>
      <trkpt lat="64.87239" lon="11.58993">
        <ele>79.287232</ele>
        <time>2020-08-11T14:51:07.526Z</time>
      </trkpt>
      <trkpt lat="64.87239" lon="11.58993">
        <ele>79.287232</ele>
        <time>2020-08-11T14:51:08.245Z</time>
      </trkpt>
    </trkseg>
  </trk>
</gpx>